<?xml version="1.0" encoding="UTF-8" standalone="no" ?>
<gpx xmlns="http://www.topografix.com/GPX/1/1" xmlns:xsi="http://www.w3.org/2001/XMLSchema-instance" xsi:schemaLocation="http://www.topografix.com/GPX/1/1 http://www.topografix.com/GPX/1/1/gpx.xsd" version="1.1" creator="VisuGPX - https://www.visugpx.com">
  <metadata>
    <name>Mont de Rome Chateau</name>
  </metadata>
  <trk>
    <name><![CDATA[Enregistré le 12 mars 2022 09:47:49]]></name>
    <trkseg>
      <trkpt lat="46.89239" lon="4.6212">
        <ele>377.89999</ele>
        <time>2022-03-12T08:47:33.815Z</time>
      </trkpt>
      <trkpt lat="46.8925" lon="4.62107">
        <ele>385.89999</ele>
        <time>2022-03-12T08:47:51.997Z</time>
      </trkpt>
      <trkpt lat="46.89249" lon="4.62109">
        <ele>386.56665</ele>
        <time>2022-03-12T08:47:57.000Z</time>
      </trkpt>
      <trkpt lat="46.89249" lon="4.62105">
        <ele>386.89999</ele>
        <time>2022-03-12T08:48:03.000Z</time>
      </trkpt>
      <trkpt lat="46.8925" lon="4.62102">
        <ele>387.10001</ele>
        <time>2022-03-12T08:48:09.000Z</time>
      </trkpt>
      <trkpt lat="46.89247" lon="4.62102">
        <ele>387.23331</ele>
        <time>2022-03-12T08:49:31.000Z</time>
      </trkpt>
      <trkpt lat="46.89245" lon="4.62102">
        <ele>387.32855</ele>
        <time>2022-03-12T08:49:33.000Z</time>
      </trkpt>
      <trkpt lat="46.89243" lon="4.62102">
        <ele>387.14996</ele>
        <time>2022-03-12T08:49:36.000Z</time>
      </trkpt>
      <trkpt lat="46.89241" lon="4.62103">
        <ele>387.01108</ele>
        <time>2022-03-12T08:49:38.000Z</time>
      </trkpt>
      <trkpt lat="46.8924" lon="4.62103">
        <ele>386.59995</ele>
        <time>2022-03-12T08:49:41.000Z</time>
      </trkpt>
      <trkpt lat="46.89237" lon="4.62104">
        <ele>386.17267</ele>
        <time>2022-03-12T08:49:44.000Z</time>
      </trkpt>
      <trkpt lat="46.89235" lon="4.62106">
        <ele>385.89993</ele>
        <time>2022-03-12T08:49:47.000Z</time>
      </trkpt>
      <trkpt lat="46.89233" lon="4.62107">
        <ele>385.59225</ele>
        <time>2022-03-12T08:49:49.000Z</time>
      </trkpt>
      <trkpt lat="46.89231" lon="4.62108">
        <ele>385.32852</ele>
        <time>2022-03-12T08:49:51.000Z</time>
      </trkpt>
      <trkpt lat="46.89229" lon="4.6211">
        <ele>385.03326</ele>
        <time>2022-03-12T08:49:54.000Z</time>
      </trkpt>
      <trkpt lat="46.89227" lon="4.62112">
        <ele>384.71243</ele>
        <time>2022-03-12T08:49:56.000Z</time>
      </trkpt>
      <trkpt lat="46.89225" lon="4.62114">
        <ele>384.42935</ele>
        <time>2022-03-12T08:49:59.000Z</time>
      </trkpt>
      <trkpt lat="46.89224" lon="4.62116">
        <ele>384.23328</ele>
        <time>2022-03-12T08:50:01.000Z</time>
      </trkpt>
      <trkpt lat="46.89222" lon="4.62119">
        <ele>384.11044</ele>
        <time>2022-03-12T08:50:03.000Z</time>
      </trkpt>
      <trkpt lat="46.89221" lon="4.62122">
        <ele>383.99994</ele>
        <time>2022-03-12T08:50:06.000Z</time>
      </trkpt>
      <trkpt lat="46.89219" lon="4.6212">
        <ele>384.24994</ele>
        <time>2022-03-12T08:50:13.000Z</time>
      </trkpt>
      <trkpt lat="46.89218" lon="4.62117">
        <ele>383.69992</ele>
        <time>2022-03-12T08:50:15.000Z</time>
      </trkpt>
      <trkpt lat="46.89218" lon="4.62114">
        <ele>383.39993</ele>
        <time>2022-03-12T08:50:18.000Z</time>
      </trkpt>
      <trkpt lat="46.89217" lon="4.6211">
        <ele>383.09991</ele>
        <time>2022-03-12T08:50:21.000Z</time>
      </trkpt>
      <trkpt lat="46.89215" lon="4.62108">
        <ele>382.79993</ele>
        <time>2022-03-12T08:50:23.000Z</time>
      </trkpt>
      <trkpt lat="46.89214" lon="4.62105">
        <ele>382.49994</ele>
        <time>2022-03-12T08:50:25.000Z</time>
      </trkpt>
      <trkpt lat="46.89213" lon="4.62103">
        <ele>382.19992</ele>
        <time>2022-03-12T08:50:27.000Z</time>
      </trkpt>
      <trkpt lat="46.89212" lon="4.621">
        <ele>381.99994</ele>
        <time>2022-03-12T08:50:29.000Z</time>
      </trkpt>
      <trkpt lat="46.89211" lon="4.62096">
        <ele>381.79993</ele>
        <time>2022-03-12T08:50:32.000Z</time>
      </trkpt>
      <trkpt lat="46.8921" lon="4.62093">
        <ele>381.79993</ele>
        <time>2022-03-12T08:50:34.000Z</time>
      </trkpt>
      <trkpt lat="46.8921" lon="4.62086">
        <ele>381.79993</ele>
        <time>2022-03-12T08:50:37.000Z</time>
      </trkpt>
      <trkpt lat="46.89209" lon="4.62083">
        <ele>381.74994</ele>
        <time>2022-03-12T08:50:39.000Z</time>
      </trkpt>
      <trkpt lat="46.89206" lon="4.62082">
        <ele>381.79993</ele>
        <time>2022-03-12T08:50:56.000Z</time>
      </trkpt>
      <trkpt lat="46.89204" lon="4.62083">
        <ele>381.84991</ele>
        <time>2022-03-12T08:50:58.000Z</time>
      </trkpt>
      <trkpt lat="46.89201" lon="4.62081">
        <ele>381.99994</ele>
        <time>2022-03-12T08:51:00.000Z</time>
      </trkpt>
      <trkpt lat="46.89199" lon="4.62082">
        <ele>382.19992</ele>
        <time>2022-03-12T08:51:02.000Z</time>
      </trkpt>
      <trkpt lat="46.89197" lon="4.62082">
        <ele>382.44992</ele>
        <time>2022-03-12T08:51:05.000Z</time>
      </trkpt>
      <trkpt lat="46.89195" lon="4.62082">
        <ele>382.64993</ele>
        <time>2022-03-12T08:51:09.000Z</time>
      </trkpt>
      <trkpt lat="46.89193" lon="4.62083">
        <ele>382.84991</ele>
        <time>2022-03-12T08:51:11.000Z</time>
      </trkpt>
      <trkpt lat="46.89191" lon="4.62083">
        <ele>383.04993</ele>
        <time>2022-03-12T08:51:13.000Z</time>
      </trkpt>
      <trkpt lat="46.89189" lon="4.62084">
        <ele>383.19992</ele>
        <time>2022-03-12T08:51:16.000Z</time>
      </trkpt>
      <trkpt lat="46.89187" lon="4.62084">
        <ele>383.29993</ele>
        <time>2022-03-12T08:51:18.000Z</time>
      </trkpt>
      <trkpt lat="46.89184" lon="4.62086">
        <ele>383.44992</ele>
        <time>2022-03-12T08:51:21.000Z</time>
      </trkpt>
      <trkpt lat="46.89182" lon="4.62086">
        <ele>383.54993</ele>
        <time>2022-03-12T08:51:23.000Z</time>
      </trkpt>
      <trkpt lat="46.8918" lon="4.62087">
        <ele>383.64993</ele>
        <time>2022-03-12T08:51:25.000Z</time>
      </trkpt>
      <trkpt lat="46.89178" lon="4.62089">
        <ele>383.84991</ele>
        <time>2022-03-12T08:51:31.000Z</time>
      </trkpt>
      <trkpt lat="46.89178" lon="4.62091">
        <ele>384.04993</ele>
        <time>2022-03-12T08:51:49.000Z</time>
      </trkpt>
      <trkpt lat="46.89178" lon="4.62095">
        <ele>384.19992</ele>
        <time>2022-03-12T08:51:53.000Z</time>
      </trkpt>
      <trkpt lat="46.89178" lon="4.62098">
        <ele>384.24994</ele>
        <time>2022-03-12T08:51:56.000Z</time>
      </trkpt>
      <trkpt lat="46.89178" lon="4.62102">
        <ele>384.09991</ele>
        <time>2022-03-12T08:51:59.000Z</time>
      </trkpt>
      <trkpt lat="46.89177" lon="4.62105">
        <ele>383.94992</ele>
        <time>2022-03-12T08:52:02.000Z</time>
      </trkpt>
      <trkpt lat="46.89176" lon="4.62108">
        <ele>383.79993</ele>
        <time>2022-03-12T08:52:04.000Z</time>
      </trkpt>
      <trkpt lat="46.89176" lon="4.62111">
        <ele>383.54993</ele>
        <time>2022-03-12T08:52:07.000Z</time>
      </trkpt>
      <trkpt lat="46.89178" lon="4.6211">
        <ele>383.34991</ele>
        <time>2022-03-12T08:52:14.000Z</time>
      </trkpt>
      <trkpt lat="46.8918" lon="4.62109">
        <ele>383.09991</ele>
        <time>2022-03-12T08:52:21.000Z</time>
      </trkpt>
      <trkpt lat="46.8918" lon="4.62106">
        <ele>382.84991</ele>
        <time>2022-03-12T08:52:33.000Z</time>
      </trkpt>
      <trkpt lat="46.89179" lon="4.62109">
        <ele>382.69992</ele>
        <time>2022-03-12T08:54:52.000Z</time>
      </trkpt>
      <trkpt lat="46.89176" lon="4.62113">
        <ele>382.54993</ele>
        <time>2022-03-12T08:54:55.000Z</time>
      </trkpt>
      <trkpt lat="46.89174" lon="4.62115">
        <ele>382.39993</ele>
        <time>2022-03-12T08:54:57.000Z</time>
      </trkpt>
      <trkpt lat="46.89172" lon="4.62118">
        <ele>382.24994</ele>
        <time>2022-03-12T08:54:59.000Z</time>
      </trkpt>
      <trkpt lat="46.8917" lon="4.62122">
        <ele>382.09991</ele>
        <time>2022-03-12T08:55:01.000Z</time>
      </trkpt>
      <trkpt lat="46.89168" lon="4.62124">
        <ele>381.94992</ele>
        <time>2022-03-12T08:55:03.000Z</time>
      </trkpt>
      <trkpt lat="46.89166" lon="4.62126">
        <ele>381.79993</ele>
        <time>2022-03-12T08:55:05.000Z</time>
      </trkpt>
      <trkpt lat="46.89165" lon="4.62129">
        <ele>381.69992</ele>
        <time>2022-03-12T08:55:07.000Z</time>
      </trkpt>
      <trkpt lat="46.89164" lon="4.62133">
        <ele>381.64993</ele>
        <time>2022-03-12T08:55:09.000Z</time>
      </trkpt>
      <trkpt lat="46.89161" lon="4.62137">
        <ele>381.49994</ele>
        <time>2022-03-12T08:55:12.000Z</time>
      </trkpt>
      <trkpt lat="46.8916" lon="4.62139">
        <ele>381.34991</ele>
        <time>2022-03-12T08:55:14.000Z</time>
      </trkpt>
      <trkpt lat="46.89159" lon="4.62142">
        <ele>381.19992</ele>
        <time>2022-03-12T08:55:38.000Z</time>
      </trkpt>
      <trkpt lat="46.89158" lon="4.62145">
        <ele>381.09991</ele>
        <time>2022-03-12T08:55:40.000Z</time>
      </trkpt>
      <trkpt lat="46.89157" lon="4.62148">
        <ele>381.09991</ele>
        <time>2022-03-12T08:55:42.000Z</time>
      </trkpt>
      <trkpt lat="46.89156" lon="4.62151">
        <ele>381.14993</ele>
        <time>2022-03-12T08:55:44.000Z</time>
      </trkpt>
      <trkpt lat="46.89155" lon="4.62154">
        <ele>381.24994</ele>
        <time>2022-03-12T08:55:47.000Z</time>
      </trkpt>
      <trkpt lat="46.89154" lon="4.62157">
        <ele>381.39993</ele>
        <time>2022-03-12T08:55:49.000Z</time>
      </trkpt>
      <trkpt lat="46.89152" lon="4.6216">
        <ele>381.49994</ele>
        <time>2022-03-12T08:55:52.000Z</time>
      </trkpt>
      <trkpt lat="46.89151" lon="4.62163">
        <ele>381.59991</ele>
        <time>2022-03-12T08:55:54.000Z</time>
      </trkpt>
      <trkpt lat="46.8915" lon="4.62166">
        <ele>381.69992</ele>
        <time>2022-03-12T08:55:56.000Z</time>
      </trkpt>
      <trkpt lat="46.89149" lon="4.62168">
        <ele>381.59991</ele>
        <time>2022-03-12T08:55:58.000Z</time>
      </trkpt>
      <trkpt lat="46.89148" lon="4.62171">
        <ele>381.49994</ele>
        <time>2022-03-12T08:56:00.000Z</time>
      </trkpt>
      <trkpt lat="46.89147" lon="4.62174">
        <ele>381.34991</ele>
        <time>2022-03-12T08:56:03.000Z</time>
      </trkpt>
      <trkpt lat="46.89146" lon="4.62177">
        <ele>381.24994</ele>
        <time>2022-03-12T08:56:05.000Z</time>
      </trkpt>
      <trkpt lat="46.89145" lon="4.62179">
        <ele>381.09991</ele>
        <time>2022-03-12T08:56:15.000Z</time>
      </trkpt>
      <trkpt lat="46.89143" lon="4.62183">
        <ele>381.04993</ele>
        <time>2022-03-12T08:56:17.000Z</time>
      </trkpt>
      <trkpt lat="46.89141" lon="4.62187">
        <ele>380.94992</ele>
        <time>2022-03-12T08:56:19.000Z</time>
      </trkpt>
      <trkpt lat="46.89141" lon="4.62191">
        <ele>380.89993</ele>
        <time>2022-03-12T08:56:21.000Z</time>
      </trkpt>
      <trkpt lat="46.8914" lon="4.62195">
        <ele>380.79993</ele>
        <time>2022-03-12T08:56:23.000Z</time>
      </trkpt>
      <trkpt lat="46.8914" lon="4.62198">
        <ele>380.69992</ele>
        <time>2022-03-12T08:56:24.000Z</time>
      </trkpt>
      <trkpt lat="46.89138" lon="4.62202">
        <ele>380.59991</ele>
        <time>2022-03-12T08:56:26.000Z</time>
      </trkpt>
      <trkpt lat="46.89136" lon="4.62207">
        <ele>380.49994</ele>
        <time>2022-03-12T08:56:28.000Z</time>
      </trkpt>
      <trkpt lat="46.89135" lon="4.62209">
        <ele>380.44992</ele>
        <time>2022-03-12T08:56:29.000Z</time>
      </trkpt>
      <trkpt lat="46.89134" lon="4.62213">
        <ele>380.44992</ele>
        <time>2022-03-12T08:56:31.000Z</time>
      </trkpt>
      <trkpt lat="46.89133" lon="4.62216">
        <ele>380.49994</ele>
        <time>2022-03-12T08:56:32.000Z</time>
      </trkpt>
      <trkpt lat="46.89132" lon="4.6222">
        <ele>380.49994</ele>
        <time>2022-03-12T08:56:34.000Z</time>
      </trkpt>
      <trkpt lat="46.89131" lon="4.62225">
        <ele>380.49994</ele>
        <time>2022-03-12T08:56:36.000Z</time>
      </trkpt>
      <trkpt lat="46.8913" lon="4.62228">
        <ele>380.44992</ele>
        <time>2022-03-12T08:56:37.000Z</time>
      </trkpt>
      <trkpt lat="46.89129" lon="4.6223">
        <ele>380.39993</ele>
        <time>2022-03-12T08:56:38.000Z</time>
      </trkpt>
      <trkpt lat="46.89128" lon="4.62234">
        <ele>380.34991</ele>
        <time>2022-03-12T08:56:40.000Z</time>
      </trkpt>
      <trkpt lat="46.89125" lon="4.62236">
        <ele>380.34991</ele>
        <time>2022-03-12T08:56:42.000Z</time>
      </trkpt>
      <trkpt lat="46.89123" lon="4.62238">
        <ele>380.39993</ele>
        <time>2022-03-12T08:56:44.000Z</time>
      </trkpt>
      <trkpt lat="46.89121" lon="4.6224">
        <ele>380.44992</ele>
        <time>2022-03-12T08:56:46.000Z</time>
      </trkpt>
      <trkpt lat="46.89118" lon="4.62241">
        <ele>380.44992</ele>
        <time>2022-03-12T08:56:48.000Z</time>
      </trkpt>
      <trkpt lat="46.89116" lon="4.62242">
        <ele>380.44992</ele>
        <time>2022-03-12T08:56:49.000Z</time>
      </trkpt>
      <trkpt lat="46.89113" lon="4.62242">
        <ele>380.39993</ele>
        <time>2022-03-12T08:56:51.000Z</time>
      </trkpt>
      <trkpt lat="46.8911" lon="4.62243">
        <ele>380.34991</ele>
        <time>2022-03-12T08:56:53.000Z</time>
      </trkpt>
      <trkpt lat="46.89108" lon="4.62243">
        <ele>380.19992</ele>
        <time>2022-03-12T08:57:05.000Z</time>
      </trkpt>
      <trkpt lat="46.89105" lon="4.62242">
        <ele>380.04993</ele>
        <time>2022-03-12T08:57:07.000Z</time>
      </trkpt>
      <trkpt lat="46.89103" lon="4.62241">
        <ele>379.89993</ele>
        <time>2022-03-12T08:57:09.000Z</time>
      </trkpt>
      <trkpt lat="46.891" lon="4.6224">
        <ele>379.74994</ele>
        <time>2022-03-12T08:57:11.000Z</time>
      </trkpt>
      <trkpt lat="46.89097" lon="4.62239">
        <ele>379.64993</ele>
        <time>2022-03-12T08:57:13.000Z</time>
      </trkpt>
      <trkpt lat="46.89095" lon="4.62238">
        <ele>379.49994</ele>
        <time>2022-03-12T08:57:15.000Z</time>
      </trkpt>
      <trkpt lat="46.89092" lon="4.62236">
        <ele>379.34991</ele>
        <time>2022-03-12T08:57:17.000Z</time>
      </trkpt>
      <trkpt lat="46.8909" lon="4.62234">
        <ele>379.14993</ele>
        <time>2022-03-12T08:57:19.000Z</time>
      </trkpt>
      <trkpt lat="46.89086" lon="4.6223">
        <ele>378.89993</ele>
        <time>2022-03-12T08:57:22.000Z</time>
      </trkpt>
      <trkpt lat="46.89084" lon="4.62227">
        <ele>378.64993</ele>
        <time>2022-03-12T08:57:24.000Z</time>
      </trkpt>
      <trkpt lat="46.8908" lon="4.62224">
        <ele>378.39993</ele>
        <time>2022-03-12T08:57:26.000Z</time>
      </trkpt>
      <trkpt lat="46.89078" lon="4.62223">
        <ele>378.14993</ele>
        <time>2022-03-12T08:57:28.000Z</time>
      </trkpt>
      <trkpt lat="46.89077" lon="4.6222">
        <ele>377.94992</ele>
        <time>2022-03-12T08:57:31.000Z</time>
      </trkpt>
      <trkpt lat="46.89076" lon="4.62218">
        <ele>377.74994</ele>
        <time>2022-03-12T08:57:32.000Z</time>
      </trkpt>
      <trkpt lat="46.89075" lon="4.62216">
        <ele>377.44992</ele>
        <time>2022-03-12T08:57:33.000Z</time>
      </trkpt>
      <trkpt lat="46.89072" lon="4.62214">
        <ele>377.14993</ele>
        <time>2022-03-12T08:57:35.000Z</time>
      </trkpt>
      <trkpt lat="46.89069" lon="4.62213">
        <ele>376.79993</ele>
        <time>2022-03-12T08:57:37.000Z</time>
      </trkpt>
      <trkpt lat="46.89067" lon="4.62211">
        <ele>376.49994</ele>
        <time>2022-03-12T08:57:39.000Z</time>
      </trkpt>
      <trkpt lat="46.89065" lon="4.62209">
        <ele>376.14993</ele>
        <time>2022-03-12T08:57:41.000Z</time>
      </trkpt>
      <trkpt lat="46.89063" lon="4.62207">
        <ele>375.89993</ele>
        <time>2022-03-12T08:57:43.000Z</time>
      </trkpt>
      <trkpt lat="46.89061" lon="4.62204">
        <ele>375.64993</ele>
        <time>2022-03-12T08:57:45.000Z</time>
      </trkpt>
      <trkpt lat="46.89058" lon="4.62203">
        <ele>375.39993</ele>
        <time>2022-03-12T08:57:47.000Z</time>
      </trkpt>
      <trkpt lat="46.89056" lon="4.62201">
        <ele>375.09991</ele>
        <time>2022-03-12T08:57:49.000Z</time>
      </trkpt>
      <trkpt lat="46.89053" lon="4.62201">
        <ele>374.79993</ele>
        <time>2022-03-12T08:57:51.000Z</time>
      </trkpt>
      <trkpt lat="46.8905" lon="4.62199">
        <ele>374.44992</ele>
        <time>2022-03-12T08:57:53.000Z</time>
      </trkpt>
      <trkpt lat="46.89047" lon="4.62199">
        <ele>374.09991</ele>
        <time>2022-03-12T08:57:55.000Z</time>
      </trkpt>
      <trkpt lat="46.89045" lon="4.62199">
        <ele>373.74994</ele>
        <time>2022-03-12T08:57:57.000Z</time>
      </trkpt>
      <trkpt lat="46.89043" lon="4.62198">
        <ele>373.39993</ele>
        <time>2022-03-12T08:57:59.000Z</time>
      </trkpt>
      <trkpt lat="46.8904" lon="4.62197">
        <ele>373.04993</ele>
        <time>2022-03-12T08:58:01.000Z</time>
      </trkpt>
      <trkpt lat="46.89037" lon="4.62197">
        <ele>372.69992</ele>
        <time>2022-03-12T08:58:03.000Z</time>
      </trkpt>
      <trkpt lat="46.89034" lon="4.62197">
        <ele>372.39993</ele>
        <time>2022-03-12T08:58:05.000Z</time>
      </trkpt>
      <trkpt lat="46.89031" lon="4.62196">
        <ele>372.04993</ele>
        <time>2022-03-12T08:58:07.000Z</time>
      </trkpt>
      <trkpt lat="46.89027" lon="4.62195">
        <ele>371.64993</ele>
        <time>2022-03-12T08:58:10.000Z</time>
      </trkpt>
      <trkpt lat="46.89025" lon="4.62195">
        <ele>371.24994</ele>
        <time>2022-03-12T08:58:12.000Z</time>
      </trkpt>
      <trkpt lat="46.89022" lon="4.62195">
        <ele>370.84991</ele>
        <time>2022-03-12T08:58:15.000Z</time>
      </trkpt>
      <trkpt lat="46.89019" lon="4.62195">
        <ele>370.49994</ele>
        <time>2022-03-12T08:58:17.000Z</time>
      </trkpt>
      <trkpt lat="46.89017" lon="4.62195">
        <ele>370.14993</ele>
        <time>2022-03-12T08:58:19.000Z</time>
      </trkpt>
      <trkpt lat="46.89014" lon="4.62195">
        <ele>369.79993</ele>
        <time>2022-03-12T08:58:21.000Z</time>
      </trkpt>
      <trkpt lat="46.89012" lon="4.62195">
        <ele>369.49994</ele>
        <time>2022-03-12T08:58:23.000Z</time>
      </trkpt>
      <trkpt lat="46.89009" lon="4.62196">
        <ele>369.14993</ele>
        <time>2022-03-12T08:58:25.000Z</time>
      </trkpt>
      <trkpt lat="46.89007" lon="4.62196">
        <ele>368.79993</ele>
        <time>2022-03-12T08:58:27.000Z</time>
      </trkpt>
      <trkpt lat="46.89005" lon="4.62196">
        <ele>368.44992</ele>
        <time>2022-03-12T08:58:29.000Z</time>
      </trkpt>
      <trkpt lat="46.89003" lon="4.62197">
        <ele>368.09991</ele>
        <time>2022-03-12T08:58:31.000Z</time>
      </trkpt>
      <trkpt lat="46.89001" lon="4.62198">
        <ele>367.74994</ele>
        <time>2022-03-12T08:58:33.000Z</time>
      </trkpt>
      <trkpt lat="46.88998" lon="4.622">
        <ele>367.44992</ele>
        <time>2022-03-12T08:58:36.000Z</time>
      </trkpt>
      <trkpt lat="46.88996" lon="4.62201">
        <ele>367.14993</ele>
        <time>2022-03-12T08:58:38.000Z</time>
      </trkpt>
      <trkpt lat="46.88993" lon="4.62202">
        <ele>366.84991</ele>
        <time>2022-03-12T08:58:40.000Z</time>
      </trkpt>
      <trkpt lat="46.88991" lon="4.62203">
        <ele>366.49994</ele>
        <time>2022-03-12T08:58:42.000Z</time>
      </trkpt>
      <trkpt lat="46.88989" lon="4.62204">
        <ele>366.19992</ele>
        <time>2022-03-12T08:58:44.000Z</time>
      </trkpt>
      <trkpt lat="46.88986" lon="4.62205">
        <ele>365.84991</ele>
        <time>2022-03-12T08:58:46.000Z</time>
      </trkpt>
      <trkpt lat="46.88983" lon="4.62208">
        <ele>365.44992</ele>
        <time>2022-03-12T08:58:49.000Z</time>
      </trkpt>
      <trkpt lat="46.8898" lon="4.6221">
        <ele>365.09991</ele>
        <time>2022-03-12T08:58:51.000Z</time>
      </trkpt>
      <trkpt lat="46.88978" lon="4.62211">
        <ele>364.74994</ele>
        <time>2022-03-12T08:58:53.000Z</time>
      </trkpt>
      <trkpt lat="46.88976" lon="4.62212">
        <ele>364.39993</ele>
        <time>2022-03-12T08:58:55.000Z</time>
      </trkpt>
      <trkpt lat="46.88971" lon="4.62215">
        <ele>364.04993</ele>
        <time>2022-03-12T08:58:58.000Z</time>
      </trkpt>
      <trkpt lat="46.88969" lon="4.62216">
        <ele>363.59991</ele>
        <time>2022-03-12T08:59:00.000Z</time>
      </trkpt>
      <trkpt lat="46.88966" lon="4.62218">
        <ele>363.19992</ele>
        <time>2022-03-12T08:59:02.000Z</time>
      </trkpt>
      <trkpt lat="46.88964" lon="4.62219">
        <ele>362.79993</ele>
        <time>2022-03-12T08:59:04.000Z</time>
      </trkpt>
      <trkpt lat="46.88961" lon="4.62221">
        <ele>362.39993</ele>
        <time>2022-03-12T08:59:06.000Z</time>
      </trkpt>
      <trkpt lat="46.88959" lon="4.62222">
        <ele>361.94992</ele>
        <time>2022-03-12T08:59:08.000Z</time>
      </trkpt>
      <trkpt lat="46.88957" lon="4.62222">
        <ele>361.59991</ele>
        <time>2022-03-12T08:59:10.000Z</time>
      </trkpt>
      <trkpt lat="46.88955" lon="4.62221">
        <ele>361.24994</ele>
        <time>2022-03-12T08:59:12.000Z</time>
      </trkpt>
      <trkpt lat="46.88953" lon="4.62222">
        <ele>360.94992</ele>
        <time>2022-03-12T08:59:14.000Z</time>
      </trkpt>
      <trkpt lat="46.88951" lon="4.62223">
        <ele>360.59991</ele>
        <time>2022-03-12T08:59:16.000Z</time>
      </trkpt>
      <trkpt lat="46.88947" lon="4.62222">
        <ele>360.19992</ele>
        <time>2022-03-12T08:59:19.000Z</time>
      </trkpt>
      <trkpt lat="46.88944" lon="4.62222">
        <ele>359.84991</ele>
        <time>2022-03-12T08:59:21.000Z</time>
      </trkpt>
      <trkpt lat="46.88941" lon="4.62221">
        <ele>359.44992</ele>
        <time>2022-03-12T08:59:23.000Z</time>
      </trkpt>
      <trkpt lat="46.88939" lon="4.6222">
        <ele>359.09991</ele>
        <time>2022-03-12T08:59:25.000Z</time>
      </trkpt>
      <trkpt lat="46.88937" lon="4.6222">
        <ele>358.74994</ele>
        <time>2022-03-12T08:59:27.000Z</time>
      </trkpt>
      <trkpt lat="46.88935" lon="4.6222">
        <ele>358.39993</ele>
        <time>2022-03-12T08:59:29.000Z</time>
      </trkpt>
      <trkpt lat="46.88932" lon="4.6222">
        <ele>358.04993</ele>
        <time>2022-03-12T08:59:31.000Z</time>
      </trkpt>
      <trkpt lat="46.8893" lon="4.62221">
        <ele>357.69992</ele>
        <time>2022-03-12T08:59:33.000Z</time>
      </trkpt>
      <trkpt lat="46.88928" lon="4.62221">
        <ele>357.29993</ele>
        <time>2022-03-12T08:59:36.000Z</time>
      </trkpt>
      <trkpt lat="46.88924" lon="4.62221">
        <ele>356.89993</ele>
        <time>2022-03-12T08:59:39.000Z</time>
      </trkpt>
      <trkpt lat="46.88922" lon="4.62221">
        <ele>356.54993</ele>
        <time>2022-03-12T08:59:41.000Z</time>
      </trkpt>
      <trkpt lat="46.8892" lon="4.62221">
        <ele>356.19992</ele>
        <time>2022-03-12T08:59:43.000Z</time>
      </trkpt>
      <trkpt lat="46.88917" lon="4.62222">
        <ele>355.79993</ele>
        <time>2022-03-12T08:59:45.000Z</time>
      </trkpt>
      <trkpt lat="46.88913" lon="4.62222">
        <ele>355.39993</ele>
        <time>2022-03-12T08:59:48.000Z</time>
      </trkpt>
      <trkpt lat="46.8891" lon="4.62223">
        <ele>354.94992</ele>
        <time>2022-03-12T08:59:50.000Z</time>
      </trkpt>
      <trkpt lat="46.88908" lon="4.62223">
        <ele>354.49994</ele>
        <time>2022-03-12T08:59:52.000Z</time>
      </trkpt>
      <trkpt lat="46.88906" lon="4.62224">
        <ele>353.99994</ele>
        <time>2022-03-12T08:59:54.000Z</time>
      </trkpt>
      <trkpt lat="46.88904" lon="4.62224">
        <ele>353.44992</ele>
        <time>2022-03-12T08:59:56.000Z</time>
      </trkpt>
      <trkpt lat="46.88902" lon="4.62224">
        <ele>352.89993</ele>
        <time>2022-03-12T08:59:58.000Z</time>
      </trkpt>
      <trkpt lat="46.889" lon="4.62225">
        <ele>352.34991</ele>
        <time>2022-03-12T09:00:00.000Z</time>
      </trkpt>
      <trkpt lat="46.88898" lon="4.62225">
        <ele>351.84991</ele>
        <time>2022-03-12T09:00:02.000Z</time>
      </trkpt>
      <trkpt lat="46.88894" lon="4.62226">
        <ele>351.29993</ele>
        <time>2022-03-12T09:00:05.000Z</time>
      </trkpt>
      <trkpt lat="46.88891" lon="4.62227">
        <ele>350.74994</ele>
        <time>2022-03-12T09:00:07.000Z</time>
      </trkpt>
      <trkpt lat="46.88888" lon="4.62228">
        <ele>350.14993</ele>
        <time>2022-03-12T09:00:09.000Z</time>
      </trkpt>
      <trkpt lat="46.88885" lon="4.62228">
        <ele>349.54993</ele>
        <time>2022-03-12T09:00:11.000Z</time>
      </trkpt>
      <trkpt lat="46.88882" lon="4.62229">
        <ele>348.94992</ele>
        <time>2022-03-12T09:00:13.000Z</time>
      </trkpt>
      <trkpt lat="46.8888" lon="4.6223">
        <ele>348.39993</ele>
        <time>2022-03-12T09:00:15.000Z</time>
      </trkpt>
      <trkpt lat="46.88877" lon="4.62231">
        <ele>347.89993</ele>
        <time>2022-03-12T09:00:18.000Z</time>
      </trkpt>
      <trkpt lat="46.88875" lon="4.62231">
        <ele>347.44992</ele>
        <time>2022-03-12T09:00:20.000Z</time>
      </trkpt>
      <trkpt lat="46.88873" lon="4.62231">
        <ele>346.99994</ele>
        <time>2022-03-12T09:00:22.000Z</time>
      </trkpt>
      <trkpt lat="46.8887" lon="4.62232">
        <ele>346.49994</ele>
        <time>2022-03-12T09:00:25.000Z</time>
      </trkpt>
      <trkpt lat="46.88868" lon="4.62233">
        <ele>345.99994</ele>
        <time>2022-03-12T09:00:27.000Z</time>
      </trkpt>
      <trkpt lat="46.88866" lon="4.62235">
        <ele>345.49994</ele>
        <time>2022-03-12T09:00:29.000Z</time>
      </trkpt>
      <trkpt lat="46.88864" lon="4.62237">
        <ele>344.99994</ele>
        <time>2022-03-12T09:00:31.000Z</time>
      </trkpt>
      <trkpt lat="46.88862" lon="4.62238">
        <ele>344.49994</ele>
        <time>2022-03-12T09:00:33.000Z</time>
      </trkpt>
      <trkpt lat="46.8886" lon="4.62239">
        <ele>343.94992</ele>
        <time>2022-03-12T09:00:36.000Z</time>
      </trkpt>
      <trkpt lat="46.88856" lon="4.62241">
        <ele>343.34991</ele>
        <time>2022-03-12T09:00:39.000Z</time>
      </trkpt>
      <trkpt lat="46.88854" lon="4.62241">
        <ele>342.79993</ele>
        <time>2022-03-12T09:00:41.000Z</time>
      </trkpt>
      <trkpt lat="46.88852" lon="4.62242">
        <ele>342.24994</ele>
        <time>2022-03-12T09:00:43.000Z</time>
      </trkpt>
      <trkpt lat="46.88851" lon="4.62244">
        <ele>341.69992</ele>
        <time>2022-03-12T09:00:45.000Z</time>
      </trkpt>
      <trkpt lat="46.88848" lon="4.62245">
        <ele>341.09991</ele>
        <time>2022-03-12T09:00:48.000Z</time>
      </trkpt>
      <trkpt lat="46.88846" lon="4.62246">
        <ele>340.49994</ele>
        <time>2022-03-12T09:00:50.000Z</time>
      </trkpt>
      <trkpt lat="46.88844" lon="4.62248">
        <ele>339.89993</ele>
        <time>2022-03-12T09:00:52.000Z</time>
      </trkpt>
      <trkpt lat="46.88842" lon="4.62249">
        <ele>339.34991</ele>
        <time>2022-03-12T09:00:54.000Z</time>
      </trkpt>
      <trkpt lat="46.88839" lon="4.6225">
        <ele>338.74994</ele>
        <time>2022-03-12T09:00:56.000Z</time>
      </trkpt>
      <trkpt lat="46.88838" lon="4.62251">
        <ele>338.19992</ele>
        <time>2022-03-12T09:00:58.000Z</time>
      </trkpt>
      <trkpt lat="46.88836" lon="4.62252">
        <ele>337.64993</ele>
        <time>2022-03-12T09:01:00.000Z</time>
      </trkpt>
      <trkpt lat="46.88833" lon="4.62254">
        <ele>337.04993</ele>
        <time>2022-03-12T09:01:02.000Z</time>
      </trkpt>
      <trkpt lat="46.88831" lon="4.62256">
        <ele>336.39993</ele>
        <time>2022-03-12T09:01:04.000Z</time>
      </trkpt>
      <trkpt lat="46.88829" lon="4.62258">
        <ele>335.69992</ele>
        <time>2022-03-12T09:01:06.000Z</time>
      </trkpt>
      <trkpt lat="46.88827" lon="4.6226">
        <ele>335.04993</ele>
        <time>2022-03-12T09:01:08.000Z</time>
      </trkpt>
      <trkpt lat="46.88825" lon="4.62262">
        <ele>334.44992</ele>
        <time>2022-03-12T09:01:11.000Z</time>
      </trkpt>
      <trkpt lat="46.88822" lon="4.62263">
        <ele>333.89993</ele>
        <time>2022-03-12T09:01:13.000Z</time>
      </trkpt>
      <trkpt lat="46.8882" lon="4.62264">
        <ele>333.29993</ele>
        <time>2022-03-12T09:01:15.000Z</time>
      </trkpt>
      <trkpt lat="46.88818" lon="4.62267">
        <ele>332.69992</ele>
        <time>2022-03-12T09:01:17.000Z</time>
      </trkpt>
      <trkpt lat="46.88816" lon="4.62268">
        <ele>332.24994</ele>
        <time>2022-03-12T09:01:18.000Z</time>
      </trkpt>
      <trkpt lat="46.88814" lon="4.6227">
        <ele>331.74994</ele>
        <time>2022-03-12T09:01:20.000Z</time>
      </trkpt>
      <trkpt lat="46.88812" lon="4.62271">
        <ele>331.19992</ele>
        <time>2022-03-12T09:01:52.000Z</time>
      </trkpt>
      <trkpt lat="46.8881" lon="4.62273">
        <ele>330.64993</ele>
        <time>2022-03-12T09:01:54.000Z</time>
      </trkpt>
      <trkpt lat="46.88808" lon="4.62275">
        <ele>330.09991</ele>
        <time>2022-03-12T09:01:56.000Z</time>
      </trkpt>
      <trkpt lat="46.88805" lon="4.62277">
        <ele>329.54993</ele>
        <time>2022-03-12T09:01:58.000Z</time>
      </trkpt>
      <trkpt lat="46.88803" lon="4.62278">
        <ele>329.04993</ele>
        <time>2022-03-12T09:02:00.000Z</time>
      </trkpt>
      <trkpt lat="46.88801" lon="4.6228">
        <ele>328.59991</ele>
        <time>2022-03-12T09:02:03.000Z</time>
      </trkpt>
      <trkpt lat="46.88799" lon="4.62281">
        <ele>328.14993</ele>
        <time>2022-03-12T09:02:05.000Z</time>
      </trkpt>
      <trkpt lat="46.88797" lon="4.62283">
        <ele>327.69992</ele>
        <time>2022-03-12T09:02:07.000Z</time>
      </trkpt>
      <trkpt lat="46.88795" lon="4.62284">
        <ele>327.19992</ele>
        <time>2022-03-12T09:02:09.000Z</time>
      </trkpt>
      <trkpt lat="46.88793" lon="4.62286">
        <ele>326.69992</ele>
        <time>2022-03-12T09:02:11.000Z</time>
      </trkpt>
      <trkpt lat="46.8879" lon="4.62288">
        <ele>326.19992</ele>
        <time>2022-03-12T09:02:13.000Z</time>
      </trkpt>
      <trkpt lat="46.88788" lon="4.62291">
        <ele>325.69992</ele>
        <time>2022-03-12T09:02:15.000Z</time>
      </trkpt>
      <trkpt lat="46.88786" lon="4.62294">
        <ele>325.24994</ele>
        <time>2022-03-12T09:02:17.000Z</time>
      </trkpt>
      <trkpt lat="46.88784" lon="4.62297">
        <ele>324.79993</ele>
        <time>2022-03-12T09:02:19.000Z</time>
      </trkpt>
      <trkpt lat="46.88782" lon="4.623">
        <ele>324.34991</ele>
        <time>2022-03-12T09:02:21.000Z</time>
      </trkpt>
      <trkpt lat="46.88779" lon="4.62306">
        <ele>323.89993</ele>
        <time>2022-03-12T09:02:24.000Z</time>
      </trkpt>
      <trkpt lat="46.8878" lon="4.62311">
        <ele>323.49994</ele>
        <time>2022-03-12T09:02:26.000Z</time>
      </trkpt>
      <trkpt lat="46.88781" lon="4.62314">
        <ele>323.14993</ele>
        <time>2022-03-12T09:02:27.000Z</time>
      </trkpt>
      <trkpt lat="46.88782" lon="4.62316">
        <ele>322.69992</ele>
        <time>2022-03-12T09:02:28.000Z</time>
      </trkpt>
      <trkpt lat="46.88784" lon="4.62318">
        <ele>322.34991</ele>
        <time>2022-03-12T09:02:29.000Z</time>
      </trkpt>
      <trkpt lat="46.88786" lon="4.6232">
        <ele>322.04993</ele>
        <time>2022-03-12T09:02:30.000Z</time>
      </trkpt>
      <trkpt lat="46.88788" lon="4.62322">
        <ele>321.74994</ele>
        <time>2022-03-12T09:02:31.000Z</time>
      </trkpt>
      <trkpt lat="46.8879" lon="4.62324">
        <ele>321.44992</ele>
        <time>2022-03-12T09:02:32.000Z</time>
      </trkpt>
      <trkpt lat="46.88792" lon="4.62325">
        <ele>321.19992</ele>
        <time>2022-03-12T09:02:33.000Z</time>
      </trkpt>
      <trkpt lat="46.88794" lon="4.62326">
        <ele>320.94992</ele>
        <time>2022-03-12T09:02:34.000Z</time>
      </trkpt>
      <trkpt lat="46.88796" lon="4.62327">
        <ele>320.74994</ele>
        <time>2022-03-12T09:02:35.000Z</time>
      </trkpt>
      <trkpt lat="46.88798" lon="4.62329">
        <ele>320.54993</ele>
        <time>2022-03-12T09:02:36.000Z</time>
      </trkpt>
      <trkpt lat="46.888" lon="4.6233">
        <ele>320.39993</ele>
        <time>2022-03-12T09:02:37.000Z</time>
      </trkpt>
      <trkpt lat="46.88802" lon="4.62332">
        <ele>320.29993</ele>
        <time>2022-03-12T09:02:38.000Z</time>
      </trkpt>
      <trkpt lat="46.88804" lon="4.62335">
        <ele>320.24994</ele>
        <time>2022-03-12T09:02:40.000Z</time>
      </trkpt>
      <trkpt lat="46.88806" lon="4.62338">
        <ele>320.19992</ele>
        <time>2022-03-12T09:02:42.000Z</time>
      </trkpt>
      <trkpt lat="46.88809" lon="4.62341">
        <ele>320.19992</ele>
        <time>2022-03-12T09:02:44.000Z</time>
      </trkpt>
      <trkpt lat="46.88811" lon="4.62342">
        <ele>320.24994</ele>
        <time>2022-03-12T09:02:45.000Z</time>
      </trkpt>
      <trkpt lat="46.88813" lon="4.62344">
        <ele>320.29993</ele>
        <time>2022-03-12T09:02:47.000Z</time>
      </trkpt>
      <trkpt lat="46.88815" lon="4.62347">
        <ele>320.29993</ele>
        <time>2022-03-12T09:02:49.000Z</time>
      </trkpt>
      <trkpt lat="46.88817" lon="4.62349">
        <ele>320.29993</ele>
        <time>2022-03-12T09:02:51.000Z</time>
      </trkpt>
      <trkpt lat="46.8882" lon="4.62351">
        <ele>320.29993</ele>
        <time>2022-03-12T09:02:53.000Z</time>
      </trkpt>
      <trkpt lat="46.88822" lon="4.62354">
        <ele>320.29993</ele>
        <time>2022-03-12T09:02:55.000Z</time>
      </trkpt>
      <trkpt lat="46.88824" lon="4.62358">
        <ele>320.34991</ele>
        <time>2022-03-12T09:02:57.000Z</time>
      </trkpt>
      <trkpt lat="46.88825" lon="4.6236">
        <ele>320.44992</ele>
        <time>2022-03-12T09:02:59.000Z</time>
      </trkpt>
      <trkpt lat="46.88827" lon="4.62361">
        <ele>320.54993</ele>
        <time>2022-03-12T09:03:01.000Z</time>
      </trkpt>
      <trkpt lat="46.88829" lon="4.62363">
        <ele>320.74994</ele>
        <time>2022-03-12T09:03:03.000Z</time>
      </trkpt>
      <trkpt lat="46.88831" lon="4.62365">
        <ele>320.99994</ele>
        <time>2022-03-12T09:03:05.000Z</time>
      </trkpt>
      <trkpt lat="46.88832" lon="4.62368">
        <ele>321.24994</ele>
        <time>2022-03-12T09:03:07.000Z</time>
      </trkpt>
      <trkpt lat="46.88834" lon="4.6237">
        <ele>321.49994</ele>
        <time>2022-03-12T09:03:09.000Z</time>
      </trkpt>
      <trkpt lat="46.88836" lon="4.62372">
        <ele>321.69992</ele>
        <time>2022-03-12T09:03:11.000Z</time>
      </trkpt>
      <trkpt lat="46.88839" lon="4.62376">
        <ele>321.94992</ele>
        <time>2022-03-12T09:03:14.000Z</time>
      </trkpt>
      <trkpt lat="46.88841" lon="4.62378">
        <ele>322.19992</ele>
        <time>2022-03-12T09:03:16.000Z</time>
      </trkpt>
      <trkpt lat="46.88842" lon="4.6238">
        <ele>322.44992</ele>
        <time>2022-03-12T09:03:18.000Z</time>
      </trkpt>
      <trkpt lat="46.88844" lon="4.62382">
        <ele>322.64993</ele>
        <time>2022-03-12T09:03:20.000Z</time>
      </trkpt>
      <trkpt lat="46.88845" lon="4.62384">
        <ele>322.84991</ele>
        <time>2022-03-12T09:03:23.000Z</time>
      </trkpt>
      <trkpt lat="46.88847" lon="4.62386">
        <ele>323.04993</ele>
        <time>2022-03-12T09:03:25.000Z</time>
      </trkpt>
      <trkpt lat="46.88849" lon="4.62387">
        <ele>323.19992</ele>
        <time>2022-03-12T09:03:27.000Z</time>
      </trkpt>
      <trkpt lat="46.88852" lon="4.62389">
        <ele>323.34991</ele>
        <time>2022-03-12T09:03:29.000Z</time>
      </trkpt>
      <trkpt lat="46.88854" lon="4.62391">
        <ele>323.49994</ele>
        <time>2022-03-12T09:03:31.000Z</time>
      </trkpt>
      <trkpt lat="46.88856" lon="4.62393">
        <ele>323.64993</ele>
        <time>2022-03-12T09:03:33.000Z</time>
      </trkpt>
      <trkpt lat="46.88858" lon="4.62394">
        <ele>323.84991</ele>
        <time>2022-03-12T09:03:35.000Z</time>
      </trkpt>
      <trkpt lat="46.8886" lon="4.62396">
        <ele>324.04993</ele>
        <time>2022-03-12T09:03:37.000Z</time>
      </trkpt>
      <trkpt lat="46.88861" lon="4.62399">
        <ele>324.19992</ele>
        <time>2022-03-12T09:03:39.000Z</time>
      </trkpt>
      <trkpt lat="46.88863" lon="4.62399">
        <ele>324.34991</ele>
        <time>2022-03-12T09:03:41.000Z</time>
      </trkpt>
      <trkpt lat="46.88865" lon="4.62401">
        <ele>324.54993</ele>
        <time>2022-03-12T09:03:43.000Z</time>
      </trkpt>
      <trkpt lat="46.88866" lon="4.62403">
        <ele>324.64993</ele>
        <time>2022-03-12T09:03:45.000Z</time>
      </trkpt>
      <trkpt lat="46.88869" lon="4.62405">
        <ele>324.74994</ele>
        <time>2022-03-12T09:03:47.000Z</time>
      </trkpt>
      <trkpt lat="46.88871" lon="4.62407">
        <ele>324.84991</ele>
        <time>2022-03-12T09:03:49.000Z</time>
      </trkpt>
      <trkpt lat="46.88873" lon="4.62408">
        <ele>324.99994</ele>
        <time>2022-03-12T09:03:51.000Z</time>
      </trkpt>
      <trkpt lat="46.88875" lon="4.62409">
        <ele>325.14993</ele>
        <time>2022-03-12T09:03:53.000Z</time>
      </trkpt>
      <trkpt lat="46.88877" lon="4.62411">
        <ele>325.24994</ele>
        <time>2022-03-12T09:03:55.000Z</time>
      </trkpt>
      <trkpt lat="46.88879" lon="4.62412">
        <ele>325.34991</ele>
        <time>2022-03-12T09:03:58.000Z</time>
      </trkpt>
      <trkpt lat="46.88882" lon="4.62414">
        <ele>325.44992</ele>
        <time>2022-03-12T09:04:00.000Z</time>
      </trkpt>
      <trkpt lat="46.88885" lon="4.62415">
        <ele>325.54993</ele>
        <time>2022-03-12T09:04:02.000Z</time>
      </trkpt>
      <trkpt lat="46.88886" lon="4.62417">
        <ele>325.64993</ele>
        <time>2022-03-12T09:04:04.000Z</time>
      </trkpt>
      <trkpt lat="46.88888" lon="4.62417">
        <ele>325.74994</ele>
        <time>2022-03-12T09:04:06.000Z</time>
      </trkpt>
      <trkpt lat="46.8889" lon="4.62418">
        <ele>325.84991</ele>
        <time>2022-03-12T09:04:08.000Z</time>
      </trkpt>
      <trkpt lat="46.88893" lon="4.62419">
        <ele>325.94992</ele>
        <time>2022-03-12T09:04:10.000Z</time>
      </trkpt>
      <trkpt lat="46.88895" lon="4.6242">
        <ele>326.14993</ele>
        <time>2022-03-12T09:04:12.000Z</time>
      </trkpt>
      <trkpt lat="46.88898" lon="4.62421">
        <ele>326.34991</ele>
        <time>2022-03-12T09:04:14.000Z</time>
      </trkpt>
      <trkpt lat="46.889" lon="4.62423">
        <ele>326.49994</ele>
        <time>2022-03-12T09:04:16.000Z</time>
      </trkpt>
      <trkpt lat="46.88902" lon="4.62424">
        <ele>326.64993</ele>
        <time>2022-03-12T09:04:18.000Z</time>
      </trkpt>
      <trkpt lat="46.88904" lon="4.62424">
        <ele>326.79993</ele>
        <time>2022-03-12T09:04:20.000Z</time>
      </trkpt>
      <trkpt lat="46.88906" lon="4.62425">
        <ele>326.89993</ele>
        <time>2022-03-12T09:04:22.000Z</time>
      </trkpt>
      <trkpt lat="46.88908" lon="4.62427">
        <ele>326.94992</ele>
        <time>2022-03-12T09:04:24.000Z</time>
      </trkpt>
      <trkpt lat="46.88911" lon="4.62427">
        <ele>326.94992</ele>
        <time>2022-03-12T09:04:27.000Z</time>
      </trkpt>
      <trkpt lat="46.88913" lon="4.62428">
        <ele>326.94992</ele>
        <time>2022-03-12T09:04:29.000Z</time>
      </trkpt>
      <trkpt lat="46.88915" lon="4.62429">
        <ele>326.94992</ele>
        <time>2022-03-12T09:04:31.000Z</time>
      </trkpt>
      <trkpt lat="46.88917" lon="4.62431">
        <ele>326.89993</ele>
        <time>2022-03-12T09:04:33.000Z</time>
      </trkpt>
      <trkpt lat="46.88918" lon="4.62434">
        <ele>327.04993</ele>
        <time>2022-03-12T09:04:47.000Z</time>
      </trkpt>
      <trkpt lat="46.8892" lon="4.62433">
        <ele>327.14993</ele>
        <time>2022-03-12T09:04:51.000Z</time>
      </trkpt>
      <trkpt lat="46.88923" lon="4.62434">
        <ele>327.19992</ele>
        <time>2022-03-12T09:04:59.000Z</time>
      </trkpt>
      <trkpt lat="46.88926" lon="4.62434">
        <ele>327.29993</ele>
        <time>2022-03-12T09:05:01.000Z</time>
      </trkpt>
      <trkpt lat="46.88928" lon="4.62435">
        <ele>327.39993</ele>
        <time>2022-03-12T09:05:03.000Z</time>
      </trkpt>
      <trkpt lat="46.88931" lon="4.62436">
        <ele>327.49994</ele>
        <time>2022-03-12T09:05:05.000Z</time>
      </trkpt>
      <trkpt lat="46.88933" lon="4.62436">
        <ele>327.54993</ele>
        <time>2022-03-12T09:05:07.000Z</time>
      </trkpt>
      <trkpt lat="46.88935" lon="4.62438">
        <ele>327.59991</ele>
        <time>2022-03-12T09:05:09.000Z</time>
      </trkpt>
      <trkpt lat="46.88937" lon="4.62439">
        <ele>327.69992</ele>
        <time>2022-03-12T09:05:11.000Z</time>
      </trkpt>
      <trkpt lat="46.8894" lon="4.6244">
        <ele>327.74994</ele>
        <time>2022-03-12T09:05:13.000Z</time>
      </trkpt>
      <trkpt lat="46.88942" lon="4.62441">
        <ele>327.79993</ele>
        <time>2022-03-12T09:05:15.000Z</time>
      </trkpt>
      <trkpt lat="46.88944" lon="4.62442">
        <ele>327.84991</ele>
        <time>2022-03-12T09:05:18.000Z</time>
      </trkpt>
      <trkpt lat="46.88946" lon="4.62444">
        <ele>327.89993</ele>
        <time>2022-03-12T09:05:20.000Z</time>
      </trkpt>
      <trkpt lat="46.88949" lon="4.62445">
        <ele>328.04993</ele>
        <time>2022-03-12T09:05:22.000Z</time>
      </trkpt>
      <trkpt lat="46.88952" lon="4.62446">
        <ele>328.19992</ele>
        <time>2022-03-12T09:05:24.000Z</time>
      </trkpt>
      <trkpt lat="46.88954" lon="4.62447">
        <ele>328.34991</ele>
        <time>2022-03-12T09:05:26.000Z</time>
      </trkpt>
      <trkpt lat="46.88955" lon="4.62448">
        <ele>328.59991</ele>
        <time>2022-03-12T09:05:28.000Z</time>
      </trkpt>
      <trkpt lat="46.88957" lon="4.62449">
        <ele>328.84991</ele>
        <time>2022-03-12T09:05:30.000Z</time>
      </trkpt>
      <trkpt lat="46.88959" lon="4.62451">
        <ele>329.09991</ele>
        <time>2022-03-12T09:05:32.000Z</time>
      </trkpt>
      <trkpt lat="46.88963" lon="4.62452">
        <ele>329.34991</ele>
        <time>2022-03-12T09:05:35.000Z</time>
      </trkpt>
      <trkpt lat="46.88965" lon="4.62454">
        <ele>329.34991</ele>
        <time>2022-03-12T09:05:38.000Z</time>
      </trkpt>
      <trkpt lat="46.88967" lon="4.62454">
        <ele>329.44992</ele>
        <time>2022-03-12T09:05:40.000Z</time>
      </trkpt>
      <trkpt lat="46.88968" lon="4.62456">
        <ele>329.59991</ele>
        <time>2022-03-12T09:05:42.000Z</time>
      </trkpt>
      <trkpt lat="46.8897" lon="4.62459">
        <ele>329.64993</ele>
        <time>2022-03-12T09:05:45.000Z</time>
      </trkpt>
      <trkpt lat="46.88973" lon="4.62459">
        <ele>329.74994</ele>
        <time>2022-03-12T09:05:47.000Z</time>
      </trkpt>
      <trkpt lat="46.88975" lon="4.6246">
        <ele>329.84991</ele>
        <time>2022-03-12T09:05:49.000Z</time>
      </trkpt>
      <trkpt lat="46.88977" lon="4.62461">
        <ele>330.04993</ele>
        <time>2022-03-12T09:05:51.000Z</time>
      </trkpt>
      <trkpt lat="46.8898" lon="4.62461">
        <ele>330.24994</ele>
        <time>2022-03-12T09:05:53.000Z</time>
      </trkpt>
      <trkpt lat="46.88983" lon="4.62461">
        <ele>330.39993</ele>
        <time>2022-03-12T09:05:55.000Z</time>
      </trkpt>
      <trkpt lat="46.88985" lon="4.62462">
        <ele>330.54993</ele>
        <time>2022-03-12T09:05:57.000Z</time>
      </trkpt>
      <trkpt lat="46.88987" lon="4.62463">
        <ele>330.69992</ele>
        <time>2022-03-12T09:05:59.000Z</time>
      </trkpt>
      <trkpt lat="46.88989" lon="4.62463">
        <ele>330.89993</ele>
        <time>2022-03-12T09:06:01.000Z</time>
      </trkpt>
      <trkpt lat="46.88992" lon="4.62464">
        <ele>331.09991</ele>
        <time>2022-03-12T09:06:04.000Z</time>
      </trkpt>
      <trkpt lat="46.88994" lon="4.62465">
        <ele>331.24994</ele>
        <time>2022-03-12T09:06:06.000Z</time>
      </trkpt>
      <trkpt lat="46.88996" lon="4.62467">
        <ele>331.39993</ele>
        <time>2022-03-12T09:06:09.000Z</time>
      </trkpt>
      <trkpt lat="46.88998" lon="4.62468">
        <ele>331.54993</ele>
        <time>2022-03-12T09:06:11.000Z</time>
      </trkpt>
      <trkpt lat="46.89001" lon="4.6247">
        <ele>331.64993</ele>
        <time>2022-03-12T09:06:13.000Z</time>
      </trkpt>
      <trkpt lat="46.89004" lon="4.62472">
        <ele>331.74994</ele>
        <time>2022-03-12T09:06:16.000Z</time>
      </trkpt>
      <trkpt lat="46.89006" lon="4.62473">
        <ele>331.89993</ele>
        <time>2022-03-12T09:06:18.000Z</time>
      </trkpt>
      <trkpt lat="46.89009" lon="4.62474">
        <ele>332.04993</ele>
        <time>2022-03-12T09:06:20.000Z</time>
      </trkpt>
      <trkpt lat="46.89011" lon="4.62475">
        <ele>332.24994</ele>
        <time>2022-03-12T09:06:22.000Z</time>
      </trkpt>
      <trkpt lat="46.89013" lon="4.62477">
        <ele>332.39993</ele>
        <time>2022-03-12T09:06:24.000Z</time>
      </trkpt>
      <trkpt lat="46.89016" lon="4.62478">
        <ele>332.54993</ele>
        <time>2022-03-12T09:06:27.000Z</time>
      </trkpt>
      <trkpt lat="46.89018" lon="4.62478">
        <ele>332.74994</ele>
        <time>2022-03-12T09:06:29.000Z</time>
      </trkpt>
      <trkpt lat="46.8902" lon="4.62479">
        <ele>332.99994</ele>
        <time>2022-03-12T09:06:31.000Z</time>
      </trkpt>
      <trkpt lat="46.89022" lon="4.62478">
        <ele>333.24994</ele>
        <time>2022-03-12T09:06:33.000Z</time>
      </trkpt>
      <trkpt lat="46.89025" lon="4.62478">
        <ele>333.49994</ele>
        <time>2022-03-12T09:06:36.000Z</time>
      </trkpt>
      <trkpt lat="46.89027" lon="4.62478">
        <ele>333.74994</ele>
        <time>2022-03-12T09:06:39.000Z</time>
      </trkpt>
      <trkpt lat="46.89029" lon="4.6248">
        <ele>333.94992</ele>
        <time>2022-03-12T09:06:42.000Z</time>
      </trkpt>
      <trkpt lat="46.89031" lon="4.6248">
        <ele>334.14993</ele>
        <time>2022-03-12T09:06:44.000Z</time>
      </trkpt>
      <trkpt lat="46.89033" lon="4.6248">
        <ele>334.34991</ele>
        <time>2022-03-12T09:06:46.000Z</time>
      </trkpt>
      <trkpt lat="46.89037" lon="4.62481">
        <ele>334.49994</ele>
        <time>2022-03-12T09:06:50.000Z</time>
      </trkpt>
      <trkpt lat="46.89039" lon="4.62483">
        <ele>334.64993</ele>
        <time>2022-03-12T09:06:52.000Z</time>
      </trkpt>
      <trkpt lat="46.89041" lon="4.62484">
        <ele>334.84991</ele>
        <time>2022-03-12T09:06:54.000Z</time>
      </trkpt>
      <trkpt lat="46.89043" lon="4.62484">
        <ele>335.04993</ele>
        <time>2022-03-12T09:06:56.000Z</time>
      </trkpt>
      <trkpt lat="46.89045" lon="4.62487">
        <ele>335.24994</ele>
        <time>2022-03-12T09:06:58.000Z</time>
      </trkpt>
      <trkpt lat="46.89047" lon="4.62487">
        <ele>335.44992</ele>
        <time>2022-03-12T09:07:01.000Z</time>
      </trkpt>
      <trkpt lat="46.89049" lon="4.62488">
        <ele>335.69992</ele>
        <time>2022-03-12T09:07:04.000Z</time>
      </trkpt>
      <trkpt lat="46.89051" lon="4.62491">
        <ele>335.89993</ele>
        <time>2022-03-12T09:07:07.000Z</time>
      </trkpt>
      <trkpt lat="46.89053" lon="4.62492">
        <ele>336.09991</ele>
        <time>2022-03-12T09:07:09.000Z</time>
      </trkpt>
      <trkpt lat="46.89055" lon="4.62493">
        <ele>336.29993</ele>
        <time>2022-03-12T09:07:11.000Z</time>
      </trkpt>
      <trkpt lat="46.89056" lon="4.62494">
        <ele>336.49994</ele>
        <time>2022-03-12T09:07:13.000Z</time>
      </trkpt>
      <trkpt lat="46.89059" lon="4.62498">
        <ele>336.74994</ele>
        <time>2022-03-12T09:07:16.000Z</time>
      </trkpt>
      <trkpt lat="46.8906" lon="4.625">
        <ele>336.99994</ele>
        <time>2022-03-12T09:07:18.000Z</time>
      </trkpt>
      <trkpt lat="46.89062" lon="4.62502">
        <ele>337.19992</ele>
        <time>2022-03-12T09:07:20.000Z</time>
      </trkpt>
      <trkpt lat="46.89063" lon="4.62504">
        <ele>337.39993</ele>
        <time>2022-03-12T09:07:22.000Z</time>
      </trkpt>
      <trkpt lat="46.89065" lon="4.62506">
        <ele>337.54993</ele>
        <time>2022-03-12T09:07:24.000Z</time>
      </trkpt>
      <trkpt lat="46.89067" lon="4.62507">
        <ele>337.74994</ele>
        <time>2022-03-12T09:07:26.000Z</time>
      </trkpt>
      <trkpt lat="46.89069" lon="4.6251">
        <ele>337.99994</ele>
        <time>2022-03-12T09:07:29.000Z</time>
      </trkpt>
      <trkpt lat="46.8907" lon="4.62512">
        <ele>338.24994</ele>
        <time>2022-03-12T09:07:32.000Z</time>
      </trkpt>
      <trkpt lat="46.89072" lon="4.62514">
        <ele>338.59991</ele>
        <time>2022-03-12T09:07:35.000Z</time>
      </trkpt>
      <trkpt lat="46.89074" lon="4.62516">
        <ele>338.94992</ele>
        <time>2022-03-12T09:07:38.000Z</time>
      </trkpt>
      <trkpt lat="46.89075" lon="4.62518">
        <ele>339.34991</ele>
        <time>2022-03-12T09:07:40.000Z</time>
      </trkpt>
      <trkpt lat="46.89078" lon="4.62521">
        <ele>339.74994</ele>
        <time>2022-03-12T09:07:43.000Z</time>
      </trkpt>
      <trkpt lat="46.8908" lon="4.62523">
        <ele>340.14993</ele>
        <time>2022-03-12T09:07:45.000Z</time>
      </trkpt>
      <trkpt lat="46.89082" lon="4.62525">
        <ele>340.59991</ele>
        <time>2022-03-12T09:07:48.000Z</time>
      </trkpt>
      <trkpt lat="46.89083" lon="4.62527">
        <ele>341.04993</ele>
        <time>2022-03-12T09:07:50.000Z</time>
      </trkpt>
      <trkpt lat="46.89085" lon="4.6253">
        <ele>341.49994</ele>
        <time>2022-03-12T09:07:52.000Z</time>
      </trkpt>
      <trkpt lat="46.89087" lon="4.62532">
        <ele>341.94992</ele>
        <time>2022-03-12T09:07:54.000Z</time>
      </trkpt>
      <trkpt lat="46.89089" lon="4.62535">
        <ele>342.34991</ele>
        <time>2022-03-12T09:07:57.000Z</time>
      </trkpt>
      <trkpt lat="46.89091" lon="4.62536">
        <ele>342.79993</ele>
        <time>2022-03-12T09:07:59.000Z</time>
      </trkpt>
      <trkpt lat="46.89092" lon="4.62538">
        <ele>343.24994</ele>
        <time>2022-03-12T09:08:15.000Z</time>
      </trkpt>
      <trkpt lat="46.89094" lon="4.6254">
        <ele>343.69992</ele>
        <time>2022-03-12T09:08:18.000Z</time>
      </trkpt>
      <trkpt lat="46.89095" lon="4.62543">
        <ele>344.19992</ele>
        <time>2022-03-12T09:08:22.000Z</time>
      </trkpt>
      <trkpt lat="46.89097" lon="4.62546">
        <ele>344.64993</ele>
        <time>2022-03-12T09:08:25.000Z</time>
      </trkpt>
      <trkpt lat="46.89099" lon="4.62548">
        <ele>345.09991</ele>
        <time>2022-03-12T09:08:27.000Z</time>
      </trkpt>
      <trkpt lat="46.891" lon="4.6255">
        <ele>345.54993</ele>
        <time>2022-03-12T09:08:30.000Z</time>
      </trkpt>
      <trkpt lat="46.89102" lon="4.62552">
        <ele>345.99994</ele>
        <time>2022-03-12T09:08:32.000Z</time>
      </trkpt>
      <trkpt lat="46.89103" lon="4.62554">
        <ele>346.49994</ele>
        <time>2022-03-12T09:08:35.000Z</time>
      </trkpt>
      <trkpt lat="46.89106" lon="4.62558">
        <ele>347.04993</ele>
        <time>2022-03-12T09:08:38.000Z</time>
      </trkpt>
      <trkpt lat="46.89107" lon="4.62559">
        <ele>347.44992</ele>
        <time>2022-03-12T09:08:40.000Z</time>
      </trkpt>
      <trkpt lat="46.89109" lon="4.62561">
        <ele>347.89993</ele>
        <time>2022-03-12T09:08:43.000Z</time>
      </trkpt>
      <trkpt lat="46.89111" lon="4.62562">
        <ele>348.34991</ele>
        <time>2022-03-12T09:08:45.000Z</time>
      </trkpt>
      <trkpt lat="46.89114" lon="4.62564">
        <ele>348.79993</ele>
        <time>2022-03-12T09:08:48.000Z</time>
      </trkpt>
      <trkpt lat="46.89115" lon="4.62565">
        <ele>349.29993</ele>
        <time>2022-03-12T09:08:52.000Z</time>
      </trkpt>
      <trkpt lat="46.89117" lon="4.62567">
        <ele>349.74994</ele>
        <time>2022-03-12T09:08:55.000Z</time>
      </trkpt>
      <trkpt lat="46.89118" lon="4.62569">
        <ele>350.19992</ele>
        <time>2022-03-12T09:08:57.000Z</time>
      </trkpt>
      <trkpt lat="46.8912" lon="4.62572">
        <ele>350.59991</ele>
        <time>2022-03-12T09:08:59.000Z</time>
      </trkpt>
      <trkpt lat="46.89123" lon="4.62575">
        <ele>350.94992</ele>
        <time>2022-03-12T09:09:02.000Z</time>
      </trkpt>
      <trkpt lat="46.89124" lon="4.62577">
        <ele>351.34991</ele>
        <time>2022-03-12T09:09:04.000Z</time>
      </trkpt>
      <trkpt lat="46.89125" lon="4.62579">
        <ele>351.74994</ele>
        <time>2022-03-12T09:09:07.000Z</time>
      </trkpt>
      <trkpt lat="46.89127" lon="4.62581">
        <ele>352.14993</ele>
        <time>2022-03-12T09:09:10.000Z</time>
      </trkpt>
      <trkpt lat="46.89129" lon="4.62584">
        <ele>352.54993</ele>
        <time>2022-03-12T09:09:13.000Z</time>
      </trkpt>
      <trkpt lat="46.8913" lon="4.62587">
        <ele>352.89993</ele>
        <time>2022-03-12T09:09:16.000Z</time>
      </trkpt>
      <trkpt lat="46.89132" lon="4.62588">
        <ele>353.29993</ele>
        <time>2022-03-12T09:09:19.000Z</time>
      </trkpt>
      <trkpt lat="46.89133" lon="4.62591">
        <ele>353.74994</ele>
        <time>2022-03-12T09:09:26.000Z</time>
      </trkpt>
      <trkpt lat="46.89134" lon="4.62594">
        <ele>354.19992</ele>
        <time>2022-03-12T09:09:29.000Z</time>
      </trkpt>
      <trkpt lat="46.89136" lon="4.62596">
        <ele>354.59991</ele>
        <time>2022-03-12T09:09:32.000Z</time>
      </trkpt>
      <trkpt lat="46.89138" lon="4.62598">
        <ele>354.99994</ele>
        <time>2022-03-12T09:09:35.000Z</time>
      </trkpt>
      <trkpt lat="46.8914" lon="4.626">
        <ele>355.34991</ele>
        <time>2022-03-12T09:09:38.000Z</time>
      </trkpt>
      <trkpt lat="46.89142" lon="4.62601">
        <ele>355.74994</ele>
        <time>2022-03-12T09:09:40.000Z</time>
      </trkpt>
      <trkpt lat="46.89144" lon="4.62603">
        <ele>356.14993</ele>
        <time>2022-03-12T09:09:44.000Z</time>
      </trkpt>
      <trkpt lat="46.89145" lon="4.62604">
        <ele>356.49994</ele>
        <time>2022-03-12T09:09:47.000Z</time>
      </trkpt>
      <trkpt lat="46.89147" lon="4.62605">
        <ele>356.84991</ele>
        <time>2022-03-12T09:09:50.000Z</time>
      </trkpt>
      <trkpt lat="46.89149" lon="4.62607">
        <ele>357.19992</ele>
        <time>2022-03-12T09:09:53.000Z</time>
      </trkpt>
      <trkpt lat="46.89152" lon="4.62608">
        <ele>357.64993</ele>
        <time>2022-03-12T09:09:57.000Z</time>
      </trkpt>
      <trkpt lat="46.89153" lon="4.62611">
        <ele>358.09991</ele>
        <time>2022-03-12T09:10:00.000Z</time>
      </trkpt>
      <trkpt lat="46.89154" lon="4.62613">
        <ele>358.54993</ele>
        <time>2022-03-12T09:10:03.000Z</time>
      </trkpt>
      <trkpt lat="46.89155" lon="4.62614">
        <ele>359.09991</ele>
        <time>2022-03-12T09:10:06.000Z</time>
      </trkpt>
      <trkpt lat="46.89157" lon="4.62616">
        <ele>359.64993</ele>
        <time>2022-03-12T09:10:09.000Z</time>
      </trkpt>
      <trkpt lat="46.89158" lon="4.62619">
        <ele>360.19992</ele>
        <time>2022-03-12T09:10:12.000Z</time>
      </trkpt>
      <trkpt lat="46.8916" lon="4.6262">
        <ele>360.79993</ele>
        <time>2022-03-12T09:10:15.000Z</time>
      </trkpt>
      <trkpt lat="46.89161" lon="4.62623">
        <ele>361.34991</ele>
        <time>2022-03-12T09:10:19.000Z</time>
      </trkpt>
      <trkpt lat="46.89163" lon="4.62625">
        <ele>361.89993</ele>
        <time>2022-03-12T09:10:21.000Z</time>
      </trkpt>
      <trkpt lat="46.89165" lon="4.62627">
        <ele>362.44992</ele>
        <time>2022-03-12T09:10:26.000Z</time>
      </trkpt>
      <trkpt lat="46.89166" lon="4.62629">
        <ele>362.94992</ele>
        <time>2022-03-12T09:10:28.000Z</time>
      </trkpt>
      <trkpt lat="46.89168" lon="4.62632">
        <ele>363.49994</ele>
        <time>2022-03-12T09:10:31.000Z</time>
      </trkpt>
      <trkpt lat="46.89169" lon="4.62634">
        <ele>364.09991</ele>
        <time>2022-03-12T09:10:34.000Z</time>
      </trkpt>
      <trkpt lat="46.89171" lon="4.62636">
        <ele>364.59991</ele>
        <time>2022-03-12T09:10:36.000Z</time>
      </trkpt>
      <trkpt lat="46.89172" lon="4.62637">
        <ele>365.14993</ele>
        <time>2022-03-12T09:10:38.000Z</time>
      </trkpt>
      <trkpt lat="46.89174" lon="4.62638">
        <ele>365.74994</ele>
        <time>2022-03-12T09:10:41.000Z</time>
      </trkpt>
      <trkpt lat="46.89177" lon="4.62638">
        <ele>366.29993</ele>
        <time>2022-03-12T09:10:44.000Z</time>
      </trkpt>
      <trkpt lat="46.89179" lon="4.62639">
        <ele>366.89993</ele>
        <time>2022-03-12T09:10:47.000Z</time>
      </trkpt>
      <trkpt lat="46.89181" lon="4.6264">
        <ele>367.44992</ele>
        <time>2022-03-12T09:10:49.000Z</time>
      </trkpt>
      <trkpt lat="46.89183" lon="4.6264">
        <ele>367.94992</ele>
        <time>2022-03-12T09:10:53.000Z</time>
      </trkpt>
      <trkpt lat="46.89185" lon="4.62642">
        <ele>368.34991</ele>
        <time>2022-03-12T09:10:56.000Z</time>
      </trkpt>
      <trkpt lat="46.89184" lon="4.62645">
        <ele>368.84991</ele>
        <time>2022-03-12T09:11:01.000Z</time>
      </trkpt>
      <trkpt lat="46.89183" lon="4.62648">
        <ele>369.34991</ele>
        <time>2022-03-12T09:11:04.000Z</time>
      </trkpt>
      <trkpt lat="46.89184" lon="4.62651">
        <ele>369.89993</ele>
        <time>2022-03-12T09:11:08.000Z</time>
      </trkpt>
      <trkpt lat="46.89186" lon="4.6265">
        <ele>370.49994</ele>
        <time>2022-03-12T09:11:13.000Z</time>
      </trkpt>
      <trkpt lat="46.89185" lon="4.62646">
        <ele>371.09991</ele>
        <time>2022-03-12T09:11:16.000Z</time>
      </trkpt>
      <trkpt lat="46.89184" lon="4.62643">
        <ele>371.44992</ele>
        <time>2022-03-12T09:11:20.000Z</time>
      </trkpt>
      <trkpt lat="46.89186" lon="4.62646">
        <ele>371.84991</ele>
        <time>2022-03-12T09:11:29.000Z</time>
      </trkpt>
      <trkpt lat="46.89187" lon="4.62648">
        <ele>372.19992</ele>
        <time>2022-03-12T09:11:31.000Z</time>
      </trkpt>
      <trkpt lat="46.8919" lon="4.62648">
        <ele>372.49994</ele>
        <time>2022-03-12T09:11:33.000Z</time>
      </trkpt>
      <trkpt lat="46.89192" lon="4.62648">
        <ele>372.84991</ele>
        <time>2022-03-12T09:11:35.000Z</time>
      </trkpt>
      <trkpt lat="46.89194" lon="4.62649">
        <ele>373.14993</ele>
        <time>2022-03-12T09:11:37.000Z</time>
      </trkpt>
      <trkpt lat="46.89196" lon="4.62649">
        <ele>373.39993</ele>
        <time>2022-03-12T09:11:39.000Z</time>
      </trkpt>
      <trkpt lat="46.89198" lon="4.62649">
        <ele>373.69992</ele>
        <time>2022-03-12T09:11:41.000Z</time>
      </trkpt>
      <trkpt lat="46.89199" lon="4.62652">
        <ele>373.94992</ele>
        <time>2022-03-12T09:11:45.000Z</time>
      </trkpt>
      <trkpt lat="46.892" lon="4.62657">
        <ele>374.19992</ele>
        <time>2022-03-12T09:11:48.000Z</time>
      </trkpt>
      <trkpt lat="46.89201" lon="4.62659">
        <ele>374.44992</ele>
        <time>2022-03-12T09:11:50.000Z</time>
      </trkpt>
      <trkpt lat="46.89203" lon="4.62662">
        <ele>374.64993</ele>
        <time>2022-03-12T09:11:52.000Z</time>
      </trkpt>
      <trkpt lat="46.89204" lon="4.62665">
        <ele>374.84991</ele>
        <time>2022-03-12T09:11:54.000Z</time>
      </trkpt>
      <trkpt lat="46.89205" lon="4.62667">
        <ele>375.04993</ele>
        <time>2022-03-12T09:11:56.000Z</time>
      </trkpt>
      <trkpt lat="46.89207" lon="4.62669">
        <ele>375.29993</ele>
        <time>2022-03-12T09:11:59.000Z</time>
      </trkpt>
      <trkpt lat="46.89208" lon="4.62673">
        <ele>375.44992</ele>
        <time>2022-03-12T09:12:02.000Z</time>
      </trkpt>
      <trkpt lat="46.89209" lon="4.62676">
        <ele>375.59991</ele>
        <time>2022-03-12T09:12:04.000Z</time>
      </trkpt>
      <trkpt lat="46.89211" lon="4.62678">
        <ele>375.69992</ele>
        <time>2022-03-12T09:12:06.000Z</time>
      </trkpt>
      <trkpt lat="46.89213" lon="4.6268">
        <ele>375.69992</ele>
        <time>2022-03-12T09:12:08.000Z</time>
      </trkpt>
      <trkpt lat="46.89215" lon="4.62682">
        <ele>375.69992</ele>
        <time>2022-03-12T09:12:10.000Z</time>
      </trkpt>
      <trkpt lat="46.89216" lon="4.62684">
        <ele>375.94992</ele>
        <time>2022-03-12T09:12:12.000Z</time>
      </trkpt>
      <trkpt lat="46.89217" lon="4.62687">
        <ele>376.19992</ele>
        <time>2022-03-12T09:12:14.000Z</time>
      </trkpt>
      <trkpt lat="46.89219" lon="4.62689">
        <ele>376.49994</ele>
        <time>2022-03-12T09:12:16.000Z</time>
      </trkpt>
      <trkpt lat="46.89221" lon="4.62691">
        <ele>376.79993</ele>
        <time>2022-03-12T09:12:18.000Z</time>
      </trkpt>
      <trkpt lat="46.89221" lon="4.62694">
        <ele>377.09991</ele>
        <time>2022-03-12T09:12:20.000Z</time>
      </trkpt>
      <trkpt lat="46.89223" lon="4.62696">
        <ele>377.39993</ele>
        <time>2022-03-12T09:12:22.000Z</time>
      </trkpt>
      <trkpt lat="46.89225" lon="4.62698">
        <ele>377.74994</ele>
        <time>2022-03-12T09:12:24.000Z</time>
      </trkpt>
      <trkpt lat="46.89226" lon="4.627">
        <ele>378.09991</ele>
        <time>2022-03-12T09:12:26.000Z</time>
      </trkpt>
      <trkpt lat="46.89228" lon="4.62703">
        <ele>378.49994</ele>
        <time>2022-03-12T09:12:28.000Z</time>
      </trkpt>
      <trkpt lat="46.8923" lon="4.62707">
        <ele>378.84991</ele>
        <time>2022-03-12T09:12:31.000Z</time>
      </trkpt>
      <trkpt lat="46.89231" lon="4.62709">
        <ele>379.19992</ele>
        <time>2022-03-12T09:12:33.000Z</time>
      </trkpt>
      <trkpt lat="46.89232" lon="4.62712">
        <ele>379.54993</ele>
        <time>2022-03-12T09:12:35.000Z</time>
      </trkpt>
      <trkpt lat="46.89233" lon="4.62714">
        <ele>379.94992</ele>
        <time>2022-03-12T09:12:37.000Z</time>
      </trkpt>
      <trkpt lat="46.89234" lon="4.62717">
        <ele>380.34991</ele>
        <time>2022-03-12T09:12:39.000Z</time>
      </trkpt>
      <trkpt lat="46.89234" lon="4.6272">
        <ele>380.69992</ele>
        <time>2022-03-12T09:12:42.000Z</time>
      </trkpt>
      <trkpt lat="46.89233" lon="4.62724">
        <ele>381.04993</ele>
        <time>2022-03-12T09:12:45.000Z</time>
      </trkpt>
      <trkpt lat="46.89231" lon="4.62726">
        <ele>381.44992</ele>
        <time>2022-03-12T09:12:48.000Z</time>
      </trkpt>
      <trkpt lat="46.89229" lon="4.62729">
        <ele>381.79993</ele>
        <time>2022-03-12T09:12:51.000Z</time>
      </trkpt>
      <trkpt lat="46.89227" lon="4.62731">
        <ele>382.24994</ele>
        <time>2022-03-12T09:12:53.000Z</time>
      </trkpt>
      <trkpt lat="46.89226" lon="4.62733">
        <ele>382.69992</ele>
        <time>2022-03-12T09:12:55.000Z</time>
      </trkpt>
      <trkpt lat="46.89223" lon="4.62737">
        <ele>383.09991</ele>
        <time>2022-03-12T09:12:59.000Z</time>
      </trkpt>
      <trkpt lat="46.89222" lon="4.6274">
        <ele>383.49994</ele>
        <time>2022-03-12T09:13:01.000Z</time>
      </trkpt>
      <trkpt lat="46.89222" lon="4.62743">
        <ele>383.89993</ele>
        <time>2022-03-12T09:13:04.000Z</time>
      </trkpt>
      <trkpt lat="46.89221" lon="4.62745">
        <ele>384.29993</ele>
        <time>2022-03-12T09:13:08.000Z</time>
      </trkpt>
      <trkpt lat="46.89221" lon="4.62748">
        <ele>384.59991</ele>
        <time>2022-03-12T09:13:23.000Z</time>
      </trkpt>
      <trkpt lat="46.89222" lon="4.62751">
        <ele>384.84991</ele>
        <time>2022-03-12T09:13:32.000Z</time>
      </trkpt>
      <trkpt lat="46.89223" lon="4.62753">
        <ele>385.09991</ele>
        <time>2022-03-12T09:13:34.000Z</time>
      </trkpt>
      <trkpt lat="46.89226" lon="4.62755">
        <ele>385.34991</ele>
        <time>2022-03-12T09:13:36.000Z</time>
      </trkpt>
      <trkpt lat="46.89228" lon="4.62757">
        <ele>385.54993</ele>
        <time>2022-03-12T09:13:38.000Z</time>
      </trkpt>
      <trkpt lat="46.89231" lon="4.62759">
        <ele>385.74994</ele>
        <time>2022-03-12T09:13:41.000Z</time>
      </trkpt>
      <trkpt lat="46.89233" lon="4.6276">
        <ele>385.94992</ele>
        <time>2022-03-12T09:13:43.000Z</time>
      </trkpt>
      <trkpt lat="46.89236" lon="4.62761">
        <ele>386.14993</ele>
        <time>2022-03-12T09:13:45.000Z</time>
      </trkpt>
      <trkpt lat="46.89238" lon="4.62763">
        <ele>386.29993</ele>
        <time>2022-03-12T09:13:47.000Z</time>
      </trkpt>
      <trkpt lat="46.8924" lon="4.62765">
        <ele>386.49994</ele>
        <time>2022-03-12T09:13:49.000Z</time>
      </trkpt>
      <trkpt lat="46.89242" lon="4.62766">
        <ele>386.69992</ele>
        <time>2022-03-12T09:13:52.000Z</time>
      </trkpt>
      <trkpt lat="46.89244" lon="4.62768">
        <ele>386.94992</ele>
        <time>2022-03-12T09:13:55.000Z</time>
      </trkpt>
      <trkpt lat="46.89246" lon="4.6277">
        <ele>387.14993</ele>
        <time>2022-03-12T09:13:57.000Z</time>
      </trkpt>
      <trkpt lat="46.89248" lon="4.62772">
        <ele>387.34991</ele>
        <time>2022-03-12T09:13:59.000Z</time>
      </trkpt>
      <trkpt lat="46.89249" lon="4.62774">
        <ele>387.44992</ele>
        <time>2022-03-12T09:14:01.000Z</time>
      </trkpt>
      <trkpt lat="46.89251" lon="4.62775">
        <ele>387.54993</ele>
        <time>2022-03-12T09:14:05.000Z</time>
      </trkpt>
      <trkpt lat="46.89252" lon="4.62777">
        <ele>387.64993</ele>
        <time>2022-03-12T09:14:07.000Z</time>
      </trkpt>
      <trkpt lat="46.89254" lon="4.62779">
        <ele>387.69992</ele>
        <time>2022-03-12T09:14:10.000Z</time>
      </trkpt>
      <trkpt lat="46.89256" lon="4.62781">
        <ele>387.69992</ele>
        <time>2022-03-12T09:14:12.000Z</time>
      </trkpt>
      <trkpt lat="46.89258" lon="4.62782">
        <ele>387.74994</ele>
        <time>2022-03-12T09:14:14.000Z</time>
      </trkpt>
      <trkpt lat="46.8926" lon="4.62784">
        <ele>387.84991</ele>
        <time>2022-03-12T09:14:16.000Z</time>
      </trkpt>
      <trkpt lat="46.89264" lon="4.62783">
        <ele>387.99994</ele>
        <time>2022-03-12T09:14:19.000Z</time>
      </trkpt>
      <trkpt lat="46.89266" lon="4.62785">
        <ele>388.09991</ele>
        <time>2022-03-12T09:14:22.000Z</time>
      </trkpt>
      <trkpt lat="46.89268" lon="4.62786">
        <ele>388.24994</ele>
        <time>2022-03-12T09:14:25.000Z</time>
      </trkpt>
      <trkpt lat="46.89271" lon="4.62787">
        <ele>388.44992</ele>
        <time>2022-03-12T09:14:28.000Z</time>
      </trkpt>
      <trkpt lat="46.89273" lon="4.62788">
        <ele>388.64993</ele>
        <time>2022-03-12T09:14:30.000Z</time>
      </trkpt>
      <trkpt lat="46.89275" lon="4.62789">
        <ele>388.79993</ele>
        <time>2022-03-12T09:14:32.000Z</time>
      </trkpt>
      <trkpt lat="46.89278" lon="4.62789">
        <ele>388.94992</ele>
        <time>2022-03-12T09:14:34.000Z</time>
      </trkpt>
      <trkpt lat="46.8928" lon="4.62788">
        <ele>389.09991</ele>
        <time>2022-03-12T09:14:36.000Z</time>
      </trkpt>
      <trkpt lat="46.89282" lon="4.62789">
        <ele>389.19992</ele>
        <time>2022-03-12T09:14:39.000Z</time>
      </trkpt>
      <trkpt lat="46.89285" lon="4.62789">
        <ele>389.34991</ele>
        <time>2022-03-12T09:14:41.000Z</time>
      </trkpt>
      <trkpt lat="46.89287" lon="4.62788">
        <ele>389.49994</ele>
        <time>2022-03-12T09:14:44.000Z</time>
      </trkpt>
      <trkpt lat="46.89289" lon="4.62788">
        <ele>389.64993</ele>
        <time>2022-03-12T09:14:46.000Z</time>
      </trkpt>
      <trkpt lat="46.89292" lon="4.62788">
        <ele>389.84991</ele>
        <time>2022-03-12T09:14:49.000Z</time>
      </trkpt>
      <trkpt lat="46.89295" lon="4.62784">
        <ele>390.14993</ele>
        <time>2022-03-12T09:14:54.000Z</time>
      </trkpt>
      <trkpt lat="46.89297" lon="4.6278">
        <ele>390.44992</ele>
        <time>2022-03-12T09:14:56.000Z</time>
      </trkpt>
      <trkpt lat="46.89299" lon="4.62777">
        <ele>390.69992</ele>
        <time>2022-03-12T09:14:58.000Z</time>
      </trkpt>
      <trkpt lat="46.893" lon="4.62774">
        <ele>390.94992</ele>
        <time>2022-03-12T09:15:00.000Z</time>
      </trkpt>
      <trkpt lat="46.89302" lon="4.62771">
        <ele>391.24994</ele>
        <time>2022-03-12T09:15:03.000Z</time>
      </trkpt>
      <trkpt lat="46.89304" lon="4.6277">
        <ele>391.49994</ele>
        <time>2022-03-12T09:15:05.000Z</time>
      </trkpt>
      <trkpt lat="46.89306" lon="4.62768">
        <ele>391.74994</ele>
        <time>2022-03-12T09:15:07.000Z</time>
      </trkpt>
      <trkpt lat="46.89308" lon="4.62766">
        <ele>392.04993</ele>
        <time>2022-03-12T09:15:09.000Z</time>
      </trkpt>
      <trkpt lat="46.8931" lon="4.62764">
        <ele>392.34991</ele>
        <time>2022-03-12T09:15:11.000Z</time>
      </trkpt>
      <trkpt lat="46.89311" lon="4.62763">
        <ele>392.54993</ele>
        <time>2022-03-12T09:15:13.000Z</time>
      </trkpt>
      <trkpt lat="46.89312" lon="4.6276">
        <ele>392.69992</ele>
        <time>2022-03-12T09:15:15.000Z</time>
      </trkpt>
      <trkpt lat="46.89314" lon="4.62758">
        <ele>392.84991</ele>
        <time>2022-03-12T09:15:17.000Z</time>
      </trkpt>
      <trkpt lat="46.89316" lon="4.62758">
        <ele>393.04993</ele>
        <time>2022-03-12T09:15:19.000Z</time>
      </trkpt>
      <trkpt lat="46.89318" lon="4.62758">
        <ele>393.24994</ele>
        <time>2022-03-12T09:15:21.000Z</time>
      </trkpt>
      <trkpt lat="46.89321" lon="4.62758">
        <ele>393.44992</ele>
        <time>2022-03-12T09:15:23.000Z</time>
      </trkpt>
      <trkpt lat="46.89323" lon="4.62758">
        <ele>393.64993</ele>
        <time>2022-03-12T09:15:25.000Z</time>
      </trkpt>
      <trkpt lat="46.89325" lon="4.62758">
        <ele>393.84991</ele>
        <time>2022-03-12T09:15:27.000Z</time>
      </trkpt>
      <trkpt lat="46.89327" lon="4.62759">
        <ele>393.99994</ele>
        <time>2022-03-12T09:15:29.000Z</time>
      </trkpt>
      <trkpt lat="46.89329" lon="4.62761">
        <ele>394.09991</ele>
        <time>2022-03-12T09:15:31.000Z</time>
      </trkpt>
      <trkpt lat="46.89332" lon="4.62761">
        <ele>394.14993</ele>
        <time>2022-03-12T09:15:34.000Z</time>
      </trkpt>
      <trkpt lat="46.89335" lon="4.62761">
        <ele>394.19992</ele>
        <time>2022-03-12T09:15:36.000Z</time>
      </trkpt>
      <trkpt lat="46.89338" lon="4.62763">
        <ele>394.24994</ele>
        <time>2022-03-12T09:15:39.000Z</time>
      </trkpt>
      <trkpt lat="46.8934" lon="4.62765">
        <ele>394.34991</ele>
        <time>2022-03-12T09:15:41.000Z</time>
      </trkpt>
      <trkpt lat="46.89342" lon="4.62766">
        <ele>394.44992</ele>
        <time>2022-03-12T09:15:43.000Z</time>
      </trkpt>
      <trkpt lat="46.89345" lon="4.62768">
        <ele>394.59991</ele>
        <time>2022-03-12T09:15:45.000Z</time>
      </trkpt>
      <trkpt lat="46.89348" lon="4.6277">
        <ele>394.69992</ele>
        <time>2022-03-12T09:15:47.000Z</time>
      </trkpt>
      <trkpt lat="46.89349" lon="4.62771">
        <ele>394.79993</ele>
        <time>2022-03-12T09:15:49.000Z</time>
      </trkpt>
      <trkpt lat="46.89351" lon="4.62774">
        <ele>394.79993</ele>
        <time>2022-03-12T09:15:51.000Z</time>
      </trkpt>
      <trkpt lat="46.89353" lon="4.62776">
        <ele>394.79993</ele>
        <time>2022-03-12T09:15:53.000Z</time>
      </trkpt>
      <trkpt lat="46.89355" lon="4.62778">
        <ele>394.84991</ele>
        <time>2022-03-12T09:15:55.000Z</time>
      </trkpt>
      <trkpt lat="46.89357" lon="4.6278">
        <ele>394.89993</ele>
        <time>2022-03-12T09:15:57.000Z</time>
      </trkpt>
      <trkpt lat="46.89358" lon="4.62782">
        <ele>394.99994</ele>
        <time>2022-03-12T09:15:59.000Z</time>
      </trkpt>
      <trkpt lat="46.8936" lon="4.62784">
        <ele>395.09991</ele>
        <time>2022-03-12T09:16:01.000Z</time>
      </trkpt>
      <trkpt lat="46.89363" lon="4.62786">
        <ele>395.19992</ele>
        <time>2022-03-12T09:16:03.000Z</time>
      </trkpt>
      <trkpt lat="46.89366" lon="4.62787">
        <ele>395.29993</ele>
        <time>2022-03-12T09:16:05.000Z</time>
      </trkpt>
      <trkpt lat="46.89367" lon="4.62789">
        <ele>395.39993</ele>
        <time>2022-03-12T09:16:07.000Z</time>
      </trkpt>
      <trkpt lat="46.8937" lon="4.6279">
        <ele>395.44992</ele>
        <time>2022-03-12T09:16:09.000Z</time>
      </trkpt>
      <trkpt lat="46.89372" lon="4.62791">
        <ele>395.54993</ele>
        <time>2022-03-12T09:16:11.000Z</time>
      </trkpt>
      <trkpt lat="46.89374" lon="4.62792">
        <ele>395.69992</ele>
        <time>2022-03-12T09:16:13.000Z</time>
      </trkpt>
      <trkpt lat="46.89376" lon="4.62794">
        <ele>395.79993</ele>
        <time>2022-03-12T09:16:15.000Z</time>
      </trkpt>
      <trkpt lat="46.89378" lon="4.62794">
        <ele>395.84991</ele>
        <time>2022-03-12T09:16:17.000Z</time>
      </trkpt>
      <trkpt lat="46.8938" lon="4.62796">
        <ele>395.84991</ele>
        <time>2022-03-12T09:16:19.000Z</time>
      </trkpt>
      <trkpt lat="46.89383" lon="4.62797">
        <ele>395.84991</ele>
        <time>2022-03-12T09:16:21.000Z</time>
      </trkpt>
      <trkpt lat="46.89385" lon="4.62797">
        <ele>395.89993</ele>
        <time>2022-03-12T09:16:23.000Z</time>
      </trkpt>
      <trkpt lat="46.89388" lon="4.62798">
        <ele>395.94992</ele>
        <time>2022-03-12T09:16:25.000Z</time>
      </trkpt>
      <trkpt lat="46.8939" lon="4.62798">
        <ele>396.04993</ele>
        <time>2022-03-12T09:16:27.000Z</time>
      </trkpt>
      <trkpt lat="46.89392" lon="4.628">
        <ele>396.14993</ele>
        <time>2022-03-12T09:16:29.000Z</time>
      </trkpt>
      <trkpt lat="46.89395" lon="4.62802">
        <ele>396.24994</ele>
        <time>2022-03-12T09:16:31.000Z</time>
      </trkpt>
      <trkpt lat="46.89396" lon="4.62803">
        <ele>396.29993</ele>
        <time>2022-03-12T09:16:33.000Z</time>
      </trkpt>
      <trkpt lat="46.89399" lon="4.62805">
        <ele>396.29993</ele>
        <time>2022-03-12T09:16:35.000Z</time>
      </trkpt>
      <trkpt lat="46.89401" lon="4.62807">
        <ele>396.34991</ele>
        <time>2022-03-12T09:16:38.000Z</time>
      </trkpt>
      <trkpt lat="46.89402" lon="4.6281">
        <ele>396.39993</ele>
        <time>2022-03-12T09:16:40.000Z</time>
      </trkpt>
      <trkpt lat="46.89404" lon="4.62812">
        <ele>396.49994</ele>
        <time>2022-03-12T09:16:42.000Z</time>
      </trkpt>
      <trkpt lat="46.89406" lon="4.62813">
        <ele>396.59991</ele>
        <time>2022-03-12T09:16:44.000Z</time>
      </trkpt>
      <trkpt lat="46.89408" lon="4.62815">
        <ele>396.69992</ele>
        <time>2022-03-12T09:16:46.000Z</time>
      </trkpt>
      <trkpt lat="46.89411" lon="4.62817">
        <ele>396.79993</ele>
        <time>2022-03-12T09:16:49.000Z</time>
      </trkpt>
      <trkpt lat="46.89414" lon="4.62819">
        <ele>396.89993</ele>
        <time>2022-03-12T09:16:51.000Z</time>
      </trkpt>
      <trkpt lat="46.89416" lon="4.6282">
        <ele>396.94992</ele>
        <time>2022-03-12T09:16:53.000Z</time>
      </trkpt>
      <trkpt lat="46.89419" lon="4.62821">
        <ele>396.99994</ele>
        <time>2022-03-12T09:16:55.000Z</time>
      </trkpt>
      <trkpt lat="46.89422" lon="4.62823">
        <ele>397.09991</ele>
        <time>2022-03-12T09:16:58.000Z</time>
      </trkpt>
      <trkpt lat="46.89425" lon="4.62823">
        <ele>397.19992</ele>
        <time>2022-03-12T09:17:00.000Z</time>
      </trkpt>
      <trkpt lat="46.89427" lon="4.62823">
        <ele>397.34991</ele>
        <time>2022-03-12T09:17:02.000Z</time>
      </trkpt>
      <trkpt lat="46.89429" lon="4.62823">
        <ele>397.44992</ele>
        <time>2022-03-12T09:17:04.000Z</time>
      </trkpt>
      <trkpt lat="46.89431" lon="4.62822">
        <ele>397.49994</ele>
        <time>2022-03-12T09:17:06.000Z</time>
      </trkpt>
      <trkpt lat="46.89433" lon="4.62821">
        <ele>397.49994</ele>
        <time>2022-03-12T09:17:08.000Z</time>
      </trkpt>
      <trkpt lat="46.89435" lon="4.62821">
        <ele>397.49994</ele>
        <time>2022-03-12T09:17:10.000Z</time>
      </trkpt>
      <trkpt lat="46.89437" lon="4.6282">
        <ele>397.44992</ele>
        <time>2022-03-12T09:17:12.000Z</time>
      </trkpt>
      <trkpt lat="46.89439" lon="4.62819">
        <ele>397.49994</ele>
        <time>2022-03-12T09:17:14.000Z</time>
      </trkpt>
      <trkpt lat="46.89441" lon="4.62818">
        <ele>397.64993</ele>
        <time>2022-03-12T09:17:16.000Z</time>
      </trkpt>
      <trkpt lat="46.89444" lon="4.62816">
        <ele>397.84991</ele>
        <time>2022-03-12T09:17:19.000Z</time>
      </trkpt>
      <trkpt lat="46.89446" lon="4.62812">
        <ele>397.99994</ele>
        <time>2022-03-12T09:17:21.000Z</time>
      </trkpt>
      <trkpt lat="46.89448" lon="4.62809">
        <ele>398.09991</ele>
        <time>2022-03-12T09:17:23.000Z</time>
      </trkpt>
      <trkpt lat="46.89452" lon="4.62806">
        <ele>398.09991</ele>
        <time>2022-03-12T09:17:26.000Z</time>
      </trkpt>
      <trkpt lat="46.89455" lon="4.62805">
        <ele>398.04993</ele>
        <time>2022-03-12T09:17:28.000Z</time>
      </trkpt>
      <trkpt lat="46.89457" lon="4.62804">
        <ele>398.04993</ele>
        <time>2022-03-12T09:17:30.000Z</time>
      </trkpt>
      <trkpt lat="46.89459" lon="4.62803">
        <ele>397.99994</ele>
        <time>2022-03-12T09:17:32.000Z</time>
      </trkpt>
      <trkpt lat="46.89461" lon="4.62801">
        <ele>397.89993</ele>
        <time>2022-03-12T09:17:34.000Z</time>
      </trkpt>
      <trkpt lat="46.89463" lon="4.62798">
        <ele>397.79993</ele>
        <time>2022-03-12T09:17:36.000Z</time>
      </trkpt>
      <trkpt lat="46.89465" lon="4.62795">
        <ele>397.74994</ele>
        <time>2022-03-12T09:17:38.000Z</time>
      </trkpt>
      <trkpt lat="46.89468" lon="4.62793">
        <ele>397.64993</ele>
        <time>2022-03-12T09:17:40.000Z</time>
      </trkpt>
      <trkpt lat="46.89471" lon="4.62791">
        <ele>397.54993</ele>
        <time>2022-03-12T09:17:42.000Z</time>
      </trkpt>
      <trkpt lat="46.89473" lon="4.62788">
        <ele>397.39993</ele>
        <time>2022-03-12T09:17:44.000Z</time>
      </trkpt>
      <trkpt lat="46.89476" lon="4.62786">
        <ele>397.34991</ele>
        <time>2022-03-12T09:17:46.000Z</time>
      </trkpt>
      <trkpt lat="46.89478" lon="4.62784">
        <ele>397.29993</ele>
        <time>2022-03-12T09:17:48.000Z</time>
      </trkpt>
      <trkpt lat="46.8948" lon="4.62782">
        <ele>397.24994</ele>
        <time>2022-03-12T09:17:50.000Z</time>
      </trkpt>
      <trkpt lat="46.89483" lon="4.6278">
        <ele>397.24994</ele>
        <time>2022-03-12T09:17:52.000Z</time>
      </trkpt>
      <trkpt lat="46.89485" lon="4.62779">
        <ele>397.24994</ele>
        <time>2022-03-12T09:17:54.000Z</time>
      </trkpt>
      <trkpt lat="46.89488" lon="4.62776">
        <ele>397.19992</ele>
        <time>2022-03-12T09:17:56.000Z</time>
      </trkpt>
      <trkpt lat="46.89491" lon="4.62775">
        <ele>397.14993</ele>
        <time>2022-03-12T09:17:59.000Z</time>
      </trkpt>
      <trkpt lat="46.89493" lon="4.62774">
        <ele>397.09991</ele>
        <time>2022-03-12T09:18:01.000Z</time>
      </trkpt>
      <trkpt lat="46.89495" lon="4.62772">
        <ele>397.04993</ele>
        <time>2022-03-12T09:18:03.000Z</time>
      </trkpt>
      <trkpt lat="46.89498" lon="4.6277">
        <ele>396.99994</ele>
        <time>2022-03-12T09:18:05.000Z</time>
      </trkpt>
      <trkpt lat="46.895" lon="4.62769">
        <ele>396.99994</ele>
        <time>2022-03-12T09:18:07.000Z</time>
      </trkpt>
      <trkpt lat="46.89502" lon="4.62767">
        <ele>397.04993</ele>
        <time>2022-03-12T09:18:09.000Z</time>
      </trkpt>
      <trkpt lat="46.89504" lon="4.62766">
        <ele>397.09991</ele>
        <time>2022-03-12T09:18:11.000Z</time>
      </trkpt>
      <trkpt lat="46.89506" lon="4.62764">
        <ele>397.19992</ele>
        <time>2022-03-12T09:18:13.000Z</time>
      </trkpt>
      <trkpt lat="46.89509" lon="4.62763">
        <ele>397.39993</ele>
        <time>2022-03-12T09:18:15.000Z</time>
      </trkpt>
      <trkpt lat="46.89513" lon="4.62762">
        <ele>397.54993</ele>
        <time>2022-03-12T09:18:18.000Z</time>
      </trkpt>
      <trkpt lat="46.89516" lon="4.62761">
        <ele>397.64993</ele>
        <time>2022-03-12T09:18:20.000Z</time>
      </trkpt>
      <trkpt lat="46.89518" lon="4.6276">
        <ele>397.74994</ele>
        <time>2022-03-12T09:18:22.000Z</time>
      </trkpt>
      <trkpt lat="46.8952" lon="4.6276">
        <ele>397.84991</ele>
        <time>2022-03-12T09:18:24.000Z</time>
      </trkpt>
      <trkpt lat="46.89523" lon="4.62759">
        <ele>397.94992</ele>
        <time>2022-03-12T09:18:26.000Z</time>
      </trkpt>
      <trkpt lat="46.89526" lon="4.62759">
        <ele>397.99994</ele>
        <time>2022-03-12T09:18:28.000Z</time>
      </trkpt>
      <trkpt lat="46.89528" lon="4.6276">
        <ele>398.09991</ele>
        <time>2022-03-12T09:18:30.000Z</time>
      </trkpt>
      <trkpt lat="46.89531" lon="4.6276">
        <ele>398.19992</ele>
        <time>2022-03-12T09:18:32.000Z</time>
      </trkpt>
      <trkpt lat="46.89533" lon="4.62759">
        <ele>398.24994</ele>
        <time>2022-03-12T09:18:34.000Z</time>
      </trkpt>
      <trkpt lat="46.89536" lon="4.62759">
        <ele>398.39993</ele>
        <time>2022-03-12T09:18:36.000Z</time>
      </trkpt>
      <trkpt lat="46.89538" lon="4.62759">
        <ele>398.54993</ele>
        <time>2022-03-12T09:18:38.000Z</time>
      </trkpt>
      <trkpt lat="46.8954" lon="4.6276">
        <ele>398.69992</ele>
        <time>2022-03-12T09:18:40.000Z</time>
      </trkpt>
      <trkpt lat="46.89543" lon="4.62761">
        <ele>398.84991</ele>
        <time>2022-03-12T09:18:42.000Z</time>
      </trkpt>
      <trkpt lat="46.89545" lon="4.62761">
        <ele>398.99994</ele>
        <time>2022-03-12T09:18:44.000Z</time>
      </trkpt>
      <trkpt lat="46.89548" lon="4.62761">
        <ele>399.14993</ele>
        <time>2022-03-12T09:18:46.000Z</time>
      </trkpt>
      <trkpt lat="46.8955" lon="4.6276">
        <ele>399.24994</ele>
        <time>2022-03-12T09:18:48.000Z</time>
      </trkpt>
      <trkpt lat="46.89553" lon="4.6276">
        <ele>399.34991</ele>
        <time>2022-03-12T09:18:50.000Z</time>
      </trkpt>
      <trkpt lat="46.89555" lon="4.62759">
        <ele>399.39993</ele>
        <time>2022-03-12T09:18:52.000Z</time>
      </trkpt>
      <trkpt lat="46.89558" lon="4.6276">
        <ele>399.39993</ele>
        <time>2022-03-12T09:18:54.000Z</time>
      </trkpt>
      <trkpt lat="46.8956" lon="4.6276">
        <ele>399.34991</ele>
        <time>2022-03-12T09:18:56.000Z</time>
      </trkpt>
      <trkpt lat="46.89563" lon="4.6276">
        <ele>399.39993</ele>
        <time>2022-03-12T09:18:58.000Z</time>
      </trkpt>
      <trkpt lat="46.89565" lon="4.6276">
        <ele>399.44992</ele>
        <time>2022-03-12T09:19:00.000Z</time>
      </trkpt>
      <trkpt lat="46.89567" lon="4.6276">
        <ele>399.54993</ele>
        <time>2022-03-12T09:19:02.000Z</time>
      </trkpt>
      <trkpt lat="46.8957" lon="4.62759">
        <ele>399.69992</ele>
        <time>2022-03-12T09:19:04.000Z</time>
      </trkpt>
      <trkpt lat="46.89572" lon="4.62759">
        <ele>399.79993</ele>
        <time>2022-03-12T09:19:06.000Z</time>
      </trkpt>
      <trkpt lat="46.89575" lon="4.62758">
        <ele>399.89993</ele>
        <time>2022-03-12T09:19:08.000Z</time>
      </trkpt>
      <trkpt lat="46.89577" lon="4.62759">
        <ele>399.94992</ele>
        <time>2022-03-12T09:19:10.000Z</time>
      </trkpt>
      <trkpt lat="46.8958" lon="4.62758">
        <ele>399.99994</ele>
        <time>2022-03-12T09:19:12.000Z</time>
      </trkpt>
      <trkpt lat="46.89582" lon="4.62757">
        <ele>400.04993</ele>
        <time>2022-03-12T09:19:14.000Z</time>
      </trkpt>
      <trkpt lat="46.89584" lon="4.62758">
        <ele>400.04993</ele>
        <time>2022-03-12T09:19:16.000Z</time>
      </trkpt>
      <trkpt lat="46.89586" lon="4.62758">
        <ele>400.04993</ele>
        <time>2022-03-12T09:19:18.000Z</time>
      </trkpt>
      <trkpt lat="46.89589" lon="4.62759">
        <ele>399.94992</ele>
        <time>2022-03-12T09:19:20.000Z</time>
      </trkpt>
      <trkpt lat="46.89592" lon="4.6276">
        <ele>399.84991</ele>
        <time>2022-03-12T09:19:22.000Z</time>
      </trkpt>
      <trkpt lat="46.89594" lon="4.62759">
        <ele>399.79993</ele>
        <time>2022-03-12T09:19:24.000Z</time>
      </trkpt>
      <trkpt lat="46.89597" lon="4.6276">
        <ele>399.74994</ele>
        <time>2022-03-12T09:19:26.000Z</time>
      </trkpt>
      <trkpt lat="46.896" lon="4.62762">
        <ele>399.74994</ele>
        <time>2022-03-12T09:19:29.000Z</time>
      </trkpt>
      <trkpt lat="46.89602" lon="4.62763">
        <ele>399.79993</ele>
        <time>2022-03-12T09:19:31.000Z</time>
      </trkpt>
      <trkpt lat="46.89604" lon="4.62765">
        <ele>399.89993</ele>
        <time>2022-03-12T09:19:33.000Z</time>
      </trkpt>
      <trkpt lat="46.89606" lon="4.62767">
        <ele>400.04993</ele>
        <time>2022-03-12T09:19:35.000Z</time>
      </trkpt>
      <trkpt lat="46.89609" lon="4.6277">
        <ele>400.19992</ele>
        <time>2022-03-12T09:19:38.000Z</time>
      </trkpt>
      <trkpt lat="46.89611" lon="4.62773">
        <ele>400.24994</ele>
        <time>2022-03-12T09:19:40.000Z</time>
      </trkpt>
      <trkpt lat="46.89612" lon="4.62775">
        <ele>400.34991</ele>
        <time>2022-03-12T09:19:42.000Z</time>
      </trkpt>
      <trkpt lat="46.89614" lon="4.62778">
        <ele>400.39993</ele>
        <time>2022-03-12T09:19:44.000Z</time>
      </trkpt>
      <trkpt lat="46.89616" lon="4.6278">
        <ele>400.39993</ele>
        <time>2022-03-12T09:19:46.000Z</time>
      </trkpt>
      <trkpt lat="46.89618" lon="4.62782">
        <ele>400.44992</ele>
        <time>2022-03-12T09:19:48.000Z</time>
      </trkpt>
      <trkpt lat="46.8962" lon="4.62782">
        <ele>400.49994</ele>
        <time>2022-03-12T09:19:50.000Z</time>
      </trkpt>
      <trkpt lat="46.89623" lon="4.62783">
        <ele>400.59991</ele>
        <time>2022-03-12T09:19:52.000Z</time>
      </trkpt>
      <trkpt lat="46.89626" lon="4.62784">
        <ele>400.69992</ele>
        <time>2022-03-12T09:19:54.000Z</time>
      </trkpt>
      <trkpt lat="46.89628" lon="4.62783">
        <ele>400.79993</ele>
        <time>2022-03-12T09:19:56.000Z</time>
      </trkpt>
      <trkpt lat="46.89631" lon="4.62783">
        <ele>400.84991</ele>
        <time>2022-03-12T09:19:58.000Z</time>
      </trkpt>
      <trkpt lat="46.89633" lon="4.62781">
        <ele>400.89993</ele>
        <time>2022-03-12T09:20:00.000Z</time>
      </trkpt>
      <trkpt lat="46.89636" lon="4.6278">
        <ele>400.99994</ele>
        <time>2022-03-12T09:20:02.000Z</time>
      </trkpt>
      <trkpt lat="46.89638" lon="4.62778">
        <ele>401.04993</ele>
        <time>2022-03-12T09:20:04.000Z</time>
      </trkpt>
      <trkpt lat="46.89641" lon="4.62777">
        <ele>401.04993</ele>
        <time>2022-03-12T09:20:06.000Z</time>
      </trkpt>
      <trkpt lat="46.89644" lon="4.62774">
        <ele>401.04993</ele>
        <time>2022-03-12T09:20:09.000Z</time>
      </trkpt>
      <trkpt lat="46.89646" lon="4.62772">
        <ele>401.04993</ele>
        <time>2022-03-12T09:20:11.000Z</time>
      </trkpt>
      <trkpt lat="46.89648" lon="4.62771">
        <ele>400.99994</ele>
        <time>2022-03-12T09:20:13.000Z</time>
      </trkpt>
      <trkpt lat="46.8965" lon="4.62769">
        <ele>400.89993</ele>
        <time>2022-03-12T09:20:15.000Z</time>
      </trkpt>
      <trkpt lat="46.89653" lon="4.62767">
        <ele>400.84991</ele>
        <time>2022-03-12T09:20:17.000Z</time>
      </trkpt>
      <trkpt lat="46.89655" lon="4.62764">
        <ele>400.79993</ele>
        <time>2022-03-12T09:20:19.000Z</time>
      </trkpt>
      <trkpt lat="46.89657" lon="4.62762">
        <ele>400.74994</ele>
        <time>2022-03-12T09:20:21.000Z</time>
      </trkpt>
      <trkpt lat="46.8966" lon="4.6276">
        <ele>400.59991</ele>
        <time>2022-03-12T09:20:24.000Z</time>
      </trkpt>
      <trkpt lat="46.89662" lon="4.62759">
        <ele>400.49994</ele>
        <time>2022-03-12T09:20:26.000Z</time>
      </trkpt>
      <trkpt lat="46.89664" lon="4.62757">
        <ele>400.39993</ele>
        <time>2022-03-12T09:20:28.000Z</time>
      </trkpt>
      <trkpt lat="46.89666" lon="4.62755">
        <ele>400.29993</ele>
        <time>2022-03-12T09:20:30.000Z</time>
      </trkpt>
      <trkpt lat="46.89668" lon="4.62754">
        <ele>400.19992</ele>
        <time>2022-03-12T09:20:32.000Z</time>
      </trkpt>
      <trkpt lat="46.8967" lon="4.62753">
        <ele>399.99994</ele>
        <time>2022-03-12T09:20:34.000Z</time>
      </trkpt>
      <trkpt lat="46.89672" lon="4.62751">
        <ele>399.79993</ele>
        <time>2022-03-12T09:20:36.000Z</time>
      </trkpt>
      <trkpt lat="46.89674" lon="4.6275">
        <ele>399.59991</ele>
        <time>2022-03-12T09:20:38.000Z</time>
      </trkpt>
      <trkpt lat="46.89677" lon="4.62749">
        <ele>399.49994</ele>
        <time>2022-03-12T09:20:40.000Z</time>
      </trkpt>
      <trkpt lat="46.89679" lon="4.62747">
        <ele>399.39993</ele>
        <time>2022-03-12T09:20:42.000Z</time>
      </trkpt>
      <trkpt lat="46.89682" lon="4.62744">
        <ele>399.29993</ele>
        <time>2022-03-12T09:20:44.000Z</time>
      </trkpt>
      <trkpt lat="46.89684" lon="4.62743">
        <ele>399.24994</ele>
        <time>2022-03-12T09:20:46.000Z</time>
      </trkpt>
      <trkpt lat="46.89686" lon="4.62741">
        <ele>399.19992</ele>
        <time>2022-03-12T09:20:48.000Z</time>
      </trkpt>
      <trkpt lat="46.89688" lon="4.62739">
        <ele>399.09991</ele>
        <time>2022-03-12T09:20:50.000Z</time>
      </trkpt>
      <trkpt lat="46.8969" lon="4.62737">
        <ele>399.04993</ele>
        <time>2022-03-12T09:20:52.000Z</time>
      </trkpt>
      <trkpt lat="46.89693" lon="4.62735">
        <ele>398.94992</ele>
        <time>2022-03-12T09:20:55.000Z</time>
      </trkpt>
      <trkpt lat="46.89696" lon="4.62733">
        <ele>398.84991</ele>
        <time>2022-03-12T09:20:58.000Z</time>
      </trkpt>
      <trkpt lat="46.89698" lon="4.62731">
        <ele>398.69992</ele>
        <time>2022-03-12T09:21:00.000Z</time>
      </trkpt>
      <trkpt lat="46.89701" lon="4.62729">
        <ele>398.54993</ele>
        <time>2022-03-12T09:21:02.000Z</time>
      </trkpt>
      <trkpt lat="46.89702" lon="4.62728">
        <ele>398.44992</ele>
        <time>2022-03-12T09:21:04.000Z</time>
      </trkpt>
      <trkpt lat="46.89704" lon="4.62727">
        <ele>398.44992</ele>
        <time>2022-03-12T09:21:06.000Z</time>
      </trkpt>
      <trkpt lat="46.89707" lon="4.62726">
        <ele>398.39993</ele>
        <time>2022-03-12T09:21:08.000Z</time>
      </trkpt>
      <trkpt lat="46.8971" lon="4.62724">
        <ele>398.34991</ele>
        <time>2022-03-12T09:21:11.000Z</time>
      </trkpt>
      <trkpt lat="46.89712" lon="4.62722">
        <ele>398.34991</ele>
        <time>2022-03-12T09:21:13.000Z</time>
      </trkpt>
      <trkpt lat="46.89715" lon="4.6272">
        <ele>398.34991</ele>
        <time>2022-03-12T09:21:15.000Z</time>
      </trkpt>
      <trkpt lat="46.89717" lon="4.62719">
        <ele>398.39993</ele>
        <time>2022-03-12T09:21:17.000Z</time>
      </trkpt>
      <trkpt lat="46.89719" lon="4.62717">
        <ele>398.49994</ele>
        <time>2022-03-12T09:21:20.000Z</time>
      </trkpt>
      <trkpt lat="46.89721" lon="4.62715">
        <ele>398.59991</ele>
        <time>2022-03-12T09:21:22.000Z</time>
      </trkpt>
      <trkpt lat="46.89723" lon="4.62714">
        <ele>398.59991</ele>
        <time>2022-03-12T09:21:24.000Z</time>
      </trkpt>
      <trkpt lat="46.89725" lon="4.62712">
        <ele>398.59991</ele>
        <time>2022-03-12T09:21:26.000Z</time>
      </trkpt>
      <trkpt lat="46.89728" lon="4.6271">
        <ele>398.54993</ele>
        <time>2022-03-12T09:21:28.000Z</time>
      </trkpt>
      <trkpt lat="46.8973" lon="4.62708">
        <ele>398.54993</ele>
        <time>2022-03-12T09:21:30.000Z</time>
      </trkpt>
      <trkpt lat="46.89732" lon="4.62706">
        <ele>398.49994</ele>
        <time>2022-03-12T09:21:32.000Z</time>
      </trkpt>
      <trkpt lat="46.89733" lon="4.62704">
        <ele>398.49994</ele>
        <time>2022-03-12T09:21:34.000Z</time>
      </trkpt>
      <trkpt lat="46.89736" lon="4.62702">
        <ele>398.39993</ele>
        <time>2022-03-12T09:21:36.000Z</time>
      </trkpt>
      <trkpt lat="46.89738" lon="4.627">
        <ele>398.34991</ele>
        <time>2022-03-12T09:21:38.000Z</time>
      </trkpt>
      <trkpt lat="46.8974" lon="4.62698">
        <ele>398.24994</ele>
        <time>2022-03-12T09:21:40.000Z</time>
      </trkpt>
      <trkpt lat="46.89743" lon="4.62697">
        <ele>398.14993</ele>
        <time>2022-03-12T09:21:42.000Z</time>
      </trkpt>
      <trkpt lat="46.89745" lon="4.62694">
        <ele>398.04993</ele>
        <time>2022-03-12T09:21:44.000Z</time>
      </trkpt>
      <trkpt lat="46.89747" lon="4.62693">
        <ele>397.94992</ele>
        <time>2022-03-12T09:21:46.000Z</time>
      </trkpt>
      <trkpt lat="46.89749" lon="4.62691">
        <ele>397.74994</ele>
        <time>2022-03-12T09:21:48.000Z</time>
      </trkpt>
      <trkpt lat="46.89751" lon="4.62691">
        <ele>397.59991</ele>
        <time>2022-03-12T09:21:50.000Z</time>
      </trkpt>
      <trkpt lat="46.89753" lon="4.62689">
        <ele>397.49994</ele>
        <time>2022-03-12T09:21:52.000Z</time>
      </trkpt>
      <trkpt lat="46.89755" lon="4.62686">
        <ele>397.34991</ele>
        <time>2022-03-12T09:21:54.000Z</time>
      </trkpt>
      <trkpt lat="46.89757" lon="4.62683">
        <ele>397.19992</ele>
        <time>2022-03-12T09:21:56.000Z</time>
      </trkpt>
      <trkpt lat="46.89759" lon="4.62681">
        <ele>397.09991</ele>
        <time>2022-03-12T09:21:58.000Z</time>
      </trkpt>
      <trkpt lat="46.89761" lon="4.62678">
        <ele>396.94992</ele>
        <time>2022-03-12T09:22:00.000Z</time>
      </trkpt>
      <trkpt lat="46.89763" lon="4.62676">
        <ele>396.79993</ele>
        <time>2022-03-12T09:22:02.000Z</time>
      </trkpt>
      <trkpt lat="46.89764" lon="4.62674">
        <ele>396.64993</ele>
        <time>2022-03-12T09:22:04.000Z</time>
      </trkpt>
      <trkpt lat="46.89766" lon="4.62672">
        <ele>396.49994</ele>
        <time>2022-03-12T09:22:06.000Z</time>
      </trkpt>
      <trkpt lat="46.89768" lon="4.6267">
        <ele>396.39993</ele>
        <time>2022-03-12T09:22:08.000Z</time>
      </trkpt>
      <trkpt lat="46.8977" lon="4.62667">
        <ele>396.24994</ele>
        <time>2022-03-12T09:22:10.000Z</time>
      </trkpt>
      <trkpt lat="46.89772" lon="4.62665">
        <ele>396.19992</ele>
        <time>2022-03-12T09:22:12.000Z</time>
      </trkpt>
      <trkpt lat="46.89775" lon="4.62662">
        <ele>396.14993</ele>
        <time>2022-03-12T09:22:14.000Z</time>
      </trkpt>
      <trkpt lat="46.89777" lon="4.6266">
        <ele>396.09991</ele>
        <time>2022-03-12T09:22:16.000Z</time>
      </trkpt>
      <trkpt lat="46.89779" lon="4.62658">
        <ele>396.04993</ele>
        <time>2022-03-12T09:22:18.000Z</time>
      </trkpt>
      <trkpt lat="46.89781" lon="4.62655">
        <ele>396.04993</ele>
        <time>2022-03-12T09:22:20.000Z</time>
      </trkpt>
      <trkpt lat="46.89784" lon="4.62652">
        <ele>396.04993</ele>
        <time>2022-03-12T09:22:23.000Z</time>
      </trkpt>
      <trkpt lat="46.89786" lon="4.6265">
        <ele>396.04993</ele>
        <time>2022-03-12T09:22:25.000Z</time>
      </trkpt>
      <trkpt lat="46.89788" lon="4.62647">
        <ele>396.04993</ele>
        <time>2022-03-12T09:22:27.000Z</time>
      </trkpt>
      <trkpt lat="46.8979" lon="4.62645">
        <ele>396.09991</ele>
        <time>2022-03-12T09:22:29.000Z</time>
      </trkpt>
      <trkpt lat="46.89792" lon="4.62642">
        <ele>396.14993</ele>
        <time>2022-03-12T09:22:31.000Z</time>
      </trkpt>
      <trkpt lat="46.89794" lon="4.6264">
        <ele>396.14993</ele>
        <time>2022-03-12T09:22:34.000Z</time>
      </trkpt>
      <trkpt lat="46.89796" lon="4.62638">
        <ele>396.14993</ele>
        <time>2022-03-12T09:22:36.000Z</time>
      </trkpt>
      <trkpt lat="46.89798" lon="4.62636">
        <ele>396.09991</ele>
        <time>2022-03-12T09:22:38.000Z</time>
      </trkpt>
      <trkpt lat="46.898" lon="4.62635">
        <ele>395.99994</ele>
        <time>2022-03-12T09:22:40.000Z</time>
      </trkpt>
      <trkpt lat="46.89802" lon="4.62633">
        <ele>395.89993</ele>
        <time>2022-03-12T09:22:43.000Z</time>
      </trkpt>
      <trkpt lat="46.89804" lon="4.62631">
        <ele>395.79993</ele>
        <time>2022-03-12T09:22:45.000Z</time>
      </trkpt>
      <trkpt lat="46.89805" lon="4.62629">
        <ele>395.69992</ele>
        <time>2022-03-12T09:22:47.000Z</time>
      </trkpt>
      <trkpt lat="46.89807" lon="4.62627">
        <ele>395.59991</ele>
        <time>2022-03-12T09:22:49.000Z</time>
      </trkpt>
      <trkpt lat="46.8981" lon="4.62626">
        <ele>395.49994</ele>
        <time>2022-03-12T09:22:51.000Z</time>
      </trkpt>
      <trkpt lat="46.89812" lon="4.62624">
        <ele>395.39993</ele>
        <time>2022-03-12T09:22:53.000Z</time>
      </trkpt>
      <trkpt lat="46.89813" lon="4.62622">
        <ele>395.24994</ele>
        <time>2022-03-12T09:22:55.000Z</time>
      </trkpt>
      <trkpt lat="46.89816" lon="4.62621">
        <ele>395.04993</ele>
        <time>2022-03-12T09:22:57.000Z</time>
      </trkpt>
      <trkpt lat="46.89817" lon="4.62619">
        <ele>394.94992</ele>
        <time>2022-03-12T09:22:59.000Z</time>
      </trkpt>
      <trkpt lat="46.8982" lon="4.62616">
        <ele>394.84991</ele>
        <time>2022-03-12T09:23:02.000Z</time>
      </trkpt>
      <trkpt lat="46.89822" lon="4.62614">
        <ele>394.79993</ele>
        <time>2022-03-12T09:23:04.000Z</time>
      </trkpt>
      <trkpt lat="46.89825" lon="4.62612">
        <ele>394.74994</ele>
        <time>2022-03-12T09:23:06.000Z</time>
      </trkpt>
      <trkpt lat="46.89827" lon="4.6261">
        <ele>394.69992</ele>
        <time>2022-03-12T09:23:08.000Z</time>
      </trkpt>
      <trkpt lat="46.8983" lon="4.62608">
        <ele>394.64993</ele>
        <time>2022-03-12T09:23:11.000Z</time>
      </trkpt>
      <trkpt lat="46.89832" lon="4.62607">
        <ele>394.59991</ele>
        <time>2022-03-12T09:23:13.000Z</time>
      </trkpt>
      <trkpt lat="46.89833" lon="4.62605">
        <ele>394.49994</ele>
        <time>2022-03-12T09:23:15.000Z</time>
      </trkpt>
      <trkpt lat="46.89835" lon="4.62603">
        <ele>394.34991</ele>
        <time>2022-03-12T09:23:17.000Z</time>
      </trkpt>
      <trkpt lat="46.89838" lon="4.62601">
        <ele>394.24994</ele>
        <time>2022-03-12T09:23:19.000Z</time>
      </trkpt>
      <trkpt lat="46.8984" lon="4.62599">
        <ele>394.24994</ele>
        <time>2022-03-12T09:23:21.000Z</time>
      </trkpt>
      <trkpt lat="46.89841" lon="4.62598">
        <ele>394.24994</ele>
        <time>2022-03-12T09:23:23.000Z</time>
      </trkpt>
      <trkpt lat="46.89844" lon="4.62595">
        <ele>394.29993</ele>
        <time>2022-03-12T09:23:26.000Z</time>
      </trkpt>
      <trkpt lat="46.89845" lon="4.62593">
        <ele>394.29993</ele>
        <time>2022-03-12T09:23:28.000Z</time>
      </trkpt>
      <trkpt lat="46.89847" lon="4.62589">
        <ele>394.29993</ele>
        <time>2022-03-12T09:23:30.000Z</time>
      </trkpt>
      <trkpt lat="46.89849" lon="4.62586">
        <ele>394.29993</ele>
        <time>2022-03-12T09:23:32.000Z</time>
      </trkpt>
      <trkpt lat="46.89851" lon="4.62583">
        <ele>394.29993</ele>
        <time>2022-03-12T09:23:34.000Z</time>
      </trkpt>
      <trkpt lat="46.89853" lon="4.6258">
        <ele>394.29993</ele>
        <time>2022-03-12T09:23:36.000Z</time>
      </trkpt>
      <trkpt lat="46.89855" lon="4.62577">
        <ele>394.29993</ele>
        <time>2022-03-12T09:23:38.000Z</time>
      </trkpt>
      <trkpt lat="46.89857" lon="4.62575">
        <ele>394.34991</ele>
        <time>2022-03-12T09:23:40.000Z</time>
      </trkpt>
      <trkpt lat="46.89859" lon="4.62572">
        <ele>394.34991</ele>
        <time>2022-03-12T09:23:42.000Z</time>
      </trkpt>
      <trkpt lat="46.89861" lon="4.62571">
        <ele>394.34991</ele>
        <time>2022-03-12T09:23:44.000Z</time>
      </trkpt>
      <trkpt lat="46.89863" lon="4.62569">
        <ele>394.24994</ele>
        <time>2022-03-12T09:23:46.000Z</time>
      </trkpt>
      <trkpt lat="46.89865" lon="4.62567">
        <ele>394.14993</ele>
        <time>2022-03-12T09:23:48.000Z</time>
      </trkpt>
      <trkpt lat="46.89867" lon="4.62565">
        <ele>394.04993</ele>
        <time>2022-03-12T09:23:50.000Z</time>
      </trkpt>
      <trkpt lat="46.8987" lon="4.62563">
        <ele>393.89993</ele>
        <time>2022-03-12T09:23:53.000Z</time>
      </trkpt>
      <trkpt lat="46.89872" lon="4.62561">
        <ele>393.74994</ele>
        <time>2022-03-12T09:23:55.000Z</time>
      </trkpt>
      <trkpt lat="46.89874" lon="4.6256">
        <ele>393.64993</ele>
        <time>2022-03-12T09:23:57.000Z</time>
      </trkpt>
      <trkpt lat="46.89877" lon="4.6256">
        <ele>393.59991</ele>
        <time>2022-03-12T09:24:00.000Z</time>
      </trkpt>
      <trkpt lat="46.89879" lon="4.6256">
        <ele>393.54993</ele>
        <time>2022-03-12T09:24:02.000Z</time>
      </trkpt>
      <trkpt lat="46.89881" lon="4.62559">
        <ele>393.39993</ele>
        <time>2022-03-12T09:24:05.000Z</time>
      </trkpt>
      <trkpt lat="46.89885" lon="4.62556">
        <ele>393.24994</ele>
        <time>2022-03-12T09:24:08.000Z</time>
      </trkpt>
      <trkpt lat="46.89887" lon="4.62555">
        <ele>393.09991</ele>
        <time>2022-03-12T09:24:10.000Z</time>
      </trkpt>
      <trkpt lat="46.89889" lon="4.62553">
        <ele>392.94992</ele>
        <time>2022-03-12T09:24:20.000Z</time>
      </trkpt>
      <trkpt lat="46.89891" lon="4.62551">
        <ele>392.79993</ele>
        <time>2022-03-12T09:24:23.000Z</time>
      </trkpt>
      <trkpt lat="46.89892" lon="4.62549">
        <ele>392.64993</ele>
        <time>2022-03-12T09:24:25.000Z</time>
      </trkpt>
      <trkpt lat="46.89892" lon="4.62546">
        <ele>392.49994</ele>
        <time>2022-03-12T09:24:27.000Z</time>
      </trkpt>
      <trkpt lat="46.89893" lon="4.62542">
        <ele>392.39993</ele>
        <time>2022-03-12T09:24:31.000Z</time>
      </trkpt>
      <trkpt lat="46.89895" lon="4.62541">
        <ele>392.29993</ele>
        <time>2022-03-12T09:24:33.000Z</time>
      </trkpt>
      <trkpt lat="46.89894" lon="4.62538">
        <ele>392.24994</ele>
        <time>2022-03-12T09:24:36.000Z</time>
      </trkpt>
      <trkpt lat="46.89894" lon="4.62535">
        <ele>392.24994</ele>
        <time>2022-03-12T09:24:38.000Z</time>
      </trkpt>
      <trkpt lat="46.89892" lon="4.62532">
        <ele>392.19992</ele>
        <time>2022-03-12T09:24:42.000Z</time>
      </trkpt>
      <trkpt lat="46.8989" lon="4.62532">
        <ele>392.24994</ele>
        <time>2022-03-12T09:24:56.000Z</time>
      </trkpt>
      <trkpt lat="46.89892" lon="4.62531">
        <ele>392.34991</ele>
        <time>2022-03-12T09:25:06.000Z</time>
      </trkpt>
      <trkpt lat="46.89893" lon="4.62528">
        <ele>392.44992</ele>
        <time>2022-03-12T09:25:08.000Z</time>
      </trkpt>
      <trkpt lat="46.89894" lon="4.62525">
        <ele>392.59991</ele>
        <time>2022-03-12T09:25:10.000Z</time>
      </trkpt>
      <trkpt lat="46.89895" lon="4.62522">
        <ele>392.74994</ele>
        <time>2022-03-12T09:25:12.000Z</time>
      </trkpt>
      <trkpt lat="46.89896" lon="4.62519">
        <ele>392.94992</ele>
        <time>2022-03-12T09:25:14.000Z</time>
      </trkpt>
      <trkpt lat="46.89897" lon="4.62515">
        <ele>393.14993</ele>
        <time>2022-03-12T09:25:16.000Z</time>
      </trkpt>
      <trkpt lat="46.89898" lon="4.62511">
        <ele>393.24994</ele>
        <time>2022-03-12T09:25:18.000Z</time>
      </trkpt>
      <trkpt lat="46.89899" lon="4.62507">
        <ele>393.44992</ele>
        <time>2022-03-12T09:25:20.000Z</time>
      </trkpt>
      <trkpt lat="46.89901" lon="4.62503">
        <ele>393.64993</ele>
        <time>2022-03-12T09:25:22.000Z</time>
      </trkpt>
      <trkpt lat="46.89902" lon="4.62499">
        <ele>393.79993</ele>
        <time>2022-03-12T09:25:24.000Z</time>
      </trkpt>
      <trkpt lat="46.89903" lon="4.62495">
        <ele>393.94992</ele>
        <time>2022-03-12T09:25:26.000Z</time>
      </trkpt>
      <trkpt lat="46.89903" lon="4.62492">
        <ele>394.14993</ele>
        <time>2022-03-12T09:25:28.000Z</time>
      </trkpt>
      <trkpt lat="46.89905" lon="4.62488">
        <ele>394.39993</ele>
        <time>2022-03-12T09:25:30.000Z</time>
      </trkpt>
      <trkpt lat="46.89906" lon="4.62485">
        <ele>394.69992</ele>
        <time>2022-03-12T09:25:32.000Z</time>
      </trkpt>
      <trkpt lat="46.89908" lon="4.62483">
        <ele>394.94992</ele>
        <time>2022-03-12T09:25:34.000Z</time>
      </trkpt>
      <trkpt lat="46.89909" lon="4.62479">
        <ele>395.14993</ele>
        <time>2022-03-12T09:25:36.000Z</time>
      </trkpt>
      <trkpt lat="46.89911" lon="4.62476">
        <ele>395.29993</ele>
        <time>2022-03-12T09:25:38.000Z</time>
      </trkpt>
      <trkpt lat="46.89912" lon="4.6247">
        <ele>395.39993</ele>
        <time>2022-03-12T09:25:41.000Z</time>
      </trkpt>
      <trkpt lat="46.89913" lon="4.62466">
        <ele>395.54993</ele>
        <time>2022-03-12T09:25:43.000Z</time>
      </trkpt>
      <trkpt lat="46.89914" lon="4.62464">
        <ele>395.64993</ele>
        <time>2022-03-12T09:25:44.000Z</time>
      </trkpt>
      <trkpt lat="46.89916" lon="4.62459">
        <ele>395.69992</ele>
        <time>2022-03-12T09:25:46.000Z</time>
      </trkpt>
      <trkpt lat="46.89917" lon="4.62454">
        <ele>395.69992</ele>
        <time>2022-03-12T09:25:48.000Z</time>
      </trkpt>
      <trkpt lat="46.89918" lon="4.62448">
        <ele>395.69992</ele>
        <time>2022-03-12T09:25:51.000Z</time>
      </trkpt>
      <trkpt lat="46.89919" lon="4.62445">
        <ele>395.69992</ele>
        <time>2022-03-12T09:25:53.000Z</time>
      </trkpt>
      <trkpt lat="46.8992" lon="4.62441">
        <ele>395.64993</ele>
        <time>2022-03-12T09:25:55.000Z</time>
      </trkpt>
      <trkpt lat="46.89921" lon="4.62437">
        <ele>395.54993</ele>
        <time>2022-03-12T09:25:57.000Z</time>
      </trkpt>
      <trkpt lat="46.89921" lon="4.62434">
        <ele>395.49994</ele>
        <time>2022-03-12T09:25:59.000Z</time>
      </trkpt>
      <trkpt lat="46.89922" lon="4.62431">
        <ele>395.39993</ele>
        <time>2022-03-12T09:26:01.000Z</time>
      </trkpt>
      <trkpt lat="46.89923" lon="4.62428">
        <ele>395.29993</ele>
        <time>2022-03-12T09:26:03.000Z</time>
      </trkpt>
      <trkpt lat="46.89924" lon="4.62425">
        <ele>395.19992</ele>
        <time>2022-03-12T09:26:05.000Z</time>
      </trkpt>
      <trkpt lat="46.89925" lon="4.62422">
        <ele>395.19992</ele>
        <time>2022-03-12T09:26:07.000Z</time>
      </trkpt>
      <trkpt lat="46.89926" lon="4.62418">
        <ele>395.19992</ele>
        <time>2022-03-12T09:26:09.000Z</time>
      </trkpt>
      <trkpt lat="46.89928" lon="4.62415">
        <ele>395.14993</ele>
        <time>2022-03-12T09:26:11.000Z</time>
      </trkpt>
      <trkpt lat="46.8993" lon="4.62412">
        <ele>394.99994</ele>
        <time>2022-03-12T09:26:13.000Z</time>
      </trkpt>
      <trkpt lat="46.89931" lon="4.62408">
        <ele>394.84991</ele>
        <time>2022-03-12T09:26:15.000Z</time>
      </trkpt>
      <trkpt lat="46.89932" lon="4.62404">
        <ele>394.79993</ele>
        <time>2022-03-12T09:26:17.000Z</time>
      </trkpt>
      <trkpt lat="46.89933" lon="4.624">
        <ele>394.69992</ele>
        <time>2022-03-12T09:26:19.000Z</time>
      </trkpt>
      <trkpt lat="46.89933" lon="4.62398">
        <ele>394.59991</ele>
        <time>2022-03-12T09:26:21.000Z</time>
      </trkpt>
      <trkpt lat="46.89935" lon="4.62394">
        <ele>394.49994</ele>
        <time>2022-03-12T09:26:23.000Z</time>
      </trkpt>
      <trkpt lat="46.89937" lon="4.6239">
        <ele>394.39993</ele>
        <time>2022-03-12T09:26:25.000Z</time>
      </trkpt>
      <trkpt lat="46.89938" lon="4.62386">
        <ele>394.34991</ele>
        <time>2022-03-12T09:26:27.000Z</time>
      </trkpt>
      <trkpt lat="46.89939" lon="4.62384">
        <ele>394.29993</ele>
        <time>2022-03-12T09:26:29.000Z</time>
      </trkpt>
      <trkpt lat="46.89939" lon="4.62379">
        <ele>394.24994</ele>
        <time>2022-03-12T09:26:32.000Z</time>
      </trkpt>
      <trkpt lat="46.89941" lon="4.62376">
        <ele>394.24994</ele>
        <time>2022-03-12T09:26:34.000Z</time>
      </trkpt>
      <trkpt lat="46.89942" lon="4.62373">
        <ele>394.24994</ele>
        <time>2022-03-12T09:26:36.000Z</time>
      </trkpt>
      <trkpt lat="46.89943" lon="4.6237">
        <ele>394.29993</ele>
        <time>2022-03-12T09:26:38.000Z</time>
      </trkpt>
      <trkpt lat="46.89944" lon="4.62368">
        <ele>394.39993</ele>
        <time>2022-03-12T09:26:40.000Z</time>
      </trkpt>
      <trkpt lat="46.89945" lon="4.62365">
        <ele>394.49994</ele>
        <time>2022-03-12T09:26:42.000Z</time>
      </trkpt>
      <trkpt lat="46.89946" lon="4.62361">
        <ele>394.59991</ele>
        <time>2022-03-12T09:26:45.000Z</time>
      </trkpt>
      <trkpt lat="46.89946" lon="4.62358">
        <ele>394.69992</ele>
        <time>2022-03-12T09:26:47.000Z</time>
      </trkpt>
      <trkpt lat="46.89947" lon="4.62355">
        <ele>394.79993</ele>
        <time>2022-03-12T09:26:49.000Z</time>
      </trkpt>
      <trkpt lat="46.89947" lon="4.62353">
        <ele>394.94992</ele>
        <time>2022-03-12T09:26:51.000Z</time>
      </trkpt>
      <trkpt lat="46.89948" lon="4.62349">
        <ele>395.14993</ele>
        <time>2022-03-12T09:26:53.000Z</time>
      </trkpt>
      <trkpt lat="46.89948" lon="4.62345">
        <ele>395.39993</ele>
        <time>2022-03-12T09:26:55.000Z</time>
      </trkpt>
      <trkpt lat="46.89949" lon="4.62341">
        <ele>395.64993</ele>
        <time>2022-03-12T09:26:57.000Z</time>
      </trkpt>
      <trkpt lat="46.8995" lon="4.62337">
        <ele>395.84991</ele>
        <time>2022-03-12T09:26:59.000Z</time>
      </trkpt>
      <trkpt lat="46.89951" lon="4.62335">
        <ele>396.09991</ele>
        <time>2022-03-12T09:27:00.000Z</time>
      </trkpt>
      <trkpt lat="46.89952" lon="4.62331">
        <ele>396.29993</ele>
        <time>2022-03-12T09:27:02.000Z</time>
      </trkpt>
      <trkpt lat="46.89954" lon="4.62325">
        <ele>396.49994</ele>
        <time>2022-03-12T09:27:05.000Z</time>
      </trkpt>
      <trkpt lat="46.89955" lon="4.62321">
        <ele>396.64993</ele>
        <time>2022-03-12T09:27:07.000Z</time>
      </trkpt>
      <trkpt lat="46.89956" lon="4.62317">
        <ele>396.69992</ele>
        <time>2022-03-12T09:27:09.000Z</time>
      </trkpt>
      <trkpt lat="46.89957" lon="4.62314">
        <ele>396.74994</ele>
        <time>2022-03-12T09:27:11.000Z</time>
      </trkpt>
      <trkpt lat="46.89958" lon="4.6231">
        <ele>396.84991</ele>
        <time>2022-03-12T09:27:13.000Z</time>
      </trkpt>
      <trkpt lat="46.8996" lon="4.62307">
        <ele>396.89993</ele>
        <time>2022-03-12T09:27:15.000Z</time>
      </trkpt>
      <trkpt lat="46.89961" lon="4.62302">
        <ele>396.94992</ele>
        <time>2022-03-12T09:27:17.000Z</time>
      </trkpt>
      <trkpt lat="46.89963" lon="4.62298">
        <ele>396.99994</ele>
        <time>2022-03-12T09:27:19.000Z</time>
      </trkpt>
      <trkpt lat="46.89964" lon="4.62294">
        <ele>397.04993</ele>
        <time>2022-03-12T09:27:21.000Z</time>
      </trkpt>
      <trkpt lat="46.89965" lon="4.62291">
        <ele>397.14993</ele>
        <time>2022-03-12T09:27:23.000Z</time>
      </trkpt>
      <trkpt lat="46.89966" lon="4.62288">
        <ele>397.19992</ele>
        <time>2022-03-12T09:27:25.000Z</time>
      </trkpt>
      <trkpt lat="46.89966" lon="4.62285">
        <ele>397.24994</ele>
        <time>2022-03-12T09:27:27.000Z</time>
      </trkpt>
      <trkpt lat="46.89966" lon="4.62281">
        <ele>397.24994</ele>
        <time>2022-03-12T09:27:29.000Z</time>
      </trkpt>
      <trkpt lat="46.89968" lon="4.62278">
        <ele>397.19992</ele>
        <time>2022-03-12T09:27:31.000Z</time>
      </trkpt>
      <trkpt lat="46.89969" lon="4.62275">
        <ele>397.14993</ele>
        <time>2022-03-12T09:27:33.000Z</time>
      </trkpt>
      <trkpt lat="46.89971" lon="4.62272">
        <ele>397.09991</ele>
        <time>2022-03-12T09:27:35.000Z</time>
      </trkpt>
      <trkpt lat="46.89972" lon="4.6227">
        <ele>397.04993</ele>
        <time>2022-03-12T09:27:37.000Z</time>
      </trkpt>
      <trkpt lat="46.89973" lon="4.62266">
        <ele>396.94992</ele>
        <time>2022-03-12T09:27:39.000Z</time>
      </trkpt>
      <trkpt lat="46.89974" lon="4.62262">
        <ele>396.84991</ele>
        <time>2022-03-12T09:27:41.000Z</time>
      </trkpt>
      <trkpt lat="46.89976" lon="4.62259">
        <ele>396.79993</ele>
        <time>2022-03-12T09:27:43.000Z</time>
      </trkpt>
      <trkpt lat="46.89976" lon="4.62255">
        <ele>396.79993</ele>
        <time>2022-03-12T09:27:45.000Z</time>
      </trkpt>
      <trkpt lat="46.89977" lon="4.62251">
        <ele>396.84991</ele>
        <time>2022-03-12T09:27:47.000Z</time>
      </trkpt>
      <trkpt lat="46.89978" lon="4.62248">
        <ele>396.89993</ele>
        <time>2022-03-12T09:27:49.000Z</time>
      </trkpt>
      <trkpt lat="46.89978" lon="4.62245">
        <ele>396.94992</ele>
        <time>2022-03-12T09:27:51.000Z</time>
      </trkpt>
      <trkpt lat="46.89979" lon="4.62241">
        <ele>396.94992</ele>
        <time>2022-03-12T09:27:53.000Z</time>
      </trkpt>
      <trkpt lat="46.89979" lon="4.62237">
        <ele>396.94992</ele>
        <time>2022-03-12T09:27:55.000Z</time>
      </trkpt>
      <trkpt lat="46.8998" lon="4.62234">
        <ele>396.94992</ele>
        <time>2022-03-12T09:27:57.000Z</time>
      </trkpt>
      <trkpt lat="46.89981" lon="4.62231">
        <ele>396.94992</ele>
        <time>2022-03-12T09:27:59.000Z</time>
      </trkpt>
      <trkpt lat="46.89983" lon="4.62227">
        <ele>396.84991</ele>
        <time>2022-03-12T09:28:01.000Z</time>
      </trkpt>
      <trkpt lat="46.89985" lon="4.62222">
        <ele>396.74994</ele>
        <time>2022-03-12T09:28:04.000Z</time>
      </trkpt>
      <trkpt lat="46.89986" lon="4.6222">
        <ele>396.74994</ele>
        <time>2022-03-12T09:28:06.000Z</time>
      </trkpt>
      <trkpt lat="46.89987" lon="4.62217">
        <ele>396.74994</ele>
        <time>2022-03-12T09:28:08.000Z</time>
      </trkpt>
      <trkpt lat="46.89988" lon="4.62214">
        <ele>396.74994</ele>
        <time>2022-03-12T09:28:10.000Z</time>
      </trkpt>
      <trkpt lat="46.89988" lon="4.62211">
        <ele>396.74994</ele>
        <time>2022-03-12T09:28:12.000Z</time>
      </trkpt>
      <trkpt lat="46.89989" lon="4.62208">
        <ele>396.69992</ele>
        <time>2022-03-12T09:28:14.000Z</time>
      </trkpt>
      <trkpt lat="46.8999" lon="4.62205">
        <ele>396.69992</ele>
        <time>2022-03-12T09:28:16.000Z</time>
      </trkpt>
      <trkpt lat="46.89991" lon="4.62202">
        <ele>396.69992</ele>
        <time>2022-03-12T09:28:18.000Z</time>
      </trkpt>
      <trkpt lat="46.89992" lon="4.62199">
        <ele>396.69992</ele>
        <time>2022-03-12T09:28:20.000Z</time>
      </trkpt>
      <trkpt lat="46.89993" lon="4.62196">
        <ele>396.74994</ele>
        <time>2022-03-12T09:28:22.000Z</time>
      </trkpt>
      <trkpt lat="46.89994" lon="4.62192">
        <ele>396.79993</ele>
        <time>2022-03-12T09:28:24.000Z</time>
      </trkpt>
      <trkpt lat="46.89995" lon="4.62187">
        <ele>396.84991</ele>
        <time>2022-03-12T09:28:27.000Z</time>
      </trkpt>
      <trkpt lat="46.89996" lon="4.62184">
        <ele>396.84991</ele>
        <time>2022-03-12T09:28:29.000Z</time>
      </trkpt>
      <trkpt lat="46.89997" lon="4.62181">
        <ele>396.94992</ele>
        <time>2022-03-12T09:28:31.000Z</time>
      </trkpt>
      <trkpt lat="46.89998" lon="4.62178">
        <ele>397.09991</ele>
        <time>2022-03-12T09:28:33.000Z</time>
      </trkpt>
      <trkpt lat="46.89999" lon="4.62173">
        <ele>397.19992</ele>
        <time>2022-03-12T09:28:36.000Z</time>
      </trkpt>
      <trkpt lat="46.90001" lon="4.6217">
        <ele>397.24994</ele>
        <time>2022-03-12T09:28:38.000Z</time>
      </trkpt>
      <trkpt lat="46.90001" lon="4.62168">
        <ele>397.34991</ele>
        <time>2022-03-12T09:28:40.000Z</time>
      </trkpt>
      <trkpt lat="46.90002" lon="4.62164">
        <ele>397.39993</ele>
        <time>2022-03-12T09:28:43.000Z</time>
      </trkpt>
      <trkpt lat="46.90003" lon="4.62161">
        <ele>397.49994</ele>
        <time>2022-03-12T09:29:04.000Z</time>
      </trkpt>
      <trkpt lat="46.90004" lon="4.62158">
        <ele>397.54993</ele>
        <time>2022-03-12T09:29:08.000Z</time>
      </trkpt>
      <trkpt lat="46.90005" lon="4.62154">
        <ele>397.54993</ele>
        <time>2022-03-12T09:29:11.000Z</time>
      </trkpt>
      <trkpt lat="46.90007" lon="4.62151">
        <ele>397.54993</ele>
        <time>2022-03-12T09:29:13.000Z</time>
      </trkpt>
      <trkpt lat="46.90007" lon="4.62148">
        <ele>397.54993</ele>
        <time>2022-03-12T09:29:15.000Z</time>
      </trkpt>
      <trkpt lat="46.90008" lon="4.62145">
        <ele>397.59991</ele>
        <time>2022-03-12T09:29:18.000Z</time>
      </trkpt>
      <trkpt lat="46.90008" lon="4.62142">
        <ele>397.69992</ele>
        <time>2022-03-12T09:29:20.000Z</time>
      </trkpt>
      <trkpt lat="46.90009" lon="4.62139">
        <ele>397.74994</ele>
        <time>2022-03-12T09:29:22.000Z</time>
      </trkpt>
      <trkpt lat="46.90009" lon="4.62137">
        <ele>397.79993</ele>
        <time>2022-03-12T09:29:24.000Z</time>
      </trkpt>
      <trkpt lat="46.9001" lon="4.62133">
        <ele>397.94992</ele>
        <time>2022-03-12T09:29:26.000Z</time>
      </trkpt>
      <trkpt lat="46.90011" lon="4.62131">
        <ele>397.99994</ele>
        <time>2022-03-12T09:29:29.000Z</time>
      </trkpt>
      <trkpt lat="46.90012" lon="4.62128">
        <ele>398.04993</ele>
        <time>2022-03-12T09:29:31.000Z</time>
      </trkpt>
      <trkpt lat="46.90013" lon="4.62125">
        <ele>398.04993</ele>
        <time>2022-03-12T09:29:33.000Z</time>
      </trkpt>
      <trkpt lat="46.90014" lon="4.62122">
        <ele>398.14993</ele>
        <time>2022-03-12T09:29:35.000Z</time>
      </trkpt>
      <trkpt lat="46.90014" lon="4.62119">
        <ele>398.19992</ele>
        <time>2022-03-12T09:29:37.000Z</time>
      </trkpt>
      <trkpt lat="46.90015" lon="4.62116">
        <ele>398.29993</ele>
        <time>2022-03-12T09:29:39.000Z</time>
      </trkpt>
      <trkpt lat="46.90016" lon="4.62113">
        <ele>398.44992</ele>
        <time>2022-03-12T09:29:41.000Z</time>
      </trkpt>
      <trkpt lat="46.90016" lon="4.6211">
        <ele>398.64993</ele>
        <time>2022-03-12T09:29:43.000Z</time>
      </trkpt>
      <trkpt lat="46.90016" lon="4.62107">
        <ele>398.84991</ele>
        <time>2022-03-12T09:29:46.000Z</time>
      </trkpt>
      <trkpt lat="46.90017" lon="4.62105">
        <ele>399.04993</ele>
        <time>2022-03-12T09:29:48.000Z</time>
      </trkpt>
      <trkpt lat="46.90018" lon="4.62101">
        <ele>399.24994</ele>
        <time>2022-03-12T09:29:51.000Z</time>
      </trkpt>
      <trkpt lat="46.90019" lon="4.62097">
        <ele>399.44992</ele>
        <time>2022-03-12T09:29:54.000Z</time>
      </trkpt>
      <trkpt lat="46.9002" lon="4.62093">
        <ele>399.69992</ele>
        <time>2022-03-12T09:29:56.000Z</time>
      </trkpt>
      <trkpt lat="46.90021" lon="4.62089">
        <ele>399.99994</ele>
        <time>2022-03-12T09:29:59.000Z</time>
      </trkpt>
      <trkpt lat="46.90022" lon="4.62087">
        <ele>400.29993</ele>
        <time>2022-03-12T09:30:01.000Z</time>
      </trkpt>
      <trkpt lat="46.90022" lon="4.62084">
        <ele>400.59991</ele>
        <time>2022-03-12T09:30:03.000Z</time>
      </trkpt>
      <trkpt lat="46.90023" lon="4.62081">
        <ele>400.84991</ele>
        <time>2022-03-12T09:30:05.000Z</time>
      </trkpt>
      <trkpt lat="46.90024" lon="4.62078">
        <ele>401.09991</ele>
        <time>2022-03-12T09:30:07.000Z</time>
      </trkpt>
      <trkpt lat="46.90025" lon="4.62075">
        <ele>401.39993</ele>
        <time>2022-03-12T09:30:09.000Z</time>
      </trkpt>
      <trkpt lat="46.90027" lon="4.6207">
        <ele>401.64993</ele>
        <time>2022-03-12T09:30:12.000Z</time>
      </trkpt>
      <trkpt lat="46.90028" lon="4.62066">
        <ele>401.94992</ele>
        <time>2022-03-12T09:30:15.000Z</time>
      </trkpt>
      <trkpt lat="46.90029" lon="4.62064">
        <ele>402.29993</ele>
        <time>2022-03-12T09:30:17.000Z</time>
      </trkpt>
      <trkpt lat="46.9003" lon="4.62061">
        <ele>402.69992</ele>
        <time>2022-03-12T09:30:19.000Z</time>
      </trkpt>
      <trkpt lat="46.90031" lon="4.62058">
        <ele>403.04993</ele>
        <time>2022-03-12T09:30:21.000Z</time>
      </trkpt>
      <trkpt lat="46.90031" lon="4.62055">
        <ele>403.44992</ele>
        <time>2022-03-12T09:30:23.000Z</time>
      </trkpt>
      <trkpt lat="46.90033" lon="4.6205">
        <ele>403.84991</ele>
        <time>2022-03-12T09:30:26.000Z</time>
      </trkpt>
      <trkpt lat="46.90033" lon="4.62046">
        <ele>404.24994</ele>
        <time>2022-03-12T09:30:29.000Z</time>
      </trkpt>
      <trkpt lat="46.90035" lon="4.62043">
        <ele>404.59991</ele>
        <time>2022-03-12T09:30:31.000Z</time>
      </trkpt>
      <trkpt lat="46.90036" lon="4.6204">
        <ele>404.89993</ele>
        <time>2022-03-12T09:30:33.000Z</time>
      </trkpt>
      <trkpt lat="46.90038" lon="4.62037">
        <ele>405.24994</ele>
        <time>2022-03-12T09:30:35.000Z</time>
      </trkpt>
      <trkpt lat="46.90039" lon="4.62035">
        <ele>405.59991</ele>
        <time>2022-03-12T09:30:37.000Z</time>
      </trkpt>
      <trkpt lat="46.90041" lon="4.62032">
        <ele>405.94992</ele>
        <time>2022-03-12T09:30:40.000Z</time>
      </trkpt>
      <trkpt lat="46.90042" lon="4.62029">
        <ele>406.24994</ele>
        <time>2022-03-12T09:30:42.000Z</time>
      </trkpt>
      <trkpt lat="46.90043" lon="4.62026">
        <ele>406.54993</ele>
        <time>2022-03-12T09:30:44.000Z</time>
      </trkpt>
      <trkpt lat="46.90045" lon="4.62023">
        <ele>406.84991</ele>
        <time>2022-03-12T09:30:46.000Z</time>
      </trkpt>
      <trkpt lat="46.90046" lon="4.6202">
        <ele>407.09991</ele>
        <time>2022-03-12T09:30:48.000Z</time>
      </trkpt>
      <trkpt lat="46.90047" lon="4.62017">
        <ele>407.34991</ele>
        <time>2022-03-12T09:30:50.000Z</time>
      </trkpt>
      <trkpt lat="46.90049" lon="4.62014">
        <ele>407.59991</ele>
        <time>2022-03-12T09:30:52.000Z</time>
      </trkpt>
      <trkpt lat="46.9005" lon="4.62012">
        <ele>407.84991</ele>
        <time>2022-03-12T09:30:54.000Z</time>
      </trkpt>
      <trkpt lat="46.90052" lon="4.62009">
        <ele>408.14993</ele>
        <time>2022-03-12T09:30:56.000Z</time>
      </trkpt>
      <trkpt lat="46.90053" lon="4.62006">
        <ele>408.39993</ele>
        <time>2022-03-12T09:30:58.000Z</time>
      </trkpt>
      <trkpt lat="46.90055" lon="4.62003">
        <ele>408.59991</ele>
        <time>2022-03-12T09:31:00.000Z</time>
      </trkpt>
      <trkpt lat="46.90057" lon="4.62001">
        <ele>408.74994</ele>
        <time>2022-03-12T09:31:02.000Z</time>
      </trkpt>
      <trkpt lat="46.90058" lon="4.61998">
        <ele>408.89993</ele>
        <time>2022-03-12T09:31:04.000Z</time>
      </trkpt>
      <trkpt lat="46.9006" lon="4.61993">
        <ele>408.99994</ele>
        <time>2022-03-12T09:31:07.000Z</time>
      </trkpt>
      <trkpt lat="46.90061" lon="4.6199">
        <ele>409.09991</ele>
        <time>2022-03-12T09:31:09.000Z</time>
      </trkpt>
      <trkpt lat="46.90062" lon="4.61988">
        <ele>409.19992</ele>
        <time>2022-03-12T09:31:11.000Z</time>
      </trkpt>
      <trkpt lat="46.90064" lon="4.61985">
        <ele>409.34991</ele>
        <time>2022-03-12T09:31:13.000Z</time>
      </trkpt>
      <trkpt lat="46.90066" lon="4.6198">
        <ele>409.49994</ele>
        <time>2022-03-12T09:31:16.000Z</time>
      </trkpt>
      <trkpt lat="46.90067" lon="4.61977">
        <ele>409.64996</ele>
        <time>2022-03-12T09:31:18.000Z</time>
      </trkpt>
      <trkpt lat="46.90069" lon="4.61974">
        <ele>409.79996</ele>
        <time>2022-03-12T09:31:20.000Z</time>
      </trkpt>
      <trkpt lat="46.90071" lon="4.61971">
        <ele>409.94995</ele>
        <time>2022-03-12T09:31:22.000Z</time>
      </trkpt>
      <trkpt lat="46.90072" lon="4.61968">
        <ele>410.14996</ele>
        <time>2022-03-12T09:31:24.000Z</time>
      </trkpt>
      <trkpt lat="46.90074" lon="4.61965">
        <ele>410.24994</ele>
        <time>2022-03-12T09:31:26.000Z</time>
      </trkpt>
      <trkpt lat="46.90075" lon="4.61962">
        <ele>410.34995</ele>
        <time>2022-03-12T09:31:28.000Z</time>
      </trkpt>
      <trkpt lat="46.90076" lon="4.61959">
        <ele>410.44995</ele>
        <time>2022-03-12T09:31:31.000Z</time>
      </trkpt>
      <trkpt lat="46.90077" lon="4.61957">
        <ele>410.54996</ele>
        <time>2022-03-12T09:31:33.000Z</time>
      </trkpt>
      <trkpt lat="46.90079" lon="4.61955">
        <ele>410.59995</ele>
        <time>2022-03-12T09:31:35.000Z</time>
      </trkpt>
      <trkpt lat="46.9008" lon="4.61952">
        <ele>410.59995</ele>
        <time>2022-03-12T09:31:37.000Z</time>
      </trkpt>
      <trkpt lat="46.90081" lon="4.61949">
        <ele>410.54996</ele>
        <time>2022-03-12T09:31:39.000Z</time>
      </trkpt>
      <trkpt lat="46.90083" lon="4.61946">
        <ele>410.54996</ele>
        <time>2022-03-12T09:31:41.000Z</time>
      </trkpt>
      <trkpt lat="46.90084" lon="4.61943">
        <ele>410.54996</ele>
        <time>2022-03-12T09:31:43.000Z</time>
      </trkpt>
      <trkpt lat="46.90085" lon="4.6194">
        <ele>410.59995</ele>
        <time>2022-03-12T09:31:45.000Z</time>
      </trkpt>
      <trkpt lat="46.90086" lon="4.61938">
        <ele>410.64996</ele>
        <time>2022-03-12T09:31:47.000Z</time>
      </trkpt>
      <trkpt lat="46.90088" lon="4.61935">
        <ele>410.69995</ele>
        <time>2022-03-12T09:31:49.000Z</time>
      </trkpt>
      <trkpt lat="46.9009" lon="4.61932">
        <ele>410.74994</ele>
        <time>2022-03-12T09:31:51.000Z</time>
      </trkpt>
      <trkpt lat="46.90092" lon="4.6193">
        <ele>410.84995</ele>
        <time>2022-03-12T09:31:53.000Z</time>
      </trkpt>
      <trkpt lat="46.90093" lon="4.61927">
        <ele>410.99994</ele>
        <time>2022-03-12T09:31:55.000Z</time>
      </trkpt>
      <trkpt lat="46.90095" lon="4.61924">
        <ele>411.14996</ele>
        <time>2022-03-12T09:31:57.000Z</time>
      </trkpt>
      <trkpt lat="46.90096" lon="4.61921">
        <ele>411.34995</ele>
        <time>2022-03-12T09:31:59.000Z</time>
      </trkpt>
      <trkpt lat="46.90097" lon="4.61919">
        <ele>411.54996</ele>
        <time>2022-03-12T09:32:01.000Z</time>
      </trkpt>
      <trkpt lat="46.90099" lon="4.61916">
        <ele>411.79996</ele>
        <time>2022-03-12T09:32:03.000Z</time>
      </trkpt>
      <trkpt lat="46.901" lon="4.61913">
        <ele>411.99994</ele>
        <time>2022-03-12T09:32:05.000Z</time>
      </trkpt>
      <trkpt lat="46.90102" lon="4.6191">
        <ele>412.19995</ele>
        <time>2022-03-12T09:32:07.000Z</time>
      </trkpt>
      <trkpt lat="46.90103" lon="4.61907">
        <ele>412.39996</ele>
        <time>2022-03-12T09:32:09.000Z</time>
      </trkpt>
      <trkpt lat="46.90103" lon="4.61904">
        <ele>412.59995</ele>
        <time>2022-03-12T09:32:11.000Z</time>
      </trkpt>
      <trkpt lat="46.90105" lon="4.619">
        <ele>412.79996</ele>
        <time>2022-03-12T09:32:14.000Z</time>
      </trkpt>
      <trkpt lat="46.90106" lon="4.61898">
        <ele>413.04996</ele>
        <time>2022-03-12T09:32:16.000Z</time>
      </trkpt>
      <trkpt lat="46.90107" lon="4.61895">
        <ele>413.29996</ele>
        <time>2022-03-12T09:32:19.000Z</time>
      </trkpt>
      <trkpt lat="46.90108" lon="4.61893">
        <ele>413.54996</ele>
        <time>2022-03-12T09:32:21.000Z</time>
      </trkpt>
      <trkpt lat="46.90109" lon="4.6189">
        <ele>413.84995</ele>
        <time>2022-03-12T09:32:24.000Z</time>
      </trkpt>
      <trkpt lat="46.90111" lon="4.61886">
        <ele>414.14996</ele>
        <time>2022-03-12T09:32:27.000Z</time>
      </trkpt>
      <trkpt lat="46.90113" lon="4.61883">
        <ele>414.44995</ele>
        <time>2022-03-12T09:32:29.000Z</time>
      </trkpt>
      <trkpt lat="46.90114" lon="4.6188">
        <ele>414.74994</ele>
        <time>2022-03-12T09:32:32.000Z</time>
      </trkpt>
      <trkpt lat="46.90116" lon="4.61875">
        <ele>415.04996</ele>
        <time>2022-03-12T09:32:36.000Z</time>
      </trkpt>
      <trkpt lat="46.90117" lon="4.61873">
        <ele>415.29996</ele>
        <time>2022-03-12T09:32:38.000Z</time>
      </trkpt>
      <trkpt lat="46.90119" lon="4.6187">
        <ele>415.54996</ele>
        <time>2022-03-12T09:32:40.000Z</time>
      </trkpt>
      <trkpt lat="46.9012" lon="4.61867">
        <ele>415.74994</ele>
        <time>2022-03-12T09:32:42.000Z</time>
      </trkpt>
      <trkpt lat="46.90122" lon="4.61863">
        <ele>415.99994</ele>
        <time>2022-03-12T09:32:46.000Z</time>
      </trkpt>
      <trkpt lat="46.90123" lon="4.61861">
        <ele>416.14996</ele>
        <time>2022-03-12T09:32:49.000Z</time>
      </trkpt>
      <trkpt lat="46.90125" lon="4.61859">
        <ele>416.29996</ele>
        <time>2022-03-12T09:32:51.000Z</time>
      </trkpt>
      <trkpt lat="46.90126" lon="4.61856">
        <ele>416.39996</ele>
        <time>2022-03-12T09:32:53.000Z</time>
      </trkpt>
      <trkpt lat="46.90127" lon="4.61853">
        <ele>416.49994</ele>
        <time>2022-03-12T09:32:55.000Z</time>
      </trkpt>
      <trkpt lat="46.90128" lon="4.6185">
        <ele>416.69995</ele>
        <time>2022-03-12T09:32:57.000Z</time>
      </trkpt>
      <trkpt lat="46.90129" lon="4.61848">
        <ele>416.94995</ele>
        <time>2022-03-12T09:32:59.000Z</time>
      </trkpt>
      <trkpt lat="46.9013" lon="4.61845">
        <ele>417.14996</ele>
        <time>2022-03-12T09:33:02.000Z</time>
      </trkpt>
      <trkpt lat="46.90131" lon="4.61841">
        <ele>417.39996</ele>
        <time>2022-03-12T09:33:05.000Z</time>
      </trkpt>
      <trkpt lat="46.90132" lon="4.61838">
        <ele>417.64996</ele>
        <time>2022-03-12T09:33:08.000Z</time>
      </trkpt>
      <trkpt lat="46.90131" lon="4.61836">
        <ele>417.89996</ele>
        <time>2022-03-12T09:33:11.000Z</time>
      </trkpt>
      <trkpt lat="46.90132" lon="4.61832">
        <ele>418.19995</ele>
        <time>2022-03-12T09:33:14.000Z</time>
      </trkpt>
      <trkpt lat="46.90133" lon="4.61828">
        <ele>418.44995</ele>
        <time>2022-03-12T09:33:17.000Z</time>
      </trkpt>
      <trkpt lat="46.90136" lon="4.61826">
        <ele>418.79996</ele>
        <time>2022-03-12T09:33:24.000Z</time>
      </trkpt>
      <trkpt lat="46.90137" lon="4.61824">
        <ele>419.09995</ele>
        <time>2022-03-12T09:33:27.000Z</time>
      </trkpt>
      <trkpt lat="46.90138" lon="4.61821">
        <ele>419.39996</ele>
        <time>2022-03-12T09:33:32.000Z</time>
      </trkpt>
      <trkpt lat="46.90139" lon="4.61818">
        <ele>419.79996</ele>
        <time>2022-03-12T09:33:39.000Z</time>
      </trkpt>
      <trkpt lat="46.90139" lon="4.61815">
        <ele>420.19995</ele>
        <time>2022-03-12T09:33:42.000Z</time>
      </trkpt>
      <trkpt lat="46.90139" lon="4.61813">
        <ele>420.59995</ele>
        <time>2022-03-12T09:33:47.000Z</time>
      </trkpt>
      <trkpt lat="46.9014" lon="4.6181">
        <ele>420.99994</ele>
        <time>2022-03-12T09:33:51.000Z</time>
      </trkpt>
      <trkpt lat="46.90141" lon="4.61807">
        <ele>421.39996</ele>
        <time>2022-03-12T09:33:57.000Z</time>
      </trkpt>
      <trkpt lat="46.9014" lon="4.61803">
        <ele>421.84995</ele>
        <time>2022-03-12T09:34:09.000Z</time>
      </trkpt>
      <trkpt lat="46.90142" lon="4.61804">
        <ele>422.44995</ele>
        <time>2022-03-12T09:35:17.000Z</time>
      </trkpt>
      <trkpt lat="46.90141" lon="4.61802">
        <ele>423.04996</ele>
        <time>2022-03-12T09:35:23.000Z</time>
      </trkpt>
      <trkpt lat="46.90142" lon="4.61799">
        <ele>423.69995</ele>
        <time>2022-03-12T09:35:26.000Z</time>
      </trkpt>
      <trkpt lat="46.90143" lon="4.61797">
        <ele>424.29996</ele>
        <time>2022-03-12T09:35:29.000Z</time>
      </trkpt>
      <trkpt lat="46.90143" lon="4.61794">
        <ele>424.89996</ele>
        <time>2022-03-12T09:35:33.000Z</time>
      </trkpt>
      <trkpt lat="46.90144" lon="4.61791">
        <ele>425.54996</ele>
        <time>2022-03-12T09:35:35.000Z</time>
      </trkpt>
      <trkpt lat="46.90146" lon="4.61788">
        <ele>426.19995</ele>
        <time>2022-03-12T09:35:38.000Z</time>
      </trkpt>
      <trkpt lat="46.90146" lon="4.61785">
        <ele>426.84995</ele>
        <time>2022-03-12T09:35:42.000Z</time>
      </trkpt>
      <trkpt lat="46.90146" lon="4.61781">
        <ele>427.54996</ele>
        <time>2022-03-12T09:35:46.000Z</time>
      </trkpt>
      <trkpt lat="46.90144" lon="4.61779">
        <ele>428.19995</ele>
        <time>2022-03-12T09:35:48.000Z</time>
      </trkpt>
      <trkpt lat="46.90144" lon="4.61774">
        <ele>428.84995</ele>
        <time>2022-03-12T09:35:55.000Z</time>
      </trkpt>
      <trkpt lat="46.90145" lon="4.61772">
        <ele>429.34995</ele>
        <time>2022-03-12T09:35:58.000Z</time>
      </trkpt>
      <trkpt lat="46.90146" lon="4.61768">
        <ele>429.89996</ele>
        <time>2022-03-12T09:36:02.000Z</time>
      </trkpt>
      <trkpt lat="46.90147" lon="4.61765">
        <ele>430.54996</ele>
        <time>2022-03-12T09:36:06.000Z</time>
      </trkpt>
      <trkpt lat="46.90147" lon="4.61761">
        <ele>431.09995</ele>
        <time>2022-03-12T09:36:10.000Z</time>
      </trkpt>
      <trkpt lat="46.90146" lon="4.61759">
        <ele>431.64996</ele>
        <time>2022-03-12T09:36:14.000Z</time>
      </trkpt>
      <trkpt lat="46.90146" lon="4.61756">
        <ele>432.19995</ele>
        <time>2022-03-12T09:36:18.000Z</time>
      </trkpt>
      <trkpt lat="46.90145" lon="4.61753">
        <ele>432.79996</ele>
        <time>2022-03-12T09:36:21.000Z</time>
      </trkpt>
      <trkpt lat="46.90144" lon="4.61749">
        <ele>433.39996</ele>
        <time>2022-03-12T09:36:28.000Z</time>
      </trkpt>
      <trkpt lat="46.90143" lon="4.61746">
        <ele>434.04996</ele>
        <time>2022-03-12T09:36:32.000Z</time>
      </trkpt>
      <trkpt lat="46.90143" lon="4.61743">
        <ele>434.59995</ele>
        <time>2022-03-12T09:36:35.000Z</time>
      </trkpt>
      <trkpt lat="46.90143" lon="4.6174">
        <ele>435.14996</ele>
        <time>2022-03-12T09:36:38.000Z</time>
      </trkpt>
      <trkpt lat="46.90143" lon="4.61737">
        <ele>435.69995</ele>
        <time>2022-03-12T09:36:42.000Z</time>
      </trkpt>
      <trkpt lat="46.90143" lon="4.61733">
        <ele>436.34995</ele>
        <time>2022-03-12T09:36:47.000Z</time>
      </trkpt>
      <trkpt lat="46.90143" lon="4.61731">
        <ele>436.94995</ele>
        <time>2022-03-12T09:36:52.000Z</time>
      </trkpt>
      <trkpt lat="46.90143" lon="4.61727">
        <ele>437.59995</ele>
        <time>2022-03-12T09:36:56.000Z</time>
      </trkpt>
      <trkpt lat="46.90142" lon="4.61724">
        <ele>438.19995</ele>
        <time>2022-03-12T09:36:58.000Z</time>
      </trkpt>
      <trkpt lat="46.90141" lon="4.61721">
        <ele>438.79996</ele>
        <time>2022-03-12T09:37:01.000Z</time>
      </trkpt>
      <trkpt lat="46.90141" lon="4.61718">
        <ele>439.39996</ele>
        <time>2022-03-12T09:37:03.000Z</time>
      </trkpt>
      <trkpt lat="46.9014" lon="4.61715">
        <ele>439.99994</ele>
        <time>2022-03-12T09:37:05.000Z</time>
      </trkpt>
      <trkpt lat="46.9014" lon="4.61712">
        <ele>440.59995</ele>
        <time>2022-03-12T09:37:08.000Z</time>
      </trkpt>
      <trkpt lat="46.9014" lon="4.61709">
        <ele>441.29996</ele>
        <time>2022-03-12T09:37:11.000Z</time>
      </trkpt>
      <trkpt lat="46.90139" lon="4.61706">
        <ele>441.99994</ele>
        <time>2022-03-12T09:37:15.000Z</time>
      </trkpt>
      <trkpt lat="46.90139" lon="4.61702">
        <ele>442.64996</ele>
        <time>2022-03-12T09:37:21.000Z</time>
      </trkpt>
      <trkpt lat="46.90138" lon="4.61699">
        <ele>443.29996</ele>
        <time>2022-03-12T09:37:25.000Z</time>
      </trkpt>
      <trkpt lat="46.90137" lon="4.61696">
        <ele>444.04996</ele>
        <time>2022-03-12T09:37:28.000Z</time>
      </trkpt>
      <trkpt lat="46.90136" lon="4.61693">
        <ele>444.69995</ele>
        <time>2022-03-12T09:37:32.000Z</time>
      </trkpt>
      <trkpt lat="46.90135" lon="4.6169">
        <ele>445.34995</ele>
        <time>2022-03-12T09:37:36.000Z</time>
      </trkpt>
      <trkpt lat="46.90134" lon="4.61686">
        <ele>445.99994</ele>
        <time>2022-03-12T09:37:39.000Z</time>
      </trkpt>
      <trkpt lat="46.90133" lon="4.61684">
        <ele>446.64996</ele>
        <time>2022-03-12T09:37:41.000Z</time>
      </trkpt>
      <trkpt lat="46.90132" lon="4.61681">
        <ele>447.24994</ele>
        <time>2022-03-12T09:37:43.000Z</time>
      </trkpt>
      <trkpt lat="46.9013" lon="4.61678">
        <ele>447.84995</ele>
        <time>2022-03-12T09:37:45.000Z</time>
      </trkpt>
      <trkpt lat="46.9013" lon="4.61675">
        <ele>448.44995</ele>
        <time>2022-03-12T09:37:48.000Z</time>
      </trkpt>
      <trkpt lat="46.90129" lon="4.6167">
        <ele>449.04996</ele>
        <time>2022-03-12T09:37:53.000Z</time>
      </trkpt>
      <trkpt lat="46.90128" lon="4.61668">
        <ele>449.64996</ele>
        <time>2022-03-12T09:37:56.000Z</time>
      </trkpt>
      <trkpt lat="46.90128" lon="4.61664">
        <ele>450.24994</ele>
        <time>2022-03-12T09:38:00.000Z</time>
      </trkpt>
      <trkpt lat="46.90128" lon="4.61661">
        <ele>450.84995</ele>
        <time>2022-03-12T09:38:02.000Z</time>
      </trkpt>
      <trkpt lat="46.90128" lon="4.61658">
        <ele>451.59995</ele>
        <time>2022-03-12T09:38:05.000Z</time>
      </trkpt>
      <trkpt lat="46.90126" lon="4.61654">
        <ele>452.34995</ele>
        <time>2022-03-12T09:38:08.000Z</time>
      </trkpt>
      <trkpt lat="46.90125" lon="4.61651">
        <ele>453.14996</ele>
        <time>2022-03-12T09:38:11.000Z</time>
      </trkpt>
      <trkpt lat="46.90124" lon="4.61646">
        <ele>453.99994</ele>
        <time>2022-03-12T09:38:16.000Z</time>
      </trkpt>
      <trkpt lat="46.90124" lon="4.61642">
        <ele>454.79996</ele>
        <time>2022-03-12T09:38:19.000Z</time>
      </trkpt>
      <trkpt lat="46.90124" lon="4.61638">
        <ele>455.54996</ele>
        <time>2022-03-12T09:38:24.000Z</time>
      </trkpt>
      <trkpt lat="46.90124" lon="4.61636">
        <ele>456.24994</ele>
        <time>2022-03-12T09:38:26.000Z</time>
      </trkpt>
      <trkpt lat="46.90122" lon="4.61633">
        <ele>456.99994</ele>
        <time>2022-03-12T09:38:28.000Z</time>
      </trkpt>
      <trkpt lat="46.90122" lon="4.6163">
        <ele>457.64996</ele>
        <time>2022-03-12T09:38:30.000Z</time>
      </trkpt>
      <trkpt lat="46.90121" lon="4.61628">
        <ele>458.39996</ele>
        <time>2022-03-12T09:38:32.000Z</time>
      </trkpt>
      <trkpt lat="46.9012" lon="4.61625">
        <ele>459.09995</ele>
        <time>2022-03-12T09:38:35.000Z</time>
      </trkpt>
      <trkpt lat="46.9012" lon="4.61623">
        <ele>459.79996</ele>
        <time>2022-03-12T09:38:37.000Z</time>
      </trkpt>
      <trkpt lat="46.90118" lon="4.6162">
        <ele>460.39996</ele>
        <time>2022-03-12T09:38:40.000Z</time>
      </trkpt>
      <trkpt lat="46.90118" lon="4.61617">
        <ele>461.04996</ele>
        <time>2022-03-12T09:38:42.000Z</time>
      </trkpt>
      <trkpt lat="46.90118" lon="4.61614">
        <ele>461.69995</ele>
        <time>2022-03-12T09:38:44.000Z</time>
      </trkpt>
      <trkpt lat="46.90119" lon="4.6161">
        <ele>462.29996</ele>
        <time>2022-03-12T09:38:47.000Z</time>
      </trkpt>
      <trkpt lat="46.9012" lon="4.61607">
        <ele>462.84995</ele>
        <time>2022-03-12T09:38:50.000Z</time>
      </trkpt>
      <trkpt lat="46.90121" lon="4.61604">
        <ele>463.39996</ele>
        <time>2022-03-12T09:38:52.000Z</time>
      </trkpt>
      <trkpt lat="46.90122" lon="4.61602">
        <ele>463.94995</ele>
        <time>2022-03-12T09:38:54.000Z</time>
      </trkpt>
      <trkpt lat="46.90123" lon="4.616">
        <ele>464.49994</ele>
        <time>2022-03-12T09:38:56.000Z</time>
      </trkpt>
      <trkpt lat="46.90124" lon="4.61598">
        <ele>464.94995</ele>
        <time>2022-03-12T09:38:58.000Z</time>
      </trkpt>
      <trkpt lat="46.90125" lon="4.61595">
        <ele>465.34995</ele>
        <time>2022-03-12T09:39:01.000Z</time>
      </trkpt>
      <trkpt lat="46.90125" lon="4.61592">
        <ele>465.69995</ele>
        <time>2022-03-12T09:39:04.000Z</time>
      </trkpt>
      <trkpt lat="46.90125" lon="4.61589">
        <ele>465.99994</ele>
        <time>2022-03-12T09:39:07.000Z</time>
      </trkpt>
      <trkpt lat="46.90126" lon="4.61586">
        <ele>466.34995</ele>
        <time>2022-03-12T09:39:10.000Z</time>
      </trkpt>
      <trkpt lat="46.90127" lon="4.61583">
        <ele>466.69995</ele>
        <time>2022-03-12T09:39:13.000Z</time>
      </trkpt>
      <trkpt lat="46.90128" lon="4.61581">
        <ele>467.09995</ele>
        <time>2022-03-12T09:39:16.000Z</time>
      </trkpt>
      <trkpt lat="46.90129" lon="4.61577">
        <ele>467.44995</ele>
        <time>2022-03-12T09:39:20.000Z</time>
      </trkpt>
      <trkpt lat="46.90129" lon="4.61573">
        <ele>467.84995</ele>
        <time>2022-03-12T09:39:23.000Z</time>
      </trkpt>
      <trkpt lat="46.9013" lon="4.6157">
        <ele>468.24994</ele>
        <time>2022-03-12T09:39:25.000Z</time>
      </trkpt>
      <trkpt lat="46.90131" lon="4.61567">
        <ele>468.64996</ele>
        <time>2022-03-12T09:39:29.000Z</time>
      </trkpt>
      <trkpt lat="46.90132" lon="4.61565">
        <ele>469.04996</ele>
        <time>2022-03-12T09:39:31.000Z</time>
      </trkpt>
      <trkpt lat="46.90133" lon="4.61559">
        <ele>469.54996</ele>
        <time>2022-03-12T09:39:37.000Z</time>
      </trkpt>
      <trkpt lat="46.90134" lon="4.61557">
        <ele>470.04996</ele>
        <time>2022-03-12T09:39:39.000Z</time>
      </trkpt>
      <trkpt lat="46.90135" lon="4.61554">
        <ele>470.59995</ele>
        <time>2022-03-12T09:39:42.000Z</time>
      </trkpt>
      <trkpt lat="46.90136" lon="4.61551">
        <ele>471.19995</ele>
        <time>2022-03-12T09:39:44.000Z</time>
      </trkpt>
      <trkpt lat="46.90137" lon="4.61548">
        <ele>471.74994</ele>
        <time>2022-03-12T09:39:47.000Z</time>
      </trkpt>
      <trkpt lat="46.90138" lon="4.61546">
        <ele>472.29996</ele>
        <time>2022-03-12T09:39:49.000Z</time>
      </trkpt>
      <trkpt lat="46.90139" lon="4.61543">
        <ele>472.84995</ele>
        <time>2022-03-12T09:39:51.000Z</time>
      </trkpt>
      <trkpt lat="46.9014" lon="4.61541">
        <ele>473.44995</ele>
        <time>2022-03-12T09:39:54.000Z</time>
      </trkpt>
      <trkpt lat="46.90141" lon="4.61538">
        <ele>473.94995</ele>
        <time>2022-03-12T09:39:57.000Z</time>
      </trkpt>
      <trkpt lat="46.90142" lon="4.61535">
        <ele>474.49994</ele>
        <time>2022-03-12T09:40:00.000Z</time>
      </trkpt>
      <trkpt lat="46.90143" lon="4.61533">
        <ele>475.04996</ele>
        <time>2022-03-12T09:40:03.000Z</time>
      </trkpt>
      <trkpt lat="46.90144" lon="4.6153">
        <ele>475.64996</ele>
        <time>2022-03-12T09:40:05.000Z</time>
      </trkpt>
      <trkpt lat="46.90146" lon="4.61527">
        <ele>476.19995</ele>
        <time>2022-03-12T09:40:08.000Z</time>
      </trkpt>
      <trkpt lat="46.90147" lon="4.61525">
        <ele>476.74994</ele>
        <time>2022-03-12T09:40:11.000Z</time>
      </trkpt>
      <trkpt lat="46.90149" lon="4.61523">
        <ele>477.29996</ele>
        <time>2022-03-12T09:40:15.000Z</time>
      </trkpt>
      <trkpt lat="46.9015" lon="4.61521">
        <ele>477.89996</ele>
        <time>2022-03-12T09:40:18.000Z</time>
      </trkpt>
      <trkpt lat="46.90152" lon="4.61519">
        <ele>478.44995</ele>
        <time>2022-03-12T09:40:20.000Z</time>
      </trkpt>
      <trkpt lat="46.90153" lon="4.61516">
        <ele>478.94995</ele>
        <time>2022-03-12T09:40:22.000Z</time>
      </trkpt>
      <trkpt lat="46.90154" lon="4.61513">
        <ele>479.44995</ele>
        <time>2022-03-12T09:40:24.000Z</time>
      </trkpt>
      <trkpt lat="46.90155" lon="4.61511">
        <ele>479.89996</ele>
        <time>2022-03-12T09:40:28.000Z</time>
      </trkpt>
      <trkpt lat="46.90156" lon="4.61505">
        <ele>480.34995</ele>
        <time>2022-03-12T09:40:36.000Z</time>
      </trkpt>
      <trkpt lat="46.90157" lon="4.61501">
        <ele>480.74994</ele>
        <time>2022-03-12T09:40:41.000Z</time>
      </trkpt>
      <trkpt lat="46.9016" lon="4.61497">
        <ele>481.09995</ele>
        <time>2022-03-12T09:40:47.000Z</time>
      </trkpt>
      <trkpt lat="46.90161" lon="4.61495">
        <ele>481.39996</ele>
        <time>2022-03-12T09:40:49.000Z</time>
      </trkpt>
      <trkpt lat="46.90163" lon="4.61493">
        <ele>481.64996</ele>
        <time>2022-03-12T09:40:51.000Z</time>
      </trkpt>
      <trkpt lat="46.90164" lon="4.6149">
        <ele>481.94995</ele>
        <time>2022-03-12T09:40:54.000Z</time>
      </trkpt>
      <trkpt lat="46.90166" lon="4.61488">
        <ele>482.19995</ele>
        <time>2022-03-12T09:40:57.000Z</time>
      </trkpt>
      <trkpt lat="46.90168" lon="4.61485">
        <ele>482.49994</ele>
        <time>2022-03-12T09:41:10.000Z</time>
      </trkpt>
      <trkpt lat="46.9017" lon="4.61483">
        <ele>482.84995</ele>
        <time>2022-03-12T09:41:12.000Z</time>
      </trkpt>
      <trkpt lat="46.90172" lon="4.61481">
        <ele>483.19995</ele>
        <time>2022-03-12T09:41:17.000Z</time>
      </trkpt>
      <trkpt lat="46.90173" lon="4.61477">
        <ele>483.59995</ele>
        <time>2022-03-12T09:41:21.000Z</time>
      </trkpt>
      <trkpt lat="46.90173" lon="4.61474">
        <ele>484.04996</ele>
        <time>2022-03-12T09:41:26.000Z</time>
      </trkpt>
      <trkpt lat="46.90173" lon="4.61471">
        <ele>484.49994</ele>
        <time>2022-03-12T09:41:49.000Z</time>
      </trkpt>
      <trkpt lat="46.90171" lon="4.61473">
        <ele>484.99994</ele>
        <time>2022-03-12T09:41:56.000Z</time>
      </trkpt>
      <trkpt lat="46.9017" lon="4.61477">
        <ele>485.49994</ele>
        <time>2022-03-12T09:42:03.000Z</time>
      </trkpt>
      <trkpt lat="46.90171" lon="4.61474">
        <ele>486.04996</ele>
        <time>2022-03-12T09:42:25.000Z</time>
      </trkpt>
      <trkpt lat="46.90171" lon="4.61471">
        <ele>486.59995</ele>
        <time>2022-03-12T09:43:37.000Z</time>
      </trkpt>
      <trkpt lat="46.90172" lon="4.61469">
        <ele>487.19995</ele>
        <time>2022-03-12T09:43:40.000Z</time>
      </trkpt>
      <trkpt lat="46.90173" lon="4.61466">
        <ele>487.79996</ele>
        <time>2022-03-12T09:43:42.000Z</time>
      </trkpt>
      <trkpt lat="46.90176" lon="4.61465">
        <ele>488.39996</ele>
        <time>2022-03-12T09:43:45.000Z</time>
      </trkpt>
      <trkpt lat="46.90177" lon="4.61462">
        <ele>488.94995</ele>
        <time>2022-03-12T09:43:48.000Z</time>
      </trkpt>
      <trkpt lat="46.90179" lon="4.6146">
        <ele>489.49994</ele>
        <time>2022-03-12T09:43:52.000Z</time>
      </trkpt>
      <trkpt lat="46.90181" lon="4.61459">
        <ele>490.04996</ele>
        <time>2022-03-12T09:43:54.000Z</time>
      </trkpt>
      <trkpt lat="46.90183" lon="4.61458">
        <ele>490.59995</ele>
        <time>2022-03-12T09:43:56.000Z</time>
      </trkpt>
      <trkpt lat="46.90185" lon="4.61456">
        <ele>491.14996</ele>
        <time>2022-03-12T09:43:59.000Z</time>
      </trkpt>
      <trkpt lat="46.90187" lon="4.61454">
        <ele>491.59995</ele>
        <time>2022-03-12T09:44:02.000Z</time>
      </trkpt>
      <trkpt lat="46.90189" lon="4.61453">
        <ele>492.09995</ele>
        <time>2022-03-12T09:44:28.000Z</time>
      </trkpt>
      <trkpt lat="46.90191" lon="4.61452">
        <ele>492.54996</ele>
        <time>2022-03-12T09:44:31.000Z</time>
      </trkpt>
      <trkpt lat="46.90193" lon="4.6145">
        <ele>492.94995</ele>
        <time>2022-03-12T09:44:34.000Z</time>
      </trkpt>
      <trkpt lat="46.90195" lon="4.61449">
        <ele>493.29996</ele>
        <time>2022-03-12T09:44:36.000Z</time>
      </trkpt>
      <trkpt lat="46.90197" lon="4.61446">
        <ele>493.64996</ele>
        <time>2022-03-12T09:44:40.000Z</time>
      </trkpt>
      <trkpt lat="46.90198" lon="4.61444">
        <ele>493.89996</ele>
        <time>2022-03-12T09:44:43.000Z</time>
      </trkpt>
      <trkpt lat="46.902" lon="4.61442">
        <ele>494.14996</ele>
        <time>2022-03-12T09:44:46.000Z</time>
      </trkpt>
      <trkpt lat="46.90201" lon="4.6144">
        <ele>494.34995</ele>
        <time>2022-03-12T09:44:48.000Z</time>
      </trkpt>
      <trkpt lat="46.90202" lon="4.61437">
        <ele>494.54996</ele>
        <time>2022-03-12T09:44:50.000Z</time>
      </trkpt>
      <trkpt lat="46.90203" lon="4.61434">
        <ele>494.69995</ele>
        <time>2022-03-12T09:44:52.000Z</time>
      </trkpt>
      <trkpt lat="46.90203" lon="4.6143">
        <ele>494.89996</ele>
        <time>2022-03-12T09:44:59.000Z</time>
      </trkpt>
      <trkpt lat="46.90205" lon="4.61427">
        <ele>495.04996</ele>
        <time>2022-03-12T09:45:06.000Z</time>
      </trkpt>
      <trkpt lat="46.90207" lon="4.61424">
        <ele>495.24994</ele>
        <time>2022-03-12T09:45:10.000Z</time>
      </trkpt>
      <trkpt lat="46.90208" lon="4.61421">
        <ele>495.49994</ele>
        <time>2022-03-12T09:45:12.000Z</time>
      </trkpt>
      <trkpt lat="46.90209" lon="4.61418">
        <ele>495.74994</ele>
        <time>2022-03-12T09:45:15.000Z</time>
      </trkpt>
      <trkpt lat="46.90211" lon="4.61415">
        <ele>495.99994</ele>
        <time>2022-03-12T09:45:19.000Z</time>
      </trkpt>
      <trkpt lat="46.90212" lon="4.61413">
        <ele>496.19995</ele>
        <time>2022-03-12T09:45:21.000Z</time>
      </trkpt>
      <trkpt lat="46.90213" lon="4.6141">
        <ele>496.44995</ele>
        <time>2022-03-12T09:45:23.000Z</time>
      </trkpt>
      <trkpt lat="46.90216" lon="4.61409">
        <ele>496.74994</ele>
        <time>2022-03-12T09:45:29.000Z</time>
      </trkpt>
      <trkpt lat="46.90218" lon="4.61404">
        <ele>497.14996</ele>
        <time>2022-03-12T09:45:35.000Z</time>
      </trkpt>
      <trkpt lat="46.9022" lon="4.61403">
        <ele>497.49994</ele>
        <time>2022-03-12T09:45:37.000Z</time>
      </trkpt>
      <trkpt lat="46.90221" lon="4.61399">
        <ele>497.74994</ele>
        <time>2022-03-12T09:45:40.000Z</time>
      </trkpt>
      <trkpt lat="46.90223" lon="4.61397">
        <ele>498.09995</ele>
        <time>2022-03-12T09:45:44.000Z</time>
      </trkpt>
      <trkpt lat="46.90226" lon="4.61395">
        <ele>498.39996</ele>
        <time>2022-03-12T09:45:46.000Z</time>
      </trkpt>
      <trkpt lat="46.90227" lon="4.61391">
        <ele>498.69995</ele>
        <time>2022-03-12T09:45:48.000Z</time>
      </trkpt>
      <trkpt lat="46.90228" lon="4.61389">
        <ele>499.04996</ele>
        <time>2022-03-12T09:45:50.000Z</time>
      </trkpt>
      <trkpt lat="46.9023" lon="4.61386">
        <ele>499.44995</ele>
        <time>2022-03-12T09:45:52.000Z</time>
      </trkpt>
      <trkpt lat="46.90231" lon="4.61384">
        <ele>499.94995</ele>
        <time>2022-03-12T09:45:55.000Z</time>
      </trkpt>
      <trkpt lat="46.90233" lon="4.61382">
        <ele>500.39996</ele>
        <time>2022-03-12T09:45:58.000Z</time>
      </trkpt>
      <trkpt lat="46.90234" lon="4.6138">
        <ele>500.89996</ele>
        <time>2022-03-12T09:46:02.000Z</time>
      </trkpt>
      <trkpt lat="46.90235" lon="4.61377">
        <ele>501.44995</ele>
        <time>2022-03-12T09:46:06.000Z</time>
      </trkpt>
      <trkpt lat="46.90237" lon="4.61375">
        <ele>501.94995</ele>
        <time>2022-03-12T09:46:10.000Z</time>
      </trkpt>
      <trkpt lat="46.9024" lon="4.61374">
        <ele>502.39996</ele>
        <time>2022-03-12T09:46:13.000Z</time>
      </trkpt>
      <trkpt lat="46.90242" lon="4.61373">
        <ele>502.79996</ele>
        <time>2022-03-12T09:46:15.000Z</time>
      </trkpt>
      <trkpt lat="46.90245" lon="4.61373">
        <ele>503.24994</ele>
        <time>2022-03-12T09:46:17.000Z</time>
      </trkpt>
      <trkpt lat="46.90247" lon="4.61372">
        <ele>503.69995</ele>
        <time>2022-03-12T09:46:19.000Z</time>
      </trkpt>
      <trkpt lat="46.9025" lon="4.61371">
        <ele>504.19995</ele>
        <time>2022-03-12T09:46:22.000Z</time>
      </trkpt>
      <trkpt lat="46.90253" lon="4.6137">
        <ele>504.64996</ele>
        <time>2022-03-12T09:46:24.000Z</time>
      </trkpt>
      <trkpt lat="46.90257" lon="4.6137">
        <ele>505.09995</ele>
        <time>2022-03-12T09:46:27.000Z</time>
      </trkpt>
      <trkpt lat="46.90259" lon="4.6137">
        <ele>505.49994</ele>
        <time>2022-03-12T09:46:29.000Z</time>
      </trkpt>
      <trkpt lat="46.90261" lon="4.6137">
        <ele>505.89996</ele>
        <time>2022-03-12T09:46:31.000Z</time>
      </trkpt>
      <trkpt lat="46.90264" lon="4.61372">
        <ele>506.29996</ele>
        <time>2022-03-12T09:46:34.000Z</time>
      </trkpt>
      <trkpt lat="46.90267" lon="4.61373">
        <ele>506.69995</ele>
        <time>2022-03-12T09:46:37.000Z</time>
      </trkpt>
      <trkpt lat="46.9027" lon="4.61374">
        <ele>507.14996</ele>
        <time>2022-03-12T09:46:40.000Z</time>
      </trkpt>
      <trkpt lat="46.90273" lon="4.61376">
        <ele>507.54996</ele>
        <time>2022-03-12T09:46:43.000Z</time>
      </trkpt>
      <trkpt lat="46.90274" lon="4.61377">
        <ele>507.89996</ele>
        <time>2022-03-12T09:46:45.000Z</time>
      </trkpt>
      <trkpt lat="46.90276" lon="4.61378">
        <ele>508.19995</ele>
        <time>2022-03-12T09:46:47.000Z</time>
      </trkpt>
      <trkpt lat="46.9028" lon="4.6138">
        <ele>508.44995</ele>
        <time>2022-03-12T09:46:50.000Z</time>
      </trkpt>
      <trkpt lat="46.90282" lon="4.6138">
        <ele>508.69995</ele>
        <time>2022-03-12T09:46:52.000Z</time>
      </trkpt>
      <trkpt lat="46.90284" lon="4.61379">
        <ele>508.84995</ele>
        <time>2022-03-12T09:46:54.000Z</time>
      </trkpt>
      <trkpt lat="46.90286" lon="4.61379">
        <ele>508.94995</ele>
        <time>2022-03-12T09:46:56.000Z</time>
      </trkpt>
      <trkpt lat="46.90289" lon="4.6138">
        <ele>509.04996</ele>
        <time>2022-03-12T09:46:59.000Z</time>
      </trkpt>
      <trkpt lat="46.90291" lon="4.6138">
        <ele>509.14996</ele>
        <time>2022-03-12T09:47:01.000Z</time>
      </trkpt>
      <trkpt lat="46.90293" lon="4.6138">
        <ele>509.29996</ele>
        <time>2022-03-12T09:47:03.000Z</time>
      </trkpt>
      <trkpt lat="46.90295" lon="4.6138">
        <ele>509.39996</ele>
        <time>2022-03-12T09:47:05.000Z</time>
      </trkpt>
      <trkpt lat="46.90297" lon="4.6138">
        <ele>509.54996</ele>
        <time>2022-03-12T09:47:07.000Z</time>
      </trkpt>
      <trkpt lat="46.90299" lon="4.61382">
        <ele>509.74994</ele>
        <time>2022-03-12T09:47:09.000Z</time>
      </trkpt>
      <trkpt lat="46.903" lon="4.61384">
        <ele>509.99994</ele>
        <time>2022-03-12T09:47:14.000Z</time>
      </trkpt>
      <trkpt lat="46.90304" lon="4.61382">
        <ele>510.29996</ele>
        <time>2022-03-12T09:47:18.000Z</time>
      </trkpt>
      <trkpt lat="46.90307" lon="4.61382">
        <ele>510.59995</ele>
        <time>2022-03-12T09:47:21.000Z</time>
      </trkpt>
      <trkpt lat="46.90309" lon="4.61381">
        <ele>510.89996</ele>
        <time>2022-03-12T09:47:23.000Z</time>
      </trkpt>
      <trkpt lat="46.90312" lon="4.61382">
        <ele>511.24994</ele>
        <time>2022-03-12T09:47:25.000Z</time>
      </trkpt>
      <trkpt lat="46.90314" lon="4.61381">
        <ele>511.49994</ele>
        <time>2022-03-12T09:47:27.000Z</time>
      </trkpt>
      <trkpt lat="46.90316" lon="4.61382">
        <ele>511.74994</ele>
        <time>2022-03-12T09:47:29.000Z</time>
      </trkpt>
      <trkpt lat="46.90319" lon="4.61382">
        <ele>511.99994</ele>
        <time>2022-03-12T09:47:31.000Z</time>
      </trkpt>
      <trkpt lat="46.90321" lon="4.61382">
        <ele>512.24994</ele>
        <time>2022-03-12T09:47:33.000Z</time>
      </trkpt>
      <trkpt lat="46.90323" lon="4.61382">
        <ele>512.49994</ele>
        <time>2022-03-12T09:47:37.000Z</time>
      </trkpt>
      <trkpt lat="46.90325" lon="4.61381">
        <ele>512.74994</ele>
        <time>2022-03-12T09:47:39.000Z</time>
      </trkpt>
      <trkpt lat="46.90328" lon="4.61381">
        <ele>512.99994</ele>
        <time>2022-03-12T09:47:41.000Z</time>
      </trkpt>
      <trkpt lat="46.9033" lon="4.6138">
        <ele>513.29993</ele>
        <time>2022-03-12T09:47:44.000Z</time>
      </trkpt>
      <trkpt lat="46.90333" lon="4.61378">
        <ele>513.59998</ele>
        <time>2022-03-12T09:47:48.000Z</time>
      </trkpt>
      <trkpt lat="46.90335" lon="4.61377">
        <ele>513.94995</ele>
        <time>2022-03-12T09:47:50.000Z</time>
      </trkpt>
      <trkpt lat="46.90337" lon="4.61376">
        <ele>514.29993</ele>
        <time>2022-03-12T09:47:52.000Z</time>
      </trkpt>
      <trkpt lat="46.90339" lon="4.61374">
        <ele>514.59998</ele>
        <time>2022-03-12T09:47:54.000Z</time>
      </trkpt>
      <trkpt lat="46.90341" lon="4.61371">
        <ele>514.89996</ele>
        <time>2022-03-12T09:47:56.000Z</time>
      </trkpt>
      <trkpt lat="46.90342" lon="4.61369">
        <ele>515.14996</ele>
        <time>2022-03-12T09:47:58.000Z</time>
      </trkpt>
      <trkpt lat="46.90344" lon="4.61368">
        <ele>515.34998</ele>
        <time>2022-03-12T09:48:00.000Z</time>
      </trkpt>
      <trkpt lat="46.90346" lon="4.61366">
        <ele>515.54993</ele>
        <time>2022-03-12T09:48:02.000Z</time>
      </trkpt>
      <trkpt lat="46.90348" lon="4.61364">
        <ele>515.69995</ele>
        <time>2022-03-12T09:48:05.000Z</time>
      </trkpt>
      <trkpt lat="46.9035" lon="4.61362">
        <ele>515.89996</ele>
        <time>2022-03-12T09:48:08.000Z</time>
      </trkpt>
      <trkpt lat="46.90352" lon="4.61361">
        <ele>516.04993</ele>
        <time>2022-03-12T09:48:10.000Z</time>
      </trkpt>
      <trkpt lat="46.90354" lon="4.61359">
        <ele>516.19995</ele>
        <time>2022-03-12T09:48:12.000Z</time>
      </trkpt>
      <trkpt lat="46.90356" lon="4.61357">
        <ele>516.34998</ele>
        <time>2022-03-12T09:48:14.000Z</time>
      </trkpt>
      <trkpt lat="46.90358" lon="4.61352">
        <ele>516.49994</ele>
        <time>2022-03-12T09:48:19.000Z</time>
      </trkpt>
      <trkpt lat="46.90359" lon="4.6135">
        <ele>516.64996</ele>
        <time>2022-03-12T09:48:21.000Z</time>
      </trkpt>
      <trkpt lat="46.90361" lon="4.61347">
        <ele>516.84998</ele>
        <time>2022-03-12T09:48:24.000Z</time>
      </trkpt>
      <trkpt lat="46.90363" lon="4.61344">
        <ele>516.99994</ele>
        <time>2022-03-12T09:48:27.000Z</time>
      </trkpt>
      <trkpt lat="46.90365" lon="4.61343">
        <ele>517.09998</ele>
        <time>2022-03-12T09:48:30.000Z</time>
      </trkpt>
      <trkpt lat="46.90368" lon="4.61341">
        <ele>517.19995</ele>
        <time>2022-03-12T09:48:32.000Z</time>
      </trkpt>
      <trkpt lat="46.9037" lon="4.61339">
        <ele>517.29993</ele>
        <time>2022-03-12T09:48:34.000Z</time>
      </trkpt>
      <trkpt lat="46.90372" lon="4.61336">
        <ele>517.34998</ele>
        <time>2022-03-12T09:48:36.000Z</time>
      </trkpt>
      <trkpt lat="46.90374" lon="4.61333">
        <ele>517.39996</ele>
        <time>2022-03-12T09:48:38.000Z</time>
      </trkpt>
      <trkpt lat="46.90376" lon="4.61331">
        <ele>517.39996</ele>
        <time>2022-03-12T09:48:40.000Z</time>
      </trkpt>
      <trkpt lat="46.90377" lon="4.61327">
        <ele>517.39996</ele>
        <time>2022-03-12T09:48:42.000Z</time>
      </trkpt>
      <trkpt lat="46.90378" lon="4.61325">
        <ele>517.44995</ele>
        <time>2022-03-12T09:48:44.000Z</time>
      </trkpt>
      <trkpt lat="46.90381" lon="4.61321">
        <ele>517.44995</ele>
        <time>2022-03-12T09:48:47.000Z</time>
      </trkpt>
      <trkpt lat="46.90383" lon="4.61318">
        <ele>517.44995</ele>
        <time>2022-03-12T09:48:49.000Z</time>
      </trkpt>
      <trkpt lat="46.90384" lon="4.61316">
        <ele>517.39996</ele>
        <time>2022-03-12T09:48:51.000Z</time>
      </trkpt>
      <trkpt lat="46.90386" lon="4.61313">
        <ele>517.39996</ele>
        <time>2022-03-12T09:48:53.000Z</time>
      </trkpt>
      <trkpt lat="46.90388" lon="4.6131">
        <ele>517.29993</ele>
        <time>2022-03-12T09:48:55.000Z</time>
      </trkpt>
      <trkpt lat="46.90389" lon="4.61308">
        <ele>517.24994</ele>
        <time>2022-03-12T09:48:57.000Z</time>
      </trkpt>
      <trkpt lat="46.90391" lon="4.61306">
        <ele>517.19995</ele>
        <time>2022-03-12T09:49:00.000Z</time>
      </trkpt>
      <trkpt lat="46.90394" lon="4.61302">
        <ele>517.19995</ele>
        <time>2022-03-12T09:49:03.000Z</time>
      </trkpt>
      <trkpt lat="46.90396" lon="4.61301">
        <ele>517.19995</ele>
        <time>2022-03-12T09:49:07.000Z</time>
      </trkpt>
      <trkpt lat="46.90398" lon="4.61298">
        <ele>517.19995</ele>
        <time>2022-03-12T09:49:09.000Z</time>
      </trkpt>
      <trkpt lat="46.904" lon="4.61296">
        <ele>517.14996</ele>
        <time>2022-03-12T09:49:11.000Z</time>
      </trkpt>
      <trkpt lat="46.90402" lon="4.61292">
        <ele>517.14996</ele>
        <time>2022-03-12T09:49:16.000Z</time>
      </trkpt>
      <trkpt lat="46.90402" lon="4.61288">
        <ele>517.19995</ele>
        <time>2022-03-12T09:49:19.000Z</time>
      </trkpt>
      <trkpt lat="46.90403" lon="4.61286">
        <ele>517.19995</ele>
        <time>2022-03-12T09:49:21.000Z</time>
      </trkpt>
      <trkpt lat="46.90404" lon="4.61281">
        <ele>517.09998</ele>
        <time>2022-03-12T09:49:23.000Z</time>
      </trkpt>
      <trkpt lat="46.90405" lon="4.61277">
        <ele>516.94995</ele>
        <time>2022-03-12T09:49:25.000Z</time>
      </trkpt>
      <trkpt lat="46.90406" lon="4.61274">
        <ele>516.79993</ele>
        <time>2022-03-12T09:49:27.000Z</time>
      </trkpt>
      <trkpt lat="46.90408" lon="4.61272">
        <ele>516.64996</ele>
        <time>2022-03-12T09:49:30.000Z</time>
      </trkpt>
      <trkpt lat="46.9041" lon="4.61268">
        <ele>516.54993</ele>
        <time>2022-03-12T09:49:32.000Z</time>
      </trkpt>
      <trkpt lat="46.90411" lon="4.61266">
        <ele>516.39996</ele>
        <time>2022-03-12T09:49:34.000Z</time>
      </trkpt>
      <trkpt lat="46.90414" lon="4.61265">
        <ele>516.39996</ele>
        <time>2022-03-12T09:49:36.000Z</time>
      </trkpt>
      <trkpt lat="46.90415" lon="4.61262">
        <ele>516.44995</ele>
        <time>2022-03-12T09:49:40.000Z</time>
      </trkpt>
      <trkpt lat="46.90417" lon="4.61258">
        <ele>516.49994</ele>
        <time>2022-03-12T09:49:44.000Z</time>
      </trkpt>
      <trkpt lat="46.90419" lon="4.61256">
        <ele>516.49994</ele>
        <time>2022-03-12T09:49:47.000Z</time>
      </trkpt>
      <trkpt lat="46.90421" lon="4.61253">
        <ele>516.49994</ele>
        <time>2022-03-12T09:49:49.000Z</time>
      </trkpt>
      <trkpt lat="46.90423" lon="4.6125">
        <ele>516.54993</ele>
        <time>2022-03-12T09:49:51.000Z</time>
      </trkpt>
      <trkpt lat="46.90425" lon="4.61247">
        <ele>516.59998</ele>
        <time>2022-03-12T09:49:53.000Z</time>
      </trkpt>
      <trkpt lat="46.90427" lon="4.61245">
        <ele>516.64996</ele>
        <time>2022-03-12T09:49:55.000Z</time>
      </trkpt>
      <trkpt lat="46.90429" lon="4.61242">
        <ele>516.69995</ele>
        <time>2022-03-12T09:49:57.000Z</time>
      </trkpt>
      <trkpt lat="46.90431" lon="4.6124">
        <ele>516.74994</ele>
        <time>2022-03-12T09:49:59.000Z</time>
      </trkpt>
      <trkpt lat="46.90432" lon="4.61238">
        <ele>516.79993</ele>
        <time>2022-03-12T09:50:01.000Z</time>
      </trkpt>
      <trkpt lat="46.90434" lon="4.61235">
        <ele>516.84998</ele>
        <time>2022-03-12T09:50:03.000Z</time>
      </trkpt>
      <trkpt lat="46.90435" lon="4.61232">
        <ele>516.84998</ele>
        <time>2022-03-12T09:50:05.000Z</time>
      </trkpt>
      <trkpt lat="46.90437" lon="4.6123">
        <ele>516.94995</ele>
        <time>2022-03-12T09:50:07.000Z</time>
      </trkpt>
      <trkpt lat="46.90439" lon="4.61227">
        <ele>517.09998</ele>
        <time>2022-03-12T09:50:09.000Z</time>
      </trkpt>
      <trkpt lat="46.9044" lon="4.61224">
        <ele>517.29993</ele>
        <time>2022-03-12T09:50:11.000Z</time>
      </trkpt>
      <trkpt lat="46.90441" lon="4.6122">
        <ele>517.44995</ele>
        <time>2022-03-12T09:50:13.000Z</time>
      </trkpt>
      <trkpt lat="46.90443" lon="4.61218">
        <ele>517.59998</ele>
        <time>2022-03-12T09:50:15.000Z</time>
      </trkpt>
      <trkpt lat="46.90444" lon="4.61214">
        <ele>517.69995</ele>
        <time>2022-03-12T09:50:17.000Z</time>
      </trkpt>
      <trkpt lat="46.90446" lon="4.61211">
        <ele>517.79993</ele>
        <time>2022-03-12T09:50:19.000Z</time>
      </trkpt>
      <trkpt lat="46.90446" lon="4.61208">
        <ele>517.79993</ele>
        <time>2022-03-12T09:50:21.000Z</time>
      </trkpt>
      <trkpt lat="46.90447" lon="4.61204">
        <ele>517.74994</ele>
        <time>2022-03-12T09:50:23.000Z</time>
      </trkpt>
      <trkpt lat="46.90447" lon="4.612">
        <ele>517.69995</ele>
        <time>2022-03-12T09:50:25.000Z</time>
      </trkpt>
      <trkpt lat="46.90447" lon="4.61196">
        <ele>517.64996</ele>
        <time>2022-03-12T09:50:27.000Z</time>
      </trkpt>
      <trkpt lat="46.90447" lon="4.61193">
        <ele>517.69995</ele>
        <time>2022-03-12T09:50:29.000Z</time>
      </trkpt>
      <trkpt lat="46.90448" lon="4.6119">
        <ele>517.69995</ele>
        <time>2022-03-12T09:50:31.000Z</time>
      </trkpt>
      <trkpt lat="46.90448" lon="4.61187">
        <ele>517.69995</ele>
        <time>2022-03-12T09:50:33.000Z</time>
      </trkpt>
      <trkpt lat="46.90448" lon="4.61184">
        <ele>517.64996</ele>
        <time>2022-03-12T09:50:35.000Z</time>
      </trkpt>
      <trkpt lat="46.90448" lon="4.6118">
        <ele>517.64996</ele>
        <time>2022-03-12T09:50:38.000Z</time>
      </trkpt>
      <trkpt lat="46.90446" lon="4.61178">
        <ele>517.64996</ele>
        <time>2022-03-12T09:50:41.000Z</time>
      </trkpt>
      <trkpt lat="46.90445" lon="4.61176">
        <ele>517.64996</ele>
        <time>2022-03-12T09:50:44.000Z</time>
      </trkpt>
      <trkpt lat="46.90443" lon="4.61173">
        <ele>517.64996</ele>
        <time>2022-03-12T09:50:47.000Z</time>
      </trkpt>
      <trkpt lat="46.90442" lon="4.61171">
        <ele>517.64996</ele>
        <time>2022-03-12T09:50:50.000Z</time>
      </trkpt>
      <trkpt lat="46.9044" lon="4.61167">
        <ele>517.59998</ele>
        <time>2022-03-12T09:50:54.000Z</time>
      </trkpt>
      <trkpt lat="46.90438" lon="4.61166">
        <ele>517.49994</ele>
        <time>2022-03-12T09:50:57.000Z</time>
      </trkpt>
      <trkpt lat="46.90436" lon="4.61164">
        <ele>517.39996</ele>
        <time>2022-03-12T09:51:00.000Z</time>
      </trkpt>
      <trkpt lat="46.90433" lon="4.61164">
        <ele>517.39996</ele>
        <time>2022-03-12T09:51:03.000Z</time>
      </trkpt>
      <trkpt lat="46.90431" lon="4.61165">
        <ele>517.49994</ele>
        <time>2022-03-12T09:51:06.000Z</time>
      </trkpt>
      <trkpt lat="46.90429" lon="4.61164">
        <ele>517.59998</ele>
        <time>2022-03-12T09:51:09.000Z</time>
      </trkpt>
      <trkpt lat="46.90427" lon="4.61164">
        <ele>517.69995</ele>
        <time>2022-03-12T09:51:12.000Z</time>
      </trkpt>
      <trkpt lat="46.90425" lon="4.61163">
        <ele>517.84998</ele>
        <time>2022-03-12T09:51:14.000Z</time>
      </trkpt>
      <trkpt lat="46.90423" lon="4.61163">
        <ele>518.04993</ele>
        <time>2022-03-12T09:51:17.000Z</time>
      </trkpt>
      <trkpt lat="46.90421" lon="4.61162">
        <ele>518.29993</ele>
        <time>2022-03-12T09:51:20.000Z</time>
      </trkpt>
      <trkpt lat="46.90419" lon="4.61163">
        <ele>518.54993</ele>
        <time>2022-03-12T09:51:23.000Z</time>
      </trkpt>
      <trkpt lat="46.90417" lon="4.61165">
        <ele>518.74994</ele>
        <time>2022-03-12T09:51:26.000Z</time>
      </trkpt>
      <trkpt lat="46.90414" lon="4.61165">
        <ele>518.99994</ele>
        <time>2022-03-12T09:51:29.000Z</time>
      </trkpt>
      <trkpt lat="46.90412" lon="4.61166">
        <ele>519.29993</ele>
        <time>2022-03-12T09:51:31.000Z</time>
      </trkpt>
      <trkpt lat="46.9041" lon="4.61167">
        <ele>519.64996</ele>
        <time>2022-03-12T09:51:33.000Z</time>
      </trkpt>
      <trkpt lat="46.90408" lon="4.6117">
        <ele>519.94995</ele>
        <time>2022-03-12T09:51:36.000Z</time>
      </trkpt>
      <trkpt lat="46.90406" lon="4.6117">
        <ele>520.29993</ele>
        <time>2022-03-12T09:51:38.000Z</time>
      </trkpt>
      <trkpt lat="46.90403" lon="4.6117">
        <ele>520.64996</ele>
        <time>2022-03-12T09:51:41.000Z</time>
      </trkpt>
      <trkpt lat="46.90401" lon="4.61173">
        <ele>520.99994</ele>
        <time>2022-03-12T09:51:44.000Z</time>
      </trkpt>
      <trkpt lat="46.90399" lon="4.61174">
        <ele>521.34998</ele>
        <time>2022-03-12T09:51:46.000Z</time>
      </trkpt>
      <trkpt lat="46.90396" lon="4.61176">
        <ele>521.69995</ele>
        <time>2022-03-12T09:51:49.000Z</time>
      </trkpt>
      <trkpt lat="46.90395" lon="4.61179">
        <ele>522.09998</ele>
        <time>2022-03-12T09:51:51.000Z</time>
      </trkpt>
      <trkpt lat="46.90393" lon="4.61178">
        <ele>522.49994</ele>
        <time>2022-03-12T09:51:53.000Z</time>
      </trkpt>
      <trkpt lat="46.9039" lon="4.61178">
        <ele>522.84998</ele>
        <time>2022-03-12T09:51:55.000Z</time>
      </trkpt>
      <trkpt lat="46.90388" lon="4.61178">
        <ele>523.14996</ele>
        <time>2022-03-12T09:51:57.000Z</time>
      </trkpt>
      <trkpt lat="46.90385" lon="4.61178">
        <ele>523.49994</ele>
        <time>2022-03-12T09:52:00.000Z</time>
      </trkpt>
      <trkpt lat="46.90383" lon="4.61179">
        <ele>523.89996</ele>
        <time>2022-03-12T09:52:02.000Z</time>
      </trkpt>
      <trkpt lat="46.90381" lon="4.61181">
        <ele>524.19995</ele>
        <time>2022-03-12T09:52:04.000Z</time>
      </trkpt>
      <trkpt lat="46.90379" lon="4.61182">
        <ele>524.44995</ele>
        <time>2022-03-12T09:52:07.000Z</time>
      </trkpt>
      <trkpt lat="46.90377" lon="4.61183">
        <ele>524.64996</ele>
        <time>2022-03-12T09:52:09.000Z</time>
      </trkpt>
      <trkpt lat="46.90374" lon="4.61183">
        <ele>524.79993</ele>
        <time>2022-03-12T09:52:11.000Z</time>
      </trkpt>
      <trkpt lat="46.90372" lon="4.61183">
        <ele>524.99994</ele>
        <time>2022-03-12T09:52:13.000Z</time>
      </trkpt>
      <trkpt lat="46.90369" lon="4.61182">
        <ele>525.14996</ele>
        <time>2022-03-12T09:52:15.000Z</time>
      </trkpt>
      <trkpt lat="46.90366" lon="4.61181">
        <ele>525.29993</ele>
        <time>2022-03-12T09:52:18.000Z</time>
      </trkpt>
      <trkpt lat="46.90365" lon="4.6118">
        <ele>525.44995</ele>
        <time>2022-03-12T09:52:23.000Z</time>
      </trkpt>
      <trkpt lat="46.90363" lon="4.6118">
        <ele>525.59998</ele>
        <time>2022-03-12T09:52:25.000Z</time>
      </trkpt>
      <trkpt lat="46.9036" lon="4.61179">
        <ele>525.69995</ele>
        <time>2022-03-12T09:52:27.000Z</time>
      </trkpt>
      <trkpt lat="46.90358" lon="4.61179">
        <ele>525.79993</ele>
        <time>2022-03-12T09:52:29.000Z</time>
      </trkpt>
      <trkpt lat="46.90356" lon="4.61179">
        <ele>525.94995</ele>
        <time>2022-03-12T09:52:31.000Z</time>
      </trkpt>
      <trkpt lat="46.90354" lon="4.6118">
        <ele>526.09998</ele>
        <time>2022-03-12T09:52:33.000Z</time>
      </trkpt>
      <trkpt lat="46.90352" lon="4.61182">
        <ele>526.24994</ele>
        <time>2022-03-12T09:52:36.000Z</time>
      </trkpt>
      <trkpt lat="46.9035" lon="4.61183">
        <ele>526.44995</ele>
        <time>2022-03-12T09:52:38.000Z</time>
      </trkpt>
      <trkpt lat="46.90348" lon="4.61182">
        <ele>526.64996</ele>
        <time>2022-03-12T09:52:40.000Z</time>
      </trkpt>
      <trkpt lat="46.90346" lon="4.61184">
        <ele>526.84998</ele>
        <time>2022-03-12T09:52:43.000Z</time>
      </trkpt>
      <trkpt lat="46.90344" lon="4.61183">
        <ele>527.09998</ele>
        <time>2022-03-12T09:52:45.000Z</time>
      </trkpt>
      <trkpt lat="46.90341" lon="4.61183">
        <ele>527.29993</ele>
        <time>2022-03-12T09:52:48.000Z</time>
      </trkpt>
      <trkpt lat="46.90339" lon="4.61184">
        <ele>527.54993</ele>
        <time>2022-03-12T09:52:51.000Z</time>
      </trkpt>
      <trkpt lat="46.90336" lon="4.61185">
        <ele>527.89996</ele>
        <time>2022-03-12T09:52:54.000Z</time>
      </trkpt>
      <trkpt lat="46.90334" lon="4.61185">
        <ele>528.24994</ele>
        <time>2022-03-12T09:52:56.000Z</time>
      </trkpt>
      <trkpt lat="46.90332" lon="4.61185">
        <ele>528.64996</ele>
        <time>2022-03-12T09:52:58.000Z</time>
      </trkpt>
      <trkpt lat="46.90328" lon="4.61186">
        <ele>529.09998</ele>
        <time>2022-03-12T09:53:01.000Z</time>
      </trkpt>
      <trkpt lat="46.90326" lon="4.61187">
        <ele>529.54993</ele>
        <time>2022-03-12T09:53:03.000Z</time>
      </trkpt>
      <trkpt lat="46.90324" lon="4.61187">
        <ele>529.94995</ele>
        <time>2022-03-12T09:53:05.000Z</time>
      </trkpt>
      <trkpt lat="46.9032" lon="4.61188">
        <ele>530.34998</ele>
        <time>2022-03-12T09:53:08.000Z</time>
      </trkpt>
      <trkpt lat="46.90318" lon="4.61189">
        <ele>530.79993</ele>
        <time>2022-03-12T09:53:10.000Z</time>
      </trkpt>
      <trkpt lat="46.90316" lon="4.61189">
        <ele>531.24994</ele>
        <time>2022-03-12T09:53:12.000Z</time>
      </trkpt>
      <trkpt lat="46.90314" lon="4.61189">
        <ele>531.69995</ele>
        <time>2022-03-12T09:53:14.000Z</time>
      </trkpt>
      <trkpt lat="46.90312" lon="4.61189">
        <ele>532.14996</ele>
        <time>2022-03-12T09:53:16.000Z</time>
      </trkpt>
      <trkpt lat="46.9031" lon="4.6119">
        <ele>532.54993</ele>
        <time>2022-03-12T09:53:18.000Z</time>
      </trkpt>
      <trkpt lat="46.90308" lon="4.6119">
        <ele>532.99994</ele>
        <time>2022-03-12T09:53:20.000Z</time>
      </trkpt>
      <trkpt lat="46.90307" lon="4.61191">
        <ele>533.44995</ele>
        <time>2022-03-12T09:53:22.000Z</time>
      </trkpt>
      <trkpt lat="46.90304" lon="4.61191">
        <ele>533.84998</ele>
        <time>2022-03-12T09:53:24.000Z</time>
      </trkpt>
      <trkpt lat="46.90302" lon="4.6119">
        <ele>534.24994</ele>
        <time>2022-03-12T09:53:28.000Z</time>
      </trkpt>
      <trkpt lat="46.903" lon="4.61191">
        <ele>534.64996</ele>
        <time>2022-03-12T09:53:30.000Z</time>
      </trkpt>
      <trkpt lat="46.90298" lon="4.61191">
        <ele>534.99994</ele>
        <time>2022-03-12T09:53:32.000Z</time>
      </trkpt>
      <trkpt lat="46.90296" lon="4.61191">
        <ele>535.34998</ele>
        <time>2022-03-12T09:53:34.000Z</time>
      </trkpt>
      <trkpt lat="46.90294" lon="4.61191">
        <ele>535.64996</ele>
        <time>2022-03-12T09:53:36.000Z</time>
      </trkpt>
      <trkpt lat="46.90292" lon="4.6119">
        <ele>535.89996</ele>
        <time>2022-03-12T09:53:39.000Z</time>
      </trkpt>
      <trkpt lat="46.90289" lon="4.61189">
        <ele>536.14996</ele>
        <time>2022-03-12T09:53:42.000Z</time>
      </trkpt>
      <trkpt lat="46.90287" lon="4.61188">
        <ele>536.29993</ele>
        <time>2022-03-12T09:53:44.000Z</time>
      </trkpt>
      <trkpt lat="46.90285" lon="4.61186">
        <ele>536.44995</ele>
        <time>2022-03-12T09:53:46.000Z</time>
      </trkpt>
      <trkpt lat="46.90284" lon="4.61183">
        <ele>536.49994</ele>
        <time>2022-03-12T09:53:48.000Z</time>
      </trkpt>
      <trkpt lat="46.90283" lon="4.6118">
        <ele>536.64996</ele>
        <time>2022-03-12T09:53:50.000Z</time>
      </trkpt>
      <trkpt lat="46.90281" lon="4.61178">
        <ele>536.74994</ele>
        <time>2022-03-12T09:53:53.000Z</time>
      </trkpt>
      <trkpt lat="46.9028" lon="4.61175">
        <ele>536.84998</ele>
        <time>2022-03-12T09:53:55.000Z</time>
      </trkpt>
      <trkpt lat="46.9028" lon="4.61173">
        <ele>536.99994</ele>
        <time>2022-03-12T09:53:57.000Z</time>
      </trkpt>
      <trkpt lat="46.90279" lon="4.6117">
        <ele>537.14996</ele>
        <time>2022-03-12T09:53:59.000Z</time>
      </trkpt>
      <trkpt lat="46.90278" lon="4.61166">
        <ele>537.29993</ele>
        <time>2022-03-12T09:54:02.000Z</time>
      </trkpt>
      <trkpt lat="46.90278" lon="4.61163">
        <ele>537.44995</ele>
        <time>2022-03-12T09:54:04.000Z</time>
      </trkpt>
      <trkpt lat="46.90277" lon="4.61161">
        <ele>537.59998</ele>
        <time>2022-03-12T09:54:06.000Z</time>
      </trkpt>
      <trkpt lat="46.90277" lon="4.61158">
        <ele>537.69995</ele>
        <time>2022-03-12T09:54:08.000Z</time>
      </trkpt>
      <trkpt lat="46.90277" lon="4.61155">
        <ele>537.79993</ele>
        <time>2022-03-12T09:54:11.000Z</time>
      </trkpt>
      <trkpt lat="46.90278" lon="4.61152">
        <ele>537.94995</ele>
        <time>2022-03-12T09:54:13.000Z</time>
      </trkpt>
      <trkpt lat="46.90279" lon="4.61148">
        <ele>538.14996</ele>
        <time>2022-03-12T09:54:16.000Z</time>
      </trkpt>
      <trkpt lat="46.9028" lon="4.61144">
        <ele>538.34998</ele>
        <time>2022-03-12T09:54:19.000Z</time>
      </trkpt>
      <trkpt lat="46.90281" lon="4.61141">
        <ele>538.49994</ele>
        <time>2022-03-12T09:54:22.000Z</time>
      </trkpt>
      <trkpt lat="46.90281" lon="4.61138">
        <ele>538.64996</ele>
        <time>2022-03-12T09:54:24.000Z</time>
      </trkpt>
      <trkpt lat="46.90282" lon="4.61134">
        <ele>538.74994</ele>
        <time>2022-03-12T09:54:26.000Z</time>
      </trkpt>
      <trkpt lat="46.90282" lon="4.61131">
        <ele>538.84998</ele>
        <time>2022-03-12T09:54:28.000Z</time>
      </trkpt>
      <trkpt lat="46.90282" lon="4.61128">
        <ele>538.99994</ele>
        <time>2022-03-12T09:54:30.000Z</time>
      </trkpt>
      <trkpt lat="46.90281" lon="4.61125">
        <ele>539.14996</ele>
        <time>2022-03-12T09:54:32.000Z</time>
      </trkpt>
      <trkpt lat="46.90281" lon="4.61122">
        <ele>539.34998</ele>
        <time>2022-03-12T09:54:34.000Z</time>
      </trkpt>
      <trkpt lat="46.90281" lon="4.61119">
        <ele>539.49994</ele>
        <time>2022-03-12T09:54:36.000Z</time>
      </trkpt>
      <trkpt lat="46.90281" lon="4.61115">
        <ele>539.64996</ele>
        <time>2022-03-12T09:54:38.000Z</time>
      </trkpt>
      <trkpt lat="46.9028" lon="4.61112">
        <ele>539.69995</ele>
        <time>2022-03-12T09:54:40.000Z</time>
      </trkpt>
      <trkpt lat="46.9028" lon="4.61109">
        <ele>539.69995</ele>
        <time>2022-03-12T09:54:42.000Z</time>
      </trkpt>
      <trkpt lat="46.9028" lon="4.61106">
        <ele>539.69995</ele>
        <time>2022-03-12T09:54:44.000Z</time>
      </trkpt>
      <trkpt lat="46.90279" lon="4.61103">
        <ele>539.69995</ele>
        <time>2022-03-12T09:54:47.000Z</time>
      </trkpt>
      <trkpt lat="46.90278" lon="4.611">
        <ele>539.64996</ele>
        <time>2022-03-12T09:54:50.000Z</time>
      </trkpt>
      <trkpt lat="46.90277" lon="4.61096">
        <ele>539.49994</ele>
        <time>2022-03-12T09:54:53.000Z</time>
      </trkpt>
      <trkpt lat="46.90277" lon="4.61093">
        <ele>539.39996</ele>
        <time>2022-03-12T09:54:55.000Z</time>
      </trkpt>
      <trkpt lat="46.90277" lon="4.6109">
        <ele>539.34998</ele>
        <time>2022-03-12T09:54:57.000Z</time>
      </trkpt>
      <trkpt lat="46.90276" lon="4.61087">
        <ele>539.29993</ele>
        <time>2022-03-12T09:55:00.000Z</time>
      </trkpt>
      <trkpt lat="46.90275" lon="4.61085">
        <ele>539.19995</ele>
        <time>2022-03-12T09:55:02.000Z</time>
      </trkpt>
      <trkpt lat="46.90274" lon="4.61081">
        <ele>539.04993</ele>
        <time>2022-03-12T09:55:05.000Z</time>
      </trkpt>
      <trkpt lat="46.90272" lon="4.6108">
        <ele>538.89996</ele>
        <time>2022-03-12T09:55:22.000Z</time>
      </trkpt>
      <trkpt lat="46.90271" lon="4.61078">
        <ele>538.64996</ele>
        <time>2022-03-12T09:55:24.000Z</time>
      </trkpt>
      <trkpt lat="46.9027" lon="4.61074">
        <ele>538.44995</ele>
        <time>2022-03-12T09:55:27.000Z</time>
      </trkpt>
      <trkpt lat="46.90268" lon="4.61071">
        <ele>538.24994</ele>
        <time>2022-03-12T09:55:30.000Z</time>
      </trkpt>
      <trkpt lat="46.90268" lon="4.61068">
        <ele>537.99994</ele>
        <time>2022-03-12T09:55:32.000Z</time>
      </trkpt>
      <trkpt lat="46.90267" lon="4.61065">
        <ele>537.74994</ele>
        <time>2022-03-12T09:55:34.000Z</time>
      </trkpt>
      <trkpt lat="46.90266" lon="4.61061">
        <ele>537.49994</ele>
        <time>2022-03-12T09:55:36.000Z</time>
      </trkpt>
      <trkpt lat="46.90266" lon="4.61058">
        <ele>537.24994</ele>
        <time>2022-03-12T09:55:38.000Z</time>
      </trkpt>
      <trkpt lat="46.90265" lon="4.61055">
        <ele>536.99994</ele>
        <time>2022-03-12T09:55:40.000Z</time>
      </trkpt>
      <trkpt lat="46.90264" lon="4.61052">
        <ele>536.79993</ele>
        <time>2022-03-12T09:55:42.000Z</time>
      </trkpt>
      <trkpt lat="46.90263" lon="4.61049">
        <ele>536.54993</ele>
        <time>2022-03-12T09:55:44.000Z</time>
      </trkpt>
      <trkpt lat="46.90263" lon="4.61046">
        <ele>536.29993</ele>
        <time>2022-03-12T09:55:46.000Z</time>
      </trkpt>
      <trkpt lat="46.90263" lon="4.61042">
        <ele>536.04993</ele>
        <time>2022-03-12T09:55:48.000Z</time>
      </trkpt>
      <trkpt lat="46.90262" lon="4.61039">
        <ele>535.84998</ele>
        <time>2022-03-12T09:55:50.000Z</time>
      </trkpt>
      <trkpt lat="46.90262" lon="4.61036">
        <ele>535.69995</ele>
        <time>2022-03-12T09:55:52.000Z</time>
      </trkpt>
      <trkpt lat="46.90261" lon="4.61033">
        <ele>535.54993</ele>
        <time>2022-03-12T09:55:55.000Z</time>
      </trkpt>
      <trkpt lat="46.90261" lon="4.6103">
        <ele>535.34998</ele>
        <time>2022-03-12T09:55:57.000Z</time>
      </trkpt>
      <trkpt lat="46.90261" lon="4.61027">
        <ele>535.09998</ele>
        <time>2022-03-12T09:56:00.000Z</time>
      </trkpt>
      <trkpt lat="46.9026" lon="4.61024">
        <ele>534.84998</ele>
        <time>2022-03-12T09:56:07.000Z</time>
      </trkpt>
      <trkpt lat="46.9026" lon="4.61022">
        <ele>534.59998</ele>
        <time>2022-03-12T09:56:09.000Z</time>
      </trkpt>
      <trkpt lat="46.90258" lon="4.61019">
        <ele>534.34998</ele>
        <time>2022-03-12T09:56:12.000Z</time>
      </trkpt>
      <trkpt lat="46.90256" lon="4.61018">
        <ele>534.14996</ele>
        <time>2022-03-12T09:56:15.000Z</time>
      </trkpt>
      <trkpt lat="46.90254" lon="4.61018">
        <ele>533.89996</ele>
        <time>2022-03-12T09:56:18.000Z</time>
      </trkpt>
      <trkpt lat="46.90252" lon="4.61019">
        <ele>533.64996</ele>
        <time>2022-03-12T09:56:21.000Z</time>
      </trkpt>
      <trkpt lat="46.9025" lon="4.6102">
        <ele>533.44995</ele>
        <time>2022-03-12T09:56:23.000Z</time>
      </trkpt>
      <trkpt lat="46.90248" lon="4.61022">
        <ele>533.24994</ele>
        <time>2022-03-12T09:56:26.000Z</time>
      </trkpt>
      <trkpt lat="46.90247" lon="4.61024">
        <ele>533.04993</ele>
        <time>2022-03-12T09:56:28.000Z</time>
      </trkpt>
      <trkpt lat="46.90245" lon="4.61026">
        <ele>532.89996</ele>
        <time>2022-03-12T09:56:30.000Z</time>
      </trkpt>
      <trkpt lat="46.90243" lon="4.61028">
        <ele>532.74994</ele>
        <time>2022-03-12T09:56:33.000Z</time>
      </trkpt>
      <trkpt lat="46.90241" lon="4.61031">
        <ele>532.59998</ele>
        <time>2022-03-12T09:56:36.000Z</time>
      </trkpt>
      <trkpt lat="46.90239" lon="4.61034">
        <ele>532.49994</ele>
        <time>2022-03-12T09:56:39.000Z</time>
      </trkpt>
      <trkpt lat="46.90237" lon="4.61036">
        <ele>532.44995</ele>
        <time>2022-03-12T09:56:41.000Z</time>
      </trkpt>
      <trkpt lat="46.90235" lon="4.61037">
        <ele>532.39996</ele>
        <time>2022-03-12T09:56:43.000Z</time>
      </trkpt>
      <trkpt lat="46.90234" lon="4.6104">
        <ele>532.34998</ele>
        <time>2022-03-12T09:56:46.000Z</time>
      </trkpt>
      <trkpt lat="46.90232" lon="4.61041">
        <ele>532.29993</ele>
        <time>2022-03-12T09:56:49.000Z</time>
      </trkpt>
      <trkpt lat="46.90234" lon="4.61039">
        <ele>532.29993</ele>
        <time>2022-03-12T09:57:17.000Z</time>
      </trkpt>
      <trkpt lat="46.90235" lon="4.61037">
        <ele>532.34998</ele>
        <time>2022-03-12T09:57:27.000Z</time>
      </trkpt>
      <trkpt lat="46.90236" lon="4.61034">
        <ele>532.39996</ele>
        <time>2022-03-12T09:57:29.000Z</time>
      </trkpt>
      <trkpt lat="46.90237" lon="4.61031">
        <ele>532.44995</ele>
        <time>2022-03-12T09:57:31.000Z</time>
      </trkpt>
      <trkpt lat="46.90239" lon="4.61029">
        <ele>532.54993</ele>
        <time>2022-03-12T09:57:33.000Z</time>
      </trkpt>
      <trkpt lat="46.9024" lon="4.61027">
        <ele>532.69995</ele>
        <time>2022-03-12T09:57:35.000Z</time>
      </trkpt>
      <trkpt lat="46.90241" lon="4.61024">
        <ele>532.84998</ele>
        <time>2022-03-12T09:57:38.000Z</time>
      </trkpt>
      <trkpt lat="46.90241" lon="4.61021">
        <ele>532.84998</ele>
        <time>2022-03-12T09:57:42.000Z</time>
      </trkpt>
      <trkpt lat="46.90241" lon="4.61017">
        <ele>532.84998</ele>
        <time>2022-03-12T09:57:45.000Z</time>
      </trkpt>
      <trkpt lat="46.90239" lon="4.61015">
        <ele>532.79993</ele>
        <time>2022-03-12T09:57:57.000Z</time>
      </trkpt>
      <trkpt lat="46.90238" lon="4.61013">
        <ele>532.74994</ele>
        <time>2022-03-12T09:58:01.000Z</time>
      </trkpt>
      <trkpt lat="46.90238" lon="4.61011">
        <ele>532.79993</ele>
        <time>2022-03-12T09:58:03.000Z</time>
      </trkpt>
      <trkpt lat="46.90238" lon="4.61007">
        <ele>532.74994</ele>
        <time>2022-03-12T09:58:06.000Z</time>
      </trkpt>
      <trkpt lat="46.90237" lon="4.61004">
        <ele>532.64996</ele>
        <time>2022-03-12T09:58:09.000Z</time>
      </trkpt>
      <trkpt lat="46.90236" lon="4.61002">
        <ele>532.54993</ele>
        <time>2022-03-12T09:58:11.000Z</time>
      </trkpt>
      <trkpt lat="46.90236" lon="4.60999">
        <ele>532.44995</ele>
        <time>2022-03-12T09:58:13.000Z</time>
      </trkpt>
      <trkpt lat="46.90235" lon="4.60995">
        <ele>532.29993</ele>
        <time>2022-03-12T09:58:15.000Z</time>
      </trkpt>
      <trkpt lat="46.90235" lon="4.60992">
        <ele>532.14996</ele>
        <time>2022-03-12T09:58:18.000Z</time>
      </trkpt>
      <trkpt lat="46.90234" lon="4.60989">
        <ele>532.04993</ele>
        <time>2022-03-12T09:58:20.000Z</time>
      </trkpt>
      <trkpt lat="46.90233" lon="4.60987">
        <ele>531.94995</ele>
        <time>2022-03-12T09:58:22.000Z</time>
      </trkpt>
      <trkpt lat="46.90232" lon="4.60984">
        <ele>531.74994</ele>
        <time>2022-03-12T09:58:25.000Z</time>
      </trkpt>
      <trkpt lat="46.90232" lon="4.6098">
        <ele>531.49994</ele>
        <time>2022-03-12T09:58:27.000Z</time>
      </trkpt>
      <trkpt lat="46.90231" lon="4.60978">
        <ele>531.24994</ele>
        <time>2022-03-12T09:58:29.000Z</time>
      </trkpt>
      <trkpt lat="46.9023" lon="4.60974">
        <ele>530.99994</ele>
        <time>2022-03-12T09:58:32.000Z</time>
      </trkpt>
      <trkpt lat="46.9023" lon="4.60971">
        <ele>530.74994</ele>
        <time>2022-03-12T09:58:35.000Z</time>
      </trkpt>
      <trkpt lat="46.90229" lon="4.60968">
        <ele>530.49994</ele>
        <time>2022-03-12T09:58:39.000Z</time>
      </trkpt>
      <trkpt lat="46.90229" lon="4.60966">
        <ele>530.29993</ele>
        <time>2022-03-12T09:58:51.000Z</time>
      </trkpt>
      <trkpt lat="46.90229" lon="4.60968">
        <ele>530.39996</ele>
        <time>2022-03-12T09:59:02.000Z</time>
      </trkpt>
      <trkpt lat="46.90228" lon="4.60966">
        <ele>530.34998</ele>
        <time>2022-03-12T09:59:21.000Z</time>
      </trkpt>
      <trkpt lat="46.90229" lon="4.60963">
        <ele>530.34998</ele>
        <time>2022-03-12T09:59:23.000Z</time>
      </trkpt>
      <trkpt lat="46.90231" lon="4.6096">
        <ele>530.34998</ele>
        <time>2022-03-12T09:59:25.000Z</time>
      </trkpt>
      <trkpt lat="46.90234" lon="4.60958">
        <ele>530.29993</ele>
        <time>2022-03-12T09:59:27.000Z</time>
      </trkpt>
      <trkpt lat="46.90235" lon="4.60955">
        <ele>530.29993</ele>
        <time>2022-03-12T09:59:29.000Z</time>
      </trkpt>
      <trkpt lat="46.90235" lon="4.60952">
        <ele>530.34998</ele>
        <time>2022-03-12T09:59:31.000Z</time>
      </trkpt>
      <trkpt lat="46.90237" lon="4.60949">
        <ele>530.34998</ele>
        <time>2022-03-12T09:59:33.000Z</time>
      </trkpt>
      <trkpt lat="46.90238" lon="4.60947">
        <ele>530.39996</ele>
        <time>2022-03-12T09:59:35.000Z</time>
      </trkpt>
      <trkpt lat="46.90239" lon="4.60945">
        <ele>530.39996</ele>
        <time>2022-03-12T09:59:38.000Z</time>
      </trkpt>
      <trkpt lat="46.90241" lon="4.60943">
        <ele>530.44995</ele>
        <time>2022-03-12T09:59:40.000Z</time>
      </trkpt>
      <trkpt lat="46.90241" lon="4.6094">
        <ele>530.39996</ele>
        <time>2022-03-12T09:59:42.000Z</time>
      </trkpt>
      <trkpt lat="46.90242" lon="4.60937">
        <ele>530.34998</ele>
        <time>2022-03-12T09:59:44.000Z</time>
      </trkpt>
      <trkpt lat="46.90243" lon="4.60934">
        <ele>530.34998</ele>
        <time>2022-03-12T09:59:47.000Z</time>
      </trkpt>
      <trkpt lat="46.90244" lon="4.60931">
        <ele>530.29993</ele>
        <time>2022-03-12T09:59:49.000Z</time>
      </trkpt>
      <trkpt lat="46.90246" lon="4.60928">
        <ele>530.24994</ele>
        <time>2022-03-12T09:59:51.000Z</time>
      </trkpt>
      <trkpt lat="46.90248" lon="4.60926">
        <ele>530.24994</ele>
        <time>2022-03-12T09:59:53.000Z</time>
      </trkpt>
      <trkpt lat="46.90251" lon="4.60924">
        <ele>530.19995</ele>
        <time>2022-03-12T09:59:55.000Z</time>
      </trkpt>
      <trkpt lat="46.90252" lon="4.60922">
        <ele>530.14996</ele>
        <time>2022-03-12T09:59:57.000Z</time>
      </trkpt>
      <trkpt lat="46.90254" lon="4.60921">
        <ele>530.04993</ele>
        <time>2022-03-12T09:59:59.000Z</time>
      </trkpt>
      <trkpt lat="46.90256" lon="4.6092">
        <ele>529.84998</ele>
        <time>2022-03-12T10:00:01.000Z</time>
      </trkpt>
      <trkpt lat="46.90259" lon="4.60919">
        <ele>529.74994</ele>
        <time>2022-03-12T10:00:03.000Z</time>
      </trkpt>
      <trkpt lat="46.9026" lon="4.60919">
        <ele>529.64996</ele>
        <time>2022-03-12T10:00:06.000Z</time>
      </trkpt>
      <trkpt lat="46.90262" lon="4.60917">
        <ele>529.54993</ele>
        <time>2022-03-12T10:00:09.000Z</time>
      </trkpt>
      <trkpt lat="46.90264" lon="4.60915">
        <ele>529.44995</ele>
        <time>2022-03-12T10:00:11.000Z</time>
      </trkpt>
      <trkpt lat="46.90266" lon="4.60913">
        <ele>529.29993</ele>
        <time>2022-03-12T10:00:14.000Z</time>
      </trkpt>
      <trkpt lat="46.90266" lon="4.6091">
        <ele>529.14996</ele>
        <time>2022-03-12T10:00:24.000Z</time>
      </trkpt>
      <trkpt lat="46.90267" lon="4.60907">
        <ele>528.89996</ele>
        <time>2022-03-12T10:00:29.000Z</time>
      </trkpt>
      <trkpt lat="46.90264" lon="4.60905">
        <ele>528.54993</ele>
        <time>2022-03-12T10:00:37.000Z</time>
      </trkpt>
      <trkpt lat="46.90263" lon="4.60902">
        <ele>528.14996</ele>
        <time>2022-03-12T10:00:43.000Z</time>
      </trkpt>
      <trkpt lat="46.90262" lon="4.60898">
        <ele>527.64996</ele>
        <time>2022-03-12T10:01:04.000Z</time>
      </trkpt>
      <trkpt lat="46.90262" lon="4.60895">
        <ele>527.14996</ele>
        <time>2022-03-12T10:01:14.000Z</time>
      </trkpt>
      <trkpt lat="46.90264" lon="4.60893">
        <ele>526.64996</ele>
        <time>2022-03-12T10:01:21.000Z</time>
      </trkpt>
      <trkpt lat="46.90262" lon="4.60891">
        <ele>526.14996</ele>
        <time>2022-03-12T10:01:32.000Z</time>
      </trkpt>
      <trkpt lat="46.90261" lon="4.60889">
        <ele>525.64996</ele>
        <time>2022-03-12T10:01:35.000Z</time>
      </trkpt>
      <trkpt lat="46.90259" lon="4.60887">
        <ele>525.14996</ele>
        <time>2022-03-12T10:01:55.000Z</time>
      </trkpt>
      <trkpt lat="46.9026" lon="4.60883">
        <ele>524.54993</ele>
        <time>2022-03-12T10:02:06.000Z</time>
      </trkpt>
      <trkpt lat="46.90259" lon="4.6088">
        <ele>523.89996</ele>
        <time>2022-03-12T10:02:10.000Z</time>
      </trkpt>
      <trkpt lat="46.90261" lon="4.60878">
        <ele>523.19995</ele>
        <time>2022-03-12T10:02:15.000Z</time>
      </trkpt>
      <trkpt lat="46.9026" lon="4.60876">
        <ele>522.44995</ele>
        <time>2022-03-12T10:02:21.000Z</time>
      </trkpt>
      <trkpt lat="46.90259" lon="4.60874">
        <ele>521.64996</ele>
        <time>2022-03-12T10:02:26.000Z</time>
      </trkpt>
      <trkpt lat="46.90259" lon="4.6087">
        <ele>520.84998</ele>
        <time>2022-03-12T10:02:30.000Z</time>
      </trkpt>
      <trkpt lat="46.90256" lon="4.60869">
        <ele>519.94995</ele>
        <time>2022-03-12T10:02:49.000Z</time>
      </trkpt>
      <trkpt lat="46.90254" lon="4.60869">
        <ele>519.09998</ele>
        <time>2022-03-12T10:02:52.000Z</time>
      </trkpt>
      <trkpt lat="46.90251" lon="4.60869">
        <ele>518.19995</ele>
        <time>2022-03-12T10:02:55.000Z</time>
      </trkpt>
      <trkpt lat="46.90249" lon="4.60868">
        <ele>517.24994</ele>
        <time>2022-03-12T10:02:58.000Z</time>
      </trkpt>
      <trkpt lat="46.90247" lon="4.60867">
        <ele>516.34998</ele>
        <time>2022-03-12T10:03:02.000Z</time>
      </trkpt>
      <trkpt lat="46.90245" lon="4.60867">
        <ele>515.59998</ele>
        <time>2022-03-12T10:03:06.000Z</time>
      </trkpt>
      <trkpt lat="46.90243" lon="4.60865">
        <ele>514.84998</ele>
        <time>2022-03-12T10:03:14.000Z</time>
      </trkpt>
      <trkpt lat="46.90242" lon="4.60862">
        <ele>514.19995</ele>
        <time>2022-03-12T10:03:37.000Z</time>
      </trkpt>
      <trkpt lat="46.90241" lon="4.60858">
        <ele>513.44995</ele>
        <time>2022-03-12T10:03:50.000Z</time>
      </trkpt>
      <trkpt lat="46.9024" lon="4.60856">
        <ele>512.74994</ele>
        <time>2022-03-12T10:03:53.000Z</time>
      </trkpt>
      <trkpt lat="46.9024" lon="4.60853">
        <ele>512.04993</ele>
        <time>2022-03-12T10:04:04.000Z</time>
      </trkpt>
      <trkpt lat="46.9024" lon="4.60849">
        <ele>511.34995</ele>
        <time>2022-03-12T10:04:06.000Z</time>
      </trkpt>
      <trkpt lat="46.90241" lon="4.60847">
        <ele>510.64996</ele>
        <time>2022-03-12T10:04:09.000Z</time>
      </trkpt>
      <trkpt lat="46.90243" lon="4.60846">
        <ele>509.94995</ele>
        <time>2022-03-12T10:04:14.000Z</time>
      </trkpt>
      <trkpt lat="46.90244" lon="4.60842">
        <ele>509.24994</ele>
        <time>2022-03-12T10:04:20.000Z</time>
      </trkpt>
      <trkpt lat="46.90246" lon="4.6084">
        <ele>508.64996</ele>
        <time>2022-03-12T10:04:22.000Z</time>
      </trkpt>
      <trkpt lat="46.90247" lon="4.60837">
        <ele>508.04996</ele>
        <time>2022-03-12T10:04:24.000Z</time>
      </trkpt>
      <trkpt lat="46.90249" lon="4.60836">
        <ele>507.44995</ele>
        <time>2022-03-12T10:04:27.000Z</time>
      </trkpt>
      <trkpt lat="46.9025" lon="4.60833">
        <ele>506.94995</ele>
        <time>2022-03-12T10:04:30.000Z</time>
      </trkpt>
      <trkpt lat="46.90252" lon="4.60833">
        <ele>506.49994</ele>
        <time>2022-03-12T10:04:34.000Z</time>
      </trkpt>
      <trkpt lat="46.90254" lon="4.60832">
        <ele>506.14996</ele>
        <time>2022-03-12T10:04:36.000Z</time>
      </trkpt>
      <trkpt lat="46.90256" lon="4.60831">
        <ele>505.79996</ele>
        <time>2022-03-12T10:04:39.000Z</time>
      </trkpt>
      <trkpt lat="46.90258" lon="4.60829">
        <ele>505.44995</ele>
        <time>2022-03-12T10:04:53.000Z</time>
      </trkpt>
      <trkpt lat="46.9026" lon="4.60828">
        <ele>505.14996</ele>
        <time>2022-03-12T10:04:56.000Z</time>
      </trkpt>
      <trkpt lat="46.90262" lon="4.60826">
        <ele>504.79996</ele>
        <time>2022-03-12T10:04:59.000Z</time>
      </trkpt>
      <trkpt lat="46.90263" lon="4.60823">
        <ele>504.44995</ele>
        <time>2022-03-12T10:05:03.000Z</time>
      </trkpt>
      <trkpt lat="46.90266" lon="4.6082">
        <ele>504.14996</ele>
        <time>2022-03-12T10:05:06.000Z</time>
      </trkpt>
      <trkpt lat="46.90268" lon="4.60818">
        <ele>503.84995</ele>
        <time>2022-03-12T10:05:08.000Z</time>
      </trkpt>
      <trkpt lat="46.9027" lon="4.60817">
        <ele>503.64996</ele>
        <time>2022-03-12T10:05:11.000Z</time>
      </trkpt>
      <trkpt lat="46.90272" lon="4.60816">
        <ele>503.39996</ele>
        <time>2022-03-12T10:05:13.000Z</time>
      </trkpt>
      <trkpt lat="46.90274" lon="4.60815">
        <ele>503.19995</ele>
        <time>2022-03-12T10:05:16.000Z</time>
      </trkpt>
      <trkpt lat="46.90276" lon="4.60815">
        <ele>503.04996</ele>
        <time>2022-03-12T10:05:20.000Z</time>
      </trkpt>
      <trkpt lat="46.90278" lon="4.60813">
        <ele>502.94995</ele>
        <time>2022-03-12T10:05:24.000Z</time>
      </trkpt>
      <trkpt lat="46.9028" lon="4.60812">
        <ele>502.84995</ele>
        <time>2022-03-12T10:05:27.000Z</time>
      </trkpt>
      <trkpt lat="46.90282" lon="4.60811">
        <ele>502.79996</ele>
        <time>2022-03-12T10:05:30.000Z</time>
      </trkpt>
      <trkpt lat="46.90284" lon="4.6081">
        <ele>502.79996</ele>
        <time>2022-03-12T10:05:33.000Z</time>
      </trkpt>
      <trkpt lat="46.90286" lon="4.60809">
        <ele>502.84995</ele>
        <time>2022-03-12T10:05:36.000Z</time>
      </trkpt>
      <trkpt lat="46.90289" lon="4.60808">
        <ele>502.94995</ele>
        <time>2022-03-12T10:05:39.000Z</time>
      </trkpt>
      <trkpt lat="46.90291" lon="4.60808">
        <ele>502.99994</ele>
        <time>2022-03-12T10:05:41.000Z</time>
      </trkpt>
      <trkpt lat="46.90293" lon="4.60807">
        <ele>503.04996</ele>
        <time>2022-03-12T10:05:43.000Z</time>
      </trkpt>
      <trkpt lat="46.90295" lon="4.60807">
        <ele>503.09995</ele>
        <time>2022-03-12T10:05:46.000Z</time>
      </trkpt>
      <trkpt lat="46.90297" lon="4.60807">
        <ele>503.09995</ele>
        <time>2022-03-12T10:05:49.000Z</time>
      </trkpt>
      <trkpt lat="46.90299" lon="4.60807">
        <ele>503.09995</ele>
        <time>2022-03-12T10:05:52.000Z</time>
      </trkpt>
      <trkpt lat="46.90301" lon="4.60806">
        <ele>503.19995</ele>
        <time>2022-03-12T10:05:54.000Z</time>
      </trkpt>
      <trkpt lat="46.90303" lon="4.60806">
        <ele>503.24994</ele>
        <time>2022-03-12T10:05:56.000Z</time>
      </trkpt>
      <trkpt lat="46.90306" lon="4.60805">
        <ele>503.29996</ele>
        <time>2022-03-12T10:05:58.000Z</time>
      </trkpt>
      <trkpt lat="46.90308" lon="4.60804">
        <ele>503.29996</ele>
        <time>2022-03-12T10:06:01.000Z</time>
      </trkpt>
      <trkpt lat="46.90309" lon="4.60801">
        <ele>503.34995</ele>
        <time>2022-03-12T10:06:07.000Z</time>
      </trkpt>
      <trkpt lat="46.90311" lon="4.60801">
        <ele>503.44995</ele>
        <time>2022-03-12T10:06:10.000Z</time>
      </trkpt>
      <trkpt lat="46.90313" lon="4.60801">
        <ele>503.54996</ele>
        <time>2022-03-12T10:06:12.000Z</time>
      </trkpt>
      <trkpt lat="46.90315" lon="4.608">
        <ele>503.64996</ele>
        <time>2022-03-12T10:06:16.000Z</time>
      </trkpt>
      <trkpt lat="46.90317" lon="4.608">
        <ele>503.69995</ele>
        <time>2022-03-12T10:06:18.000Z</time>
      </trkpt>
      <trkpt lat="46.9032" lon="4.60799">
        <ele>503.74994</ele>
        <time>2022-03-12T10:06:21.000Z</time>
      </trkpt>
      <trkpt lat="46.90323" lon="4.60799">
        <ele>503.79996</ele>
        <time>2022-03-12T10:06:24.000Z</time>
      </trkpt>
      <trkpt lat="46.90325" lon="4.60799">
        <ele>503.79996</ele>
        <time>2022-03-12T10:06:26.000Z</time>
      </trkpt>
      <trkpt lat="46.90327" lon="4.60799">
        <ele>503.79996</ele>
        <time>2022-03-12T10:06:29.000Z</time>
      </trkpt>
      <trkpt lat="46.90329" lon="4.60798">
        <ele>503.79996</ele>
        <time>2022-03-12T10:06:31.000Z</time>
      </trkpt>
      <trkpt lat="46.90332" lon="4.60797">
        <ele>503.74994</ele>
        <time>2022-03-12T10:06:34.000Z</time>
      </trkpt>
      <trkpt lat="46.90333" lon="4.60795">
        <ele>503.69995</ele>
        <time>2022-03-12T10:06:38.000Z</time>
      </trkpt>
      <trkpt lat="46.90335" lon="4.60794">
        <ele>503.69995</ele>
        <time>2022-03-12T10:06:41.000Z</time>
      </trkpt>
      <trkpt lat="46.90337" lon="4.60792">
        <ele>503.64996</ele>
        <time>2022-03-12T10:06:45.000Z</time>
      </trkpt>
      <trkpt lat="46.90339" lon="4.6079">
        <ele>503.64996</ele>
        <time>2022-03-12T10:06:49.000Z</time>
      </trkpt>
      <trkpt lat="46.90341" lon="4.60788">
        <ele>503.59995</ele>
        <time>2022-03-12T10:06:53.000Z</time>
      </trkpt>
      <trkpt lat="46.90342" lon="4.60786">
        <ele>503.49994</ele>
        <time>2022-03-12T10:07:01.000Z</time>
      </trkpt>
      <trkpt lat="46.90342" lon="4.60783">
        <ele>503.44995</ele>
        <time>2022-03-12T10:07:04.000Z</time>
      </trkpt>
      <trkpt lat="46.90344" lon="4.6078">
        <ele>503.34995</ele>
        <time>2022-03-12T10:07:07.000Z</time>
      </trkpt>
      <trkpt lat="46.90346" lon="4.60778">
        <ele>503.34995</ele>
        <time>2022-03-12T10:07:13.000Z</time>
      </trkpt>
      <trkpt lat="46.90346" lon="4.60775">
        <ele>503.29996</ele>
        <time>2022-03-12T10:07:19.000Z</time>
      </trkpt>
      <trkpt lat="46.90347" lon="4.60772">
        <ele>503.29996</ele>
        <time>2022-03-12T10:07:24.000Z</time>
      </trkpt>
      <trkpt lat="46.90349" lon="4.6077">
        <ele>503.34995</ele>
        <time>2022-03-12T10:07:30.000Z</time>
      </trkpt>
      <trkpt lat="46.90347" lon="4.60768">
        <ele>503.19995</ele>
        <time>2022-03-12T10:07:34.000Z</time>
      </trkpt>
      <trkpt lat="46.90344" lon="4.6077">
        <ele>503.04996</ele>
        <time>2022-03-12T10:07:50.000Z</time>
      </trkpt>
      <trkpt lat="46.90346" lon="4.6077">
        <ele>502.99994</ele>
        <time>2022-03-12T10:08:02.000Z</time>
      </trkpt>
      <trkpt lat="46.90346" lon="4.60768">
        <ele>502.94995</ele>
        <time>2022-03-12T10:08:14.000Z</time>
      </trkpt>
      <trkpt lat="46.90347" lon="4.6077">
        <ele>502.59995</ele>
        <time>2022-03-12T10:08:51.000Z</time>
      </trkpt>
      <trkpt lat="46.9035" lon="4.60769">
        <ele>502.19995</ele>
        <time>2022-03-12T10:08:54.000Z</time>
      </trkpt>
      <trkpt lat="46.90352" lon="4.6077">
        <ele>501.84995</ele>
        <time>2022-03-12T10:08:55.000Z</time>
      </trkpt>
      <trkpt lat="46.90354" lon="4.60772">
        <ele>501.49994</ele>
        <time>2022-03-12T10:08:57.000Z</time>
      </trkpt>
      <trkpt lat="46.90356" lon="4.60771">
        <ele>501.09995</ele>
        <time>2022-03-12T10:09:01.000Z</time>
      </trkpt>
      <trkpt lat="46.90358" lon="4.60769">
        <ele>500.69995</ele>
        <time>2022-03-12T10:09:07.000Z</time>
      </trkpt>
      <trkpt lat="46.9036" lon="4.60767">
        <ele>500.34995</ele>
        <time>2022-03-12T10:09:10.000Z</time>
      </trkpt>
      <trkpt lat="46.9036" lon="4.60764">
        <ele>499.94995</ele>
        <time>2022-03-12T10:09:14.000Z</time>
      </trkpt>
      <trkpt lat="46.90363" lon="4.60761">
        <ele>499.54996</ele>
        <time>2022-03-12T10:09:18.000Z</time>
      </trkpt>
      <trkpt lat="46.90365" lon="4.60761">
        <ele>499.09995</ele>
        <time>2022-03-12T10:09:21.000Z</time>
      </trkpt>
      <trkpt lat="46.90368" lon="4.60761">
        <ele>498.64996</ele>
        <time>2022-03-12T10:09:30.000Z</time>
      </trkpt>
      <trkpt lat="46.9037" lon="4.6076">
        <ele>498.19995</ele>
        <time>2022-03-12T10:09:32.000Z</time>
      </trkpt>
      <trkpt lat="46.90372" lon="4.6076">
        <ele>497.69995</ele>
        <time>2022-03-12T10:09:34.000Z</time>
      </trkpt>
      <trkpt lat="46.90375" lon="4.60759">
        <ele>497.14996</ele>
        <time>2022-03-12T10:09:38.000Z</time>
      </trkpt>
      <trkpt lat="46.90376" lon="4.60758">
        <ele>496.49994</ele>
        <time>2022-03-12T10:09:40.000Z</time>
      </trkpt>
      <trkpt lat="46.90379" lon="4.60759">
        <ele>495.79996</ele>
        <time>2022-03-12T10:09:43.000Z</time>
      </trkpt>
      <trkpt lat="46.90382" lon="4.60759">
        <ele>495.24994</ele>
        <time>2022-03-12T10:09:45.000Z</time>
      </trkpt>
      <trkpt lat="46.90383" lon="4.60758">
        <ele>494.74994</ele>
        <time>2022-03-12T10:09:48.000Z</time>
      </trkpt>
      <trkpt lat="46.90386" lon="4.60759">
        <ele>494.09995</ele>
        <time>2022-03-12T10:09:52.000Z</time>
      </trkpt>
      <trkpt lat="46.90388" lon="4.6076">
        <ele>493.44995</ele>
        <time>2022-03-12T10:09:55.000Z</time>
      </trkpt>
      <trkpt lat="46.9039" lon="4.60762">
        <ele>493.14996</ele>
        <time>2022-03-12T10:09:58.000Z</time>
      </trkpt>
      <trkpt lat="46.90393" lon="4.60763">
        <ele>492.84995</ele>
        <time>2022-03-12T10:10:01.000Z</time>
      </trkpt>
      <trkpt lat="46.90395" lon="4.60764">
        <ele>492.44995</ele>
        <time>2022-03-12T10:10:03.000Z</time>
      </trkpt>
      <trkpt lat="46.90397" lon="4.60764">
        <ele>492.09995</ele>
        <time>2022-03-12T10:10:05.000Z</time>
      </trkpt>
      <trkpt lat="46.90399" lon="4.60764">
        <ele>491.79996</ele>
        <time>2022-03-12T10:10:07.000Z</time>
      </trkpt>
      <trkpt lat="46.90401" lon="4.60764">
        <ele>491.39996</ele>
        <time>2022-03-12T10:10:11.000Z</time>
      </trkpt>
      <trkpt lat="46.90403" lon="4.60765">
        <ele>490.99994</ele>
        <time>2022-03-12T10:10:14.000Z</time>
      </trkpt>
      <trkpt lat="46.90406" lon="4.60767">
        <ele>490.59995</ele>
        <time>2022-03-12T10:10:16.000Z</time>
      </trkpt>
      <trkpt lat="46.90408" lon="4.60768">
        <ele>490.19995</ele>
        <time>2022-03-12T10:10:18.000Z</time>
      </trkpt>
      <trkpt lat="46.90411" lon="4.6077">
        <ele>489.84995</ele>
        <time>2022-03-12T10:10:20.000Z</time>
      </trkpt>
      <trkpt lat="46.90413" lon="4.60771">
        <ele>489.44995</ele>
        <time>2022-03-12T10:10:23.000Z</time>
      </trkpt>
      <trkpt lat="46.90416" lon="4.60773">
        <ele>489.09995</ele>
        <time>2022-03-12T10:10:27.000Z</time>
      </trkpt>
      <trkpt lat="46.90418" lon="4.60774">
        <ele>488.74994</ele>
        <time>2022-03-12T10:10:29.000Z</time>
      </trkpt>
      <trkpt lat="46.9042" lon="4.60775">
        <ele>488.44995</ele>
        <time>2022-03-12T10:10:31.000Z</time>
      </trkpt>
      <trkpt lat="46.90423" lon="4.60776">
        <ele>488.24994</ele>
        <time>2022-03-12T10:10:32.000Z</time>
      </trkpt>
      <trkpt lat="46.90426" lon="4.60776">
        <ele>488.09995</ele>
        <time>2022-03-12T10:10:33.000Z</time>
      </trkpt>
      <trkpt lat="46.90429" lon="4.60774">
        <ele>488.04996</ele>
        <time>2022-03-12T10:10:34.000Z</time>
      </trkpt>
      <trkpt lat="46.90431" lon="4.60773">
        <ele>487.99994</ele>
        <time>2022-03-12T10:10:35.000Z</time>
      </trkpt>
      <trkpt lat="46.90434" lon="4.60772">
        <ele>488.04996</ele>
        <time>2022-03-12T10:10:36.000Z</time>
      </trkpt>
      <trkpt lat="46.90436" lon="4.60771">
        <ele>488.09995</ele>
        <time>2022-03-12T10:10:38.000Z</time>
      </trkpt>
      <trkpt lat="46.90441" lon="4.6077">
        <ele>488.19995</ele>
        <time>2022-03-12T10:10:41.000Z</time>
      </trkpt>
      <trkpt lat="46.90444" lon="4.6077">
        <ele>488.29996</ele>
        <time>2022-03-12T10:10:43.000Z</time>
      </trkpt>
      <trkpt lat="46.90446" lon="4.60768">
        <ele>488.39996</ele>
        <time>2022-03-12T10:10:45.000Z</time>
      </trkpt>
      <trkpt lat="46.90448" lon="4.60767">
        <ele>488.54996</ele>
        <time>2022-03-12T10:10:47.000Z</time>
      </trkpt>
      <trkpt lat="46.90451" lon="4.60766">
        <ele>488.64996</ele>
        <time>2022-03-12T10:10:50.000Z</time>
      </trkpt>
      <trkpt lat="46.90452" lon="4.60764">
        <ele>488.79996</ele>
        <time>2022-03-12T10:10:52.000Z</time>
      </trkpt>
      <trkpt lat="46.90454" lon="4.60762">
        <ele>488.89996</ele>
        <time>2022-03-12T10:10:54.000Z</time>
      </trkpt>
      <trkpt lat="46.90455" lon="4.6076">
        <ele>488.99994</ele>
        <time>2022-03-12T10:10:56.000Z</time>
      </trkpt>
      <trkpt lat="46.90456" lon="4.60758">
        <ele>489.09995</ele>
        <time>2022-03-12T10:10:58.000Z</time>
      </trkpt>
      <trkpt lat="46.90458" lon="4.60755">
        <ele>489.19995</ele>
        <time>2022-03-12T10:11:01.000Z</time>
      </trkpt>
      <trkpt lat="46.90459" lon="4.60752">
        <ele>489.24994</ele>
        <time>2022-03-12T10:11:04.000Z</time>
      </trkpt>
      <trkpt lat="46.90459" lon="4.60749">
        <ele>489.29996</ele>
        <time>2022-03-12T10:11:07.000Z</time>
      </trkpt>
      <trkpt lat="46.9046" lon="4.60746">
        <ele>489.39996</ele>
        <time>2022-03-12T10:11:10.000Z</time>
      </trkpt>
      <trkpt lat="46.90461" lon="4.60743">
        <ele>489.49994</ele>
        <time>2022-03-12T10:11:13.000Z</time>
      </trkpt>
      <trkpt lat="46.90462" lon="4.60741">
        <ele>489.49994</ele>
        <time>2022-03-12T10:11:16.000Z</time>
      </trkpt>
      <trkpt lat="46.90463" lon="4.60738">
        <ele>489.44995</ele>
        <time>2022-03-12T10:11:20.000Z</time>
      </trkpt>
      <trkpt lat="46.90464" lon="4.60734">
        <ele>489.19995</ele>
        <time>2022-03-12T10:11:23.000Z</time>
      </trkpt>
      <trkpt lat="46.90465" lon="4.60731">
        <ele>488.89996</ele>
        <time>2022-03-12T10:11:26.000Z</time>
      </trkpt>
      <trkpt lat="46.90466" lon="4.60729">
        <ele>488.54996</ele>
        <time>2022-03-12T10:11:28.000Z</time>
      </trkpt>
      <trkpt lat="46.90467" lon="4.60726">
        <ele>488.19995</ele>
        <time>2022-03-12T10:11:31.000Z</time>
      </trkpt>
      <trkpt lat="46.90469" lon="4.60724">
        <ele>487.84995</ele>
        <time>2022-03-12T10:11:33.000Z</time>
      </trkpt>
      <trkpt lat="46.9047" lon="4.60722">
        <ele>487.49994</ele>
        <time>2022-03-12T10:11:35.000Z</time>
      </trkpt>
      <trkpt lat="46.9047" lon="4.60719">
        <ele>487.19995</ele>
        <time>2022-03-12T10:11:37.000Z</time>
      </trkpt>
      <trkpt lat="46.90472" lon="4.60716">
        <ele>486.84995</ele>
        <time>2022-03-12T10:11:40.000Z</time>
      </trkpt>
      <trkpt lat="46.90472" lon="4.60713">
        <ele>486.54996</ele>
        <time>2022-03-12T10:11:42.000Z</time>
      </trkpt>
      <trkpt lat="46.90473" lon="4.6071">
        <ele>486.24994</ele>
        <time>2022-03-12T10:11:44.000Z</time>
      </trkpt>
      <trkpt lat="46.90473" lon="4.60707">
        <ele>485.99994</ele>
        <time>2022-03-12T10:11:46.000Z</time>
      </trkpt>
      <trkpt lat="46.90474" lon="4.60704">
        <ele>485.74994</ele>
        <time>2022-03-12T10:11:48.000Z</time>
      </trkpt>
      <trkpt lat="46.90475" lon="4.60701">
        <ele>485.49994</ele>
        <time>2022-03-12T10:11:50.000Z</time>
      </trkpt>
      <trkpt lat="46.90476" lon="4.60697">
        <ele>485.24994</ele>
        <time>2022-03-12T10:11:55.000Z</time>
      </trkpt>
      <trkpt lat="46.90477" lon="4.60693">
        <ele>485.09995</ele>
        <time>2022-03-12T10:11:57.000Z</time>
      </trkpt>
      <trkpt lat="46.90477" lon="4.6069">
        <ele>484.89996</ele>
        <time>2022-03-12T10:11:59.000Z</time>
      </trkpt>
      <trkpt lat="46.90478" lon="4.60687">
        <ele>484.64996</ele>
        <time>2022-03-12T10:12:01.000Z</time>
      </trkpt>
      <trkpt lat="46.90479" lon="4.60683">
        <ele>484.44995</ele>
        <time>2022-03-12T10:12:03.000Z</time>
      </trkpt>
      <trkpt lat="46.90481" lon="4.6068">
        <ele>484.24994</ele>
        <time>2022-03-12T10:12:05.000Z</time>
      </trkpt>
      <trkpt lat="46.90482" lon="4.60676">
        <ele>484.09995</ele>
        <time>2022-03-12T10:12:07.000Z</time>
      </trkpt>
      <trkpt lat="46.90482" lon="4.60673">
        <ele>484.04996</ele>
        <time>2022-03-12T10:12:09.000Z</time>
      </trkpt>
      <trkpt lat="46.90483" lon="4.6067">
        <ele>483.99994</ele>
        <time>2022-03-12T10:12:11.000Z</time>
      </trkpt>
      <trkpt lat="46.90484" lon="4.60666">
        <ele>483.89996</ele>
        <time>2022-03-12T10:12:13.000Z</time>
      </trkpt>
      <trkpt lat="46.90486" lon="4.60663">
        <ele>483.84995</ele>
        <time>2022-03-12T10:12:15.000Z</time>
      </trkpt>
      <trkpt lat="46.90486" lon="4.6066">
        <ele>483.69995</ele>
        <time>2022-03-12T10:12:17.000Z</time>
      </trkpt>
      <trkpt lat="46.90487" lon="4.60657">
        <ele>483.49994</ele>
        <time>2022-03-12T10:12:19.000Z</time>
      </trkpt>
      <trkpt lat="46.90487" lon="4.60654">
        <ele>483.34995</ele>
        <time>2022-03-12T10:12:21.000Z</time>
      </trkpt>
      <trkpt lat="46.90487" lon="4.60651">
        <ele>483.14996</ele>
        <time>2022-03-12T10:12:23.000Z</time>
      </trkpt>
      <trkpt lat="46.90488" lon="4.60647">
        <ele>482.94995</ele>
        <time>2022-03-12T10:12:26.000Z</time>
      </trkpt>
      <trkpt lat="46.90488" lon="4.60644">
        <ele>482.74994</ele>
        <time>2022-03-12T10:12:29.000Z</time>
      </trkpt>
      <trkpt lat="46.90488" lon="4.6064">
        <ele>482.54996</ele>
        <time>2022-03-12T10:12:31.000Z</time>
      </trkpt>
      <trkpt lat="46.90488" lon="4.60637">
        <ele>482.29996</ele>
        <time>2022-03-12T10:12:33.000Z</time>
      </trkpt>
      <trkpt lat="46.90488" lon="4.60634">
        <ele>482.04996</ele>
        <time>2022-03-12T10:12:36.000Z</time>
      </trkpt>
      <trkpt lat="46.90488" lon="4.60631">
        <ele>481.74994</ele>
        <time>2022-03-12T10:12:38.000Z</time>
      </trkpt>
      <trkpt lat="46.90488" lon="4.60628">
        <ele>481.39996</ele>
        <time>2022-03-12T10:12:40.000Z</time>
      </trkpt>
      <trkpt lat="46.90488" lon="4.60626">
        <ele>481.09995</ele>
        <time>2022-03-12T10:12:42.000Z</time>
      </trkpt>
      <trkpt lat="46.90488" lon="4.60623">
        <ele>480.79996</ele>
        <time>2022-03-12T10:12:44.000Z</time>
      </trkpt>
      <trkpt lat="46.90487" lon="4.60619">
        <ele>480.39996</ele>
        <time>2022-03-12T10:12:47.000Z</time>
      </trkpt>
      <trkpt lat="46.90488" lon="4.60615">
        <ele>479.99994</ele>
        <time>2022-03-12T10:12:50.000Z</time>
      </trkpt>
      <trkpt lat="46.90487" lon="4.60611">
        <ele>479.59995</ele>
        <time>2022-03-12T10:12:53.000Z</time>
      </trkpt>
      <trkpt lat="46.90487" lon="4.60608">
        <ele>479.14996</ele>
        <time>2022-03-12T10:12:56.000Z</time>
      </trkpt>
      <trkpt lat="46.90486" lon="4.60604">
        <ele>478.64996</ele>
        <time>2022-03-12T10:12:59.000Z</time>
      </trkpt>
      <trkpt lat="46.90485" lon="4.60602">
        <ele>478.19995</ele>
        <time>2022-03-12T10:13:01.000Z</time>
      </trkpt>
      <trkpt lat="46.90484" lon="4.60599">
        <ele>477.69995</ele>
        <time>2022-03-12T10:13:03.000Z</time>
      </trkpt>
      <trkpt lat="46.90483" lon="4.60595">
        <ele>477.24994</ele>
        <time>2022-03-12T10:13:06.000Z</time>
      </trkpt>
      <trkpt lat="46.90482" lon="4.60592">
        <ele>476.84995</ele>
        <time>2022-03-12T10:13:08.000Z</time>
      </trkpt>
      <trkpt lat="46.90482" lon="4.60588">
        <ele>476.39996</ele>
        <time>2022-03-12T10:13:11.000Z</time>
      </trkpt>
      <trkpt lat="46.90481" lon="4.60585">
        <ele>475.94995</ele>
        <time>2022-03-12T10:13:13.000Z</time>
      </trkpt>
      <trkpt lat="46.9048" lon="4.60583">
        <ele>475.49994</ele>
        <time>2022-03-12T10:13:15.000Z</time>
      </trkpt>
      <trkpt lat="46.9048" lon="4.6058">
        <ele>475.04996</ele>
        <time>2022-03-12T10:13:17.000Z</time>
      </trkpt>
      <trkpt lat="46.9048" lon="4.60577">
        <ele>474.54996</ele>
        <time>2022-03-12T10:13:19.000Z</time>
      </trkpt>
      <trkpt lat="46.9048" lon="4.60574">
        <ele>474.09995</ele>
        <time>2022-03-12T10:13:21.000Z</time>
      </trkpt>
      <trkpt lat="46.90479" lon="4.60571">
        <ele>473.69995</ele>
        <time>2022-03-12T10:13:23.000Z</time>
      </trkpt>
      <trkpt lat="46.90479" lon="4.60568">
        <ele>473.29996</ele>
        <time>2022-03-12T10:13:25.000Z</time>
      </trkpt>
      <trkpt lat="46.90479" lon="4.60565">
        <ele>472.89996</ele>
        <time>2022-03-12T10:13:27.000Z</time>
      </trkpt>
      <trkpt lat="46.90478" lon="4.60563">
        <ele>472.49994</ele>
        <time>2022-03-12T10:13:29.000Z</time>
      </trkpt>
      <trkpt lat="46.90477" lon="4.6056">
        <ele>472.09995</ele>
        <time>2022-03-12T10:13:31.000Z</time>
      </trkpt>
      <trkpt lat="46.90476" lon="4.60556">
        <ele>471.69995</ele>
        <time>2022-03-12T10:13:34.000Z</time>
      </trkpt>
      <trkpt lat="46.90475" lon="4.60553">
        <ele>471.29996</ele>
        <time>2022-03-12T10:13:37.000Z</time>
      </trkpt>
      <trkpt lat="46.90474" lon="4.60549">
        <ele>470.84995</ele>
        <time>2022-03-12T10:13:40.000Z</time>
      </trkpt>
      <trkpt lat="46.90473" lon="4.60547">
        <ele>470.44995</ele>
        <time>2022-03-12T10:13:42.000Z</time>
      </trkpt>
      <trkpt lat="46.90472" lon="4.60544">
        <ele>470.09995</ele>
        <time>2022-03-12T10:13:44.000Z</time>
      </trkpt>
      <trkpt lat="46.90471" lon="4.60542">
        <ele>469.69995</ele>
        <time>2022-03-12T10:13:46.000Z</time>
      </trkpt>
      <trkpt lat="46.90471" lon="4.60539">
        <ele>469.29996</ele>
        <time>2022-03-12T10:13:48.000Z</time>
      </trkpt>
      <trkpt lat="46.90469" lon="4.60536">
        <ele>468.89996</ele>
        <time>2022-03-12T10:13:51.000Z</time>
      </trkpt>
      <trkpt lat="46.90469" lon="4.60533">
        <ele>468.44995</ele>
        <time>2022-03-12T10:13:53.000Z</time>
      </trkpt>
      <trkpt lat="46.90469" lon="4.6053">
        <ele>467.94995</ele>
        <time>2022-03-12T10:13:55.000Z</time>
      </trkpt>
      <trkpt lat="46.90468" lon="4.60527">
        <ele>467.49994</ele>
        <time>2022-03-12T10:13:58.000Z</time>
      </trkpt>
      <trkpt lat="46.90467" lon="4.60524">
        <ele>466.99994</ele>
        <time>2022-03-12T10:14:00.000Z</time>
      </trkpt>
      <trkpt lat="46.90467" lon="4.60521">
        <ele>466.54996</ele>
        <time>2022-03-12T10:14:02.000Z</time>
      </trkpt>
      <trkpt lat="46.90466" lon="4.60518">
        <ele>466.09995</ele>
        <time>2022-03-12T10:14:04.000Z</time>
      </trkpt>
      <trkpt lat="46.90465" lon="4.60516">
        <ele>465.59995</ele>
        <time>2022-03-12T10:14:06.000Z</time>
      </trkpt>
      <trkpt lat="46.90464" lon="4.60513">
        <ele>465.09995</ele>
        <time>2022-03-12T10:14:08.000Z</time>
      </trkpt>
      <trkpt lat="46.90464" lon="4.6051">
        <ele>464.59995</ele>
        <time>2022-03-12T10:14:10.000Z</time>
      </trkpt>
      <trkpt lat="46.90463" lon="4.60508">
        <ele>464.09995</ele>
        <time>2022-03-12T10:14:12.000Z</time>
      </trkpt>
      <trkpt lat="46.90462" lon="4.60505">
        <ele>463.59995</ele>
        <time>2022-03-12T10:14:14.000Z</time>
      </trkpt>
      <trkpt lat="46.90461" lon="4.60502">
        <ele>463.04996</ele>
        <time>2022-03-12T10:14:16.000Z</time>
      </trkpt>
      <trkpt lat="46.9046" lon="4.60499">
        <ele>462.59995</ele>
        <time>2022-03-12T10:14:18.000Z</time>
      </trkpt>
      <trkpt lat="46.9046" lon="4.60495">
        <ele>462.19995</ele>
        <time>2022-03-12T10:14:21.000Z</time>
      </trkpt>
      <trkpt lat="46.9046" lon="4.60492">
        <ele>461.84995</ele>
        <time>2022-03-12T10:14:23.000Z</time>
      </trkpt>
      <trkpt lat="46.90459" lon="4.6049">
        <ele>461.49994</ele>
        <time>2022-03-12T10:14:26.000Z</time>
      </trkpt>
      <trkpt lat="46.90458" lon="4.60486">
        <ele>461.09995</ele>
        <time>2022-03-12T10:14:29.000Z</time>
      </trkpt>
      <trkpt lat="46.90458" lon="4.60483">
        <ele>460.74994</ele>
        <time>2022-03-12T10:14:32.000Z</time>
      </trkpt>
      <trkpt lat="46.90458" lon="4.60479">
        <ele>460.39996</ele>
        <time>2022-03-12T10:14:35.000Z</time>
      </trkpt>
      <trkpt lat="46.90457" lon="4.60476">
        <ele>459.99994</ele>
        <time>2022-03-12T10:14:37.000Z</time>
      </trkpt>
      <trkpt lat="46.90456" lon="4.60473">
        <ele>459.64996</ele>
        <time>2022-03-12T10:14:39.000Z</time>
      </trkpt>
      <trkpt lat="46.90455" lon="4.60471">
        <ele>459.34995</ele>
        <time>2022-03-12T10:14:41.000Z</time>
      </trkpt>
      <trkpt lat="46.90455" lon="4.60468">
        <ele>458.99994</ele>
        <time>2022-03-12T10:14:43.000Z</time>
      </trkpt>
      <trkpt lat="46.90455" lon="4.60465">
        <ele>458.69995</ele>
        <time>2022-03-12T10:14:45.000Z</time>
      </trkpt>
      <trkpt lat="46.90454" lon="4.60461">
        <ele>458.34995</ele>
        <time>2022-03-12T10:14:47.000Z</time>
      </trkpt>
      <trkpt lat="46.90454" lon="4.60457">
        <ele>457.99994</ele>
        <time>2022-03-12T10:14:49.000Z</time>
      </trkpt>
      <trkpt lat="46.90454" lon="4.60454">
        <ele>457.69995</ele>
        <time>2022-03-12T10:14:51.000Z</time>
      </trkpt>
      <trkpt lat="46.90454" lon="4.60451">
        <ele>457.39996</ele>
        <time>2022-03-12T10:14:53.000Z</time>
      </trkpt>
      <trkpt lat="46.90454" lon="4.60448">
        <ele>457.09995</ele>
        <time>2022-03-12T10:14:55.000Z</time>
      </trkpt>
      <trkpt lat="46.90453" lon="4.60445">
        <ele>456.84995</ele>
        <time>2022-03-12T10:14:58.000Z</time>
      </trkpt>
      <trkpt lat="46.90453" lon="4.60442">
        <ele>456.64996</ele>
        <time>2022-03-12T10:15:00.000Z</time>
      </trkpt>
      <trkpt lat="46.90453" lon="4.60439">
        <ele>456.49994</ele>
        <time>2022-03-12T10:15:02.000Z</time>
      </trkpt>
      <trkpt lat="46.90453" lon="4.60436">
        <ele>456.29996</ele>
        <time>2022-03-12T10:15:04.000Z</time>
      </trkpt>
      <trkpt lat="46.90453" lon="4.60432">
        <ele>456.09995</ele>
        <time>2022-03-12T10:15:07.000Z</time>
      </trkpt>
      <trkpt lat="46.90452" lon="4.60429">
        <ele>455.84995</ele>
        <time>2022-03-12T10:15:10.000Z</time>
      </trkpt>
      <trkpt lat="46.90453" lon="4.60425">
        <ele>455.54996</ele>
        <time>2022-03-12T10:15:15.000Z</time>
      </trkpt>
      <trkpt lat="46.90452" lon="4.60421">
        <ele>455.24994</ele>
        <time>2022-03-12T10:15:19.000Z</time>
      </trkpt>
      <trkpt lat="46.90451" lon="4.60418">
        <ele>454.94995</ele>
        <time>2022-03-12T10:15:22.000Z</time>
      </trkpt>
      <trkpt lat="46.9045" lon="4.60416">
        <ele>454.64996</ele>
        <time>2022-03-12T10:15:24.000Z</time>
      </trkpt>
      <trkpt lat="46.9045" lon="4.60412">
        <ele>454.39996</ele>
        <time>2022-03-12T10:15:28.000Z</time>
      </trkpt>
      <trkpt lat="46.90449" lon="4.60409">
        <ele>454.09995</ele>
        <time>2022-03-12T10:15:31.000Z</time>
      </trkpt>
      <trkpt lat="46.90448" lon="4.60405">
        <ele>453.79996</ele>
        <time>2022-03-12T10:15:35.000Z</time>
      </trkpt>
      <trkpt lat="46.90448" lon="4.60402">
        <ele>453.54996</ele>
        <time>2022-03-12T10:15:37.000Z</time>
      </trkpt>
      <trkpt lat="46.90447" lon="4.60399">
        <ele>453.24994</ele>
        <time>2022-03-12T10:15:40.000Z</time>
      </trkpt>
      <trkpt lat="46.90446" lon="4.60396">
        <ele>452.94995</ele>
        <time>2022-03-12T10:15:42.000Z</time>
      </trkpt>
      <trkpt lat="46.90446" lon="4.60393">
        <ele>452.64996</ele>
        <time>2022-03-12T10:15:45.000Z</time>
      </trkpt>
      <trkpt lat="46.90446" lon="4.6039">
        <ele>452.29996</ele>
        <time>2022-03-12T10:15:48.000Z</time>
      </trkpt>
      <trkpt lat="46.90445" lon="4.60387">
        <ele>451.89996</ele>
        <time>2022-03-12T10:15:50.000Z</time>
      </trkpt>
      <trkpt lat="46.90444" lon="4.60385">
        <ele>451.54996</ele>
        <time>2022-03-12T10:15:52.000Z</time>
      </trkpt>
      <trkpt lat="46.90444" lon="4.60382">
        <ele>451.19995</ele>
        <time>2022-03-12T10:15:54.000Z</time>
      </trkpt>
      <trkpt lat="46.90443" lon="4.60379">
        <ele>450.74994</ele>
        <time>2022-03-12T10:15:56.000Z</time>
      </trkpt>
      <trkpt lat="46.90443" lon="4.60376">
        <ele>450.29996</ele>
        <time>2022-03-12T10:15:58.000Z</time>
      </trkpt>
      <trkpt lat="46.90442" lon="4.60373">
        <ele>449.79996</ele>
        <time>2022-03-12T10:16:01.000Z</time>
      </trkpt>
      <trkpt lat="46.90442" lon="4.6037">
        <ele>449.24994</ele>
        <time>2022-03-12T10:16:04.000Z</time>
      </trkpt>
      <trkpt lat="46.90441" lon="4.60367">
        <ele>448.74994</ele>
        <time>2022-03-12T10:16:06.000Z</time>
      </trkpt>
      <trkpt lat="46.9044" lon="4.60362">
        <ele>448.09995</ele>
        <time>2022-03-12T10:16:12.000Z</time>
      </trkpt>
      <trkpt lat="46.90439" lon="4.6036">
        <ele>447.49994</ele>
        <time>2022-03-12T10:16:14.000Z</time>
      </trkpt>
      <trkpt lat="46.90437" lon="4.60356">
        <ele>446.84995</ele>
        <time>2022-03-12T10:16:16.000Z</time>
      </trkpt>
      <trkpt lat="46.90436" lon="4.60353">
        <ele>446.19995</ele>
        <time>2022-03-12T10:16:18.000Z</time>
      </trkpt>
      <trkpt lat="46.90435" lon="4.60349">
        <ele>445.54996</ele>
        <time>2022-03-12T10:16:20.000Z</time>
      </trkpt>
      <trkpt lat="46.90434" lon="4.60347">
        <ele>444.89996</ele>
        <time>2022-03-12T10:16:22.000Z</time>
      </trkpt>
      <trkpt lat="46.90433" lon="4.60344">
        <ele>444.24994</ele>
        <time>2022-03-12T10:16:24.000Z</time>
      </trkpt>
      <trkpt lat="46.90432" lon="4.60341">
        <ele>443.54996</ele>
        <time>2022-03-12T10:16:27.000Z</time>
      </trkpt>
      <trkpt lat="46.90431" lon="4.60337">
        <ele>442.79996</ele>
        <time>2022-03-12T10:16:30.000Z</time>
      </trkpt>
      <trkpt lat="46.90431" lon="4.60334">
        <ele>442.04996</ele>
        <time>2022-03-12T10:16:32.000Z</time>
      </trkpt>
      <trkpt lat="46.9043" lon="4.60331">
        <ele>441.29996</ele>
        <time>2022-03-12T10:16:34.000Z</time>
      </trkpt>
      <trkpt lat="46.90429" lon="4.60328">
        <ele>440.59995</ele>
        <time>2022-03-12T10:16:37.000Z</time>
      </trkpt>
      <trkpt lat="46.90428" lon="4.60325">
        <ele>439.89996</ele>
        <time>2022-03-12T10:16:39.000Z</time>
      </trkpt>
      <trkpt lat="46.90428" lon="4.60322">
        <ele>439.19995</ele>
        <time>2022-03-12T10:16:41.000Z</time>
      </trkpt>
      <trkpt lat="46.90427" lon="4.60319">
        <ele>438.44995</ele>
        <time>2022-03-12T10:16:43.000Z</time>
      </trkpt>
      <trkpt lat="46.90427" lon="4.60316">
        <ele>437.69995</ele>
        <time>2022-03-12T10:16:45.000Z</time>
      </trkpt>
      <trkpt lat="46.90427" lon="4.60313">
        <ele>436.89996</ele>
        <time>2022-03-12T10:16:47.000Z</time>
      </trkpt>
      <trkpt lat="46.90427" lon="4.60309">
        <ele>436.14996</ele>
        <time>2022-03-12T10:16:50.000Z</time>
      </trkpt>
      <trkpt lat="46.90427" lon="4.60307">
        <ele>435.44995</ele>
        <time>2022-03-12T10:16:52.000Z</time>
      </trkpt>
      <trkpt lat="46.90426" lon="4.60303">
        <ele>434.74994</ele>
        <time>2022-03-12T10:16:55.000Z</time>
      </trkpt>
      <trkpt lat="46.90426" lon="4.60299">
        <ele>434.24994</ele>
        <time>2022-03-12T10:16:58.000Z</time>
      </trkpt>
      <trkpt lat="46.90426" lon="4.60296">
        <ele>433.74994</ele>
        <time>2022-03-12T10:17:00.000Z</time>
      </trkpt>
      <trkpt lat="46.90426" lon="4.60293">
        <ele>433.29996</ele>
        <time>2022-03-12T10:17:02.000Z</time>
      </trkpt>
      <trkpt lat="46.90427" lon="4.6029">
        <ele>432.79996</ele>
        <time>2022-03-12T10:17:04.000Z</time>
      </trkpt>
      <trkpt lat="46.90427" lon="4.60287">
        <ele>432.29996</ele>
        <time>2022-03-12T10:17:06.000Z</time>
      </trkpt>
      <trkpt lat="46.90426" lon="4.60284">
        <ele>431.79996</ele>
        <time>2022-03-12T10:17:09.000Z</time>
      </trkpt>
      <trkpt lat="46.90426" lon="4.6028">
        <ele>431.29996</ele>
        <time>2022-03-12T10:17:12.000Z</time>
      </trkpt>
      <trkpt lat="46.90425" lon="4.60277">
        <ele>430.84995</ele>
        <time>2022-03-12T10:17:14.000Z</time>
      </trkpt>
      <trkpt lat="46.90425" lon="4.60274">
        <ele>430.44995</ele>
        <time>2022-03-12T10:17:17.000Z</time>
      </trkpt>
      <trkpt lat="46.90425" lon="4.60271">
        <ele>429.99994</ele>
        <time>2022-03-12T10:17:20.000Z</time>
      </trkpt>
      <trkpt lat="46.90425" lon="4.60268">
        <ele>429.59995</ele>
        <time>2022-03-12T10:17:22.000Z</time>
      </trkpt>
      <trkpt lat="46.90424" lon="4.60264">
        <ele>429.19995</ele>
        <time>2022-03-12T10:17:25.000Z</time>
      </trkpt>
      <trkpt lat="46.90424" lon="4.60261">
        <ele>428.84995</ele>
        <time>2022-03-12T10:17:27.000Z</time>
      </trkpt>
      <trkpt lat="46.90424" lon="4.60258">
        <ele>428.44995</ele>
        <time>2022-03-12T10:17:29.000Z</time>
      </trkpt>
      <trkpt lat="46.90424" lon="4.60254">
        <ele>428.09995</ele>
        <time>2022-03-12T10:17:31.000Z</time>
      </trkpt>
      <trkpt lat="46.90423" lon="4.60251">
        <ele>427.74994</ele>
        <time>2022-03-12T10:17:33.000Z</time>
      </trkpt>
      <trkpt lat="46.90423" lon="4.60248">
        <ele>427.44995</ele>
        <time>2022-03-12T10:17:35.000Z</time>
      </trkpt>
      <trkpt lat="46.90423" lon="4.60244">
        <ele>427.14996</ele>
        <time>2022-03-12T10:17:37.000Z</time>
      </trkpt>
      <trkpt lat="46.90422" lon="4.6024">
        <ele>426.79996</ele>
        <time>2022-03-12T10:17:39.000Z</time>
      </trkpt>
      <trkpt lat="46.90422" lon="4.60238">
        <ele>426.44995</ele>
        <time>2022-03-12T10:17:41.000Z</time>
      </trkpt>
      <trkpt lat="46.90423" lon="4.60235">
        <ele>426.04996</ele>
        <time>2022-03-12T10:17:43.000Z</time>
      </trkpt>
      <trkpt lat="46.90423" lon="4.60232">
        <ele>425.64996</ele>
        <time>2022-03-12T10:17:45.000Z</time>
      </trkpt>
      <trkpt lat="46.90423" lon="4.60229">
        <ele>425.19995</ele>
        <time>2022-03-12T10:17:47.000Z</time>
      </trkpt>
      <trkpt lat="46.90423" lon="4.60225">
        <ele>424.79996</ele>
        <time>2022-03-12T10:17:49.000Z</time>
      </trkpt>
      <trkpt lat="46.90423" lon="4.60222">
        <ele>424.34995</ele>
        <time>2022-03-12T10:17:51.000Z</time>
      </trkpt>
      <trkpt lat="46.90423" lon="4.60218">
        <ele>423.94995</ele>
        <time>2022-03-12T10:17:53.000Z</time>
      </trkpt>
      <trkpt lat="46.90423" lon="4.60214">
        <ele>423.54996</ele>
        <time>2022-03-12T10:17:55.000Z</time>
      </trkpt>
      <trkpt lat="46.90423" lon="4.6021">
        <ele>423.14996</ele>
        <time>2022-03-12T10:17:57.000Z</time>
      </trkpt>
      <trkpt lat="46.90422" lon="4.60206">
        <ele>422.79996</ele>
        <time>2022-03-12T10:17:59.000Z</time>
      </trkpt>
      <trkpt lat="46.90422" lon="4.60203">
        <ele>422.49994</ele>
        <time>2022-03-12T10:18:01.000Z</time>
      </trkpt>
      <trkpt lat="46.90421" lon="4.60201">
        <ele>422.14996</ele>
        <time>2022-03-12T10:18:03.000Z</time>
      </trkpt>
      <trkpt lat="46.90421" lon="4.60197">
        <ele>421.79996</ele>
        <time>2022-03-12T10:18:05.000Z</time>
      </trkpt>
      <trkpt lat="46.90421" lon="4.60193">
        <ele>421.39996</ele>
        <time>2022-03-12T10:18:08.000Z</time>
      </trkpt>
      <trkpt lat="46.90422" lon="4.6019">
        <ele>421.04996</ele>
        <time>2022-03-12T10:18:10.000Z</time>
      </trkpt>
      <trkpt lat="46.90421" lon="4.60186">
        <ele>420.69995</ele>
        <time>2022-03-12T10:18:12.000Z</time>
      </trkpt>
      <trkpt lat="46.90421" lon="4.60183">
        <ele>420.44995</ele>
        <time>2022-03-12T10:18:15.000Z</time>
      </trkpt>
      <trkpt lat="46.9042" lon="4.6018">
        <ele>420.19995</ele>
        <time>2022-03-12T10:18:17.000Z</time>
      </trkpt>
      <trkpt lat="46.9042" lon="4.60176">
        <ele>419.94995</ele>
        <time>2022-03-12T10:18:19.000Z</time>
      </trkpt>
      <trkpt lat="46.9042" lon="4.60173">
        <ele>419.74994</ele>
        <time>2022-03-12T10:18:21.000Z</time>
      </trkpt>
      <trkpt lat="46.9042" lon="4.6017">
        <ele>419.54996</ele>
        <time>2022-03-12T10:18:23.000Z</time>
      </trkpt>
      <trkpt lat="46.90421" lon="4.60167">
        <ele>419.34995</ele>
        <time>2022-03-12T10:18:25.000Z</time>
      </trkpt>
      <trkpt lat="46.90422" lon="4.60163">
        <ele>419.14996</ele>
        <time>2022-03-12T10:18:27.000Z</time>
      </trkpt>
      <trkpt lat="46.90423" lon="4.6016">
        <ele>418.99994</ele>
        <time>2022-03-12T10:18:29.000Z</time>
      </trkpt>
      <trkpt lat="46.90424" lon="4.60156">
        <ele>418.79996</ele>
        <time>2022-03-12T10:18:31.000Z</time>
      </trkpt>
      <trkpt lat="46.90424" lon="4.60152">
        <ele>418.64996</ele>
        <time>2022-03-12T10:18:33.000Z</time>
      </trkpt>
      <trkpt lat="46.90424" lon="4.6015">
        <ele>418.49994</ele>
        <time>2022-03-12T10:18:35.000Z</time>
      </trkpt>
      <trkpt lat="46.90424" lon="4.60147">
        <ele>418.34995</ele>
        <time>2022-03-12T10:18:38.000Z</time>
      </trkpt>
      <trkpt lat="46.90424" lon="4.60143">
        <ele>418.14996</ele>
        <time>2022-03-12T10:18:41.000Z</time>
      </trkpt>
      <trkpt lat="46.90424" lon="4.60139">
        <ele>417.94995</ele>
        <time>2022-03-12T10:18:43.000Z</time>
      </trkpt>
      <trkpt lat="46.90424" lon="4.60135">
        <ele>417.74994</ele>
        <time>2022-03-12T10:18:46.000Z</time>
      </trkpt>
      <trkpt lat="46.90423" lon="4.60132">
        <ele>417.59995</ele>
        <time>2022-03-12T10:18:48.000Z</time>
      </trkpt>
      <trkpt lat="46.90424" lon="4.60129">
        <ele>417.39996</ele>
        <time>2022-03-12T10:18:50.000Z</time>
      </trkpt>
      <trkpt lat="46.90424" lon="4.60125">
        <ele>417.14996</ele>
        <time>2022-03-12T10:18:52.000Z</time>
      </trkpt>
      <trkpt lat="46.90425" lon="4.60123">
        <ele>416.84995</ele>
        <time>2022-03-12T10:18:53.000Z</time>
      </trkpt>
      <trkpt lat="46.90426" lon="4.60119">
        <ele>416.54996</ele>
        <time>2022-03-12T10:18:55.000Z</time>
      </trkpt>
      <trkpt lat="46.90427" lon="4.60114">
        <ele>416.19995</ele>
        <time>2022-03-12T10:18:57.000Z</time>
      </trkpt>
      <trkpt lat="46.90427" lon="4.60111">
        <ele>415.79996</ele>
        <time>2022-03-12T10:18:59.000Z</time>
      </trkpt>
      <trkpt lat="46.90427" lon="4.60108">
        <ele>415.39996</ele>
        <time>2022-03-12T10:19:01.000Z</time>
      </trkpt>
      <trkpt lat="46.90427" lon="4.60105">
        <ele>414.94995</ele>
        <time>2022-03-12T10:19:03.000Z</time>
      </trkpt>
      <trkpt lat="46.90428" lon="4.60103">
        <ele>414.44995</ele>
        <time>2022-03-12T10:19:05.000Z</time>
      </trkpt>
      <trkpt lat="46.90428" lon="4.60099">
        <ele>413.99994</ele>
        <time>2022-03-12T10:19:08.000Z</time>
      </trkpt>
      <trkpt lat="46.90429" lon="4.60095">
        <ele>413.54996</ele>
        <time>2022-03-12T10:19:10.000Z</time>
      </trkpt>
      <trkpt lat="46.9043" lon="4.60092">
        <ele>413.04996</ele>
        <time>2022-03-12T10:19:12.000Z</time>
      </trkpt>
      <trkpt lat="46.90429" lon="4.60089">
        <ele>412.54996</ele>
        <time>2022-03-12T10:19:14.000Z</time>
      </trkpt>
      <trkpt lat="46.9043" lon="4.60086">
        <ele>412.04996</ele>
        <time>2022-03-12T10:19:16.000Z</time>
      </trkpt>
      <trkpt lat="46.90431" lon="4.60082">
        <ele>411.54996</ele>
        <time>2022-03-12T10:19:18.000Z</time>
      </trkpt>
      <trkpt lat="46.90431" lon="4.60079">
        <ele>411.04996</ele>
        <time>2022-03-12T10:19:20.000Z</time>
      </trkpt>
      <trkpt lat="46.90432" lon="4.60075">
        <ele>410.59995</ele>
        <time>2022-03-12T10:19:22.000Z</time>
      </trkpt>
      <trkpt lat="46.90432" lon="4.60072">
        <ele>410.14996</ele>
        <time>2022-03-12T10:19:24.000Z</time>
      </trkpt>
      <trkpt lat="46.90433" lon="4.60069">
        <ele>409.64996</ele>
        <time>2022-03-12T10:19:26.000Z</time>
      </trkpt>
      <trkpt lat="46.90434" lon="4.60066">
        <ele>409.14996</ele>
        <time>2022-03-12T10:19:28.000Z</time>
      </trkpt>
      <trkpt lat="46.90434" lon="4.60063">
        <ele>408.69995</ele>
        <time>2022-03-12T10:19:30.000Z</time>
      </trkpt>
      <trkpt lat="46.90435" lon="4.6006">
        <ele>408.34995</ele>
        <time>2022-03-12T10:19:32.000Z</time>
      </trkpt>
      <trkpt lat="46.90436" lon="4.60057">
        <ele>407.99994</ele>
        <time>2022-03-12T10:19:34.000Z</time>
      </trkpt>
      <trkpt lat="46.90436" lon="4.60054">
        <ele>407.64996</ele>
        <time>2022-03-12T10:19:36.000Z</time>
      </trkpt>
      <trkpt lat="46.90437" lon="4.60051">
        <ele>407.24994</ele>
        <time>2022-03-12T10:19:38.000Z</time>
      </trkpt>
      <trkpt lat="46.90437" lon="4.60048">
        <ele>406.94995</ele>
        <time>2022-03-12T10:19:40.000Z</time>
      </trkpt>
      <trkpt lat="46.90438" lon="4.60045">
        <ele>406.59995</ele>
        <time>2022-03-12T10:19:42.000Z</time>
      </trkpt>
      <trkpt lat="46.90439" lon="4.60042">
        <ele>406.29996</ele>
        <time>2022-03-12T10:19:44.000Z</time>
      </trkpt>
      <trkpt lat="46.90439" lon="4.60039">
        <ele>405.99994</ele>
        <time>2022-03-12T10:19:46.000Z</time>
      </trkpt>
      <trkpt lat="46.9044" lon="4.60036">
        <ele>405.69995</ele>
        <time>2022-03-12T10:19:48.000Z</time>
      </trkpt>
      <trkpt lat="46.90441" lon="4.60033">
        <ele>405.34995</ele>
        <time>2022-03-12T10:19:50.000Z</time>
      </trkpt>
      <trkpt lat="46.90443" lon="4.6003">
        <ele>405.04996</ele>
        <time>2022-03-12T10:19:52.000Z</time>
      </trkpt>
      <trkpt lat="46.90443" lon="4.60027">
        <ele>404.79996</ele>
        <time>2022-03-12T10:19:54.000Z</time>
      </trkpt>
      <trkpt lat="46.90444" lon="4.60023">
        <ele>404.49994</ele>
        <time>2022-03-12T10:19:56.000Z</time>
      </trkpt>
      <trkpt lat="46.90444" lon="4.60019">
        <ele>404.24994</ele>
        <time>2022-03-12T10:19:58.000Z</time>
      </trkpt>
      <trkpt lat="46.90445" lon="4.60016">
        <ele>403.94995</ele>
        <time>2022-03-12T10:20:00.000Z</time>
      </trkpt>
      <trkpt lat="46.90447" lon="4.60013">
        <ele>403.59995</ele>
        <time>2022-03-12T10:20:02.000Z</time>
      </trkpt>
      <trkpt lat="46.90448" lon="4.6001">
        <ele>403.24994</ele>
        <time>2022-03-12T10:20:04.000Z</time>
      </trkpt>
      <trkpt lat="46.90449" lon="4.60008">
        <ele>402.89996</ele>
        <time>2022-03-12T10:20:06.000Z</time>
      </trkpt>
      <trkpt lat="46.90449" lon="4.60005">
        <ele>402.54996</ele>
        <time>2022-03-12T10:20:08.000Z</time>
      </trkpt>
      <trkpt lat="46.90451" lon="4.60002">
        <ele>402.24994</ele>
        <time>2022-03-12T10:20:10.000Z</time>
      </trkpt>
      <trkpt lat="46.90452" lon="4.59998">
        <ele>401.89996</ele>
        <time>2022-03-12T10:20:12.000Z</time>
      </trkpt>
      <trkpt lat="46.90453" lon="4.59995">
        <ele>401.59995</ele>
        <time>2022-03-12T10:20:14.000Z</time>
      </trkpt>
      <trkpt lat="46.90454" lon="4.59993">
        <ele>401.24994</ele>
        <time>2022-03-12T10:20:16.000Z</time>
      </trkpt>
      <trkpt lat="46.90455" lon="4.5999">
        <ele>400.94995</ele>
        <time>2022-03-12T10:20:18.000Z</time>
      </trkpt>
      <trkpt lat="46.90456" lon="4.59987">
        <ele>400.54996</ele>
        <time>2022-03-12T10:20:20.000Z</time>
      </trkpt>
      <trkpt lat="46.90458" lon="4.59984">
        <ele>400.19995</ele>
        <time>2022-03-12T10:20:22.000Z</time>
      </trkpt>
      <trkpt lat="46.90458" lon="4.59981">
        <ele>399.84995</ele>
        <time>2022-03-12T10:20:24.000Z</time>
      </trkpt>
      <trkpt lat="46.90459" lon="4.59978">
        <ele>399.49994</ele>
        <time>2022-03-12T10:20:26.000Z</time>
      </trkpt>
      <trkpt lat="46.9046" lon="4.59974">
        <ele>399.09995</ele>
        <time>2022-03-12T10:20:28.000Z</time>
      </trkpt>
      <trkpt lat="46.90461" lon="4.5997">
        <ele>398.74994</ele>
        <time>2022-03-12T10:20:30.000Z</time>
      </trkpt>
      <trkpt lat="46.90462" lon="4.59967">
        <ele>398.34995</ele>
        <time>2022-03-12T10:20:32.000Z</time>
      </trkpt>
      <trkpt lat="46.90462" lon="4.59963">
        <ele>397.89996</ele>
        <time>2022-03-12T10:20:34.000Z</time>
      </trkpt>
      <trkpt lat="46.90463" lon="4.59959">
        <ele>397.49994</ele>
        <time>2022-03-12T10:20:36.000Z</time>
      </trkpt>
      <trkpt lat="46.90464" lon="4.59956">
        <ele>396.99994</ele>
        <time>2022-03-12T10:20:38.000Z</time>
      </trkpt>
      <trkpt lat="46.90465" lon="4.59953">
        <ele>396.49994</ele>
        <time>2022-03-12T10:20:40.000Z</time>
      </trkpt>
      <trkpt lat="46.90466" lon="4.5995">
        <ele>396.04996</ele>
        <time>2022-03-12T10:20:42.000Z</time>
      </trkpt>
      <trkpt lat="46.90467" lon="4.59947">
        <ele>395.59995</ele>
        <time>2022-03-12T10:20:44.000Z</time>
      </trkpt>
      <trkpt lat="46.90467" lon="4.59944">
        <ele>395.14996</ele>
        <time>2022-03-12T10:20:46.000Z</time>
      </trkpt>
      <trkpt lat="46.90469" lon="4.59941">
        <ele>394.69995</ele>
        <time>2022-03-12T10:20:48.000Z</time>
      </trkpt>
      <trkpt lat="46.9047" lon="4.59938">
        <ele>394.14996</ele>
        <time>2022-03-12T10:20:50.000Z</time>
      </trkpt>
      <trkpt lat="46.9047" lon="4.59934">
        <ele>393.59995</ele>
        <time>2022-03-12T10:20:52.000Z</time>
      </trkpt>
      <trkpt lat="46.90471" lon="4.59931">
        <ele>393.04996</ele>
        <time>2022-03-12T10:20:54.000Z</time>
      </trkpt>
      <trkpt lat="46.90472" lon="4.59929">
        <ele>392.54996</ele>
        <time>2022-03-12T10:20:56.000Z</time>
      </trkpt>
      <trkpt lat="46.90472" lon="4.59926">
        <ele>391.99994</ele>
        <time>2022-03-12T10:20:58.000Z</time>
      </trkpt>
      <trkpt lat="46.90474" lon="4.59923">
        <ele>391.54996</ele>
        <time>2022-03-12T10:21:00.000Z</time>
      </trkpt>
      <trkpt lat="46.90474" lon="4.5992">
        <ele>391.04996</ele>
        <time>2022-03-12T10:21:02.000Z</time>
      </trkpt>
      <trkpt lat="46.90475" lon="4.59918">
        <ele>390.54996</ele>
        <time>2022-03-12T10:21:04.000Z</time>
      </trkpt>
      <trkpt lat="46.90475" lon="4.59914">
        <ele>390.14996</ele>
        <time>2022-03-12T10:21:06.000Z</time>
      </trkpt>
      <trkpt lat="46.90476" lon="4.59911">
        <ele>389.79996</ele>
        <time>2022-03-12T10:21:08.000Z</time>
      </trkpt>
      <trkpt lat="46.90477" lon="4.59908">
        <ele>389.39996</ele>
        <time>2022-03-12T10:21:10.000Z</time>
      </trkpt>
      <trkpt lat="46.90478" lon="4.59905">
        <ele>388.99994</ele>
        <time>2022-03-12T10:21:12.000Z</time>
      </trkpt>
      <trkpt lat="46.90479" lon="4.59902">
        <ele>388.69995</ele>
        <time>2022-03-12T10:21:14.000Z</time>
      </trkpt>
      <trkpt lat="46.9048" lon="4.59899">
        <ele>388.39996</ele>
        <time>2022-03-12T10:21:16.000Z</time>
      </trkpt>
      <trkpt lat="46.90482" lon="4.59895">
        <ele>388.14996</ele>
        <time>2022-03-12T10:21:18.000Z</time>
      </trkpt>
      <trkpt lat="46.90482" lon="4.59893">
        <ele>387.94995</ele>
        <time>2022-03-12T10:21:20.000Z</time>
      </trkpt>
      <trkpt lat="46.90483" lon="4.5989">
        <ele>387.74994</ele>
        <time>2022-03-12T10:21:22.000Z</time>
      </trkpt>
      <trkpt lat="46.90484" lon="4.59886">
        <ele>387.54996</ele>
        <time>2022-03-12T10:21:24.000Z</time>
      </trkpt>
      <trkpt lat="46.90485" lon="4.59883">
        <ele>387.39996</ele>
        <time>2022-03-12T10:21:26.000Z</time>
      </trkpt>
      <trkpt lat="46.90486" lon="4.5988">
        <ele>387.19995</ele>
        <time>2022-03-12T10:21:28.000Z</time>
      </trkpt>
      <trkpt lat="46.90487" lon="4.59876">
        <ele>387.04996</ele>
        <time>2022-03-12T10:21:31.000Z</time>
      </trkpt>
      <trkpt lat="46.90487" lon="4.59873">
        <ele>386.94995</ele>
        <time>2022-03-12T10:21:33.000Z</time>
      </trkpt>
      <trkpt lat="46.90488" lon="4.59869">
        <ele>386.89996</ele>
        <time>2022-03-12T10:21:35.000Z</time>
      </trkpt>
      <trkpt lat="46.90489" lon="4.59866">
        <ele>386.84995</ele>
        <time>2022-03-12T10:21:37.000Z</time>
      </trkpt>
      <trkpt lat="46.9049" lon="4.59863">
        <ele>386.79996</ele>
        <time>2022-03-12T10:21:39.000Z</time>
      </trkpt>
      <trkpt lat="46.90491" lon="4.59861">
        <ele>386.69995</ele>
        <time>2022-03-12T10:21:41.000Z</time>
      </trkpt>
      <trkpt lat="46.90493" lon="4.59858">
        <ele>386.64996</ele>
        <time>2022-03-12T10:21:43.000Z</time>
      </trkpt>
      <trkpt lat="46.90495" lon="4.59856">
        <ele>386.64996</ele>
        <time>2022-03-12T10:21:46.000Z</time>
      </trkpt>
      <trkpt lat="46.90497" lon="4.59853">
        <ele>386.54996</ele>
        <time>2022-03-12T10:21:49.000Z</time>
      </trkpt>
      <trkpt lat="46.90499" lon="4.59851">
        <ele>386.44995</ele>
        <time>2022-03-12T10:21:51.000Z</time>
      </trkpt>
      <trkpt lat="46.905" lon="4.59848">
        <ele>386.34995</ele>
        <time>2022-03-12T10:21:53.000Z</time>
      </trkpt>
      <trkpt lat="46.90502" lon="4.59845">
        <ele>386.24994</ele>
        <time>2022-03-12T10:21:55.000Z</time>
      </trkpt>
      <trkpt lat="46.90503" lon="4.59844">
        <ele>386.04996</ele>
        <time>2022-03-12T10:21:57.000Z</time>
      </trkpt>
      <trkpt lat="46.90504" lon="4.59842">
        <ele>385.79996</ele>
        <time>2022-03-12T10:21:59.000Z</time>
      </trkpt>
      <trkpt lat="46.90505" lon="4.59839">
        <ele>385.54996</ele>
        <time>2022-03-12T10:22:02.000Z</time>
      </trkpt>
      <trkpt lat="46.90507" lon="4.59835">
        <ele>385.24994</ele>
        <time>2022-03-12T10:22:04.000Z</time>
      </trkpt>
      <trkpt lat="46.90509" lon="4.59834">
        <ele>384.94995</ele>
        <time>2022-03-12T10:22:06.000Z</time>
      </trkpt>
      <trkpt lat="46.90511" lon="4.59832">
        <ele>384.64996</ele>
        <time>2022-03-12T10:22:08.000Z</time>
      </trkpt>
      <trkpt lat="46.90512" lon="4.59829">
        <ele>384.34995</ele>
        <time>2022-03-12T10:22:11.000Z</time>
      </trkpt>
      <trkpt lat="46.90514" lon="4.59827">
        <ele>384.14996</ele>
        <time>2022-03-12T10:22:14.000Z</time>
      </trkpt>
      <trkpt lat="46.90516" lon="4.59825">
        <ele>383.84995</ele>
        <time>2022-03-12T10:22:16.000Z</time>
      </trkpt>
      <trkpt lat="46.90518" lon="4.59824">
        <ele>383.54996</ele>
        <time>2022-03-12T10:22:18.000Z</time>
      </trkpt>
      <trkpt lat="46.9052" lon="4.59822">
        <ele>383.14996</ele>
        <time>2022-03-12T10:22:20.000Z</time>
      </trkpt>
      <trkpt lat="46.90522" lon="4.5982">
        <ele>382.74994</ele>
        <time>2022-03-12T10:22:22.000Z</time>
      </trkpt>
      <trkpt lat="46.90524" lon="4.59818">
        <ele>382.39996</ele>
        <time>2022-03-12T10:22:24.000Z</time>
      </trkpt>
      <trkpt lat="46.90526" lon="4.59816">
        <ele>381.99994</ele>
        <time>2022-03-12T10:22:26.000Z</time>
      </trkpt>
      <trkpt lat="46.90528" lon="4.59816">
        <ele>381.54996</ele>
        <time>2022-03-12T10:22:28.000Z</time>
      </trkpt>
      <trkpt lat="46.9053" lon="4.59815">
        <ele>381.04996</ele>
        <time>2022-03-12T10:22:30.000Z</time>
      </trkpt>
      <trkpt lat="46.90532" lon="4.59813">
        <ele>380.59995</ele>
        <time>2022-03-12T10:22:32.000Z</time>
      </trkpt>
      <trkpt lat="46.90533" lon="4.59811">
        <ele>380.14996</ele>
        <time>2022-03-12T10:22:34.000Z</time>
      </trkpt>
      <trkpt lat="46.90536" lon="4.59809">
        <ele>379.74994</ele>
        <time>2022-03-12T10:22:36.000Z</time>
      </trkpt>
      <trkpt lat="46.90537" lon="4.59808">
        <ele>379.39996</ele>
        <time>2022-03-12T10:22:38.000Z</time>
      </trkpt>
      <trkpt lat="46.90539" lon="4.59807">
        <ele>379.09995</ele>
        <time>2022-03-12T10:22:40.000Z</time>
      </trkpt>
      <trkpt lat="46.90541" lon="4.59806">
        <ele>378.84995</ele>
        <time>2022-03-12T10:22:42.000Z</time>
      </trkpt>
      <trkpt lat="46.90543" lon="4.59805">
        <ele>378.59995</ele>
        <time>2022-03-12T10:22:44.000Z</time>
      </trkpt>
      <trkpt lat="46.90545" lon="4.59802">
        <ele>378.39996</ele>
        <time>2022-03-12T10:22:46.000Z</time>
      </trkpt>
      <trkpt lat="46.90547" lon="4.59801">
        <ele>378.19995</ele>
        <time>2022-03-12T10:22:48.000Z</time>
      </trkpt>
      <trkpt lat="46.9055" lon="4.59799">
        <ele>377.99994</ele>
        <time>2022-03-12T10:22:50.000Z</time>
      </trkpt>
      <trkpt lat="46.90552" lon="4.59798">
        <ele>377.84995</ele>
        <time>2022-03-12T10:22:52.000Z</time>
      </trkpt>
      <trkpt lat="46.90553" lon="4.59796">
        <ele>377.64996</ele>
        <time>2022-03-12T10:22:54.000Z</time>
      </trkpt>
      <trkpt lat="46.90555" lon="4.59795">
        <ele>377.54996</ele>
        <time>2022-03-12T10:22:56.000Z</time>
      </trkpt>
      <trkpt lat="46.90557" lon="4.59792">
        <ele>377.44995</ele>
        <time>2022-03-12T10:22:58.000Z</time>
      </trkpt>
      <trkpt lat="46.90559" lon="4.5979">
        <ele>377.39996</ele>
        <time>2022-03-12T10:23:00.000Z</time>
      </trkpt>
      <trkpt lat="46.90561" lon="4.59787">
        <ele>377.29996</ele>
        <time>2022-03-12T10:23:03.000Z</time>
      </trkpt>
      <trkpt lat="46.90562" lon="4.59785">
        <ele>377.19995</ele>
        <time>2022-03-12T10:23:05.000Z</time>
      </trkpt>
      <trkpt lat="46.90564" lon="4.59782">
        <ele>377.14996</ele>
        <time>2022-03-12T10:23:07.000Z</time>
      </trkpt>
      <trkpt lat="46.90566" lon="4.59779">
        <ele>377.09995</ele>
        <time>2022-03-12T10:23:09.000Z</time>
      </trkpt>
      <trkpt lat="46.90568" lon="4.59777">
        <ele>377.04996</ele>
        <time>2022-03-12T10:23:11.000Z</time>
      </trkpt>
      <trkpt lat="46.90569" lon="4.59774">
        <ele>376.94995</ele>
        <time>2022-03-12T10:23:14.000Z</time>
      </trkpt>
      <trkpt lat="46.90569" lon="4.59771">
        <ele>376.84995</ele>
        <time>2022-03-12T10:23:16.000Z</time>
      </trkpt>
      <trkpt lat="46.9057" lon="4.59767">
        <ele>376.74994</ele>
        <time>2022-03-12T10:23:18.000Z</time>
      </trkpt>
      <trkpt lat="46.90571" lon="4.59765">
        <ele>376.59995</ele>
        <time>2022-03-12T10:23:20.000Z</time>
      </trkpt>
      <trkpt lat="46.90572" lon="4.59761">
        <ele>376.44995</ele>
        <time>2022-03-12T10:23:22.000Z</time>
      </trkpt>
      <trkpt lat="46.90573" lon="4.59759">
        <ele>376.29996</ele>
        <time>2022-03-12T10:23:24.000Z</time>
      </trkpt>
      <trkpt lat="46.90574" lon="4.59756">
        <ele>376.19995</ele>
        <time>2022-03-12T10:23:26.000Z</time>
      </trkpt>
      <trkpt lat="46.90576" lon="4.59753">
        <ele>376.14996</ele>
        <time>2022-03-12T10:23:28.000Z</time>
      </trkpt>
      <trkpt lat="46.90577" lon="4.5975">
        <ele>376.04996</ele>
        <time>2022-03-12T10:23:30.000Z</time>
      </trkpt>
      <trkpt lat="46.90578" lon="4.59747">
        <ele>375.94995</ele>
        <time>2022-03-12T10:23:32.000Z</time>
      </trkpt>
      <trkpt lat="46.9058" lon="4.59745">
        <ele>375.74994</ele>
        <time>2022-03-12T10:23:34.000Z</time>
      </trkpt>
      <trkpt lat="46.90581" lon="4.59742">
        <ele>375.59995</ele>
        <time>2022-03-12T10:23:36.000Z</time>
      </trkpt>
      <trkpt lat="46.90584" lon="4.59742">
        <ele>375.44995</ele>
        <time>2022-03-12T10:23:45.000Z</time>
      </trkpt>
      <trkpt lat="46.90586" lon="4.59742">
        <ele>375.29996</ele>
        <time>2022-03-12T10:23:48.000Z</time>
      </trkpt>
      <trkpt lat="46.90588" lon="4.59742">
        <ele>375.09995</ele>
        <time>2022-03-12T10:23:50.000Z</time>
      </trkpt>
      <trkpt lat="46.9059" lon="4.59742">
        <ele>374.94995</ele>
        <time>2022-03-12T10:23:52.000Z</time>
      </trkpt>
      <trkpt lat="46.90592" lon="4.59741">
        <ele>374.79996</ele>
        <time>2022-03-12T10:23:54.000Z</time>
      </trkpt>
      <trkpt lat="46.90594" lon="4.59737">
        <ele>374.64996</ele>
        <time>2022-03-12T10:23:56.000Z</time>
      </trkpt>
      <trkpt lat="46.90596" lon="4.59735">
        <ele>374.54996</ele>
        <time>2022-03-12T10:23:58.000Z</time>
      </trkpt>
      <trkpt lat="46.90598" lon="4.59733">
        <ele>374.44995</ele>
        <time>2022-03-12T10:24:00.000Z</time>
      </trkpt>
      <trkpt lat="46.906" lon="4.59731">
        <ele>374.39996</ele>
        <time>2022-03-12T10:24:03.000Z</time>
      </trkpt>
      <trkpt lat="46.90601" lon="4.59729">
        <ele>374.39996</ele>
        <time>2022-03-12T10:24:06.000Z</time>
      </trkpt>
      <trkpt lat="46.90603" lon="4.59727">
        <ele>374.44995</ele>
        <time>2022-03-12T10:24:25.000Z</time>
      </trkpt>
      <trkpt lat="46.90605" lon="4.59726">
        <ele>374.54996</ele>
        <time>2022-03-12T10:24:28.000Z</time>
      </trkpt>
      <trkpt lat="46.90607" lon="4.59724">
        <ele>374.59995</ele>
        <time>2022-03-12T10:24:31.000Z</time>
      </trkpt>
      <trkpt lat="46.90609" lon="4.59723">
        <ele>374.64996</ele>
        <time>2022-03-12T10:24:34.000Z</time>
      </trkpt>
      <trkpt lat="46.9061" lon="4.59722">
        <ele>374.59995</ele>
        <time>2022-03-12T10:24:36.000Z</time>
      </trkpt>
      <trkpt lat="46.90612" lon="4.59722">
        <ele>374.49994</ele>
        <time>2022-03-12T10:24:39.000Z</time>
      </trkpt>
      <trkpt lat="46.90614" lon="4.59721">
        <ele>374.39996</ele>
        <time>2022-03-12T10:24:42.000Z</time>
      </trkpt>
      <trkpt lat="46.90614" lon="4.59717">
        <ele>374.29996</ele>
        <time>2022-03-12T10:26:34.000Z</time>
      </trkpt>
      <trkpt lat="46.90617" lon="4.59715">
        <ele>374.24994</ele>
        <time>2022-03-12T10:26:49.000Z</time>
      </trkpt>
      <trkpt lat="46.90619" lon="4.59715">
        <ele>374.09995</ele>
        <time>2022-03-12T10:26:51.000Z</time>
      </trkpt>
      <trkpt lat="46.90622" lon="4.59715">
        <ele>373.94995</ele>
        <time>2022-03-12T10:26:54.000Z</time>
      </trkpt>
      <trkpt lat="46.90624" lon="4.59714">
        <ele>373.79996</ele>
        <time>2022-03-12T10:26:56.000Z</time>
      </trkpt>
      <trkpt lat="46.90626" lon="4.59713">
        <ele>373.69995</ele>
        <time>2022-03-12T10:26:58.000Z</time>
      </trkpt>
      <trkpt lat="46.90629" lon="4.59713">
        <ele>373.59995</ele>
        <time>2022-03-12T10:27:01.000Z</time>
      </trkpt>
      <trkpt lat="46.90631" lon="4.59712">
        <ele>373.49994</ele>
        <time>2022-03-12T10:27:03.000Z</time>
      </trkpt>
      <trkpt lat="46.90633" lon="4.59712">
        <ele>373.39996</ele>
        <time>2022-03-12T10:27:05.000Z</time>
      </trkpt>
      <trkpt lat="46.90635" lon="4.59711">
        <ele>373.34995</ele>
        <time>2022-03-12T10:27:07.000Z</time>
      </trkpt>
      <trkpt lat="46.90637" lon="4.59708">
        <ele>373.24994</ele>
        <time>2022-03-12T10:27:09.000Z</time>
      </trkpt>
      <trkpt lat="46.90639" lon="4.59706">
        <ele>373.09995</ele>
        <time>2022-03-12T10:27:11.000Z</time>
      </trkpt>
      <trkpt lat="46.90642" lon="4.59704">
        <ele>372.84995</ele>
        <time>2022-03-12T10:27:13.000Z</time>
      </trkpt>
      <trkpt lat="46.90644" lon="4.59702">
        <ele>372.49994</ele>
        <time>2022-03-12T10:27:15.000Z</time>
      </trkpt>
      <trkpt lat="46.90645" lon="4.597">
        <ele>372.14996</ele>
        <time>2022-03-12T10:27:17.000Z</time>
      </trkpt>
      <trkpt lat="46.90647" lon="4.59698">
        <ele>371.84995</ele>
        <time>2022-03-12T10:27:19.000Z</time>
      </trkpt>
      <trkpt lat="46.9065" lon="4.59694">
        <ele>371.44995</ele>
        <time>2022-03-12T10:27:21.000Z</time>
      </trkpt>
      <trkpt lat="46.90652" lon="4.59691">
        <ele>371.04996</ele>
        <time>2022-03-12T10:27:23.000Z</time>
      </trkpt>
      <trkpt lat="46.90654" lon="4.59689">
        <ele>370.64996</ele>
        <time>2022-03-12T10:27:25.000Z</time>
      </trkpt>
      <trkpt lat="46.90656" lon="4.59688">
        <ele>370.29996</ele>
        <time>2022-03-12T10:27:27.000Z</time>
      </trkpt>
      <trkpt lat="46.90658" lon="4.59686">
        <ele>369.94995</ele>
        <time>2022-03-12T10:27:29.000Z</time>
      </trkpt>
      <trkpt lat="46.9066" lon="4.59684">
        <ele>369.59995</ele>
        <time>2022-03-12T10:27:31.000Z</time>
      </trkpt>
      <trkpt lat="46.90662" lon="4.59682">
        <ele>369.24994</ele>
        <time>2022-03-12T10:27:33.000Z</time>
      </trkpt>
      <trkpt lat="46.90663" lon="4.5968">
        <ele>368.94995</ele>
        <time>2022-03-12T10:27:35.000Z</time>
      </trkpt>
      <trkpt lat="46.90665" lon="4.59678">
        <ele>368.59995</ele>
        <time>2022-03-12T10:27:37.000Z</time>
      </trkpt>
      <trkpt lat="46.90668" lon="4.59675">
        <ele>368.24994</ele>
        <time>2022-03-12T10:27:39.000Z</time>
      </trkpt>
      <trkpt lat="46.9067" lon="4.59673">
        <ele>367.84995</ele>
        <time>2022-03-12T10:27:41.000Z</time>
      </trkpt>
      <trkpt lat="46.90672" lon="4.59671">
        <ele>367.44995</ele>
        <time>2022-03-12T10:27:43.000Z</time>
      </trkpt>
      <trkpt lat="46.90674" lon="4.59669">
        <ele>367.04996</ele>
        <time>2022-03-12T10:27:45.000Z</time>
      </trkpt>
      <trkpt lat="46.90677" lon="4.59666">
        <ele>366.64996</ele>
        <time>2022-03-12T10:27:47.000Z</time>
      </trkpt>
      <trkpt lat="46.90678" lon="4.59665">
        <ele>366.29996</ele>
        <time>2022-03-12T10:27:49.000Z</time>
      </trkpt>
      <trkpt lat="46.9068" lon="4.59664">
        <ele>366.04996</ele>
        <time>2022-03-12T10:27:51.000Z</time>
      </trkpt>
      <trkpt lat="46.90682" lon="4.59662">
        <ele>365.84995</ele>
        <time>2022-03-12T10:27:53.000Z</time>
      </trkpt>
      <trkpt lat="46.90684" lon="4.59659">
        <ele>365.64996</ele>
        <time>2022-03-12T10:27:55.000Z</time>
      </trkpt>
      <trkpt lat="46.90686" lon="4.59657">
        <ele>365.44995</ele>
        <time>2022-03-12T10:27:57.000Z</time>
      </trkpt>
      <trkpt lat="46.90688" lon="4.59656">
        <ele>365.19995</ele>
        <time>2022-03-12T10:27:59.000Z</time>
      </trkpt>
      <trkpt lat="46.90691" lon="4.59655">
        <ele>364.99994</ele>
        <time>2022-03-12T10:28:01.000Z</time>
      </trkpt>
      <trkpt lat="46.90693" lon="4.59654">
        <ele>364.84995</ele>
        <time>2022-03-12T10:28:03.000Z</time>
      </trkpt>
      <trkpt lat="46.90697" lon="4.59651">
        <ele>364.69995</ele>
        <time>2022-03-12T10:28:06.000Z</time>
      </trkpt>
      <trkpt lat="46.90699" lon="4.59649">
        <ele>364.54996</ele>
        <time>2022-03-12T10:28:08.000Z</time>
      </trkpt>
      <trkpt lat="46.90701" lon="4.59647">
        <ele>364.39996</ele>
        <time>2022-03-12T10:28:10.000Z</time>
      </trkpt>
      <trkpt lat="46.90704" lon="4.59647">
        <ele>364.24994</ele>
        <time>2022-03-12T10:28:12.000Z</time>
      </trkpt>
      <trkpt lat="46.90706" lon="4.59645">
        <ele>364.14996</ele>
        <time>2022-03-12T10:28:14.000Z</time>
      </trkpt>
      <trkpt lat="46.90709" lon="4.59643">
        <ele>363.99994</ele>
        <time>2022-03-12T10:28:16.000Z</time>
      </trkpt>
      <trkpt lat="46.90711" lon="4.59642">
        <ele>363.94995</ele>
        <time>2022-03-12T10:28:18.000Z</time>
      </trkpt>
      <trkpt lat="46.90714" lon="4.59641">
        <ele>363.89996</ele>
        <time>2022-03-12T10:28:20.000Z</time>
      </trkpt>
      <trkpt lat="46.90716" lon="4.59641">
        <ele>363.89996</ele>
        <time>2022-03-12T10:28:22.000Z</time>
      </trkpt>
      <trkpt lat="46.90718" lon="4.5964">
        <ele>363.89996</ele>
        <time>2022-03-12T10:28:24.000Z</time>
      </trkpt>
      <trkpt lat="46.90721" lon="4.5964">
        <ele>363.84995</ele>
        <time>2022-03-12T10:28:26.000Z</time>
      </trkpt>
      <trkpt lat="46.90723" lon="4.5964">
        <ele>363.79996</ele>
        <time>2022-03-12T10:28:28.000Z</time>
      </trkpt>
      <trkpt lat="46.90726" lon="4.59639">
        <ele>363.74994</ele>
        <time>2022-03-12T10:28:30.000Z</time>
      </trkpt>
      <trkpt lat="46.90729" lon="4.59638">
        <ele>363.64996</ele>
        <time>2022-03-12T10:28:32.000Z</time>
      </trkpt>
      <trkpt lat="46.90731" lon="4.59637">
        <ele>363.49994</ele>
        <time>2022-03-12T10:28:34.000Z</time>
      </trkpt>
      <trkpt lat="46.90734" lon="4.59636">
        <ele>363.39996</ele>
        <time>2022-03-12T10:28:36.000Z</time>
      </trkpt>
      <trkpt lat="46.90735" lon="4.59634">
        <ele>363.34995</ele>
        <time>2022-03-12T10:28:38.000Z</time>
      </trkpt>
      <trkpt lat="46.90737" lon="4.59632">
        <ele>363.29996</ele>
        <time>2022-03-12T10:28:40.000Z</time>
      </trkpt>
      <trkpt lat="46.90739" lon="4.59629">
        <ele>363.29996</ele>
        <time>2022-03-12T10:28:42.000Z</time>
      </trkpt>
      <trkpt lat="46.90741" lon="4.59628">
        <ele>363.29996</ele>
        <time>2022-03-12T10:28:44.000Z</time>
      </trkpt>
      <trkpt lat="46.90743" lon="4.59626">
        <ele>363.29996</ele>
        <time>2022-03-12T10:28:46.000Z</time>
      </trkpt>
      <trkpt lat="46.90744" lon="4.59622">
        <ele>363.29996</ele>
        <time>2022-03-12T10:28:48.000Z</time>
      </trkpt>
      <trkpt lat="46.90745" lon="4.5962">
        <ele>363.29996</ele>
        <time>2022-03-12T10:28:50.000Z</time>
      </trkpt>
      <trkpt lat="46.90745" lon="4.59616">
        <ele>363.29996</ele>
        <time>2022-03-12T10:28:53.000Z</time>
      </trkpt>
      <trkpt lat="46.90746" lon="4.59613">
        <ele>363.24994</ele>
        <time>2022-03-12T10:28:55.000Z</time>
      </trkpt>
      <trkpt lat="46.90746" lon="4.59609">
        <ele>363.19995</ele>
        <time>2022-03-12T10:28:57.000Z</time>
      </trkpt>
      <trkpt lat="46.90747" lon="4.59605">
        <ele>363.09995</ele>
        <time>2022-03-12T10:29:00.000Z</time>
      </trkpt>
      <trkpt lat="46.90747" lon="4.59602">
        <ele>362.94995</ele>
        <time>2022-03-12T10:29:02.000Z</time>
      </trkpt>
      <trkpt lat="46.90748" lon="4.59599">
        <ele>362.84995</ele>
        <time>2022-03-12T10:29:04.000Z</time>
      </trkpt>
      <trkpt lat="46.90748" lon="4.59596">
        <ele>362.79996</ele>
        <time>2022-03-12T10:29:07.000Z</time>
      </trkpt>
      <trkpt lat="46.90748" lon="4.59594">
        <ele>362.84995</ele>
        <time>2022-03-12T10:29:11.000Z</time>
      </trkpt>
      <trkpt lat="46.90747" lon="4.59592">
        <ele>362.94995</ele>
        <time>2022-03-12T10:29:14.000Z</time>
      </trkpt>
      <trkpt lat="46.90746" lon="4.5959">
        <ele>362.94995</ele>
        <time>2022-03-12T10:29:19.000Z</time>
      </trkpt>
      <trkpt lat="46.90746" lon="4.59586">
        <ele>362.89996</ele>
        <time>2022-03-12T10:29:46.000Z</time>
      </trkpt>
      <trkpt lat="46.90746" lon="4.59582">
        <ele>362.84995</ele>
        <time>2022-03-12T10:29:49.000Z</time>
      </trkpt>
      <trkpt lat="46.90748" lon="4.5958">
        <ele>362.74994</ele>
        <time>2022-03-12T10:29:56.000Z</time>
      </trkpt>
      <trkpt lat="46.9075" lon="4.59578">
        <ele>362.64996</ele>
        <time>2022-03-12T10:29:58.000Z</time>
      </trkpt>
      <trkpt lat="46.90751" lon="4.59576">
        <ele>362.59995</ele>
        <time>2022-03-12T10:30:00.000Z</time>
      </trkpt>
      <trkpt lat="46.90753" lon="4.59574">
        <ele>362.59995</ele>
        <time>2022-03-12T10:30:02.000Z</time>
      </trkpt>
      <trkpt lat="46.90754" lon="4.59571">
        <ele>362.59995</ele>
        <time>2022-03-12T10:30:04.000Z</time>
      </trkpt>
      <trkpt lat="46.90756" lon="4.59569">
        <ele>362.64996</ele>
        <time>2022-03-12T10:30:06.000Z</time>
      </trkpt>
      <trkpt lat="46.90758" lon="4.59567">
        <ele>362.74994</ele>
        <time>2022-03-12T10:30:09.000Z</time>
      </trkpt>
      <trkpt lat="46.9076" lon="4.59565">
        <ele>362.84995</ele>
        <time>2022-03-12T10:30:12.000Z</time>
      </trkpt>
      <trkpt lat="46.90762" lon="4.59565">
        <ele>362.99994</ele>
        <time>2022-03-12T10:30:15.000Z</time>
      </trkpt>
      <trkpt lat="46.90764" lon="4.59566">
        <ele>363.24994</ele>
        <time>2022-03-12T10:30:17.000Z</time>
      </trkpt>
      <trkpt lat="46.90766" lon="4.59568">
        <ele>363.49994</ele>
        <time>2022-03-12T10:30:19.000Z</time>
      </trkpt>
      <trkpt lat="46.90768" lon="4.59569">
        <ele>363.79996</ele>
        <time>2022-03-12T10:30:21.000Z</time>
      </trkpt>
      <trkpt lat="46.9077" lon="4.59569">
        <ele>364.09995</ele>
        <time>2022-03-12T10:30:23.000Z</time>
      </trkpt>
      <trkpt lat="46.90771" lon="4.59567">
        <ele>364.29996</ele>
        <time>2022-03-12T10:30:25.000Z</time>
      </trkpt>
      <trkpt lat="46.90771" lon="4.59564">
        <ele>364.39996</ele>
        <time>2022-03-12T10:30:29.000Z</time>
      </trkpt>
      <trkpt lat="46.90772" lon="4.59561">
        <ele>364.44995</ele>
        <time>2022-03-12T10:30:32.000Z</time>
      </trkpt>
      <trkpt lat="46.90773" lon="4.59559">
        <ele>364.29996</ele>
        <time>2022-03-12T10:30:36.000Z</time>
      </trkpt>
      <trkpt lat="46.90775" lon="4.59556">
        <ele>364.29996</ele>
        <time>2022-03-12T10:30:40.000Z</time>
      </trkpt>
      <trkpt lat="46.90775" lon="4.59552">
        <ele>364.29996</ele>
        <time>2022-03-12T10:30:42.000Z</time>
      </trkpt>
      <trkpt lat="46.90774" lon="4.59549">
        <ele>364.39996</ele>
        <time>2022-03-12T10:30:44.000Z</time>
      </trkpt>
      <trkpt lat="46.90771" lon="4.59547">
        <ele>364.49994</ele>
        <time>2022-03-12T10:30:47.000Z</time>
      </trkpt>
      <trkpt lat="46.90768" lon="4.59544">
        <ele>364.54996</ele>
        <time>2022-03-12T10:30:49.000Z</time>
      </trkpt>
      <trkpt lat="46.90766" lon="4.59542">
        <ele>364.59995</ele>
        <time>2022-03-12T10:30:51.000Z</time>
      </trkpt>
      <trkpt lat="46.90764" lon="4.59541">
        <ele>364.59995</ele>
        <time>2022-03-12T10:30:53.000Z</time>
      </trkpt>
      <trkpt lat="46.90762" lon="4.59539">
        <ele>364.59995</ele>
        <time>2022-03-12T10:30:55.000Z</time>
      </trkpt>
      <trkpt lat="46.9076" lon="4.59537">
        <ele>364.49994</ele>
        <time>2022-03-12T10:30:57.000Z</time>
      </trkpt>
      <trkpt lat="46.90757" lon="4.59537">
        <ele>364.34995</ele>
        <time>2022-03-12T10:30:59.000Z</time>
      </trkpt>
      <trkpt lat="46.90755" lon="4.59537">
        <ele>364.24994</ele>
        <time>2022-03-12T10:31:01.000Z</time>
      </trkpt>
      <trkpt lat="46.90753" lon="4.59537">
        <ele>364.14996</ele>
        <time>2022-03-12T10:31:03.000Z</time>
      </trkpt>
      <trkpt lat="46.9075" lon="4.59537">
        <ele>363.99994</ele>
        <time>2022-03-12T10:31:06.000Z</time>
      </trkpt>
      <trkpt lat="46.90748" lon="4.59536">
        <ele>363.84995</ele>
        <time>2022-03-12T10:31:08.000Z</time>
      </trkpt>
      <trkpt lat="46.90746" lon="4.59534">
        <ele>363.64996</ele>
        <time>2022-03-12T10:31:10.000Z</time>
      </trkpt>
      <trkpt lat="46.90745" lon="4.59532">
        <ele>363.54996</ele>
        <time>2022-03-12T10:31:12.000Z</time>
      </trkpt>
      <trkpt lat="46.90743" lon="4.59531">
        <ele>363.44995</ele>
        <time>2022-03-12T10:31:14.000Z</time>
      </trkpt>
      <trkpt lat="46.90741" lon="4.59531">
        <ele>363.39996</ele>
        <time>2022-03-12T10:31:16.000Z</time>
      </trkpt>
      <trkpt lat="46.90739" lon="4.59531">
        <ele>363.34995</ele>
        <time>2022-03-12T10:31:18.000Z</time>
      </trkpt>
      <trkpt lat="46.90736" lon="4.59531">
        <ele>363.44995</ele>
        <time>2022-03-12T10:31:20.000Z</time>
      </trkpt>
      <trkpt lat="46.90734" lon="4.5953">
        <ele>363.54996</ele>
        <time>2022-03-12T10:31:22.000Z</time>
      </trkpt>
      <trkpt lat="46.90733" lon="4.59529">
        <ele>363.64996</ele>
        <time>2022-03-12T10:31:31.000Z</time>
      </trkpt>
      <trkpt lat="46.9073" lon="4.59529">
        <ele>363.74994</ele>
        <time>2022-03-12T10:31:33.000Z</time>
      </trkpt>
      <trkpt lat="46.90728" lon="4.59528">
        <ele>363.84995</ele>
        <time>2022-03-12T10:31:35.000Z</time>
      </trkpt>
      <trkpt lat="46.90726" lon="4.59528">
        <ele>363.94995</ele>
        <time>2022-03-12T10:31:37.000Z</time>
      </trkpt>
      <trkpt lat="46.90723" lon="4.59526">
        <ele>364.09995</ele>
        <time>2022-03-12T10:31:39.000Z</time>
      </trkpt>
      <trkpt lat="46.90721" lon="4.59525">
        <ele>364.24994</ele>
        <time>2022-03-12T10:31:41.000Z</time>
      </trkpt>
      <trkpt lat="46.90718" lon="4.59525">
        <ele>364.34995</ele>
        <time>2022-03-12T10:31:43.000Z</time>
      </trkpt>
      <trkpt lat="46.90717" lon="4.59524">
        <ele>364.44995</ele>
        <time>2022-03-12T10:31:45.000Z</time>
      </trkpt>
      <trkpt lat="46.90715" lon="4.59522">
        <ele>364.59995</ele>
        <time>2022-03-12T10:31:47.000Z</time>
      </trkpt>
      <trkpt lat="46.90712" lon="4.5952">
        <ele>364.64996</ele>
        <time>2022-03-12T10:31:49.000Z</time>
      </trkpt>
      <trkpt lat="46.9071" lon="4.5952">
        <ele>364.59995</ele>
        <time>2022-03-12T10:31:51.000Z</time>
      </trkpt>
      <trkpt lat="46.90708" lon="4.59519">
        <ele>364.54996</ele>
        <time>2022-03-12T10:31:53.000Z</time>
      </trkpt>
      <trkpt lat="46.90705" lon="4.59518">
        <ele>364.49994</ele>
        <time>2022-03-12T10:31:55.000Z</time>
      </trkpt>
      <trkpt lat="46.90703" lon="4.59518">
        <ele>364.44995</ele>
        <time>2022-03-12T10:31:57.000Z</time>
      </trkpt>
      <trkpt lat="46.90701" lon="4.59516">
        <ele>364.29996</ele>
        <time>2022-03-12T10:31:59.000Z</time>
      </trkpt>
      <trkpt lat="46.90698" lon="4.59515">
        <ele>364.09995</ele>
        <time>2022-03-12T10:32:01.000Z</time>
      </trkpt>
      <trkpt lat="46.90696" lon="4.59515">
        <ele>363.94995</ele>
        <time>2022-03-12T10:32:03.000Z</time>
      </trkpt>
      <trkpt lat="46.90693" lon="4.59513">
        <ele>363.79996</ele>
        <time>2022-03-12T10:32:06.000Z</time>
      </trkpt>
      <trkpt lat="46.90691" lon="4.59513">
        <ele>363.54996</ele>
        <time>2022-03-12T10:32:08.000Z</time>
      </trkpt>
      <trkpt lat="46.90689" lon="4.59513">
        <ele>363.24994</ele>
        <time>2022-03-12T10:32:10.000Z</time>
      </trkpt>
      <trkpt lat="46.90687" lon="4.59512">
        <ele>362.99994</ele>
        <time>2022-03-12T10:32:12.000Z</time>
      </trkpt>
      <trkpt lat="46.90685" lon="4.59512">
        <ele>362.69995</ele>
        <time>2022-03-12T10:32:14.000Z</time>
      </trkpt>
      <trkpt lat="46.90683" lon="4.59512">
        <ele>362.44995</ele>
        <time>2022-03-12T10:32:16.000Z</time>
      </trkpt>
      <trkpt lat="46.9068" lon="4.59511">
        <ele>362.29996</ele>
        <time>2022-03-12T10:32:18.000Z</time>
      </trkpt>
      <trkpt lat="46.90679" lon="4.59512">
        <ele>362.04996</ele>
        <time>2022-03-12T10:32:25.000Z</time>
      </trkpt>
      <trkpt lat="46.90677" lon="4.5951">
        <ele>361.79996</ele>
        <time>2022-03-12T10:32:34.000Z</time>
      </trkpt>
      <trkpt lat="46.90675" lon="4.59509">
        <ele>361.64996</ele>
        <time>2022-03-12T10:32:36.000Z</time>
      </trkpt>
      <trkpt lat="46.90674" lon="4.59508">
        <ele>361.54996</ele>
        <time>2022-03-12T10:32:38.000Z</time>
      </trkpt>
      <trkpt lat="46.90672" lon="4.59506">
        <ele>361.39996</ele>
        <time>2022-03-12T10:32:40.000Z</time>
      </trkpt>
      <trkpt lat="46.9067" lon="4.59503">
        <ele>361.29996</ele>
        <time>2022-03-12T10:32:42.000Z</time>
      </trkpt>
      <trkpt lat="46.90668" lon="4.59501">
        <ele>361.29996</ele>
        <time>2022-03-12T10:32:44.000Z</time>
      </trkpt>
      <trkpt lat="46.90666" lon="4.59498">
        <ele>361.29996</ele>
        <time>2022-03-12T10:32:46.000Z</time>
      </trkpt>
      <trkpt lat="46.90665" lon="4.59495">
        <ele>361.29996</ele>
        <time>2022-03-12T10:32:48.000Z</time>
      </trkpt>
      <trkpt lat="46.90663" lon="4.59493">
        <ele>361.29996</ele>
        <time>2022-03-12T10:32:50.000Z</time>
      </trkpt>
      <trkpt lat="46.90662" lon="4.59491">
        <ele>361.29996</ele>
        <time>2022-03-12T10:32:52.000Z</time>
      </trkpt>
      <trkpt lat="46.9066" lon="4.59489">
        <ele>361.39996</ele>
        <time>2022-03-12T10:32:54.000Z</time>
      </trkpt>
      <trkpt lat="46.90657" lon="4.59486">
        <ele>361.49994</ele>
        <time>2022-03-12T10:32:56.000Z</time>
      </trkpt>
      <trkpt lat="46.90656" lon="4.59483">
        <ele>361.54996</ele>
        <time>2022-03-12T10:32:58.000Z</time>
      </trkpt>
      <trkpt lat="46.90653" lon="4.5948">
        <ele>361.69995</ele>
        <time>2022-03-12T10:33:00.000Z</time>
      </trkpt>
      <trkpt lat="46.90651" lon="4.59477">
        <ele>361.84995</ele>
        <time>2022-03-12T10:33:02.000Z</time>
      </trkpt>
      <trkpt lat="46.90649" lon="4.59474">
        <ele>361.99994</ele>
        <time>2022-03-12T10:33:04.000Z</time>
      </trkpt>
      <trkpt lat="46.90647" lon="4.59472">
        <ele>362.14996</ele>
        <time>2022-03-12T10:33:06.000Z</time>
      </trkpt>
      <trkpt lat="46.90645" lon="4.5947">
        <ele>362.24994</ele>
        <time>2022-03-12T10:33:08.000Z</time>
      </trkpt>
      <trkpt lat="46.90644" lon="4.59467">
        <ele>362.24994</ele>
        <time>2022-03-12T10:33:10.000Z</time>
      </trkpt>
      <trkpt lat="46.90642" lon="4.59465">
        <ele>362.29996</ele>
        <time>2022-03-12T10:33:12.000Z</time>
      </trkpt>
      <trkpt lat="46.9064" lon="4.59462">
        <ele>362.29996</ele>
        <time>2022-03-12T10:33:14.000Z</time>
      </trkpt>
      <trkpt lat="46.90638" lon="4.5946">
        <ele>362.24994</ele>
        <time>2022-03-12T10:33:16.000Z</time>
      </trkpt>
      <trkpt lat="46.90636" lon="4.59458">
        <ele>362.14996</ele>
        <time>2022-03-12T10:33:18.000Z</time>
      </trkpt>
      <trkpt lat="46.90634" lon="4.59455">
        <ele>362.04996</ele>
        <time>2022-03-12T10:33:20.000Z</time>
      </trkpt>
      <trkpt lat="46.90632" lon="4.59452">
        <ele>361.99994</ele>
        <time>2022-03-12T10:33:22.000Z</time>
      </trkpt>
      <trkpt lat="46.90629" lon="4.5945">
        <ele>361.89996</ele>
        <time>2022-03-12T10:33:24.000Z</time>
      </trkpt>
      <trkpt lat="46.90626" lon="4.59448">
        <ele>361.84995</ele>
        <time>2022-03-12T10:33:26.000Z</time>
      </trkpt>
      <trkpt lat="46.90624" lon="4.59447">
        <ele>361.79996</ele>
        <time>2022-03-12T10:33:28.000Z</time>
      </trkpt>
      <trkpt lat="46.90622" lon="4.59445">
        <ele>361.74994</ele>
        <time>2022-03-12T10:33:30.000Z</time>
      </trkpt>
      <trkpt lat="46.9062" lon="4.59444">
        <ele>361.84995</ele>
        <time>2022-03-12T10:33:32.000Z</time>
      </trkpt>
      <trkpt lat="46.90618" lon="4.59443">
        <ele>361.94995</ele>
        <time>2022-03-12T10:33:34.000Z</time>
      </trkpt>
      <trkpt lat="46.90615" lon="4.59442">
        <ele>361.99994</ele>
        <time>2022-03-12T10:33:36.000Z</time>
      </trkpt>
      <trkpt lat="46.90613" lon="4.59441">
        <ele>362.09995</ele>
        <time>2022-03-12T10:33:38.000Z</time>
      </trkpt>
      <trkpt lat="46.90611" lon="4.59439">
        <ele>362.09995</ele>
        <time>2022-03-12T10:33:40.000Z</time>
      </trkpt>
      <trkpt lat="46.90608" lon="4.59438">
        <ele>362.09995</ele>
        <time>2022-03-12T10:33:42.000Z</time>
      </trkpt>
      <trkpt lat="46.90606" lon="4.59437">
        <ele>362.04996</ele>
        <time>2022-03-12T10:33:44.000Z</time>
      </trkpt>
      <trkpt lat="46.90602" lon="4.59436">
        <ele>362.04996</ele>
        <time>2022-03-12T10:33:46.000Z</time>
      </trkpt>
      <trkpt lat="46.906" lon="4.59435">
        <ele>362.09995</ele>
        <time>2022-03-12T10:33:48.000Z</time>
      </trkpt>
      <trkpt lat="46.90598" lon="4.59433">
        <ele>362.19995</ele>
        <time>2022-03-12T10:33:50.000Z</time>
      </trkpt>
      <trkpt lat="46.90596" lon="4.59432">
        <ele>362.29996</ele>
        <time>2022-03-12T10:33:52.000Z</time>
      </trkpt>
      <trkpt lat="46.90594" lon="4.5943">
        <ele>362.44995</ele>
        <time>2022-03-12T10:33:54.000Z</time>
      </trkpt>
      <trkpt lat="46.90592" lon="4.59428">
        <ele>362.59995</ele>
        <time>2022-03-12T10:33:56.000Z</time>
      </trkpt>
      <trkpt lat="46.90589" lon="4.59427">
        <ele>362.79996</ele>
        <time>2022-03-12T10:33:58.000Z</time>
      </trkpt>
      <trkpt lat="46.90587" lon="4.59425">
        <ele>362.99994</ele>
        <time>2022-03-12T10:34:00.000Z</time>
      </trkpt>
      <trkpt lat="46.90585" lon="4.59424">
        <ele>363.14996</ele>
        <time>2022-03-12T10:34:02.000Z</time>
      </trkpt>
      <trkpt lat="46.90583" lon="4.59422">
        <ele>363.29996</ele>
        <time>2022-03-12T10:34:04.000Z</time>
      </trkpt>
      <trkpt lat="46.90581" lon="4.5942">
        <ele>363.39996</ele>
        <time>2022-03-12T10:34:06.000Z</time>
      </trkpt>
      <trkpt lat="46.90579" lon="4.59417">
        <ele>363.49994</ele>
        <time>2022-03-12T10:34:08.000Z</time>
      </trkpt>
      <trkpt lat="46.90576" lon="4.59415">
        <ele>363.54996</ele>
        <time>2022-03-12T10:34:10.000Z</time>
      </trkpt>
      <trkpt lat="46.90574" lon="4.59412">
        <ele>363.49994</ele>
        <time>2022-03-12T10:34:12.000Z</time>
      </trkpt>
      <trkpt lat="46.90572" lon="4.5941">
        <ele>363.39996</ele>
        <time>2022-03-12T10:34:14.000Z</time>
      </trkpt>
      <trkpt lat="46.9057" lon="4.59407">
        <ele>363.29996</ele>
        <time>2022-03-12T10:34:16.000Z</time>
      </trkpt>
      <trkpt lat="46.90568" lon="4.59406">
        <ele>363.24994</ele>
        <time>2022-03-12T10:34:18.000Z</time>
      </trkpt>
      <trkpt lat="46.90566" lon="4.59404">
        <ele>363.19995</ele>
        <time>2022-03-12T10:34:20.000Z</time>
      </trkpt>
      <trkpt lat="46.90564" lon="4.59402">
        <ele>363.14996</ele>
        <time>2022-03-12T10:34:22.000Z</time>
      </trkpt>
      <trkpt lat="46.90562" lon="4.594">
        <ele>363.14996</ele>
        <time>2022-03-12T10:34:24.000Z</time>
      </trkpt>
      <trkpt lat="46.9056" lon="4.59397">
        <ele>363.09995</ele>
        <time>2022-03-12T10:34:26.000Z</time>
      </trkpt>
      <trkpt lat="46.90557" lon="4.59396">
        <ele>362.99994</ele>
        <time>2022-03-12T10:34:28.000Z</time>
      </trkpt>
      <trkpt lat="46.90555" lon="4.59394">
        <ele>362.89996</ele>
        <time>2022-03-12T10:34:30.000Z</time>
      </trkpt>
      <trkpt lat="46.90553" lon="4.59392">
        <ele>362.79996</ele>
        <time>2022-03-12T10:34:32.000Z</time>
      </trkpt>
      <trkpt lat="46.90551" lon="4.5939">
        <ele>362.74994</ele>
        <time>2022-03-12T10:34:34.000Z</time>
      </trkpt>
      <trkpt lat="46.9055" lon="4.59389">
        <ele>362.69995</ele>
        <time>2022-03-12T10:34:36.000Z</time>
      </trkpt>
      <trkpt lat="46.90548" lon="4.59387">
        <ele>362.64996</ele>
        <time>2022-03-12T10:34:38.000Z</time>
      </trkpt>
      <trkpt lat="46.90546" lon="4.59384">
        <ele>362.59995</ele>
        <time>2022-03-12T10:34:40.000Z</time>
      </trkpt>
      <trkpt lat="46.90543" lon="4.59382">
        <ele>362.54996</ele>
        <time>2022-03-12T10:34:42.000Z</time>
      </trkpt>
      <trkpt lat="46.9054" lon="4.59381">
        <ele>362.49994</ele>
        <time>2022-03-12T10:34:44.000Z</time>
      </trkpt>
      <trkpt lat="46.90538" lon="4.5938">
        <ele>362.44995</ele>
        <time>2022-03-12T10:34:46.000Z</time>
      </trkpt>
      <trkpt lat="46.90536" lon="4.59378">
        <ele>362.44995</ele>
        <time>2022-03-12T10:34:48.000Z</time>
      </trkpt>
      <trkpt lat="46.90533" lon="4.59376">
        <ele>362.44995</ele>
        <time>2022-03-12T10:34:50.000Z</time>
      </trkpt>
      <trkpt lat="46.90531" lon="4.59375">
        <ele>362.44995</ele>
        <time>2022-03-12T10:34:52.000Z</time>
      </trkpt>
      <trkpt lat="46.90528" lon="4.59374">
        <ele>362.49994</ele>
        <time>2022-03-12T10:34:54.000Z</time>
      </trkpt>
      <trkpt lat="46.90526" lon="4.59373">
        <ele>362.59995</ele>
        <time>2022-03-12T10:34:56.000Z</time>
      </trkpt>
      <trkpt lat="46.90523" lon="4.59372">
        <ele>362.64996</ele>
        <time>2022-03-12T10:34:58.000Z</time>
      </trkpt>
      <trkpt lat="46.90521" lon="4.59371">
        <ele>362.74994</ele>
        <time>2022-03-12T10:35:00.000Z</time>
      </trkpt>
      <trkpt lat="46.90519" lon="4.5937">
        <ele>362.84995</ele>
        <time>2022-03-12T10:35:02.000Z</time>
      </trkpt>
      <trkpt lat="46.90516" lon="4.59369">
        <ele>362.94995</ele>
        <time>2022-03-12T10:35:04.000Z</time>
      </trkpt>
      <trkpt lat="46.90514" lon="4.59368">
        <ele>363.09995</ele>
        <time>2022-03-12T10:35:06.000Z</time>
      </trkpt>
      <trkpt lat="46.90512" lon="4.59367">
        <ele>363.29996</ele>
        <time>2022-03-12T10:35:08.000Z</time>
      </trkpt>
      <trkpt lat="46.90511" lon="4.59364">
        <ele>363.49994</ele>
        <time>2022-03-12T10:35:10.000Z</time>
      </trkpt>
      <trkpt lat="46.9051" lon="4.59361">
        <ele>363.69995</ele>
        <time>2022-03-12T10:35:13.000Z</time>
      </trkpt>
      <trkpt lat="46.9051" lon="4.59358">
        <ele>363.89996</ele>
        <time>2022-03-12T10:35:15.000Z</time>
      </trkpt>
      <trkpt lat="46.90509" lon="4.59354">
        <ele>364.14996</ele>
        <time>2022-03-12T10:35:18.000Z</time>
      </trkpt>
      <trkpt lat="46.90509" lon="4.59351">
        <ele>364.39996</ele>
        <time>2022-03-12T10:35:20.000Z</time>
      </trkpt>
      <trkpt lat="46.90508" lon="4.59348">
        <ele>364.64996</ele>
        <time>2022-03-12T10:35:23.000Z</time>
      </trkpt>
      <trkpt lat="46.90508" lon="4.59345">
        <ele>364.89996</ele>
        <time>2022-03-12T10:35:25.000Z</time>
      </trkpt>
      <trkpt lat="46.90508" lon="4.59342">
        <ele>365.14996</ele>
        <time>2022-03-12T10:35:27.000Z</time>
      </trkpt>
      <trkpt lat="46.90508" lon="4.59338">
        <ele>365.34995</ele>
        <time>2022-03-12T10:35:29.000Z</time>
      </trkpt>
      <trkpt lat="46.90508" lon="4.59336">
        <ele>365.54996</ele>
        <time>2022-03-12T10:35:31.000Z</time>
      </trkpt>
      <trkpt lat="46.90508" lon="4.59333">
        <ele>365.74994</ele>
        <time>2022-03-12T10:35:33.000Z</time>
      </trkpt>
      <trkpt lat="46.90507" lon="4.59329">
        <ele>365.94995</ele>
        <time>2022-03-12T10:35:36.000Z</time>
      </trkpt>
      <trkpt lat="46.90507" lon="4.59326">
        <ele>366.14996</ele>
        <time>2022-03-12T10:35:38.000Z</time>
      </trkpt>
      <trkpt lat="46.90506" lon="4.59323">
        <ele>366.24994</ele>
        <time>2022-03-12T10:35:40.000Z</time>
      </trkpt>
      <trkpt lat="46.90506" lon="4.59321">
        <ele>366.34995</ele>
        <time>2022-03-12T10:35:42.000Z</time>
      </trkpt>
      <trkpt lat="46.90506" lon="4.59317">
        <ele>366.44995</ele>
        <time>2022-03-12T10:35:45.000Z</time>
      </trkpt>
      <trkpt lat="46.90505" lon="4.59314">
        <ele>366.49994</ele>
        <time>2022-03-12T10:35:48.000Z</time>
      </trkpt>
      <trkpt lat="46.90505" lon="4.59309">
        <ele>366.54996</ele>
        <time>2022-03-12T10:35:51.000Z</time>
      </trkpt>
      <trkpt lat="46.90505" lon="4.59306">
        <ele>366.54996</ele>
        <time>2022-03-12T10:35:54.000Z</time>
      </trkpt>
      <trkpt lat="46.90505" lon="4.59303">
        <ele>366.59995</ele>
        <time>2022-03-12T10:35:56.000Z</time>
      </trkpt>
      <trkpt lat="46.90504" lon="4.59301">
        <ele>366.64996</ele>
        <time>2022-03-12T10:35:58.000Z</time>
      </trkpt>
      <trkpt lat="46.90504" lon="4.59298">
        <ele>366.69995</ele>
        <time>2022-03-12T10:36:00.000Z</time>
      </trkpt>
      <trkpt lat="46.90505" lon="4.59295">
        <ele>366.69995</ele>
        <time>2022-03-12T10:36:02.000Z</time>
      </trkpt>
      <trkpt lat="46.90505" lon="4.59292">
        <ele>366.69995</ele>
        <time>2022-03-12T10:36:05.000Z</time>
      </trkpt>
      <trkpt lat="46.90504" lon="4.59288">
        <ele>366.74994</ele>
        <time>2022-03-12T10:36:09.000Z</time>
      </trkpt>
      <trkpt lat="46.90505" lon="4.59285">
        <ele>366.79996</ele>
        <time>2022-03-12T10:36:12.000Z</time>
      </trkpt>
      <trkpt lat="46.90504" lon="4.59282">
        <ele>366.89996</ele>
        <time>2022-03-12T10:36:14.000Z</time>
      </trkpt>
      <trkpt lat="46.90503" lon="4.59279">
        <ele>367.04996</ele>
        <time>2022-03-12T10:36:17.000Z</time>
      </trkpt>
      <trkpt lat="46.90503" lon="4.59276">
        <ele>367.19995</ele>
        <time>2022-03-12T10:36:20.000Z</time>
      </trkpt>
      <trkpt lat="46.90503" lon="4.59274">
        <ele>367.34995</ele>
        <time>2022-03-12T10:36:23.000Z</time>
      </trkpt>
      <trkpt lat="46.90502" lon="4.59271">
        <ele>367.64996</ele>
        <time>2022-03-12T10:36:26.000Z</time>
      </trkpt>
      <trkpt lat="46.90502" lon="4.59267">
        <ele>367.94995</ele>
        <time>2022-03-12T10:36:30.000Z</time>
      </trkpt>
      <trkpt lat="46.90502" lon="4.59264">
        <ele>368.29996</ele>
        <time>2022-03-12T10:36:33.000Z</time>
      </trkpt>
      <trkpt lat="46.90503" lon="4.59262">
        <ele>368.69995</ele>
        <time>2022-03-12T10:36:36.000Z</time>
      </trkpt>
      <trkpt lat="46.90502" lon="4.59258">
        <ele>369.09995</ele>
        <time>2022-03-12T10:36:39.000Z</time>
      </trkpt>
      <trkpt lat="46.90502" lon="4.59255">
        <ele>369.54996</ele>
        <time>2022-03-12T10:36:41.000Z</time>
      </trkpt>
      <trkpt lat="46.90503" lon="4.59252">
        <ele>370.04996</ele>
        <time>2022-03-12T10:36:45.000Z</time>
      </trkpt>
      <trkpt lat="46.90503" lon="4.59248">
        <ele>370.59995</ele>
        <time>2022-03-12T10:36:48.000Z</time>
      </trkpt>
      <trkpt lat="46.90503" lon="4.59246">
        <ele>371.19995</ele>
        <time>2022-03-12T10:36:52.000Z</time>
      </trkpt>
      <trkpt lat="46.90504" lon="4.59242">
        <ele>371.79996</ele>
        <time>2022-03-12T10:36:55.000Z</time>
      </trkpt>
      <trkpt lat="46.90505" lon="4.59239">
        <ele>372.34995</ele>
        <time>2022-03-12T10:36:59.000Z</time>
      </trkpt>
      <trkpt lat="46.90506" lon="4.59236">
        <ele>372.94995</ele>
        <time>2022-03-12T10:37:02.000Z</time>
      </trkpt>
      <trkpt lat="46.90505" lon="4.59233">
        <ele>373.59995</ele>
        <time>2022-03-12T10:37:05.000Z</time>
      </trkpt>
      <trkpt lat="46.90505" lon="4.5923">
        <ele>374.24994</ele>
        <time>2022-03-12T10:37:08.000Z</time>
      </trkpt>
      <trkpt lat="46.90505" lon="4.59227">
        <ele>374.89996</ele>
        <time>2022-03-12T10:37:11.000Z</time>
      </trkpt>
      <trkpt lat="46.90504" lon="4.59224">
        <ele>375.59995</ele>
        <time>2022-03-12T10:37:15.000Z</time>
      </trkpt>
      <trkpt lat="46.90504" lon="4.59222">
        <ele>376.29996</ele>
        <time>2022-03-12T10:37:19.000Z</time>
      </trkpt>
      <trkpt lat="46.90503" lon="4.59219">
        <ele>376.99994</ele>
        <time>2022-03-12T10:37:23.000Z</time>
      </trkpt>
      <trkpt lat="46.90502" lon="4.59217">
        <ele>377.84995</ele>
        <time>2022-03-12T10:37:27.000Z</time>
      </trkpt>
      <trkpt lat="46.90501" lon="4.59214">
        <ele>378.69995</ele>
        <time>2022-03-12T10:37:32.000Z</time>
      </trkpt>
      <trkpt lat="46.90499" lon="4.59213">
        <ele>379.54996</ele>
        <time>2022-03-12T10:37:36.000Z</time>
      </trkpt>
      <trkpt lat="46.90499" lon="4.5921">
        <ele>380.44995</ele>
        <time>2022-03-12T10:37:42.000Z</time>
      </trkpt>
      <trkpt lat="46.90497" lon="4.59209">
        <ele>381.29996</ele>
        <time>2022-03-12T10:37:45.000Z</time>
      </trkpt>
      <trkpt lat="46.90495" lon="4.59208">
        <ele>382.19995</ele>
        <time>2022-03-12T10:37:48.000Z</time>
      </trkpt>
      <trkpt lat="46.90494" lon="4.59206">
        <ele>383.19995</ele>
        <time>2022-03-12T10:37:52.000Z</time>
      </trkpt>
      <trkpt lat="46.90492" lon="4.59204">
        <ele>384.09995</ele>
        <time>2022-03-12T10:37:55.000Z</time>
      </trkpt>
      <trkpt lat="46.9049" lon="4.59202">
        <ele>385.04996</ele>
        <time>2022-03-12T10:37:58.000Z</time>
      </trkpt>
      <trkpt lat="46.90489" lon="4.592">
        <ele>385.94995</ele>
        <time>2022-03-12T10:38:02.000Z</time>
      </trkpt>
      <trkpt lat="46.90487" lon="4.59197">
        <ele>386.79996</ele>
        <time>2022-03-12T10:38:06.000Z</time>
      </trkpt>
      <trkpt lat="46.90486" lon="4.59194">
        <ele>387.64996</ele>
        <time>2022-03-12T10:38:10.000Z</time>
      </trkpt>
      <trkpt lat="46.90484" lon="4.59192">
        <ele>388.54996</ele>
        <time>2022-03-12T10:38:14.000Z</time>
      </trkpt>
      <trkpt lat="46.90483" lon="4.5919">
        <ele>389.44995</ele>
        <time>2022-03-12T10:38:17.000Z</time>
      </trkpt>
      <trkpt lat="46.90481" lon="4.59188">
        <ele>390.34995</ele>
        <time>2022-03-12T10:38:21.000Z</time>
      </trkpt>
      <trkpt lat="46.9048" lon="4.59186">
        <ele>391.19995</ele>
        <time>2022-03-12T10:38:24.000Z</time>
      </trkpt>
      <trkpt lat="46.90478" lon="4.59183">
        <ele>391.99994</ele>
        <time>2022-03-12T10:38:29.000Z</time>
      </trkpt>
      <trkpt lat="46.90477" lon="4.5918">
        <ele>392.79996</ele>
        <time>2022-03-12T10:38:33.000Z</time>
      </trkpt>
      <trkpt lat="46.90475" lon="4.59179">
        <ele>393.54996</ele>
        <time>2022-03-12T10:38:36.000Z</time>
      </trkpt>
      <trkpt lat="46.90473" lon="4.59178">
        <ele>394.24994</ele>
        <time>2022-03-12T10:38:39.000Z</time>
      </trkpt>
      <trkpt lat="46.90471" lon="4.59176">
        <ele>394.89996</ele>
        <time>2022-03-12T10:38:42.000Z</time>
      </trkpt>
      <trkpt lat="46.9047" lon="4.59173">
        <ele>395.49994</ele>
        <time>2022-03-12T10:38:45.000Z</time>
      </trkpt>
      <trkpt lat="46.90469" lon="4.59171">
        <ele>395.99994</ele>
        <time>2022-03-12T10:38:48.000Z</time>
      </trkpt>
      <trkpt lat="46.90467" lon="4.59169">
        <ele>396.44995</ele>
        <time>2022-03-12T10:38:51.000Z</time>
      </trkpt>
      <trkpt lat="46.90466" lon="4.59167">
        <ele>396.89996</ele>
        <time>2022-03-12T10:38:54.000Z</time>
      </trkpt>
      <trkpt lat="46.90465" lon="4.59164">
        <ele>397.24994</ele>
        <time>2022-03-12T10:38:57.000Z</time>
      </trkpt>
      <trkpt lat="46.90464" lon="4.59162">
        <ele>397.59995</ele>
        <time>2022-03-12T10:39:01.000Z</time>
      </trkpt>
      <trkpt lat="46.90462" lon="4.59159">
        <ele>397.99994</ele>
        <time>2022-03-12T10:39:04.000Z</time>
      </trkpt>
      <trkpt lat="46.90461" lon="4.59157">
        <ele>398.39996</ele>
        <time>2022-03-12T10:39:07.000Z</time>
      </trkpt>
      <trkpt lat="46.9046" lon="4.59155">
        <ele>398.79996</ele>
        <time>2022-03-12T10:39:11.000Z</time>
      </trkpt>
      <trkpt lat="46.90459" lon="4.59152">
        <ele>399.24994</ele>
        <time>2022-03-12T10:39:14.000Z</time>
      </trkpt>
      <trkpt lat="46.90458" lon="4.59149">
        <ele>399.64996</ele>
        <time>2022-03-12T10:39:17.000Z</time>
      </trkpt>
      <trkpt lat="46.90456" lon="4.59147">
        <ele>400.09995</ele>
        <time>2022-03-12T10:39:21.000Z</time>
      </trkpt>
      <trkpt lat="46.90455" lon="4.59144">
        <ele>400.44995</ele>
        <time>2022-03-12T10:39:25.000Z</time>
      </trkpt>
      <trkpt lat="46.90453" lon="4.5914">
        <ele>400.74994</ele>
        <time>2022-03-12T10:39:28.000Z</time>
      </trkpt>
      <trkpt lat="46.90453" lon="4.59136">
        <ele>401.09995</ele>
        <time>2022-03-12T10:39:31.000Z</time>
      </trkpt>
      <trkpt lat="46.90452" lon="4.59133">
        <ele>401.49994</ele>
        <time>2022-03-12T10:39:34.000Z</time>
      </trkpt>
      <trkpt lat="46.90452" lon="4.5913">
        <ele>401.79996</ele>
        <time>2022-03-12T10:39:38.000Z</time>
      </trkpt>
      <trkpt lat="46.9045" lon="4.59128">
        <ele>402.09995</ele>
        <time>2022-03-12T10:39:41.000Z</time>
      </trkpt>
      <trkpt lat="46.9045" lon="4.59124">
        <ele>402.44995</ele>
        <time>2022-03-12T10:39:45.000Z</time>
      </trkpt>
      <trkpt lat="46.9045" lon="4.59121">
        <ele>402.74994</ele>
        <time>2022-03-12T10:39:48.000Z</time>
      </trkpt>
      <trkpt lat="46.9045" lon="4.59118">
        <ele>403.04996</ele>
        <time>2022-03-12T10:39:51.000Z</time>
      </trkpt>
      <trkpt lat="46.90451" lon="4.59115">
        <ele>403.34995</ele>
        <time>2022-03-12T10:39:55.000Z</time>
      </trkpt>
      <trkpt lat="46.90451" lon="4.59111">
        <ele>403.64996</ele>
        <time>2022-03-12T10:39:58.000Z</time>
      </trkpt>
      <trkpt lat="46.90452" lon="4.59109">
        <ele>403.99994</ele>
        <time>2022-03-12T10:40:02.000Z</time>
      </trkpt>
      <trkpt lat="46.90454" lon="4.59107">
        <ele>404.44995</ele>
        <time>2022-03-12T10:40:05.000Z</time>
      </trkpt>
      <trkpt lat="46.90455" lon="4.59104">
        <ele>404.79996</ele>
        <time>2022-03-12T10:40:08.000Z</time>
      </trkpt>
      <trkpt lat="46.90455" lon="4.59101">
        <ele>405.14996</ele>
        <time>2022-03-12T10:40:11.000Z</time>
      </trkpt>
      <trkpt lat="46.90455" lon="4.59098">
        <ele>405.39996</ele>
        <time>2022-03-12T10:40:15.000Z</time>
      </trkpt>
      <trkpt lat="46.90457" lon="4.59096">
        <ele>405.64996</ele>
        <time>2022-03-12T10:40:18.000Z</time>
      </trkpt>
      <trkpt lat="46.90457" lon="4.59093">
        <ele>405.89996</ele>
        <time>2022-03-12T10:40:23.000Z</time>
      </trkpt>
      <trkpt lat="46.90458" lon="4.5909">
        <ele>406.14996</ele>
        <time>2022-03-12T10:40:26.000Z</time>
      </trkpt>
      <trkpt lat="46.90459" lon="4.59087">
        <ele>406.29996</ele>
        <time>2022-03-12T10:40:29.000Z</time>
      </trkpt>
      <trkpt lat="46.9046" lon="4.59085">
        <ele>406.44995</ele>
        <time>2022-03-12T10:40:31.000Z</time>
      </trkpt>
      <trkpt lat="46.90461" lon="4.59083">
        <ele>406.59995</ele>
        <time>2022-03-12T10:40:34.000Z</time>
      </trkpt>
      <trkpt lat="46.90462" lon="4.59079">
        <ele>406.69995</ele>
        <time>2022-03-12T10:40:37.000Z</time>
      </trkpt>
      <trkpt lat="46.90462" lon="4.59075">
        <ele>406.74994</ele>
        <time>2022-03-12T10:40:40.000Z</time>
      </trkpt>
      <trkpt lat="46.90463" lon="4.59073">
        <ele>406.89996</ele>
        <time>2022-03-12T10:40:43.000Z</time>
      </trkpt>
      <trkpt lat="46.90465" lon="4.59071">
        <ele>407.09995</ele>
        <time>2022-03-12T10:40:48.000Z</time>
      </trkpt>
      <trkpt lat="46.90466" lon="4.59068">
        <ele>407.29996</ele>
        <time>2022-03-12T10:40:52.000Z</time>
      </trkpt>
      <trkpt lat="46.90467" lon="4.59065">
        <ele>407.54996</ele>
        <time>2022-03-12T10:40:55.000Z</time>
      </trkpt>
      <trkpt lat="46.90468" lon="4.59062">
        <ele>407.84995</ele>
        <time>2022-03-12T10:40:57.000Z</time>
      </trkpt>
      <trkpt lat="46.90469" lon="4.59059">
        <ele>408.09995</ele>
        <time>2022-03-12T10:40:59.000Z</time>
      </trkpt>
      <trkpt lat="46.9047" lon="4.59056">
        <ele>408.29996</ele>
        <time>2022-03-12T10:41:01.000Z</time>
      </trkpt>
      <trkpt lat="46.9047" lon="4.59053">
        <ele>408.44995</ele>
        <time>2022-03-12T10:41:04.000Z</time>
      </trkpt>
      <trkpt lat="46.9047" lon="4.59049">
        <ele>408.59995</ele>
        <time>2022-03-12T10:41:07.000Z</time>
      </trkpt>
      <trkpt lat="46.9047" lon="4.59046">
        <ele>408.79996</ele>
        <time>2022-03-12T10:41:10.000Z</time>
      </trkpt>
      <trkpt lat="46.9047" lon="4.59043">
        <ele>408.99994</ele>
        <time>2022-03-12T10:41:12.000Z</time>
      </trkpt>
      <trkpt lat="46.9047" lon="4.5904">
        <ele>409.34995</ele>
        <time>2022-03-12T10:41:15.000Z</time>
      </trkpt>
      <trkpt lat="46.90471" lon="4.59036">
        <ele>409.74994</ele>
        <time>2022-03-12T10:41:18.000Z</time>
      </trkpt>
      <trkpt lat="46.9047" lon="4.59033">
        <ele>410.14996</ele>
        <time>2022-03-12T10:41:21.000Z</time>
      </trkpt>
      <trkpt lat="46.9047" lon="4.59029">
        <ele>410.59995</ele>
        <time>2022-03-12T10:41:24.000Z</time>
      </trkpt>
      <trkpt lat="46.9047" lon="4.59026">
        <ele>411.09995</ele>
        <time>2022-03-12T10:41:27.000Z</time>
      </trkpt>
      <trkpt lat="46.9047" lon="4.59023">
        <ele>411.64996</ele>
        <time>2022-03-12T10:41:30.000Z</time>
      </trkpt>
      <trkpt lat="46.9047" lon="4.5902">
        <ele>412.19995</ele>
        <time>2022-03-12T10:41:33.000Z</time>
      </trkpt>
      <trkpt lat="46.90471" lon="4.59016">
        <ele>412.79996</ele>
        <time>2022-03-12T10:41:37.000Z</time>
      </trkpt>
      <trkpt lat="46.90471" lon="4.59013">
        <ele>413.34995</ele>
        <time>2022-03-12T10:41:41.000Z</time>
      </trkpt>
      <trkpt lat="46.9047" lon="4.59011">
        <ele>413.89996</ele>
        <time>2022-03-12T10:41:44.000Z</time>
      </trkpt>
      <trkpt lat="46.9047" lon="4.59008">
        <ele>414.44995</ele>
        <time>2022-03-12T10:41:47.000Z</time>
      </trkpt>
      <trkpt lat="46.9047" lon="4.59004">
        <ele>414.94995</ele>
        <time>2022-03-12T10:41:50.000Z</time>
      </trkpt>
      <trkpt lat="46.90469" lon="4.59">
        <ele>415.44995</ele>
        <time>2022-03-12T10:41:53.000Z</time>
      </trkpt>
      <trkpt lat="46.90469" lon="4.58997">
        <ele>415.94995</ele>
        <time>2022-03-12T10:41:56.000Z</time>
      </trkpt>
      <trkpt lat="46.90469" lon="4.58993">
        <ele>416.49994</ele>
        <time>2022-03-12T10:41:59.000Z</time>
      </trkpt>
      <trkpt lat="46.90469" lon="4.5899">
        <ele>417.04996</ele>
        <time>2022-03-12T10:42:01.000Z</time>
      </trkpt>
      <trkpt lat="46.90468" lon="4.58987">
        <ele>417.64996</ele>
        <time>2022-03-12T10:42:03.000Z</time>
      </trkpt>
      <trkpt lat="46.90467" lon="4.58985">
        <ele>418.19995</ele>
        <time>2022-03-12T10:42:06.000Z</time>
      </trkpt>
      <trkpt lat="46.90467" lon="4.58982">
        <ele>418.69995</ele>
        <time>2022-03-12T10:42:09.000Z</time>
      </trkpt>
      <trkpt lat="46.90467" lon="4.58978">
        <ele>419.24994</ele>
        <time>2022-03-12T10:42:12.000Z</time>
      </trkpt>
      <trkpt lat="46.90465" lon="4.58975">
        <ele>419.64996</ele>
        <time>2022-03-12T10:42:15.000Z</time>
      </trkpt>
      <trkpt lat="46.90464" lon="4.58971">
        <ele>420.04996</ele>
        <time>2022-03-12T10:42:18.000Z</time>
      </trkpt>
      <trkpt lat="46.90464" lon="4.58968">
        <ele>420.39996</ele>
        <time>2022-03-12T10:42:21.000Z</time>
      </trkpt>
      <trkpt lat="46.90463" lon="4.58965">
        <ele>420.69995</ele>
        <time>2022-03-12T10:42:24.000Z</time>
      </trkpt>
      <trkpt lat="46.90462" lon="4.58962">
        <ele>420.94995</ele>
        <time>2022-03-12T10:42:27.000Z</time>
      </trkpt>
      <trkpt lat="46.90462" lon="4.58959">
        <ele>421.19995</ele>
        <time>2022-03-12T10:42:29.000Z</time>
      </trkpt>
      <trkpt lat="46.90461" lon="4.58956">
        <ele>421.49994</ele>
        <time>2022-03-12T10:42:31.000Z</time>
      </trkpt>
      <trkpt lat="46.9046" lon="4.58953">
        <ele>421.74994</ele>
        <time>2022-03-12T10:42:34.000Z</time>
      </trkpt>
      <trkpt lat="46.9046" lon="4.58951">
        <ele>422.04996</ele>
        <time>2022-03-12T10:42:36.000Z</time>
      </trkpt>
      <trkpt lat="46.90459" lon="4.58948">
        <ele>422.29996</ele>
        <time>2022-03-12T10:42:38.000Z</time>
      </trkpt>
      <trkpt lat="46.90458" lon="4.58946">
        <ele>422.49994</ele>
        <time>2022-03-12T10:42:40.000Z</time>
      </trkpt>
      <trkpt lat="46.90459" lon="4.58943">
        <ele>422.74994</ele>
        <time>2022-03-12T10:42:43.000Z</time>
      </trkpt>
      <trkpt lat="46.90458" lon="4.58939">
        <ele>422.94995</ele>
        <time>2022-03-12T10:42:46.000Z</time>
      </trkpt>
      <trkpt lat="46.90457" lon="4.58937">
        <ele>423.14996</ele>
        <time>2022-03-12T10:42:49.000Z</time>
      </trkpt>
      <trkpt lat="46.90457" lon="4.58934">
        <ele>423.29996</ele>
        <time>2022-03-12T10:42:52.000Z</time>
      </trkpt>
      <trkpt lat="46.90456" lon="4.5893">
        <ele>423.49994</ele>
        <time>2022-03-12T10:42:54.000Z</time>
      </trkpt>
      <trkpt lat="46.90455" lon="4.58927">
        <ele>423.69995</ele>
        <time>2022-03-12T10:42:57.000Z</time>
      </trkpt>
      <trkpt lat="46.90455" lon="4.58924">
        <ele>423.89996</ele>
        <time>2022-03-12T10:43:00.000Z</time>
      </trkpt>
      <trkpt lat="46.90454" lon="4.58921">
        <ele>424.09995</ele>
        <time>2022-03-12T10:43:02.000Z</time>
      </trkpt>
      <trkpt lat="46.90453" lon="4.58918">
        <ele>424.24994</ele>
        <time>2022-03-12T10:43:05.000Z</time>
      </trkpt>
      <trkpt lat="46.90453" lon="4.58914">
        <ele>424.44995</ele>
        <time>2022-03-12T10:43:09.000Z</time>
      </trkpt>
      <trkpt lat="46.90453" lon="4.58911">
        <ele>424.59995</ele>
        <time>2022-03-12T10:43:12.000Z</time>
      </trkpt>
      <trkpt lat="46.90452" lon="4.58908">
        <ele>424.79996</ele>
        <time>2022-03-12T10:43:16.000Z</time>
      </trkpt>
      <trkpt lat="46.90451" lon="4.58906">
        <ele>424.99994</ele>
        <time>2022-03-12T10:43:19.000Z</time>
      </trkpt>
      <trkpt lat="46.90451" lon="4.58903">
        <ele>425.24994</ele>
        <time>2022-03-12T10:43:22.000Z</time>
      </trkpt>
      <trkpt lat="46.90451" lon="4.58899">
        <ele>425.59995</ele>
        <time>2022-03-12T10:43:26.000Z</time>
      </trkpt>
      <trkpt lat="46.90452" lon="4.58897">
        <ele>425.89996</ele>
        <time>2022-03-12T10:43:29.000Z</time>
      </trkpt>
      <trkpt lat="46.90452" lon="4.58895">
        <ele>426.19995</ele>
        <time>2022-03-12T10:43:32.000Z</time>
      </trkpt>
      <trkpt lat="46.90452" lon="4.58892">
        <ele>426.54996</ele>
        <time>2022-03-12T10:43:35.000Z</time>
      </trkpt>
      <trkpt lat="46.90452" lon="4.58889">
        <ele>426.94995</ele>
        <time>2022-03-12T10:43:39.000Z</time>
      </trkpt>
      <trkpt lat="46.90452" lon="4.58886">
        <ele>427.34995</ele>
        <time>2022-03-12T10:43:42.000Z</time>
      </trkpt>
      <trkpt lat="46.90452" lon="4.58883">
        <ele>427.64996</ele>
        <time>2022-03-12T10:43:49.000Z</time>
      </trkpt>
      <trkpt lat="46.90453" lon="4.5888">
        <ele>427.94995</ele>
        <time>2022-03-12T10:43:53.000Z</time>
      </trkpt>
      <trkpt lat="46.90454" lon="4.58877">
        <ele>428.19995</ele>
        <time>2022-03-12T10:43:55.000Z</time>
      </trkpt>
      <trkpt lat="46.90455" lon="4.58875">
        <ele>428.49994</ele>
        <time>2022-03-12T10:43:57.000Z</time>
      </trkpt>
      <trkpt lat="46.90456" lon="4.58872">
        <ele>428.79996</ele>
        <time>2022-03-12T10:44:00.000Z</time>
      </trkpt>
      <trkpt lat="46.90456" lon="4.58869">
        <ele>429.04996</ele>
        <time>2022-03-12T10:44:03.000Z</time>
      </trkpt>
      <trkpt lat="46.90456" lon="4.58865">
        <ele>429.34995</ele>
        <time>2022-03-12T10:44:09.000Z</time>
      </trkpt>
      <trkpt lat="46.90457" lon="4.58862">
        <ele>429.64996</ele>
        <time>2022-03-12T10:44:12.000Z</time>
      </trkpt>
      <trkpt lat="46.90457" lon="4.58859">
        <ele>429.99994</ele>
        <time>2022-03-12T10:44:16.000Z</time>
      </trkpt>
      <trkpt lat="46.90458" lon="4.58856">
        <ele>430.39996</ele>
        <time>2022-03-12T10:44:19.000Z</time>
      </trkpt>
      <trkpt lat="46.90458" lon="4.58853">
        <ele>430.84995</ele>
        <time>2022-03-12T10:44:21.000Z</time>
      </trkpt>
      <trkpt lat="46.90458" lon="4.58849">
        <ele>431.24994</ele>
        <time>2022-03-12T10:44:23.000Z</time>
      </trkpt>
      <trkpt lat="46.90458" lon="4.58846">
        <ele>431.59995</ele>
        <time>2022-03-12T10:44:25.000Z</time>
      </trkpt>
      <trkpt lat="46.90459" lon="4.58844">
        <ele>431.94995</ele>
        <time>2022-03-12T10:44:27.000Z</time>
      </trkpt>
      <trkpt lat="46.90459" lon="4.58841">
        <ele>432.24994</ele>
        <time>2022-03-12T10:44:29.000Z</time>
      </trkpt>
      <trkpt lat="46.90458" lon="4.58837">
        <ele>432.54996</ele>
        <time>2022-03-12T10:44:32.000Z</time>
      </trkpt>
      <trkpt lat="46.90459" lon="4.58835">
        <ele>432.89996</ele>
        <time>2022-03-12T10:44:34.000Z</time>
      </trkpt>
      <trkpt lat="46.90458" lon="4.58832">
        <ele>433.24994</ele>
        <time>2022-03-12T10:44:36.000Z</time>
      </trkpt>
      <trkpt lat="46.90458" lon="4.58828">
        <ele>433.54996</ele>
        <time>2022-03-12T10:44:39.000Z</time>
      </trkpt>
      <trkpt lat="46.90459" lon="4.58825">
        <ele>433.89996</ele>
        <time>2022-03-12T10:44:42.000Z</time>
      </trkpt>
      <trkpt lat="46.90459" lon="4.58822">
        <ele>434.29996</ele>
        <time>2022-03-12T10:44:44.000Z</time>
      </trkpt>
      <trkpt lat="46.9046" lon="4.58819">
        <ele>434.64996</ele>
        <time>2022-03-12T10:44:46.000Z</time>
      </trkpt>
      <trkpt lat="46.9046" lon="4.58816">
        <ele>435.04996</ele>
        <time>2022-03-12T10:44:48.000Z</time>
      </trkpt>
      <trkpt lat="46.90461" lon="4.58812">
        <ele>435.44995</ele>
        <time>2022-03-12T10:44:51.000Z</time>
      </trkpt>
      <trkpt lat="46.90461" lon="4.58808">
        <ele>435.84995</ele>
        <time>2022-03-12T10:44:54.000Z</time>
      </trkpt>
      <trkpt lat="46.90461" lon="4.58805">
        <ele>436.24994</ele>
        <time>2022-03-12T10:44:56.000Z</time>
      </trkpt>
      <trkpt lat="46.90461" lon="4.58802">
        <ele>436.64996</ele>
        <time>2022-03-12T10:44:58.000Z</time>
      </trkpt>
      <trkpt lat="46.90461" lon="4.58799">
        <ele>436.99994</ele>
        <time>2022-03-12T10:45:00.000Z</time>
      </trkpt>
      <trkpt lat="46.90461" lon="4.58796">
        <ele>437.34995</ele>
        <time>2022-03-12T10:45:02.000Z</time>
      </trkpt>
      <trkpt lat="46.90461" lon="4.58792">
        <ele>437.64996</ele>
        <time>2022-03-12T10:45:05.000Z</time>
      </trkpt>
      <trkpt lat="46.90462" lon="4.58788">
        <ele>437.89996</ele>
        <time>2022-03-12T10:45:07.000Z</time>
      </trkpt>
      <trkpt lat="46.90462" lon="4.58785">
        <ele>438.14996</ele>
        <time>2022-03-12T10:45:09.000Z</time>
      </trkpt>
      <trkpt lat="46.90462" lon="4.58783">
        <ele>438.44995</ele>
        <time>2022-03-12T10:45:11.000Z</time>
      </trkpt>
      <trkpt lat="46.90462" lon="4.58778">
        <ele>438.69995</ele>
        <time>2022-03-12T10:45:14.000Z</time>
      </trkpt>
      <trkpt lat="46.90462" lon="4.58775">
        <ele>438.94995</ele>
        <time>2022-03-12T10:45:16.000Z</time>
      </trkpt>
      <trkpt lat="46.90462" lon="4.58772">
        <ele>439.19995</ele>
        <time>2022-03-12T10:45:18.000Z</time>
      </trkpt>
      <trkpt lat="46.90462" lon="4.58769">
        <ele>439.44995</ele>
        <time>2022-03-12T10:45:20.000Z</time>
      </trkpt>
      <trkpt lat="46.90463" lon="4.58766">
        <ele>439.64996</ele>
        <time>2022-03-12T10:45:23.000Z</time>
      </trkpt>
      <trkpt lat="46.90464" lon="4.58763">
        <ele>439.84995</ele>
        <time>2022-03-12T10:45:25.000Z</time>
      </trkpt>
      <trkpt lat="46.90464" lon="4.5876">
        <ele>439.99994</ele>
        <time>2022-03-12T10:45:27.000Z</time>
      </trkpt>
      <trkpt lat="46.90465" lon="4.58758">
        <ele>440.14996</ele>
        <time>2022-03-12T10:45:40.000Z</time>
      </trkpt>
      <trkpt lat="46.90466" lon="4.58758">
        <ele>440.39996</ele>
        <time>2022-03-12T10:48:24.000Z</time>
      </trkpt>
      <trkpt lat="46.90466" lon="4.58755">
        <ele>440.54996</ele>
        <time>2022-03-12T10:48:39.000Z</time>
      </trkpt>
      <trkpt lat="46.90465" lon="4.58752">
        <ele>440.64996</ele>
        <time>2022-03-12T10:48:47.000Z</time>
      </trkpt>
      <trkpt lat="46.90465" lon="4.58749">
        <ele>440.74994</ele>
        <time>2022-03-12T10:48:50.000Z</time>
      </trkpt>
      <trkpt lat="46.90465" lon="4.58745">
        <ele>440.84995</ele>
        <time>2022-03-12T10:48:53.000Z</time>
      </trkpt>
      <trkpt lat="46.90466" lon="4.58742">
        <ele>440.84995</ele>
        <time>2022-03-12T10:48:55.000Z</time>
      </trkpt>
      <trkpt lat="46.90467" lon="4.58739">
        <ele>440.89996</ele>
        <time>2022-03-12T10:48:57.000Z</time>
      </trkpt>
      <trkpt lat="46.90467" lon="4.58736">
        <ele>440.89996</ele>
        <time>2022-03-12T10:48:59.000Z</time>
      </trkpt>
      <trkpt lat="46.90468" lon="4.58733">
        <ele>440.94995</ele>
        <time>2022-03-12T10:49:02.000Z</time>
      </trkpt>
      <trkpt lat="46.90469" lon="4.5873">
        <ele>440.99994</ele>
        <time>2022-03-12T10:49:04.000Z</time>
      </trkpt>
      <trkpt lat="46.9047" lon="4.58726">
        <ele>441.04996</ele>
        <time>2022-03-12T10:49:06.000Z</time>
      </trkpt>
      <trkpt lat="46.9047" lon="4.58722">
        <ele>441.04996</ele>
        <time>2022-03-12T10:49:08.000Z</time>
      </trkpt>
      <trkpt lat="46.90472" lon="4.58719">
        <ele>441.09995</ele>
        <time>2022-03-12T10:49:10.000Z</time>
      </trkpt>
      <trkpt lat="46.90472" lon="4.58716">
        <ele>441.04996</ele>
        <time>2022-03-12T10:49:12.000Z</time>
      </trkpt>
      <trkpt lat="46.90473" lon="4.58713">
        <ele>440.94995</ele>
        <time>2022-03-12T10:49:14.000Z</time>
      </trkpt>
      <trkpt lat="46.90475" lon="4.5871">
        <ele>440.74994</ele>
        <time>2022-03-12T10:49:16.000Z</time>
      </trkpt>
      <trkpt lat="46.90476" lon="4.58706">
        <ele>440.59995</ele>
        <time>2022-03-12T10:49:18.000Z</time>
      </trkpt>
      <trkpt lat="46.90476" lon="4.58702">
        <ele>440.39996</ele>
        <time>2022-03-12T10:49:20.000Z</time>
      </trkpt>
      <trkpt lat="46.90478" lon="4.587">
        <ele>440.19995</ele>
        <time>2022-03-12T10:49:22.000Z</time>
      </trkpt>
      <trkpt lat="46.90479" lon="4.58697">
        <ele>439.99994</ele>
        <time>2022-03-12T10:49:24.000Z</time>
      </trkpt>
      <trkpt lat="46.9048" lon="4.58695">
        <ele>439.74994</ele>
        <time>2022-03-12T10:49:26.000Z</time>
      </trkpt>
      <trkpt lat="46.90482" lon="4.58691">
        <ele>439.54996</ele>
        <time>2022-03-12T10:49:28.000Z</time>
      </trkpt>
      <trkpt lat="46.90483" lon="4.58689">
        <ele>439.39996</ele>
        <time>2022-03-12T10:49:30.000Z</time>
      </trkpt>
      <trkpt lat="46.90484" lon="4.58685">
        <ele>439.24994</ele>
        <time>2022-03-12T10:49:32.000Z</time>
      </trkpt>
      <trkpt lat="46.90485" lon="4.58682">
        <ele>439.09995</ele>
        <time>2022-03-12T10:49:34.000Z</time>
      </trkpt>
      <trkpt lat="46.90486" lon="4.58678">
        <ele>438.94995</ele>
        <time>2022-03-12T10:49:36.000Z</time>
      </trkpt>
      <trkpt lat="46.90488" lon="4.58676">
        <ele>438.79996</ele>
        <time>2022-03-12T10:49:38.000Z</time>
      </trkpt>
      <trkpt lat="46.90489" lon="4.58674">
        <ele>438.64996</ele>
        <time>2022-03-12T10:49:40.000Z</time>
      </trkpt>
      <trkpt lat="46.9049" lon="4.58671">
        <ele>438.44995</ele>
        <time>2022-03-12T10:49:42.000Z</time>
      </trkpt>
      <trkpt lat="46.90491" lon="4.58668">
        <ele>438.29996</ele>
        <time>2022-03-12T10:49:44.000Z</time>
      </trkpt>
      <trkpt lat="46.90492" lon="4.58665">
        <ele>438.14996</ele>
        <time>2022-03-12T10:49:46.000Z</time>
      </trkpt>
      <trkpt lat="46.90493" lon="4.58662">
        <ele>437.99994</ele>
        <time>2022-03-12T10:49:48.000Z</time>
      </trkpt>
      <trkpt lat="46.90495" lon="4.58659">
        <ele>437.84995</ele>
        <time>2022-03-12T10:49:50.000Z</time>
      </trkpt>
      <trkpt lat="46.90497" lon="4.58657">
        <ele>437.79996</ele>
        <time>2022-03-12T10:49:52.000Z</time>
      </trkpt>
      <trkpt lat="46.90499" lon="4.58653">
        <ele>437.79996</ele>
        <time>2022-03-12T10:49:54.000Z</time>
      </trkpt>
      <trkpt lat="46.90499" lon="4.58651">
        <ele>437.84995</ele>
        <time>2022-03-12T10:49:56.000Z</time>
      </trkpt>
      <trkpt lat="46.90501" lon="4.58648">
        <ele>437.89996</ele>
        <time>2022-03-12T10:49:59.000Z</time>
      </trkpt>
      <trkpt lat="46.90502" lon="4.58645">
        <ele>437.94995</ele>
        <time>2022-03-12T10:50:01.000Z</time>
      </trkpt>
      <trkpt lat="46.90503" lon="4.58642">
        <ele>438.04996</ele>
        <time>2022-03-12T10:50:03.000Z</time>
      </trkpt>
      <trkpt lat="46.90504" lon="4.58639">
        <ele>438.14996</ele>
        <time>2022-03-12T10:50:05.000Z</time>
      </trkpt>
      <trkpt lat="46.90504" lon="4.58635">
        <ele>438.19995</ele>
        <time>2022-03-12T10:50:07.000Z</time>
      </trkpt>
      <trkpt lat="46.90506" lon="4.58632">
        <ele>438.24994</ele>
        <time>2022-03-12T10:50:09.000Z</time>
      </trkpt>
      <trkpt lat="46.90507" lon="4.58629">
        <ele>438.29996</ele>
        <time>2022-03-12T10:50:11.000Z</time>
      </trkpt>
      <trkpt lat="46.90508" lon="4.58626">
        <ele>438.39996</ele>
        <time>2022-03-12T10:50:13.000Z</time>
      </trkpt>
      <trkpt lat="46.9051" lon="4.58623">
        <ele>438.54996</ele>
        <time>2022-03-12T10:50:15.000Z</time>
      </trkpt>
      <trkpt lat="46.90511" lon="4.5862">
        <ele>438.74994</ele>
        <time>2022-03-12T10:50:17.000Z</time>
      </trkpt>
      <trkpt lat="46.90513" lon="4.58616">
        <ele>438.94995</ele>
        <time>2022-03-12T10:50:19.000Z</time>
      </trkpt>
      <trkpt lat="46.90514" lon="4.58613">
        <ele>439.09995</ele>
        <time>2022-03-12T10:50:21.000Z</time>
      </trkpt>
      <trkpt lat="46.90515" lon="4.5861">
        <ele>439.24994</ele>
        <time>2022-03-12T10:50:23.000Z</time>
      </trkpt>
      <trkpt lat="46.90517" lon="4.58606">
        <ele>439.29996</ele>
        <time>2022-03-12T10:50:25.000Z</time>
      </trkpt>
      <trkpt lat="46.90518" lon="4.58603">
        <ele>439.39996</ele>
        <time>2022-03-12T10:50:27.000Z</time>
      </trkpt>
      <trkpt lat="46.9052" lon="4.58601">
        <ele>439.54996</ele>
        <time>2022-03-12T10:50:29.000Z</time>
      </trkpt>
      <trkpt lat="46.90521" lon="4.58598">
        <ele>439.64996</ele>
        <time>2022-03-12T10:50:31.000Z</time>
      </trkpt>
      <trkpt lat="46.90522" lon="4.58595">
        <ele>439.64996</ele>
        <time>2022-03-12T10:50:33.000Z</time>
      </trkpt>
      <trkpt lat="46.90523" lon="4.58592">
        <ele>439.69995</ele>
        <time>2022-03-12T10:50:35.000Z</time>
      </trkpt>
      <trkpt lat="46.90525" lon="4.58589">
        <ele>439.64996</ele>
        <time>2022-03-12T10:50:37.000Z</time>
      </trkpt>
      <trkpt lat="46.90526" lon="4.58586">
        <ele>439.49994</ele>
        <time>2022-03-12T10:50:40.000Z</time>
      </trkpt>
      <trkpt lat="46.90528" lon="4.58583">
        <ele>439.39996</ele>
        <time>2022-03-12T10:50:42.000Z</time>
      </trkpt>
      <trkpt lat="46.90529" lon="4.58581">
        <ele>439.29996</ele>
        <time>2022-03-12T10:50:44.000Z</time>
      </trkpt>
      <trkpt lat="46.9053" lon="4.58578">
        <ele>439.14996</ele>
        <time>2022-03-12T10:50:46.000Z</time>
      </trkpt>
      <trkpt lat="46.90531" lon="4.58575">
        <ele>439.04996</ele>
        <time>2022-03-12T10:50:48.000Z</time>
      </trkpt>
      <trkpt lat="46.90532" lon="4.58572">
        <ele>438.94995</ele>
        <time>2022-03-12T10:50:50.000Z</time>
      </trkpt>
      <trkpt lat="46.90534" lon="4.58569">
        <ele>438.84995</ele>
        <time>2022-03-12T10:50:52.000Z</time>
      </trkpt>
      <trkpt lat="46.90535" lon="4.58567">
        <ele>438.69995</ele>
        <time>2022-03-12T10:50:54.000Z</time>
      </trkpt>
      <trkpt lat="46.90537" lon="4.58563">
        <ele>438.49994</ele>
        <time>2022-03-12T10:50:57.000Z</time>
      </trkpt>
      <trkpt lat="46.90538" lon="4.5856">
        <ele>438.29996</ele>
        <time>2022-03-12T10:50:59.000Z</time>
      </trkpt>
      <trkpt lat="46.90539" lon="4.58557">
        <ele>438.09995</ele>
        <time>2022-03-12T10:51:01.000Z</time>
      </trkpt>
      <trkpt lat="46.90541" lon="4.58554">
        <ele>437.94995</ele>
        <time>2022-03-12T10:51:03.000Z</time>
      </trkpt>
      <trkpt lat="46.90542" lon="4.58551">
        <ele>437.84995</ele>
        <time>2022-03-12T10:51:05.000Z</time>
      </trkpt>
      <trkpt lat="46.90544" lon="4.58547">
        <ele>437.74994</ele>
        <time>2022-03-12T10:51:07.000Z</time>
      </trkpt>
      <trkpt lat="46.90544" lon="4.58545">
        <ele>437.59995</ele>
        <time>2022-03-12T10:51:09.000Z</time>
      </trkpt>
      <trkpt lat="46.90545" lon="4.58542">
        <ele>437.44995</ele>
        <time>2022-03-12T10:51:11.000Z</time>
      </trkpt>
      <trkpt lat="46.90547" lon="4.58539">
        <ele>437.29996</ele>
        <time>2022-03-12T10:51:13.000Z</time>
      </trkpt>
      <trkpt lat="46.90548" lon="4.58537">
        <ele>437.14996</ele>
        <time>2022-03-12T10:51:15.000Z</time>
      </trkpt>
      <trkpt lat="46.90549" lon="4.58534">
        <ele>436.99994</ele>
        <time>2022-03-12T10:51:17.000Z</time>
      </trkpt>
      <trkpt lat="46.90551" lon="4.58531">
        <ele>436.94995</ele>
        <time>2022-03-12T10:51:19.000Z</time>
      </trkpt>
      <trkpt lat="46.90553" lon="4.58528">
        <ele>436.94995</ele>
        <time>2022-03-12T10:51:21.000Z</time>
      </trkpt>
      <trkpt lat="46.90554" lon="4.58525">
        <ele>436.99994</ele>
        <time>2022-03-12T10:51:23.000Z</time>
      </trkpt>
      <trkpt lat="46.90556" lon="4.58522">
        <ele>436.99994</ele>
        <time>2022-03-12T10:51:25.000Z</time>
      </trkpt>
      <trkpt lat="46.90557" lon="4.58519">
        <ele>437.04996</ele>
        <time>2022-03-12T10:51:27.000Z</time>
      </trkpt>
      <trkpt lat="46.90558" lon="4.58517">
        <ele>437.04996</ele>
        <time>2022-03-12T10:51:29.000Z</time>
      </trkpt>
      <trkpt lat="46.90559" lon="4.58514">
        <ele>437.09995</ele>
        <time>2022-03-12T10:51:31.000Z</time>
      </trkpt>
      <trkpt lat="46.9056" lon="4.5851">
        <ele>437.09995</ele>
        <time>2022-03-12T10:51:34.000Z</time>
      </trkpt>
      <trkpt lat="46.90561" lon="4.58507">
        <ele>437.09995</ele>
        <time>2022-03-12T10:51:36.000Z</time>
      </trkpt>
      <trkpt lat="46.90563" lon="4.58503">
        <ele>437.09995</ele>
        <time>2022-03-12T10:51:38.000Z</time>
      </trkpt>
      <trkpt lat="46.90564" lon="4.585">
        <ele>437.09995</ele>
        <time>2022-03-12T10:51:40.000Z</time>
      </trkpt>
      <trkpt lat="46.90565" lon="4.58497">
        <ele>437.04996</ele>
        <time>2022-03-12T10:51:42.000Z</time>
      </trkpt>
      <trkpt lat="46.90567" lon="4.58494">
        <ele>436.99994</ele>
        <time>2022-03-12T10:51:44.000Z</time>
      </trkpt>
      <trkpt lat="46.90569" lon="4.58492">
        <ele>436.94995</ele>
        <time>2022-03-12T10:51:46.000Z</time>
      </trkpt>
      <trkpt lat="46.9057" lon="4.58489">
        <ele>436.89996</ele>
        <time>2022-03-12T10:51:48.000Z</time>
      </trkpt>
      <trkpt lat="46.90572" lon="4.58486">
        <ele>436.84995</ele>
        <time>2022-03-12T10:51:50.000Z</time>
      </trkpt>
      <trkpt lat="46.90572" lon="4.58482">
        <ele>436.74994</ele>
        <time>2022-03-12T10:51:52.000Z</time>
      </trkpt>
      <trkpt lat="46.90574" lon="4.58479">
        <ele>436.64996</ele>
        <time>2022-03-12T10:51:55.000Z</time>
      </trkpt>
      <trkpt lat="46.90576" lon="4.58476">
        <ele>436.59995</ele>
        <time>2022-03-12T10:51:57.000Z</time>
      </trkpt>
      <trkpt lat="46.90576" lon="4.58473">
        <ele>436.49994</ele>
        <time>2022-03-12T10:51:59.000Z</time>
      </trkpt>
      <trkpt lat="46.90578" lon="4.5847">
        <ele>436.39996</ele>
        <time>2022-03-12T10:52:01.000Z</time>
      </trkpt>
      <trkpt lat="46.90579" lon="4.58466">
        <ele>436.29996</ele>
        <time>2022-03-12T10:52:03.000Z</time>
      </trkpt>
      <trkpt lat="46.90581" lon="4.58462">
        <ele>436.14996</ele>
        <time>2022-03-12T10:52:05.000Z</time>
      </trkpt>
      <trkpt lat="46.90582" lon="4.58459">
        <ele>435.99994</ele>
        <time>2022-03-12T10:52:07.000Z</time>
      </trkpt>
      <trkpt lat="46.90583" lon="4.58457">
        <ele>435.84995</ele>
        <time>2022-03-12T10:52:09.000Z</time>
      </trkpt>
      <trkpt lat="46.90584" lon="4.58454">
        <ele>435.69995</ele>
        <time>2022-03-12T10:52:11.000Z</time>
      </trkpt>
      <trkpt lat="46.90586" lon="4.58451">
        <ele>435.44995</ele>
        <time>2022-03-12T10:52:13.000Z</time>
      </trkpt>
      <trkpt lat="46.90587" lon="4.58448">
        <ele>435.24994</ele>
        <time>2022-03-12T10:52:15.000Z</time>
      </trkpt>
      <trkpt lat="46.90589" lon="4.58445">
        <ele>435.04996</ele>
        <time>2022-03-12T10:52:17.000Z</time>
      </trkpt>
      <trkpt lat="46.9059" lon="4.58442">
        <ele>434.84995</ele>
        <time>2022-03-12T10:52:19.000Z</time>
      </trkpt>
      <trkpt lat="46.90591" lon="4.58439">
        <ele>434.64996</ele>
        <time>2022-03-12T10:52:21.000Z</time>
      </trkpt>
      <trkpt lat="46.90593" lon="4.58437">
        <ele>434.54996</ele>
        <time>2022-03-12T10:52:23.000Z</time>
      </trkpt>
      <trkpt lat="46.90594" lon="4.58433">
        <ele>434.39996</ele>
        <time>2022-03-12T10:52:25.000Z</time>
      </trkpt>
      <trkpt lat="46.90596" lon="4.5843">
        <ele>434.24994</ele>
        <time>2022-03-12T10:52:27.000Z</time>
      </trkpt>
      <trkpt lat="46.90597" lon="4.58427">
        <ele>434.09995</ele>
        <time>2022-03-12T10:52:29.000Z</time>
      </trkpt>
      <trkpt lat="46.90598" lon="4.58424">
        <ele>433.94995</ele>
        <time>2022-03-12T10:52:31.000Z</time>
      </trkpt>
      <trkpt lat="46.90599" lon="4.58421">
        <ele>433.84995</ele>
        <time>2022-03-12T10:52:33.000Z</time>
      </trkpt>
      <trkpt lat="46.906" lon="4.58418">
        <ele>433.79996</ele>
        <time>2022-03-12T10:52:35.000Z</time>
      </trkpt>
      <trkpt lat="46.90601" lon="4.58415">
        <ele>433.69995</ele>
        <time>2022-03-12T10:52:37.000Z</time>
      </trkpt>
      <trkpt lat="46.90602" lon="4.58412">
        <ele>433.59995</ele>
        <time>2022-03-12T10:52:39.000Z</time>
      </trkpt>
      <trkpt lat="46.90604" lon="4.58409">
        <ele>433.44995</ele>
        <time>2022-03-12T10:52:41.000Z</time>
      </trkpt>
      <trkpt lat="46.90606" lon="4.58406">
        <ele>433.34995</ele>
        <time>2022-03-12T10:52:43.000Z</time>
      </trkpt>
      <trkpt lat="46.90607" lon="4.58403">
        <ele>433.19995</ele>
        <time>2022-03-12T10:52:45.000Z</time>
      </trkpt>
      <trkpt lat="46.90608" lon="4.584">
        <ele>433.09995</ele>
        <time>2022-03-12T10:52:47.000Z</time>
      </trkpt>
      <trkpt lat="46.9061" lon="4.58397">
        <ele>432.99994</ele>
        <time>2022-03-12T10:52:49.000Z</time>
      </trkpt>
      <trkpt lat="46.9061" lon="4.58394">
        <ele>432.99994</ele>
        <time>2022-03-12T10:52:51.000Z</time>
      </trkpt>
      <trkpt lat="46.90611" lon="4.58391">
        <ele>432.99994</ele>
        <time>2022-03-12T10:52:53.000Z</time>
      </trkpt>
      <trkpt lat="46.90613" lon="4.58388">
        <ele>432.99994</ele>
        <time>2022-03-12T10:52:55.000Z</time>
      </trkpt>
      <trkpt lat="46.90614" lon="4.58386">
        <ele>433.04996</ele>
        <time>2022-03-12T10:52:57.000Z</time>
      </trkpt>
      <trkpt lat="46.90616" lon="4.58382">
        <ele>433.04996</ele>
        <time>2022-03-12T10:52:59.000Z</time>
      </trkpt>
      <trkpt lat="46.90617" lon="4.58379">
        <ele>433.09995</ele>
        <time>2022-03-12T10:53:01.000Z</time>
      </trkpt>
      <trkpt lat="46.90619" lon="4.58376">
        <ele>433.04996</ele>
        <time>2022-03-12T10:53:03.000Z</time>
      </trkpt>
      <trkpt lat="46.9062" lon="4.58373">
        <ele>433.04996</ele>
        <time>2022-03-12T10:53:05.000Z</time>
      </trkpt>
      <trkpt lat="46.90622" lon="4.58371">
        <ele>432.94995</ele>
        <time>2022-03-12T10:53:07.000Z</time>
      </trkpt>
      <trkpt lat="46.90623" lon="4.58368">
        <ele>432.94995</ele>
        <time>2022-03-12T10:53:09.000Z</time>
      </trkpt>
      <trkpt lat="46.90624" lon="4.58365">
        <ele>432.94995</ele>
        <time>2022-03-12T10:53:11.000Z</time>
      </trkpt>
      <trkpt lat="46.90626" lon="4.58362">
        <ele>432.94995</ele>
        <time>2022-03-12T10:53:13.000Z</time>
      </trkpt>
      <trkpt lat="46.90627" lon="4.58359">
        <ele>432.94995</ele>
        <time>2022-03-12T10:53:15.000Z</time>
      </trkpt>
      <trkpt lat="46.90628" lon="4.58356">
        <ele>432.99994</ele>
        <time>2022-03-12T10:53:17.000Z</time>
      </trkpt>
      <trkpt lat="46.90629" lon="4.58353">
        <ele>433.04996</ele>
        <time>2022-03-12T10:53:19.000Z</time>
      </trkpt>
      <trkpt lat="46.90631" lon="4.5835">
        <ele>433.09995</ele>
        <time>2022-03-12T10:53:21.000Z</time>
      </trkpt>
      <trkpt lat="46.90632" lon="4.58347">
        <ele>433.09995</ele>
        <time>2022-03-12T10:53:23.000Z</time>
      </trkpt>
      <trkpt lat="46.90634" lon="4.58344">
        <ele>433.14996</ele>
        <time>2022-03-12T10:53:26.000Z</time>
      </trkpt>
      <trkpt lat="46.90635" lon="4.58341">
        <ele>433.09995</ele>
        <time>2022-03-12T10:53:28.000Z</time>
      </trkpt>
      <trkpt lat="46.90636" lon="4.58339">
        <ele>433.04996</ele>
        <time>2022-03-12T10:53:30.000Z</time>
      </trkpt>
      <trkpt lat="46.90638" lon="4.58336">
        <ele>432.99994</ele>
        <time>2022-03-12T10:53:32.000Z</time>
      </trkpt>
      <trkpt lat="46.9064" lon="4.58333">
        <ele>432.99994</ele>
        <time>2022-03-12T10:53:34.000Z</time>
      </trkpt>
      <trkpt lat="46.90641" lon="4.5833">
        <ele>432.99994</ele>
        <time>2022-03-12T10:53:36.000Z</time>
      </trkpt>
      <trkpt lat="46.90643" lon="4.58327">
        <ele>432.89996</ele>
        <time>2022-03-12T10:53:38.000Z</time>
      </trkpt>
      <trkpt lat="46.90644" lon="4.58323">
        <ele>432.89996</ele>
        <time>2022-03-12T10:53:40.000Z</time>
      </trkpt>
      <trkpt lat="46.90645" lon="4.5832">
        <ele>432.89996</ele>
        <time>2022-03-12T10:53:42.000Z</time>
      </trkpt>
      <trkpt lat="46.90646" lon="4.58316">
        <ele>432.94995</ele>
        <time>2022-03-12T10:53:44.000Z</time>
      </trkpt>
      <trkpt lat="46.90648" lon="4.58313">
        <ele>432.99994</ele>
        <time>2022-03-12T10:53:46.000Z</time>
      </trkpt>
      <trkpt lat="46.90649" lon="4.5831">
        <ele>433.14996</ele>
        <time>2022-03-12T10:53:48.000Z</time>
      </trkpt>
      <trkpt lat="46.9065" lon="4.58307">
        <ele>433.24994</ele>
        <time>2022-03-12T10:53:50.000Z</time>
      </trkpt>
      <trkpt lat="46.90652" lon="4.58305">
        <ele>433.34995</ele>
        <time>2022-03-12T10:53:52.000Z</time>
      </trkpt>
      <trkpt lat="46.90653" lon="4.58302">
        <ele>433.44995</ele>
        <time>2022-03-12T10:53:54.000Z</time>
      </trkpt>
      <trkpt lat="46.90654" lon="4.58299">
        <ele>433.44995</ele>
        <time>2022-03-12T10:53:56.000Z</time>
      </trkpt>
      <trkpt lat="46.90655" lon="4.58295">
        <ele>433.44995</ele>
        <time>2022-03-12T10:53:58.000Z</time>
      </trkpt>
      <trkpt lat="46.90657" lon="4.58292">
        <ele>433.49994</ele>
        <time>2022-03-12T10:54:00.000Z</time>
      </trkpt>
      <trkpt lat="46.90658" lon="4.58289">
        <ele>433.54996</ele>
        <time>2022-03-12T10:54:02.000Z</time>
      </trkpt>
      <trkpt lat="46.90659" lon="4.58286">
        <ele>433.59995</ele>
        <time>2022-03-12T10:54:04.000Z</time>
      </trkpt>
      <trkpt lat="46.9066" lon="4.58283">
        <ele>433.69995</ele>
        <time>2022-03-12T10:54:06.000Z</time>
      </trkpt>
      <trkpt lat="46.90661" lon="4.5828">
        <ele>433.84995</ele>
        <time>2022-03-12T10:54:08.000Z</time>
      </trkpt>
      <trkpt lat="46.90662" lon="4.58278">
        <ele>433.99994</ele>
        <time>2022-03-12T10:54:10.000Z</time>
      </trkpt>
      <trkpt lat="46.90663" lon="4.58275">
        <ele>434.04996</ele>
        <time>2022-03-12T10:54:12.000Z</time>
      </trkpt>
      <trkpt lat="46.90664" lon="4.58272">
        <ele>434.09995</ele>
        <time>2022-03-12T10:54:14.000Z</time>
      </trkpt>
      <trkpt lat="46.90665" lon="4.58268">
        <ele>434.14996</ele>
        <time>2022-03-12T10:54:16.000Z</time>
      </trkpt>
      <trkpt lat="46.90667" lon="4.58267">
        <ele>434.19995</ele>
        <time>2022-03-12T10:54:18.000Z</time>
      </trkpt>
      <trkpt lat="46.90668" lon="4.58263">
        <ele>434.24994</ele>
        <time>2022-03-12T10:54:20.000Z</time>
      </trkpt>
      <trkpt lat="46.90669" lon="4.58259">
        <ele>434.24994</ele>
        <time>2022-03-12T10:54:22.000Z</time>
      </trkpt>
      <trkpt lat="46.90671" lon="4.58257">
        <ele>434.24994</ele>
        <time>2022-03-12T10:54:24.000Z</time>
      </trkpt>
      <trkpt lat="46.90672" lon="4.58254">
        <ele>434.24994</ele>
        <time>2022-03-12T10:54:26.000Z</time>
      </trkpt>
      <trkpt lat="46.90673" lon="4.58251">
        <ele>434.19995</ele>
        <time>2022-03-12T10:54:28.000Z</time>
      </trkpt>
      <trkpt lat="46.90673" lon="4.58246">
        <ele>434.09995</ele>
        <time>2022-03-12T10:54:30.000Z</time>
      </trkpt>
      <trkpt lat="46.90674" lon="4.58244">
        <ele>433.99994</ele>
        <time>2022-03-12T10:54:32.000Z</time>
      </trkpt>
      <trkpt lat="46.90676" lon="4.5824">
        <ele>433.89996</ele>
        <time>2022-03-12T10:54:34.000Z</time>
      </trkpt>
      <trkpt lat="46.90677" lon="4.58237">
        <ele>433.89996</ele>
        <time>2022-03-12T10:54:36.000Z</time>
      </trkpt>
      <trkpt lat="46.90679" lon="4.58235">
        <ele>433.84995</ele>
        <time>2022-03-12T10:54:38.000Z</time>
      </trkpt>
      <trkpt lat="46.9068" lon="4.58232">
        <ele>433.74994</ele>
        <time>2022-03-12T10:54:40.000Z</time>
      </trkpt>
      <trkpt lat="46.90681" lon="4.58229">
        <ele>433.74994</ele>
        <time>2022-03-12T10:54:42.000Z</time>
      </trkpt>
      <trkpt lat="46.90683" lon="4.58226">
        <ele>433.74994</ele>
        <time>2022-03-12T10:54:44.000Z</time>
      </trkpt>
      <trkpt lat="46.90684" lon="4.58223">
        <ele>433.69995</ele>
        <time>2022-03-12T10:54:46.000Z</time>
      </trkpt>
      <trkpt lat="46.90686" lon="4.5822">
        <ele>433.64996</ele>
        <time>2022-03-12T10:54:48.000Z</time>
      </trkpt>
      <trkpt lat="46.90688" lon="4.58216">
        <ele>433.54996</ele>
        <time>2022-03-12T10:54:50.000Z</time>
      </trkpt>
      <trkpt lat="46.9069" lon="4.58214">
        <ele>433.49994</ele>
        <time>2022-03-12T10:54:52.000Z</time>
      </trkpt>
      <trkpt lat="46.90691" lon="4.58211">
        <ele>433.44995</ele>
        <time>2022-03-12T10:54:54.000Z</time>
      </trkpt>
      <trkpt lat="46.90692" lon="4.58208">
        <ele>433.39996</ele>
        <time>2022-03-12T10:54:56.000Z</time>
      </trkpt>
      <trkpt lat="46.90693" lon="4.58205">
        <ele>433.39996</ele>
        <time>2022-03-12T10:54:58.000Z</time>
      </trkpt>
      <trkpt lat="46.90695" lon="4.58202">
        <ele>433.34995</ele>
        <time>2022-03-12T10:55:00.000Z</time>
      </trkpt>
      <trkpt lat="46.90697" lon="4.58199">
        <ele>433.24994</ele>
        <time>2022-03-12T10:55:02.000Z</time>
      </trkpt>
      <trkpt lat="46.90699" lon="4.58196">
        <ele>433.14996</ele>
        <time>2022-03-12T10:55:04.000Z</time>
      </trkpt>
      <trkpt lat="46.907" lon="4.58193">
        <ele>433.04996</ele>
        <time>2022-03-12T10:55:06.000Z</time>
      </trkpt>
      <trkpt lat="46.90701" lon="4.58191">
        <ele>432.94995</ele>
        <time>2022-03-12T10:55:08.000Z</time>
      </trkpt>
      <trkpt lat="46.90703" lon="4.58188">
        <ele>432.84995</ele>
        <time>2022-03-12T10:55:10.000Z</time>
      </trkpt>
      <trkpt lat="46.90704" lon="4.58184">
        <ele>432.74994</ele>
        <time>2022-03-12T10:55:13.000Z</time>
      </trkpt>
      <trkpt lat="46.90705" lon="4.58181">
        <ele>432.59995</ele>
        <time>2022-03-12T10:55:15.000Z</time>
      </trkpt>
      <trkpt lat="46.90707" lon="4.58178">
        <ele>432.39996</ele>
        <time>2022-03-12T10:55:17.000Z</time>
      </trkpt>
      <trkpt lat="46.90708" lon="4.58175">
        <ele>432.24994</ele>
        <time>2022-03-12T10:55:19.000Z</time>
      </trkpt>
      <trkpt lat="46.9071" lon="4.58172">
        <ele>432.14996</ele>
        <time>2022-03-12T10:55:21.000Z</time>
      </trkpt>
      <trkpt lat="46.90711" lon="4.58169">
        <ele>431.99994</ele>
        <time>2022-03-12T10:55:23.000Z</time>
      </trkpt>
      <trkpt lat="46.90712" lon="4.58166">
        <ele>431.84995</ele>
        <time>2022-03-12T10:55:25.000Z</time>
      </trkpt>
      <trkpt lat="46.90712" lon="4.58163">
        <ele>431.69995</ele>
        <time>2022-03-12T10:55:27.000Z</time>
      </trkpt>
      <trkpt lat="46.90714" lon="4.5816">
        <ele>431.54996</ele>
        <time>2022-03-12T10:55:29.000Z</time>
      </trkpt>
      <trkpt lat="46.90715" lon="4.58157">
        <ele>431.44995</ele>
        <time>2022-03-12T10:55:31.000Z</time>
      </trkpt>
      <trkpt lat="46.90717" lon="4.58154">
        <ele>431.29996</ele>
        <time>2022-03-12T10:55:33.000Z</time>
      </trkpt>
      <trkpt lat="46.90718" lon="4.58151">
        <ele>431.19995</ele>
        <time>2022-03-12T10:55:35.000Z</time>
      </trkpt>
      <trkpt lat="46.90719" lon="4.58148">
        <ele>431.09995</ele>
        <time>2022-03-12T10:55:37.000Z</time>
      </trkpt>
      <trkpt lat="46.9072" lon="4.58145">
        <ele>430.94995</ele>
        <time>2022-03-12T10:55:39.000Z</time>
      </trkpt>
      <trkpt lat="46.90721" lon="4.58143">
        <ele>430.79996</ele>
        <time>2022-03-12T10:55:41.000Z</time>
      </trkpt>
      <trkpt lat="46.90722" lon="4.58139">
        <ele>430.69995</ele>
        <time>2022-03-12T10:55:43.000Z</time>
      </trkpt>
      <trkpt lat="46.90723" lon="4.58136">
        <ele>430.59995</ele>
        <time>2022-03-12T10:55:45.000Z</time>
      </trkpt>
      <trkpt lat="46.90723" lon="4.58133">
        <ele>430.49994</ele>
        <time>2022-03-12T10:55:47.000Z</time>
      </trkpt>
      <trkpt lat="46.90722" lon="4.5813">
        <ele>430.34995</ele>
        <time>2022-03-12T10:55:49.000Z</time>
      </trkpt>
      <trkpt lat="46.9072" lon="4.58128">
        <ele>430.29996</ele>
        <time>2022-03-12T10:55:51.000Z</time>
      </trkpt>
      <trkpt lat="46.90718" lon="4.58126">
        <ele>430.24994</ele>
        <time>2022-03-12T10:55:53.000Z</time>
      </trkpt>
      <trkpt lat="46.90715" lon="4.58123">
        <ele>430.19995</ele>
        <time>2022-03-12T10:55:55.000Z</time>
      </trkpt>
      <trkpt lat="46.90714" lon="4.58122">
        <ele>430.14996</ele>
        <time>2022-03-12T10:55:56.000Z</time>
      </trkpt>
      <trkpt lat="46.90712" lon="4.58119">
        <ele>430.14996</ele>
        <time>2022-03-12T10:55:58.000Z</time>
      </trkpt>
      <trkpt lat="46.9071" lon="4.58118">
        <ele>430.09995</ele>
        <time>2022-03-12T10:56:00.000Z</time>
      </trkpt>
      <trkpt lat="46.90708" lon="4.58115">
        <ele>429.99994</ele>
        <time>2022-03-12T10:56:02.000Z</time>
      </trkpt>
      <trkpt lat="46.90706" lon="4.58114">
        <ele>429.89996</ele>
        <time>2022-03-12T10:56:04.000Z</time>
      </trkpt>
      <trkpt lat="46.90704" lon="4.58112">
        <ele>429.74994</ele>
        <time>2022-03-12T10:56:07.000Z</time>
      </trkpt>
      <trkpt lat="46.90702" lon="4.58109">
        <ele>429.59995</ele>
        <time>2022-03-12T10:56:09.000Z</time>
      </trkpt>
      <trkpt lat="46.907" lon="4.58107">
        <ele>429.44995</ele>
        <time>2022-03-12T10:56:11.000Z</time>
      </trkpt>
      <trkpt lat="46.90698" lon="4.58106">
        <ele>429.39996</ele>
        <time>2022-03-12T10:56:13.000Z</time>
      </trkpt>
      <trkpt lat="46.90696" lon="4.58104">
        <ele>429.29996</ele>
        <time>2022-03-12T10:56:15.000Z</time>
      </trkpt>
      <trkpt lat="46.90694" lon="4.58103">
        <ele>429.14996</ele>
        <time>2022-03-12T10:56:17.000Z</time>
      </trkpt>
      <trkpt lat="46.90693" lon="4.58101">
        <ele>429.09995</ele>
        <time>2022-03-12T10:56:19.000Z</time>
      </trkpt>
      <trkpt lat="46.90691" lon="4.58099">
        <ele>429.04996</ele>
        <time>2022-03-12T10:56:21.000Z</time>
      </trkpt>
      <trkpt lat="46.90688" lon="4.58097">
        <ele>428.94995</ele>
        <time>2022-03-12T10:56:23.000Z</time>
      </trkpt>
      <trkpt lat="46.90686" lon="4.58095">
        <ele>428.84995</ele>
        <time>2022-03-12T10:56:25.000Z</time>
      </trkpt>
      <trkpt lat="46.90684" lon="4.58093">
        <ele>428.74994</ele>
        <time>2022-03-12T10:56:27.000Z</time>
      </trkpt>
      <trkpt lat="46.90682" lon="4.58091">
        <ele>428.69995</ele>
        <time>2022-03-12T10:56:29.000Z</time>
      </trkpt>
      <trkpt lat="46.9068" lon="4.58089">
        <ele>428.59995</ele>
        <time>2022-03-12T10:56:31.000Z</time>
      </trkpt>
      <trkpt lat="46.90678" lon="4.58087">
        <ele>428.49994</ele>
        <time>2022-03-12T10:56:33.000Z</time>
      </trkpt>
      <trkpt lat="46.90676" lon="4.58085">
        <ele>428.44995</ele>
        <time>2022-03-12T10:56:35.000Z</time>
      </trkpt>
      <trkpt lat="46.90674" lon="4.58084">
        <ele>428.39996</ele>
        <time>2022-03-12T10:56:37.000Z</time>
      </trkpt>
      <trkpt lat="46.90672" lon="4.58082">
        <ele>428.29996</ele>
        <time>2022-03-12T10:56:39.000Z</time>
      </trkpt>
      <trkpt lat="46.90671" lon="4.5808">
        <ele>428.19995</ele>
        <time>2022-03-12T10:56:41.000Z</time>
      </trkpt>
      <trkpt lat="46.90669" lon="4.58077">
        <ele>428.14996</ele>
        <time>2022-03-12T10:56:43.000Z</time>
      </trkpt>
      <trkpt lat="46.90667" lon="4.58076">
        <ele>428.09995</ele>
        <time>2022-03-12T10:56:45.000Z</time>
      </trkpt>
      <trkpt lat="46.90665" lon="4.58074">
        <ele>428.09995</ele>
        <time>2022-03-12T10:56:47.000Z</time>
      </trkpt>
      <trkpt lat="46.90664" lon="4.58072">
        <ele>428.14996</ele>
        <time>2022-03-12T10:56:49.000Z</time>
      </trkpt>
      <trkpt lat="46.90662" lon="4.5807">
        <ele>428.14996</ele>
        <time>2022-03-12T10:56:51.000Z</time>
      </trkpt>
      <trkpt lat="46.9066" lon="4.58068">
        <ele>428.09995</ele>
        <time>2022-03-12T10:56:53.000Z</time>
      </trkpt>
      <trkpt lat="46.90659" lon="4.58065">
        <ele>428.04996</ele>
        <time>2022-03-12T10:56:55.000Z</time>
      </trkpt>
      <trkpt lat="46.90656" lon="4.58063">
        <ele>428.09995</ele>
        <time>2022-03-12T10:56:57.000Z</time>
      </trkpt>
      <trkpt lat="46.90654" lon="4.5806">
        <ele>428.04996</ele>
        <time>2022-03-12T10:56:59.000Z</time>
      </trkpt>
      <trkpt lat="46.90653" lon="4.58059">
        <ele>427.99994</ele>
        <time>2022-03-12T10:57:01.000Z</time>
      </trkpt>
      <trkpt lat="46.90651" lon="4.58056">
        <ele>427.99994</ele>
        <time>2022-03-12T10:57:04.000Z</time>
      </trkpt>
      <trkpt lat="46.9065" lon="4.58055">
        <ele>428.04996</ele>
        <time>2022-03-12T10:57:06.000Z</time>
      </trkpt>
      <trkpt lat="46.90648" lon="4.58053">
        <ele>428.09995</ele>
        <time>2022-03-12T10:57:08.000Z</time>
      </trkpt>
      <trkpt lat="46.90645" lon="4.5805">
        <ele>428.19995</ele>
        <time>2022-03-12T10:57:10.000Z</time>
      </trkpt>
      <trkpt lat="46.90643" lon="4.58049">
        <ele>428.34995</ele>
        <time>2022-03-12T10:57:12.000Z</time>
      </trkpt>
      <trkpt lat="46.90641" lon="4.58048">
        <ele>428.44995</ele>
        <time>2022-03-12T10:57:14.000Z</time>
      </trkpt>
      <trkpt lat="46.90639" lon="4.58046">
        <ele>428.54996</ele>
        <time>2022-03-12T10:57:16.000Z</time>
      </trkpt>
      <trkpt lat="46.90637" lon="4.58045">
        <ele>428.64996</ele>
        <time>2022-03-12T10:57:18.000Z</time>
      </trkpt>
      <trkpt lat="46.90635" lon="4.58043">
        <ele>428.69995</ele>
        <time>2022-03-12T10:57:20.000Z</time>
      </trkpt>
      <trkpt lat="46.90633" lon="4.58041">
        <ele>428.74994</ele>
        <time>2022-03-12T10:57:22.000Z</time>
      </trkpt>
      <trkpt lat="46.90631" lon="4.58039">
        <ele>428.84995</ele>
        <time>2022-03-12T10:57:24.000Z</time>
      </trkpt>
      <trkpt lat="46.90629" lon="4.58038">
        <ele>428.94995</ele>
        <time>2022-03-12T10:57:26.000Z</time>
      </trkpt>
      <trkpt lat="46.90627" lon="4.58036">
        <ele>428.99994</ele>
        <time>2022-03-12T10:57:28.000Z</time>
      </trkpt>
      <trkpt lat="46.90624" lon="4.58034">
        <ele>428.94995</ele>
        <time>2022-03-12T10:57:30.000Z</time>
      </trkpt>
      <trkpt lat="46.90622" lon="4.58031">
        <ele>428.99994</ele>
        <time>2022-03-12T10:57:32.000Z</time>
      </trkpt>
      <trkpt lat="46.90619" lon="4.58028">
        <ele>428.99994</ele>
        <time>2022-03-12T10:57:34.000Z</time>
      </trkpt>
      <trkpt lat="46.90617" lon="4.58027">
        <ele>428.99994</ele>
        <time>2022-03-12T10:57:36.000Z</time>
      </trkpt>
      <trkpt lat="46.90615" lon="4.58025">
        <ele>428.94995</ele>
        <time>2022-03-12T10:57:38.000Z</time>
      </trkpt>
      <trkpt lat="46.90614" lon="4.58023">
        <ele>428.94995</ele>
        <time>2022-03-12T10:57:40.000Z</time>
      </trkpt>
      <trkpt lat="46.90612" lon="4.5802">
        <ele>428.94995</ele>
        <time>2022-03-12T10:57:42.000Z</time>
      </trkpt>
      <trkpt lat="46.90609" lon="4.58018">
        <ele>428.94995</ele>
        <time>2022-03-12T10:57:44.000Z</time>
      </trkpt>
      <trkpt lat="46.90607" lon="4.58016">
        <ele>428.89996</ele>
        <time>2022-03-12T10:57:46.000Z</time>
      </trkpt>
      <trkpt lat="46.90605" lon="4.58014">
        <ele>428.84995</ele>
        <time>2022-03-12T10:57:48.000Z</time>
      </trkpt>
      <trkpt lat="46.90603" lon="4.58011">
        <ele>428.74994</ele>
        <time>2022-03-12T10:57:50.000Z</time>
      </trkpt>
      <trkpt lat="46.90601" lon="4.58008">
        <ele>428.49994</ele>
        <time>2022-03-12T10:57:52.000Z</time>
      </trkpt>
      <trkpt lat="46.90599" lon="4.58006">
        <ele>428.29996</ele>
        <time>2022-03-12T10:57:54.000Z</time>
      </trkpt>
      <trkpt lat="46.90597" lon="4.58003">
        <ele>428.04996</ele>
        <time>2022-03-12T10:57:56.000Z</time>
      </trkpt>
      <trkpt lat="46.90595" lon="4.58001">
        <ele>427.79996</ele>
        <time>2022-03-12T10:57:58.000Z</time>
      </trkpt>
      <trkpt lat="46.90594" lon="4.57999">
        <ele>427.59995</ele>
        <time>2022-03-12T10:58:00.000Z</time>
      </trkpt>
      <trkpt lat="46.90592" lon="4.57997">
        <ele>427.39996</ele>
        <time>2022-03-12T10:58:02.000Z</time>
      </trkpt>
      <trkpt lat="46.90591" lon="4.57994">
        <ele>427.14996</ele>
        <time>2022-03-12T10:58:04.000Z</time>
      </trkpt>
      <trkpt lat="46.90589" lon="4.57992">
        <ele>426.89996</ele>
        <time>2022-03-12T10:58:06.000Z</time>
      </trkpt>
      <trkpt lat="46.90587" lon="4.5799">
        <ele>426.69995</ele>
        <time>2022-03-12T10:58:08.000Z</time>
      </trkpt>
      <trkpt lat="46.90585" lon="4.57988">
        <ele>426.54996</ele>
        <time>2022-03-12T10:58:10.000Z</time>
      </trkpt>
      <trkpt lat="46.90583" lon="4.57987">
        <ele>426.39996</ele>
        <time>2022-03-12T10:58:12.000Z</time>
      </trkpt>
      <trkpt lat="46.90581" lon="4.57984">
        <ele>426.29996</ele>
        <time>2022-03-12T10:58:14.000Z</time>
      </trkpt>
      <trkpt lat="46.90579" lon="4.57982">
        <ele>426.14996</ele>
        <time>2022-03-12T10:58:16.000Z</time>
      </trkpt>
      <trkpt lat="46.90577" lon="4.57981">
        <ele>425.94995</ele>
        <time>2022-03-12T10:58:18.000Z</time>
      </trkpt>
      <trkpt lat="46.90574" lon="4.5798">
        <ele>425.79996</ele>
        <time>2022-03-12T10:58:20.000Z</time>
      </trkpt>
      <trkpt lat="46.90572" lon="4.57978">
        <ele>425.64996</ele>
        <time>2022-03-12T10:58:22.000Z</time>
      </trkpt>
      <trkpt lat="46.90569" lon="4.57974">
        <ele>425.49994</ele>
        <time>2022-03-12T10:58:24.000Z</time>
      </trkpt>
      <trkpt lat="46.90567" lon="4.57972">
        <ele>425.29996</ele>
        <time>2022-03-12T10:58:26.000Z</time>
      </trkpt>
      <trkpt lat="46.90564" lon="4.5797">
        <ele>425.04996</ele>
        <time>2022-03-12T10:58:28.000Z</time>
      </trkpt>
      <trkpt lat="46.90562" lon="4.57968">
        <ele>424.74994</ele>
        <time>2022-03-12T10:58:30.000Z</time>
      </trkpt>
      <trkpt lat="46.9056" lon="4.57965">
        <ele>424.49994</ele>
        <time>2022-03-12T10:58:32.000Z</time>
      </trkpt>
      <trkpt lat="46.90558" lon="4.57964">
        <ele>424.29996</ele>
        <time>2022-03-12T10:58:34.000Z</time>
      </trkpt>
      <trkpt lat="46.90556" lon="4.57962">
        <ele>424.09995</ele>
        <time>2022-03-12T10:58:36.000Z</time>
      </trkpt>
      <trkpt lat="46.90553" lon="4.57959">
        <ele>423.89996</ele>
        <time>2022-03-12T10:58:38.000Z</time>
      </trkpt>
      <trkpt lat="46.9055" lon="4.57957">
        <ele>423.69995</ele>
        <time>2022-03-12T10:58:40.000Z</time>
      </trkpt>
      <trkpt lat="46.90548" lon="4.57956">
        <ele>423.49994</ele>
        <time>2022-03-12T10:58:42.000Z</time>
      </trkpt>
      <trkpt lat="46.90546" lon="4.57955">
        <ele>423.29996</ele>
        <time>2022-03-12T10:58:44.000Z</time>
      </trkpt>
      <trkpt lat="46.90544" lon="4.57953">
        <ele>423.14996</ele>
        <time>2022-03-12T10:58:46.000Z</time>
      </trkpt>
      <trkpt lat="46.90542" lon="4.57951">
        <ele>422.99994</ele>
        <time>2022-03-12T10:58:48.000Z</time>
      </trkpt>
      <trkpt lat="46.90541" lon="4.57948">
        <ele>422.89996</ele>
        <time>2022-03-12T10:58:50.000Z</time>
      </trkpt>
      <trkpt lat="46.90539" lon="4.57946">
        <ele>422.74994</ele>
        <time>2022-03-12T10:58:52.000Z</time>
      </trkpt>
      <trkpt lat="46.90537" lon="4.57944">
        <ele>422.59995</ele>
        <time>2022-03-12T10:58:54.000Z</time>
      </trkpt>
      <trkpt lat="46.90535" lon="4.57941">
        <ele>422.49994</ele>
        <time>2022-03-12T10:58:56.000Z</time>
      </trkpt>
      <trkpt lat="46.90533" lon="4.57938">
        <ele>422.44995</ele>
        <time>2022-03-12T10:58:58.000Z</time>
      </trkpt>
      <trkpt lat="46.90531" lon="4.57937">
        <ele>422.29996</ele>
        <time>2022-03-12T10:59:00.000Z</time>
      </trkpt>
      <trkpt lat="46.90528" lon="4.57934">
        <ele>422.19995</ele>
        <time>2022-03-12T10:59:02.000Z</time>
      </trkpt>
      <trkpt lat="46.90527" lon="4.57932">
        <ele>422.09995</ele>
        <time>2022-03-12T10:59:04.000Z</time>
      </trkpt>
      <trkpt lat="46.90525" lon="4.5793">
        <ele>422.04996</ele>
        <time>2022-03-12T10:59:06.000Z</time>
      </trkpt>
      <trkpt lat="46.90524" lon="4.57928">
        <ele>422.04996</ele>
        <time>2022-03-12T10:59:08.000Z</time>
      </trkpt>
      <trkpt lat="46.90522" lon="4.57925">
        <ele>422.04996</ele>
        <time>2022-03-12T10:59:10.000Z</time>
      </trkpt>
      <trkpt lat="46.9052" lon="4.57921">
        <ele>422.09995</ele>
        <time>2022-03-12T10:59:12.000Z</time>
      </trkpt>
      <trkpt lat="46.90517" lon="4.57918">
        <ele>422.04996</ele>
        <time>2022-03-12T10:59:14.000Z</time>
      </trkpt>
      <trkpt lat="46.90515" lon="4.57916">
        <ele>422.09995</ele>
        <time>2022-03-12T10:59:16.000Z</time>
      </trkpt>
      <trkpt lat="46.90513" lon="4.57914">
        <ele>422.14996</ele>
        <time>2022-03-12T10:59:18.000Z</time>
      </trkpt>
      <trkpt lat="46.90511" lon="4.57911">
        <ele>422.14996</ele>
        <time>2022-03-12T10:59:20.000Z</time>
      </trkpt>
      <trkpt lat="46.90509" lon="4.57909">
        <ele>422.19995</ele>
        <time>2022-03-12T10:59:22.000Z</time>
      </trkpt>
      <trkpt lat="46.90508" lon="4.57906">
        <ele>422.19995</ele>
        <time>2022-03-12T10:59:24.000Z</time>
      </trkpt>
      <trkpt lat="46.90506" lon="4.57903">
        <ele>422.09995</ele>
        <time>2022-03-12T10:59:26.000Z</time>
      </trkpt>
      <trkpt lat="46.90505" lon="4.579">
        <ele>422.04996</ele>
        <time>2022-03-12T10:59:28.000Z</time>
      </trkpt>
      <trkpt lat="46.90504" lon="4.57897">
        <ele>421.94995</ele>
        <time>2022-03-12T10:59:30.000Z</time>
      </trkpt>
      <trkpt lat="46.90503" lon="4.57894">
        <ele>421.84995</ele>
        <time>2022-03-12T10:59:32.000Z</time>
      </trkpt>
      <trkpt lat="46.90502" lon="4.5789">
        <ele>421.74994</ele>
        <time>2022-03-12T10:59:34.000Z</time>
      </trkpt>
      <trkpt lat="46.90501" lon="4.57887">
        <ele>421.64996</ele>
        <time>2022-03-12T10:59:36.000Z</time>
      </trkpt>
      <trkpt lat="46.90501" lon="4.57884">
        <ele>421.54996</ele>
        <time>2022-03-12T10:59:38.000Z</time>
      </trkpt>
      <trkpt lat="46.905" lon="4.57882">
        <ele>421.44995</ele>
        <time>2022-03-12T10:59:40.000Z</time>
      </trkpt>
      <trkpt lat="46.90498" lon="4.5788">
        <ele>421.29996</ele>
        <time>2022-03-12T10:59:42.000Z</time>
      </trkpt>
      <trkpt lat="46.90498" lon="4.57877">
        <ele>421.09995</ele>
        <time>2022-03-12T10:59:44.000Z</time>
      </trkpt>
      <trkpt lat="46.90495" lon="4.57875">
        <ele>420.89996</ele>
        <time>2022-03-12T10:59:46.000Z</time>
      </trkpt>
      <trkpt lat="46.90494" lon="4.57872">
        <ele>420.74994</ele>
        <time>2022-03-12T10:59:48.000Z</time>
      </trkpt>
      <trkpt lat="46.90492" lon="4.57869">
        <ele>420.59995</ele>
        <time>2022-03-12T10:59:50.000Z</time>
      </trkpt>
      <trkpt lat="46.9049" lon="4.57867">
        <ele>420.44995</ele>
        <time>2022-03-12T10:59:52.000Z</time>
      </trkpt>
      <trkpt lat="46.90488" lon="4.57863">
        <ele>420.34995</ele>
        <time>2022-03-12T10:59:54.000Z</time>
      </trkpt>
      <trkpt lat="46.90486" lon="4.5786">
        <ele>420.19995</ele>
        <time>2022-03-12T10:59:56.000Z</time>
      </trkpt>
      <trkpt lat="46.90484" lon="4.57859">
        <ele>420.04996</ele>
        <time>2022-03-12T10:59:58.000Z</time>
      </trkpt>
      <trkpt lat="46.90481" lon="4.57856">
        <ele>419.94995</ele>
        <time>2022-03-12T11:00:00.000Z</time>
      </trkpt>
      <trkpt lat="46.9048" lon="4.57854">
        <ele>419.84995</ele>
        <time>2022-03-12T11:00:02.000Z</time>
      </trkpt>
      <trkpt lat="46.90478" lon="4.57851">
        <ele>419.74994</ele>
        <time>2022-03-12T11:00:04.000Z</time>
      </trkpt>
      <trkpt lat="46.90477" lon="4.57848">
        <ele>419.69995</ele>
        <time>2022-03-12T11:00:06.000Z</time>
      </trkpt>
      <trkpt lat="46.90476" lon="4.57846">
        <ele>419.59995</ele>
        <time>2022-03-12T11:00:08.000Z</time>
      </trkpt>
      <trkpt lat="46.90474" lon="4.57844">
        <ele>419.54996</ele>
        <time>2022-03-12T11:00:10.000Z</time>
      </trkpt>
      <trkpt lat="46.90472" lon="4.57841">
        <ele>419.44995</ele>
        <time>2022-03-12T11:00:13.000Z</time>
      </trkpt>
      <trkpt lat="46.9047" lon="4.57838">
        <ele>419.34995</ele>
        <time>2022-03-12T11:00:15.000Z</time>
      </trkpt>
      <trkpt lat="46.90468" lon="4.57835">
        <ele>419.19995</ele>
        <time>2022-03-12T11:00:17.000Z</time>
      </trkpt>
      <trkpt lat="46.90465" lon="4.57833">
        <ele>419.04996</ele>
        <time>2022-03-12T11:00:19.000Z</time>
      </trkpt>
      <trkpt lat="46.90463" lon="4.57831">
        <ele>418.94995</ele>
        <time>2022-03-12T11:00:21.000Z</time>
      </trkpt>
      <trkpt lat="46.9046" lon="4.57829">
        <ele>418.84995</ele>
        <time>2022-03-12T11:00:23.000Z</time>
      </trkpt>
      <trkpt lat="46.90458" lon="4.57826">
        <ele>418.74994</ele>
        <time>2022-03-12T11:00:25.000Z</time>
      </trkpt>
      <trkpt lat="46.90456" lon="4.57824">
        <ele>418.64996</ele>
        <time>2022-03-12T11:00:27.000Z</time>
      </trkpt>
      <trkpt lat="46.90453" lon="4.57822">
        <ele>418.44995</ele>
        <time>2022-03-12T11:00:29.000Z</time>
      </trkpt>
      <trkpt lat="46.90451" lon="4.57819">
        <ele>418.29996</ele>
        <time>2022-03-12T11:00:31.000Z</time>
      </trkpt>
      <trkpt lat="46.90449" lon="4.57818">
        <ele>418.19995</ele>
        <time>2022-03-12T11:00:33.000Z</time>
      </trkpt>
      <trkpt lat="46.90448" lon="4.57816">
        <ele>418.09995</ele>
        <time>2022-03-12T11:00:35.000Z</time>
      </trkpt>
      <trkpt lat="46.90446" lon="4.57814">
        <ele>417.99994</ele>
        <time>2022-03-12T11:00:37.000Z</time>
      </trkpt>
      <trkpt lat="46.90444" lon="4.57812">
        <ele>417.89996</ele>
        <time>2022-03-12T11:00:39.000Z</time>
      </trkpt>
      <trkpt lat="46.90442" lon="4.5781">
        <ele>417.79996</ele>
        <time>2022-03-12T11:00:41.000Z</time>
      </trkpt>
      <trkpt lat="46.9044" lon="4.57808">
        <ele>417.64996</ele>
        <time>2022-03-12T11:00:43.000Z</time>
      </trkpt>
      <trkpt lat="46.90438" lon="4.57805">
        <ele>417.59995</ele>
        <time>2022-03-12T11:00:45.000Z</time>
      </trkpt>
      <trkpt lat="46.90436" lon="4.57803">
        <ele>417.54996</ele>
        <time>2022-03-12T11:00:47.000Z</time>
      </trkpt>
      <trkpt lat="46.90434" lon="4.578">
        <ele>417.44995</ele>
        <time>2022-03-12T11:00:49.000Z</time>
      </trkpt>
      <trkpt lat="46.90431" lon="4.57797">
        <ele>417.29996</ele>
        <time>2022-03-12T11:00:51.000Z</time>
      </trkpt>
      <trkpt lat="46.90429" lon="4.57796">
        <ele>417.24994</ele>
        <time>2022-03-12T11:00:53.000Z</time>
      </trkpt>
      <trkpt lat="46.90428" lon="4.57794">
        <ele>417.19995</ele>
        <time>2022-03-12T11:00:55.000Z</time>
      </trkpt>
      <trkpt lat="46.90426" lon="4.57792">
        <ele>417.19995</ele>
        <time>2022-03-12T11:00:57.000Z</time>
      </trkpt>
      <trkpt lat="46.90424" lon="4.5779">
        <ele>417.19995</ele>
        <time>2022-03-12T11:00:59.000Z</time>
      </trkpt>
      <trkpt lat="46.90422" lon="4.57787">
        <ele>417.19995</ele>
        <time>2022-03-12T11:01:01.000Z</time>
      </trkpt>
      <trkpt lat="46.9042" lon="4.57785">
        <ele>417.14996</ele>
        <time>2022-03-12T11:01:03.000Z</time>
      </trkpt>
      <trkpt lat="46.90418" lon="4.57783">
        <ele>417.14996</ele>
        <time>2022-03-12T11:01:05.000Z</time>
      </trkpt>
      <trkpt lat="46.90416" lon="4.57782">
        <ele>417.19995</ele>
        <time>2022-03-12T11:01:07.000Z</time>
      </trkpt>
      <trkpt lat="46.90415" lon="4.5778">
        <ele>417.24994</ele>
        <time>2022-03-12T11:01:09.000Z</time>
      </trkpt>
      <trkpt lat="46.90413" lon="4.57777">
        <ele>417.29996</ele>
        <time>2022-03-12T11:01:11.000Z</time>
      </trkpt>
      <trkpt lat="46.90411" lon="4.57775">
        <ele>417.29996</ele>
        <time>2022-03-12T11:01:13.000Z</time>
      </trkpt>
      <trkpt lat="46.90408" lon="4.57773">
        <ele>417.29996</ele>
        <time>2022-03-12T11:01:15.000Z</time>
      </trkpt>
      <trkpt lat="46.90406" lon="4.57772">
        <ele>417.34995</ele>
        <time>2022-03-12T11:01:17.000Z</time>
      </trkpt>
      <trkpt lat="46.90404" lon="4.57771">
        <ele>417.44995</ele>
        <time>2022-03-12T11:01:19.000Z</time>
      </trkpt>
      <trkpt lat="46.90401" lon="4.57769">
        <ele>417.49994</ele>
        <time>2022-03-12T11:01:21.000Z</time>
      </trkpt>
      <trkpt lat="46.90399" lon="4.57767">
        <ele>417.54996</ele>
        <time>2022-03-12T11:01:23.000Z</time>
      </trkpt>
      <trkpt lat="46.90397" lon="4.57765">
        <ele>417.54996</ele>
        <time>2022-03-12T11:01:25.000Z</time>
      </trkpt>
      <trkpt lat="46.90395" lon="4.57764">
        <ele>417.59995</ele>
        <time>2022-03-12T11:01:27.000Z</time>
      </trkpt>
      <trkpt lat="46.90393" lon="4.57763">
        <ele>417.69995</ele>
        <time>2022-03-12T11:01:29.000Z</time>
      </trkpt>
      <trkpt lat="46.90391" lon="4.57761">
        <ele>417.79996</ele>
        <time>2022-03-12T11:01:31.000Z</time>
      </trkpt>
      <trkpt lat="46.90389" lon="4.5776">
        <ele>417.84995</ele>
        <time>2022-03-12T11:01:33.000Z</time>
      </trkpt>
      <trkpt lat="46.90387" lon="4.57759">
        <ele>417.89996</ele>
        <time>2022-03-12T11:01:35.000Z</time>
      </trkpt>
      <trkpt lat="46.90384" lon="4.57758">
        <ele>417.94995</ele>
        <time>2022-03-12T11:01:37.000Z</time>
      </trkpt>
      <trkpt lat="46.90381" lon="4.57757">
        <ele>417.94995</ele>
        <time>2022-03-12T11:01:39.000Z</time>
      </trkpt>
      <trkpt lat="46.90379" lon="4.57756">
        <ele>417.89996</ele>
        <time>2022-03-12T11:01:41.000Z</time>
      </trkpt>
      <trkpt lat="46.90377" lon="4.57754">
        <ele>417.84995</ele>
        <time>2022-03-12T11:01:43.000Z</time>
      </trkpt>
      <trkpt lat="46.90374" lon="4.57752">
        <ele>417.74994</ele>
        <time>2022-03-12T11:01:45.000Z</time>
      </trkpt>
      <trkpt lat="46.90372" lon="4.57751">
        <ele>417.59995</ele>
        <time>2022-03-12T11:01:47.000Z</time>
      </trkpt>
      <trkpt lat="46.9037" lon="4.5775">
        <ele>417.49994</ele>
        <time>2022-03-12T11:01:49.000Z</time>
      </trkpt>
      <trkpt lat="46.90367" lon="4.57749">
        <ele>417.44995</ele>
        <time>2022-03-12T11:01:51.000Z</time>
      </trkpt>
      <trkpt lat="46.90364" lon="4.57746">
        <ele>417.39996</ele>
        <time>2022-03-12T11:01:53.000Z</time>
      </trkpt>
      <trkpt lat="46.90362" lon="4.57744">
        <ele>417.34995</ele>
        <time>2022-03-12T11:01:55.000Z</time>
      </trkpt>
      <trkpt lat="46.9036" lon="4.57741">
        <ele>417.24994</ele>
        <time>2022-03-12T11:01:57.000Z</time>
      </trkpt>
      <trkpt lat="46.90357" lon="4.5774">
        <ele>417.09995</ele>
        <time>2022-03-12T11:01:59.000Z</time>
      </trkpt>
      <trkpt lat="46.90355" lon="4.57738">
        <ele>416.99994</ele>
        <time>2022-03-12T11:02:01.000Z</time>
      </trkpt>
      <trkpt lat="46.90352" lon="4.57738">
        <ele>416.89996</ele>
        <time>2022-03-12T11:02:03.000Z</time>
      </trkpt>
      <trkpt lat="46.90351" lon="4.57736">
        <ele>416.84995</ele>
        <time>2022-03-12T11:02:05.000Z</time>
      </trkpt>
      <trkpt lat="46.90348" lon="4.57734">
        <ele>416.74994</ele>
        <time>2022-03-12T11:02:07.000Z</time>
      </trkpt>
      <trkpt lat="46.90346" lon="4.57732">
        <ele>416.59995</ele>
        <time>2022-03-12T11:02:09.000Z</time>
      </trkpt>
      <trkpt lat="46.90344" lon="4.57731">
        <ele>416.44995</ele>
        <time>2022-03-12T11:02:11.000Z</time>
      </trkpt>
      <trkpt lat="46.90341" lon="4.57729">
        <ele>416.29996</ele>
        <time>2022-03-12T11:02:13.000Z</time>
      </trkpt>
      <trkpt lat="46.90339" lon="4.57728">
        <ele>416.14996</ele>
        <time>2022-03-12T11:02:15.000Z</time>
      </trkpt>
      <trkpt lat="46.90337" lon="4.57726">
        <ele>415.99994</ele>
        <time>2022-03-12T11:02:17.000Z</time>
      </trkpt>
      <trkpt lat="46.90334" lon="4.57725">
        <ele>415.89996</ele>
        <time>2022-03-12T11:02:19.000Z</time>
      </trkpt>
      <trkpt lat="46.90332" lon="4.57724">
        <ele>415.84995</ele>
        <time>2022-03-12T11:02:21.000Z</time>
      </trkpt>
      <trkpt lat="46.90329" lon="4.57722">
        <ele>415.84995</ele>
        <time>2022-03-12T11:02:23.000Z</time>
      </trkpt>
      <trkpt lat="46.90326" lon="4.57721">
        <ele>415.89996</ele>
        <time>2022-03-12T11:02:25.000Z</time>
      </trkpt>
      <trkpt lat="46.90324" lon="4.5772">
        <ele>415.94995</ele>
        <time>2022-03-12T11:02:27.000Z</time>
      </trkpt>
      <trkpt lat="46.90322" lon="4.5772">
        <ele>415.99994</ele>
        <time>2022-03-12T11:02:29.000Z</time>
      </trkpt>
      <trkpt lat="46.90319" lon="4.57718">
        <ele>415.94995</ele>
        <time>2022-03-12T11:02:31.000Z</time>
      </trkpt>
      <trkpt lat="46.90317" lon="4.57716">
        <ele>415.89996</ele>
        <time>2022-03-12T11:02:33.000Z</time>
      </trkpt>
      <trkpt lat="46.90314" lon="4.57715">
        <ele>415.79996</ele>
        <time>2022-03-12T11:02:35.000Z</time>
      </trkpt>
      <trkpt lat="46.90313" lon="4.57714">
        <ele>415.69995</ele>
        <time>2022-03-12T11:02:36.000Z</time>
      </trkpt>
      <trkpt lat="46.9031" lon="4.57712">
        <ele>415.59995</ele>
        <time>2022-03-12T11:02:38.000Z</time>
      </trkpt>
      <trkpt lat="46.90309" lon="4.57711">
        <ele>415.49994</ele>
        <time>2022-03-12T11:02:40.000Z</time>
      </trkpt>
      <trkpt lat="46.90307" lon="4.57709">
        <ele>415.39996</ele>
        <time>2022-03-12T11:02:42.000Z</time>
      </trkpt>
      <trkpt lat="46.90304" lon="4.57709">
        <ele>415.24994</ele>
        <time>2022-03-12T11:02:44.000Z</time>
      </trkpt>
      <trkpt lat="46.90301" lon="4.57708">
        <ele>415.04996</ele>
        <time>2022-03-12T11:02:47.000Z</time>
      </trkpt>
      <trkpt lat="46.90299" lon="4.57708">
        <ele>414.89996</ele>
        <time>2022-03-12T11:02:49.000Z</time>
      </trkpt>
      <trkpt lat="46.90297" lon="4.57706">
        <ele>414.74994</ele>
        <time>2022-03-12T11:02:51.000Z</time>
      </trkpt>
      <trkpt lat="46.90295" lon="4.57704">
        <ele>414.59995</ele>
        <time>2022-03-12T11:02:53.000Z</time>
      </trkpt>
      <trkpt lat="46.90293" lon="4.57703">
        <ele>414.44995</ele>
        <time>2022-03-12T11:02:55.000Z</time>
      </trkpt>
      <trkpt lat="46.90291" lon="4.57702">
        <ele>414.29996</ele>
        <time>2022-03-12T11:02:57.000Z</time>
      </trkpt>
      <trkpt lat="46.90288" lon="4.57702">
        <ele>414.14996</ele>
        <time>2022-03-12T11:02:59.000Z</time>
      </trkpt>
      <trkpt lat="46.90287" lon="4.577">
        <ele>414.04996</ele>
        <time>2022-03-12T11:03:02.000Z</time>
      </trkpt>
      <trkpt lat="46.90285" lon="4.57698">
        <ele>413.89996</ele>
        <time>2022-03-12T11:03:05.000Z</time>
      </trkpt>
      <trkpt lat="46.90283" lon="4.57697">
        <ele>413.74994</ele>
        <time>2022-03-12T11:05:05.000Z</time>
      </trkpt>
      <trkpt lat="46.90281" lon="4.57695">
        <ele>413.59995</ele>
        <time>2022-03-12T11:05:08.000Z</time>
      </trkpt>
      <trkpt lat="46.90279" lon="4.57693">
        <ele>413.44995</ele>
        <time>2022-03-12T11:05:11.000Z</time>
      </trkpt>
      <trkpt lat="46.90276" lon="4.57692">
        <ele>413.34995</ele>
        <time>2022-03-12T11:05:13.000Z</time>
      </trkpt>
      <trkpt lat="46.90274" lon="4.57692">
        <ele>413.24994</ele>
        <time>2022-03-12T11:05:15.000Z</time>
      </trkpt>
      <trkpt lat="46.90272" lon="4.57691">
        <ele>413.19995</ele>
        <time>2022-03-12T11:05:17.000Z</time>
      </trkpt>
      <trkpt lat="46.9027" lon="4.5769">
        <ele>413.14996</ele>
        <time>2022-03-12T11:05:19.000Z</time>
      </trkpt>
      <trkpt lat="46.90267" lon="4.57689">
        <ele>413.09995</ele>
        <time>2022-03-12T11:05:21.000Z</time>
      </trkpt>
      <trkpt lat="46.90265" lon="4.57687">
        <ele>413.04996</ele>
        <time>2022-03-12T11:05:23.000Z</time>
      </trkpt>
      <trkpt lat="46.90263" lon="4.57686">
        <ele>412.99994</ele>
        <time>2022-03-12T11:05:25.000Z</time>
      </trkpt>
      <trkpt lat="46.9026" lon="4.57686">
        <ele>412.89996</ele>
        <time>2022-03-12T11:05:27.000Z</time>
      </trkpt>
      <trkpt lat="46.90258" lon="4.57686">
        <ele>412.84995</ele>
        <time>2022-03-12T11:05:29.000Z</time>
      </trkpt>
      <trkpt lat="46.90256" lon="4.57685">
        <ele>412.79996</ele>
        <time>2022-03-12T11:05:31.000Z</time>
      </trkpt>
      <trkpt lat="46.90254" lon="4.57685">
        <ele>412.69995</ele>
        <time>2022-03-12T11:05:33.000Z</time>
      </trkpt>
      <trkpt lat="46.90252" lon="4.57684">
        <ele>412.54996</ele>
        <time>2022-03-12T11:05:35.000Z</time>
      </trkpt>
      <trkpt lat="46.9025" lon="4.57683">
        <ele>412.34995</ele>
        <time>2022-03-12T11:05:37.000Z</time>
      </trkpt>
      <trkpt lat="46.90248" lon="4.57682">
        <ele>412.14996</ele>
        <time>2022-03-12T11:05:39.000Z</time>
      </trkpt>
      <trkpt lat="46.90246" lon="4.57681">
        <ele>411.94995</ele>
        <time>2022-03-12T11:05:41.000Z</time>
      </trkpt>
      <trkpt lat="46.90243" lon="4.5768">
        <ele>411.69995</ele>
        <time>2022-03-12T11:05:43.000Z</time>
      </trkpt>
      <trkpt lat="46.90241" lon="4.57679">
        <ele>411.49994</ele>
        <time>2022-03-12T11:05:45.000Z</time>
      </trkpt>
      <trkpt lat="46.90238" lon="4.57678">
        <ele>411.24994</ele>
        <time>2022-03-12T11:05:47.000Z</time>
      </trkpt>
      <trkpt lat="46.90236" lon="4.57677">
        <ele>410.99994</ele>
        <time>2022-03-12T11:05:49.000Z</time>
      </trkpt>
      <trkpt lat="46.90234" lon="4.57677">
        <ele>410.74994</ele>
        <time>2022-03-12T11:05:51.000Z</time>
      </trkpt>
      <trkpt lat="46.90231" lon="4.57676">
        <ele>410.49994</ele>
        <time>2022-03-12T11:05:53.000Z</time>
      </trkpt>
      <trkpt lat="46.90229" lon="4.57675">
        <ele>410.24994</ele>
        <time>2022-03-12T11:05:55.000Z</time>
      </trkpt>
      <trkpt lat="46.90227" lon="4.57674">
        <ele>409.94995</ele>
        <time>2022-03-12T11:05:57.000Z</time>
      </trkpt>
      <trkpt lat="46.90224" lon="4.57673">
        <ele>409.69995</ele>
        <time>2022-03-12T11:05:59.000Z</time>
      </trkpt>
      <trkpt lat="46.90222" lon="4.57672">
        <ele>409.44995</ele>
        <time>2022-03-12T11:06:00.000Z</time>
      </trkpt>
      <trkpt lat="46.90219" lon="4.57671">
        <ele>409.19995</ele>
        <time>2022-03-12T11:06:02.000Z</time>
      </trkpt>
      <trkpt lat="46.90216" lon="4.57669">
        <ele>408.94995</ele>
        <time>2022-03-12T11:06:04.000Z</time>
      </trkpt>
      <trkpt lat="46.90214" lon="4.57667">
        <ele>408.74994</ele>
        <time>2022-03-12T11:06:06.000Z</time>
      </trkpt>
      <trkpt lat="46.90212" lon="4.57666">
        <ele>408.54996</ele>
        <time>2022-03-12T11:06:08.000Z</time>
      </trkpt>
      <trkpt lat="46.90209" lon="4.57665">
        <ele>408.29996</ele>
        <time>2022-03-12T11:06:10.000Z</time>
      </trkpt>
      <trkpt lat="46.90206" lon="4.57663">
        <ele>408.09995</ele>
        <time>2022-03-12T11:06:12.000Z</time>
      </trkpt>
      <trkpt lat="46.90204" lon="4.57661">
        <ele>407.89996</ele>
        <time>2022-03-12T11:06:14.000Z</time>
      </trkpt>
      <trkpt lat="46.90201" lon="4.5766">
        <ele>407.74994</ele>
        <time>2022-03-12T11:06:16.000Z</time>
      </trkpt>
      <trkpt lat="46.90199" lon="4.57659">
        <ele>407.59995</ele>
        <time>2022-03-12T11:06:18.000Z</time>
      </trkpt>
      <trkpt lat="46.90197" lon="4.57659">
        <ele>407.44995</ele>
        <time>2022-03-12T11:06:20.000Z</time>
      </trkpt>
      <trkpt lat="46.90195" lon="4.57658">
        <ele>407.29996</ele>
        <time>2022-03-12T11:06:22.000Z</time>
      </trkpt>
      <trkpt lat="46.90192" lon="4.57657">
        <ele>407.14996</ele>
        <time>2022-03-12T11:06:24.000Z</time>
      </trkpt>
      <trkpt lat="46.9019" lon="4.57657">
        <ele>407.04996</ele>
        <time>2022-03-12T11:06:26.000Z</time>
      </trkpt>
      <trkpt lat="46.90188" lon="4.57656">
        <ele>406.94995</ele>
        <time>2022-03-12T11:06:28.000Z</time>
      </trkpt>
      <trkpt lat="46.90186" lon="4.57656">
        <ele>406.79996</ele>
        <time>2022-03-12T11:06:30.000Z</time>
      </trkpt>
      <trkpt lat="46.90183" lon="4.57655">
        <ele>406.64996</ele>
        <time>2022-03-12T11:06:32.000Z</time>
      </trkpt>
      <trkpt lat="46.90181" lon="4.57654">
        <ele>406.44995</ele>
        <time>2022-03-12T11:06:34.000Z</time>
      </trkpt>
      <trkpt lat="46.90179" lon="4.57654">
        <ele>406.29996</ele>
        <time>2022-03-12T11:06:36.000Z</time>
      </trkpt>
      <trkpt lat="46.90176" lon="4.57653">
        <ele>406.04996</ele>
        <time>2022-03-12T11:06:38.000Z</time>
      </trkpt>
      <trkpt lat="46.90174" lon="4.57652">
        <ele>405.79996</ele>
        <time>2022-03-12T11:06:40.000Z</time>
      </trkpt>
      <trkpt lat="46.90172" lon="4.57651">
        <ele>405.54996</ele>
        <time>2022-03-12T11:06:42.000Z</time>
      </trkpt>
      <trkpt lat="46.9017" lon="4.5765">
        <ele>405.24994</ele>
        <time>2022-03-12T11:06:44.000Z</time>
      </trkpt>
      <trkpt lat="46.90167" lon="4.5765">
        <ele>404.89996</ele>
        <time>2022-03-12T11:06:46.000Z</time>
      </trkpt>
      <trkpt lat="46.90165" lon="4.57649">
        <ele>404.54996</ele>
        <time>2022-03-12T11:06:48.000Z</time>
      </trkpt>
      <trkpt lat="46.90163" lon="4.57648">
        <ele>404.19995</ele>
        <time>2022-03-12T11:06:50.000Z</time>
      </trkpt>
      <trkpt lat="46.90161" lon="4.57647">
        <ele>403.84995</ele>
        <time>2022-03-12T11:06:52.000Z</time>
      </trkpt>
      <trkpt lat="46.90158" lon="4.57647">
        <ele>403.54996</ele>
        <time>2022-03-12T11:06:54.000Z</time>
      </trkpt>
      <trkpt lat="46.90156" lon="4.57646">
        <ele>403.19995</ele>
        <time>2022-03-12T11:06:56.000Z</time>
      </trkpt>
      <trkpt lat="46.90153" lon="4.57645">
        <ele>402.84995</ele>
        <time>2022-03-12T11:06:58.000Z</time>
      </trkpt>
      <trkpt lat="46.90151" lon="4.57644">
        <ele>402.49994</ele>
        <time>2022-03-12T11:07:00.000Z</time>
      </trkpt>
      <trkpt lat="46.90149" lon="4.57644">
        <ele>402.09995</ele>
        <time>2022-03-12T11:07:02.000Z</time>
      </trkpt>
      <trkpt lat="46.90147" lon="4.57644">
        <ele>401.74994</ele>
        <time>2022-03-12T11:07:04.000Z</time>
      </trkpt>
      <trkpt lat="46.90145" lon="4.57643">
        <ele>401.39996</ele>
        <time>2022-03-12T11:07:06.000Z</time>
      </trkpt>
      <trkpt lat="46.90142" lon="4.57642">
        <ele>401.04996</ele>
        <time>2022-03-12T11:07:08.000Z</time>
      </trkpt>
      <trkpt lat="46.9014" lon="4.57641">
        <ele>400.69995</ele>
        <time>2022-03-12T11:07:10.000Z</time>
      </trkpt>
      <trkpt lat="46.90137" lon="4.5764">
        <ele>400.34995</ele>
        <time>2022-03-12T11:07:12.000Z</time>
      </trkpt>
      <trkpt lat="46.90134" lon="4.57639">
        <ele>400.04996</ele>
        <time>2022-03-12T11:07:14.000Z</time>
      </trkpt>
      <trkpt lat="46.90132" lon="4.5764">
        <ele>399.69995</ele>
        <time>2022-03-12T11:07:16.000Z</time>
      </trkpt>
      <trkpt lat="46.9013" lon="4.57639">
        <ele>399.34995</ele>
        <time>2022-03-12T11:07:18.000Z</time>
      </trkpt>
      <trkpt lat="46.90127" lon="4.57639">
        <ele>398.99994</ele>
        <time>2022-03-12T11:07:20.000Z</time>
      </trkpt>
      <trkpt lat="46.90125" lon="4.57639">
        <ele>398.59995</ele>
        <time>2022-03-12T11:07:22.000Z</time>
      </trkpt>
      <trkpt lat="46.90122" lon="4.57639">
        <ele>398.24994</ele>
        <time>2022-03-12T11:07:24.000Z</time>
      </trkpt>
      <trkpt lat="46.9012" lon="4.57639">
        <ele>397.94995</ele>
        <time>2022-03-12T11:07:26.000Z</time>
      </trkpt>
      <trkpt lat="46.90117" lon="4.57639">
        <ele>397.59995</ele>
        <time>2022-03-12T11:07:28.000Z</time>
      </trkpt>
      <trkpt lat="46.90114" lon="4.57639">
        <ele>397.29996</ele>
        <time>2022-03-12T11:07:30.000Z</time>
      </trkpt>
      <trkpt lat="46.90112" lon="4.57639">
        <ele>396.94995</ele>
        <time>2022-03-12T11:07:32.000Z</time>
      </trkpt>
      <trkpt lat="46.9011" lon="4.57638">
        <ele>396.59995</ele>
        <time>2022-03-12T11:07:34.000Z</time>
      </trkpt>
      <trkpt lat="46.90108" lon="4.57638">
        <ele>396.29996</ele>
        <time>2022-03-12T11:07:36.000Z</time>
      </trkpt>
      <trkpt lat="46.90105" lon="4.57638">
        <ele>395.94995</ele>
        <time>2022-03-12T11:07:38.000Z</time>
      </trkpt>
      <trkpt lat="46.90103" lon="4.57638">
        <ele>395.59995</ele>
        <time>2022-03-12T11:07:40.000Z</time>
      </trkpt>
      <trkpt lat="46.90101" lon="4.57637">
        <ele>395.24994</ele>
        <time>2022-03-12T11:07:42.000Z</time>
      </trkpt>
      <trkpt lat="46.90099" lon="4.57637">
        <ele>394.84995</ele>
        <time>2022-03-12T11:07:44.000Z</time>
      </trkpt>
      <trkpt lat="46.90096" lon="4.57637">
        <ele>394.44995</ele>
        <time>2022-03-12T11:07:46.000Z</time>
      </trkpt>
      <trkpt lat="46.90094" lon="4.57636">
        <ele>394.04996</ele>
        <time>2022-03-12T11:07:48.000Z</time>
      </trkpt>
      <trkpt lat="46.90091" lon="4.57635">
        <ele>393.69995</ele>
        <time>2022-03-12T11:07:50.000Z</time>
      </trkpt>
      <trkpt lat="46.90089" lon="4.57636">
        <ele>393.29996</ele>
        <time>2022-03-12T11:07:52.000Z</time>
      </trkpt>
      <trkpt lat="46.90086" lon="4.57634">
        <ele>392.89996</ele>
        <time>2022-03-12T11:07:55.000Z</time>
      </trkpt>
      <trkpt lat="46.90084" lon="4.57634">
        <ele>392.54996</ele>
        <time>2022-03-12T11:07:57.000Z</time>
      </trkpt>
      <trkpt lat="46.90082" lon="4.57632">
        <ele>392.24994</ele>
        <time>2022-03-12T11:07:59.000Z</time>
      </trkpt>
      <trkpt lat="46.9008" lon="4.57632">
        <ele>391.94995</ele>
        <time>2022-03-12T11:08:01.000Z</time>
      </trkpt>
      <trkpt lat="46.90077" lon="4.57631">
        <ele>391.74994</ele>
        <time>2022-03-12T11:08:03.000Z</time>
      </trkpt>
      <trkpt lat="46.90074" lon="4.5763">
        <ele>391.54996</ele>
        <time>2022-03-12T11:08:05.000Z</time>
      </trkpt>
      <trkpt lat="46.90071" lon="4.57629">
        <ele>391.34995</ele>
        <time>2022-03-12T11:08:07.000Z</time>
      </trkpt>
      <trkpt lat="46.90069" lon="4.57628">
        <ele>391.19995</ele>
        <time>2022-03-12T11:08:09.000Z</time>
      </trkpt>
      <trkpt lat="46.90066" lon="4.57627">
        <ele>391.04996</ele>
        <time>2022-03-12T11:08:11.000Z</time>
      </trkpt>
      <trkpt lat="46.90064" lon="4.57625">
        <ele>390.94995</ele>
        <time>2022-03-12T11:08:13.000Z</time>
      </trkpt>
      <trkpt lat="46.90061" lon="4.57624">
        <ele>390.84995</ele>
        <time>2022-03-12T11:08:15.000Z</time>
      </trkpt>
      <trkpt lat="46.90059" lon="4.57624">
        <ele>390.74994</ele>
        <time>2022-03-12T11:08:17.000Z</time>
      </trkpt>
      <trkpt lat="46.90057" lon="4.57623">
        <ele>390.74994</ele>
        <time>2022-03-12T11:08:19.000Z</time>
      </trkpt>
      <trkpt lat="46.90054" lon="4.57622">
        <ele>390.74994</ele>
        <time>2022-03-12T11:08:21.000Z</time>
      </trkpt>
      <trkpt lat="46.90051" lon="4.57621">
        <ele>390.74994</ele>
        <time>2022-03-12T11:08:23.000Z</time>
      </trkpt>
      <trkpt lat="46.90048" lon="4.5762">
        <ele>390.79996</ele>
        <time>2022-03-12T11:08:25.000Z</time>
      </trkpt>
      <trkpt lat="46.90046" lon="4.5762">
        <ele>390.89996</ele>
        <time>2022-03-12T11:08:27.000Z</time>
      </trkpt>
      <trkpt lat="46.90044" lon="4.5762">
        <ele>390.99994</ele>
        <time>2022-03-12T11:08:29.000Z</time>
      </trkpt>
      <trkpt lat="46.90041" lon="4.57619">
        <ele>391.09995</ele>
        <time>2022-03-12T11:08:31.000Z</time>
      </trkpt>
      <trkpt lat="46.90039" lon="4.57617">
        <ele>391.24994</ele>
        <time>2022-03-12T11:08:33.000Z</time>
      </trkpt>
      <trkpt lat="46.90037" lon="4.57617">
        <ele>391.39996</ele>
        <time>2022-03-12T11:08:35.000Z</time>
      </trkpt>
      <trkpt lat="46.90035" lon="4.57616">
        <ele>391.54996</ele>
        <time>2022-03-12T11:08:37.000Z</time>
      </trkpt>
      <trkpt lat="46.90034" lon="4.57615">
        <ele>391.69995</ele>
        <time>2022-03-12T11:08:39.000Z</time>
      </trkpt>
      <trkpt lat="46.90031" lon="4.57615">
        <ele>391.84995</ele>
        <time>2022-03-12T11:08:41.000Z</time>
      </trkpt>
      <trkpt lat="46.90029" lon="4.57615">
        <ele>391.94995</ele>
        <time>2022-03-12T11:08:43.000Z</time>
      </trkpt>
      <trkpt lat="46.90026" lon="4.57614">
        <ele>392.04996</ele>
        <time>2022-03-12T11:08:45.000Z</time>
      </trkpt>
      <trkpt lat="46.90024" lon="4.57613">
        <ele>392.14996</ele>
        <time>2022-03-12T11:08:47.000Z</time>
      </trkpt>
      <trkpt lat="46.90021" lon="4.57612">
        <ele>392.29996</ele>
        <time>2022-03-12T11:08:49.000Z</time>
      </trkpt>
      <trkpt lat="46.90019" lon="4.5761">
        <ele>392.39996</ele>
        <time>2022-03-12T11:08:51.000Z</time>
      </trkpt>
      <trkpt lat="46.90017" lon="4.57609">
        <ele>392.49994</ele>
        <time>2022-03-12T11:08:53.000Z</time>
      </trkpt>
      <trkpt lat="46.90014" lon="4.57609">
        <ele>392.64996</ele>
        <time>2022-03-12T11:08:55.000Z</time>
      </trkpt>
      <trkpt lat="46.90012" lon="4.57607">
        <ele>392.74994</ele>
        <time>2022-03-12T11:08:57.000Z</time>
      </trkpt>
      <trkpt lat="46.9001" lon="4.57607">
        <ele>392.84995</ele>
        <time>2022-03-12T11:08:59.000Z</time>
      </trkpt>
      <trkpt lat="46.90008" lon="4.57606">
        <ele>392.94995</ele>
        <time>2022-03-12T11:09:01.000Z</time>
      </trkpt>
      <trkpt lat="46.90006" lon="4.57605">
        <ele>393.09995</ele>
        <time>2022-03-12T11:09:03.000Z</time>
      </trkpt>
      <trkpt lat="46.90003" lon="4.57604">
        <ele>393.24994</ele>
        <time>2022-03-12T11:09:05.000Z</time>
      </trkpt>
      <trkpt lat="46.90001" lon="4.57603">
        <ele>393.34995</ele>
        <time>2022-03-12T11:09:07.000Z</time>
      </trkpt>
      <trkpt lat="46.89999" lon="4.57602">
        <ele>393.44995</ele>
        <time>2022-03-12T11:09:09.000Z</time>
      </trkpt>
      <trkpt lat="46.89997" lon="4.57601">
        <ele>393.54996</ele>
        <time>2022-03-12T11:09:11.000Z</time>
      </trkpt>
      <trkpt lat="46.89995" lon="4.576">
        <ele>393.64996</ele>
        <time>2022-03-12T11:09:13.000Z</time>
      </trkpt>
      <trkpt lat="46.89992" lon="4.57598">
        <ele>393.69995</ele>
        <time>2022-03-12T11:09:15.000Z</time>
      </trkpt>
      <trkpt lat="46.8999" lon="4.57596">
        <ele>393.74994</ele>
        <time>2022-03-12T11:09:17.000Z</time>
      </trkpt>
      <trkpt lat="46.89988" lon="4.57596">
        <ele>393.79996</ele>
        <time>2022-03-12T11:09:19.000Z</time>
      </trkpt>
      <trkpt lat="46.89985" lon="4.57595">
        <ele>393.89996</ele>
        <time>2022-03-12T11:09:21.000Z</time>
      </trkpt>
      <trkpt lat="46.89983" lon="4.57594">
        <ele>393.99994</ele>
        <time>2022-03-12T11:09:23.000Z</time>
      </trkpt>
      <trkpt lat="46.89981" lon="4.57593">
        <ele>394.04996</ele>
        <time>2022-03-12T11:09:25.000Z</time>
      </trkpt>
      <trkpt lat="46.89978" lon="4.57591">
        <ele>394.09995</ele>
        <time>2022-03-12T11:09:27.000Z</time>
      </trkpt>
      <trkpt lat="46.89975" lon="4.57589">
        <ele>394.04996</ele>
        <time>2022-03-12T11:09:29.000Z</time>
      </trkpt>
      <trkpt lat="46.89973" lon="4.57588">
        <ele>394.04996</ele>
        <time>2022-03-12T11:09:31.000Z</time>
      </trkpt>
      <trkpt lat="46.89971" lon="4.57587">
        <ele>394.09995</ele>
        <time>2022-03-12T11:09:33.000Z</time>
      </trkpt>
      <trkpt lat="46.89968" lon="4.57586">
        <ele>394.09995</ele>
        <time>2022-03-12T11:09:35.000Z</time>
      </trkpt>
      <trkpt lat="46.89966" lon="4.57586">
        <ele>394.09995</ele>
        <time>2022-03-12T11:09:37.000Z</time>
      </trkpt>
      <trkpt lat="46.89963" lon="4.57586">
        <ele>394.09995</ele>
        <time>2022-03-12T11:09:39.000Z</time>
      </trkpt>
      <trkpt lat="46.8996" lon="4.57586">
        <ele>394.09995</ele>
        <time>2022-03-12T11:09:41.000Z</time>
      </trkpt>
      <trkpt lat="46.89957" lon="4.57583">
        <ele>394.14996</ele>
        <time>2022-03-12T11:09:43.000Z</time>
      </trkpt>
      <trkpt lat="46.89955" lon="4.57582">
        <ele>394.14996</ele>
        <time>2022-03-12T11:09:44.000Z</time>
      </trkpt>
      <trkpt lat="46.89953" lon="4.57582">
        <ele>394.09995</ele>
        <time>2022-03-12T11:09:46.000Z</time>
      </trkpt>
      <trkpt lat="46.8995" lon="4.57582">
        <ele>394.04996</ele>
        <time>2022-03-12T11:09:48.000Z</time>
      </trkpt>
      <trkpt lat="46.89948" lon="4.57582">
        <ele>394.04996</ele>
        <time>2022-03-12T11:09:50.000Z</time>
      </trkpt>
      <trkpt lat="46.89946" lon="4.5758">
        <ele>394.04996</ele>
        <time>2022-03-12T11:09:52.000Z</time>
      </trkpt>
      <trkpt lat="46.89943" lon="4.57579">
        <ele>394.09995</ele>
        <time>2022-03-12T11:09:54.000Z</time>
      </trkpt>
      <trkpt lat="46.89941" lon="4.57578">
        <ele>394.14996</ele>
        <time>2022-03-12T11:09:56.000Z</time>
      </trkpt>
      <trkpt lat="46.89938" lon="4.57577">
        <ele>394.19995</ele>
        <time>2022-03-12T11:09:58.000Z</time>
      </trkpt>
      <trkpt lat="46.89935" lon="4.57576">
        <ele>394.24994</ele>
        <time>2022-03-12T11:10:00.000Z</time>
      </trkpt>
      <trkpt lat="46.89932" lon="4.57575">
        <ele>394.34995</ele>
        <time>2022-03-12T11:10:02.000Z</time>
      </trkpt>
      <trkpt lat="46.8993" lon="4.57574">
        <ele>394.49994</ele>
        <time>2022-03-12T11:10:04.000Z</time>
      </trkpt>
      <trkpt lat="46.89928" lon="4.57573">
        <ele>394.64996</ele>
        <time>2022-03-12T11:10:06.000Z</time>
      </trkpt>
      <trkpt lat="46.89926" lon="4.57572">
        <ele>394.89996</ele>
        <time>2022-03-12T11:10:08.000Z</time>
      </trkpt>
      <trkpt lat="46.89924" lon="4.57571">
        <ele>395.14996</ele>
        <time>2022-03-12T11:10:10.000Z</time>
      </trkpt>
      <trkpt lat="46.89921" lon="4.5757">
        <ele>395.29996</ele>
        <time>2022-03-12T11:10:12.000Z</time>
      </trkpt>
      <trkpt lat="46.89919" lon="4.57568">
        <ele>395.44995</ele>
        <time>2022-03-12T11:10:14.000Z</time>
      </trkpt>
      <trkpt lat="46.89916" lon="4.57568">
        <ele>395.64996</ele>
        <time>2022-03-12T11:10:16.000Z</time>
      </trkpt>
      <trkpt lat="46.89914" lon="4.57567">
        <ele>395.79996</ele>
        <time>2022-03-12T11:10:18.000Z</time>
      </trkpt>
      <trkpt lat="46.89911" lon="4.57566">
        <ele>395.94995</ele>
        <time>2022-03-12T11:10:20.000Z</time>
      </trkpt>
      <trkpt lat="46.89909" lon="4.57565">
        <ele>396.04996</ele>
        <time>2022-03-12T11:10:22.000Z</time>
      </trkpt>
      <trkpt lat="46.89906" lon="4.57564">
        <ele>396.14996</ele>
        <time>2022-03-12T11:10:24.000Z</time>
      </trkpt>
      <trkpt lat="46.89903" lon="4.57563">
        <ele>396.29996</ele>
        <time>2022-03-12T11:10:26.000Z</time>
      </trkpt>
      <trkpt lat="46.89901" lon="4.57563">
        <ele>396.44995</ele>
        <time>2022-03-12T11:10:28.000Z</time>
      </trkpt>
      <trkpt lat="46.89898" lon="4.57561">
        <ele>396.54996</ele>
        <time>2022-03-12T11:10:30.000Z</time>
      </trkpt>
      <trkpt lat="46.89895" lon="4.57561">
        <ele>396.69995</ele>
        <time>2022-03-12T11:10:32.000Z</time>
      </trkpt>
      <trkpt lat="46.89892" lon="4.5756">
        <ele>396.89996</ele>
        <time>2022-03-12T11:10:34.000Z</time>
      </trkpt>
      <trkpt lat="46.8989" lon="4.57559">
        <ele>397.09995</ele>
        <time>2022-03-12T11:10:36.000Z</time>
      </trkpt>
      <trkpt lat="46.89888" lon="4.57558">
        <ele>397.29996</ele>
        <time>2022-03-12T11:10:38.000Z</time>
      </trkpt>
      <trkpt lat="46.89885" lon="4.57557">
        <ele>397.39996</ele>
        <time>2022-03-12T11:10:40.000Z</time>
      </trkpt>
      <trkpt lat="46.89883" lon="4.57556">
        <ele>397.44995</ele>
        <time>2022-03-12T11:10:42.000Z</time>
      </trkpt>
      <trkpt lat="46.89881" lon="4.57555">
        <ele>397.49994</ele>
        <time>2022-03-12T11:10:44.000Z</time>
      </trkpt>
      <trkpt lat="46.89878" lon="4.57554">
        <ele>397.54996</ele>
        <time>2022-03-12T11:10:46.000Z</time>
      </trkpt>
      <trkpt lat="46.89876" lon="4.57553">
        <ele>397.54996</ele>
        <time>2022-03-12T11:10:48.000Z</time>
      </trkpt>
      <trkpt lat="46.89873" lon="4.57551">
        <ele>397.49994</ele>
        <time>2022-03-12T11:10:50.000Z</time>
      </trkpt>
      <trkpt lat="46.89871" lon="4.5755">
        <ele>397.54996</ele>
        <time>2022-03-12T11:10:52.000Z</time>
      </trkpt>
      <trkpt lat="46.89869" lon="4.57549">
        <ele>397.59995</ele>
        <time>2022-03-12T11:10:54.000Z</time>
      </trkpt>
      <trkpt lat="46.89866" lon="4.57547">
        <ele>397.64996</ele>
        <time>2022-03-12T11:10:56.000Z</time>
      </trkpt>
      <trkpt lat="46.89864" lon="4.57547">
        <ele>397.64996</ele>
        <time>2022-03-12T11:10:58.000Z</time>
      </trkpt>
      <trkpt lat="46.89861" lon="4.57545">
        <ele>397.64996</ele>
        <time>2022-03-12T11:11:00.000Z</time>
      </trkpt>
      <trkpt lat="46.89859" lon="4.57544">
        <ele>397.64996</ele>
        <time>2022-03-12T11:11:02.000Z</time>
      </trkpt>
      <trkpt lat="46.89856" lon="4.57543">
        <ele>397.64996</ele>
        <time>2022-03-12T11:11:04.000Z</time>
      </trkpt>
      <trkpt lat="46.89853" lon="4.57542">
        <ele>397.64996</ele>
        <time>2022-03-12T11:11:06.000Z</time>
      </trkpt>
      <trkpt lat="46.89852" lon="4.5754">
        <ele>397.64996</ele>
        <time>2022-03-12T11:11:08.000Z</time>
      </trkpt>
      <trkpt lat="46.89849" lon="4.5754">
        <ele>397.64996</ele>
        <time>2022-03-12T11:11:10.000Z</time>
      </trkpt>
      <trkpt lat="46.89847" lon="4.57539">
        <ele>397.64996</ele>
        <time>2022-03-12T11:11:12.000Z</time>
      </trkpt>
      <trkpt lat="46.89844" lon="4.57538">
        <ele>397.59995</ele>
        <time>2022-03-12T11:11:14.000Z</time>
      </trkpt>
      <trkpt lat="46.89842" lon="4.57538">
        <ele>397.54996</ele>
        <time>2022-03-12T11:11:16.000Z</time>
      </trkpt>
      <trkpt lat="46.8984" lon="4.57537">
        <ele>397.49994</ele>
        <time>2022-03-12T11:11:18.000Z</time>
      </trkpt>
      <trkpt lat="46.89838" lon="4.57536">
        <ele>397.54996</ele>
        <time>2022-03-12T11:11:20.000Z</time>
      </trkpt>
      <trkpt lat="46.89836" lon="4.57535">
        <ele>397.54996</ele>
        <time>2022-03-12T11:11:22.000Z</time>
      </trkpt>
      <trkpt lat="46.89834" lon="4.57534">
        <ele>397.54996</ele>
        <time>2022-03-12T11:11:24.000Z</time>
      </trkpt>
      <trkpt lat="46.89832" lon="4.57534">
        <ele>397.49994</ele>
        <time>2022-03-12T11:11:26.000Z</time>
      </trkpt>
      <trkpt lat="46.89829" lon="4.57533">
        <ele>397.49994</ele>
        <time>2022-03-12T11:11:28.000Z</time>
      </trkpt>
      <trkpt lat="46.89827" lon="4.57531">
        <ele>397.49994</ele>
        <time>2022-03-12T11:11:30.000Z</time>
      </trkpt>
      <trkpt lat="46.89825" lon="4.57531">
        <ele>397.44995</ele>
        <time>2022-03-12T11:11:32.000Z</time>
      </trkpt>
      <trkpt lat="46.89823" lon="4.5753">
        <ele>397.39996</ele>
        <time>2022-03-12T11:11:34.000Z</time>
      </trkpt>
      <trkpt lat="46.8982" lon="4.57528">
        <ele>397.34995</ele>
        <time>2022-03-12T11:11:36.000Z</time>
      </trkpt>
      <trkpt lat="46.89817" lon="4.57526">
        <ele>397.39996</ele>
        <time>2022-03-12T11:11:38.000Z</time>
      </trkpt>
      <trkpt lat="46.89814" lon="4.57525">
        <ele>397.44995</ele>
        <time>2022-03-12T11:11:40.000Z</time>
      </trkpt>
      <trkpt lat="46.89811" lon="4.57524">
        <ele>397.49994</ele>
        <time>2022-03-12T11:11:42.000Z</time>
      </trkpt>
      <trkpt lat="46.89808" lon="4.57523">
        <ele>397.59995</ele>
        <time>2022-03-12T11:11:44.000Z</time>
      </trkpt>
      <trkpt lat="46.89806" lon="4.57523">
        <ele>397.64996</ele>
        <time>2022-03-12T11:11:46.000Z</time>
      </trkpt>
      <trkpt lat="46.89803" lon="4.57522">
        <ele>397.69995</ele>
        <time>2022-03-12T11:11:48.000Z</time>
      </trkpt>
      <trkpt lat="46.898" lon="4.57521">
        <ele>397.74994</ele>
        <time>2022-03-12T11:11:50.000Z</time>
      </trkpt>
      <trkpt lat="46.89798" lon="4.5752">
        <ele>397.74994</ele>
        <time>2022-03-12T11:11:52.000Z</time>
      </trkpt>
      <trkpt lat="46.89795" lon="4.57519">
        <ele>397.74994</ele>
        <time>2022-03-12T11:11:54.000Z</time>
      </trkpt>
      <trkpt lat="46.89793" lon="4.57518">
        <ele>397.74994</ele>
        <time>2022-03-12T11:11:56.000Z</time>
      </trkpt>
      <trkpt lat="46.89791" lon="4.57517">
        <ele>397.69995</ele>
        <time>2022-03-12T11:11:58.000Z</time>
      </trkpt>
      <trkpt lat="46.89789" lon="4.57517">
        <ele>397.59995</ele>
        <time>2022-03-12T11:12:01.000Z</time>
      </trkpt>
      <trkpt lat="46.89787" lon="4.57518">
        <ele>397.54996</ele>
        <time>2022-03-12T11:12:05.000Z</time>
      </trkpt>
      <trkpt lat="46.89785" lon="4.5752">
        <ele>397.49994</ele>
        <time>2022-03-12T11:12:08.000Z</time>
      </trkpt>
      <trkpt lat="46.89784" lon="4.57518">
        <ele>397.54996</ele>
        <time>2022-03-12T11:12:14.000Z</time>
      </trkpt>
      <trkpt lat="46.89783" lon="4.57515">
        <ele>397.64996</ele>
        <time>2022-03-12T11:12:25.000Z</time>
      </trkpt>
      <trkpt lat="46.8978" lon="4.57513">
        <ele>397.74994</ele>
        <time>2022-03-12T11:12:29.000Z</time>
      </trkpt>
      <trkpt lat="46.89778" lon="4.57512">
        <ele>397.84995</ele>
        <time>2022-03-12T11:12:31.000Z</time>
      </trkpt>
      <trkpt lat="46.89775" lon="4.57511">
        <ele>397.94995</ele>
        <time>2022-03-12T11:12:33.000Z</time>
      </trkpt>
      <trkpt lat="46.89773" lon="4.57511">
        <ele>398.04996</ele>
        <time>2022-03-12T11:12:35.000Z</time>
      </trkpt>
      <trkpt lat="46.89771" lon="4.5751">
        <ele>398.09995</ele>
        <time>2022-03-12T11:12:37.000Z</time>
      </trkpt>
      <trkpt lat="46.89769" lon="4.57509">
        <ele>398.09995</ele>
        <time>2022-03-12T11:12:39.000Z</time>
      </trkpt>
      <trkpt lat="46.89768" lon="4.57507">
        <ele>398.09995</ele>
        <time>2022-03-12T11:12:41.000Z</time>
      </trkpt>
      <trkpt lat="46.89765" lon="4.57506">
        <ele>397.99994</ele>
        <time>2022-03-12T11:12:43.000Z</time>
      </trkpt>
      <trkpt lat="46.89763" lon="4.57505">
        <ele>397.94995</ele>
        <time>2022-03-12T11:12:45.000Z</time>
      </trkpt>
      <trkpt lat="46.89761" lon="4.57504">
        <ele>397.94995</ele>
        <time>2022-03-12T11:12:47.000Z</time>
      </trkpt>
      <trkpt lat="46.89759" lon="4.57503">
        <ele>397.89996</ele>
        <time>2022-03-12T11:12:49.000Z</time>
      </trkpt>
      <trkpt lat="46.89757" lon="4.57502">
        <ele>397.84995</ele>
        <time>2022-03-12T11:12:51.000Z</time>
      </trkpt>
      <trkpt lat="46.89755" lon="4.57501">
        <ele>397.79996</ele>
        <time>2022-03-12T11:12:53.000Z</time>
      </trkpt>
      <trkpt lat="46.89753" lon="4.57499">
        <ele>397.69995</ele>
        <time>2022-03-12T11:12:55.000Z</time>
      </trkpt>
      <trkpt lat="46.89751" lon="4.57497">
        <ele>397.69995</ele>
        <time>2022-03-12T11:12:58.000Z</time>
      </trkpt>
      <trkpt lat="46.89749" lon="4.57496">
        <ele>397.64996</ele>
        <time>2022-03-12T11:13:01.000Z</time>
      </trkpt>
      <trkpt lat="46.89746" lon="4.57495">
        <ele>397.64996</ele>
        <time>2022-03-12T11:13:04.000Z</time>
      </trkpt>
      <trkpt lat="46.89744" lon="4.57494">
        <ele>397.64996</ele>
        <time>2022-03-12T11:13:06.000Z</time>
      </trkpt>
      <trkpt lat="46.89741" lon="4.57492">
        <ele>397.59995</ele>
        <time>2022-03-12T11:13:08.000Z</time>
      </trkpt>
      <trkpt lat="46.89739" lon="4.5749">
        <ele>397.44995</ele>
        <time>2022-03-12T11:13:10.000Z</time>
      </trkpt>
      <trkpt lat="46.89737" lon="4.57489">
        <ele>397.29996</ele>
        <time>2022-03-12T11:13:12.000Z</time>
      </trkpt>
      <trkpt lat="46.89734" lon="4.57488">
        <ele>397.09995</ele>
        <time>2022-03-12T11:13:14.000Z</time>
      </trkpt>
      <trkpt lat="46.89732" lon="4.57486">
        <ele>396.89996</ele>
        <time>2022-03-12T11:13:16.000Z</time>
      </trkpt>
      <trkpt lat="46.8973" lon="4.57485">
        <ele>396.64996</ele>
        <time>2022-03-12T11:13:18.000Z</time>
      </trkpt>
      <trkpt lat="46.89728" lon="4.57483">
        <ele>396.39996</ele>
        <time>2022-03-12T11:13:20.000Z</time>
      </trkpt>
      <trkpt lat="46.89726" lon="4.57482">
        <ele>396.19995</ele>
        <time>2022-03-12T11:13:22.000Z</time>
      </trkpt>
      <trkpt lat="46.89723" lon="4.57481">
        <ele>395.99994</ele>
        <time>2022-03-12T11:13:24.000Z</time>
      </trkpt>
      <trkpt lat="46.8972" lon="4.57479">
        <ele>395.84995</ele>
        <time>2022-03-12T11:13:26.000Z</time>
      </trkpt>
      <trkpt lat="46.89718" lon="4.5748">
        <ele>395.74994</ele>
        <time>2022-03-12T11:13:28.000Z</time>
      </trkpt>
      <trkpt lat="46.89715" lon="4.57479">
        <ele>395.59995</ele>
        <time>2022-03-12T11:13:30.000Z</time>
      </trkpt>
      <trkpt lat="46.89713" lon="4.57477">
        <ele>395.49994</ele>
        <time>2022-03-12T11:13:32.000Z</time>
      </trkpt>
      <trkpt lat="46.89711" lon="4.57476">
        <ele>395.39996</ele>
        <time>2022-03-12T11:13:34.000Z</time>
      </trkpt>
      <trkpt lat="46.89708" lon="4.57474">
        <ele>395.29996</ele>
        <time>2022-03-12T11:13:36.000Z</time>
      </trkpt>
      <trkpt lat="46.89706" lon="4.57472">
        <ele>395.24994</ele>
        <time>2022-03-12T11:13:38.000Z</time>
      </trkpt>
      <trkpt lat="46.89703" lon="4.5747">
        <ele>395.09995</ele>
        <time>2022-03-12T11:13:40.000Z</time>
      </trkpt>
      <trkpt lat="46.89701" lon="4.57469">
        <ele>394.99994</ele>
        <time>2022-03-12T11:13:42.000Z</time>
      </trkpt>
      <trkpt lat="46.89699" lon="4.57468">
        <ele>394.89996</ele>
        <time>2022-03-12T11:13:44.000Z</time>
      </trkpt>
      <trkpt lat="46.89697" lon="4.57467">
        <ele>394.74994</ele>
        <time>2022-03-12T11:13:46.000Z</time>
      </trkpt>
      <trkpt lat="46.89695" lon="4.57466">
        <ele>394.59995</ele>
        <time>2022-03-12T11:13:48.000Z</time>
      </trkpt>
      <trkpt lat="46.89692" lon="4.57465">
        <ele>394.44995</ele>
        <time>2022-03-12T11:13:50.000Z</time>
      </trkpt>
      <trkpt lat="46.89689" lon="4.57463">
        <ele>394.29996</ele>
        <time>2022-03-12T11:13:52.000Z</time>
      </trkpt>
      <trkpt lat="46.89687" lon="4.57461">
        <ele>394.19995</ele>
        <time>2022-03-12T11:13:54.000Z</time>
      </trkpt>
      <trkpt lat="46.89685" lon="4.5746">
        <ele>394.09995</ele>
        <time>2022-03-12T11:13:56.000Z</time>
      </trkpt>
      <trkpt lat="46.89682" lon="4.57458">
        <ele>394.04996</ele>
        <time>2022-03-12T11:13:58.000Z</time>
      </trkpt>
      <trkpt lat="46.8968" lon="4.57456">
        <ele>393.99994</ele>
        <time>2022-03-12T11:14:00.000Z</time>
      </trkpt>
      <trkpt lat="46.89678" lon="4.57455">
        <ele>393.89996</ele>
        <time>2022-03-12T11:14:02.000Z</time>
      </trkpt>
      <trkpt lat="46.89676" lon="4.57455">
        <ele>393.79996</ele>
        <time>2022-03-12T11:14:04.000Z</time>
      </trkpt>
      <trkpt lat="46.89673" lon="4.57454">
        <ele>393.69995</ele>
        <time>2022-03-12T11:14:06.000Z</time>
      </trkpt>
      <trkpt lat="46.89671" lon="4.57453">
        <ele>393.54996</ele>
        <time>2022-03-12T11:14:08.000Z</time>
      </trkpt>
      <trkpt lat="46.89669" lon="4.57452">
        <ele>393.39996</ele>
        <time>2022-03-12T11:14:10.000Z</time>
      </trkpt>
      <trkpt lat="46.89666" lon="4.57451">
        <ele>393.29996</ele>
        <time>2022-03-12T11:14:13.000Z</time>
      </trkpt>
      <trkpt lat="46.89663" lon="4.57449">
        <ele>393.14996</ele>
        <time>2022-03-12T11:14:15.000Z</time>
      </trkpt>
      <trkpt lat="46.89661" lon="4.57448">
        <ele>392.99994</ele>
        <time>2022-03-12T11:14:17.000Z</time>
      </trkpt>
      <trkpt lat="46.89659" lon="4.57447">
        <ele>392.84995</ele>
        <time>2022-03-12T11:14:20.000Z</time>
      </trkpt>
      <trkpt lat="46.89656" lon="4.57446">
        <ele>392.69995</ele>
        <time>2022-03-12T11:14:22.000Z</time>
      </trkpt>
      <trkpt lat="46.89654" lon="4.57445">
        <ele>392.54996</ele>
        <time>2022-03-12T11:14:24.000Z</time>
      </trkpt>
      <trkpt lat="46.89651" lon="4.57443">
        <ele>392.34995</ele>
        <time>2022-03-12T11:14:26.000Z</time>
      </trkpt>
      <trkpt lat="46.89648" lon="4.57443">
        <ele>392.14996</ele>
        <time>2022-03-12T11:14:28.000Z</time>
      </trkpt>
      <trkpt lat="46.89646" lon="4.57442">
        <ele>391.94995</ele>
        <time>2022-03-12T11:14:30.000Z</time>
      </trkpt>
      <trkpt lat="46.89643" lon="4.57442">
        <ele>391.74994</ele>
        <time>2022-03-12T11:14:32.000Z</time>
      </trkpt>
      <trkpt lat="46.89641" lon="4.5744">
        <ele>391.54996</ele>
        <time>2022-03-12T11:14:34.000Z</time>
      </trkpt>
      <trkpt lat="46.89638" lon="4.5744">
        <ele>391.34995</ele>
        <time>2022-03-12T11:14:36.000Z</time>
      </trkpt>
      <trkpt lat="46.89636" lon="4.57439">
        <ele>391.14996</ele>
        <time>2022-03-12T11:14:38.000Z</time>
      </trkpt>
      <trkpt lat="46.89633" lon="4.57439">
        <ele>390.99994</ele>
        <time>2022-03-12T11:14:40.000Z</time>
      </trkpt>
      <trkpt lat="46.89631" lon="4.57438">
        <ele>390.84995</ele>
        <time>2022-03-12T11:14:42.000Z</time>
      </trkpt>
      <trkpt lat="46.89629" lon="4.57439">
        <ele>390.74994</ele>
        <time>2022-03-12T11:14:47.000Z</time>
      </trkpt>
      <trkpt lat="46.89626" lon="4.57437">
        <ele>390.64996</ele>
        <time>2022-03-12T11:15:00.000Z</time>
      </trkpt>
      <trkpt lat="46.89623" lon="4.57435">
        <ele>390.54996</ele>
        <time>2022-03-12T11:15:02.000Z</time>
      </trkpt>
      <trkpt lat="46.8962" lon="4.57434">
        <ele>390.44995</ele>
        <time>2022-03-12T11:15:04.000Z</time>
      </trkpt>
      <trkpt lat="46.89618" lon="4.57434">
        <ele>390.34995</ele>
        <time>2022-03-12T11:15:06.000Z</time>
      </trkpt>
      <trkpt lat="46.89615" lon="4.57434">
        <ele>390.19995</ele>
        <time>2022-03-12T11:15:08.000Z</time>
      </trkpt>
      <trkpt lat="46.89612" lon="4.57433">
        <ele>390.09995</ele>
        <time>2022-03-12T11:15:10.000Z</time>
      </trkpt>
      <trkpt lat="46.89609" lon="4.57433">
        <ele>390.04996</ele>
        <time>2022-03-12T11:15:12.000Z</time>
      </trkpt>
      <trkpt lat="46.89607" lon="4.57432">
        <ele>389.94995</ele>
        <time>2022-03-12T11:15:14.000Z</time>
      </trkpt>
      <trkpt lat="46.89604" lon="4.57431">
        <ele>389.89996</ele>
        <time>2022-03-12T11:15:16.000Z</time>
      </trkpt>
      <trkpt lat="46.89602" lon="4.5743">
        <ele>389.84995</ele>
        <time>2022-03-12T11:15:18.000Z</time>
      </trkpt>
      <trkpt lat="46.89599" lon="4.57429">
        <ele>389.79996</ele>
        <time>2022-03-12T11:15:20.000Z</time>
      </trkpt>
      <trkpt lat="46.89596" lon="4.57428">
        <ele>389.79996</ele>
        <time>2022-03-12T11:15:22.000Z</time>
      </trkpt>
      <trkpt lat="46.89594" lon="4.57428">
        <ele>389.79996</ele>
        <time>2022-03-12T11:15:24.000Z</time>
      </trkpt>
      <trkpt lat="46.8959" lon="4.57428">
        <ele>389.79996</ele>
        <time>2022-03-12T11:15:26.000Z</time>
      </trkpt>
      <trkpt lat="46.89587" lon="4.57425">
        <ele>389.84995</ele>
        <time>2022-03-12T11:15:28.000Z</time>
      </trkpt>
      <trkpt lat="46.89584" lon="4.57425">
        <ele>389.84995</ele>
        <time>2022-03-12T11:15:30.000Z</time>
      </trkpt>
      <trkpt lat="46.89581" lon="4.57423">
        <ele>389.84995</ele>
        <time>2022-03-12T11:15:32.000Z</time>
      </trkpt>
      <trkpt lat="46.89579" lon="4.57423">
        <ele>389.79996</ele>
        <time>2022-03-12T11:15:34.000Z</time>
      </trkpt>
      <trkpt lat="46.89576" lon="4.57422">
        <ele>389.69995</ele>
        <time>2022-03-12T11:15:36.000Z</time>
      </trkpt>
      <trkpt lat="46.89574" lon="4.57421">
        <ele>389.59995</ele>
        <time>2022-03-12T11:15:38.000Z</time>
      </trkpt>
      <trkpt lat="46.89571" lon="4.57421">
        <ele>389.49994</ele>
        <time>2022-03-12T11:15:40.000Z</time>
      </trkpt>
      <trkpt lat="46.89568" lon="4.5742">
        <ele>389.39996</ele>
        <time>2022-03-12T11:15:42.000Z</time>
      </trkpt>
      <trkpt lat="46.89565" lon="4.57419">
        <ele>389.34995</ele>
        <time>2022-03-12T11:15:44.000Z</time>
      </trkpt>
      <trkpt lat="46.89562" lon="4.57418">
        <ele>389.29996</ele>
        <time>2022-03-12T11:15:46.000Z</time>
      </trkpt>
      <trkpt lat="46.89559" lon="4.57417">
        <ele>389.19995</ele>
        <time>2022-03-12T11:15:48.000Z</time>
      </trkpt>
      <trkpt lat="46.89556" lon="4.57416">
        <ele>389.14996</ele>
        <time>2022-03-12T11:15:50.000Z</time>
      </trkpt>
      <trkpt lat="46.89554" lon="4.57416">
        <ele>388.99994</ele>
        <time>2022-03-12T11:15:52.000Z</time>
      </trkpt>
      <trkpt lat="46.89551" lon="4.57415">
        <ele>388.89996</ele>
        <time>2022-03-12T11:15:54.000Z</time>
      </trkpt>
      <trkpt lat="46.89548" lon="4.57413">
        <ele>388.79996</ele>
        <time>2022-03-12T11:15:56.000Z</time>
      </trkpt>
      <trkpt lat="46.89546" lon="4.57412">
        <ele>388.64996</ele>
        <time>2022-03-12T11:15:58.000Z</time>
      </trkpt>
      <trkpt lat="46.89543" lon="4.57412">
        <ele>388.49994</ele>
        <time>2022-03-12T11:16:00.000Z</time>
      </trkpt>
      <trkpt lat="46.89541" lon="4.5741">
        <ele>388.34995</ele>
        <time>2022-03-12T11:16:02.000Z</time>
      </trkpt>
      <trkpt lat="46.89538" lon="4.5741">
        <ele>388.19995</ele>
        <time>2022-03-12T11:16:04.000Z</time>
      </trkpt>
      <trkpt lat="46.89536" lon="4.57409">
        <ele>388.04996</ele>
        <time>2022-03-12T11:16:06.000Z</time>
      </trkpt>
      <trkpt lat="46.89534" lon="4.57409">
        <ele>387.89996</ele>
        <time>2022-03-12T11:16:08.000Z</time>
      </trkpt>
      <trkpt lat="46.89532" lon="4.57409">
        <ele>387.79996</ele>
        <time>2022-03-12T11:16:10.000Z</time>
      </trkpt>
      <trkpt lat="46.8953" lon="4.57407">
        <ele>387.64996</ele>
        <time>2022-03-12T11:16:12.000Z</time>
      </trkpt>
      <trkpt lat="46.89528" lon="4.57407">
        <ele>387.54996</ele>
        <time>2022-03-12T11:16:14.000Z</time>
      </trkpt>
      <trkpt lat="46.89526" lon="4.57407">
        <ele>387.49994</ele>
        <time>2022-03-12T11:16:17.000Z</time>
      </trkpt>
      <trkpt lat="46.89524" lon="4.57407">
        <ele>387.44995</ele>
        <time>2022-03-12T11:16:27.000Z</time>
      </trkpt>
      <trkpt lat="46.89521" lon="4.57407">
        <ele>387.34995</ele>
        <time>2022-03-12T11:16:29.000Z</time>
      </trkpt>
      <trkpt lat="46.89519" lon="4.57406">
        <ele>387.24994</ele>
        <time>2022-03-12T11:16:32.000Z</time>
      </trkpt>
      <trkpt lat="46.89516" lon="4.57405">
        <ele>387.14996</ele>
        <time>2022-03-12T11:16:38.000Z</time>
      </trkpt>
      <trkpt lat="46.89514" lon="4.57405">
        <ele>386.99994</ele>
        <time>2022-03-12T11:16:40.000Z</time>
      </trkpt>
      <trkpt lat="46.89511" lon="4.57404">
        <ele>386.89996</ele>
        <time>2022-03-12T11:16:42.000Z</time>
      </trkpt>
      <trkpt lat="46.89509" lon="4.57404">
        <ele>386.74994</ele>
        <time>2022-03-12T11:16:44.000Z</time>
      </trkpt>
      <trkpt lat="46.89506" lon="4.57403">
        <ele>386.64996</ele>
        <time>2022-03-12T11:16:46.000Z</time>
      </trkpt>
      <trkpt lat="46.89504" lon="4.57403">
        <ele>386.54996</ele>
        <time>2022-03-12T11:16:48.000Z</time>
      </trkpt>
      <trkpt lat="46.89501" lon="4.57402">
        <ele>386.39996</ele>
        <time>2022-03-12T11:16:50.000Z</time>
      </trkpt>
      <trkpt lat="46.89498" lon="4.57402">
        <ele>386.29996</ele>
        <time>2022-03-12T11:16:52.000Z</time>
      </trkpt>
      <trkpt lat="46.89495" lon="4.57403">
        <ele>386.19995</ele>
        <time>2022-03-12T11:16:54.000Z</time>
      </trkpt>
      <trkpt lat="46.89493" lon="4.57403">
        <ele>386.14996</ele>
        <time>2022-03-12T11:16:56.000Z</time>
      </trkpt>
      <trkpt lat="46.89491" lon="4.57402">
        <ele>386.09995</ele>
        <time>2022-03-12T11:16:58.000Z</time>
      </trkpt>
      <trkpt lat="46.89488" lon="4.57401">
        <ele>386.04996</ele>
        <time>2022-03-12T11:17:00.000Z</time>
      </trkpt>
      <trkpt lat="46.89485" lon="4.57401">
        <ele>386.04996</ele>
        <time>2022-03-12T11:17:02.000Z</time>
      </trkpt>
      <trkpt lat="46.89482" lon="4.57401">
        <ele>386.04996</ele>
        <time>2022-03-12T11:17:04.000Z</time>
      </trkpt>
      <trkpt lat="46.89479" lon="4.57401">
        <ele>386.14996</ele>
        <time>2022-03-12T11:17:06.000Z</time>
      </trkpt>
      <trkpt lat="46.89477" lon="4.574">
        <ele>386.19995</ele>
        <time>2022-03-12T11:17:08.000Z</time>
      </trkpt>
      <trkpt lat="46.89474" lon="4.574">
        <ele>386.24994</ele>
        <time>2022-03-12T11:17:10.000Z</time>
      </trkpt>
      <trkpt lat="46.89471" lon="4.574">
        <ele>386.24994</ele>
        <time>2022-03-12T11:17:12.000Z</time>
      </trkpt>
      <trkpt lat="46.89469" lon="4.574">
        <ele>386.29996</ele>
        <time>2022-03-12T11:17:14.000Z</time>
      </trkpt>
      <trkpt lat="46.89466" lon="4.574">
        <ele>386.34995</ele>
        <time>2022-03-12T11:17:16.000Z</time>
      </trkpt>
      <trkpt lat="46.89464" lon="4.57399">
        <ele>386.34995</ele>
        <time>2022-03-12T11:17:18.000Z</time>
      </trkpt>
      <trkpt lat="46.89462" lon="4.57399">
        <ele>386.39996</ele>
        <time>2022-03-12T11:17:20.000Z</time>
      </trkpt>
      <trkpt lat="46.8946" lon="4.574">
        <ele>386.49994</ele>
        <time>2022-03-12T11:17:22.000Z</time>
      </trkpt>
      <trkpt lat="46.89457" lon="4.574">
        <ele>386.59995</ele>
        <time>2022-03-12T11:17:24.000Z</time>
      </trkpt>
      <trkpt lat="46.89455" lon="4.574">
        <ele>386.74994</ele>
        <time>2022-03-12T11:17:25.000Z</time>
      </trkpt>
      <trkpt lat="46.89452" lon="4.574">
        <ele>386.84995</ele>
        <time>2022-03-12T11:17:27.000Z</time>
      </trkpt>
      <trkpt lat="46.8945" lon="4.574">
        <ele>386.99994</ele>
        <time>2022-03-12T11:17:29.000Z</time>
      </trkpt>
      <trkpt lat="46.89447" lon="4.57401">
        <ele>387.14996</ele>
        <time>2022-03-12T11:17:31.000Z</time>
      </trkpt>
      <trkpt lat="46.89444" lon="4.57402">
        <ele>387.29996</ele>
        <time>2022-03-12T11:17:33.000Z</time>
      </trkpt>
      <trkpt lat="46.89442" lon="4.57402">
        <ele>387.39996</ele>
        <time>2022-03-12T11:17:35.000Z</time>
      </trkpt>
      <trkpt lat="46.89439" lon="4.57402">
        <ele>387.49994</ele>
        <time>2022-03-12T11:17:37.000Z</time>
      </trkpt>
      <trkpt lat="46.89437" lon="4.57402">
        <ele>387.59995</ele>
        <time>2022-03-12T11:17:39.000Z</time>
      </trkpt>
      <trkpt lat="46.89434" lon="4.57402">
        <ele>387.59995</ele>
        <time>2022-03-12T11:17:41.000Z</time>
      </trkpt>
      <trkpt lat="46.89431" lon="4.57402">
        <ele>387.59995</ele>
        <time>2022-03-12T11:17:43.000Z</time>
      </trkpt>
      <trkpt lat="46.89428" lon="4.57402">
        <ele>387.54996</ele>
        <time>2022-03-12T11:17:45.000Z</time>
      </trkpt>
      <trkpt lat="46.89426" lon="4.57403">
        <ele>387.49994</ele>
        <time>2022-03-12T11:17:47.000Z</time>
      </trkpt>
      <trkpt lat="46.89423" lon="4.57402">
        <ele>387.44995</ele>
        <time>2022-03-12T11:17:49.000Z</time>
      </trkpt>
      <trkpt lat="46.8942" lon="4.57402">
        <ele>387.44995</ele>
        <time>2022-03-12T11:17:51.000Z</time>
      </trkpt>
      <trkpt lat="46.89418" lon="4.57401">
        <ele>387.44995</ele>
        <time>2022-03-12T11:17:53.000Z</time>
      </trkpt>
      <trkpt lat="46.89415" lon="4.57401">
        <ele>387.39996</ele>
        <time>2022-03-12T11:17:55.000Z</time>
      </trkpt>
      <trkpt lat="46.89413" lon="4.57401">
        <ele>387.34995</ele>
        <time>2022-03-12T11:17:57.000Z</time>
      </trkpt>
      <trkpt lat="46.89411" lon="4.57402">
        <ele>387.29996</ele>
        <time>2022-03-12T11:17:59.000Z</time>
      </trkpt>
      <trkpt lat="46.89408" lon="4.57402">
        <ele>387.24994</ele>
        <time>2022-03-12T11:18:01.000Z</time>
      </trkpt>
      <trkpt lat="46.89406" lon="4.57402">
        <ele>387.14996</ele>
        <time>2022-03-12T11:18:03.000Z</time>
      </trkpt>
      <trkpt lat="46.89404" lon="4.57403">
        <ele>386.99994</ele>
        <time>2022-03-12T11:18:05.000Z</time>
      </trkpt>
      <trkpt lat="46.89401" lon="4.57403">
        <ele>386.89996</ele>
        <time>2022-03-12T11:18:07.000Z</time>
      </trkpt>
      <trkpt lat="46.89398" lon="4.57402">
        <ele>386.79996</ele>
        <time>2022-03-12T11:18:09.000Z</time>
      </trkpt>
      <trkpt lat="46.89395" lon="4.57402">
        <ele>386.69995</ele>
        <time>2022-03-12T11:18:11.000Z</time>
      </trkpt>
      <trkpt lat="46.89392" lon="4.57401">
        <ele>386.59995</ele>
        <time>2022-03-12T11:18:13.000Z</time>
      </trkpt>
      <trkpt lat="46.8939" lon="4.57401">
        <ele>386.49994</ele>
        <time>2022-03-12T11:18:15.000Z</time>
      </trkpt>
      <trkpt lat="46.89387" lon="4.57401">
        <ele>386.44995</ele>
        <time>2022-03-12T11:18:17.000Z</time>
      </trkpt>
      <trkpt lat="46.89386" lon="4.574">
        <ele>386.34995</ele>
        <time>2022-03-12T11:18:19.000Z</time>
      </trkpt>
      <trkpt lat="46.89384" lon="4.57398">
        <ele>386.29996</ele>
        <time>2022-03-12T11:18:21.000Z</time>
      </trkpt>
      <trkpt lat="46.89382" lon="4.57397">
        <ele>386.24994</ele>
        <time>2022-03-12T11:18:23.000Z</time>
      </trkpt>
      <trkpt lat="46.8938" lon="4.57397">
        <ele>386.19995</ele>
        <time>2022-03-12T11:18:25.000Z</time>
      </trkpt>
      <trkpt lat="46.89377" lon="4.57397">
        <ele>386.14996</ele>
        <time>2022-03-12T11:18:27.000Z</time>
      </trkpt>
      <trkpt lat="46.89374" lon="4.57397">
        <ele>386.09995</ele>
        <time>2022-03-12T11:18:29.000Z</time>
      </trkpt>
      <trkpt lat="46.89371" lon="4.57396">
        <ele>385.99994</ele>
        <time>2022-03-12T11:18:31.000Z</time>
      </trkpt>
      <trkpt lat="46.89368" lon="4.57396">
        <ele>385.89996</ele>
        <time>2022-03-12T11:18:33.000Z</time>
      </trkpt>
      <trkpt lat="46.89365" lon="4.57397">
        <ele>385.84995</ele>
        <time>2022-03-12T11:18:35.000Z</time>
      </trkpt>
      <trkpt lat="46.89362" lon="4.57397">
        <ele>385.79996</ele>
        <time>2022-03-12T11:18:37.000Z</time>
      </trkpt>
      <trkpt lat="46.89361" lon="4.57397">
        <ele>385.74994</ele>
        <time>2022-03-12T11:18:39.000Z</time>
      </trkpt>
      <trkpt lat="46.89358" lon="4.57396">
        <ele>385.59995</ele>
        <time>2022-03-12T11:18:41.000Z</time>
      </trkpt>
      <trkpt lat="46.89355" lon="4.57397">
        <ele>385.44995</ele>
        <time>2022-03-12T11:18:43.000Z</time>
      </trkpt>
      <trkpt lat="46.89352" lon="4.57396">
        <ele>385.29996</ele>
        <time>2022-03-12T11:18:45.000Z</time>
      </trkpt>
      <trkpt lat="46.8935" lon="4.57396">
        <ele>385.14996</ele>
        <time>2022-03-12T11:18:47.000Z</time>
      </trkpt>
      <trkpt lat="46.89347" lon="4.57395">
        <ele>384.99994</ele>
        <time>2022-03-12T11:18:49.000Z</time>
      </trkpt>
      <trkpt lat="46.89344" lon="4.57394">
        <ele>384.79996</ele>
        <time>2022-03-12T11:18:51.000Z</time>
      </trkpt>
      <trkpt lat="46.89341" lon="4.57394">
        <ele>384.59995</ele>
        <time>2022-03-12T11:18:53.000Z</time>
      </trkpt>
      <trkpt lat="46.89338" lon="4.57394">
        <ele>384.39996</ele>
        <time>2022-03-12T11:18:55.000Z</time>
      </trkpt>
      <trkpt lat="46.89336" lon="4.57394">
        <ele>384.14996</ele>
        <time>2022-03-12T11:18:57.000Z</time>
      </trkpt>
      <trkpt lat="46.89333" lon="4.57394">
        <ele>383.89996</ele>
        <time>2022-03-12T11:19:00.000Z</time>
      </trkpt>
      <trkpt lat="46.89331" lon="4.57393">
        <ele>383.64996</ele>
        <time>2022-03-12T11:19:02.000Z</time>
      </trkpt>
      <trkpt lat="46.89328" lon="4.57392">
        <ele>383.39996</ele>
        <time>2022-03-12T11:19:04.000Z</time>
      </trkpt>
      <trkpt lat="46.89326" lon="4.57392">
        <ele>383.14996</ele>
        <time>2022-03-12T11:19:06.000Z</time>
      </trkpt>
      <trkpt lat="46.89323" lon="4.57391">
        <ele>382.89996</ele>
        <time>2022-03-12T11:19:08.000Z</time>
      </trkpt>
      <trkpt lat="46.89321" lon="4.57391">
        <ele>382.64996</ele>
        <time>2022-03-12T11:19:10.000Z</time>
      </trkpt>
      <trkpt lat="46.89319" lon="4.57391">
        <ele>382.44995</ele>
        <time>2022-03-12T11:19:12.000Z</time>
      </trkpt>
      <trkpt lat="46.89317" lon="4.57389">
        <ele>382.24994</ele>
        <time>2022-03-12T11:19:14.000Z</time>
      </trkpt>
      <trkpt lat="46.89314" lon="4.57389">
        <ele>382.04996</ele>
        <time>2022-03-12T11:19:16.000Z</time>
      </trkpt>
      <trkpt lat="46.89311" lon="4.57388">
        <ele>381.84995</ele>
        <time>2022-03-12T11:19:18.000Z</time>
      </trkpt>
      <trkpt lat="46.89309" lon="4.57387">
        <ele>381.64996</ele>
        <time>2022-03-12T11:19:20.000Z</time>
      </trkpt>
      <trkpt lat="46.89306" lon="4.57386">
        <ele>381.44995</ele>
        <time>2022-03-12T11:19:23.000Z</time>
      </trkpt>
      <trkpt lat="46.89304" lon="4.57385">
        <ele>381.29996</ele>
        <time>2022-03-12T11:19:25.000Z</time>
      </trkpt>
      <trkpt lat="46.89302" lon="4.57384">
        <ele>381.09995</ele>
        <time>2022-03-12T11:19:27.000Z</time>
      </trkpt>
      <trkpt lat="46.89299" lon="4.57384">
        <ele>380.84995</ele>
        <time>2022-03-12T11:19:29.000Z</time>
      </trkpt>
      <trkpt lat="46.89297" lon="4.57384">
        <ele>380.59995</ele>
        <time>2022-03-12T11:19:31.000Z</time>
      </trkpt>
      <trkpt lat="46.89294" lon="4.57383">
        <ele>380.39996</ele>
        <time>2022-03-12T11:19:33.000Z</time>
      </trkpt>
      <trkpt lat="46.89292" lon="4.57382">
        <ele>380.19995</ele>
        <time>2022-03-12T11:19:35.000Z</time>
      </trkpt>
      <trkpt lat="46.8929" lon="4.57382">
        <ele>379.94995</ele>
        <time>2022-03-12T11:19:37.000Z</time>
      </trkpt>
      <trkpt lat="46.89287" lon="4.57382">
        <ele>379.69995</ele>
        <time>2022-03-12T11:19:39.000Z</time>
      </trkpt>
      <trkpt lat="46.89285" lon="4.57381">
        <ele>379.49994</ele>
        <time>2022-03-12T11:19:41.000Z</time>
      </trkpt>
      <trkpt lat="46.89282" lon="4.57381">
        <ele>379.29996</ele>
        <time>2022-03-12T11:19:43.000Z</time>
      </trkpt>
      <trkpt lat="46.8928" lon="4.5738">
        <ele>379.09995</ele>
        <time>2022-03-12T11:19:45.000Z</time>
      </trkpt>
      <trkpt lat="46.89278" lon="4.57379">
        <ele>378.84995</ele>
        <time>2022-03-12T11:19:47.000Z</time>
      </trkpt>
      <trkpt lat="46.89275" lon="4.57378">
        <ele>378.59995</ele>
        <time>2022-03-12T11:19:49.000Z</time>
      </trkpt>
      <trkpt lat="46.89273" lon="4.57378">
        <ele>378.34995</ele>
        <time>2022-03-12T11:19:51.000Z</time>
      </trkpt>
      <trkpt lat="46.89271" lon="4.57377">
        <ele>378.09995</ele>
        <time>2022-03-12T11:19:53.000Z</time>
      </trkpt>
      <trkpt lat="46.89269" lon="4.57376">
        <ele>377.74994</ele>
        <time>2022-03-12T11:19:55.000Z</time>
      </trkpt>
      <trkpt lat="46.89267" lon="4.57376">
        <ele>377.39996</ele>
        <time>2022-03-12T11:19:58.000Z</time>
      </trkpt>
      <trkpt lat="46.89264" lon="4.57375">
        <ele>377.04996</ele>
        <time>2022-03-12T11:20:03.000Z</time>
      </trkpt>
      <trkpt lat="46.89262" lon="4.57375">
        <ele>376.69995</ele>
        <time>2022-03-12T11:20:05.000Z</time>
      </trkpt>
      <trkpt lat="46.89259" lon="4.57375">
        <ele>376.39996</ele>
        <time>2022-03-12T11:20:07.000Z</time>
      </trkpt>
      <trkpt lat="46.89257" lon="4.57376">
        <ele>376.09995</ele>
        <time>2022-03-12T11:20:09.000Z</time>
      </trkpt>
      <trkpt lat="46.89255" lon="4.57378">
        <ele>375.89996</ele>
        <time>2022-03-12T11:20:11.000Z</time>
      </trkpt>
      <trkpt lat="46.89254" lon="4.57374">
        <ele>375.59995</ele>
        <time>2022-03-12T11:20:24.000Z</time>
      </trkpt>
      <trkpt lat="46.89252" lon="4.57371">
        <ele>375.29996</ele>
        <time>2022-03-12T11:20:26.000Z</time>
      </trkpt>
      <trkpt lat="46.89251" lon="4.57369">
        <ele>374.94995</ele>
        <time>2022-03-12T11:20:28.000Z</time>
      </trkpt>
      <trkpt lat="46.89248" lon="4.57367">
        <ele>374.59995</ele>
        <time>2022-03-12T11:20:30.000Z</time>
      </trkpt>
      <trkpt lat="46.89246" lon="4.57366">
        <ele>374.29996</ele>
        <time>2022-03-12T11:20:32.000Z</time>
      </trkpt>
      <trkpt lat="46.89243" lon="4.57366">
        <ele>374.04996</ele>
        <time>2022-03-12T11:20:34.000Z</time>
      </trkpt>
      <trkpt lat="46.89241" lon="4.57366">
        <ele>373.79996</ele>
        <time>2022-03-12T11:20:36.000Z</time>
      </trkpt>
      <trkpt lat="46.89239" lon="4.57365">
        <ele>373.54996</ele>
        <time>2022-03-12T11:20:38.000Z</time>
      </trkpt>
      <trkpt lat="46.89237" lon="4.57365">
        <ele>373.29996</ele>
        <time>2022-03-12T11:20:40.000Z</time>
      </trkpt>
      <trkpt lat="46.89234" lon="4.57364">
        <ele>373.09995</ele>
        <time>2022-03-12T11:20:42.000Z</time>
      </trkpt>
      <trkpt lat="46.89232" lon="4.57364">
        <ele>372.89996</ele>
        <time>2022-03-12T11:20:44.000Z</time>
      </trkpt>
      <trkpt lat="46.8923" lon="4.57364">
        <ele>372.64996</ele>
        <time>2022-03-12T11:20:46.000Z</time>
      </trkpt>
      <trkpt lat="46.89228" lon="4.57363">
        <ele>372.39996</ele>
        <time>2022-03-12T11:20:48.000Z</time>
      </trkpt>
      <trkpt lat="46.89226" lon="4.57362">
        <ele>372.24994</ele>
        <time>2022-03-12T11:20:50.000Z</time>
      </trkpt>
      <trkpt lat="46.89223" lon="4.57361">
        <ele>372.04996</ele>
        <time>2022-03-12T11:20:52.000Z</time>
      </trkpt>
      <trkpt lat="46.89221" lon="4.57361">
        <ele>371.79996</ele>
        <time>2022-03-12T11:20:53.000Z</time>
      </trkpt>
      <trkpt lat="46.89219" lon="4.5736">
        <ele>371.54996</ele>
        <time>2022-03-12T11:20:54.000Z</time>
      </trkpt>
      <trkpt lat="46.89216" lon="4.5736">
        <ele>371.29996</ele>
        <time>2022-03-12T11:20:56.000Z</time>
      </trkpt>
      <trkpt lat="46.89214" lon="4.5736">
        <ele>371.04996</ele>
        <time>2022-03-12T11:20:58.000Z</time>
      </trkpt>
      <trkpt lat="46.89211" lon="4.57359">
        <ele>370.69995</ele>
        <time>2022-03-12T11:21:00.000Z</time>
      </trkpt>
      <trkpt lat="46.89209" lon="4.57358">
        <ele>370.44995</ele>
        <time>2022-03-12T11:21:02.000Z</time>
      </trkpt>
      <trkpt lat="46.89206" lon="4.57357">
        <ele>370.19995</ele>
        <time>2022-03-12T11:21:04.000Z</time>
      </trkpt>
      <trkpt lat="46.89203" lon="4.57357">
        <ele>369.99994</ele>
        <time>2022-03-12T11:21:06.000Z</time>
      </trkpt>
      <trkpt lat="46.89201" lon="4.57358">
        <ele>369.79996</ele>
        <time>2022-03-12T11:21:08.000Z</time>
      </trkpt>
      <trkpt lat="46.89198" lon="4.57358">
        <ele>369.54996</ele>
        <time>2022-03-12T11:21:10.000Z</time>
      </trkpt>
      <trkpt lat="46.89195" lon="4.57358">
        <ele>369.24994</ele>
        <time>2022-03-12T11:21:12.000Z</time>
      </trkpt>
      <trkpt lat="46.89193" lon="4.57358">
        <ele>368.89996</ele>
        <time>2022-03-12T11:21:14.000Z</time>
      </trkpt>
      <trkpt lat="46.89192" lon="4.57356">
        <ele>368.49994</ele>
        <time>2022-03-12T11:21:25.000Z</time>
      </trkpt>
      <trkpt lat="46.89189" lon="4.57354">
        <ele>368.14996</ele>
        <time>2022-03-12T11:21:27.000Z</time>
      </trkpt>
      <trkpt lat="46.89186" lon="4.57352">
        <ele>367.79996</ele>
        <time>2022-03-12T11:21:29.000Z</time>
      </trkpt>
      <trkpt lat="46.89184" lon="4.57352">
        <ele>367.44995</ele>
        <time>2022-03-12T11:21:31.000Z</time>
      </trkpt>
      <trkpt lat="46.89181" lon="4.57351">
        <ele>367.09995</ele>
        <time>2022-03-12T11:21:33.000Z</time>
      </trkpt>
      <trkpt lat="46.89178" lon="4.57349">
        <ele>366.74994</ele>
        <time>2022-03-12T11:21:35.000Z</time>
      </trkpt>
      <trkpt lat="46.89175" lon="4.57347">
        <ele>366.39996</ele>
        <time>2022-03-12T11:21:37.000Z</time>
      </trkpt>
      <trkpt lat="46.89173" lon="4.57346">
        <ele>366.09995</ele>
        <time>2022-03-12T11:21:39.000Z</time>
      </trkpt>
      <trkpt lat="46.89172" lon="4.57345">
        <ele>365.79996</ele>
        <time>2022-03-12T11:21:41.000Z</time>
      </trkpt>
      <trkpt lat="46.8917" lon="4.57343">
        <ele>365.49994</ele>
        <time>2022-03-12T11:21:43.000Z</time>
      </trkpt>
      <trkpt lat="46.89166" lon="4.57341">
        <ele>365.14996</ele>
        <time>2022-03-12T11:21:45.000Z</time>
      </trkpt>
      <trkpt lat="46.89165" lon="4.5734">
        <ele>364.79996</ele>
        <time>2022-03-12T11:21:46.000Z</time>
      </trkpt>
      <trkpt lat="46.89162" lon="4.57338">
        <ele>364.49994</ele>
        <time>2022-03-12T11:21:48.000Z</time>
      </trkpt>
      <trkpt lat="46.89159" lon="4.57337">
        <ele>364.14996</ele>
        <time>2022-03-12T11:21:50.000Z</time>
      </trkpt>
      <trkpt lat="46.89156" lon="4.57335">
        <ele>363.79996</ele>
        <time>2022-03-12T11:21:52.000Z</time>
      </trkpt>
      <trkpt lat="46.89154" lon="4.57333">
        <ele>363.44995</ele>
        <time>2022-03-12T11:21:54.000Z</time>
      </trkpt>
      <trkpt lat="46.89153" lon="4.57331">
        <ele>363.09995</ele>
        <time>2022-03-12T11:21:56.000Z</time>
      </trkpt>
      <trkpt lat="46.8915" lon="4.57329">
        <ele>362.79996</ele>
        <time>2022-03-12T11:21:58.000Z</time>
      </trkpt>
      <trkpt lat="46.89148" lon="4.57327">
        <ele>362.44995</ele>
        <time>2022-03-12T11:22:00.000Z</time>
      </trkpt>
      <trkpt lat="46.89146" lon="4.57326">
        <ele>362.14996</ele>
        <time>2022-03-12T11:22:02.000Z</time>
      </trkpt>
      <trkpt lat="46.89144" lon="4.57324">
        <ele>361.84995</ele>
        <time>2022-03-12T11:22:04.000Z</time>
      </trkpt>
      <trkpt lat="46.89142" lon="4.57322">
        <ele>361.49994</ele>
        <time>2022-03-12T11:22:06.000Z</time>
      </trkpt>
      <trkpt lat="46.89141" lon="4.5732">
        <ele>361.14996</ele>
        <time>2022-03-12T11:22:08.000Z</time>
      </trkpt>
      <trkpt lat="46.89139" lon="4.57318">
        <ele>360.79996</ele>
        <time>2022-03-12T11:22:10.000Z</time>
      </trkpt>
      <trkpt lat="46.89136" lon="4.57316">
        <ele>360.44995</ele>
        <time>2022-03-12T11:22:12.000Z</time>
      </trkpt>
      <trkpt lat="46.89134" lon="4.57313">
        <ele>360.04996</ele>
        <time>2022-03-12T11:22:14.000Z</time>
      </trkpt>
      <trkpt lat="46.89132" lon="4.57311">
        <ele>359.64996</ele>
        <time>2022-03-12T11:22:17.000Z</time>
      </trkpt>
      <trkpt lat="46.8913" lon="4.57309">
        <ele>359.24994</ele>
        <time>2022-03-12T11:22:19.000Z</time>
      </trkpt>
      <trkpt lat="46.89128" lon="4.57308">
        <ele>358.89996</ele>
        <time>2022-03-12T11:22:20.000Z</time>
      </trkpt>
      <trkpt lat="46.89126" lon="4.57307">
        <ele>358.49994</ele>
        <time>2022-03-12T11:22:22.000Z</time>
      </trkpt>
      <trkpt lat="46.89123" lon="4.57305">
        <ele>358.09995</ele>
        <time>2022-03-12T11:22:24.000Z</time>
      </trkpt>
      <trkpt lat="46.89121" lon="4.57304">
        <ele>357.69995</ele>
        <time>2022-03-12T11:22:26.000Z</time>
      </trkpt>
      <trkpt lat="46.89119" lon="4.57301">
        <ele>357.29996</ele>
        <time>2022-03-12T11:22:28.000Z</time>
      </trkpt>
      <trkpt lat="46.89117" lon="4.57299">
        <ele>356.99994</ele>
        <time>2022-03-12T11:22:30.000Z</time>
      </trkpt>
      <trkpt lat="46.89115" lon="4.57298">
        <ele>356.69995</ele>
        <time>2022-03-12T11:22:32.000Z</time>
      </trkpt>
      <trkpt lat="46.89113" lon="4.57297">
        <ele>356.34995</ele>
        <time>2022-03-12T11:22:34.000Z</time>
      </trkpt>
      <trkpt lat="46.89111" lon="4.57295">
        <ele>355.94995</ele>
        <time>2022-03-12T11:22:36.000Z</time>
      </trkpt>
      <trkpt lat="46.89109" lon="4.57294">
        <ele>355.54996</ele>
        <time>2022-03-12T11:22:38.000Z</time>
      </trkpt>
      <trkpt lat="46.89107" lon="4.57292">
        <ele>355.14996</ele>
        <time>2022-03-12T11:22:40.000Z</time>
      </trkpt>
      <trkpt lat="46.89105" lon="4.57291">
        <ele>354.74994</ele>
        <time>2022-03-12T11:22:42.000Z</time>
      </trkpt>
      <trkpt lat="46.89103" lon="4.5729">
        <ele>354.44995</ele>
        <time>2022-03-12T11:22:44.000Z</time>
      </trkpt>
      <trkpt lat="46.89101" lon="4.57288">
        <ele>354.09995</ele>
        <time>2022-03-12T11:22:46.000Z</time>
      </trkpt>
      <trkpt lat="46.89099" lon="4.57287">
        <ele>353.74994</ele>
        <time>2022-03-12T11:22:48.000Z</time>
      </trkpt>
      <trkpt lat="46.89097" lon="4.57285">
        <ele>353.34995</ele>
        <time>2022-03-12T11:22:50.000Z</time>
      </trkpt>
      <trkpt lat="46.89096" lon="4.57282">
        <ele>353.04996</ele>
        <time>2022-03-12T11:22:52.000Z</time>
      </trkpt>
      <trkpt lat="46.89095" lon="4.5728">
        <ele>352.74994</ele>
        <time>2022-03-12T11:22:54.000Z</time>
      </trkpt>
      <trkpt lat="46.89093" lon="4.57278">
        <ele>352.44995</ele>
        <time>2022-03-12T11:22:56.000Z</time>
      </trkpt>
      <trkpt lat="46.89091" lon="4.57276">
        <ele>352.14996</ele>
        <time>2022-03-12T11:22:58.000Z</time>
      </trkpt>
      <trkpt lat="46.89093" lon="4.57279">
        <ele>351.84995</ele>
        <time>2022-03-12T11:23:01.000Z</time>
      </trkpt>
      <trkpt lat="46.89091" lon="4.57277">
        <ele>351.69995</ele>
        <time>2022-03-12T11:23:16.000Z</time>
      </trkpt>
      <trkpt lat="46.89089" lon="4.57276">
        <ele>351.64996</ele>
        <time>2022-03-12T11:23:18.000Z</time>
      </trkpt>
      <trkpt lat="46.89087" lon="4.57275">
        <ele>351.59995</ele>
        <time>2022-03-12T11:23:20.000Z</time>
      </trkpt>
      <trkpt lat="46.89084" lon="4.57274">
        <ele>351.54996</ele>
        <time>2022-03-12T11:23:22.000Z</time>
      </trkpt>
      <trkpt lat="46.89082" lon="4.57272">
        <ele>351.44995</ele>
        <time>2022-03-12T11:23:24.000Z</time>
      </trkpt>
      <trkpt lat="46.8908" lon="4.57272">
        <ele>351.34995</ele>
        <time>2022-03-12T11:23:26.000Z</time>
      </trkpt>
      <trkpt lat="46.89077" lon="4.57271">
        <ele>351.29996</ele>
        <time>2022-03-12T11:23:28.000Z</time>
      </trkpt>
      <trkpt lat="46.89075" lon="4.57269">
        <ele>351.29996</ele>
        <time>2022-03-12T11:23:30.000Z</time>
      </trkpt>
      <trkpt lat="46.89072" lon="4.57268">
        <ele>351.29996</ele>
        <time>2022-03-12T11:23:32.000Z</time>
      </trkpt>
      <trkpt lat="46.8907" lon="4.57268">
        <ele>351.29996</ele>
        <time>2022-03-12T11:23:34.000Z</time>
      </trkpt>
      <trkpt lat="46.89068" lon="4.57269">
        <ele>351.29996</ele>
        <time>2022-03-12T11:23:36.000Z</time>
      </trkpt>
      <trkpt lat="46.89065" lon="4.57268">
        <ele>351.24994</ele>
        <time>2022-03-12T11:23:38.000Z</time>
      </trkpt>
      <trkpt lat="46.89063" lon="4.57267">
        <ele>351.24994</ele>
        <time>2022-03-12T11:23:40.000Z</time>
      </trkpt>
      <trkpt lat="46.89061" lon="4.57267">
        <ele>351.24994</ele>
        <time>2022-03-12T11:23:42.000Z</time>
      </trkpt>
      <trkpt lat="46.89058" lon="4.57267">
        <ele>351.29996</ele>
        <time>2022-03-12T11:23:44.000Z</time>
      </trkpt>
      <trkpt lat="46.89056" lon="4.57267">
        <ele>351.24994</ele>
        <time>2022-03-12T11:23:46.000Z</time>
      </trkpt>
      <trkpt lat="46.89054" lon="4.57267">
        <ele>351.24994</ele>
        <time>2022-03-12T11:23:48.000Z</time>
      </trkpt>
      <trkpt lat="46.89052" lon="4.57267">
        <ele>351.24994</ele>
        <time>2022-03-12T11:23:50.000Z</time>
      </trkpt>
      <trkpt lat="46.8905" lon="4.57266">
        <ele>351.24994</ele>
        <time>2022-03-12T11:23:52.000Z</time>
      </trkpt>
      <trkpt lat="46.89047" lon="4.57266">
        <ele>351.24994</ele>
        <time>2022-03-12T11:23:54.000Z</time>
      </trkpt>
      <trkpt lat="46.89045" lon="4.57266">
        <ele>351.14996</ele>
        <time>2022-03-12T11:23:56.000Z</time>
      </trkpt>
      <trkpt lat="46.89043" lon="4.57265">
        <ele>350.99994</ele>
        <time>2022-03-12T11:23:58.000Z</time>
      </trkpt>
      <trkpt lat="46.89041" lon="4.57266">
        <ele>350.84995</ele>
        <time>2022-03-12T11:24:00.000Z</time>
      </trkpt>
      <trkpt lat="46.89041" lon="4.57269">
        <ele>350.74994</ele>
        <time>2022-03-12T11:24:06.000Z</time>
      </trkpt>
      <trkpt lat="46.8904" lon="4.57269">
        <ele>350.64996</ele>
        <time>2022-03-12T11:24:17.000Z</time>
      </trkpt>
      <trkpt lat="46.89038" lon="4.57267">
        <ele>350.49994</ele>
        <time>2022-03-12T11:24:19.000Z</time>
      </trkpt>
      <trkpt lat="46.89037" lon="4.57266">
        <ele>350.34995</ele>
        <time>2022-03-12T11:24:21.000Z</time>
      </trkpt>
      <trkpt lat="46.89035" lon="4.57265">
        <ele>350.19995</ele>
        <time>2022-03-12T11:24:25.000Z</time>
      </trkpt>
      <trkpt lat="46.89032" lon="4.57265">
        <ele>349.94995</ele>
        <time>2022-03-12T11:24:31.000Z</time>
      </trkpt>
      <trkpt lat="46.8903" lon="4.57264">
        <ele>349.74994</ele>
        <time>2022-03-12T11:24:35.000Z</time>
      </trkpt>
      <trkpt lat="46.89029" lon="4.57267">
        <ele>349.39996</ele>
        <time>2022-03-12T11:24:48.000Z</time>
      </trkpt>
      <trkpt lat="46.89027" lon="4.57268">
        <ele>348.99994</ele>
        <time>2022-03-12T11:25:03.000Z</time>
      </trkpt>
      <trkpt lat="46.89025" lon="4.57266">
        <ele>348.59995</ele>
        <time>2022-03-12T11:25:06.000Z</time>
      </trkpt>
      <trkpt lat="46.89023" lon="4.57267">
        <ele>348.19995</ele>
        <time>2022-03-12T11:25:09.000Z</time>
      </trkpt>
      <trkpt lat="46.89021" lon="4.57267">
        <ele>347.79996</ele>
        <time>2022-03-12T11:25:11.000Z</time>
      </trkpt>
      <trkpt lat="46.89018" lon="4.57267">
        <ele>347.44995</ele>
        <time>2022-03-12T11:25:13.000Z</time>
      </trkpt>
      <trkpt lat="46.89016" lon="4.57267">
        <ele>347.09995</ele>
        <time>2022-03-12T11:25:16.000Z</time>
      </trkpt>
      <trkpt lat="46.89014" lon="4.57267">
        <ele>346.74994</ele>
        <time>2022-03-12T11:25:18.000Z</time>
      </trkpt>
      <trkpt lat="46.89012" lon="4.57267">
        <ele>346.49994</ele>
        <time>2022-03-12T11:25:20.000Z</time>
      </trkpt>
      <trkpt lat="46.8901" lon="4.57268">
        <ele>346.19995</ele>
        <time>2022-03-12T11:25:22.000Z</time>
      </trkpt>
      <trkpt lat="46.89008" lon="4.57269">
        <ele>345.94995</ele>
        <time>2022-03-12T11:25:24.000Z</time>
      </trkpt>
      <trkpt lat="46.89006" lon="4.57269">
        <ele>345.69995</ele>
        <time>2022-03-12T11:25:26.000Z</time>
      </trkpt>
      <trkpt lat="46.89004" lon="4.57268">
        <ele>345.44995</ele>
        <time>2022-03-12T11:25:28.000Z</time>
      </trkpt>
      <trkpt lat="46.89001" lon="4.57268">
        <ele>345.09995</ele>
        <time>2022-03-12T11:25:30.000Z</time>
      </trkpt>
      <trkpt lat="46.88998" lon="4.57269">
        <ele>344.79996</ele>
        <time>2022-03-12T11:25:32.000Z</time>
      </trkpt>
      <trkpt lat="46.88996" lon="4.57268">
        <ele>344.54996</ele>
        <time>2022-03-12T11:25:35.000Z</time>
      </trkpt>
      <trkpt lat="46.88994" lon="4.57269">
        <ele>344.34995</ele>
        <time>2022-03-12T11:25:37.000Z</time>
      </trkpt>
      <trkpt lat="46.88991" lon="4.57269">
        <ele>344.09995</ele>
        <time>2022-03-12T11:25:39.000Z</time>
      </trkpt>
      <trkpt lat="46.8899" lon="4.57271">
        <ele>343.94995</ele>
        <time>2022-03-12T11:25:41.000Z</time>
      </trkpt>
      <trkpt lat="46.88989" lon="4.57273">
        <ele>343.84995</ele>
        <time>2022-03-12T11:25:45.000Z</time>
      </trkpt>
      <trkpt lat="46.88987" lon="4.57272">
        <ele>343.89996</ele>
        <time>2022-03-12T11:25:49.000Z</time>
      </trkpt>
      <trkpt lat="46.88985" lon="4.57272">
        <ele>344.04996</ele>
        <time>2022-03-12T11:25:51.000Z</time>
      </trkpt>
      <trkpt lat="46.88983" lon="4.57274">
        <ele>344.19995</ele>
        <time>2022-03-12T11:25:53.000Z</time>
      </trkpt>
      <trkpt lat="46.88981" lon="4.57276">
        <ele>344.34995</ele>
        <time>2022-03-12T11:25:55.000Z</time>
      </trkpt>
      <trkpt lat="46.8898" lon="4.5728">
        <ele>344.49994</ele>
        <time>2022-03-12T11:25:58.000Z</time>
      </trkpt>
      <trkpt lat="46.8898" lon="4.57283">
        <ele>344.64996</ele>
        <time>2022-03-12T11:26:02.000Z</time>
      </trkpt>
      <trkpt lat="46.88981" lon="4.57286">
        <ele>344.89996</ele>
        <time>2022-03-12T11:26:05.000Z</time>
      </trkpt>
      <trkpt lat="46.8898" lon="4.57283">
        <ele>345.09995</ele>
        <time>2022-03-12T11:26:16.000Z</time>
      </trkpt>
      <trkpt lat="46.88979" lon="4.57281">
        <ele>345.19995</ele>
        <time>2022-03-12T11:26:18.000Z</time>
      </trkpt>
      <trkpt lat="46.88976" lon="4.57279">
        <ele>345.29996</ele>
        <time>2022-03-12T11:26:20.000Z</time>
      </trkpt>
      <trkpt lat="46.88974" lon="4.57276">
        <ele>345.24994</ele>
        <time>2022-03-12T11:26:22.000Z</time>
      </trkpt>
      <trkpt lat="46.88971" lon="4.57275">
        <ele>345.14996</ele>
        <time>2022-03-12T11:26:24.000Z</time>
      </trkpt>
      <trkpt lat="46.88969" lon="4.57275">
        <ele>345.09995</ele>
        <time>2022-03-12T11:26:25.000Z</time>
      </trkpt>
      <trkpt lat="46.88966" lon="4.57276">
        <ele>345.09995</ele>
        <time>2022-03-12T11:26:27.000Z</time>
      </trkpt>
      <trkpt lat="46.88964" lon="4.57276">
        <ele>345.04996</ele>
        <time>2022-03-12T11:26:29.000Z</time>
      </trkpt>
      <trkpt lat="46.88962" lon="4.57277">
        <ele>344.99994</ele>
        <time>2022-03-12T11:26:30.000Z</time>
      </trkpt>
      <trkpt lat="46.8896" lon="4.57277">
        <ele>344.89996</ele>
        <time>2022-03-12T11:26:31.000Z</time>
      </trkpt>
      <trkpt lat="46.88958" lon="4.57277">
        <ele>344.84995</ele>
        <time>2022-03-12T11:26:32.000Z</time>
      </trkpt>
      <trkpt lat="46.88955" lon="4.57276">
        <ele>344.79996</ele>
        <time>2022-03-12T11:26:34.000Z</time>
      </trkpt>
      <trkpt lat="46.88952" lon="4.57276">
        <ele>344.64996</ele>
        <time>2022-03-12T11:26:36.000Z</time>
      </trkpt>
      <trkpt lat="46.88949" lon="4.57277">
        <ele>344.49994</ele>
        <time>2022-03-12T11:26:37.000Z</time>
      </trkpt>
      <trkpt lat="46.88947" lon="4.57277">
        <ele>344.24994</ele>
        <time>2022-03-12T11:26:39.000Z</time>
      </trkpt>
      <trkpt lat="46.88944" lon="4.57277">
        <ele>343.99994</ele>
        <time>2022-03-12T11:26:41.000Z</time>
      </trkpt>
      <trkpt lat="46.88942" lon="4.57276">
        <ele>343.79996</ele>
        <time>2022-03-12T11:26:43.000Z</time>
      </trkpt>
      <trkpt lat="46.8894" lon="4.57276">
        <ele>343.54996</ele>
        <time>2022-03-12T11:26:45.000Z</time>
      </trkpt>
      <trkpt lat="46.88937" lon="4.57276">
        <ele>343.34995</ele>
        <time>2022-03-12T11:26:47.000Z</time>
      </trkpt>
      <trkpt lat="46.88935" lon="4.57276">
        <ele>343.04996</ele>
        <time>2022-03-12T11:26:53.000Z</time>
      </trkpt>
      <trkpt lat="46.88932" lon="4.57277">
        <ele>342.79996</ele>
        <time>2022-03-12T11:26:55.000Z</time>
      </trkpt>
      <trkpt lat="46.8893" lon="4.57277">
        <ele>342.54996</ele>
        <time>2022-03-12T11:26:57.000Z</time>
      </trkpt>
      <trkpt lat="46.88928" lon="4.57277">
        <ele>342.29996</ele>
        <time>2022-03-12T11:26:59.000Z</time>
      </trkpt>
      <trkpt lat="46.88925" lon="4.57277">
        <ele>342.14996</ele>
        <time>2022-03-12T11:27:01.000Z</time>
      </trkpt>
      <trkpt lat="46.88923" lon="4.57278">
        <ele>342.04996</ele>
        <time>2022-03-12T11:27:03.000Z</time>
      </trkpt>
      <trkpt lat="46.88922" lon="4.57279">
        <ele>341.89996</ele>
        <time>2022-03-12T11:27:05.000Z</time>
      </trkpt>
      <trkpt lat="46.8892" lon="4.5728">
        <ele>341.79996</ele>
        <time>2022-03-12T11:27:07.000Z</time>
      </trkpt>
      <trkpt lat="46.88917" lon="4.57281">
        <ele>341.74994</ele>
        <time>2022-03-12T11:27:09.000Z</time>
      </trkpt>
      <trkpt lat="46.88915" lon="4.57281">
        <ele>341.64996</ele>
        <time>2022-03-12T11:27:11.000Z</time>
      </trkpt>
      <trkpt lat="46.88913" lon="4.57282">
        <ele>341.54996</ele>
        <time>2022-03-12T11:27:13.000Z</time>
      </trkpt>
      <trkpt lat="46.88911" lon="4.57281">
        <ele>341.44995</ele>
        <time>2022-03-12T11:27:15.000Z</time>
      </trkpt>
      <trkpt lat="46.88908" lon="4.57281">
        <ele>341.34995</ele>
        <time>2022-03-12T11:27:17.000Z</time>
      </trkpt>
      <trkpt lat="46.88906" lon="4.57281">
        <ele>341.29996</ele>
        <time>2022-03-12T11:27:19.000Z</time>
      </trkpt>
      <trkpt lat="46.88904" lon="4.57281">
        <ele>341.29996</ele>
        <time>2022-03-12T11:27:21.000Z</time>
      </trkpt>
      <trkpt lat="46.88902" lon="4.57281">
        <ele>341.34995</ele>
        <time>2022-03-12T11:27:23.000Z</time>
      </trkpt>
      <trkpt lat="46.88898" lon="4.5728">
        <ele>341.34995</ele>
        <time>2022-03-12T11:27:25.000Z</time>
      </trkpt>
      <trkpt lat="46.88896" lon="4.57281">
        <ele>341.24994</ele>
        <time>2022-03-12T11:27:27.000Z</time>
      </trkpt>
      <trkpt lat="46.88893" lon="4.57281">
        <ele>341.14996</ele>
        <time>2022-03-12T11:27:29.000Z</time>
      </trkpt>
      <trkpt lat="46.8889" lon="4.57281">
        <ele>341.04996</ele>
        <time>2022-03-12T11:27:31.000Z</time>
      </trkpt>
      <trkpt lat="46.88888" lon="4.57281">
        <ele>340.94995</ele>
        <time>2022-03-12T11:27:33.000Z</time>
      </trkpt>
      <trkpt lat="46.88885" lon="4.57282">
        <ele>340.79996</ele>
        <time>2022-03-12T11:27:36.000Z</time>
      </trkpt>
      <trkpt lat="46.88883" lon="4.57282">
        <ele>340.64996</ele>
        <time>2022-03-12T11:27:38.000Z</time>
      </trkpt>
      <trkpt lat="46.88881" lon="4.57282">
        <ele>340.59995</ele>
        <time>2022-03-12T11:27:40.000Z</time>
      </trkpt>
      <trkpt lat="46.8888" lon="4.57281">
        <ele>340.54996</ele>
        <time>2022-03-12T11:27:42.000Z</time>
      </trkpt>
      <trkpt lat="46.88877" lon="4.57281">
        <ele>340.49994</ele>
        <time>2022-03-12T11:27:45.000Z</time>
      </trkpt>
      <trkpt lat="46.88874" lon="4.57282">
        <ele>340.44995</ele>
        <time>2022-03-12T11:27:47.000Z</time>
      </trkpt>
      <trkpt lat="46.88872" lon="4.57281">
        <ele>340.29996</ele>
        <time>2022-03-12T11:27:51.000Z</time>
      </trkpt>
      <trkpt lat="46.8887" lon="4.57281">
        <ele>340.14996</ele>
        <time>2022-03-12T11:27:54.000Z</time>
      </trkpt>
      <trkpt lat="46.88867" lon="4.5728">
        <ele>340.04996</ele>
        <time>2022-03-12T11:27:59.000Z</time>
      </trkpt>
      <trkpt lat="46.88865" lon="4.5728">
        <ele>339.94995</ele>
        <time>2022-03-12T11:28:01.000Z</time>
      </trkpt>
      <trkpt lat="46.88863" lon="4.5728">
        <ele>339.84995</ele>
        <time>2022-03-12T11:28:03.000Z</time>
      </trkpt>
      <trkpt lat="46.88861" lon="4.5728">
        <ele>339.74994</ele>
        <time>2022-03-12T11:28:07.000Z</time>
      </trkpt>
      <trkpt lat="46.88859" lon="4.5728">
        <ele>339.59995</ele>
        <time>2022-03-12T11:28:13.000Z</time>
      </trkpt>
      <trkpt lat="46.88858" lon="4.57283">
        <ele>339.39996</ele>
        <time>2022-03-12T11:28:21.000Z</time>
      </trkpt>
      <trkpt lat="46.88855" lon="4.57284">
        <ele>339.14996</ele>
        <time>2022-03-12T11:28:46.000Z</time>
      </trkpt>
      <trkpt lat="46.88853" lon="4.57283">
        <ele>338.94995</ele>
        <time>2022-03-12T11:28:48.000Z</time>
      </trkpt>
      <trkpt lat="46.88851" lon="4.57283">
        <ele>338.74994</ele>
        <time>2022-03-12T11:28:51.000Z</time>
      </trkpt>
      <trkpt lat="46.88848" lon="4.57282">
        <ele>338.59995</ele>
        <time>2022-03-12T11:28:54.000Z</time>
      </trkpt>
      <trkpt lat="46.88847" lon="4.57283">
        <ele>338.44995</ele>
        <time>2022-03-12T11:28:56.000Z</time>
      </trkpt>
      <trkpt lat="46.88845" lon="4.57284">
        <ele>338.29996</ele>
        <time>2022-03-12T11:28:58.000Z</time>
      </trkpt>
      <trkpt lat="46.88842" lon="4.57285">
        <ele>338.14996</ele>
        <time>2022-03-12T11:29:00.000Z</time>
      </trkpt>
      <trkpt lat="46.88839" lon="4.57285">
        <ele>337.94995</ele>
        <time>2022-03-12T11:29:02.000Z</time>
      </trkpt>
      <trkpt lat="46.88838" lon="4.57285">
        <ele>337.69995</ele>
        <time>2022-03-12T11:29:04.000Z</time>
      </trkpt>
      <trkpt lat="46.88836" lon="4.57285">
        <ele>337.44995</ele>
        <time>2022-03-12T11:29:06.000Z</time>
      </trkpt>
      <trkpt lat="46.88834" lon="4.57285">
        <ele>337.24994</ele>
        <time>2022-03-12T11:29:08.000Z</time>
      </trkpt>
      <trkpt lat="46.88832" lon="4.57285">
        <ele>337.04996</ele>
        <time>2022-03-12T11:29:10.000Z</time>
      </trkpt>
      <trkpt lat="46.88829" lon="4.57285">
        <ele>336.89996</ele>
        <time>2022-03-12T11:29:12.000Z</time>
      </trkpt>
      <trkpt lat="46.88827" lon="4.57285">
        <ele>336.74994</ele>
        <time>2022-03-12T11:29:14.000Z</time>
      </trkpt>
      <trkpt lat="46.88825" lon="4.57285">
        <ele>336.59995</ele>
        <time>2022-03-12T11:29:16.000Z</time>
      </trkpt>
      <trkpt lat="46.88822" lon="4.57285">
        <ele>336.39996</ele>
        <time>2022-03-12T11:29:18.000Z</time>
      </trkpt>
      <trkpt lat="46.8882" lon="4.57286">
        <ele>336.19995</ele>
        <time>2022-03-12T11:29:20.000Z</time>
      </trkpt>
      <trkpt lat="46.88817" lon="4.57286">
        <ele>335.99994</ele>
        <time>2022-03-12T11:29:22.000Z</time>
      </trkpt>
      <trkpt lat="46.88815" lon="4.57286">
        <ele>335.84995</ele>
        <time>2022-03-12T11:29:24.000Z</time>
      </trkpt>
      <trkpt lat="46.88812" lon="4.57286">
        <ele>335.69995</ele>
        <time>2022-03-12T11:29:26.000Z</time>
      </trkpt>
      <trkpt lat="46.88809" lon="4.57286">
        <ele>335.59995</ele>
        <time>2022-03-12T11:29:28.000Z</time>
      </trkpt>
      <trkpt lat="46.88807" lon="4.57287">
        <ele>335.49994</ele>
        <time>2022-03-12T11:29:30.000Z</time>
      </trkpt>
      <trkpt lat="46.88805" lon="4.57287">
        <ele>335.49994</ele>
        <time>2022-03-12T11:29:32.000Z</time>
      </trkpt>
      <trkpt lat="46.88802" lon="4.57288">
        <ele>335.44995</ele>
        <time>2022-03-12T11:29:34.000Z</time>
      </trkpt>
      <trkpt lat="46.88799" lon="4.57289">
        <ele>335.29996</ele>
        <time>2022-03-12T11:29:36.000Z</time>
      </trkpt>
      <trkpt lat="46.88797" lon="4.57289">
        <ele>335.14996</ele>
        <time>2022-03-12T11:29:38.000Z</time>
      </trkpt>
      <trkpt lat="46.88794" lon="4.5729">
        <ele>334.94995</ele>
        <time>2022-03-12T11:29:41.000Z</time>
      </trkpt>
      <trkpt lat="46.88792" lon="4.57291">
        <ele>334.79996</ele>
        <time>2022-03-12T11:29:43.000Z</time>
      </trkpt>
      <trkpt lat="46.88789" lon="4.57292">
        <ele>334.69995</ele>
        <time>2022-03-12T11:29:46.000Z</time>
      </trkpt>
      <trkpt lat="46.88787" lon="4.57292">
        <ele>334.59995</ele>
        <time>2022-03-12T11:29:48.000Z</time>
      </trkpt>
      <trkpt lat="46.88785" lon="4.57293">
        <ele>334.44995</ele>
        <time>2022-03-12T11:29:50.000Z</time>
      </trkpt>
      <trkpt lat="46.88783" lon="4.57293">
        <ele>334.34995</ele>
        <time>2022-03-12T11:29:52.000Z</time>
      </trkpt>
      <trkpt lat="46.8878" lon="4.57293">
        <ele>334.19995</ele>
        <time>2022-03-12T11:29:54.000Z</time>
      </trkpt>
      <trkpt lat="46.88778" lon="4.57293">
        <ele>334.04996</ele>
        <time>2022-03-12T11:29:56.000Z</time>
      </trkpt>
      <trkpt lat="46.88775" lon="4.57293">
        <ele>333.89996</ele>
        <time>2022-03-12T11:29:58.000Z</time>
      </trkpt>
      <trkpt lat="46.88773" lon="4.57294">
        <ele>333.74994</ele>
        <time>2022-03-12T11:30:00.000Z</time>
      </trkpt>
      <trkpt lat="46.88771" lon="4.57294">
        <ele>333.59995</ele>
        <time>2022-03-12T11:30:02.000Z</time>
      </trkpt>
      <trkpt lat="46.88768" lon="4.57295">
        <ele>333.44995</ele>
        <time>2022-03-12T11:30:04.000Z</time>
      </trkpt>
      <trkpt lat="46.88766" lon="4.57295">
        <ele>333.24994</ele>
        <time>2022-03-12T11:30:06.000Z</time>
      </trkpt>
      <trkpt lat="46.88764" lon="4.57294">
        <ele>333.09995</ele>
        <time>2022-03-12T11:30:08.000Z</time>
      </trkpt>
      <trkpt lat="46.88761" lon="4.57293">
        <ele>332.94995</ele>
        <time>2022-03-12T11:30:10.000Z</time>
      </trkpt>
      <trkpt lat="46.88759" lon="4.57293">
        <ele>332.74994</ele>
        <time>2022-03-12T11:30:12.000Z</time>
      </trkpt>
      <trkpt lat="46.88757" lon="4.57293">
        <ele>332.49994</ele>
        <time>2022-03-12T11:30:14.000Z</time>
      </trkpt>
      <trkpt lat="46.88754" lon="4.57292">
        <ele>332.29996</ele>
        <time>2022-03-12T11:30:16.000Z</time>
      </trkpt>
      <trkpt lat="46.88752" lon="4.57292">
        <ele>332.14996</ele>
        <time>2022-03-12T11:30:18.000Z</time>
      </trkpt>
      <trkpt lat="46.8875" lon="4.57293">
        <ele>331.94995</ele>
        <time>2022-03-12T11:30:21.000Z</time>
      </trkpt>
      <trkpt lat="46.88748" lon="4.57294">
        <ele>331.89996</ele>
        <time>2022-03-12T11:30:23.000Z</time>
      </trkpt>
      <trkpt lat="46.88746" lon="4.57293">
        <ele>331.84995</ele>
        <time>2022-03-12T11:30:25.000Z</time>
      </trkpt>
      <trkpt lat="46.88744" lon="4.57294">
        <ele>331.74994</ele>
        <time>2022-03-12T11:30:27.000Z</time>
      </trkpt>
      <trkpt lat="46.88741" lon="4.57294">
        <ele>331.59995</ele>
        <time>2022-03-12T11:30:29.000Z</time>
      </trkpt>
      <trkpt lat="46.88738" lon="4.57295">
        <ele>331.44995</ele>
        <time>2022-03-12T11:30:31.000Z</time>
      </trkpt>
      <trkpt lat="46.88737" lon="4.57296">
        <ele>331.19995</ele>
        <time>2022-03-12T11:30:34.000Z</time>
      </trkpt>
      <trkpt lat="46.88734" lon="4.57297">
        <ele>330.94995</ele>
        <time>2022-03-12T11:30:37.000Z</time>
      </trkpt>
      <trkpt lat="46.88731" lon="4.57298">
        <ele>330.74994</ele>
        <time>2022-03-12T11:30:39.000Z</time>
      </trkpt>
      <trkpt lat="46.88729" lon="4.573">
        <ele>330.54996</ele>
        <time>2022-03-12T11:30:41.000Z</time>
      </trkpt>
      <trkpt lat="46.88728" lon="4.57304">
        <ele>330.34995</ele>
        <time>2022-03-12T11:30:43.000Z</time>
      </trkpt>
      <trkpt lat="46.88727" lon="4.57308">
        <ele>330.14996</ele>
        <time>2022-03-12T11:30:45.000Z</time>
      </trkpt>
      <trkpt lat="46.88727" lon="4.57311">
        <ele>329.94995</ele>
        <time>2022-03-12T11:30:47.000Z</time>
      </trkpt>
      <trkpt lat="46.88727" lon="4.57315">
        <ele>329.79996</ele>
        <time>2022-03-12T11:30:49.000Z</time>
      </trkpt>
      <trkpt lat="46.88726" lon="4.57319">
        <ele>329.64996</ele>
        <time>2022-03-12T11:30:55.000Z</time>
      </trkpt>
      <trkpt lat="46.88726" lon="4.57322">
        <ele>329.54996</ele>
        <time>2022-03-12T11:30:56.000Z</time>
      </trkpt>
      <trkpt lat="46.88728" lon="4.57326">
        <ele>329.49994</ele>
        <time>2022-03-12T11:30:58.000Z</time>
      </trkpt>
      <trkpt lat="46.88729" lon="4.57329">
        <ele>329.44995</ele>
        <time>2022-03-12T11:31:01.000Z</time>
      </trkpt>
      <trkpt lat="46.88731" lon="4.57331">
        <ele>329.49994</ele>
        <time>2022-03-12T11:31:06.000Z</time>
      </trkpt>
      <trkpt lat="46.88733" lon="4.57332">
        <ele>329.59995</ele>
        <time>2022-03-12T11:31:08.000Z</time>
      </trkpt>
      <trkpt lat="46.88735" lon="4.57332">
        <ele>329.79996</ele>
        <time>2022-03-12T11:31:10.000Z</time>
      </trkpt>
      <trkpt lat="46.88737" lon="4.57335">
        <ele>329.94995</ele>
        <time>2022-03-12T11:31:22.000Z</time>
      </trkpt>
      <trkpt lat="46.88738" lon="4.57339">
        <ele>330.09995</ele>
        <time>2022-03-12T11:31:24.000Z</time>
      </trkpt>
      <trkpt lat="46.8874" lon="4.57342">
        <ele>330.24994</ele>
        <time>2022-03-12T11:31:26.000Z</time>
      </trkpt>
      <trkpt lat="46.88741" lon="4.57345">
        <ele>330.49994</ele>
        <time>2022-03-12T11:31:28.000Z</time>
      </trkpt>
      <trkpt lat="46.88743" lon="4.57349">
        <ele>330.69995</ele>
        <time>2022-03-12T11:31:30.000Z</time>
      </trkpt>
      <trkpt lat="46.88744" lon="4.57353">
        <ele>330.94995</ele>
        <time>2022-03-12T11:31:32.000Z</time>
      </trkpt>
      <trkpt lat="46.88745" lon="4.57356">
        <ele>331.24994</ele>
        <time>2022-03-12T11:31:34.000Z</time>
      </trkpt>
      <trkpt lat="46.88748" lon="4.5736">
        <ele>331.49994</ele>
        <time>2022-03-12T11:31:36.000Z</time>
      </trkpt>
      <trkpt lat="46.88749" lon="4.57364">
        <ele>331.69995</ele>
        <time>2022-03-12T11:31:38.000Z</time>
      </trkpt>
      <trkpt lat="46.8875" lon="4.57368">
        <ele>331.94995</ele>
        <time>2022-03-12T11:31:40.000Z</time>
      </trkpt>
      <trkpt lat="46.88751" lon="4.57372">
        <ele>332.19995</ele>
        <time>2022-03-12T11:31:42.000Z</time>
      </trkpt>
      <trkpt lat="46.88751" lon="4.57375">
        <ele>332.44995</ele>
        <time>2022-03-12T11:31:44.000Z</time>
      </trkpt>
      <trkpt lat="46.88753" lon="4.57379">
        <ele>332.69995</ele>
        <time>2022-03-12T11:31:46.000Z</time>
      </trkpt>
      <trkpt lat="46.88755" lon="4.57383">
        <ele>332.89996</ele>
        <time>2022-03-12T11:31:48.000Z</time>
      </trkpt>
      <trkpt lat="46.88757" lon="4.57385">
        <ele>333.04996</ele>
        <time>2022-03-12T11:31:49.000Z</time>
      </trkpt>
      <trkpt lat="46.88758" lon="4.57388">
        <ele>333.19995</ele>
        <time>2022-03-12T11:31:51.000Z</time>
      </trkpt>
      <trkpt lat="46.8876" lon="4.57391">
        <ele>333.34995</ele>
        <time>2022-03-12T11:31:53.000Z</time>
      </trkpt>
      <trkpt lat="46.8876" lon="4.57396">
        <ele>333.44995</ele>
        <time>2022-03-12T11:31:55.000Z</time>
      </trkpt>
      <trkpt lat="46.88761" lon="4.57398">
        <ele>333.44995</ele>
        <time>2022-03-12T11:31:57.000Z</time>
      </trkpt>
      <trkpt lat="46.88763" lon="4.57402">
        <ele>333.39996</ele>
        <time>2022-03-12T11:31:59.000Z</time>
      </trkpt>
      <trkpt lat="46.88765" lon="4.57406">
        <ele>333.34995</ele>
        <time>2022-03-12T11:32:01.000Z</time>
      </trkpt>
      <trkpt lat="46.88766" lon="4.57409">
        <ele>333.29996</ele>
        <time>2022-03-12T11:32:03.000Z</time>
      </trkpt>
      <trkpt lat="46.88768" lon="4.57412">
        <ele>333.24994</ele>
        <time>2022-03-12T11:32:05.000Z</time>
      </trkpt>
      <trkpt lat="46.88769" lon="4.57415">
        <ele>333.14996</ele>
        <time>2022-03-12T11:32:07.000Z</time>
      </trkpt>
      <trkpt lat="46.88769" lon="4.57418">
        <ele>333.14996</ele>
        <time>2022-03-12T11:32:09.000Z</time>
      </trkpt>
      <trkpt lat="46.8877" lon="4.5742">
        <ele>333.14996</ele>
        <time>2022-03-12T11:32:11.000Z</time>
      </trkpt>
      <trkpt lat="46.88772" lon="4.57423">
        <ele>333.14996</ele>
        <time>2022-03-12T11:32:13.000Z</time>
      </trkpt>
      <trkpt lat="46.88774" lon="4.57425">
        <ele>333.19995</ele>
        <time>2022-03-12T11:32:15.000Z</time>
      </trkpt>
      <trkpt lat="46.88775" lon="4.57429">
        <ele>333.29996</ele>
        <time>2022-03-12T11:32:18.000Z</time>
      </trkpt>
      <trkpt lat="46.88777" lon="4.57431">
        <ele>333.44995</ele>
        <time>2022-03-12T11:32:20.000Z</time>
      </trkpt>
      <trkpt lat="46.88778" lon="4.57434">
        <ele>333.59995</ele>
        <time>2022-03-12T11:32:22.000Z</time>
      </trkpt>
      <trkpt lat="46.88778" lon="4.57437">
        <ele>333.74994</ele>
        <time>2022-03-12T11:32:24.000Z</time>
      </trkpt>
      <trkpt lat="46.8878" lon="4.57439">
        <ele>333.84995</ele>
        <time>2022-03-12T11:32:27.000Z</time>
      </trkpt>
      <trkpt lat="46.88781" lon="4.57441">
        <ele>333.94995</ele>
        <time>2022-03-12T11:32:29.000Z</time>
      </trkpt>
      <trkpt lat="46.88782" lon="4.57444">
        <ele>334.04996</ele>
        <time>2022-03-12T11:32:31.000Z</time>
      </trkpt>
      <trkpt lat="46.88784" lon="4.57448">
        <ele>334.14996</ele>
        <time>2022-03-12T11:32:33.000Z</time>
      </trkpt>
      <trkpt lat="46.88785" lon="4.57451">
        <ele>334.24994</ele>
        <time>2022-03-12T11:32:35.000Z</time>
      </trkpt>
      <trkpt lat="46.88786" lon="4.57453">
        <ele>334.29996</ele>
        <time>2022-03-12T11:32:37.000Z</time>
      </trkpt>
      <trkpt lat="46.88788" lon="4.57456">
        <ele>334.39996</ele>
        <time>2022-03-12T11:32:39.000Z</time>
      </trkpt>
      <trkpt lat="46.8879" lon="4.57459">
        <ele>334.49994</ele>
        <time>2022-03-12T11:32:41.000Z</time>
      </trkpt>
      <trkpt lat="46.88791" lon="4.57461">
        <ele>334.59995</ele>
        <time>2022-03-12T11:32:43.000Z</time>
      </trkpt>
      <trkpt lat="46.88792" lon="4.57464">
        <ele>334.69995</ele>
        <time>2022-03-12T11:32:47.000Z</time>
      </trkpt>
      <trkpt lat="46.88793" lon="4.57468">
        <ele>334.74994</ele>
        <time>2022-03-12T11:32:49.000Z</time>
      </trkpt>
      <trkpt lat="46.88795" lon="4.57471">
        <ele>334.79996</ele>
        <time>2022-03-12T11:32:51.000Z</time>
      </trkpt>
      <trkpt lat="46.88797" lon="4.57474">
        <ele>334.84995</ele>
        <time>2022-03-12T11:32:53.000Z</time>
      </trkpt>
      <trkpt lat="46.88798" lon="4.57476">
        <ele>334.89996</ele>
        <time>2022-03-12T11:32:55.000Z</time>
      </trkpt>
      <trkpt lat="46.888" lon="4.5748">
        <ele>334.89996</ele>
        <time>2022-03-12T11:32:58.000Z</time>
      </trkpt>
      <trkpt lat="46.88802" lon="4.57482">
        <ele>334.79996</ele>
        <time>2022-03-12T11:33:00.000Z</time>
      </trkpt>
      <trkpt lat="46.88803" lon="4.57485">
        <ele>334.74994</ele>
        <time>2022-03-12T11:33:02.000Z</time>
      </trkpt>
      <trkpt lat="46.88803" lon="4.57488">
        <ele>334.64996</ele>
        <time>2022-03-12T11:33:04.000Z</time>
      </trkpt>
      <trkpt lat="46.88804" lon="4.57491">
        <ele>334.54996</ele>
        <time>2022-03-12T11:33:06.000Z</time>
      </trkpt>
      <trkpt lat="46.88803" lon="4.57495">
        <ele>334.39996</ele>
        <time>2022-03-12T11:33:09.000Z</time>
      </trkpt>
      <trkpt lat="46.88804" lon="4.57498">
        <ele>334.24994</ele>
        <time>2022-03-12T11:33:12.000Z</time>
      </trkpt>
      <trkpt lat="46.88805" lon="4.57501">
        <ele>334.14996</ele>
        <time>2022-03-12T11:33:14.000Z</time>
      </trkpt>
      <trkpt lat="46.88806" lon="4.57504">
        <ele>334.04996</ele>
        <time>2022-03-12T11:33:17.000Z</time>
      </trkpt>
      <trkpt lat="46.88808" lon="4.57506">
        <ele>333.94995</ele>
        <time>2022-03-12T11:33:19.000Z</time>
      </trkpt>
      <trkpt lat="46.88809" lon="4.5751">
        <ele>333.89996</ele>
        <time>2022-03-12T11:33:21.000Z</time>
      </trkpt>
      <trkpt lat="46.88811" lon="4.57513">
        <ele>333.84995</ele>
        <time>2022-03-12T11:33:23.000Z</time>
      </trkpt>
      <trkpt lat="46.88812" lon="4.57516">
        <ele>333.79996</ele>
        <time>2022-03-12T11:33:25.000Z</time>
      </trkpt>
      <trkpt lat="46.88815" lon="4.5752">
        <ele>333.74994</ele>
        <time>2022-03-12T11:33:27.000Z</time>
      </trkpt>
      <trkpt lat="46.88816" lon="4.57523">
        <ele>333.69995</ele>
        <time>2022-03-12T11:33:29.000Z</time>
      </trkpt>
      <trkpt lat="46.88817" lon="4.57525">
        <ele>333.64996</ele>
        <time>2022-03-12T11:33:31.000Z</time>
      </trkpt>
      <trkpt lat="46.88818" lon="4.57528">
        <ele>333.64996</ele>
        <time>2022-03-12T11:33:33.000Z</time>
      </trkpt>
      <trkpt lat="46.8882" lon="4.57531">
        <ele>333.64996</ele>
        <time>2022-03-12T11:33:35.000Z</time>
      </trkpt>
      <trkpt lat="46.88821" lon="4.57533">
        <ele>333.64996</ele>
        <time>2022-03-12T11:33:37.000Z</time>
      </trkpt>
      <trkpt lat="46.88822" lon="4.57536">
        <ele>333.64996</ele>
        <time>2022-03-12T11:33:39.000Z</time>
      </trkpt>
      <trkpt lat="46.88823" lon="4.57539">
        <ele>333.69995</ele>
        <time>2022-03-12T11:33:41.000Z</time>
      </trkpt>
      <trkpt lat="46.88824" lon="4.57541">
        <ele>333.79996</ele>
        <time>2022-03-12T11:33:43.000Z</time>
      </trkpt>
      <trkpt lat="46.88826" lon="4.57545">
        <ele>333.89996</ele>
        <time>2022-03-12T11:33:45.000Z</time>
      </trkpt>
      <trkpt lat="46.88827" lon="4.57548">
        <ele>333.99994</ele>
        <time>2022-03-12T11:33:47.000Z</time>
      </trkpt>
      <trkpt lat="46.88828" lon="4.57551">
        <ele>334.04996</ele>
        <time>2022-03-12T11:33:49.000Z</time>
      </trkpt>
      <trkpt lat="46.88829" lon="4.57555">
        <ele>334.19995</ele>
        <time>2022-03-12T11:33:52.000Z</time>
      </trkpt>
      <trkpt lat="46.88831" lon="4.57558">
        <ele>334.34995</ele>
        <time>2022-03-12T11:33:54.000Z</time>
      </trkpt>
      <trkpt lat="46.88832" lon="4.5756">
        <ele>334.44995</ele>
        <time>2022-03-12T11:33:56.000Z</time>
      </trkpt>
      <trkpt lat="46.88833" lon="4.57562">
        <ele>334.54996</ele>
        <time>2022-03-12T11:33:58.000Z</time>
      </trkpt>
      <trkpt lat="46.88834" lon="4.57565">
        <ele>334.64996</ele>
        <time>2022-03-12T11:34:00.000Z</time>
      </trkpt>
      <trkpt lat="46.88835" lon="4.57567">
        <ele>334.69995</ele>
        <time>2022-03-12T11:34:03.000Z</time>
      </trkpt>
      <trkpt lat="46.88836" lon="4.57571">
        <ele>334.74994</ele>
        <time>2022-03-12T11:34:06.000Z</time>
      </trkpt>
      <trkpt lat="46.88836" lon="4.57574">
        <ele>334.84995</ele>
        <time>2022-03-12T11:34:08.000Z</time>
      </trkpt>
      <trkpt lat="46.88836" lon="4.57577">
        <ele>334.89996</ele>
        <time>2022-03-12T11:34:10.000Z</time>
      </trkpt>
      <trkpt lat="46.88836" lon="4.5758">
        <ele>334.94995</ele>
        <time>2022-03-12T11:34:12.000Z</time>
      </trkpt>
      <trkpt lat="46.88835" lon="4.57583">
        <ele>334.99994</ele>
        <time>2022-03-12T11:34:14.000Z</time>
      </trkpt>
      <trkpt lat="46.88836" lon="4.57587">
        <ele>335.04996</ele>
        <time>2022-03-12T11:34:16.000Z</time>
      </trkpt>
      <trkpt lat="46.88837" lon="4.57591">
        <ele>335.04996</ele>
        <time>2022-03-12T11:34:19.000Z</time>
      </trkpt>
      <trkpt lat="46.88837" lon="4.57594">
        <ele>335.04996</ele>
        <time>2022-03-12T11:34:21.000Z</time>
      </trkpt>
      <trkpt lat="46.88837" lon="4.57598">
        <ele>335.04996</ele>
        <time>2022-03-12T11:34:23.000Z</time>
      </trkpt>
      <trkpt lat="46.88838" lon="4.57601">
        <ele>335.04996</ele>
        <time>2022-03-12T11:34:25.000Z</time>
      </trkpt>
      <trkpt lat="46.88839" lon="4.57604">
        <ele>335.04996</ele>
        <time>2022-03-12T11:34:27.000Z</time>
      </trkpt>
      <trkpt lat="46.8884" lon="4.57606">
        <ele>334.99994</ele>
        <time>2022-03-12T11:34:29.000Z</time>
      </trkpt>
      <trkpt lat="46.88841" lon="4.57609">
        <ele>334.94995</ele>
        <time>2022-03-12T11:34:31.000Z</time>
      </trkpt>
      <trkpt lat="46.88842" lon="4.57612">
        <ele>334.94995</ele>
        <time>2022-03-12T11:34:33.000Z</time>
      </trkpt>
      <trkpt lat="46.88843" lon="4.57616">
        <ele>334.89996</ele>
        <time>2022-03-12T11:34:35.000Z</time>
      </trkpt>
      <trkpt lat="46.88843" lon="4.5762">
        <ele>334.94995</ele>
        <time>2022-03-12T11:34:37.000Z</time>
      </trkpt>
      <trkpt lat="46.88844" lon="4.57623">
        <ele>334.99994</ele>
        <time>2022-03-12T11:34:39.000Z</time>
      </trkpt>
      <trkpt lat="46.88844" lon="4.57627">
        <ele>335.04996</ele>
        <time>2022-03-12T11:34:41.000Z</time>
      </trkpt>
      <trkpt lat="46.88844" lon="4.5763">
        <ele>335.14996</ele>
        <time>2022-03-12T11:34:43.000Z</time>
      </trkpt>
      <trkpt lat="46.88845" lon="4.57634">
        <ele>335.29996</ele>
        <time>2022-03-12T11:34:46.000Z</time>
      </trkpt>
      <trkpt lat="46.88846" lon="4.57637">
        <ele>335.44995</ele>
        <time>2022-03-12T11:34:49.000Z</time>
      </trkpt>
      <trkpt lat="46.88847" lon="4.57639">
        <ele>335.54996</ele>
        <time>2022-03-12T11:34:51.000Z</time>
      </trkpt>
      <trkpt lat="46.88849" lon="4.57643">
        <ele>335.64996</ele>
        <time>2022-03-12T11:34:53.000Z</time>
      </trkpt>
      <trkpt lat="46.88849" lon="4.57645">
        <ele>335.74994</ele>
        <time>2022-03-12T11:34:55.000Z</time>
      </trkpt>
      <trkpt lat="46.88848" lon="4.57649">
        <ele>335.79996</ele>
        <time>2022-03-12T11:34:57.000Z</time>
      </trkpt>
      <trkpt lat="46.88848" lon="4.57651">
        <ele>335.79996</ele>
        <time>2022-03-12T11:34:59.000Z</time>
      </trkpt>
      <trkpt lat="46.88848" lon="4.57655">
        <ele>335.79996</ele>
        <time>2022-03-12T11:35:02.000Z</time>
      </trkpt>
      <trkpt lat="46.88849" lon="4.57658">
        <ele>335.79996</ele>
        <time>2022-03-12T11:35:04.000Z</time>
      </trkpt>
      <trkpt lat="46.88849" lon="4.57662">
        <ele>335.79996</ele>
        <time>2022-03-12T11:35:06.000Z</time>
      </trkpt>
      <trkpt lat="46.88849" lon="4.57666">
        <ele>335.79996</ele>
        <time>2022-03-12T11:35:08.000Z</time>
      </trkpt>
      <trkpt lat="46.88849" lon="4.57669">
        <ele>335.74994</ele>
        <time>2022-03-12T11:35:11.000Z</time>
      </trkpt>
      <trkpt lat="46.88849" lon="4.57672">
        <ele>335.69995</ele>
        <time>2022-03-12T11:35:13.000Z</time>
      </trkpt>
      <trkpt lat="46.88849" lon="4.57675">
        <ele>335.59995</ele>
        <time>2022-03-12T11:35:15.000Z</time>
      </trkpt>
      <trkpt lat="46.8885" lon="4.57679">
        <ele>335.49994</ele>
        <time>2022-03-12T11:35:17.000Z</time>
      </trkpt>
      <trkpt lat="46.88851" lon="4.57683">
        <ele>335.39996</ele>
        <time>2022-03-12T11:35:19.000Z</time>
      </trkpt>
      <trkpt lat="46.88852" lon="4.57687">
        <ele>335.19995</ele>
        <time>2022-03-12T11:35:21.000Z</time>
      </trkpt>
      <trkpt lat="46.88853" lon="4.5769">
        <ele>334.99994</ele>
        <time>2022-03-12T11:35:23.000Z</time>
      </trkpt>
      <trkpt lat="46.88854" lon="4.57694">
        <ele>334.84995</ele>
        <time>2022-03-12T11:35:25.000Z</time>
      </trkpt>
      <trkpt lat="46.88856" lon="4.57698">
        <ele>334.64996</ele>
        <time>2022-03-12T11:35:27.000Z</time>
      </trkpt>
      <trkpt lat="46.88857" lon="4.57701">
        <ele>334.39996</ele>
        <time>2022-03-12T11:35:29.000Z</time>
      </trkpt>
      <trkpt lat="46.88858" lon="4.57704">
        <ele>334.14996</ele>
        <time>2022-03-12T11:35:31.000Z</time>
      </trkpt>
      <trkpt lat="46.88859" lon="4.57708">
        <ele>333.89996</ele>
        <time>2022-03-12T11:35:33.000Z</time>
      </trkpt>
      <trkpt lat="46.88861" lon="4.57711">
        <ele>333.74994</ele>
        <time>2022-03-12T11:35:35.000Z</time>
      </trkpt>
      <trkpt lat="46.88862" lon="4.57713">
        <ele>333.59995</ele>
        <time>2022-03-12T11:35:37.000Z</time>
      </trkpt>
      <trkpt lat="46.88863" lon="4.57715">
        <ele>333.44995</ele>
        <time>2022-03-12T11:35:39.000Z</time>
      </trkpt>
      <trkpt lat="46.88864" lon="4.57718">
        <ele>333.34995</ele>
        <time>2022-03-12T11:35:41.000Z</time>
      </trkpt>
      <trkpt lat="46.88865" lon="4.57721">
        <ele>333.29996</ele>
        <time>2022-03-12T11:35:43.000Z</time>
      </trkpt>
      <trkpt lat="46.88867" lon="4.57726">
        <ele>333.19995</ele>
        <time>2022-03-12T11:35:46.000Z</time>
      </trkpt>
      <trkpt lat="46.88867" lon="4.57729">
        <ele>333.14996</ele>
        <time>2022-03-12T11:35:51.000Z</time>
      </trkpt>
      <trkpt lat="46.88867" lon="4.57732">
        <ele>333.09995</ele>
        <time>2022-03-12T11:35:54.000Z</time>
      </trkpt>
      <trkpt lat="46.88868" lon="4.57735">
        <ele>333.09995</ele>
        <time>2022-03-12T11:35:56.000Z</time>
      </trkpt>
      <trkpt lat="46.88868" lon="4.57738">
        <ele>333.09995</ele>
        <time>2022-03-12T11:35:58.000Z</time>
      </trkpt>
      <trkpt lat="46.88868" lon="4.57741">
        <ele>333.19995</ele>
        <time>2022-03-12T11:36:01.000Z</time>
      </trkpt>
      <trkpt lat="46.88869" lon="4.57744">
        <ele>333.34995</ele>
        <time>2022-03-12T11:36:04.000Z</time>
      </trkpt>
      <trkpt lat="46.88867" lon="4.57747">
        <ele>333.54996</ele>
        <time>2022-03-12T11:36:08.000Z</time>
      </trkpt>
      <trkpt lat="46.8887" lon="4.57746">
        <ele>333.84995</ele>
        <time>2022-03-12T11:36:26.000Z</time>
      </trkpt>
      <trkpt lat="46.88872" lon="4.57746">
        <ele>334.19995</ele>
        <time>2022-03-12T11:36:30.000Z</time>
      </trkpt>
      <trkpt lat="46.88874" lon="4.57748">
        <ele>334.49994</ele>
        <time>2022-03-12T11:36:33.000Z</time>
      </trkpt>
      <trkpt lat="46.88876" lon="4.5775">
        <ele>334.84995</ele>
        <time>2022-03-12T11:36:35.000Z</time>
      </trkpt>
      <trkpt lat="46.88877" lon="4.57752">
        <ele>335.14996</ele>
        <time>2022-03-12T11:36:38.000Z</time>
      </trkpt>
      <trkpt lat="46.88879" lon="4.57754">
        <ele>335.44995</ele>
        <time>2022-03-12T11:36:40.000Z</time>
      </trkpt>
      <trkpt lat="46.88881" lon="4.57756">
        <ele>335.69995</ele>
        <time>2022-03-12T11:36:42.000Z</time>
      </trkpt>
      <trkpt lat="46.88882" lon="4.57758">
        <ele>335.89996</ele>
        <time>2022-03-12T11:36:44.000Z</time>
      </trkpt>
      <trkpt lat="46.88885" lon="4.57761">
        <ele>336.04996</ele>
        <time>2022-03-12T11:36:46.000Z</time>
      </trkpt>
      <trkpt lat="46.88887" lon="4.57764">
        <ele>336.24994</ele>
        <time>2022-03-12T11:36:48.000Z</time>
      </trkpt>
      <trkpt lat="46.88889" lon="4.57766">
        <ele>336.44995</ele>
        <time>2022-03-12T11:36:49.000Z</time>
      </trkpt>
      <trkpt lat="46.88892" lon="4.57768">
        <ele>336.64996</ele>
        <time>2022-03-12T11:36:51.000Z</time>
      </trkpt>
      <trkpt lat="46.88894" lon="4.57771">
        <ele>336.84995</ele>
        <time>2022-03-12T11:36:53.000Z</time>
      </trkpt>
      <trkpt lat="46.88897" lon="4.57772">
        <ele>336.94995</ele>
        <time>2022-03-12T11:36:55.000Z</time>
      </trkpt>
      <trkpt lat="46.889" lon="4.57774">
        <ele>337.04996</ele>
        <time>2022-03-12T11:36:57.000Z</time>
      </trkpt>
      <trkpt lat="46.88902" lon="4.57776">
        <ele>337.14996</ele>
        <time>2022-03-12T11:36:59.000Z</time>
      </trkpt>
      <trkpt lat="46.88905" lon="4.57778">
        <ele>337.19995</ele>
        <time>2022-03-12T11:37:01.000Z</time>
      </trkpt>
      <trkpt lat="46.88906" lon="4.57779">
        <ele>337.24994</ele>
        <time>2022-03-12T11:37:03.000Z</time>
      </trkpt>
      <trkpt lat="46.88908" lon="4.57781">
        <ele>337.29996</ele>
        <time>2022-03-12T11:37:05.000Z</time>
      </trkpt>
      <trkpt lat="46.88909" lon="4.57783">
        <ele>337.29996</ele>
        <time>2022-03-12T11:37:07.000Z</time>
      </trkpt>
      <trkpt lat="46.88912" lon="4.57785">
        <ele>337.24994</ele>
        <time>2022-03-12T11:37:09.000Z</time>
      </trkpt>
      <trkpt lat="46.88913" lon="4.57787">
        <ele>337.14996</ele>
        <time>2022-03-12T11:37:10.000Z</time>
      </trkpt>
      <trkpt lat="46.88915" lon="4.57789">
        <ele>337.04996</ele>
        <time>2022-03-12T11:37:11.000Z</time>
      </trkpt>
      <trkpt lat="46.88916" lon="4.57793">
        <ele>336.84995</ele>
        <time>2022-03-12T11:37:13.000Z</time>
      </trkpt>
      <trkpt lat="46.88918" lon="4.57796">
        <ele>336.74994</ele>
        <time>2022-03-12T11:37:15.000Z</time>
      </trkpt>
      <trkpt lat="46.8892" lon="4.57799">
        <ele>336.59995</ele>
        <time>2022-03-12T11:37:17.000Z</time>
      </trkpt>
      <trkpt lat="46.88921" lon="4.57801">
        <ele>336.49994</ele>
        <time>2022-03-12T11:37:19.000Z</time>
      </trkpt>
      <trkpt lat="46.88922" lon="4.57804">
        <ele>336.39996</ele>
        <time>2022-03-12T11:37:22.000Z</time>
      </trkpt>
      <trkpt lat="46.88924" lon="4.57807">
        <ele>336.34995</ele>
        <time>2022-03-12T11:37:24.000Z</time>
      </trkpt>
      <trkpt lat="46.88926" lon="4.5781">
        <ele>336.34995</ele>
        <time>2022-03-12T11:37:26.000Z</time>
      </trkpt>
      <trkpt lat="46.88927" lon="4.57812">
        <ele>336.34995</ele>
        <time>2022-03-12T11:37:28.000Z</time>
      </trkpt>
      <trkpt lat="46.88929" lon="4.57816">
        <ele>336.34995</ele>
        <time>2022-03-12T11:37:30.000Z</time>
      </trkpt>
      <trkpt lat="46.8893" lon="4.57819">
        <ele>336.34995</ele>
        <time>2022-03-12T11:37:32.000Z</time>
      </trkpt>
      <trkpt lat="46.88932" lon="4.57823">
        <ele>336.44995</ele>
        <time>2022-03-12T11:37:34.000Z</time>
      </trkpt>
      <trkpt lat="46.88933" lon="4.57826">
        <ele>336.59995</ele>
        <time>2022-03-12T11:37:36.000Z</time>
      </trkpt>
      <trkpt lat="46.88933" lon="4.5783">
        <ele>336.74994</ele>
        <time>2022-03-12T11:37:38.000Z</time>
      </trkpt>
      <trkpt lat="46.88934" lon="4.57833">
        <ele>336.89996</ele>
        <time>2022-03-12T11:37:40.000Z</time>
      </trkpt>
      <trkpt lat="46.88934" lon="4.57837">
        <ele>337.04996</ele>
        <time>2022-03-12T11:37:42.000Z</time>
      </trkpt>
      <trkpt lat="46.88936" lon="4.57841">
        <ele>337.09995</ele>
        <time>2022-03-12T11:37:44.000Z</time>
      </trkpt>
      <trkpt lat="46.88936" lon="4.57844">
        <ele>337.14996</ele>
        <time>2022-03-12T11:37:46.000Z</time>
      </trkpt>
      <trkpt lat="46.88936" lon="4.57847">
        <ele>337.19995</ele>
        <time>2022-03-12T11:37:49.000Z</time>
      </trkpt>
      <trkpt lat="46.88935" lon="4.5785">
        <ele>337.24994</ele>
        <time>2022-03-12T11:37:51.000Z</time>
      </trkpt>
      <trkpt lat="46.88935" lon="4.57852">
        <ele>337.29996</ele>
        <time>2022-03-12T11:37:54.000Z</time>
      </trkpt>
      <trkpt lat="46.88936" lon="4.57855">
        <ele>337.39996</ele>
        <time>2022-03-12T11:37:56.000Z</time>
      </trkpt>
      <trkpt lat="46.88937" lon="4.57859">
        <ele>337.44995</ele>
        <time>2022-03-12T11:37:58.000Z</time>
      </trkpt>
      <trkpt lat="46.88937" lon="4.57862">
        <ele>337.54996</ele>
        <time>2022-03-12T11:38:00.000Z</time>
      </trkpt>
      <trkpt lat="46.88937" lon="4.57864">
        <ele>337.64996</ele>
        <time>2022-03-12T11:38:02.000Z</time>
      </trkpt>
      <trkpt lat="46.88936" lon="4.57867">
        <ele>337.74994</ele>
        <time>2022-03-12T11:38:04.000Z</time>
      </trkpt>
      <trkpt lat="46.88935" lon="4.5787">
        <ele>337.89996</ele>
        <time>2022-03-12T11:38:06.000Z</time>
      </trkpt>
      <trkpt lat="46.88934" lon="4.57873">
        <ele>337.94995</ele>
        <time>2022-03-12T11:38:08.000Z</time>
      </trkpt>
      <trkpt lat="46.88933" lon="4.57876">
        <ele>337.94995</ele>
        <time>2022-03-12T11:38:10.000Z</time>
      </trkpt>
      <trkpt lat="46.88932" lon="4.57879">
        <ele>337.94995</ele>
        <time>2022-03-12T11:38:12.000Z</time>
      </trkpt>
      <trkpt lat="46.88931" lon="4.57882">
        <ele>337.94995</ele>
        <time>2022-03-12T11:38:14.000Z</time>
      </trkpt>
      <trkpt lat="46.88931" lon="4.57886">
        <ele>337.84995</ele>
        <time>2022-03-12T11:38:16.000Z</time>
      </trkpt>
      <trkpt lat="46.8893" lon="4.5789">
        <ele>337.69995</ele>
        <time>2022-03-12T11:38:18.000Z</time>
      </trkpt>
      <trkpt lat="46.88929" lon="4.57893">
        <ele>337.54996</ele>
        <time>2022-03-12T11:38:20.000Z</time>
      </trkpt>
      <trkpt lat="46.88928" lon="4.57896">
        <ele>337.49994</ele>
        <time>2022-03-12T11:38:22.000Z</time>
      </trkpt>
      <trkpt lat="46.88927" lon="4.57899">
        <ele>337.39996</ele>
        <time>2022-03-12T11:38:24.000Z</time>
      </trkpt>
      <trkpt lat="46.88927" lon="4.57902">
        <ele>337.39996</ele>
        <time>2022-03-12T11:38:26.000Z</time>
      </trkpt>
      <trkpt lat="46.88926" lon="4.57905">
        <ele>337.39996</ele>
        <time>2022-03-12T11:38:28.000Z</time>
      </trkpt>
      <trkpt lat="46.88925" lon="4.57909">
        <ele>337.34995</ele>
        <time>2022-03-12T11:38:31.000Z</time>
      </trkpt>
      <trkpt lat="46.88925" lon="4.57912">
        <ele>337.34995</ele>
        <time>2022-03-12T11:38:33.000Z</time>
      </trkpt>
      <trkpt lat="46.88925" lon="4.57916">
        <ele>337.39996</ele>
        <time>2022-03-12T11:38:35.000Z</time>
      </trkpt>
      <trkpt lat="46.88924" lon="4.57919">
        <ele>337.49994</ele>
        <time>2022-03-12T11:38:37.000Z</time>
      </trkpt>
      <trkpt lat="46.88923" lon="4.57922">
        <ele>337.59995</ele>
        <time>2022-03-12T11:38:39.000Z</time>
      </trkpt>
      <trkpt lat="46.88922" lon="4.57924">
        <ele>337.74994</ele>
        <time>2022-03-12T11:38:41.000Z</time>
      </trkpt>
      <trkpt lat="46.88921" lon="4.57928">
        <ele>337.89996</ele>
        <time>2022-03-12T11:38:43.000Z</time>
      </trkpt>
      <trkpt lat="46.8892" lon="4.5793">
        <ele>338.04996</ele>
        <time>2022-03-12T11:38:45.000Z</time>
      </trkpt>
      <trkpt lat="46.88919" lon="4.57933">
        <ele>338.14996</ele>
        <time>2022-03-12T11:38:47.000Z</time>
      </trkpt>
      <trkpt lat="46.88918" lon="4.57937">
        <ele>338.29996</ele>
        <time>2022-03-12T11:38:49.000Z</time>
      </trkpt>
      <trkpt lat="46.88918" lon="4.57939">
        <ele>338.49994</ele>
        <time>2022-03-12T11:38:51.000Z</time>
      </trkpt>
      <trkpt lat="46.88917" lon="4.57942">
        <ele>338.69995</ele>
        <time>2022-03-12T11:38:53.000Z</time>
      </trkpt>
      <trkpt lat="46.88916" lon="4.57945">
        <ele>338.84995</ele>
        <time>2022-03-12T11:38:55.000Z</time>
      </trkpt>
      <trkpt lat="46.88916" lon="4.57948">
        <ele>339.04996</ele>
        <time>2022-03-12T11:38:57.000Z</time>
      </trkpt>
      <trkpt lat="46.88915" lon="4.57951">
        <ele>339.29996</ele>
        <time>2022-03-12T11:38:59.000Z</time>
      </trkpt>
      <trkpt lat="46.88914" lon="4.57954">
        <ele>339.54996</ele>
        <time>2022-03-12T11:39:01.000Z</time>
      </trkpt>
      <trkpt lat="46.88913" lon="4.57958">
        <ele>339.69995</ele>
        <time>2022-03-12T11:39:03.000Z</time>
      </trkpt>
      <trkpt lat="46.88911" lon="4.5796">
        <ele>339.79996</ele>
        <time>2022-03-12T11:39:05.000Z</time>
      </trkpt>
      <trkpt lat="46.88909" lon="4.57963">
        <ele>339.84995</ele>
        <time>2022-03-12T11:39:07.000Z</time>
      </trkpt>
      <trkpt lat="46.88908" lon="4.57966">
        <ele>339.84995</ele>
        <time>2022-03-12T11:39:09.000Z</time>
      </trkpt>
      <trkpt lat="46.88906" lon="4.57968">
        <ele>339.89996</ele>
        <time>2022-03-12T11:39:11.000Z</time>
      </trkpt>
      <trkpt lat="46.88905" lon="4.5797">
        <ele>339.94995</ele>
        <time>2022-03-12T11:39:13.000Z</time>
      </trkpt>
      <trkpt lat="46.88904" lon="4.57973">
        <ele>339.89996</ele>
        <time>2022-03-12T11:39:15.000Z</time>
      </trkpt>
      <trkpt lat="46.88903" lon="4.57977">
        <ele>339.79996</ele>
        <time>2022-03-12T11:39:17.000Z</time>
      </trkpt>
      <trkpt lat="46.88901" lon="4.5798">
        <ele>339.69995</ele>
        <time>2022-03-12T11:39:19.000Z</time>
      </trkpt>
      <trkpt lat="46.889" lon="4.57983">
        <ele>339.59995</ele>
        <time>2022-03-12T11:39:21.000Z</time>
      </trkpt>
      <trkpt lat="46.889" lon="4.57986">
        <ele>339.49994</ele>
        <time>2022-03-12T11:39:23.000Z</time>
      </trkpt>
      <trkpt lat="46.88901" lon="4.57989">
        <ele>339.39996</ele>
        <time>2022-03-12T11:39:25.000Z</time>
      </trkpt>
      <trkpt lat="46.88901" lon="4.57993">
        <ele>339.29996</ele>
        <time>2022-03-12T11:39:27.000Z</time>
      </trkpt>
      <trkpt lat="46.88901" lon="4.57996">
        <ele>339.24994</ele>
        <time>2022-03-12T11:39:29.000Z</time>
      </trkpt>
      <trkpt lat="46.88902" lon="4.57999">
        <ele>339.19995</ele>
        <time>2022-03-12T11:39:31.000Z</time>
      </trkpt>
      <trkpt lat="46.88904" lon="4.58002">
        <ele>339.14996</ele>
        <time>2022-03-12T11:39:33.000Z</time>
      </trkpt>
      <trkpt lat="46.88905" lon="4.58005">
        <ele>339.14996</ele>
        <time>2022-03-12T11:39:35.000Z</time>
      </trkpt>
      <trkpt lat="46.88907" lon="4.58008">
        <ele>339.14996</ele>
        <time>2022-03-12T11:39:37.000Z</time>
      </trkpt>
      <trkpt lat="46.88909" lon="4.5801">
        <ele>339.14996</ele>
        <time>2022-03-12T11:39:40.000Z</time>
      </trkpt>
      <trkpt lat="46.88911" lon="4.58012">
        <ele>339.14996</ele>
        <time>2022-03-12T11:39:42.000Z</time>
      </trkpt>
      <trkpt lat="46.88913" lon="4.58014">
        <ele>339.19995</ele>
        <time>2022-03-12T11:39:44.000Z</time>
      </trkpt>
      <trkpt lat="46.88915" lon="4.58017">
        <ele>339.34995</ele>
        <time>2022-03-12T11:39:46.000Z</time>
      </trkpt>
      <trkpt lat="46.88916" lon="4.58019">
        <ele>339.49994</ele>
        <time>2022-03-12T11:39:48.000Z</time>
      </trkpt>
      <trkpt lat="46.88919" lon="4.58021">
        <ele>339.69995</ele>
        <time>2022-03-12T11:39:54.000Z</time>
      </trkpt>
      <trkpt lat="46.88921" lon="4.58023">
        <ele>339.94995</ele>
        <time>2022-03-12T11:39:56.000Z</time>
      </trkpt>
      <trkpt lat="46.88923" lon="4.58025">
        <ele>340.14996</ele>
        <time>2022-03-12T11:39:58.000Z</time>
      </trkpt>
      <trkpt lat="46.88926" lon="4.58026">
        <ele>340.39996</ele>
        <time>2022-03-12T11:40:00.000Z</time>
      </trkpt>
      <trkpt lat="46.88928" lon="4.58027">
        <ele>340.69995</ele>
        <time>2022-03-12T11:40:02.000Z</time>
      </trkpt>
      <trkpt lat="46.8893" lon="4.58028">
        <ele>340.99994</ele>
        <time>2022-03-12T11:40:04.000Z</time>
      </trkpt>
      <trkpt lat="46.88932" lon="4.58028">
        <ele>341.29996</ele>
        <time>2022-03-12T11:40:06.000Z</time>
      </trkpt>
      <trkpt lat="46.88935" lon="4.58031">
        <ele>341.59995</ele>
        <time>2022-03-12T11:40:08.000Z</time>
      </trkpt>
      <trkpt lat="46.88937" lon="4.58033">
        <ele>341.89996</ele>
        <time>2022-03-12T11:40:10.000Z</time>
      </trkpt>
      <trkpt lat="46.88939" lon="4.58033">
        <ele>342.19995</ele>
        <time>2022-03-12T11:40:12.000Z</time>
      </trkpt>
      <trkpt lat="46.88941" lon="4.58034">
        <ele>342.44995</ele>
        <time>2022-03-12T11:40:14.000Z</time>
      </trkpt>
      <trkpt lat="46.88944" lon="4.58035">
        <ele>342.74994</ele>
        <time>2022-03-12T11:40:16.000Z</time>
      </trkpt>
      <trkpt lat="46.88946" lon="4.58036">
        <ele>343.04996</ele>
        <time>2022-03-12T11:40:18.000Z</time>
      </trkpt>
      <trkpt lat="46.88948" lon="4.58037">
        <ele>343.34995</ele>
        <time>2022-03-12T11:40:20.000Z</time>
      </trkpt>
      <trkpt lat="46.8895" lon="4.58038">
        <ele>343.64996</ele>
        <time>2022-03-12T11:40:22.000Z</time>
      </trkpt>
      <trkpt lat="46.88953" lon="4.58039">
        <ele>344.09995</ele>
        <time>2022-03-12T11:40:28.000Z</time>
      </trkpt>
      <trkpt lat="46.88955" lon="4.58039">
        <ele>344.49994</ele>
        <time>2022-03-12T11:40:31.000Z</time>
      </trkpt>
      <trkpt lat="46.88958" lon="4.5804">
        <ele>344.89996</ele>
        <time>2022-03-12T11:40:33.000Z</time>
      </trkpt>
      <trkpt lat="46.88959" lon="4.58041">
        <ele>345.29996</ele>
        <time>2022-03-12T11:40:35.000Z</time>
      </trkpt>
      <trkpt lat="46.88962" lon="4.58042">
        <ele>345.69995</ele>
        <time>2022-03-12T11:40:37.000Z</time>
      </trkpt>
      <trkpt lat="46.88964" lon="4.58043">
        <ele>346.09995</ele>
        <time>2022-03-12T11:40:40.000Z</time>
      </trkpt>
      <trkpt lat="46.88966" lon="4.58045">
        <ele>346.44995</ele>
        <time>2022-03-12T11:40:43.000Z</time>
      </trkpt>
      <trkpt lat="46.88966" lon="4.58048">
        <ele>346.84995</ele>
        <time>2022-03-12T11:41:05.000Z</time>
      </trkpt>
      <trkpt lat="46.88967" lon="4.58052">
        <ele>347.24994</ele>
        <time>2022-03-12T11:41:08.000Z</time>
      </trkpt>
      <trkpt lat="46.88967" lon="4.58054">
        <ele>347.59995</ele>
        <time>2022-03-12T11:41:10.000Z</time>
      </trkpt>
      <trkpt lat="46.8897" lon="4.58057">
        <ele>347.94995</ele>
        <time>2022-03-12T11:41:12.000Z</time>
      </trkpt>
      <trkpt lat="46.88971" lon="4.58059">
        <ele>348.14996</ele>
        <time>2022-03-12T11:41:24.000Z</time>
      </trkpt>
      <trkpt lat="46.88971" lon="4.58062">
        <ele>348.34995</ele>
        <time>2022-03-12T11:41:26.000Z</time>
      </trkpt>
      <trkpt lat="46.88972" lon="4.58066">
        <ele>348.49994</ele>
        <time>2022-03-12T11:41:28.000Z</time>
      </trkpt>
      <trkpt lat="46.88972" lon="4.5807">
        <ele>348.59995</ele>
        <time>2022-03-12T11:41:31.000Z</time>
      </trkpt>
      <trkpt lat="46.88972" lon="4.58073">
        <ele>348.64996</ele>
        <time>2022-03-12T11:41:33.000Z</time>
      </trkpt>
      <trkpt lat="46.88971" lon="4.58076">
        <ele>348.64996</ele>
        <time>2022-03-12T11:41:35.000Z</time>
      </trkpt>
      <trkpt lat="46.8897" lon="4.58079">
        <ele>348.59995</ele>
        <time>2022-03-12T11:41:37.000Z</time>
      </trkpt>
      <trkpt lat="46.8897" lon="4.58083">
        <ele>348.54996</ele>
        <time>2022-03-12T11:41:39.000Z</time>
      </trkpt>
      <trkpt lat="46.8897" lon="4.58086">
        <ele>348.44995</ele>
        <time>2022-03-12T11:41:41.000Z</time>
      </trkpt>
      <trkpt lat="46.88969" lon="4.58089">
        <ele>348.14996</ele>
        <time>2022-03-12T11:41:43.000Z</time>
      </trkpt>
      <trkpt lat="46.8897" lon="4.58093">
        <ele>347.89996</ele>
        <time>2022-03-12T11:41:45.000Z</time>
      </trkpt>
      <trkpt lat="46.8897" lon="4.58097">
        <ele>347.64996</ele>
        <time>2022-03-12T11:41:47.000Z</time>
      </trkpt>
      <trkpt lat="46.88971" lon="4.581">
        <ele>347.29996</ele>
        <time>2022-03-12T11:41:49.000Z</time>
      </trkpt>
      <trkpt lat="46.88971" lon="4.58106">
        <ele>346.94995</ele>
        <time>2022-03-12T11:41:52.000Z</time>
      </trkpt>
      <trkpt lat="46.88971" lon="4.5811">
        <ele>346.64996</ele>
        <time>2022-03-12T11:41:54.000Z</time>
      </trkpt>
      <trkpt lat="46.88971" lon="4.58113">
        <ele>346.34995</ele>
        <time>2022-03-12T11:41:56.000Z</time>
      </trkpt>
      <trkpt lat="46.88971" lon="4.58117">
        <ele>346.04996</ele>
        <time>2022-03-12T11:41:58.000Z</time>
      </trkpt>
      <trkpt lat="46.88971" lon="4.5812">
        <ele>345.74994</ele>
        <time>2022-03-12T11:42:00.000Z</time>
      </trkpt>
      <trkpt lat="46.88971" lon="4.58123">
        <ele>345.44995</ele>
        <time>2022-03-12T11:42:02.000Z</time>
      </trkpt>
      <trkpt lat="46.88971" lon="4.58127">
        <ele>345.14996</ele>
        <time>2022-03-12T11:42:04.000Z</time>
      </trkpt>
      <trkpt lat="46.88971" lon="4.5813">
        <ele>345.04996</ele>
        <time>2022-03-12T11:42:12.000Z</time>
      </trkpt>
      <trkpt lat="46.88971" lon="4.58133">
        <ele>344.99994</ele>
        <time>2022-03-12T11:42:14.000Z</time>
      </trkpt>
      <trkpt lat="46.88971" lon="4.58136">
        <ele>344.99994</ele>
        <time>2022-03-12T11:42:16.000Z</time>
      </trkpt>
      <trkpt lat="46.88971" lon="4.58139">
        <ele>344.99994</ele>
        <time>2022-03-12T11:42:18.000Z</time>
      </trkpt>
      <trkpt lat="46.88971" lon="4.58142">
        <ele>345.09995</ele>
        <time>2022-03-12T11:42:20.000Z</time>
      </trkpt>
      <trkpt lat="46.88971" lon="4.58146">
        <ele>345.19995</ele>
        <time>2022-03-12T11:42:22.000Z</time>
      </trkpt>
      <trkpt lat="46.88972" lon="4.5815">
        <ele>345.34995</ele>
        <time>2022-03-12T11:42:24.000Z</time>
      </trkpt>
      <trkpt lat="46.88972" lon="4.58153">
        <ele>345.49994</ele>
        <time>2022-03-12T11:42:26.000Z</time>
      </trkpt>
      <trkpt lat="46.88973" lon="4.58156">
        <ele>345.69995</ele>
        <time>2022-03-12T11:42:28.000Z</time>
      </trkpt>
      <trkpt lat="46.88973" lon="4.5816">
        <ele>345.89996</ele>
        <time>2022-03-12T11:42:30.000Z</time>
      </trkpt>
      <trkpt lat="46.88973" lon="4.58163">
        <ele>346.14996</ele>
        <time>2022-03-12T11:42:32.000Z</time>
      </trkpt>
      <trkpt lat="46.88974" lon="4.58166">
        <ele>346.29996</ele>
        <time>2022-03-12T11:42:34.000Z</time>
      </trkpt>
      <trkpt lat="46.88975" lon="4.5817">
        <ele>346.49994</ele>
        <time>2022-03-12T11:42:37.000Z</time>
      </trkpt>
      <trkpt lat="46.88975" lon="4.58173">
        <ele>346.69995</ele>
        <time>2022-03-12T11:42:39.000Z</time>
      </trkpt>
      <trkpt lat="46.88976" lon="4.58177">
        <ele>346.84995</ele>
        <time>2022-03-12T11:42:41.000Z</time>
      </trkpt>
      <trkpt lat="46.88977" lon="4.5818">
        <ele>346.99994</ele>
        <time>2022-03-12T11:42:43.000Z</time>
      </trkpt>
      <trkpt lat="46.88978" lon="4.58184">
        <ele>347.09995</ele>
        <time>2022-03-12T11:42:45.000Z</time>
      </trkpt>
      <trkpt lat="46.88978" lon="4.58187">
        <ele>347.24994</ele>
        <time>2022-03-12T11:42:47.000Z</time>
      </trkpt>
      <trkpt lat="46.88979" lon="4.5819">
        <ele>347.39996</ele>
        <time>2022-03-12T11:42:49.000Z</time>
      </trkpt>
      <trkpt lat="46.8898" lon="4.58193">
        <ele>347.54996</ele>
        <time>2022-03-12T11:42:51.000Z</time>
      </trkpt>
      <trkpt lat="46.88981" lon="4.58196">
        <ele>347.54996</ele>
        <time>2022-03-12T11:42:53.000Z</time>
      </trkpt>
      <trkpt lat="46.88983" lon="4.58199">
        <ele>347.49994</ele>
        <time>2022-03-12T11:42:55.000Z</time>
      </trkpt>
      <trkpt lat="46.88984" lon="4.58202">
        <ele>347.44995</ele>
        <time>2022-03-12T11:42:57.000Z</time>
      </trkpt>
      <trkpt lat="46.88985" lon="4.58204">
        <ele>347.39996</ele>
        <time>2022-03-12T11:42:59.000Z</time>
      </trkpt>
      <trkpt lat="46.88986" lon="4.58207">
        <ele>347.29996</ele>
        <time>2022-03-12T11:43:02.000Z</time>
      </trkpt>
      <trkpt lat="46.88989" lon="4.58209">
        <ele>347.24994</ele>
        <time>2022-03-12T11:43:04.000Z</time>
      </trkpt>
      <trkpt lat="46.88991" lon="4.58211">
        <ele>347.19995</ele>
        <time>2022-03-12T11:43:06.000Z</time>
      </trkpt>
      <trkpt lat="46.88993" lon="4.58213">
        <ele>347.19995</ele>
        <time>2022-03-12T11:43:08.000Z</time>
      </trkpt>
      <trkpt lat="46.88995" lon="4.58215">
        <ele>347.19995</ele>
        <time>2022-03-12T11:43:10.000Z</time>
      </trkpt>
      <trkpt lat="46.88999" lon="4.58218">
        <ele>347.24994</ele>
        <time>2022-03-12T11:43:13.000Z</time>
      </trkpt>
      <trkpt lat="46.89001" lon="4.58219">
        <ele>347.24994</ele>
        <time>2022-03-12T11:43:15.000Z</time>
      </trkpt>
      <trkpt lat="46.89004" lon="4.5822">
        <ele>347.39996</ele>
        <time>2022-03-12T11:43:17.000Z</time>
      </trkpt>
      <trkpt lat="46.89007" lon="4.58222">
        <ele>347.54996</ele>
        <time>2022-03-12T11:43:19.000Z</time>
      </trkpt>
      <trkpt lat="46.89009" lon="4.58223">
        <ele>347.69995</ele>
        <time>2022-03-12T11:43:21.000Z</time>
      </trkpt>
      <trkpt lat="46.89011" lon="4.58225">
        <ele>347.89996</ele>
        <time>2022-03-12T11:43:23.000Z</time>
      </trkpt>
      <trkpt lat="46.89013" lon="4.58227">
        <ele>348.09995</ele>
        <time>2022-03-12T11:43:25.000Z</time>
      </trkpt>
      <trkpt lat="46.89015" lon="4.58228">
        <ele>348.29996</ele>
        <time>2022-03-12T11:43:27.000Z</time>
      </trkpt>
      <trkpt lat="46.89017" lon="4.58231">
        <ele>348.44995</ele>
        <time>2022-03-12T11:43:30.000Z</time>
      </trkpt>
      <trkpt lat="46.89019" lon="4.58233">
        <ele>348.59995</ele>
        <time>2022-03-12T11:43:33.000Z</time>
      </trkpt>
      <trkpt lat="46.89021" lon="4.58235">
        <ele>348.69995</ele>
        <time>2022-03-12T11:43:36.000Z</time>
      </trkpt>
      <trkpt lat="46.89023" lon="4.58237">
        <ele>348.89996</ele>
        <time>2022-03-12T11:43:38.000Z</time>
      </trkpt>
      <trkpt lat="46.89025" lon="4.58239">
        <ele>349.04996</ele>
        <time>2022-03-12T11:43:41.000Z</time>
      </trkpt>
      <trkpt lat="46.89027" lon="4.5824">
        <ele>349.19995</ele>
        <time>2022-03-12T11:43:43.000Z</time>
      </trkpt>
      <trkpt lat="46.89029" lon="4.58241">
        <ele>349.39996</ele>
        <time>2022-03-12T11:43:45.000Z</time>
      </trkpt>
      <trkpt lat="46.89032" lon="4.58243">
        <ele>349.59995</ele>
        <time>2022-03-12T11:43:49.000Z</time>
      </trkpt>
      <trkpt lat="46.89034" lon="4.58246">
        <ele>349.74994</ele>
        <time>2022-03-12T11:43:52.000Z</time>
      </trkpt>
      <trkpt lat="46.89036" lon="4.58248">
        <ele>349.94995</ele>
        <time>2022-03-12T11:43:55.000Z</time>
      </trkpt>
      <trkpt lat="46.89038" lon="4.5825">
        <ele>350.09995</ele>
        <time>2022-03-12T11:43:57.000Z</time>
      </trkpt>
      <trkpt lat="46.89039" lon="4.58251">
        <ele>350.24994</ele>
        <time>2022-03-12T11:43:59.000Z</time>
      </trkpt>
      <trkpt lat="46.89041" lon="4.58254">
        <ele>350.34995</ele>
        <time>2022-03-12T11:44:02.000Z</time>
      </trkpt>
      <trkpt lat="46.89043" lon="4.58256">
        <ele>350.39996</ele>
        <time>2022-03-12T11:44:04.000Z</time>
      </trkpt>
      <trkpt lat="46.89045" lon="4.58258">
        <ele>350.39996</ele>
        <time>2022-03-12T11:44:06.000Z</time>
      </trkpt>
      <trkpt lat="46.89048" lon="4.5826">
        <ele>350.39996</ele>
        <time>2022-03-12T11:44:08.000Z</time>
      </trkpt>
      <trkpt lat="46.8905" lon="4.58262">
        <ele>350.39996</ele>
        <time>2022-03-12T11:44:10.000Z</time>
      </trkpt>
      <trkpt lat="46.89053" lon="4.58264">
        <ele>350.39996</ele>
        <time>2022-03-12T11:44:12.000Z</time>
      </trkpt>
      <trkpt lat="46.89055" lon="4.58266">
        <ele>350.34995</ele>
        <time>2022-03-12T11:44:14.000Z</time>
      </trkpt>
      <trkpt lat="46.89057" lon="4.58269">
        <ele>350.29996</ele>
        <time>2022-03-12T11:44:17.000Z</time>
      </trkpt>
      <trkpt lat="46.89059" lon="4.58271">
        <ele>350.24994</ele>
        <time>2022-03-12T11:44:19.000Z</time>
      </trkpt>
      <trkpt lat="46.89061" lon="4.58273">
        <ele>350.24994</ele>
        <time>2022-03-12T11:44:21.000Z</time>
      </trkpt>
      <trkpt lat="46.89062" lon="4.58275">
        <ele>350.29996</ele>
        <time>2022-03-12T11:44:23.000Z</time>
      </trkpt>
      <trkpt lat="46.89064" lon="4.58278">
        <ele>350.24994</ele>
        <time>2022-03-12T11:44:25.000Z</time>
      </trkpt>
      <trkpt lat="46.89065" lon="4.5828">
        <ele>350.29996</ele>
        <time>2022-03-12T11:44:27.000Z</time>
      </trkpt>
      <trkpt lat="46.89066" lon="4.58283">
        <ele>350.34995</ele>
        <time>2022-03-12T11:44:29.000Z</time>
      </trkpt>
      <trkpt lat="46.89067" lon="4.58287">
        <ele>350.39996</ele>
        <time>2022-03-12T11:44:32.000Z</time>
      </trkpt>
      <trkpt lat="46.89068" lon="4.5829">
        <ele>350.44995</ele>
        <time>2022-03-12T11:44:34.000Z</time>
      </trkpt>
      <trkpt lat="46.89069" lon="4.58293">
        <ele>350.49994</ele>
        <time>2022-03-12T11:44:36.000Z</time>
      </trkpt>
      <trkpt lat="46.89071" lon="4.58296">
        <ele>350.49994</ele>
        <time>2022-03-12T11:44:39.000Z</time>
      </trkpt>
      <trkpt lat="46.89072" lon="4.583">
        <ele>350.49994</ele>
        <time>2022-03-12T11:44:42.000Z</time>
      </trkpt>
      <trkpt lat="46.89072" lon="4.58303">
        <ele>350.54996</ele>
        <time>2022-03-12T11:44:44.000Z</time>
      </trkpt>
      <trkpt lat="46.89072" lon="4.58307">
        <ele>350.59995</ele>
        <time>2022-03-12T11:44:46.000Z</time>
      </trkpt>
      <trkpt lat="46.89073" lon="4.5831">
        <ele>350.69995</ele>
        <time>2022-03-12T11:44:48.000Z</time>
      </trkpt>
      <trkpt lat="46.89074" lon="4.58313">
        <ele>350.79996</ele>
        <time>2022-03-12T11:44:50.000Z</time>
      </trkpt>
      <trkpt lat="46.89074" lon="4.58316">
        <ele>350.89996</ele>
        <time>2022-03-12T11:44:52.000Z</time>
      </trkpt>
      <trkpt lat="46.89074" lon="4.58319">
        <ele>350.99994</ele>
        <time>2022-03-12T11:44:54.000Z</time>
      </trkpt>
      <trkpt lat="46.89074" lon="4.58322">
        <ele>350.99994</ele>
        <time>2022-03-12T11:44:56.000Z</time>
      </trkpt>
      <trkpt lat="46.89075" lon="4.58327">
        <ele>351.09995</ele>
        <time>2022-03-12T11:44:59.000Z</time>
      </trkpt>
      <trkpt lat="46.89075" lon="4.58331">
        <ele>351.19995</ele>
        <time>2022-03-12T11:45:01.000Z</time>
      </trkpt>
      <trkpt lat="46.89074" lon="4.58334">
        <ele>351.29996</ele>
        <time>2022-03-12T11:45:05.000Z</time>
      </trkpt>
      <trkpt lat="46.89074" lon="4.58337">
        <ele>351.34995</ele>
        <time>2022-03-12T11:45:07.000Z</time>
      </trkpt>
      <trkpt lat="46.89074" lon="4.5834">
        <ele>351.39996</ele>
        <time>2022-03-12T11:45:09.000Z</time>
      </trkpt>
      <trkpt lat="46.89073" lon="4.58343">
        <ele>351.49994</ele>
        <time>2022-03-12T11:45:11.000Z</time>
      </trkpt>
      <trkpt lat="46.89073" lon="4.58346">
        <ele>351.54996</ele>
        <time>2022-03-12T11:45:13.000Z</time>
      </trkpt>
      <trkpt lat="46.89073" lon="4.5835">
        <ele>351.59995</ele>
        <time>2022-03-12T11:45:16.000Z</time>
      </trkpt>
      <trkpt lat="46.89072" lon="4.58353">
        <ele>351.69995</ele>
        <time>2022-03-12T11:45:18.000Z</time>
      </trkpt>
      <trkpt lat="46.89072" lon="4.58357">
        <ele>351.84995</ele>
        <time>2022-03-12T11:45:20.000Z</time>
      </trkpt>
      <trkpt lat="46.89072" lon="4.5836">
        <ele>351.99994</ele>
        <time>2022-03-12T11:45:22.000Z</time>
      </trkpt>
      <trkpt lat="46.89071" lon="4.58364">
        <ele>352.09995</ele>
        <time>2022-03-12T11:45:24.000Z</time>
      </trkpt>
      <trkpt lat="46.89071" lon="4.58367">
        <ele>352.24994</ele>
        <time>2022-03-12T11:45:26.000Z</time>
      </trkpt>
      <trkpt lat="46.89071" lon="4.5837">
        <ele>352.29996</ele>
        <time>2022-03-12T11:45:28.000Z</time>
      </trkpt>
      <trkpt lat="46.89071" lon="4.58374">
        <ele>352.34995</ele>
        <time>2022-03-12T11:45:30.000Z</time>
      </trkpt>
      <trkpt lat="46.89071" lon="4.58378">
        <ele>352.39996</ele>
        <time>2022-03-12T11:45:32.000Z</time>
      </trkpt>
      <trkpt lat="46.89072" lon="4.58381">
        <ele>352.44995</ele>
        <time>2022-03-12T11:45:34.000Z</time>
      </trkpt>
      <trkpt lat="46.89075" lon="4.58384">
        <ele>352.54996</ele>
        <time>2022-03-12T11:45:36.000Z</time>
      </trkpt>
      <trkpt lat="46.89077" lon="4.58385">
        <ele>352.64996</ele>
        <time>2022-03-12T11:45:38.000Z</time>
      </trkpt>
      <trkpt lat="46.89078" lon="4.58386">
        <ele>352.79996</ele>
        <time>2022-03-12T11:45:40.000Z</time>
      </trkpt>
      <trkpt lat="46.89081" lon="4.58387">
        <ele>352.94995</ele>
        <time>2022-03-12T11:45:43.000Z</time>
      </trkpt>
      <trkpt lat="46.89083" lon="4.58389">
        <ele>353.14996</ele>
        <time>2022-03-12T11:45:46.000Z</time>
      </trkpt>
      <trkpt lat="46.89085" lon="4.58389">
        <ele>353.39996</ele>
        <time>2022-03-12T11:45:48.000Z</time>
      </trkpt>
      <trkpt lat="46.89087" lon="4.58389">
        <ele>353.64996</ele>
        <time>2022-03-12T11:45:52.000Z</time>
      </trkpt>
      <trkpt lat="46.89089" lon="4.58389">
        <ele>353.94995</ele>
        <time>2022-03-12T11:45:56.000Z</time>
      </trkpt>
      <trkpt lat="46.8909" lon="4.58392">
        <ele>354.29996</ele>
        <time>2022-03-12T11:46:12.000Z</time>
      </trkpt>
      <trkpt lat="46.89089" lon="4.58394">
        <ele>354.64996</ele>
        <time>2022-03-12T11:46:35.000Z</time>
      </trkpt>
      <trkpt lat="46.89089" lon="4.58397">
        <ele>355.04996</ele>
        <time>2022-03-12T11:46:45.000Z</time>
      </trkpt>
      <trkpt lat="46.8909" lon="4.584">
        <ele>355.34995</ele>
        <time>2022-03-12T11:46:49.000Z</time>
      </trkpt>
      <trkpt lat="46.89089" lon="4.58403">
        <ele>355.59995</ele>
        <time>2022-03-12T11:49:13.000Z</time>
      </trkpt>
      <trkpt lat="46.89091" lon="4.58401">
        <ele>355.94995</ele>
        <time>2022-03-12T11:49:57.000Z</time>
      </trkpt>
      <trkpt lat="46.8909" lon="4.58398">
        <ele>356.29996</ele>
        <time>2022-03-12T11:49:59.000Z</time>
      </trkpt>
      <trkpt lat="46.89089" lon="4.58401">
        <ele>356.49994</ele>
        <time>2022-03-12T11:50:07.000Z</time>
      </trkpt>
      <trkpt lat="46.8909" lon="4.58398">
        <ele>356.69995</ele>
        <time>2022-03-12T11:50:44.000Z</time>
      </trkpt>
      <trkpt lat="46.89088" lon="4.58399">
        <ele>356.89996</ele>
        <time>2022-03-12T11:51:00.000Z</time>
      </trkpt>
      <trkpt lat="46.89087" lon="4.58403">
        <ele>356.94995</ele>
        <time>2022-03-12T11:51:34.000Z</time>
      </trkpt>
      <trkpt lat="46.89086" lon="4.584">
        <ele>356.94995</ele>
        <time>2022-03-12T11:51:49.000Z</time>
      </trkpt>
      <trkpt lat="46.89087" lon="4.58399">
        <ele>356.94995</ele>
        <time>2022-03-12T11:51:53.000Z</time>
      </trkpt>
      <trkpt lat="46.89086" lon="4.58401">
        <ele>356.94995</ele>
        <time>2022-03-12T11:52:16.000Z</time>
      </trkpt>
      <trkpt lat="46.89084" lon="4.58401">
        <ele>356.94995</ele>
        <time>2022-03-12T11:52:21.000Z</time>
      </trkpt>
      <trkpt lat="46.89083" lon="4.58398">
        <ele>356.89996</ele>
        <time>2022-03-12T11:52:31.000Z</time>
      </trkpt>
      <trkpt lat="46.89082" lon="4.58401">
        <ele>356.79996</ele>
        <time>2022-03-12T11:52:43.000Z</time>
      </trkpt>
      <trkpt lat="46.89082" lon="4.58404">
        <ele>356.64996</ele>
        <time>2022-03-12T11:52:47.000Z</time>
      </trkpt>
      <trkpt lat="46.89082" lon="4.58401">
        <ele>356.54996</ele>
        <time>2022-03-12T11:52:59.000Z</time>
      </trkpt>
      <trkpt lat="46.89084" lon="4.584">
        <ele>356.39996</ele>
        <time>2022-03-12T11:53:04.000Z</time>
      </trkpt>
      <trkpt lat="46.89086" lon="4.58402">
        <ele>356.24994</ele>
        <time>2022-03-12T11:53:14.000Z</time>
      </trkpt>
      <trkpt lat="46.89088" lon="4.584">
        <ele>355.99994</ele>
        <time>2022-03-12T11:53:30.000Z</time>
      </trkpt>
      <trkpt lat="46.8909" lon="4.58401">
        <ele>355.64996</ele>
        <time>2022-03-12T11:53:49.000Z</time>
      </trkpt>
      <trkpt lat="46.89092" lon="4.584">
        <ele>355.34995</ele>
        <time>2022-03-12T11:54:01.000Z</time>
      </trkpt>
      <trkpt lat="46.89093" lon="4.58398">
        <ele>355.04996</ele>
        <time>2022-03-12T11:54:05.000Z</time>
      </trkpt>
      <trkpt lat="46.89091" lon="4.584">
        <ele>354.69995</ele>
        <time>2022-03-12T11:54:33.000Z</time>
      </trkpt>
      <trkpt lat="46.89092" lon="4.58395">
        <ele>354.59995</ele>
        <time>2022-03-12T11:54:45.000Z</time>
      </trkpt>
      <trkpt lat="46.89094" lon="4.58393">
        <ele>354.69995</ele>
        <time>2022-03-12T11:54:48.000Z</time>
      </trkpt>
      <trkpt lat="46.89094" lon="4.5839">
        <ele>354.89996</ele>
        <time>2022-03-12T11:55:19.000Z</time>
      </trkpt>
      <trkpt lat="46.89092" lon="4.58391">
        <ele>355.04996</ele>
        <time>2022-03-12T11:55:30.000Z</time>
      </trkpt>
      <trkpt lat="46.89091" lon="4.58394">
        <ele>355.34995</ele>
        <time>2022-03-12T11:56:19.000Z</time>
      </trkpt>
      <trkpt lat="46.89088" lon="4.58394">
        <ele>355.69995</ele>
        <time>2022-03-12T11:56:31.000Z</time>
      </trkpt>
      <trkpt lat="46.89087" lon="4.58392">
        <ele>355.99994</ele>
        <time>2022-03-12T11:57:02.000Z</time>
      </trkpt>
      <trkpt lat="46.89089" lon="4.5839">
        <ele>356.14996</ele>
        <time>2022-03-12T11:57:40.000Z</time>
      </trkpt>
      <trkpt lat="46.8909" lon="4.58392">
        <ele>356.34995</ele>
        <time>2022-03-12T11:57:49.000Z</time>
      </trkpt>
      <trkpt lat="46.89091" lon="4.58395">
        <ele>356.49994</ele>
        <time>2022-03-12T11:58:01.000Z</time>
      </trkpt>
      <trkpt lat="46.89093" lon="4.58396">
        <ele>356.49994</ele>
        <time>2022-03-12T11:58:24.000Z</time>
      </trkpt>
      <trkpt lat="46.89091" lon="4.58397">
        <ele>356.39996</ele>
        <time>2022-03-12T11:58:43.000Z</time>
      </trkpt>
      <trkpt lat="46.89092" lon="4.58398">
        <ele>356.19995</ele>
        <time>2022-03-12T12:00:12.000Z</time>
      </trkpt>
      <trkpt lat="46.8909" lon="4.58398">
        <ele>356.04996</ele>
        <time>2022-03-12T12:00:35.000Z</time>
      </trkpt>
      <trkpt lat="46.89089" lon="4.58398">
        <ele>355.94995</ele>
        <time>2022-03-12T12:02:32.000Z</time>
      </trkpt>
      <trkpt lat="46.89089" lon="4.58401">
        <ele>356.19995</ele>
        <time>2022-03-12T12:03:01.000Z</time>
      </trkpt>
      <trkpt lat="46.89091" lon="4.58401">
        <ele>356.74994</ele>
        <time>2022-03-12T12:04:16.000Z</time>
      </trkpt>
      <trkpt lat="46.89089" lon="4.58401">
        <ele>357.19995</ele>
        <time>2022-03-12T12:04:21.000Z</time>
      </trkpt>
      <trkpt lat="46.89089" lon="4.58398">
        <ele>357.59995</ele>
        <time>2022-03-12T12:04:25.000Z</time>
      </trkpt>
      <trkpt lat="46.89087" lon="4.58401">
        <ele>358.04996</ele>
        <time>2022-03-12T12:04:58.000Z</time>
      </trkpt>
      <trkpt lat="46.89086" lon="4.58401">
        <ele>358.24994</ele>
        <time>2022-03-12T12:05:06.000Z</time>
      </trkpt>
      <trkpt lat="46.89087" lon="4.58399">
        <ele>358.39996</ele>
        <time>2022-03-12T12:05:33.000Z</time>
      </trkpt>
      <trkpt lat="46.89087" lon="4.58397">
        <ele>358.54996</ele>
        <time>2022-03-12T12:05:39.000Z</time>
      </trkpt>
      <trkpt lat="46.89086" lon="4.58394">
        <ele>358.74994</ele>
        <time>2022-03-12T12:05:50.000Z</time>
      </trkpt>
      <trkpt lat="46.89085" lon="4.58391">
        <ele>358.89996</ele>
        <time>2022-03-12T12:05:53.000Z</time>
      </trkpt>
      <trkpt lat="46.89084" lon="4.58389">
        <ele>359.04996</ele>
        <time>2022-03-12T12:05:56.000Z</time>
      </trkpt>
      <trkpt lat="46.89081" lon="4.58387">
        <ele>359.19995</ele>
        <time>2022-03-12T12:06:00.000Z</time>
      </trkpt>
      <trkpt lat="46.8908" lon="4.58385">
        <ele>359.49994</ele>
        <time>2022-03-12T12:06:05.000Z</time>
      </trkpt>
      <trkpt lat="46.89078" lon="4.58385">
        <ele>359.64996</ele>
        <time>2022-03-12T12:06:10.000Z</time>
      </trkpt>
      <trkpt lat="46.8908" lon="4.58387">
        <ele>359.94995</ele>
        <time>2022-03-12T12:08:02.000Z</time>
      </trkpt>
      <trkpt lat="46.89081" lon="4.58389">
        <ele>360.49994</ele>
        <time>2022-03-12T12:12:01.000Z</time>
      </trkpt>
      <trkpt lat="46.89083" lon="4.58387">
        <ele>361.19995</ele>
        <time>2022-03-12T12:12:09.000Z</time>
      </trkpt>
      <trkpt lat="46.89084" lon="4.5839">
        <ele>362.04996</ele>
        <time>2022-03-12T12:13:39.000Z</time>
      </trkpt>
      <trkpt lat="46.89085" lon="4.58392">
        <ele>362.89996</ele>
        <time>2022-03-12T12:13:42.000Z</time>
      </trkpt>
      <trkpt lat="46.89087" lon="4.58395">
        <ele>363.64996</ele>
        <time>2022-03-12T12:13:45.000Z</time>
      </trkpt>
      <trkpt lat="46.89088" lon="4.58396">
        <ele>364.09995</ele>
        <time>2022-03-12T12:13:48.000Z</time>
      </trkpt>
      <trkpt lat="46.89089" lon="4.58399">
        <ele>364.29996</ele>
        <time>2022-03-12T12:13:54.000Z</time>
      </trkpt>
      <trkpt lat="46.8909" lon="4.58402">
        <ele>364.49994</ele>
        <time>2022-03-12T12:20:41.000Z</time>
      </trkpt>
      <trkpt lat="46.89091" lon="4.58403">
        <ele>364.69995</ele>
        <time>2022-03-12T12:20:44.000Z</time>
      </trkpt>
      <trkpt lat="46.89094" lon="4.58401">
        <ele>364.74994</ele>
        <time>2022-03-12T12:23:11.000Z</time>
      </trkpt>
      <trkpt lat="46.89096" lon="4.58401">
        <ele>364.64996</ele>
        <time>2022-03-12T12:23:54.000Z</time>
      </trkpt>
      <trkpt lat="46.89093" lon="4.58401">
        <ele>364.59995</ele>
        <time>2022-03-12T12:24:02.000Z</time>
      </trkpt>
      <trkpt lat="46.89093" lon="4.58398">
        <ele>364.54996</ele>
        <time>2022-03-12T12:25:00.000Z</time>
      </trkpt>
      <trkpt lat="46.89091" lon="4.58397">
        <ele>364.59995</ele>
        <time>2022-03-12T12:25:05.000Z</time>
      </trkpt>
      <trkpt lat="46.89089" lon="4.58396">
        <ele>364.64996</ele>
        <time>2022-03-12T12:25:07.000Z</time>
      </trkpt>
      <trkpt lat="46.89087" lon="4.58396">
        <ele>364.64996</ele>
        <time>2022-03-12T12:25:10.000Z</time>
      </trkpt>
      <trkpt lat="46.89089" lon="4.58395">
        <ele>364.54996</ele>
        <time>2022-03-12T12:25:29.000Z</time>
      </trkpt>
      <trkpt lat="46.89091" lon="4.58394">
        <ele>364.44995</ele>
        <time>2022-03-12T12:25:31.000Z</time>
      </trkpt>
      <trkpt lat="46.89093" lon="4.58394">
        <ele>364.39996</ele>
        <time>2022-03-12T12:25:33.000Z</time>
      </trkpt>
      <trkpt lat="46.89094" lon="4.58391">
        <ele>364.24994</ele>
        <time>2022-03-12T12:25:49.000Z</time>
      </trkpt>
      <trkpt lat="46.89096" lon="4.58389">
        <ele>364.04996</ele>
        <time>2022-03-12T12:25:51.000Z</time>
      </trkpt>
      <trkpt lat="46.89098" lon="4.58387">
        <ele>363.79996</ele>
        <time>2022-03-12T12:25:54.000Z</time>
      </trkpt>
      <trkpt lat="46.891" lon="4.58387">
        <ele>363.49994</ele>
        <time>2022-03-12T12:25:59.000Z</time>
      </trkpt>
      <trkpt lat="46.89101" lon="4.58388">
        <ele>363.14996</ele>
        <time>2022-03-12T12:26:02.000Z</time>
      </trkpt>
      <trkpt lat="46.89103" lon="4.5839">
        <ele>362.79996</ele>
        <time>2022-03-12T12:26:04.000Z</time>
      </trkpt>
      <trkpt lat="46.89104" lon="4.58392">
        <ele>362.49994</ele>
        <time>2022-03-12T12:26:06.000Z</time>
      </trkpt>
      <trkpt lat="46.89107" lon="4.58394">
        <ele>362.24994</ele>
        <time>2022-03-12T12:26:15.000Z</time>
      </trkpt>
      <trkpt lat="46.89109" lon="4.58396">
        <ele>362.09995</ele>
        <time>2022-03-12T12:26:19.000Z</time>
      </trkpt>
      <trkpt lat="46.8911" lon="4.58399">
        <ele>362.04996</ele>
        <time>2022-03-12T12:26:24.000Z</time>
      </trkpt>
      <trkpt lat="46.89111" lon="4.58401">
        <ele>362.04996</ele>
        <time>2022-03-12T12:26:28.000Z</time>
      </trkpt>
      <trkpt lat="46.89114" lon="4.58404">
        <ele>362.34995</ele>
        <time>2022-03-12T12:26:36.000Z</time>
      </trkpt>
      <trkpt lat="46.89116" lon="4.58404">
        <ele>362.54996</ele>
        <time>2022-03-12T12:26:38.000Z</time>
      </trkpt>
      <trkpt lat="46.89119" lon="4.58406">
        <ele>362.69995</ele>
        <time>2022-03-12T12:26:42.000Z</time>
      </trkpt>
      <trkpt lat="46.89121" lon="4.58407">
        <ele>362.74994</ele>
        <time>2022-03-12T12:26:44.000Z</time>
      </trkpt>
      <trkpt lat="46.89123" lon="4.58408">
        <ele>362.84995</ele>
        <time>2022-03-12T12:26:47.000Z</time>
      </trkpt>
      <trkpt lat="46.89125" lon="4.58408">
        <ele>362.99994</ele>
        <time>2022-03-12T12:26:49.000Z</time>
      </trkpt>
      <trkpt lat="46.89128" lon="4.58408">
        <ele>363.29996</ele>
        <time>2022-03-12T12:26:54.000Z</time>
      </trkpt>
      <trkpt lat="46.89129" lon="4.5841">
        <ele>363.59995</ele>
        <time>2022-03-12T12:26:56.000Z</time>
      </trkpt>
      <trkpt lat="46.89131" lon="4.58412">
        <ele>363.99994</ele>
        <time>2022-03-12T12:27:00.000Z</time>
      </trkpt>
      <trkpt lat="46.89134" lon="4.58414">
        <ele>364.39996</ele>
        <time>2022-03-12T12:27:05.000Z</time>
      </trkpt>
      <trkpt lat="46.89136" lon="4.58414">
        <ele>364.74994</ele>
        <time>2022-03-12T12:27:11.000Z</time>
      </trkpt>
      <trkpt lat="46.89138" lon="4.58416">
        <ele>365.09995</ele>
        <time>2022-03-12T12:27:13.000Z</time>
      </trkpt>
      <trkpt lat="46.89141" lon="4.58416">
        <ele>365.44995</ele>
        <time>2022-03-12T12:27:15.000Z</time>
      </trkpt>
      <trkpt lat="46.89143" lon="4.58417">
        <ele>365.79996</ele>
        <time>2022-03-12T12:27:17.000Z</time>
      </trkpt>
      <trkpt lat="46.89145" lon="4.58419">
        <ele>366.19995</ele>
        <time>2022-03-12T12:27:19.000Z</time>
      </trkpt>
      <trkpt lat="46.89147" lon="4.58421">
        <ele>366.59995</ele>
        <time>2022-03-12T12:27:21.000Z</time>
      </trkpt>
      <trkpt lat="46.89149" lon="4.58421">
        <ele>366.99994</ele>
        <time>2022-03-12T12:27:23.000Z</time>
      </trkpt>
      <trkpt lat="46.89151" lon="4.58423">
        <ele>367.39996</ele>
        <time>2022-03-12T12:27:25.000Z</time>
      </trkpt>
      <trkpt lat="46.89156" lon="4.58423">
        <ele>367.89996</ele>
        <time>2022-03-12T12:27:32.000Z</time>
      </trkpt>
      <trkpt lat="46.89159" lon="4.58422">
        <ele>368.39996</ele>
        <time>2022-03-12T12:27:35.000Z</time>
      </trkpt>
      <trkpt lat="46.89161" lon="4.58423">
        <ele>368.84995</ele>
        <time>2022-03-12T12:27:37.000Z</time>
      </trkpt>
      <trkpt lat="46.89162" lon="4.58428">
        <ele>369.24994</ele>
        <time>2022-03-12T12:27:40.000Z</time>
      </trkpt>
      <trkpt lat="46.89165" lon="4.58429">
        <ele>369.69995</ele>
        <time>2022-03-12T12:27:45.000Z</time>
      </trkpt>
      <trkpt lat="46.89167" lon="4.58428">
        <ele>370.19995</ele>
        <time>2022-03-12T12:27:49.000Z</time>
      </trkpt>
      <trkpt lat="46.89171" lon="4.58426">
        <ele>370.74994</ele>
        <time>2022-03-12T12:27:52.000Z</time>
      </trkpt>
      <trkpt lat="46.89173" lon="4.58426">
        <ele>371.29996</ele>
        <time>2022-03-12T12:27:56.000Z</time>
      </trkpt>
      <trkpt lat="46.89175" lon="4.58427">
        <ele>371.84995</ele>
        <time>2022-03-12T12:27:58.000Z</time>
      </trkpt>
      <trkpt lat="46.89177" lon="4.58427">
        <ele>372.39996</ele>
        <time>2022-03-12T12:28:01.000Z</time>
      </trkpt>
      <trkpt lat="46.89181" lon="4.58427">
        <ele>372.99994</ele>
        <time>2022-03-12T12:28:06.000Z</time>
      </trkpt>
      <trkpt lat="46.89183" lon="4.58429">
        <ele>373.59995</ele>
        <time>2022-03-12T12:28:08.000Z</time>
      </trkpt>
      <trkpt lat="46.89186" lon="4.5843">
        <ele>374.24994</ele>
        <time>2022-03-12T12:28:11.000Z</time>
      </trkpt>
      <trkpt lat="46.89188" lon="4.5843">
        <ele>374.89996</ele>
        <time>2022-03-12T12:28:13.000Z</time>
      </trkpt>
      <trkpt lat="46.89191" lon="4.5843">
        <ele>375.54996</ele>
        <time>2022-03-12T12:28:19.000Z</time>
      </trkpt>
      <trkpt lat="46.89192" lon="4.58428">
        <ele>376.19995</ele>
        <time>2022-03-12T12:28:20.000Z</time>
      </trkpt>
      <trkpt lat="46.89193" lon="4.58426">
        <ele>376.94995</ele>
        <time>2022-03-12T12:28:22.000Z</time>
      </trkpt>
      <trkpt lat="46.89196" lon="4.58426">
        <ele>377.84995</ele>
        <time>2022-03-12T12:29:07.000Z</time>
      </trkpt>
      <trkpt lat="46.89197" lon="4.58423">
        <ele>378.79996</ele>
        <time>2022-03-12T12:29:13.000Z</time>
      </trkpt>
      <trkpt lat="46.89198" lon="4.5842">
        <ele>379.79996</ele>
        <time>2022-03-12T12:29:15.000Z</time>
      </trkpt>
      <trkpt lat="46.89198" lon="4.58417">
        <ele>380.64996</ele>
        <time>2022-03-12T12:29:17.000Z</time>
      </trkpt>
      <trkpt lat="46.89199" lon="4.58414">
        <ele>381.49994</ele>
        <time>2022-03-12T12:29:19.000Z</time>
      </trkpt>
      <trkpt lat="46.89201" lon="4.5841">
        <ele>382.29996</ele>
        <time>2022-03-12T12:29:21.000Z</time>
      </trkpt>
      <trkpt lat="46.89202" lon="4.58407">
        <ele>383.14996</ele>
        <time>2022-03-12T12:29:23.000Z</time>
      </trkpt>
      <trkpt lat="46.89204" lon="4.58404">
        <ele>383.94995</ele>
        <time>2022-03-12T12:29:25.000Z</time>
      </trkpt>
      <trkpt lat="46.89207" lon="4.58403">
        <ele>384.69995</ele>
        <time>2022-03-12T12:29:27.000Z</time>
      </trkpt>
      <trkpt lat="46.89209" lon="4.58402">
        <ele>385.44995</ele>
        <time>2022-03-12T12:29:30.000Z</time>
      </trkpt>
      <trkpt lat="46.89211" lon="4.584">
        <ele>386.14996</ele>
        <time>2022-03-12T12:29:33.000Z</time>
      </trkpt>
      <trkpt lat="46.89214" lon="4.58398">
        <ele>386.84995</ele>
        <time>2022-03-12T12:29:35.000Z</time>
      </trkpt>
      <trkpt lat="46.89215" lon="4.58395">
        <ele>387.54996</ele>
        <time>2022-03-12T12:29:37.000Z</time>
      </trkpt>
      <trkpt lat="46.89217" lon="4.58394">
        <ele>388.14996</ele>
        <time>2022-03-12T12:29:39.000Z</time>
      </trkpt>
      <trkpt lat="46.89219" lon="4.58392">
        <ele>388.74994</ele>
        <time>2022-03-12T12:29:41.000Z</time>
      </trkpt>
      <trkpt lat="46.89222" lon="4.5839">
        <ele>389.34995</ele>
        <time>2022-03-12T12:29:43.000Z</time>
      </trkpt>
      <trkpt lat="46.89224" lon="4.58389">
        <ele>389.94995</ele>
        <time>2022-03-12T12:29:45.000Z</time>
      </trkpt>
      <trkpt lat="46.89226" lon="4.58388">
        <ele>390.44995</ele>
        <time>2022-03-12T12:29:47.000Z</time>
      </trkpt>
      <trkpt lat="46.89228" lon="4.58387">
        <ele>390.99994</ele>
        <time>2022-03-12T12:29:49.000Z</time>
      </trkpt>
      <trkpt lat="46.8923" lon="4.58386">
        <ele>391.44995</ele>
        <time>2022-03-12T12:29:51.000Z</time>
      </trkpt>
      <trkpt lat="46.89232" lon="4.58385">
        <ele>391.74994</ele>
        <time>2022-03-12T12:29:53.000Z</time>
      </trkpt>
      <trkpt lat="46.89234" lon="4.58385">
        <ele>391.89996</ele>
        <time>2022-03-12T12:29:55.000Z</time>
      </trkpt>
      <trkpt lat="46.89237" lon="4.58384">
        <ele>392.04996</ele>
        <time>2022-03-12T12:29:57.000Z</time>
      </trkpt>
      <trkpt lat="46.89239" lon="4.58385">
        <ele>392.19995</ele>
        <time>2022-03-12T12:29:59.000Z</time>
      </trkpt>
      <trkpt lat="46.89242" lon="4.58385">
        <ele>392.39996</ele>
        <time>2022-03-12T12:30:01.000Z</time>
      </trkpt>
      <trkpt lat="46.89244" lon="4.58387">
        <ele>392.59995</ele>
        <time>2022-03-12T12:30:03.000Z</time>
      </trkpt>
      <trkpt lat="46.89246" lon="4.58388">
        <ele>392.79996</ele>
        <time>2022-03-12T12:30:05.000Z</time>
      </trkpt>
      <trkpt lat="46.89248" lon="4.5839">
        <ele>392.99994</ele>
        <time>2022-03-12T12:30:07.000Z</time>
      </trkpt>
      <trkpt lat="46.89251" lon="4.58391">
        <ele>393.14996</ele>
        <time>2022-03-12T12:30:09.000Z</time>
      </trkpt>
      <trkpt lat="46.89253" lon="4.58391">
        <ele>393.24994</ele>
        <time>2022-03-12T12:30:11.000Z</time>
      </trkpt>
      <trkpt lat="46.89255" lon="4.58393">
        <ele>393.39996</ele>
        <time>2022-03-12T12:30:13.000Z</time>
      </trkpt>
      <trkpt lat="46.89257" lon="4.58394">
        <ele>393.49994</ele>
        <time>2022-03-12T12:30:15.000Z</time>
      </trkpt>
      <trkpt lat="46.8926" lon="4.58395">
        <ele>393.54996</ele>
        <time>2022-03-12T12:30:18.000Z</time>
      </trkpt>
      <trkpt lat="46.89264" lon="4.58398">
        <ele>393.64996</ele>
        <time>2022-03-12T12:30:23.000Z</time>
      </trkpt>
      <trkpt lat="46.89266" lon="4.584">
        <ele>393.74994</ele>
        <time>2022-03-12T12:30:25.000Z</time>
      </trkpt>
      <trkpt lat="46.89268" lon="4.58401">
        <ele>393.79996</ele>
        <time>2022-03-12T12:30:27.000Z</time>
      </trkpt>
      <trkpt lat="46.89271" lon="4.58403">
        <ele>393.89996</ele>
        <time>2022-03-12T12:30:29.000Z</time>
      </trkpt>
      <trkpt lat="46.89273" lon="4.58404">
        <ele>394.09995</ele>
        <time>2022-03-12T12:30:31.000Z</time>
      </trkpt>
      <trkpt lat="46.89276" lon="4.58407">
        <ele>394.24994</ele>
        <time>2022-03-12T12:30:33.000Z</time>
      </trkpt>
      <trkpt lat="46.89278" lon="4.58411">
        <ele>394.34995</ele>
        <time>2022-03-12T12:30:35.000Z</time>
      </trkpt>
      <trkpt lat="46.89279" lon="4.58413">
        <ele>394.44995</ele>
        <time>2022-03-12T12:30:36.000Z</time>
      </trkpt>
      <trkpt lat="46.89281" lon="4.58415">
        <ele>394.64996</ele>
        <time>2022-03-12T12:30:38.000Z</time>
      </trkpt>
      <trkpt lat="46.89283" lon="4.58417">
        <ele>394.74994</ele>
        <time>2022-03-12T12:30:40.000Z</time>
      </trkpt>
      <trkpt lat="46.89285" lon="4.58419">
        <ele>394.84995</ele>
        <time>2022-03-12T12:30:42.000Z</time>
      </trkpt>
      <trkpt lat="46.89287" lon="4.58422">
        <ele>394.84995</ele>
        <time>2022-03-12T12:30:44.000Z</time>
      </trkpt>
      <trkpt lat="46.89289" lon="4.58424">
        <ele>394.84995</ele>
        <time>2022-03-12T12:30:46.000Z</time>
      </trkpt>
      <trkpt lat="46.8929" lon="4.58427">
        <ele>394.84995</ele>
        <time>2022-03-12T12:30:48.000Z</time>
      </trkpt>
      <trkpt lat="46.89292" lon="4.58429">
        <ele>394.84995</ele>
        <time>2022-03-12T12:30:50.000Z</time>
      </trkpt>
      <trkpt lat="46.89294" lon="4.58431">
        <ele>394.94995</ele>
        <time>2022-03-12T12:30:52.000Z</time>
      </trkpt>
      <trkpt lat="46.89296" lon="4.58434">
        <ele>395.04996</ele>
        <time>2022-03-12T12:30:55.000Z</time>
      </trkpt>
      <trkpt lat="46.89297" lon="4.58436">
        <ele>395.09995</ele>
        <time>2022-03-12T12:30:58.000Z</time>
      </trkpt>
      <trkpt lat="46.89296" lon="4.5844">
        <ele>395.14996</ele>
        <time>2022-03-12T12:31:00.000Z</time>
      </trkpt>
      <trkpt lat="46.89295" lon="4.58445">
        <ele>395.29996</ele>
        <time>2022-03-12T12:31:04.000Z</time>
      </trkpt>
      <trkpt lat="46.89295" lon="4.58449">
        <ele>395.39996</ele>
        <time>2022-03-12T12:31:06.000Z</time>
      </trkpt>
      <trkpt lat="46.89293" lon="4.58451">
        <ele>395.44995</ele>
        <time>2022-03-12T12:31:08.000Z</time>
      </trkpt>
      <trkpt lat="46.89291" lon="4.58453">
        <ele>395.54996</ele>
        <time>2022-03-12T12:31:11.000Z</time>
      </trkpt>
      <trkpt lat="46.8929" lon="4.58455">
        <ele>395.64996</ele>
        <time>2022-03-12T12:31:13.000Z</time>
      </trkpt>
      <trkpt lat="46.89289" lon="4.58458">
        <ele>395.69995</ele>
        <time>2022-03-12T12:31:15.000Z</time>
      </trkpt>
      <trkpt lat="46.89289" lon="4.58462">
        <ele>395.74994</ele>
        <time>2022-03-12T12:31:18.000Z</time>
      </trkpt>
      <trkpt lat="46.89288" lon="4.58464">
        <ele>395.79996</ele>
        <time>2022-03-12T12:31:20.000Z</time>
      </trkpt>
      <trkpt lat="46.89286" lon="4.58467">
        <ele>395.84995</ele>
        <time>2022-03-12T12:31:22.000Z</time>
      </trkpt>
      <trkpt lat="46.89286" lon="4.58471">
        <ele>395.79996</ele>
        <time>2022-03-12T12:31:24.000Z</time>
      </trkpt>
      <trkpt lat="46.89285" lon="4.58475">
        <ele>395.79996</ele>
        <time>2022-03-12T12:31:26.000Z</time>
      </trkpt>
      <trkpt lat="46.89284" lon="4.58478">
        <ele>395.84995</ele>
        <time>2022-03-12T12:31:28.000Z</time>
      </trkpt>
      <trkpt lat="46.89284" lon="4.58481">
        <ele>395.99994</ele>
        <time>2022-03-12T12:31:31.000Z</time>
      </trkpt>
      <trkpt lat="46.89283" lon="4.58484">
        <ele>396.19995</ele>
        <time>2022-03-12T12:31:33.000Z</time>
      </trkpt>
      <trkpt lat="46.89281" lon="4.58487">
        <ele>396.34995</ele>
        <time>2022-03-12T12:31:36.000Z</time>
      </trkpt>
      <trkpt lat="46.8928" lon="4.5849">
        <ele>396.54996</ele>
        <time>2022-03-12T12:31:38.000Z</time>
      </trkpt>
      <trkpt lat="46.89278" lon="4.58493">
        <ele>396.74994</ele>
        <time>2022-03-12T12:31:41.000Z</time>
      </trkpt>
      <trkpt lat="46.89277" lon="4.58496">
        <ele>396.89996</ele>
        <time>2022-03-12T12:31:43.000Z</time>
      </trkpt>
      <trkpt lat="46.89276" lon="4.58499">
        <ele>397.09995</ele>
        <time>2022-03-12T12:31:45.000Z</time>
      </trkpt>
      <trkpt lat="46.89275" lon="4.58502">
        <ele>397.29996</ele>
        <time>2022-03-12T12:31:47.000Z</time>
      </trkpt>
      <trkpt lat="46.89275" lon="4.58506">
        <ele>397.39996</ele>
        <time>2022-03-12T12:31:50.000Z</time>
      </trkpt>
      <trkpt lat="46.89274" lon="4.58511">
        <ele>397.54996</ele>
        <time>2022-03-12T12:31:53.000Z</time>
      </trkpt>
      <trkpt lat="46.89274" lon="4.58513">
        <ele>397.74994</ele>
        <time>2022-03-12T12:31:55.000Z</time>
      </trkpt>
      <trkpt lat="46.89272" lon="4.58516">
        <ele>397.89996</ele>
        <time>2022-03-12T12:31:57.000Z</time>
      </trkpt>
      <trkpt lat="46.89271" lon="4.5852">
        <ele>397.99994</ele>
        <time>2022-03-12T12:31:59.000Z</time>
      </trkpt>
      <trkpt lat="46.8927" lon="4.58523">
        <ele>398.04996</ele>
        <time>2022-03-12T12:32:01.000Z</time>
      </trkpt>
      <trkpt lat="46.89269" lon="4.58527">
        <ele>398.09995</ele>
        <time>2022-03-12T12:32:03.000Z</time>
      </trkpt>
      <trkpt lat="46.89268" lon="4.5853">
        <ele>398.09995</ele>
        <time>2022-03-12T12:32:05.000Z</time>
      </trkpt>
      <trkpt lat="46.89267" lon="4.58534">
        <ele>398.09995</ele>
        <time>2022-03-12T12:32:07.000Z</time>
      </trkpt>
      <trkpt lat="46.89266" lon="4.58537">
        <ele>398.19995</ele>
        <time>2022-03-12T12:32:09.000Z</time>
      </trkpt>
      <trkpt lat="46.89264" lon="4.58542">
        <ele>398.29996</ele>
        <time>2022-03-12T12:32:13.000Z</time>
      </trkpt>
      <trkpt lat="46.89263" lon="4.58544">
        <ele>398.34995</ele>
        <time>2022-03-12T12:32:15.000Z</time>
      </trkpt>
      <trkpt lat="46.89262" lon="4.58547">
        <ele>398.34995</ele>
        <time>2022-03-12T12:32:17.000Z</time>
      </trkpt>
      <trkpt lat="46.89261" lon="4.5855">
        <ele>398.29996</ele>
        <time>2022-03-12T12:32:19.000Z</time>
      </trkpt>
      <trkpt lat="46.8926" lon="4.58552">
        <ele>398.29996</ele>
        <time>2022-03-12T12:32:21.000Z</time>
      </trkpt>
      <trkpt lat="46.89259" lon="4.58554">
        <ele>398.24994</ele>
        <time>2022-03-12T12:32:23.000Z</time>
      </trkpt>
      <trkpt lat="46.89258" lon="4.58557">
        <ele>398.14996</ele>
        <time>2022-03-12T12:32:26.000Z</time>
      </trkpt>
      <trkpt lat="46.89258" lon="4.5856">
        <ele>398.04996</ele>
        <time>2022-03-12T12:32:28.000Z</time>
      </trkpt>
      <trkpt lat="46.89258" lon="4.58563">
        <ele>397.94995</ele>
        <time>2022-03-12T12:32:30.000Z</time>
      </trkpt>
      <trkpt lat="46.89256" lon="4.58567">
        <ele>397.84995</ele>
        <time>2022-03-12T12:32:32.000Z</time>
      </trkpt>
      <trkpt lat="46.89255" lon="4.5857">
        <ele>397.79996</ele>
        <time>2022-03-12T12:32:34.000Z</time>
      </trkpt>
      <trkpt lat="46.89254" lon="4.58573">
        <ele>397.69995</ele>
        <time>2022-03-12T12:32:36.000Z</time>
      </trkpt>
      <trkpt lat="46.89253" lon="4.58576">
        <ele>397.59995</ele>
        <time>2022-03-12T12:32:38.000Z</time>
      </trkpt>
      <trkpt lat="46.89251" lon="4.58579">
        <ele>397.49994</ele>
        <time>2022-03-12T12:32:40.000Z</time>
      </trkpt>
      <trkpt lat="46.8925" lon="4.58581">
        <ele>397.39996</ele>
        <time>2022-03-12T12:32:42.000Z</time>
      </trkpt>
      <trkpt lat="46.8925" lon="4.58584">
        <ele>397.29996</ele>
        <time>2022-03-12T12:32:44.000Z</time>
      </trkpt>
      <trkpt lat="46.89249" lon="4.58588">
        <ele>397.19995</ele>
        <time>2022-03-12T12:32:46.000Z</time>
      </trkpt>
      <trkpt lat="46.89248" lon="4.58591">
        <ele>397.14996</ele>
        <time>2022-03-12T12:32:48.000Z</time>
      </trkpt>
      <trkpt lat="46.89246" lon="4.58594">
        <ele>397.04996</ele>
        <time>2022-03-12T12:32:50.000Z</time>
      </trkpt>
      <trkpt lat="46.89244" lon="4.58596">
        <ele>396.89996</ele>
        <time>2022-03-12T12:32:52.000Z</time>
      </trkpt>
      <trkpt lat="46.89242" lon="4.58598">
        <ele>396.74994</ele>
        <time>2022-03-12T12:32:55.000Z</time>
      </trkpt>
      <trkpt lat="46.8924" lon="4.58601">
        <ele>396.59995</ele>
        <time>2022-03-12T12:32:57.000Z</time>
      </trkpt>
      <trkpt lat="46.89239" lon="4.58603">
        <ele>396.44995</ele>
        <time>2022-03-12T12:32:59.000Z</time>
      </trkpt>
      <trkpt lat="46.89237" lon="4.58606">
        <ele>396.24994</ele>
        <time>2022-03-12T12:33:01.000Z</time>
      </trkpt>
      <trkpt lat="46.89236" lon="4.58608">
        <ele>396.09995</ele>
        <time>2022-03-12T12:33:03.000Z</time>
      </trkpt>
      <trkpt lat="46.89235" lon="4.5861">
        <ele>395.94995</ele>
        <time>2022-03-12T12:33:05.000Z</time>
      </trkpt>
      <trkpt lat="46.89235" lon="4.58613">
        <ele>395.79996</ele>
        <time>2022-03-12T12:33:07.000Z</time>
      </trkpt>
      <trkpt lat="46.89234" lon="4.58618">
        <ele>395.69995</ele>
        <time>2022-03-12T12:33:09.000Z</time>
      </trkpt>
      <trkpt lat="46.89234" lon="4.58622">
        <ele>395.64996</ele>
        <time>2022-03-12T12:33:11.000Z</time>
      </trkpt>
      <trkpt lat="46.89234" lon="4.58626">
        <ele>395.54996</ele>
        <time>2022-03-12T12:33:13.000Z</time>
      </trkpt>
      <trkpt lat="46.89233" lon="4.58632">
        <ele>395.44995</ele>
        <time>2022-03-12T12:33:16.000Z</time>
      </trkpt>
      <trkpt lat="46.89232" lon="4.58635">
        <ele>395.39996</ele>
        <time>2022-03-12T12:33:18.000Z</time>
      </trkpt>
      <trkpt lat="46.89232" lon="4.58638">
        <ele>395.34995</ele>
        <time>2022-03-12T12:33:20.000Z</time>
      </trkpt>
      <trkpt lat="46.89231" lon="4.58641">
        <ele>395.29996</ele>
        <time>2022-03-12T12:33:22.000Z</time>
      </trkpt>
      <trkpt lat="46.8923" lon="4.58645">
        <ele>395.24994</ele>
        <time>2022-03-12T12:33:24.000Z</time>
      </trkpt>
      <trkpt lat="46.89229" lon="4.58648">
        <ele>395.24994</ele>
        <time>2022-03-12T12:33:26.000Z</time>
      </trkpt>
      <trkpt lat="46.89227" lon="4.58651">
        <ele>395.24994</ele>
        <time>2022-03-12T12:33:28.000Z</time>
      </trkpt>
      <trkpt lat="46.89226" lon="4.58654">
        <ele>395.24994</ele>
        <time>2022-03-12T12:33:30.000Z</time>
      </trkpt>
      <trkpt lat="46.89223" lon="4.58658">
        <ele>395.29996</ele>
        <time>2022-03-12T12:33:33.000Z</time>
      </trkpt>
      <trkpt lat="46.89222" lon="4.58661">
        <ele>395.34995</ele>
        <time>2022-03-12T12:33:35.000Z</time>
      </trkpt>
      <trkpt lat="46.89221" lon="4.58664">
        <ele>395.39996</ele>
        <time>2022-03-12T12:33:37.000Z</time>
      </trkpt>
      <trkpt lat="46.89219" lon="4.58666">
        <ele>395.44995</ele>
        <time>2022-03-12T12:33:39.000Z</time>
      </trkpt>
      <trkpt lat="46.89219" lon="4.58669">
        <ele>395.49994</ele>
        <time>2022-03-12T12:33:41.000Z</time>
      </trkpt>
      <trkpt lat="46.89217" lon="4.58673">
        <ele>395.59995</ele>
        <time>2022-03-12T12:33:44.000Z</time>
      </trkpt>
      <trkpt lat="46.89216" lon="4.58676">
        <ele>395.59995</ele>
        <time>2022-03-12T12:33:46.000Z</time>
      </trkpt>
      <trkpt lat="46.89214" lon="4.58678">
        <ele>395.59995</ele>
        <time>2022-03-12T12:33:48.000Z</time>
      </trkpt>
      <trkpt lat="46.89212" lon="4.58681">
        <ele>395.64996</ele>
        <time>2022-03-12T12:33:50.000Z</time>
      </trkpt>
      <trkpt lat="46.89211" lon="4.58684">
        <ele>395.69995</ele>
        <time>2022-03-12T12:33:52.000Z</time>
      </trkpt>
      <trkpt lat="46.8921" lon="4.58687">
        <ele>395.69995</ele>
        <time>2022-03-12T12:33:54.000Z</time>
      </trkpt>
      <trkpt lat="46.89209" lon="4.5869">
        <ele>395.74994</ele>
        <time>2022-03-12T12:33:56.000Z</time>
      </trkpt>
      <trkpt lat="46.89208" lon="4.58693">
        <ele>395.79996</ele>
        <time>2022-03-12T12:33:58.000Z</time>
      </trkpt>
      <trkpt lat="46.89207" lon="4.58696">
        <ele>395.79996</ele>
        <time>2022-03-12T12:34:00.000Z</time>
      </trkpt>
      <trkpt lat="46.89206" lon="4.58699">
        <ele>395.84995</ele>
        <time>2022-03-12T12:34:02.000Z</time>
      </trkpt>
      <trkpt lat="46.89205" lon="4.58702">
        <ele>395.89996</ele>
        <time>2022-03-12T12:34:04.000Z</time>
      </trkpt>
      <trkpt lat="46.89204" lon="4.58705">
        <ele>395.94995</ele>
        <time>2022-03-12T12:34:06.000Z</time>
      </trkpt>
      <trkpt lat="46.89203" lon="4.58709">
        <ele>395.99994</ele>
        <time>2022-03-12T12:34:08.000Z</time>
      </trkpt>
      <trkpt lat="46.89202" lon="4.58711">
        <ele>396.04996</ele>
        <time>2022-03-12T12:34:10.000Z</time>
      </trkpt>
      <trkpt lat="46.89199" lon="4.58715">
        <ele>396.09995</ele>
        <time>2022-03-12T12:34:13.000Z</time>
      </trkpt>
      <trkpt lat="46.89197" lon="4.58719">
        <ele>396.14996</ele>
        <time>2022-03-12T12:34:15.000Z</time>
      </trkpt>
      <trkpt lat="46.89196" lon="4.58722">
        <ele>396.19995</ele>
        <time>2022-03-12T12:34:17.000Z</time>
      </trkpt>
      <trkpt lat="46.89195" lon="4.58725">
        <ele>396.24994</ele>
        <time>2022-03-12T12:34:19.000Z</time>
      </trkpt>
      <trkpt lat="46.89193" lon="4.58729">
        <ele>396.29996</ele>
        <time>2022-03-12T12:34:21.000Z</time>
      </trkpt>
      <trkpt lat="46.89193" lon="4.58731">
        <ele>396.34995</ele>
        <time>2022-03-12T12:34:23.000Z</time>
      </trkpt>
      <trkpt lat="46.89193" lon="4.58735">
        <ele>396.39996</ele>
        <time>2022-03-12T12:34:25.000Z</time>
      </trkpt>
      <trkpt lat="46.89192" lon="4.58739">
        <ele>396.49994</ele>
        <time>2022-03-12T12:34:27.000Z</time>
      </trkpt>
      <trkpt lat="46.89192" lon="4.58742">
        <ele>396.59995</ele>
        <time>2022-03-12T12:34:29.000Z</time>
      </trkpt>
      <trkpt lat="46.89191" lon="4.58745">
        <ele>396.59995</ele>
        <time>2022-03-12T12:34:31.000Z</time>
      </trkpt>
      <trkpt lat="46.89191" lon="4.58749">
        <ele>396.59995</ele>
        <time>2022-03-12T12:34:33.000Z</time>
      </trkpt>
      <trkpt lat="46.8919" lon="4.58752">
        <ele>396.59995</ele>
        <time>2022-03-12T12:34:35.000Z</time>
      </trkpt>
      <trkpt lat="46.89189" lon="4.58755">
        <ele>396.64996</ele>
        <time>2022-03-12T12:34:37.000Z</time>
      </trkpt>
      <trkpt lat="46.89189" lon="4.58759">
        <ele>396.64996</ele>
        <time>2022-03-12T12:34:39.000Z</time>
      </trkpt>
      <trkpt lat="46.89188" lon="4.58762">
        <ele>396.59995</ele>
        <time>2022-03-12T12:34:41.000Z</time>
      </trkpt>
      <trkpt lat="46.89188" lon="4.58765">
        <ele>396.49994</ele>
        <time>2022-03-12T12:34:43.000Z</time>
      </trkpt>
      <trkpt lat="46.89188" lon="4.58768">
        <ele>396.39996</ele>
        <time>2022-03-12T12:34:45.000Z</time>
      </trkpt>
      <trkpt lat="46.89187" lon="4.5877">
        <ele>396.24994</ele>
        <time>2022-03-12T12:34:47.000Z</time>
      </trkpt>
      <trkpt lat="46.89187" lon="4.58773">
        <ele>396.09995</ele>
        <time>2022-03-12T12:34:49.000Z</time>
      </trkpt>
      <trkpt lat="46.89187" lon="4.58777">
        <ele>395.94995</ele>
        <time>2022-03-12T12:34:51.000Z</time>
      </trkpt>
      <trkpt lat="46.89186" lon="4.5878">
        <ele>395.74994</ele>
        <time>2022-03-12T12:34:53.000Z</time>
      </trkpt>
      <trkpt lat="46.89186" lon="4.58783">
        <ele>395.54996</ele>
        <time>2022-03-12T12:34:55.000Z</time>
      </trkpt>
      <trkpt lat="46.89185" lon="4.58787">
        <ele>395.34995</ele>
        <time>2022-03-12T12:34:57.000Z</time>
      </trkpt>
      <trkpt lat="46.89184" lon="4.58791">
        <ele>395.14996</ele>
        <time>2022-03-12T12:34:59.000Z</time>
      </trkpt>
      <trkpt lat="46.89184" lon="4.58794">
        <ele>394.94995</ele>
        <time>2022-03-12T12:35:01.000Z</time>
      </trkpt>
      <trkpt lat="46.89184" lon="4.58798">
        <ele>394.69995</ele>
        <time>2022-03-12T12:35:04.000Z</time>
      </trkpt>
      <trkpt lat="46.89183" lon="4.58802">
        <ele>394.44995</ele>
        <time>2022-03-12T12:35:06.000Z</time>
      </trkpt>
      <trkpt lat="46.89183" lon="4.58806">
        <ele>394.19995</ele>
        <time>2022-03-12T12:35:08.000Z</time>
      </trkpt>
      <trkpt lat="46.89183" lon="4.5881">
        <ele>393.89996</ele>
        <time>2022-03-12T12:35:10.000Z</time>
      </trkpt>
      <trkpt lat="46.89182" lon="4.58815">
        <ele>393.64996</ele>
        <time>2022-03-12T12:35:13.000Z</time>
      </trkpt>
      <trkpt lat="46.89181" lon="4.58818">
        <ele>393.39996</ele>
        <time>2022-03-12T12:35:15.000Z</time>
      </trkpt>
      <trkpt lat="46.8918" lon="4.58821">
        <ele>393.09995</ele>
        <time>2022-03-12T12:35:17.000Z</time>
      </trkpt>
      <trkpt lat="46.89179" lon="4.58826">
        <ele>392.74994</ele>
        <time>2022-03-12T12:35:20.000Z</time>
      </trkpt>
      <trkpt lat="46.89179" lon="4.5883">
        <ele>392.44995</ele>
        <time>2022-03-12T12:35:23.000Z</time>
      </trkpt>
      <trkpt lat="46.89178" lon="4.58834">
        <ele>392.14996</ele>
        <time>2022-03-12T12:35:26.000Z</time>
      </trkpt>
      <trkpt lat="46.89177" lon="4.58837">
        <ele>391.84995</ele>
        <time>2022-03-12T12:35:28.000Z</time>
      </trkpt>
      <trkpt lat="46.89177" lon="4.58841">
        <ele>391.54996</ele>
        <time>2022-03-12T12:35:30.000Z</time>
      </trkpt>
      <trkpt lat="46.89176" lon="4.58844">
        <ele>391.24994</ele>
        <time>2022-03-12T12:35:32.000Z</time>
      </trkpt>
      <trkpt lat="46.89177" lon="4.58847">
        <ele>390.89996</ele>
        <time>2022-03-12T12:35:34.000Z</time>
      </trkpt>
      <trkpt lat="46.89177" lon="4.5885">
        <ele>390.54996</ele>
        <time>2022-03-12T12:35:36.000Z</time>
      </trkpt>
      <trkpt lat="46.89177" lon="4.58853">
        <ele>390.19995</ele>
        <time>2022-03-12T12:35:38.000Z</time>
      </trkpt>
      <trkpt lat="46.89176" lon="4.58858">
        <ele>389.84995</ele>
        <time>2022-03-12T12:35:41.000Z</time>
      </trkpt>
      <trkpt lat="46.89175" lon="4.58861">
        <ele>389.49994</ele>
        <time>2022-03-12T12:35:43.000Z</time>
      </trkpt>
      <trkpt lat="46.89175" lon="4.58863">
        <ele>389.14996</ele>
        <time>2022-03-12T12:35:45.000Z</time>
      </trkpt>
      <trkpt lat="46.89174" lon="4.58866">
        <ele>388.79996</ele>
        <time>2022-03-12T12:35:47.000Z</time>
      </trkpt>
      <trkpt lat="46.89174" lon="4.58869">
        <ele>388.49994</ele>
        <time>2022-03-12T12:35:49.000Z</time>
      </trkpt>
      <trkpt lat="46.89174" lon="4.58872">
        <ele>388.19995</ele>
        <time>2022-03-12T12:35:51.000Z</time>
      </trkpt>
      <trkpt lat="46.89173" lon="4.58875">
        <ele>387.89996</ele>
        <time>2022-03-12T12:35:53.000Z</time>
      </trkpt>
      <trkpt lat="46.89173" lon="4.58878">
        <ele>387.59995</ele>
        <time>2022-03-12T12:35:55.000Z</time>
      </trkpt>
      <trkpt lat="46.89172" lon="4.58881">
        <ele>387.29996</ele>
        <time>2022-03-12T12:35:57.000Z</time>
      </trkpt>
      <trkpt lat="46.89171" lon="4.58884">
        <ele>386.94995</ele>
        <time>2022-03-12T12:35:59.000Z</time>
      </trkpt>
      <trkpt lat="46.8917" lon="4.58887">
        <ele>386.64996</ele>
        <time>2022-03-12T12:36:01.000Z</time>
      </trkpt>
      <trkpt lat="46.89169" lon="4.58889">
        <ele>386.34995</ele>
        <time>2022-03-12T12:36:03.000Z</time>
      </trkpt>
      <trkpt lat="46.89169" lon="4.58893">
        <ele>385.99994</ele>
        <time>2022-03-12T12:36:05.000Z</time>
      </trkpt>
      <trkpt lat="46.89168" lon="4.58896">
        <ele>385.69995</ele>
        <time>2022-03-12T12:36:07.000Z</time>
      </trkpt>
      <trkpt lat="46.89168" lon="4.58899">
        <ele>385.39996</ele>
        <time>2022-03-12T12:36:09.000Z</time>
      </trkpt>
      <trkpt lat="46.89167" lon="4.58902">
        <ele>385.09995</ele>
        <time>2022-03-12T12:36:11.000Z</time>
      </trkpt>
      <trkpt lat="46.89167" lon="4.58907">
        <ele>384.84995</ele>
        <time>2022-03-12T12:36:14.000Z</time>
      </trkpt>
      <trkpt lat="46.89166" lon="4.58911">
        <ele>384.59995</ele>
        <time>2022-03-12T12:36:17.000Z</time>
      </trkpt>
      <trkpt lat="46.89165" lon="4.58914">
        <ele>384.34995</ele>
        <time>2022-03-12T12:36:19.000Z</time>
      </trkpt>
      <trkpt lat="46.89165" lon="4.58918">
        <ele>384.09995</ele>
        <time>2022-03-12T12:36:21.000Z</time>
      </trkpt>
      <trkpt lat="46.89164" lon="4.58921">
        <ele>383.84995</ele>
        <time>2022-03-12T12:36:23.000Z</time>
      </trkpt>
      <trkpt lat="46.89164" lon="4.58926">
        <ele>383.54996</ele>
        <time>2022-03-12T12:36:26.000Z</time>
      </trkpt>
      <trkpt lat="46.89163" lon="4.58929">
        <ele>383.24994</ele>
        <time>2022-03-12T12:36:28.000Z</time>
      </trkpt>
      <trkpt lat="46.89162" lon="4.58932">
        <ele>382.99994</ele>
        <time>2022-03-12T12:36:30.000Z</time>
      </trkpt>
      <trkpt lat="46.89162" lon="4.58936">
        <ele>382.74994</ele>
        <time>2022-03-12T12:36:32.000Z</time>
      </trkpt>
      <trkpt lat="46.89162" lon="4.58939">
        <ele>382.44995</ele>
        <time>2022-03-12T12:36:34.000Z</time>
      </trkpt>
      <trkpt lat="46.89162" lon="4.58943">
        <ele>382.14996</ele>
        <time>2022-03-12T12:36:36.000Z</time>
      </trkpt>
      <trkpt lat="46.89161" lon="4.58947">
        <ele>381.89996</ele>
        <time>2022-03-12T12:36:38.000Z</time>
      </trkpt>
      <trkpt lat="46.89161" lon="4.5895">
        <ele>381.64996</ele>
        <time>2022-03-12T12:36:40.000Z</time>
      </trkpt>
      <trkpt lat="46.89161" lon="4.58954">
        <ele>381.39996</ele>
        <time>2022-03-12T12:36:42.000Z</time>
      </trkpt>
      <trkpt lat="46.89161" lon="4.58957">
        <ele>381.14996</ele>
        <time>2022-03-12T12:36:44.000Z</time>
      </trkpt>
      <trkpt lat="46.89161" lon="4.58961">
        <ele>380.89996</ele>
        <time>2022-03-12T12:36:46.000Z</time>
      </trkpt>
      <trkpt lat="46.89161" lon="4.58964">
        <ele>380.64996</ele>
        <time>2022-03-12T12:36:48.000Z</time>
      </trkpt>
      <trkpt lat="46.89161" lon="4.58967">
        <ele>380.39996</ele>
        <time>2022-03-12T12:36:50.000Z</time>
      </trkpt>
      <trkpt lat="46.89161" lon="4.5897">
        <ele>380.14996</ele>
        <time>2022-03-12T12:36:52.000Z</time>
      </trkpt>
      <trkpt lat="46.89161" lon="4.58976">
        <ele>379.89996</ele>
        <time>2022-03-12T12:36:55.000Z</time>
      </trkpt>
      <trkpt lat="46.89161" lon="4.5898">
        <ele>379.64996</ele>
        <time>2022-03-12T12:36:57.000Z</time>
      </trkpt>
      <trkpt lat="46.89161" lon="4.58983">
        <ele>379.39996</ele>
        <time>2022-03-12T12:36:59.000Z</time>
      </trkpt>
      <trkpt lat="46.8916" lon="4.58986">
        <ele>379.19995</ele>
        <time>2022-03-12T12:37:01.000Z</time>
      </trkpt>
      <trkpt lat="46.8916" lon="4.58992">
        <ele>378.99994</ele>
        <time>2022-03-12T12:37:04.000Z</time>
      </trkpt>
      <trkpt lat="46.8916" lon="4.58996">
        <ele>378.74994</ele>
        <time>2022-03-12T12:37:06.000Z</time>
      </trkpt>
      <trkpt lat="46.8916" lon="4.59">
        <ele>378.49994</ele>
        <time>2022-03-12T12:37:08.000Z</time>
      </trkpt>
      <trkpt lat="46.8916" lon="4.59002">
        <ele>378.24994</ele>
        <time>2022-03-12T12:37:10.000Z</time>
      </trkpt>
      <trkpt lat="46.89159" lon="4.59005">
        <ele>377.94995</ele>
        <time>2022-03-12T12:37:12.000Z</time>
      </trkpt>
      <trkpt lat="46.89159" lon="4.59009">
        <ele>377.64996</ele>
        <time>2022-03-12T12:37:14.000Z</time>
      </trkpt>
      <trkpt lat="46.89159" lon="4.59012">
        <ele>377.34995</ele>
        <time>2022-03-12T12:37:16.000Z</time>
      </trkpt>
      <trkpt lat="46.89158" lon="4.59016">
        <ele>377.04996</ele>
        <time>2022-03-12T12:37:18.000Z</time>
      </trkpt>
      <trkpt lat="46.89157" lon="4.5902">
        <ele>376.74994</ele>
        <time>2022-03-12T12:37:20.000Z</time>
      </trkpt>
      <trkpt lat="46.89156" lon="4.59024">
        <ele>376.44995</ele>
        <time>2022-03-12T12:37:22.000Z</time>
      </trkpt>
      <trkpt lat="46.89155" lon="4.59026">
        <ele>376.19995</ele>
        <time>2022-03-12T12:37:24.000Z</time>
      </trkpt>
      <trkpt lat="46.89154" lon="4.59029">
        <ele>375.94995</ele>
        <time>2022-03-12T12:37:26.000Z</time>
      </trkpt>
      <trkpt lat="46.89153" lon="4.59033">
        <ele>375.64996</ele>
        <time>2022-03-12T12:37:28.000Z</time>
      </trkpt>
      <trkpt lat="46.89152" lon="4.59036">
        <ele>375.39996</ele>
        <time>2022-03-12T12:37:30.000Z</time>
      </trkpt>
      <trkpt lat="46.89152" lon="4.59039">
        <ele>375.09995</ele>
        <time>2022-03-12T12:37:32.000Z</time>
      </trkpt>
      <trkpt lat="46.89151" lon="4.59043">
        <ele>374.79996</ele>
        <time>2022-03-12T12:37:34.000Z</time>
      </trkpt>
      <trkpt lat="46.89151" lon="4.59046">
        <ele>374.49994</ele>
        <time>2022-03-12T12:37:36.000Z</time>
      </trkpt>
      <trkpt lat="46.8915" lon="4.59049">
        <ele>374.19995</ele>
        <time>2022-03-12T12:37:38.000Z</time>
      </trkpt>
      <trkpt lat="46.8915" lon="4.59052">
        <ele>373.89996</ele>
        <time>2022-03-12T12:37:40.000Z</time>
      </trkpt>
      <trkpt lat="46.8915" lon="4.59056">
        <ele>373.54996</ele>
        <time>2022-03-12T12:37:42.000Z</time>
      </trkpt>
      <trkpt lat="46.8915" lon="4.5906">
        <ele>373.24994</ele>
        <time>2022-03-12T12:37:44.000Z</time>
      </trkpt>
      <trkpt lat="46.8915" lon="4.59063">
        <ele>372.94995</ele>
        <time>2022-03-12T12:37:46.000Z</time>
      </trkpt>
      <trkpt lat="46.8915" lon="4.59068">
        <ele>372.64996</ele>
        <time>2022-03-12T12:37:48.000Z</time>
      </trkpt>
      <trkpt lat="46.89149" lon="4.5907">
        <ele>372.34995</ele>
        <time>2022-03-12T12:37:50.000Z</time>
      </trkpt>
      <trkpt lat="46.89149" lon="4.59074">
        <ele>372.04996</ele>
        <time>2022-03-12T12:37:52.000Z</time>
      </trkpt>
      <trkpt lat="46.89149" lon="4.59078">
        <ele>371.74994</ele>
        <time>2022-03-12T12:37:54.000Z</time>
      </trkpt>
      <trkpt lat="46.89149" lon="4.59081">
        <ele>371.49994</ele>
        <time>2022-03-12T12:37:56.000Z</time>
      </trkpt>
      <trkpt lat="46.8915" lon="4.59085">
        <ele>371.24994</ele>
        <time>2022-03-12T12:37:58.000Z</time>
      </trkpt>
      <trkpt lat="46.8915" lon="4.59088">
        <ele>371.04996</ele>
        <time>2022-03-12T12:38:00.000Z</time>
      </trkpt>
      <trkpt lat="46.89149" lon="4.59092">
        <ele>370.89996</ele>
        <time>2022-03-12T12:38:02.000Z</time>
      </trkpt>
      <trkpt lat="46.89149" lon="4.59095">
        <ele>370.74994</ele>
        <time>2022-03-12T12:38:04.000Z</time>
      </trkpt>
      <trkpt lat="46.89149" lon="4.59099">
        <ele>370.54996</ele>
        <time>2022-03-12T12:38:06.000Z</time>
      </trkpt>
      <trkpt lat="46.89149" lon="4.59102">
        <ele>370.39996</ele>
        <time>2022-03-12T12:38:08.000Z</time>
      </trkpt>
      <trkpt lat="46.8915" lon="4.59105">
        <ele>370.24994</ele>
        <time>2022-03-12T12:38:10.000Z</time>
      </trkpt>
      <trkpt lat="46.89151" lon="4.59107">
        <ele>370.09995</ele>
        <time>2022-03-12T12:38:12.000Z</time>
      </trkpt>
      <trkpt lat="46.89154" lon="4.59108">
        <ele>369.94995</ele>
        <time>2022-03-12T12:38:14.000Z</time>
      </trkpt>
      <trkpt lat="46.89156" lon="4.59109">
        <ele>369.79996</ele>
        <time>2022-03-12T12:38:16.000Z</time>
      </trkpt>
      <trkpt lat="46.89159" lon="4.59109">
        <ele>369.64996</ele>
        <time>2022-03-12T12:38:18.000Z</time>
      </trkpt>
      <trkpt lat="46.89162" lon="4.59109">
        <ele>369.54996</ele>
        <time>2022-03-12T12:38:20.000Z</time>
      </trkpt>
      <trkpt lat="46.89164" lon="4.59109">
        <ele>369.44995</ele>
        <time>2022-03-12T12:38:22.000Z</time>
      </trkpt>
      <trkpt lat="46.89167" lon="4.5911">
        <ele>369.34995</ele>
        <time>2022-03-12T12:38:24.000Z</time>
      </trkpt>
      <trkpt lat="46.89169" lon="4.59111">
        <ele>369.29996</ele>
        <time>2022-03-12T12:38:26.000Z</time>
      </trkpt>
      <trkpt lat="46.89172" lon="4.59112">
        <ele>369.29996</ele>
        <time>2022-03-12T12:38:28.000Z</time>
      </trkpt>
      <trkpt lat="46.89175" lon="4.59112">
        <ele>369.34995</ele>
        <time>2022-03-12T12:38:30.000Z</time>
      </trkpt>
      <trkpt lat="46.89178" lon="4.59113">
        <ele>369.34995</ele>
        <time>2022-03-12T12:38:32.000Z</time>
      </trkpt>
      <trkpt lat="46.8918" lon="4.59115">
        <ele>369.34995</ele>
        <time>2022-03-12T12:38:34.000Z</time>
      </trkpt>
      <trkpt lat="46.89182" lon="4.59116">
        <ele>369.34995</ele>
        <time>2022-03-12T12:38:36.000Z</time>
      </trkpt>
      <trkpt lat="46.89185" lon="4.59117">
        <ele>369.34995</ele>
        <time>2022-03-12T12:38:38.000Z</time>
      </trkpt>
      <trkpt lat="46.89187" lon="4.59119">
        <ele>369.24994</ele>
        <time>2022-03-12T12:38:40.000Z</time>
      </trkpt>
      <trkpt lat="46.8919" lon="4.5912">
        <ele>369.09995</ele>
        <time>2022-03-12T12:38:42.000Z</time>
      </trkpt>
      <trkpt lat="46.89193" lon="4.59122">
        <ele>368.94995</ele>
        <time>2022-03-12T12:38:44.000Z</time>
      </trkpt>
      <trkpt lat="46.89196" lon="4.59123">
        <ele>368.84995</ele>
        <time>2022-03-12T12:38:46.000Z</time>
      </trkpt>
      <trkpt lat="46.89198" lon="4.59123">
        <ele>368.69995</ele>
        <time>2022-03-12T12:38:48.000Z</time>
      </trkpt>
      <trkpt lat="46.89201" lon="4.59124">
        <ele>368.54996</ele>
        <time>2022-03-12T12:38:50.000Z</time>
      </trkpt>
      <trkpt lat="46.89204" lon="4.59125">
        <ele>368.44995</ele>
        <time>2022-03-12T12:38:52.000Z</time>
      </trkpt>
      <trkpt lat="46.89206" lon="4.59126">
        <ele>368.34995</ele>
        <time>2022-03-12T12:38:54.000Z</time>
      </trkpt>
      <trkpt lat="46.89208" lon="4.59127">
        <ele>368.19995</ele>
        <time>2022-03-12T12:38:56.000Z</time>
      </trkpt>
      <trkpt lat="46.8921" lon="4.59128">
        <ele>368.09995</ele>
        <time>2022-03-12T12:38:58.000Z</time>
      </trkpt>
      <trkpt lat="46.89212" lon="4.5913">
        <ele>367.99994</ele>
        <time>2022-03-12T12:39:00.000Z</time>
      </trkpt>
      <trkpt lat="46.89215" lon="4.59131">
        <ele>367.89996</ele>
        <time>2022-03-12T12:39:02.000Z</time>
      </trkpt>
      <trkpt lat="46.89217" lon="4.59132">
        <ele>367.79996</ele>
        <time>2022-03-12T12:39:04.000Z</time>
      </trkpt>
      <trkpt lat="46.8922" lon="4.59134">
        <ele>367.74994</ele>
        <time>2022-03-12T12:39:06.000Z</time>
      </trkpt>
      <trkpt lat="46.89222" lon="4.59134">
        <ele>367.64996</ele>
        <time>2022-03-12T12:39:08.000Z</time>
      </trkpt>
      <trkpt lat="46.89225" lon="4.59135">
        <ele>367.54996</ele>
        <time>2022-03-12T12:39:10.000Z</time>
      </trkpt>
      <trkpt lat="46.89228" lon="4.59136">
        <ele>367.49994</ele>
        <time>2022-03-12T12:39:12.000Z</time>
      </trkpt>
      <trkpt lat="46.89231" lon="4.59136">
        <ele>367.44995</ele>
        <time>2022-03-12T12:39:14.000Z</time>
      </trkpt>
      <trkpt lat="46.89234" lon="4.59138">
        <ele>367.34995</ele>
        <time>2022-03-12T12:39:17.000Z</time>
      </trkpt>
      <trkpt lat="46.89236" lon="4.59139">
        <ele>367.29996</ele>
        <time>2022-03-12T12:39:19.000Z</time>
      </trkpt>
      <trkpt lat="46.89239" lon="4.59139">
        <ele>367.29996</ele>
        <time>2022-03-12T12:39:22.000Z</time>
      </trkpt>
      <trkpt lat="46.89242" lon="4.5914">
        <ele>367.29996</ele>
        <time>2022-03-12T12:39:24.000Z</time>
      </trkpt>
      <trkpt lat="46.89245" lon="4.5914">
        <ele>367.29996</ele>
        <time>2022-03-12T12:39:26.000Z</time>
      </trkpt>
      <trkpt lat="46.89248" lon="4.59141">
        <ele>367.24994</ele>
        <time>2022-03-12T12:39:28.000Z</time>
      </trkpt>
      <trkpt lat="46.8925" lon="4.59141">
        <ele>367.29996</ele>
        <time>2022-03-12T12:39:30.000Z</time>
      </trkpt>
      <trkpt lat="46.89253" lon="4.59141">
        <ele>367.29996</ele>
        <time>2022-03-12T12:39:32.000Z</time>
      </trkpt>
      <trkpt lat="46.89256" lon="4.59142">
        <ele>367.24994</ele>
        <time>2022-03-12T12:39:35.000Z</time>
      </trkpt>
      <trkpt lat="46.89258" lon="4.59142">
        <ele>367.24994</ele>
        <time>2022-03-12T12:39:37.000Z</time>
      </trkpt>
      <trkpt lat="46.8926" lon="4.59143">
        <ele>367.29996</ele>
        <time>2022-03-12T12:39:39.000Z</time>
      </trkpt>
      <trkpt lat="46.89262" lon="4.59144">
        <ele>367.24994</ele>
        <time>2022-03-12T12:39:41.000Z</time>
      </trkpt>
      <trkpt lat="46.89264" lon="4.59144">
        <ele>367.19995</ele>
        <time>2022-03-12T12:39:43.000Z</time>
      </trkpt>
      <trkpt lat="46.89266" lon="4.59145">
        <ele>367.19995</ele>
        <time>2022-03-12T12:39:45.000Z</time>
      </trkpt>
      <trkpt lat="46.89269" lon="4.59145">
        <ele>367.19995</ele>
        <time>2022-03-12T12:39:47.000Z</time>
      </trkpt>
      <trkpt lat="46.89272" lon="4.59146">
        <ele>367.14996</ele>
        <time>2022-03-12T12:39:49.000Z</time>
      </trkpt>
      <trkpt lat="46.89275" lon="4.59146">
        <ele>367.14996</ele>
        <time>2022-03-12T12:39:51.000Z</time>
      </trkpt>
      <trkpt lat="46.89278" lon="4.59146">
        <ele>367.09995</ele>
        <time>2022-03-12T12:39:53.000Z</time>
      </trkpt>
      <trkpt lat="46.89282" lon="4.59148">
        <ele>367.04996</ele>
        <time>2022-03-12T12:39:56.000Z</time>
      </trkpt>
      <trkpt lat="46.89285" lon="4.59148">
        <ele>366.99994</ele>
        <time>2022-03-12T12:39:58.000Z</time>
      </trkpt>
      <trkpt lat="46.89287" lon="4.59148">
        <ele>366.99994</ele>
        <time>2022-03-12T12:40:00.000Z</time>
      </trkpt>
      <trkpt lat="46.89289" lon="4.59148">
        <ele>366.89996</ele>
        <time>2022-03-12T12:40:02.000Z</time>
      </trkpt>
      <trkpt lat="46.89292" lon="4.59148">
        <ele>366.79996</ele>
        <time>2022-03-12T12:40:04.000Z</time>
      </trkpt>
      <trkpt lat="46.89294" lon="4.59149">
        <ele>366.74994</ele>
        <time>2022-03-12T12:40:06.000Z</time>
      </trkpt>
      <trkpt lat="46.89296" lon="4.59149">
        <ele>366.69995</ele>
        <time>2022-03-12T12:40:08.000Z</time>
      </trkpt>
      <trkpt lat="46.89298" lon="4.59149">
        <ele>366.74994</ele>
        <time>2022-03-12T12:40:10.000Z</time>
      </trkpt>
      <trkpt lat="46.89301" lon="4.59149">
        <ele>366.74994</ele>
        <time>2022-03-12T12:40:12.000Z</time>
      </trkpt>
      <trkpt lat="46.89303" lon="4.5915">
        <ele>366.79996</ele>
        <time>2022-03-12T12:40:14.000Z</time>
      </trkpt>
      <trkpt lat="46.89306" lon="4.5915">
        <ele>366.89996</ele>
        <time>2022-03-12T12:40:16.000Z</time>
      </trkpt>
      <trkpt lat="46.89309" lon="4.59151">
        <ele>366.89996</ele>
        <time>2022-03-12T12:40:18.000Z</time>
      </trkpt>
      <trkpt lat="46.89311" lon="4.59151">
        <ele>366.94995</ele>
        <time>2022-03-12T12:40:20.000Z</time>
      </trkpt>
      <trkpt lat="46.89314" lon="4.59152">
        <ele>367.04996</ele>
        <time>2022-03-12T12:40:22.000Z</time>
      </trkpt>
      <trkpt lat="46.89316" lon="4.59153">
        <ele>367.14996</ele>
        <time>2022-03-12T12:40:24.000Z</time>
      </trkpt>
      <trkpt lat="46.89318" lon="4.59153">
        <ele>367.19995</ele>
        <time>2022-03-12T12:40:26.000Z</time>
      </trkpt>
      <trkpt lat="46.89321" lon="4.59154">
        <ele>367.24994</ele>
        <time>2022-03-12T12:40:28.000Z</time>
      </trkpt>
      <trkpt lat="46.89323" lon="4.59155">
        <ele>367.29996</ele>
        <time>2022-03-12T12:40:30.000Z</time>
      </trkpt>
      <trkpt lat="46.89325" lon="4.59156">
        <ele>367.34995</ele>
        <time>2022-03-12T12:40:32.000Z</time>
      </trkpt>
      <trkpt lat="46.89327" lon="4.59156">
        <ele>367.44995</ele>
        <time>2022-03-12T12:40:34.000Z</time>
      </trkpt>
      <trkpt lat="46.89329" lon="4.59157">
        <ele>367.54996</ele>
        <time>2022-03-12T12:40:36.000Z</time>
      </trkpt>
      <trkpt lat="46.89332" lon="4.59159">
        <ele>367.64996</ele>
        <time>2022-03-12T12:40:38.000Z</time>
      </trkpt>
      <trkpt lat="46.89333" lon="4.59161">
        <ele>367.69995</ele>
        <time>2022-03-12T12:40:40.000Z</time>
      </trkpt>
      <trkpt lat="46.89334" lon="4.59164">
        <ele>367.79996</ele>
        <time>2022-03-12T12:40:42.000Z</time>
      </trkpt>
      <trkpt lat="46.89333" lon="4.59167">
        <ele>367.84995</ele>
        <time>2022-03-12T12:40:44.000Z</time>
      </trkpt>
      <trkpt lat="46.89333" lon="4.5917">
        <ele>367.84995</ele>
        <time>2022-03-12T12:40:46.000Z</time>
      </trkpt>
      <trkpt lat="46.89333" lon="4.59174">
        <ele>367.84995</ele>
        <time>2022-03-12T12:40:48.000Z</time>
      </trkpt>
      <trkpt lat="46.89333" lon="4.59178">
        <ele>367.74994</ele>
        <time>2022-03-12T12:40:50.000Z</time>
      </trkpt>
      <trkpt lat="46.89334" lon="4.59182">
        <ele>367.59995</ele>
        <time>2022-03-12T12:40:52.000Z</time>
      </trkpt>
      <trkpt lat="46.89334" lon="4.59185">
        <ele>367.44995</ele>
        <time>2022-03-12T12:40:54.000Z</time>
      </trkpt>
      <trkpt lat="46.89334" lon="4.59188">
        <ele>367.29996</ele>
        <time>2022-03-12T12:40:56.000Z</time>
      </trkpt>
      <trkpt lat="46.89334" lon="4.59192">
        <ele>367.19995</ele>
        <time>2022-03-12T12:40:58.000Z</time>
      </trkpt>
      <trkpt lat="46.89334" lon="4.59196">
        <ele>367.04996</ele>
        <time>2022-03-12T12:41:00.000Z</time>
      </trkpt>
      <trkpt lat="46.89334" lon="4.59199">
        <ele>366.89996</ele>
        <time>2022-03-12T12:41:02.000Z</time>
      </trkpt>
      <trkpt lat="46.89334" lon="4.59203">
        <ele>366.74994</ele>
        <time>2022-03-12T12:41:04.000Z</time>
      </trkpt>
      <trkpt lat="46.89334" lon="4.59207">
        <ele>366.59995</ele>
        <time>2022-03-12T12:41:06.000Z</time>
      </trkpt>
      <trkpt lat="46.89334" lon="4.5921">
        <ele>366.44995</ele>
        <time>2022-03-12T12:41:08.000Z</time>
      </trkpt>
      <trkpt lat="46.89333" lon="4.59213">
        <ele>366.29996</ele>
        <time>2022-03-12T12:41:10.000Z</time>
      </trkpt>
      <trkpt lat="46.89333" lon="4.59217">
        <ele>366.14996</ele>
        <time>2022-03-12T12:41:12.000Z</time>
      </trkpt>
      <trkpt lat="46.89333" lon="4.59221">
        <ele>365.94995</ele>
        <time>2022-03-12T12:41:14.000Z</time>
      </trkpt>
      <trkpt lat="46.89333" lon="4.59224">
        <ele>365.74994</ele>
        <time>2022-03-12T12:41:16.000Z</time>
      </trkpt>
      <trkpt lat="46.89333" lon="4.59228">
        <ele>365.54996</ele>
        <time>2022-03-12T12:41:18.000Z</time>
      </trkpt>
      <trkpt lat="46.89333" lon="4.59232">
        <ele>365.44995</ele>
        <time>2022-03-12T12:41:20.000Z</time>
      </trkpt>
      <trkpt lat="46.89333" lon="4.59236">
        <ele>365.29996</ele>
        <time>2022-03-12T12:41:22.000Z</time>
      </trkpt>
      <trkpt lat="46.89334" lon="4.5924">
        <ele>365.14996</ele>
        <time>2022-03-12T12:41:24.000Z</time>
      </trkpt>
      <trkpt lat="46.89333" lon="4.59243">
        <ele>365.04996</ele>
        <time>2022-03-12T12:41:26.000Z</time>
      </trkpt>
      <trkpt lat="46.89333" lon="4.59246">
        <ele>364.89996</ele>
        <time>2022-03-12T12:41:28.000Z</time>
      </trkpt>
      <trkpt lat="46.89333" lon="4.59249">
        <ele>364.79996</ele>
        <time>2022-03-12T12:41:30.000Z</time>
      </trkpt>
      <trkpt lat="46.89332" lon="4.59252">
        <ele>364.74994</ele>
        <time>2022-03-12T12:41:32.000Z</time>
      </trkpt>
      <trkpt lat="46.89333" lon="4.59256">
        <ele>364.64996</ele>
        <time>2022-03-12T12:41:34.000Z</time>
      </trkpt>
      <trkpt lat="46.89332" lon="4.59259">
        <ele>364.54996</ele>
        <time>2022-03-12T12:41:36.000Z</time>
      </trkpt>
      <trkpt lat="46.89332" lon="4.59263">
        <ele>364.44995</ele>
        <time>2022-03-12T12:41:38.000Z</time>
      </trkpt>
      <trkpt lat="46.89332" lon="4.59266">
        <ele>364.34995</ele>
        <time>2022-03-12T12:41:40.000Z</time>
      </trkpt>
      <trkpt lat="46.89332" lon="4.5927">
        <ele>364.24994</ele>
        <time>2022-03-12T12:41:43.000Z</time>
      </trkpt>
      <trkpt lat="46.89332" lon="4.59274">
        <ele>364.14996</ele>
        <time>2022-03-12T12:41:45.000Z</time>
      </trkpt>
      <trkpt lat="46.89332" lon="4.59277">
        <ele>364.04996</ele>
        <time>2022-03-12T12:41:47.000Z</time>
      </trkpt>
      <trkpt lat="46.89331" lon="4.59281">
        <ele>363.94995</ele>
        <time>2022-03-12T12:41:49.000Z</time>
      </trkpt>
      <trkpt lat="46.89331" lon="4.59284">
        <ele>363.84995</ele>
        <time>2022-03-12T12:41:51.000Z</time>
      </trkpt>
      <trkpt lat="46.89331" lon="4.59288">
        <ele>363.74994</ele>
        <time>2022-03-12T12:41:53.000Z</time>
      </trkpt>
      <trkpt lat="46.89331" lon="4.59291">
        <ele>363.64996</ele>
        <time>2022-03-12T12:41:55.000Z</time>
      </trkpt>
      <trkpt lat="46.8933" lon="4.59297">
        <ele>363.49994</ele>
        <time>2022-03-12T12:41:58.000Z</time>
      </trkpt>
      <trkpt lat="46.8933" lon="4.59301">
        <ele>363.34995</ele>
        <time>2022-03-12T12:42:00.000Z</time>
      </trkpt>
      <trkpt lat="46.89329" lon="4.59304">
        <ele>363.19995</ele>
        <time>2022-03-12T12:42:02.000Z</time>
      </trkpt>
      <trkpt lat="46.8933" lon="4.59307">
        <ele>363.09995</ele>
        <time>2022-03-12T12:42:04.000Z</time>
      </trkpt>
      <trkpt lat="46.8933" lon="4.59311">
        <ele>363.04996</ele>
        <time>2022-03-12T12:42:06.000Z</time>
      </trkpt>
      <trkpt lat="46.8933" lon="4.59315">
        <ele>362.89996</ele>
        <time>2022-03-12T12:42:08.000Z</time>
      </trkpt>
      <trkpt lat="46.89329" lon="4.59318">
        <ele>362.79996</ele>
        <time>2022-03-12T12:42:10.000Z</time>
      </trkpt>
      <trkpt lat="46.89329" lon="4.59322">
        <ele>362.69995</ele>
        <time>2022-03-12T12:42:12.000Z</time>
      </trkpt>
      <trkpt lat="46.89329" lon="4.59325">
        <ele>362.59995</ele>
        <time>2022-03-12T12:42:14.000Z</time>
      </trkpt>
      <trkpt lat="46.89329" lon="4.59329">
        <ele>362.59995</ele>
        <time>2022-03-12T12:42:16.000Z</time>
      </trkpt>
      <trkpt lat="46.89329" lon="4.59332">
        <ele>362.54996</ele>
        <time>2022-03-12T12:42:18.000Z</time>
      </trkpt>
      <trkpt lat="46.89329" lon="4.59336">
        <ele>362.44995</ele>
        <time>2022-03-12T12:42:20.000Z</time>
      </trkpt>
      <trkpt lat="46.89329" lon="4.59339">
        <ele>362.34995</ele>
        <time>2022-03-12T12:42:22.000Z</time>
      </trkpt>
      <trkpt lat="46.89329" lon="4.59343">
        <ele>362.19995</ele>
        <time>2022-03-12T12:42:24.000Z</time>
      </trkpt>
      <trkpt lat="46.89328" lon="4.59348">
        <ele>362.04996</ele>
        <time>2022-03-12T12:42:27.000Z</time>
      </trkpt>
      <trkpt lat="46.89327" lon="4.59352">
        <ele>361.89996</ele>
        <time>2022-03-12T12:42:29.000Z</time>
      </trkpt>
      <trkpt lat="46.89327" lon="4.59355">
        <ele>361.74994</ele>
        <time>2022-03-12T12:42:31.000Z</time>
      </trkpt>
      <trkpt lat="46.89327" lon="4.59359">
        <ele>361.59995</ele>
        <time>2022-03-12T12:42:33.000Z</time>
      </trkpt>
      <trkpt lat="46.89327" lon="4.59363">
        <ele>361.44995</ele>
        <time>2022-03-12T12:42:36.000Z</time>
      </trkpt>
      <trkpt lat="46.89327" lon="4.59366">
        <ele>361.29996</ele>
        <time>2022-03-12T12:42:38.000Z</time>
      </trkpt>
      <trkpt lat="46.89327" lon="4.5937">
        <ele>361.19995</ele>
        <time>2022-03-12T12:42:40.000Z</time>
      </trkpt>
      <trkpt lat="46.89327" lon="4.59373">
        <ele>361.09995</ele>
        <time>2022-03-12T12:42:42.000Z</time>
      </trkpt>
      <trkpt lat="46.89326" lon="4.59376">
        <ele>360.94995</ele>
        <time>2022-03-12T12:42:44.000Z</time>
      </trkpt>
      <trkpt lat="46.89325" lon="4.59379">
        <ele>360.79996</ele>
        <time>2022-03-12T12:42:46.000Z</time>
      </trkpt>
      <trkpt lat="46.89324" lon="4.59382">
        <ele>360.64996</ele>
        <time>2022-03-12T12:42:49.000Z</time>
      </trkpt>
      <trkpt lat="46.89322" lon="4.59383">
        <ele>360.59995</ele>
        <time>2022-03-12T12:42:51.000Z</time>
      </trkpt>
      <trkpt lat="46.8932" lon="4.59385">
        <ele>360.54996</ele>
        <time>2022-03-12T12:42:53.000Z</time>
      </trkpt>
      <trkpt lat="46.89318" lon="4.59387">
        <ele>360.49994</ele>
        <time>2022-03-12T12:42:56.000Z</time>
      </trkpt>
      <trkpt lat="46.89317" lon="4.59388">
        <ele>360.39996</ele>
        <time>2022-03-12T12:43:01.000Z</time>
      </trkpt>
      <trkpt lat="46.89318" lon="4.59394">
        <ele>360.19995</ele>
        <time>2022-03-12T12:43:18.000Z</time>
      </trkpt>
      <trkpt lat="46.89317" lon="4.59397">
        <ele>360.04996</ele>
        <time>2022-03-12T12:43:21.000Z</time>
      </trkpt>
      <trkpt lat="46.89317" lon="4.59399">
        <ele>359.94995</ele>
        <time>2022-03-12T12:43:23.000Z</time>
      </trkpt>
      <trkpt lat="46.89316" lon="4.59403">
        <ele>359.84995</ele>
        <time>2022-03-12T12:43:26.000Z</time>
      </trkpt>
      <trkpt lat="46.89315" lon="4.59406">
        <ele>359.79996</ele>
        <time>2022-03-12T12:43:29.000Z</time>
      </trkpt>
      <trkpt lat="46.89314" lon="4.59409">
        <ele>359.69995</ele>
        <time>2022-03-12T12:43:32.000Z</time>
      </trkpt>
      <trkpt lat="46.89313" lon="4.59412">
        <ele>359.64996</ele>
        <time>2022-03-12T12:43:35.000Z</time>
      </trkpt>
      <trkpt lat="46.89311" lon="4.59414">
        <ele>359.59995</ele>
        <time>2022-03-12T12:43:37.000Z</time>
      </trkpt>
      <trkpt lat="46.89309" lon="4.59417">
        <ele>359.54996</ele>
        <time>2022-03-12T12:43:40.000Z</time>
      </trkpt>
      <trkpt lat="46.89308" lon="4.5942">
        <ele>359.59995</ele>
        <time>2022-03-12T12:43:42.000Z</time>
      </trkpt>
      <trkpt lat="46.89306" lon="4.59423">
        <ele>359.59995</ele>
        <time>2022-03-12T12:43:45.000Z</time>
      </trkpt>
      <trkpt lat="46.89305" lon="4.59425">
        <ele>359.59995</ele>
        <time>2022-03-12T12:43:48.000Z</time>
      </trkpt>
      <trkpt lat="46.89304" lon="4.59427">
        <ele>359.64996</ele>
        <time>2022-03-12T12:43:50.000Z</time>
      </trkpt>
      <trkpt lat="46.89303" lon="4.59429">
        <ele>359.69995</ele>
        <time>2022-03-12T12:43:52.000Z</time>
      </trkpt>
      <trkpt lat="46.89301" lon="4.5943">
        <ele>359.74994</ele>
        <time>2022-03-12T12:43:54.000Z</time>
      </trkpt>
      <trkpt lat="46.89298" lon="4.59433">
        <ele>359.74994</ele>
        <time>2022-03-12T12:43:58.000Z</time>
      </trkpt>
      <trkpt lat="46.89296" lon="4.59435">
        <ele>359.69995</ele>
        <time>2022-03-12T12:44:01.000Z</time>
      </trkpt>
      <trkpt lat="46.89295" lon="4.59437">
        <ele>359.59995</ele>
        <time>2022-03-12T12:44:05.000Z</time>
      </trkpt>
      <trkpt lat="46.89293" lon="4.59439">
        <ele>359.44995</ele>
        <time>2022-03-12T12:44:08.000Z</time>
      </trkpt>
      <trkpt lat="46.89291" lon="4.59441">
        <ele>359.34995</ele>
        <time>2022-03-12T12:44:10.000Z</time>
      </trkpt>
      <trkpt lat="46.89289" lon="4.59443">
        <ele>359.29996</ele>
        <time>2022-03-12T12:44:12.000Z</time>
      </trkpt>
      <trkpt lat="46.89288" lon="4.59445">
        <ele>359.19995</ele>
        <time>2022-03-12T12:44:14.000Z</time>
      </trkpt>
      <trkpt lat="46.89286" lon="4.59446">
        <ele>359.14996</ele>
        <time>2022-03-12T12:44:16.000Z</time>
      </trkpt>
      <trkpt lat="46.89284" lon="4.59447">
        <ele>359.04996</ele>
        <time>2022-03-12T12:44:19.000Z</time>
      </trkpt>
      <trkpt lat="46.89281" lon="4.59448">
        <ele>358.94995</ele>
        <time>2022-03-12T12:44:21.000Z</time>
      </trkpt>
      <trkpt lat="46.89279" lon="4.59449">
        <ele>358.94995</ele>
        <time>2022-03-12T12:44:23.000Z</time>
      </trkpt>
      <trkpt lat="46.89278" lon="4.5945">
        <ele>358.84995</ele>
        <time>2022-03-12T12:44:25.000Z</time>
      </trkpt>
      <trkpt lat="46.89276" lon="4.59453">
        <ele>358.69995</ele>
        <time>2022-03-12T12:44:28.000Z</time>
      </trkpt>
      <trkpt lat="46.89274" lon="4.59454">
        <ele>358.54996</ele>
        <time>2022-03-12T12:44:30.000Z</time>
      </trkpt>
      <trkpt lat="46.89272" lon="4.59456">
        <ele>358.24994</ele>
        <time>2022-03-12T12:44:33.000Z</time>
      </trkpt>
      <trkpt lat="46.8927" lon="4.59457">
        <ele>358.04996</ele>
        <time>2022-03-12T12:44:36.000Z</time>
      </trkpt>
      <trkpt lat="46.89268" lon="4.5946">
        <ele>357.84995</ele>
        <time>2022-03-12T12:44:39.000Z</time>
      </trkpt>
      <trkpt lat="46.89266" lon="4.59461">
        <ele>357.59995</ele>
        <time>2022-03-12T12:44:41.000Z</time>
      </trkpt>
      <trkpt lat="46.89264" lon="4.59462">
        <ele>357.29996</ele>
        <time>2022-03-12T12:44:44.000Z</time>
      </trkpt>
      <trkpt lat="46.89261" lon="4.59464">
        <ele>356.99994</ele>
        <time>2022-03-12T12:44:47.000Z</time>
      </trkpt>
      <trkpt lat="46.89258" lon="4.59465">
        <ele>356.74994</ele>
        <time>2022-03-12T12:44:49.000Z</time>
      </trkpt>
      <trkpt lat="46.89255" lon="4.59466">
        <ele>356.49994</ele>
        <time>2022-03-12T12:44:51.000Z</time>
      </trkpt>
      <trkpt lat="46.89252" lon="4.59466">
        <ele>356.29996</ele>
        <time>2022-03-12T12:44:53.000Z</time>
      </trkpt>
      <trkpt lat="46.89249" lon="4.59466">
        <ele>356.14996</ele>
        <time>2022-03-12T12:44:55.000Z</time>
      </trkpt>
      <trkpt lat="46.89245" lon="4.59468">
        <ele>355.99994</ele>
        <time>2022-03-12T12:44:58.000Z</time>
      </trkpt>
      <trkpt lat="46.89244" lon="4.5947">
        <ele>355.84995</ele>
        <time>2022-03-12T12:45:00.000Z</time>
      </trkpt>
      <trkpt lat="46.89242" lon="4.59472">
        <ele>355.74994</ele>
        <time>2022-03-12T12:45:02.000Z</time>
      </trkpt>
      <trkpt lat="46.8924" lon="4.59473">
        <ele>355.59995</ele>
        <time>2022-03-12T12:45:04.000Z</time>
      </trkpt>
      <trkpt lat="46.89238" lon="4.59475">
        <ele>355.49994</ele>
        <time>2022-03-12T12:45:06.000Z</time>
      </trkpt>
      <trkpt lat="46.89236" lon="4.59478">
        <ele>355.34995</ele>
        <time>2022-03-12T12:45:08.000Z</time>
      </trkpt>
      <trkpt lat="46.89235" lon="4.5948">
        <ele>355.09995</ele>
        <time>2022-03-12T12:45:10.000Z</time>
      </trkpt>
      <trkpt lat="46.89233" lon="4.59482">
        <ele>354.89996</ele>
        <time>2022-03-12T12:45:12.000Z</time>
      </trkpt>
      <trkpt lat="46.89231" lon="4.59484">
        <ele>354.74994</ele>
        <time>2022-03-12T12:45:14.000Z</time>
      </trkpt>
      <trkpt lat="46.89229" lon="4.59486">
        <ele>354.59995</ele>
        <time>2022-03-12T12:45:16.000Z</time>
      </trkpt>
      <trkpt lat="46.89229" lon="4.59489">
        <ele>354.44995</ele>
        <time>2022-03-12T12:45:18.000Z</time>
      </trkpt>
      <trkpt lat="46.89227" lon="4.59491">
        <ele>354.24994</ele>
        <time>2022-03-12T12:45:20.000Z</time>
      </trkpt>
      <trkpt lat="46.89226" lon="4.59495">
        <ele>353.94995</ele>
        <time>2022-03-12T12:45:22.000Z</time>
      </trkpt>
      <trkpt lat="46.89226" lon="4.59498">
        <ele>353.64996</ele>
        <time>2022-03-12T12:45:25.000Z</time>
      </trkpt>
      <trkpt lat="46.89225" lon="4.59501">
        <ele>353.34995</ele>
        <time>2022-03-12T12:45:28.000Z</time>
      </trkpt>
      <trkpt lat="46.89225" lon="4.59504">
        <ele>352.99994</ele>
        <time>2022-03-12T12:45:30.000Z</time>
      </trkpt>
      <trkpt lat="46.89224" lon="4.59508">
        <ele>352.64996</ele>
        <time>2022-03-12T12:45:32.000Z</time>
      </trkpt>
      <trkpt lat="46.89224" lon="4.59512">
        <ele>352.24994</ele>
        <time>2022-03-12T12:45:34.000Z</time>
      </trkpt>
      <trkpt lat="46.89225" lon="4.59516">
        <ele>351.74994</ele>
        <time>2022-03-12T12:45:36.000Z</time>
      </trkpt>
      <trkpt lat="46.89227" lon="4.59521">
        <ele>351.19995</ele>
        <time>2022-03-12T12:45:39.000Z</time>
      </trkpt>
      <trkpt lat="46.89228" lon="4.59523">
        <ele>350.64996</ele>
        <time>2022-03-12T12:45:41.000Z</time>
      </trkpt>
      <trkpt lat="46.89229" lon="4.59526">
        <ele>350.04996</ele>
        <time>2022-03-12T12:45:43.000Z</time>
      </trkpt>
      <trkpt lat="46.8923" lon="4.59531">
        <ele>349.44995</ele>
        <time>2022-03-12T12:45:47.000Z</time>
      </trkpt>
      <trkpt lat="46.89231" lon="4.59534">
        <ele>348.79996</ele>
        <time>2022-03-12T12:45:49.000Z</time>
      </trkpt>
      <trkpt lat="46.89231" lon="4.59537">
        <ele>348.09995</ele>
        <time>2022-03-12T12:45:51.000Z</time>
      </trkpt>
      <trkpt lat="46.89232" lon="4.5954">
        <ele>347.39996</ele>
        <time>2022-03-12T12:45:53.000Z</time>
      </trkpt>
      <trkpt lat="46.89232" lon="4.59543">
        <ele>346.74994</ele>
        <time>2022-03-12T12:45:55.000Z</time>
      </trkpt>
      <trkpt lat="46.89233" lon="4.59546">
        <ele>346.09995</ele>
        <time>2022-03-12T12:45:57.000Z</time>
      </trkpt>
      <trkpt lat="46.89233" lon="4.59549">
        <ele>345.44995</ele>
        <time>2022-03-12T12:46:00.000Z</time>
      </trkpt>
      <trkpt lat="46.89233" lon="4.59553">
        <ele>344.74994</ele>
        <time>2022-03-12T12:46:02.000Z</time>
      </trkpt>
      <trkpt lat="46.89234" lon="4.59556">
        <ele>344.04996</ele>
        <time>2022-03-12T12:46:04.000Z</time>
      </trkpt>
      <trkpt lat="46.89235" lon="4.59559">
        <ele>343.34995</ele>
        <time>2022-03-12T12:46:06.000Z</time>
      </trkpt>
      <trkpt lat="46.89235" lon="4.59561">
        <ele>342.69995</ele>
        <time>2022-03-12T12:46:08.000Z</time>
      </trkpt>
      <trkpt lat="46.89236" lon="4.59565">
        <ele>342.04996</ele>
        <time>2022-03-12T12:46:11.000Z</time>
      </trkpt>
      <trkpt lat="46.89237" lon="4.59567">
        <ele>341.44995</ele>
        <time>2022-03-12T12:46:13.000Z</time>
      </trkpt>
      <trkpt lat="46.89237" lon="4.5957">
        <ele>340.84995</ele>
        <time>2022-03-12T12:46:15.000Z</time>
      </trkpt>
      <trkpt lat="46.89238" lon="4.59573">
        <ele>340.24994</ele>
        <time>2022-03-12T12:46:18.000Z</time>
      </trkpt>
      <trkpt lat="46.89239" lon="4.59577">
        <ele>339.59995</ele>
        <time>2022-03-12T12:46:21.000Z</time>
      </trkpt>
      <trkpt lat="46.8924" lon="4.59579">
        <ele>339.04996</ele>
        <time>2022-03-12T12:46:23.000Z</time>
      </trkpt>
      <trkpt lat="46.89242" lon="4.59582">
        <ele>338.44995</ele>
        <time>2022-03-12T12:46:25.000Z</time>
      </trkpt>
      <trkpt lat="46.89243" lon="4.59585">
        <ele>337.84995</ele>
        <time>2022-03-12T12:46:28.000Z</time>
      </trkpt>
      <trkpt lat="46.89245" lon="4.59588">
        <ele>337.24994</ele>
        <time>2022-03-12T12:46:31.000Z</time>
      </trkpt>
      <trkpt lat="46.89246" lon="4.59591">
        <ele>336.59995</ele>
        <time>2022-03-12T12:46:33.000Z</time>
      </trkpt>
      <trkpt lat="46.89247" lon="4.59593">
        <ele>335.94995</ele>
        <time>2022-03-12T12:46:35.000Z</time>
      </trkpt>
      <trkpt lat="46.89247" lon="4.59595">
        <ele>335.34995</ele>
        <time>2022-03-12T12:46:38.000Z</time>
      </trkpt>
      <trkpt lat="46.89248" lon="4.59599">
        <ele>334.79996</ele>
        <time>2022-03-12T12:46:41.000Z</time>
      </trkpt>
      <trkpt lat="46.89249" lon="4.59602">
        <ele>334.19995</ele>
        <time>2022-03-12T12:46:44.000Z</time>
      </trkpt>
      <trkpt lat="46.89251" lon="4.59605">
        <ele>333.59995</ele>
        <time>2022-03-12T12:46:47.000Z</time>
      </trkpt>
      <trkpt lat="46.89251" lon="4.59609">
        <ele>332.89996</ele>
        <time>2022-03-12T12:46:51.000Z</time>
      </trkpt>
      <trkpt lat="46.89253" lon="4.59612">
        <ele>332.29996</ele>
        <time>2022-03-12T12:46:54.000Z</time>
      </trkpt>
      <trkpt lat="46.89254" lon="4.59614">
        <ele>331.74994</ele>
        <time>2022-03-12T12:46:57.000Z</time>
      </trkpt>
      <trkpt lat="46.89256" lon="4.59617">
        <ele>331.14996</ele>
        <time>2022-03-12T12:46:59.000Z</time>
      </trkpt>
      <trkpt lat="46.89257" lon="4.59619">
        <ele>330.54996</ele>
        <time>2022-03-12T12:47:01.000Z</time>
      </trkpt>
      <trkpt lat="46.89258" lon="4.59622">
        <ele>329.94995</ele>
        <time>2022-03-12T12:47:04.000Z</time>
      </trkpt>
      <trkpt lat="46.89259" lon="4.59624">
        <ele>329.34995</ele>
        <time>2022-03-12T12:47:06.000Z</time>
      </trkpt>
      <trkpt lat="46.89261" lon="4.59628">
        <ele>328.69995</ele>
        <time>2022-03-12T12:47:10.000Z</time>
      </trkpt>
      <trkpt lat="46.89262" lon="4.59631">
        <ele>328.04996</ele>
        <time>2022-03-12T12:47:13.000Z</time>
      </trkpt>
      <trkpt lat="46.89265" lon="4.59632">
        <ele>327.49994</ele>
        <time>2022-03-12T12:47:17.000Z</time>
      </trkpt>
      <trkpt lat="46.89267" lon="4.59634">
        <ele>326.89996</ele>
        <time>2022-03-12T12:47:21.000Z</time>
      </trkpt>
      <trkpt lat="46.89268" lon="4.59637">
        <ele>326.34995</ele>
        <time>2022-03-12T12:47:24.000Z</time>
      </trkpt>
      <trkpt lat="46.89269" lon="4.5964">
        <ele>325.74994</ele>
        <time>2022-03-12T12:47:29.000Z</time>
      </trkpt>
      <trkpt lat="46.89269" lon="4.59642">
        <ele>325.19995</ele>
        <time>2022-03-12T12:47:32.000Z</time>
      </trkpt>
      <trkpt lat="46.89268" lon="4.59645">
        <ele>324.69995</ele>
        <time>2022-03-12T12:47:34.000Z</time>
      </trkpt>
      <trkpt lat="46.89268" lon="4.59648">
        <ele>324.19995</ele>
        <time>2022-03-12T12:47:37.000Z</time>
      </trkpt>
      <trkpt lat="46.89267" lon="4.59652">
        <ele>323.64996</ele>
        <time>2022-03-12T12:47:41.000Z</time>
      </trkpt>
      <trkpt lat="46.89266" lon="4.59654">
        <ele>323.09995</ele>
        <time>2022-03-12T12:47:44.000Z</time>
      </trkpt>
      <trkpt lat="46.89266" lon="4.59657">
        <ele>322.44995</ele>
        <time>2022-03-12T12:47:52.000Z</time>
      </trkpt>
      <trkpt lat="46.89265" lon="4.5966">
        <ele>321.74994</ele>
        <time>2022-03-12T12:47:57.000Z</time>
      </trkpt>
      <trkpt lat="46.89264" lon="4.59663">
        <ele>321.14996</ele>
        <time>2022-03-12T12:48:00.000Z</time>
      </trkpt>
      <trkpt lat="46.89264" lon="4.59668">
        <ele>320.49994</ele>
        <time>2022-03-12T12:48:07.000Z</time>
      </trkpt>
      <trkpt lat="46.89263" lon="4.59672">
        <ele>319.84995</ele>
        <time>2022-03-12T12:48:13.000Z</time>
      </trkpt>
      <trkpt lat="46.89263" lon="4.59675">
        <ele>319.24994</ele>
        <time>2022-03-12T12:48:16.000Z</time>
      </trkpt>
      <trkpt lat="46.89263" lon="4.59677">
        <ele>318.64996</ele>
        <time>2022-03-12T12:48:19.000Z</time>
      </trkpt>
      <trkpt lat="46.89263" lon="4.5968">
        <ele>318.04996</ele>
        <time>2022-03-12T12:48:22.000Z</time>
      </trkpt>
      <trkpt lat="46.89262" lon="4.59684">
        <ele>317.44995</ele>
        <time>2022-03-12T12:48:25.000Z</time>
      </trkpt>
      <trkpt lat="46.89261" lon="4.59687">
        <ele>316.89996</ele>
        <time>2022-03-12T12:48:28.000Z</time>
      </trkpt>
      <trkpt lat="46.8926" lon="4.5969">
        <ele>316.29996</ele>
        <time>2022-03-12T12:48:31.000Z</time>
      </trkpt>
      <trkpt lat="46.8926" lon="4.59693">
        <ele>315.69995</ele>
        <time>2022-03-12T12:48:33.000Z</time>
      </trkpt>
      <trkpt lat="46.89259" lon="4.59696">
        <ele>315.14996</ele>
        <time>2022-03-12T12:48:35.000Z</time>
      </trkpt>
      <trkpt lat="46.89258" lon="4.59701">
        <ele>314.59995</ele>
        <time>2022-03-12T12:48:38.000Z</time>
      </trkpt>
      <trkpt lat="46.89258" lon="4.59704">
        <ele>314.04996</ele>
        <time>2022-03-12T12:48:40.000Z</time>
      </trkpt>
      <trkpt lat="46.89257" lon="4.59708">
        <ele>313.49994</ele>
        <time>2022-03-12T12:48:43.000Z</time>
      </trkpt>
      <trkpt lat="46.89256" lon="4.59711">
        <ele>312.94995</ele>
        <time>2022-03-12T12:48:45.000Z</time>
      </trkpt>
      <trkpt lat="46.89256" lon="4.59714">
        <ele>312.39996</ele>
        <time>2022-03-12T12:48:47.000Z</time>
      </trkpt>
      <trkpt lat="46.89256" lon="4.59718">
        <ele>311.79996</ele>
        <time>2022-03-12T12:48:49.000Z</time>
      </trkpt>
      <trkpt lat="46.89256" lon="4.59721">
        <ele>311.14996</ele>
        <time>2022-03-12T12:48:51.000Z</time>
      </trkpt>
      <trkpt lat="46.89256" lon="4.59723">
        <ele>310.59995</ele>
        <time>2022-03-12T12:48:53.000Z</time>
      </trkpt>
      <trkpt lat="46.89256" lon="4.59726">
        <ele>310.14996</ele>
        <time>2022-03-12T12:48:55.000Z</time>
      </trkpt>
      <trkpt lat="46.89255" lon="4.5973">
        <ele>309.64996</ele>
        <time>2022-03-12T12:48:57.000Z</time>
      </trkpt>
      <trkpt lat="46.89255" lon="4.59733">
        <ele>309.09995</ele>
        <time>2022-03-12T12:49:00.000Z</time>
      </trkpt>
      <trkpt lat="46.89255" lon="4.59736">
        <ele>308.49994</ele>
        <time>2022-03-12T12:49:02.000Z</time>
      </trkpt>
      <trkpt lat="46.89255" lon="4.5974">
        <ele>307.84995</ele>
        <time>2022-03-12T12:49:07.000Z</time>
      </trkpt>
      <trkpt lat="46.89254" lon="4.59743">
        <ele>307.19995</ele>
        <time>2022-03-12T12:49:10.000Z</time>
      </trkpt>
      <trkpt lat="46.89253" lon="4.59745">
        <ele>306.54996</ele>
        <time>2022-03-12T12:49:14.000Z</time>
      </trkpt>
      <trkpt lat="46.89251" lon="4.59748">
        <ele>305.94995</ele>
        <time>2022-03-12T12:49:16.000Z</time>
      </trkpt>
      <trkpt lat="46.89249" lon="4.5975">
        <ele>305.39996</ele>
        <time>2022-03-12T12:49:19.000Z</time>
      </trkpt>
      <trkpt lat="46.89247" lon="4.59751">
        <ele>304.89996</ele>
        <time>2022-03-12T12:49:21.000Z</time>
      </trkpt>
      <trkpt lat="46.89245" lon="4.59753">
        <ele>304.44995</ele>
        <time>2022-03-12T12:49:23.000Z</time>
      </trkpt>
      <trkpt lat="46.89244" lon="4.59754">
        <ele>303.94995</ele>
        <time>2022-03-12T12:49:25.000Z</time>
      </trkpt>
      <trkpt lat="46.89242" lon="4.59756">
        <ele>303.54996</ele>
        <time>2022-03-12T12:49:27.000Z</time>
      </trkpt>
      <trkpt lat="46.89241" lon="4.59758">
        <ele>303.19995</ele>
        <time>2022-03-12T12:49:29.000Z</time>
      </trkpt>
      <trkpt lat="46.89239" lon="4.59759">
        <ele>302.84995</ele>
        <time>2022-03-12T12:49:31.000Z</time>
      </trkpt>
      <trkpt lat="46.89237" lon="4.59761">
        <ele>302.59995</ele>
        <time>2022-03-12T12:49:34.000Z</time>
      </trkpt>
      <trkpt lat="46.89236" lon="4.59762">
        <ele>302.39996</ele>
        <time>2022-03-12T12:49:36.000Z</time>
      </trkpt>
      <trkpt lat="46.89234" lon="4.59764">
        <ele>302.34995</ele>
        <time>2022-03-12T12:49:38.000Z</time>
      </trkpt>
      <trkpt lat="46.89232" lon="4.59766">
        <ele>302.34995</ele>
        <time>2022-03-12T12:49:40.000Z</time>
      </trkpt>
      <trkpt lat="46.8923" lon="4.59768">
        <ele>302.34995</ele>
        <time>2022-03-12T12:49:42.000Z</time>
      </trkpt>
      <trkpt lat="46.89229" lon="4.5977">
        <ele>302.24994</ele>
        <time>2022-03-12T12:49:44.000Z</time>
      </trkpt>
      <trkpt lat="46.89227" lon="4.59772">
        <ele>302.19995</ele>
        <time>2022-03-12T12:49:46.000Z</time>
      </trkpt>
      <trkpt lat="46.89224" lon="4.59775">
        <ele>302.19995</ele>
        <time>2022-03-12T12:49:50.000Z</time>
      </trkpt>
      <trkpt lat="46.89223" lon="4.59777">
        <ele>302.24994</ele>
        <time>2022-03-12T12:49:52.000Z</time>
      </trkpt>
      <trkpt lat="46.8922" lon="4.59779">
        <ele>302.34995</ele>
        <time>2022-03-12T12:49:54.000Z</time>
      </trkpt>
      <trkpt lat="46.89217" lon="4.59781">
        <ele>302.49994</ele>
        <time>2022-03-12T12:49:56.000Z</time>
      </trkpt>
      <trkpt lat="46.89215" lon="4.59783">
        <ele>302.64996</ele>
        <time>2022-03-12T12:49:58.000Z</time>
      </trkpt>
      <trkpt lat="46.89214" lon="4.59786">
        <ele>302.69995</ele>
        <time>2022-03-12T12:50:00.000Z</time>
      </trkpt>
      <trkpt lat="46.89212" lon="4.59788">
        <ele>302.74994</ele>
        <time>2022-03-12T12:50:02.000Z</time>
      </trkpt>
      <trkpt lat="46.89211" lon="4.5979">
        <ele>302.74994</ele>
        <time>2022-03-12T12:50:04.000Z</time>
      </trkpt>
      <trkpt lat="46.89209" lon="4.59792">
        <ele>302.69995</ele>
        <time>2022-03-12T12:50:06.000Z</time>
      </trkpt>
      <trkpt lat="46.89208" lon="4.59793">
        <ele>302.64996</ele>
        <time>2022-03-12T12:50:08.000Z</time>
      </trkpt>
      <trkpt lat="46.89205" lon="4.59794">
        <ele>302.54996</ele>
        <time>2022-03-12T12:50:10.000Z</time>
      </trkpt>
      <trkpt lat="46.89203" lon="4.59797">
        <ele>302.44995</ele>
        <time>2022-03-12T12:50:12.000Z</time>
      </trkpt>
      <trkpt lat="46.89202" lon="4.598">
        <ele>302.34995</ele>
        <time>2022-03-12T12:50:14.000Z</time>
      </trkpt>
      <trkpt lat="46.892" lon="4.59803">
        <ele>302.14996</ele>
        <time>2022-03-12T12:50:16.000Z</time>
      </trkpt>
      <trkpt lat="46.89198" lon="4.59807">
        <ele>301.89996</ele>
        <time>2022-03-12T12:50:19.000Z</time>
      </trkpt>
      <trkpt lat="46.89196" lon="4.59809">
        <ele>301.59995</ele>
        <time>2022-03-12T12:50:21.000Z</time>
      </trkpt>
      <trkpt lat="46.89193" lon="4.59811">
        <ele>301.34995</ele>
        <time>2022-03-12T12:50:23.000Z</time>
      </trkpt>
      <trkpt lat="46.89191" lon="4.59814">
        <ele>301.09995</ele>
        <time>2022-03-12T12:50:25.000Z</time>
      </trkpt>
      <trkpt lat="46.89189" lon="4.59818">
        <ele>300.89996</ele>
        <time>2022-03-12T12:50:27.000Z</time>
      </trkpt>
      <trkpt lat="46.89187" lon="4.5982">
        <ele>300.64996</ele>
        <time>2022-03-12T12:50:29.000Z</time>
      </trkpt>
      <trkpt lat="46.89186" lon="4.59823">
        <ele>300.39996</ele>
        <time>2022-03-12T12:50:31.000Z</time>
      </trkpt>
      <trkpt lat="46.89184" lon="4.59826">
        <ele>300.14996</ele>
        <time>2022-03-12T12:50:33.000Z</time>
      </trkpt>
      <trkpt lat="46.89182" lon="4.59829">
        <ele>299.89996</ele>
        <time>2022-03-12T12:50:35.000Z</time>
      </trkpt>
      <trkpt lat="46.8918" lon="4.5983">
        <ele>299.64996</ele>
        <time>2022-03-12T12:50:37.000Z</time>
      </trkpt>
      <trkpt lat="46.89178" lon="4.59832">
        <ele>299.39996</ele>
        <time>2022-03-12T12:50:40.000Z</time>
      </trkpt>
      <trkpt lat="46.89176" lon="4.59833">
        <ele>299.14996</ele>
        <time>2022-03-12T12:50:42.000Z</time>
      </trkpt>
      <trkpt lat="46.89174" lon="4.59836">
        <ele>298.89996</ele>
        <time>2022-03-12T12:50:45.000Z</time>
      </trkpt>
      <trkpt lat="46.89172" lon="4.59838">
        <ele>298.69995</ele>
        <time>2022-03-12T12:50:47.000Z</time>
      </trkpt>
      <trkpt lat="46.8917" lon="4.5984">
        <ele>298.44995</ele>
        <time>2022-03-12T12:51:08.000Z</time>
      </trkpt>
      <trkpt lat="46.89168" lon="4.5984">
        <ele>298.29996</ele>
        <time>2022-03-12T12:51:11.000Z</time>
      </trkpt>
      <trkpt lat="46.89165" lon="4.5984">
        <ele>298.19995</ele>
        <time>2022-03-12T12:51:13.000Z</time>
      </trkpt>
      <trkpt lat="46.89162" lon="4.5984">
        <ele>298.09995</ele>
        <time>2022-03-12T12:51:15.000Z</time>
      </trkpt>
      <trkpt lat="46.8916" lon="4.5984">
        <ele>297.99994</ele>
        <time>2022-03-12T12:51:17.000Z</time>
      </trkpt>
      <trkpt lat="46.89157" lon="4.5984">
        <ele>297.84995</ele>
        <time>2022-03-12T12:51:19.000Z</time>
      </trkpt>
      <trkpt lat="46.89154" lon="4.5984">
        <ele>297.79996</ele>
        <time>2022-03-12T12:51:21.000Z</time>
      </trkpt>
      <trkpt lat="46.89152" lon="4.59842">
        <ele>297.79996</ele>
        <time>2022-03-12T12:51:23.000Z</time>
      </trkpt>
      <trkpt lat="46.89151" lon="4.59843">
        <ele>297.74994</ele>
        <time>2022-03-12T12:51:25.000Z</time>
      </trkpt>
      <trkpt lat="46.89148" lon="4.59845">
        <ele>297.74994</ele>
        <time>2022-03-12T12:51:27.000Z</time>
      </trkpt>
      <trkpt lat="46.89146" lon="4.59846">
        <ele>297.79996</ele>
        <time>2022-03-12T12:51:29.000Z</time>
      </trkpt>
      <trkpt lat="46.89143" lon="4.59848">
        <ele>297.89996</ele>
        <time>2022-03-12T12:51:31.000Z</time>
      </trkpt>
      <trkpt lat="46.89142" lon="4.5985">
        <ele>297.99994</ele>
        <time>2022-03-12T12:51:33.000Z</time>
      </trkpt>
      <trkpt lat="46.89141" lon="4.59853">
        <ele>298.14996</ele>
        <time>2022-03-12T12:51:35.000Z</time>
      </trkpt>
      <trkpt lat="46.8914" lon="4.59856">
        <ele>298.29996</ele>
        <time>2022-03-12T12:51:37.000Z</time>
      </trkpt>
      <trkpt lat="46.8914" lon="4.5986">
        <ele>298.44995</ele>
        <time>2022-03-12T12:51:39.000Z</time>
      </trkpt>
      <trkpt lat="46.8914" lon="4.59865">
        <ele>298.59995</ele>
        <time>2022-03-12T12:51:41.000Z</time>
      </trkpt>
      <trkpt lat="46.8914" lon="4.59869">
        <ele>298.79996</ele>
        <time>2022-03-12T12:51:43.000Z</time>
      </trkpt>
      <trkpt lat="46.8914" lon="4.59872">
        <ele>298.99994</ele>
        <time>2022-03-12T12:51:45.000Z</time>
      </trkpt>
      <trkpt lat="46.89139" lon="4.59876">
        <ele>299.19995</ele>
        <time>2022-03-12T12:51:47.000Z</time>
      </trkpt>
      <trkpt lat="46.89139" lon="4.59879">
        <ele>299.39996</ele>
        <time>2022-03-12T12:51:49.000Z</time>
      </trkpt>
      <trkpt lat="46.89139" lon="4.59883">
        <ele>299.54996</ele>
        <time>2022-03-12T12:51:51.000Z</time>
      </trkpt>
      <trkpt lat="46.89139" lon="4.59887">
        <ele>299.59995</ele>
        <time>2022-03-12T12:51:53.000Z</time>
      </trkpt>
      <trkpt lat="46.89138" lon="4.5989">
        <ele>299.64996</ele>
        <time>2022-03-12T12:51:55.000Z</time>
      </trkpt>
      <trkpt lat="46.89138" lon="4.59894">
        <ele>299.69995</ele>
        <time>2022-03-12T12:51:57.000Z</time>
      </trkpt>
      <trkpt lat="46.89139" lon="4.59898">
        <ele>299.84995</ele>
        <time>2022-03-12T12:51:59.000Z</time>
      </trkpt>
      <trkpt lat="46.89138" lon="4.59901">
        <ele>299.89996</ele>
        <time>2022-03-12T12:52:01.000Z</time>
      </trkpt>
      <trkpt lat="46.89137" lon="4.59905">
        <ele>299.89996</ele>
        <time>2022-03-12T12:52:03.000Z</time>
      </trkpt>
      <trkpt lat="46.89136" lon="4.59908">
        <ele>299.89996</ele>
        <time>2022-03-12T12:52:05.000Z</time>
      </trkpt>
      <trkpt lat="46.89135" lon="4.59911">
        <ele>299.89996</ele>
        <time>2022-03-12T12:52:07.000Z</time>
      </trkpt>
      <trkpt lat="46.89135" lon="4.59915">
        <ele>299.79996</ele>
        <time>2022-03-12T12:52:09.000Z</time>
      </trkpt>
      <trkpt lat="46.89135" lon="4.59918">
        <ele>299.74994</ele>
        <time>2022-03-12T12:52:11.000Z</time>
      </trkpt>
      <trkpt lat="46.89135" lon="4.59921">
        <ele>299.74994</ele>
        <time>2022-03-12T12:52:13.000Z</time>
      </trkpt>
      <trkpt lat="46.89136" lon="4.59926">
        <ele>299.64996</ele>
        <time>2022-03-12T12:52:16.000Z</time>
      </trkpt>
      <trkpt lat="46.89137" lon="4.59929">
        <ele>299.54996</ele>
        <time>2022-03-12T12:52:19.000Z</time>
      </trkpt>
      <trkpt lat="46.89137" lon="4.59933">
        <ele>299.49994</ele>
        <time>2022-03-12T12:52:21.000Z</time>
      </trkpt>
      <trkpt lat="46.89137" lon="4.59938">
        <ele>299.39996</ele>
        <time>2022-03-12T12:52:24.000Z</time>
      </trkpt>
      <trkpt lat="46.89137" lon="4.59941">
        <ele>299.29996</ele>
        <time>2022-03-12T12:52:26.000Z</time>
      </trkpt>
      <trkpt lat="46.89138" lon="4.59945">
        <ele>299.19995</ele>
        <time>2022-03-12T12:52:28.000Z</time>
      </trkpt>
      <trkpt lat="46.89139" lon="4.59948">
        <ele>299.14996</ele>
        <time>2022-03-12T12:52:30.000Z</time>
      </trkpt>
      <trkpt lat="46.89138" lon="4.5995">
        <ele>299.14996</ele>
        <time>2022-03-12T12:52:32.000Z</time>
      </trkpt>
      <trkpt lat="46.89139" lon="4.59954">
        <ele>299.14996</ele>
        <time>2022-03-12T12:52:34.000Z</time>
      </trkpt>
      <trkpt lat="46.8914" lon="4.59957">
        <ele>299.19995</ele>
        <time>2022-03-12T12:52:36.000Z</time>
      </trkpt>
      <trkpt lat="46.89141" lon="4.59961">
        <ele>299.24994</ele>
        <time>2022-03-12T12:52:39.000Z</time>
      </trkpt>
      <trkpt lat="46.89141" lon="4.59965">
        <ele>299.29996</ele>
        <time>2022-03-12T12:52:41.000Z</time>
      </trkpt>
      <trkpt lat="46.89142" lon="4.59968">
        <ele>299.29996</ele>
        <time>2022-03-12T12:52:43.000Z</time>
      </trkpt>
      <trkpt lat="46.89142" lon="4.5997">
        <ele>299.34995</ele>
        <time>2022-03-12T12:52:45.000Z</time>
      </trkpt>
      <trkpt lat="46.89142" lon="4.59973">
        <ele>299.39996</ele>
        <time>2022-03-12T12:52:47.000Z</time>
      </trkpt>
      <trkpt lat="46.89143" lon="4.59976">
        <ele>299.49994</ele>
        <time>2022-03-12T12:52:49.000Z</time>
      </trkpt>
      <trkpt lat="46.89143" lon="4.59978">
        <ele>299.59995</ele>
        <time>2022-03-12T12:52:51.000Z</time>
      </trkpt>
      <trkpt lat="46.89144" lon="4.59982">
        <ele>299.79996</ele>
        <time>2022-03-12T12:52:53.000Z</time>
      </trkpt>
      <trkpt lat="46.89143" lon="4.59984">
        <ele>299.94995</ele>
        <time>2022-03-12T12:52:56.000Z</time>
      </trkpt>
      <trkpt lat="46.89142" lon="4.59987">
        <ele>300.09995</ele>
        <time>2022-03-12T12:52:58.000Z</time>
      </trkpt>
      <trkpt lat="46.89142" lon="4.5999">
        <ele>300.34995</ele>
        <time>2022-03-12T12:53:00.000Z</time>
      </trkpt>
      <trkpt lat="46.89142" lon="4.59993">
        <ele>300.59995</ele>
        <time>2022-03-12T12:53:03.000Z</time>
      </trkpt>
      <trkpt lat="46.89141" lon="4.59996">
        <ele>300.79996</ele>
        <time>2022-03-12T12:53:05.000Z</time>
      </trkpt>
      <trkpt lat="46.8914" lon="4.59999">
        <ele>301.09995</ele>
        <time>2022-03-12T12:53:07.000Z</time>
      </trkpt>
      <trkpt lat="46.89139" lon="4.60002">
        <ele>301.39996</ele>
        <time>2022-03-12T12:53:09.000Z</time>
      </trkpt>
      <trkpt lat="46.89138" lon="4.60005">
        <ele>301.74994</ele>
        <time>2022-03-12T12:53:11.000Z</time>
      </trkpt>
      <trkpt lat="46.89137" lon="4.60007">
        <ele>302.09995</ele>
        <time>2022-03-12T12:53:13.000Z</time>
      </trkpt>
      <trkpt lat="46.89136" lon="4.60011">
        <ele>302.49994</ele>
        <time>2022-03-12T12:53:15.000Z</time>
      </trkpt>
      <trkpt lat="46.89136" lon="4.60014">
        <ele>302.89996</ele>
        <time>2022-03-12T12:53:18.000Z</time>
      </trkpt>
      <trkpt lat="46.89135" lon="4.60019">
        <ele>303.34995</ele>
        <time>2022-03-12T12:53:22.000Z</time>
      </trkpt>
      <trkpt lat="46.89135" lon="4.60022">
        <ele>303.74994</ele>
        <time>2022-03-12T12:53:24.000Z</time>
      </trkpt>
      <trkpt lat="46.89135" lon="4.60025">
        <ele>304.14996</ele>
        <time>2022-03-12T12:53:26.000Z</time>
      </trkpt>
      <trkpt lat="46.89135" lon="4.60031">
        <ele>304.59995</ele>
        <time>2022-03-12T12:53:30.000Z</time>
      </trkpt>
      <trkpt lat="46.89135" lon="4.60035">
        <ele>305.09995</ele>
        <time>2022-03-12T12:53:33.000Z</time>
      </trkpt>
      <trkpt lat="46.89135" lon="4.60038">
        <ele>305.59995</ele>
        <time>2022-03-12T12:53:36.000Z</time>
      </trkpt>
      <trkpt lat="46.89135" lon="4.60043">
        <ele>306.04996</ele>
        <time>2022-03-12T12:53:39.000Z</time>
      </trkpt>
      <trkpt lat="46.89135" lon="4.60046">
        <ele>306.49994</ele>
        <time>2022-03-12T12:53:41.000Z</time>
      </trkpt>
      <trkpt lat="46.89134" lon="4.60049">
        <ele>306.94995</ele>
        <time>2022-03-12T12:53:43.000Z</time>
      </trkpt>
      <trkpt lat="46.89133" lon="4.60051">
        <ele>307.39996</ele>
        <time>2022-03-12T12:53:45.000Z</time>
      </trkpt>
      <trkpt lat="46.89132" lon="4.60054">
        <ele>307.79996</ele>
        <time>2022-03-12T12:53:48.000Z</time>
      </trkpt>
      <trkpt lat="46.89132" lon="4.60057">
        <ele>308.19995</ele>
        <time>2022-03-12T12:53:50.000Z</time>
      </trkpt>
      <trkpt lat="46.8913" lon="4.6006">
        <ele>308.64996</ele>
        <time>2022-03-12T12:53:54.000Z</time>
      </trkpt>
      <trkpt lat="46.89129" lon="4.60062">
        <ele>309.09995</ele>
        <time>2022-03-12T12:53:56.000Z</time>
      </trkpt>
      <trkpt lat="46.89127" lon="4.60064">
        <ele>309.49994</ele>
        <time>2022-03-12T12:53:59.000Z</time>
      </trkpt>
      <trkpt lat="46.89124" lon="4.60065">
        <ele>309.89996</ele>
        <time>2022-03-12T12:54:01.000Z</time>
      </trkpt>
      <trkpt lat="46.89122" lon="4.60067">
        <ele>310.24994</ele>
        <time>2022-03-12T12:54:03.000Z</time>
      </trkpt>
      <trkpt lat="46.8912" lon="4.60068">
        <ele>310.59995</ele>
        <time>2022-03-12T12:54:05.000Z</time>
      </trkpt>
      <trkpt lat="46.89118" lon="4.6007">
        <ele>310.94995</ele>
        <time>2022-03-12T12:54:08.000Z</time>
      </trkpt>
      <trkpt lat="46.89116" lon="4.60071">
        <ele>311.29996</ele>
        <time>2022-03-12T12:54:11.000Z</time>
      </trkpt>
      <trkpt lat="46.89113" lon="4.6007">
        <ele>311.64996</ele>
        <time>2022-03-12T12:54:14.000Z</time>
      </trkpt>
      <trkpt lat="46.89111" lon="4.60072">
        <ele>312.04996</ele>
        <time>2022-03-12T12:54:17.000Z</time>
      </trkpt>
      <trkpt lat="46.89109" lon="4.60073">
        <ele>312.39996</ele>
        <time>2022-03-12T12:54:21.000Z</time>
      </trkpt>
      <trkpt lat="46.89107" lon="4.60073">
        <ele>312.69995</ele>
        <time>2022-03-12T12:54:23.000Z</time>
      </trkpt>
      <trkpt lat="46.89104" lon="4.60073">
        <ele>312.94995</ele>
        <time>2022-03-12T12:54:25.000Z</time>
      </trkpt>
      <trkpt lat="46.89102" lon="4.60072">
        <ele>313.24994</ele>
        <time>2022-03-12T12:54:27.000Z</time>
      </trkpt>
      <trkpt lat="46.891" lon="4.60073">
        <ele>313.54996</ele>
        <time>2022-03-12T12:54:29.000Z</time>
      </trkpt>
      <trkpt lat="46.89098" lon="4.60074">
        <ele>313.84995</ele>
        <time>2022-03-12T12:54:31.000Z</time>
      </trkpt>
      <trkpt lat="46.89096" lon="4.60074">
        <ele>314.09995</ele>
        <time>2022-03-12T12:54:33.000Z</time>
      </trkpt>
      <trkpt lat="46.89093" lon="4.60076">
        <ele>314.34995</ele>
        <time>2022-03-12T12:54:35.000Z</time>
      </trkpt>
      <trkpt lat="46.89092" lon="4.60076">
        <ele>314.59995</ele>
        <time>2022-03-12T12:54:37.000Z</time>
      </trkpt>
      <trkpt lat="46.8909" lon="4.60077">
        <ele>314.79996</ele>
        <time>2022-03-12T12:54:39.000Z</time>
      </trkpt>
      <trkpt lat="46.89088" lon="4.60078">
        <ele>314.94995</ele>
        <time>2022-03-12T12:54:41.000Z</time>
      </trkpt>
      <trkpt lat="46.89085" lon="4.60079">
        <ele>315.19995</ele>
        <time>2022-03-12T12:54:44.000Z</time>
      </trkpt>
      <trkpt lat="46.89081" lon="4.6008">
        <ele>315.44995</ele>
        <time>2022-03-12T12:54:47.000Z</time>
      </trkpt>
      <trkpt lat="46.89079" lon="4.6008">
        <ele>315.74994</ele>
        <time>2022-03-12T12:54:49.000Z</time>
      </trkpt>
      <trkpt lat="46.89077" lon="4.60081">
        <ele>316.09995</ele>
        <time>2022-03-12T12:54:51.000Z</time>
      </trkpt>
      <trkpt lat="46.89075" lon="4.60083">
        <ele>316.39996</ele>
        <time>2022-03-12T12:54:53.000Z</time>
      </trkpt>
      <trkpt lat="46.89073" lon="4.60085">
        <ele>316.64996</ele>
        <time>2022-03-12T12:54:55.000Z</time>
      </trkpt>
      <trkpt lat="46.89072" lon="4.60087">
        <ele>316.94995</ele>
        <time>2022-03-12T12:54:57.000Z</time>
      </trkpt>
      <trkpt lat="46.8907" lon="4.60088">
        <ele>317.19995</ele>
        <time>2022-03-12T12:54:59.000Z</time>
      </trkpt>
      <trkpt lat="46.89068" lon="4.60089">
        <ele>317.54996</ele>
        <time>2022-03-12T12:55:02.000Z</time>
      </trkpt>
      <trkpt lat="46.89066" lon="4.60091">
        <ele>317.99994</ele>
        <time>2022-03-12T12:55:05.000Z</time>
      </trkpt>
      <trkpt lat="46.89063" lon="4.60095">
        <ele>318.54996</ele>
        <time>2022-03-12T12:55:09.000Z</time>
      </trkpt>
      <trkpt lat="46.89061" lon="4.60098">
        <ele>319.14996</ele>
        <time>2022-03-12T12:55:12.000Z</time>
      </trkpt>
      <trkpt lat="46.89062" lon="4.60101">
        <ele>319.69995</ele>
        <time>2022-03-12T12:55:16.000Z</time>
      </trkpt>
      <trkpt lat="46.89062" lon="4.60104">
        <ele>320.19995</ele>
        <time>2022-03-12T12:55:24.000Z</time>
      </trkpt>
      <trkpt lat="46.89062" lon="4.60107">
        <ele>320.64996</ele>
        <time>2022-03-12T12:55:26.000Z</time>
      </trkpt>
      <trkpt lat="46.8906" lon="4.6011">
        <ele>321.04996</ele>
        <time>2022-03-12T12:55:29.000Z</time>
      </trkpt>
      <trkpt lat="46.8906" lon="4.60113">
        <ele>321.44995</ele>
        <time>2022-03-12T12:55:31.000Z</time>
      </trkpt>
      <trkpt lat="46.8906" lon="4.60116">
        <ele>321.84995</ele>
        <time>2022-03-12T12:55:33.000Z</time>
      </trkpt>
      <trkpt lat="46.89059" lon="4.60119">
        <ele>322.24994</ele>
        <time>2022-03-12T12:55:35.000Z</time>
      </trkpt>
      <trkpt lat="46.89059" lon="4.60122">
        <ele>322.64996</ele>
        <time>2022-03-12T12:55:37.000Z</time>
      </trkpt>
      <trkpt lat="46.89059" lon="4.60125">
        <ele>322.94995</ele>
        <time>2022-03-12T12:55:39.000Z</time>
      </trkpt>
      <trkpt lat="46.89059" lon="4.60128">
        <ele>323.29996</ele>
        <time>2022-03-12T12:55:41.000Z</time>
      </trkpt>
      <trkpt lat="46.8906" lon="4.60132">
        <ele>323.54996</ele>
        <time>2022-03-12T12:55:44.000Z</time>
      </trkpt>
      <trkpt lat="46.8906" lon="4.60136">
        <ele>323.74994</ele>
        <time>2022-03-12T12:55:47.000Z</time>
      </trkpt>
      <trkpt lat="46.89059" lon="4.6014">
        <ele>323.94995</ele>
        <time>2022-03-12T12:55:50.000Z</time>
      </trkpt>
      <trkpt lat="46.89059" lon="4.60144">
        <ele>324.19995</ele>
        <time>2022-03-12T12:55:53.000Z</time>
      </trkpt>
      <trkpt lat="46.89058" lon="4.60147">
        <ele>324.44995</ele>
        <time>2022-03-12T12:55:55.000Z</time>
      </trkpt>
      <trkpt lat="46.89057" lon="4.6015">
        <ele>324.69995</ele>
        <time>2022-03-12T12:55:59.000Z</time>
      </trkpt>
      <trkpt lat="46.89056" lon="4.60153">
        <ele>324.84995</ele>
        <time>2022-03-12T12:56:01.000Z</time>
      </trkpt>
      <trkpt lat="46.89056" lon="4.60156">
        <ele>324.94995</ele>
        <time>2022-03-12T12:56:03.000Z</time>
      </trkpt>
      <trkpt lat="46.89055" lon="4.6016">
        <ele>324.94995</ele>
        <time>2022-03-12T12:56:05.000Z</time>
      </trkpt>
      <trkpt lat="46.89055" lon="4.60163">
        <ele>324.89996</ele>
        <time>2022-03-12T12:56:07.000Z</time>
      </trkpt>
      <trkpt lat="46.89055" lon="4.60166">
        <ele>324.84995</ele>
        <time>2022-03-12T12:56:09.000Z</time>
      </trkpt>
      <trkpt lat="46.89056" lon="4.60169">
        <ele>324.84995</ele>
        <time>2022-03-12T12:56:11.000Z</time>
      </trkpt>
      <trkpt lat="46.89058" lon="4.60172">
        <ele>324.89996</ele>
        <time>2022-03-12T12:56:13.000Z</time>
      </trkpt>
      <trkpt lat="46.89058" lon="4.60175">
        <ele>324.94995</ele>
        <time>2022-03-12T12:56:15.000Z</time>
      </trkpt>
      <trkpt lat="46.89058" lon="4.60178">
        <ele>324.99994</ele>
        <time>2022-03-12T12:56:17.000Z</time>
      </trkpt>
      <trkpt lat="46.89059" lon="4.60182">
        <ele>325.09995</ele>
        <time>2022-03-12T12:56:20.000Z</time>
      </trkpt>
      <trkpt lat="46.8906" lon="4.60185">
        <ele>325.19995</ele>
        <time>2022-03-12T12:56:22.000Z</time>
      </trkpt>
      <trkpt lat="46.89061" lon="4.60189">
        <ele>325.24994</ele>
        <time>2022-03-12T12:56:25.000Z</time>
      </trkpt>
      <trkpt lat="46.89062" lon="4.60192">
        <ele>325.29996</ele>
        <time>2022-03-12T12:56:27.000Z</time>
      </trkpt>
      <trkpt lat="46.89063" lon="4.60195">
        <ele>325.29996</ele>
        <time>2022-03-12T12:56:30.000Z</time>
      </trkpt>
      <trkpt lat="46.89063" lon="4.60198">
        <ele>325.34995</ele>
        <time>2022-03-12T12:56:32.000Z</time>
      </trkpt>
      <trkpt lat="46.89062" lon="4.60201">
        <ele>325.44995</ele>
        <time>2022-03-12T12:56:35.000Z</time>
      </trkpt>
      <trkpt lat="46.89063" lon="4.60204">
        <ele>325.59995</ele>
        <time>2022-03-12T12:56:38.000Z</time>
      </trkpt>
      <trkpt lat="46.89064" lon="4.60207">
        <ele>325.74994</ele>
        <time>2022-03-12T12:56:41.000Z</time>
      </trkpt>
      <trkpt lat="46.89065" lon="4.60211">
        <ele>325.79996</ele>
        <time>2022-03-12T12:56:43.000Z</time>
      </trkpt>
      <trkpt lat="46.89065" lon="4.60214">
        <ele>325.84995</ele>
        <time>2022-03-12T12:56:45.000Z</time>
      </trkpt>
      <trkpt lat="46.89065" lon="4.60217">
        <ele>325.94995</ele>
        <time>2022-03-12T12:56:47.000Z</time>
      </trkpt>
      <trkpt lat="46.89067" lon="4.60219">
        <ele>326.04996</ele>
        <time>2022-03-12T12:56:49.000Z</time>
      </trkpt>
      <trkpt lat="46.89069" lon="4.60222">
        <ele>326.24994</ele>
        <time>2022-03-12T12:56:52.000Z</time>
      </trkpt>
      <trkpt lat="46.8907" lon="4.60224">
        <ele>326.44995</ele>
        <time>2022-03-12T12:56:54.000Z</time>
      </trkpt>
      <trkpt lat="46.89072" lon="4.60226">
        <ele>326.69995</ele>
        <time>2022-03-12T12:56:57.000Z</time>
      </trkpt>
      <trkpt lat="46.89073" lon="4.6023">
        <ele>326.89996</ele>
        <time>2022-03-12T12:57:00.000Z</time>
      </trkpt>
      <trkpt lat="46.89074" lon="4.60233">
        <ele>327.09995</ele>
        <time>2022-03-12T12:57:02.000Z</time>
      </trkpt>
      <trkpt lat="46.89075" lon="4.60236">
        <ele>327.34995</ele>
        <time>2022-03-12T12:57:04.000Z</time>
      </trkpt>
      <trkpt lat="46.89076" lon="4.60239">
        <ele>327.64996</ele>
        <time>2022-03-12T12:57:06.000Z</time>
      </trkpt>
      <trkpt lat="46.89078" lon="4.60241">
        <ele>327.89996</ele>
        <time>2022-03-12T12:57:08.000Z</time>
      </trkpt>
      <trkpt lat="46.8908" lon="4.60244">
        <ele>328.09995</ele>
        <time>2022-03-12T12:57:10.000Z</time>
      </trkpt>
      <trkpt lat="46.89082" lon="4.60246">
        <ele>328.39996</ele>
        <time>2022-03-12T12:57:12.000Z</time>
      </trkpt>
      <trkpt lat="46.89084" lon="4.60249">
        <ele>328.69995</ele>
        <time>2022-03-12T12:57:14.000Z</time>
      </trkpt>
      <trkpt lat="46.89086" lon="4.60252">
        <ele>329.04996</ele>
        <time>2022-03-12T12:57:17.000Z</time>
      </trkpt>
      <trkpt lat="46.89088" lon="4.60253">
        <ele>329.39996</ele>
        <time>2022-03-12T12:57:18.000Z</time>
      </trkpt>
      <trkpt lat="46.8909" lon="4.60255">
        <ele>329.69995</ele>
        <time>2022-03-12T12:57:20.000Z</time>
      </trkpt>
      <trkpt lat="46.89091" lon="4.60258">
        <ele>329.89996</ele>
        <time>2022-03-12T12:57:22.000Z</time>
      </trkpt>
      <trkpt lat="46.89093" lon="4.60259">
        <ele>330.04996</ele>
        <time>2022-03-12T12:57:24.000Z</time>
      </trkpt>
      <trkpt lat="46.89095" lon="4.6026">
        <ele>330.24994</ele>
        <time>2022-03-12T12:57:26.000Z</time>
      </trkpt>
      <trkpt lat="46.89097" lon="4.60262">
        <ele>330.44995</ele>
        <time>2022-03-12T12:57:28.000Z</time>
      </trkpt>
      <trkpt lat="46.891" lon="4.60264">
        <ele>330.64996</ele>
        <time>2022-03-12T12:57:31.000Z</time>
      </trkpt>
      <trkpt lat="46.89101" lon="4.60267">
        <ele>330.84995</ele>
        <time>2022-03-12T12:57:34.000Z</time>
      </trkpt>
      <trkpt lat="46.89102" lon="4.6027">
        <ele>330.89996</ele>
        <time>2022-03-12T12:57:41.000Z</time>
      </trkpt>
      <trkpt lat="46.89103" lon="4.60273">
        <ele>330.94995</ele>
        <time>2022-03-12T12:57:44.000Z</time>
      </trkpt>
      <trkpt lat="46.89104" lon="4.60275">
        <ele>330.94995</ele>
        <time>2022-03-12T12:57:47.000Z</time>
      </trkpt>
      <trkpt lat="46.89106" lon="4.60277">
        <ele>331.09995</ele>
        <time>2022-03-12T12:57:53.000Z</time>
      </trkpt>
      <trkpt lat="46.89108" lon="4.60279">
        <ele>331.29996</ele>
        <time>2022-03-12T12:57:56.000Z</time>
      </trkpt>
      <trkpt lat="46.89111" lon="4.60282">
        <ele>331.44995</ele>
        <time>2022-03-12T12:58:03.000Z</time>
      </trkpt>
      <trkpt lat="46.89112" lon="4.60284">
        <ele>331.54996</ele>
        <time>2022-03-12T12:58:07.000Z</time>
      </trkpt>
      <trkpt lat="46.89114" lon="4.60287">
        <ele>331.69995</ele>
        <time>2022-03-12T12:58:10.000Z</time>
      </trkpt>
      <trkpt lat="46.89116" lon="4.60288">
        <ele>331.84995</ele>
        <time>2022-03-12T12:58:12.000Z</time>
      </trkpt>
      <trkpt lat="46.89117" lon="4.60289">
        <ele>331.99994</ele>
        <time>2022-03-12T12:58:14.000Z</time>
      </trkpt>
      <trkpt lat="46.89119" lon="4.6029">
        <ele>332.19995</ele>
        <time>2022-03-12T12:58:18.000Z</time>
      </trkpt>
      <trkpt lat="46.89122" lon="4.60291">
        <ele>332.29996</ele>
        <time>2022-03-12T12:58:23.000Z</time>
      </trkpt>
      <trkpt lat="46.89123" lon="4.60293">
        <ele>332.34995</ele>
        <time>2022-03-12T12:58:27.000Z</time>
      </trkpt>
      <trkpt lat="46.89125" lon="4.60295">
        <ele>332.34995</ele>
        <time>2022-03-12T12:58:30.000Z</time>
      </trkpt>
      <trkpt lat="46.89127" lon="4.60296">
        <ele>332.39996</ele>
        <time>2022-03-12T12:58:35.000Z</time>
      </trkpt>
      <trkpt lat="46.89129" lon="4.60298">
        <ele>332.49994</ele>
        <time>2022-03-12T12:58:38.000Z</time>
      </trkpt>
      <trkpt lat="46.89129" lon="4.60302">
        <ele>332.64996</ele>
        <time>2022-03-12T12:58:41.000Z</time>
      </trkpt>
      <trkpt lat="46.8913" lon="4.60305">
        <ele>332.79996</ele>
        <time>2022-03-12T12:58:44.000Z</time>
      </trkpt>
      <trkpt lat="46.8913" lon="4.6031">
        <ele>332.89996</ele>
        <time>2022-03-12T12:58:48.000Z</time>
      </trkpt>
      <trkpt lat="46.89129" lon="4.60314">
        <ele>332.99994</ele>
        <time>2022-03-12T12:58:50.000Z</time>
      </trkpt>
      <trkpt lat="46.89128" lon="4.60318">
        <ele>333.14996</ele>
        <time>2022-03-12T12:58:52.000Z</time>
      </trkpt>
      <trkpt lat="46.89128" lon="4.60321">
        <ele>333.34995</ele>
        <time>2022-03-12T12:58:55.000Z</time>
      </trkpt>
      <trkpt lat="46.89127" lon="4.60325">
        <ele>333.54996</ele>
        <time>2022-03-12T12:58:57.000Z</time>
      </trkpt>
      <trkpt lat="46.89128" lon="4.60328">
        <ele>333.64996</ele>
        <time>2022-03-12T12:58:59.000Z</time>
      </trkpt>
      <trkpt lat="46.89126" lon="4.60332">
        <ele>333.69995</ele>
        <time>2022-03-12T12:59:02.000Z</time>
      </trkpt>
      <trkpt lat="46.89125" lon="4.60335">
        <ele>333.74994</ele>
        <time>2022-03-12T12:59:04.000Z</time>
      </trkpt>
      <trkpt lat="46.89124" lon="4.60338">
        <ele>333.84995</ele>
        <time>2022-03-12T12:59:06.000Z</time>
      </trkpt>
      <trkpt lat="46.89124" lon="4.60341">
        <ele>333.94995</ele>
        <time>2022-03-12T12:59:08.000Z</time>
      </trkpt>
      <trkpt lat="46.89124" lon="4.60344">
        <ele>334.14996</ele>
        <time>2022-03-12T12:59:11.000Z</time>
      </trkpt>
      <trkpt lat="46.89123" lon="4.60347">
        <ele>334.34995</ele>
        <time>2022-03-12T12:59:15.000Z</time>
      </trkpt>
      <trkpt lat="46.89125" lon="4.60349">
        <ele>334.49994</ele>
        <time>2022-03-12T12:59:19.000Z</time>
      </trkpt>
      <trkpt lat="46.89124" lon="4.60352">
        <ele>334.79996</ele>
        <time>2022-03-12T12:59:23.000Z</time>
      </trkpt>
      <trkpt lat="46.89124" lon="4.60356">
        <ele>335.19995</ele>
        <time>2022-03-12T12:59:27.000Z</time>
      </trkpt>
      <trkpt lat="46.89124" lon="4.60359">
        <ele>335.64996</ele>
        <time>2022-03-12T12:59:29.000Z</time>
      </trkpt>
      <trkpt lat="46.89124" lon="4.60362">
        <ele>336.09995</ele>
        <time>2022-03-12T12:59:31.000Z</time>
      </trkpt>
      <trkpt lat="46.89123" lon="4.60365">
        <ele>336.49994</ele>
        <time>2022-03-12T12:59:33.000Z</time>
      </trkpt>
      <trkpt lat="46.89123" lon="4.60368">
        <ele>336.79996</ele>
        <time>2022-03-12T12:59:35.000Z</time>
      </trkpt>
      <trkpt lat="46.89123" lon="4.60372">
        <ele>337.09995</ele>
        <time>2022-03-12T12:59:38.000Z</time>
      </trkpt>
      <trkpt lat="46.89122" lon="4.60376">
        <ele>337.44995</ele>
        <time>2022-03-12T12:59:41.000Z</time>
      </trkpt>
      <trkpt lat="46.89121" lon="4.60379">
        <ele>337.74994</ele>
        <time>2022-03-12T12:59:44.000Z</time>
      </trkpt>
      <trkpt lat="46.89121" lon="4.60382">
        <ele>338.04996</ele>
        <time>2022-03-12T12:59:46.000Z</time>
      </trkpt>
      <trkpt lat="46.89122" lon="4.60385">
        <ele>338.34995</ele>
        <time>2022-03-12T12:59:48.000Z</time>
      </trkpt>
      <trkpt lat="46.89122" lon="4.60388">
        <ele>338.59995</ele>
        <time>2022-03-12T12:59:50.000Z</time>
      </trkpt>
      <trkpt lat="46.89121" lon="4.60392">
        <ele>338.89996</ele>
        <time>2022-03-12T12:59:54.000Z</time>
      </trkpt>
      <trkpt lat="46.89122" lon="4.60395">
        <ele>339.19995</ele>
        <time>2022-03-12T12:59:57.000Z</time>
      </trkpt>
      <trkpt lat="46.89123" lon="4.60398">
        <ele>339.59995</ele>
        <time>2022-03-12T13:00:00.000Z</time>
      </trkpt>
      <trkpt lat="46.89124" lon="4.60401">
        <ele>339.94995</ele>
        <time>2022-03-12T13:00:02.000Z</time>
      </trkpt>
      <trkpt lat="46.89124" lon="4.60403">
        <ele>340.29996</ele>
        <time>2022-03-12T13:00:05.000Z</time>
      </trkpt>
      <trkpt lat="46.89124" lon="4.60407">
        <ele>340.59995</ele>
        <time>2022-03-12T13:00:08.000Z</time>
      </trkpt>
      <trkpt lat="46.89125" lon="4.6041">
        <ele>340.89996</ele>
        <time>2022-03-12T13:00:11.000Z</time>
      </trkpt>
      <trkpt lat="46.89125" lon="4.60414">
        <ele>341.19995</ele>
        <time>2022-03-12T13:00:13.000Z</time>
      </trkpt>
      <trkpt lat="46.89126" lon="4.60416">
        <ele>341.39996</ele>
        <time>2022-03-12T13:00:15.000Z</time>
      </trkpt>
      <trkpt lat="46.89127" lon="4.60419">
        <ele>341.59995</ele>
        <time>2022-03-12T13:00:18.000Z</time>
      </trkpt>
      <trkpt lat="46.89126" lon="4.60424">
        <ele>341.79996</ele>
        <time>2022-03-12T13:00:21.000Z</time>
      </trkpt>
      <trkpt lat="46.89127" lon="4.60427">
        <ele>341.99994</ele>
        <time>2022-03-12T13:00:23.000Z</time>
      </trkpt>
      <trkpt lat="46.89127" lon="4.6043">
        <ele>342.24994</ele>
        <time>2022-03-12T13:00:25.000Z</time>
      </trkpt>
      <trkpt lat="46.89127" lon="4.60433">
        <ele>342.49994</ele>
        <time>2022-03-12T13:00:27.000Z</time>
      </trkpt>
      <trkpt lat="46.89127" lon="4.60436">
        <ele>342.74994</ele>
        <time>2022-03-12T13:00:29.000Z</time>
      </trkpt>
      <trkpt lat="46.89127" lon="4.6044">
        <ele>342.99994</ele>
        <time>2022-03-12T13:00:33.000Z</time>
      </trkpt>
      <trkpt lat="46.89127" lon="4.60443">
        <ele>343.34995</ele>
        <time>2022-03-12T13:00:35.000Z</time>
      </trkpt>
      <trkpt lat="46.89128" lon="4.60446">
        <ele>343.79996</ele>
        <time>2022-03-12T13:00:40.000Z</time>
      </trkpt>
      <trkpt lat="46.89129" lon="4.60449">
        <ele>344.24994</ele>
        <time>2022-03-12T13:00:43.000Z</time>
      </trkpt>
      <trkpt lat="46.89129" lon="4.60452">
        <ele>344.74994</ele>
        <time>2022-03-12T13:00:45.000Z</time>
      </trkpt>
      <trkpt lat="46.89129" lon="4.60454">
        <ele>345.19995</ele>
        <time>2022-03-12T13:00:47.000Z</time>
      </trkpt>
      <trkpt lat="46.89131" lon="4.60457">
        <ele>345.69995</ele>
        <time>2022-03-12T13:00:50.000Z</time>
      </trkpt>
      <trkpt lat="46.89131" lon="4.6046">
        <ele>346.14996</ele>
        <time>2022-03-12T13:00:52.000Z</time>
      </trkpt>
      <trkpt lat="46.89132" lon="4.60465">
        <ele>346.59995</ele>
        <time>2022-03-12T13:00:54.000Z</time>
      </trkpt>
      <trkpt lat="46.89134" lon="4.60467">
        <ele>346.99994</ele>
        <time>2022-03-12T13:00:56.000Z</time>
      </trkpt>
      <trkpt lat="46.89135" lon="4.6047">
        <ele>347.39996</ele>
        <time>2022-03-12T13:00:59.000Z</time>
      </trkpt>
      <trkpt lat="46.89136" lon="4.60473">
        <ele>347.79996</ele>
        <time>2022-03-12T13:01:01.000Z</time>
      </trkpt>
      <trkpt lat="46.89137" lon="4.60476">
        <ele>348.19995</ele>
        <time>2022-03-12T13:01:03.000Z</time>
      </trkpt>
      <trkpt lat="46.89139" lon="4.60478">
        <ele>348.59995</ele>
        <time>2022-03-12T13:01:05.000Z</time>
      </trkpt>
      <trkpt lat="46.8914" lon="4.60481">
        <ele>348.94995</ele>
        <time>2022-03-12T13:01:07.000Z</time>
      </trkpt>
      <trkpt lat="46.89141" lon="4.60484">
        <ele>349.24994</ele>
        <time>2022-03-12T13:01:09.000Z</time>
      </trkpt>
      <trkpt lat="46.89141" lon="4.60487">
        <ele>349.49994</ele>
        <time>2022-03-12T13:01:12.000Z</time>
      </trkpt>
      <trkpt lat="46.89142" lon="4.6049">
        <ele>349.79996</ele>
        <time>2022-03-12T13:01:15.000Z</time>
      </trkpt>
      <trkpt lat="46.89145" lon="4.60491">
        <ele>350.14996</ele>
        <time>2022-03-12T13:01:17.000Z</time>
      </trkpt>
      <trkpt lat="46.89146" lon="4.60493">
        <ele>350.54996</ele>
        <time>2022-03-12T13:01:19.000Z</time>
      </trkpt>
      <trkpt lat="46.89148" lon="4.60494">
        <ele>350.94995</ele>
        <time>2022-03-12T13:01:21.000Z</time>
      </trkpt>
      <trkpt lat="46.89151" lon="4.60496">
        <ele>351.34995</ele>
        <time>2022-03-12T13:01:24.000Z</time>
      </trkpt>
      <trkpt lat="46.89152" lon="4.60498">
        <ele>351.64996</ele>
        <time>2022-03-12T13:01:26.000Z</time>
      </trkpt>
      <trkpt lat="46.89154" lon="4.605">
        <ele>351.94995</ele>
        <time>2022-03-12T13:01:28.000Z</time>
      </trkpt>
      <trkpt lat="46.89156" lon="4.60501">
        <ele>352.24994</ele>
        <time>2022-03-12T13:01:30.000Z</time>
      </trkpt>
      <trkpt lat="46.89159" lon="4.60503">
        <ele>352.59995</ele>
        <time>2022-03-12T13:01:34.000Z</time>
      </trkpt>
      <trkpt lat="46.8916" lon="4.60506">
        <ele>352.89996</ele>
        <time>2022-03-12T13:01:37.000Z</time>
      </trkpt>
      <trkpt lat="46.89163" lon="4.6051">
        <ele>353.14996</ele>
        <time>2022-03-12T13:01:40.000Z</time>
      </trkpt>
      <trkpt lat="46.89165" lon="4.60513">
        <ele>353.44995</ele>
        <time>2022-03-12T13:01:43.000Z</time>
      </trkpt>
      <trkpt lat="46.89166" lon="4.60516">
        <ele>353.69995</ele>
        <time>2022-03-12T13:01:45.000Z</time>
      </trkpt>
      <trkpt lat="46.89167" lon="4.6052">
        <ele>353.94995</ele>
        <time>2022-03-12T13:01:47.000Z</time>
      </trkpt>
      <trkpt lat="46.89168" lon="4.60524">
        <ele>354.19995</ele>
        <time>2022-03-12T13:01:50.000Z</time>
      </trkpt>
      <trkpt lat="46.8917" lon="4.60526">
        <ele>354.49994</ele>
        <time>2022-03-12T13:01:52.000Z</time>
      </trkpt>
      <trkpt lat="46.89171" lon="4.60528">
        <ele>354.74994</ele>
        <time>2022-03-12T13:01:54.000Z</time>
      </trkpt>
      <trkpt lat="46.89172" lon="4.60531">
        <ele>354.99994</ele>
        <time>2022-03-12T13:01:56.000Z</time>
      </trkpt>
      <trkpt lat="46.89173" lon="4.60534">
        <ele>355.29996</ele>
        <time>2022-03-12T13:01:58.000Z</time>
      </trkpt>
      <trkpt lat="46.89174" lon="4.60537">
        <ele>355.64996</ele>
        <time>2022-03-12T13:02:00.000Z</time>
      </trkpt>
      <trkpt lat="46.89176" lon="4.60539">
        <ele>355.94995</ele>
        <time>2022-03-12T13:02:02.000Z</time>
      </trkpt>
      <trkpt lat="46.89178" lon="4.60542">
        <ele>356.24994</ele>
        <time>2022-03-12T13:02:04.000Z</time>
      </trkpt>
      <trkpt lat="46.89179" lon="4.60545">
        <ele>356.49994</ele>
        <time>2022-03-12T13:02:06.000Z</time>
      </trkpt>
      <trkpt lat="46.89179" lon="4.60548">
        <ele>356.69995</ele>
        <time>2022-03-12T13:02:09.000Z</time>
      </trkpt>
      <trkpt lat="46.8918" lon="4.60551">
        <ele>356.84995</ele>
        <time>2022-03-12T13:02:11.000Z</time>
      </trkpt>
      <trkpt lat="46.89181" lon="4.60554">
        <ele>357.04996</ele>
        <time>2022-03-12T13:02:13.000Z</time>
      </trkpt>
      <trkpt lat="46.89182" lon="4.60557">
        <ele>357.19995</ele>
        <time>2022-03-12T13:02:15.000Z</time>
      </trkpt>
      <trkpt lat="46.89183" lon="4.6056">
        <ele>357.29996</ele>
        <time>2022-03-12T13:02:17.000Z</time>
      </trkpt>
      <trkpt lat="46.89185" lon="4.60563">
        <ele>357.34995</ele>
        <time>2022-03-12T13:02:19.000Z</time>
      </trkpt>
      <trkpt lat="46.89186" lon="4.60566">
        <ele>357.44995</ele>
        <time>2022-03-12T13:02:21.000Z</time>
      </trkpt>
      <trkpt lat="46.89187" lon="4.60569">
        <ele>357.59995</ele>
        <time>2022-03-12T13:02:23.000Z</time>
      </trkpt>
      <trkpt lat="46.89188" lon="4.60572">
        <ele>357.74994</ele>
        <time>2022-03-12T13:02:25.000Z</time>
      </trkpt>
      <trkpt lat="46.89189" lon="4.60574">
        <ele>357.94995</ele>
        <time>2022-03-12T13:02:27.000Z</time>
      </trkpt>
      <trkpt lat="46.89191" lon="4.60577">
        <ele>358.19995</ele>
        <time>2022-03-12T13:02:30.000Z</time>
      </trkpt>
      <trkpt lat="46.89193" lon="4.6058">
        <ele>358.34995</ele>
        <time>2022-03-12T13:02:32.000Z</time>
      </trkpt>
      <trkpt lat="46.89194" lon="4.60583">
        <ele>358.49994</ele>
        <time>2022-03-12T13:02:34.000Z</time>
      </trkpt>
      <trkpt lat="46.89195" lon="4.60586">
        <ele>358.69995</ele>
        <time>2022-03-12T13:02:36.000Z</time>
      </trkpt>
      <trkpt lat="46.89195" lon="4.60589">
        <ele>358.94995</ele>
        <time>2022-03-12T13:02:39.000Z</time>
      </trkpt>
      <trkpt lat="46.89197" lon="4.60593">
        <ele>359.19995</ele>
        <time>2022-03-12T13:02:42.000Z</time>
      </trkpt>
      <trkpt lat="46.89197" lon="4.60596">
        <ele>359.44995</ele>
        <time>2022-03-12T13:02:44.000Z</time>
      </trkpt>
      <trkpt lat="46.89197" lon="4.60599">
        <ele>359.64996</ele>
        <time>2022-03-12T13:02:46.000Z</time>
      </trkpt>
      <trkpt lat="46.89197" lon="4.60603">
        <ele>359.84995</ele>
        <time>2022-03-12T13:02:48.000Z</time>
      </trkpt>
      <trkpt lat="46.89197" lon="4.60607">
        <ele>360.04996</ele>
        <time>2022-03-12T13:02:50.000Z</time>
      </trkpt>
      <trkpt lat="46.89197" lon="4.6061">
        <ele>360.29996</ele>
        <time>2022-03-12T13:02:52.000Z</time>
      </trkpt>
      <trkpt lat="46.89198" lon="4.60613">
        <ele>360.49994</ele>
        <time>2022-03-12T13:02:54.000Z</time>
      </trkpt>
      <trkpt lat="46.89199" lon="4.60616">
        <ele>360.64996</ele>
        <time>2022-03-12T13:02:56.000Z</time>
      </trkpt>
      <trkpt lat="46.892" lon="4.60618">
        <ele>360.84995</ele>
        <time>2022-03-12T13:02:58.000Z</time>
      </trkpt>
      <trkpt lat="46.89199" lon="4.60622">
        <ele>361.09995</ele>
        <time>2022-03-12T13:03:00.000Z</time>
      </trkpt>
      <trkpt lat="46.89199" lon="4.60625">
        <ele>361.34995</ele>
        <time>2022-03-12T13:03:02.000Z</time>
      </trkpt>
      <trkpt lat="46.892" lon="4.60629">
        <ele>361.54996</ele>
        <time>2022-03-12T13:03:05.000Z</time>
      </trkpt>
      <trkpt lat="46.89201" lon="4.60633">
        <ele>361.79996</ele>
        <time>2022-03-12T13:03:08.000Z</time>
      </trkpt>
      <trkpt lat="46.892" lon="4.60635">
        <ele>362.04996</ele>
        <time>2022-03-12T13:03:10.000Z</time>
      </trkpt>
      <trkpt lat="46.89199" lon="4.60639">
        <ele>362.24994</ele>
        <time>2022-03-12T13:03:13.000Z</time>
      </trkpt>
      <trkpt lat="46.89198" lon="4.60642">
        <ele>362.44995</ele>
        <time>2022-03-12T13:03:15.000Z</time>
      </trkpt>
      <trkpt lat="46.89199" lon="4.60646">
        <ele>362.64996</ele>
        <time>2022-03-12T13:03:18.000Z</time>
      </trkpt>
      <trkpt lat="46.892" lon="4.60649">
        <ele>362.79996</ele>
        <time>2022-03-12T13:03:20.000Z</time>
      </trkpt>
      <trkpt lat="46.892" lon="4.60653">
        <ele>362.94995</ele>
        <time>2022-03-12T13:03:22.000Z</time>
      </trkpt>
      <trkpt lat="46.89202" lon="4.60657">
        <ele>363.04996</ele>
        <time>2022-03-12T13:03:24.000Z</time>
      </trkpt>
      <trkpt lat="46.89202" lon="4.6066">
        <ele>363.14996</ele>
        <time>2022-03-12T13:03:26.000Z</time>
      </trkpt>
      <trkpt lat="46.89203" lon="4.60663">
        <ele>363.29996</ele>
        <time>2022-03-12T13:03:28.000Z</time>
      </trkpt>
      <trkpt lat="46.89205" lon="4.60667">
        <ele>363.39996</ele>
        <time>2022-03-12T13:03:31.000Z</time>
      </trkpt>
      <trkpt lat="46.89205" lon="4.6067">
        <ele>363.49994</ele>
        <time>2022-03-12T13:03:33.000Z</time>
      </trkpt>
      <trkpt lat="46.89206" lon="4.60673">
        <ele>363.64996</ele>
        <time>2022-03-12T13:03:35.000Z</time>
      </trkpt>
      <trkpt lat="46.89206" lon="4.60677">
        <ele>363.74994</ele>
        <time>2022-03-12T13:03:37.000Z</time>
      </trkpt>
      <trkpt lat="46.89207" lon="4.60681">
        <ele>363.89996</ele>
        <time>2022-03-12T13:03:40.000Z</time>
      </trkpt>
      <trkpt lat="46.89208" lon="4.60683">
        <ele>364.09995</ele>
        <time>2022-03-12T13:03:42.000Z</time>
      </trkpt>
      <trkpt lat="46.89209" lon="4.60686">
        <ele>364.24994</ele>
        <time>2022-03-12T13:03:44.000Z</time>
      </trkpt>
      <trkpt lat="46.89209" lon="4.60688">
        <ele>364.39996</ele>
        <time>2022-03-12T13:03:46.000Z</time>
      </trkpt>
      <trkpt lat="46.8921" lon="4.60692">
        <ele>364.54996</ele>
        <time>2022-03-12T13:03:49.000Z</time>
      </trkpt>
      <trkpt lat="46.89211" lon="4.60694">
        <ele>364.69995</ele>
        <time>2022-03-12T13:03:51.000Z</time>
      </trkpt>
      <trkpt lat="46.89211" lon="4.60697">
        <ele>364.84995</ele>
        <time>2022-03-12T13:03:53.000Z</time>
      </trkpt>
      <trkpt lat="46.89211" lon="4.607">
        <ele>364.94995</ele>
        <time>2022-03-12T13:03:55.000Z</time>
      </trkpt>
      <trkpt lat="46.89212" lon="4.60703">
        <ele>365.09995</ele>
        <time>2022-03-12T13:03:58.000Z</time>
      </trkpt>
      <trkpt lat="46.89211" lon="4.60706">
        <ele>365.19995</ele>
        <time>2022-03-12T13:04:00.000Z</time>
      </trkpt>
      <trkpt lat="46.8921" lon="4.60709">
        <ele>365.34995</ele>
        <time>2022-03-12T13:04:03.000Z</time>
      </trkpt>
      <trkpt lat="46.89208" lon="4.60709">
        <ele>365.54996</ele>
        <time>2022-03-12T13:04:06.000Z</time>
      </trkpt>
      <trkpt lat="46.89205" lon="4.60709">
        <ele>365.74994</ele>
        <time>2022-03-12T13:04:09.000Z</time>
      </trkpt>
      <trkpt lat="46.89203" lon="4.60709">
        <ele>365.94995</ele>
        <time>2022-03-12T13:04:11.000Z</time>
      </trkpt>
      <trkpt lat="46.892" lon="4.60708">
        <ele>366.19995</ele>
        <time>2022-03-12T13:04:14.000Z</time>
      </trkpt>
      <trkpt lat="46.89197" lon="4.60708">
        <ele>366.39996</ele>
        <time>2022-03-12T13:04:16.000Z</time>
      </trkpt>
      <trkpt lat="46.89193" lon="4.60708">
        <ele>366.74994</ele>
        <time>2022-03-12T13:04:20.000Z</time>
      </trkpt>
      <trkpt lat="46.89191" lon="4.60708">
        <ele>367.09995</ele>
        <time>2022-03-12T13:04:22.000Z</time>
      </trkpt>
      <trkpt lat="46.89188" lon="4.60708">
        <ele>367.39996</ele>
        <time>2022-03-12T13:04:24.000Z</time>
      </trkpt>
      <trkpt lat="46.89186" lon="4.6071">
        <ele>367.69995</ele>
        <time>2022-03-12T13:04:26.000Z</time>
      </trkpt>
      <trkpt lat="46.89184" lon="4.60711">
        <ele>368.04996</ele>
        <time>2022-03-12T13:04:28.000Z</time>
      </trkpt>
      <trkpt lat="46.89182" lon="4.60711">
        <ele>368.34995</ele>
        <time>2022-03-12T13:04:30.000Z</time>
      </trkpt>
      <trkpt lat="46.89178" lon="4.60711">
        <ele>368.64996</ele>
        <time>2022-03-12T13:04:33.000Z</time>
      </trkpt>
      <trkpt lat="46.89176" lon="4.60712">
        <ele>368.99994</ele>
        <time>2022-03-12T13:04:35.000Z</time>
      </trkpt>
      <trkpt lat="46.89174" lon="4.60713">
        <ele>369.34995</ele>
        <time>2022-03-12T13:04:38.000Z</time>
      </trkpt>
      <trkpt lat="46.89171" lon="4.60713">
        <ele>369.74994</ele>
        <time>2022-03-12T13:04:40.000Z</time>
      </trkpt>
      <trkpt lat="46.89169" lon="4.60713">
        <ele>370.09995</ele>
        <time>2022-03-12T13:04:42.000Z</time>
      </trkpt>
      <trkpt lat="46.89167" lon="4.60713">
        <ele>370.44995</ele>
        <time>2022-03-12T13:04:44.000Z</time>
      </trkpt>
      <trkpt lat="46.89165" lon="4.60713">
        <ele>370.84995</ele>
        <time>2022-03-12T13:04:46.000Z</time>
      </trkpt>
      <trkpt lat="46.89162" lon="4.60715">
        <ele>371.19995</ele>
        <time>2022-03-12T13:04:49.000Z</time>
      </trkpt>
      <trkpt lat="46.8916" lon="4.60716">
        <ele>371.49994</ele>
        <time>2022-03-12T13:04:51.000Z</time>
      </trkpt>
      <trkpt lat="46.89158" lon="4.60717">
        <ele>371.74994</ele>
        <time>2022-03-12T13:04:54.000Z</time>
      </trkpt>
      <trkpt lat="46.89156" lon="4.60718">
        <ele>371.99994</ele>
        <time>2022-03-12T13:04:56.000Z</time>
      </trkpt>
      <trkpt lat="46.89153" lon="4.6072">
        <ele>372.24994</ele>
        <time>2022-03-12T13:05:00.000Z</time>
      </trkpt>
      <trkpt lat="46.89151" lon="4.60722">
        <ele>372.49994</ele>
        <time>2022-03-12T13:05:03.000Z</time>
      </trkpt>
      <trkpt lat="46.89149" lon="4.60725">
        <ele>372.74994</ele>
        <time>2022-03-12T13:05:06.000Z</time>
      </trkpt>
      <trkpt lat="46.89146" lon="4.60727">
        <ele>372.89996</ele>
        <time>2022-03-12T13:05:08.000Z</time>
      </trkpt>
      <trkpt lat="46.89143" lon="4.60728">
        <ele>373.04996</ele>
        <time>2022-03-12T13:05:10.000Z</time>
      </trkpt>
      <trkpt lat="46.8914" lon="4.60729">
        <ele>373.19995</ele>
        <time>2022-03-12T13:05:12.000Z</time>
      </trkpt>
      <trkpt lat="46.89137" lon="4.6073">
        <ele>373.34995</ele>
        <time>2022-03-12T13:05:14.000Z</time>
      </trkpt>
      <trkpt lat="46.89135" lon="4.60732">
        <ele>373.39996</ele>
        <time>2022-03-12T13:05:16.000Z</time>
      </trkpt>
      <trkpt lat="46.89133" lon="4.60733">
        <ele>373.44995</ele>
        <time>2022-03-12T13:05:18.000Z</time>
      </trkpt>
      <trkpt lat="46.89131" lon="4.60734">
        <ele>373.49994</ele>
        <time>2022-03-12T13:05:20.000Z</time>
      </trkpt>
      <trkpt lat="46.89129" lon="4.60735">
        <ele>373.49994</ele>
        <time>2022-03-12T13:05:22.000Z</time>
      </trkpt>
      <trkpt lat="46.89127" lon="4.60737">
        <ele>373.49994</ele>
        <time>2022-03-12T13:05:24.000Z</time>
      </trkpt>
      <trkpt lat="46.89125" lon="4.60738">
        <ele>373.44995</ele>
        <time>2022-03-12T13:05:26.000Z</time>
      </trkpt>
      <trkpt lat="46.89123" lon="4.6074">
        <ele>373.44995</ele>
        <time>2022-03-12T13:05:28.000Z</time>
      </trkpt>
      <trkpt lat="46.89121" lon="4.60743">
        <ele>373.49994</ele>
        <time>2022-03-12T13:05:30.000Z</time>
      </trkpt>
      <trkpt lat="46.89119" lon="4.60744">
        <ele>373.44995</ele>
        <time>2022-03-12T13:05:32.000Z</time>
      </trkpt>
      <trkpt lat="46.89116" lon="4.60747">
        <ele>373.49994</ele>
        <time>2022-03-12T13:05:35.000Z</time>
      </trkpt>
      <trkpt lat="46.89115" lon="4.60748">
        <ele>373.59995</ele>
        <time>2022-03-12T13:05:37.000Z</time>
      </trkpt>
      <trkpt lat="46.89113" lon="4.60751">
        <ele>373.69995</ele>
        <time>2022-03-12T13:05:39.000Z</time>
      </trkpt>
      <trkpt lat="46.8911" lon="4.60755">
        <ele>373.79996</ele>
        <time>2022-03-12T13:05:42.000Z</time>
      </trkpt>
      <trkpt lat="46.89108" lon="4.60758">
        <ele>373.89996</ele>
        <time>2022-03-12T13:05:44.000Z</time>
      </trkpt>
      <trkpt lat="46.89107" lon="4.60761">
        <ele>373.94995</ele>
        <time>2022-03-12T13:05:46.000Z</time>
      </trkpt>
      <trkpt lat="46.89105" lon="4.60763">
        <ele>373.99994</ele>
        <time>2022-03-12T13:05:48.000Z</time>
      </trkpt>
      <trkpt lat="46.89103" lon="4.60767">
        <ele>374.09995</ele>
        <time>2022-03-12T13:05:51.000Z</time>
      </trkpt>
      <trkpt lat="46.89101" lon="4.6077">
        <ele>374.19995</ele>
        <time>2022-03-12T13:05:53.000Z</time>
      </trkpt>
      <trkpt lat="46.891" lon="4.60773">
        <ele>374.24994</ele>
        <time>2022-03-12T13:05:55.000Z</time>
      </trkpt>
      <trkpt lat="46.89099" lon="4.60775">
        <ele>374.29996</ele>
        <time>2022-03-12T13:05:57.000Z</time>
      </trkpt>
      <trkpt lat="46.89097" lon="4.60781">
        <ele>374.39996</ele>
        <time>2022-03-12T13:06:00.000Z</time>
      </trkpt>
      <trkpt lat="46.89096" lon="4.60783">
        <ele>374.49994</ele>
        <time>2022-03-12T13:06:02.000Z</time>
      </trkpt>
      <trkpt lat="46.89095" lon="4.60786">
        <ele>374.59995</ele>
        <time>2022-03-12T13:06:04.000Z</time>
      </trkpt>
      <trkpt lat="46.89095" lon="4.6079">
        <ele>374.69995</ele>
        <time>2022-03-12T13:06:06.000Z</time>
      </trkpt>
      <trkpt lat="46.89094" lon="4.60793">
        <ele>374.79996</ele>
        <time>2022-03-12T13:06:08.000Z</time>
      </trkpt>
      <trkpt lat="46.89093" lon="4.60797">
        <ele>374.89996</ele>
        <time>2022-03-12T13:06:10.000Z</time>
      </trkpt>
      <trkpt lat="46.89092" lon="4.60801">
        <ele>374.89996</ele>
        <time>2022-03-12T13:06:12.000Z</time>
      </trkpt>
      <trkpt lat="46.89092" lon="4.60805">
        <ele>374.89996</ele>
        <time>2022-03-12T13:06:14.000Z</time>
      </trkpt>
      <trkpt lat="46.89091" lon="4.60808">
        <ele>374.94995</ele>
        <time>2022-03-12T13:06:16.000Z</time>
      </trkpt>
      <trkpt lat="46.89089" lon="4.60811">
        <ele>374.94995</ele>
        <time>2022-03-12T13:06:18.000Z</time>
      </trkpt>
      <trkpt lat="46.89088" lon="4.60817">
        <ele>374.99994</ele>
        <time>2022-03-12T13:06:21.000Z</time>
      </trkpt>
      <trkpt lat="46.89087" lon="4.6082">
        <ele>374.99994</ele>
        <time>2022-03-12T13:06:24.000Z</time>
      </trkpt>
      <trkpt lat="46.89086" lon="4.60823">
        <ele>375.04996</ele>
        <time>2022-03-12T13:06:26.000Z</time>
      </trkpt>
      <trkpt lat="46.89085" lon="4.60826">
        <ele>375.14996</ele>
        <time>2022-03-12T13:06:28.000Z</time>
      </trkpt>
      <trkpt lat="46.89084" lon="4.6083">
        <ele>375.24994</ele>
        <time>2022-03-12T13:06:30.000Z</time>
      </trkpt>
      <trkpt lat="46.89083" lon="4.60833">
        <ele>375.39996</ele>
        <time>2022-03-12T13:06:32.000Z</time>
      </trkpt>
      <trkpt lat="46.89082" lon="4.60836">
        <ele>375.49994</ele>
        <time>2022-03-12T13:06:34.000Z</time>
      </trkpt>
      <trkpt lat="46.89081" lon="4.6084">
        <ele>375.59995</ele>
        <time>2022-03-12T13:06:36.000Z</time>
      </trkpt>
      <trkpt lat="46.8908" lon="4.60843">
        <ele>375.74994</ele>
        <time>2022-03-12T13:06:38.000Z</time>
      </trkpt>
      <trkpt lat="46.89079" lon="4.60846">
        <ele>375.89996</ele>
        <time>2022-03-12T13:06:40.000Z</time>
      </trkpt>
      <trkpt lat="46.89078" lon="4.60848">
        <ele>375.99994</ele>
        <time>2022-03-12T13:06:42.000Z</time>
      </trkpt>
      <trkpt lat="46.89077" lon="4.60851">
        <ele>376.09995</ele>
        <time>2022-03-12T13:06:44.000Z</time>
      </trkpt>
      <trkpt lat="46.89076" lon="4.60855">
        <ele>376.19995</ele>
        <time>2022-03-12T13:06:46.000Z</time>
      </trkpt>
      <trkpt lat="46.89074" lon="4.60858">
        <ele>376.29996</ele>
        <time>2022-03-12T13:06:48.000Z</time>
      </trkpt>
      <trkpt lat="46.89074" lon="4.60862">
        <ele>376.39996</ele>
        <time>2022-03-12T13:06:50.000Z</time>
      </trkpt>
      <trkpt lat="46.89073" lon="4.60866">
        <ele>376.49994</ele>
        <time>2022-03-12T13:06:52.000Z</time>
      </trkpt>
      <trkpt lat="46.89071" lon="4.60868">
        <ele>376.64996</ele>
        <time>2022-03-12T13:06:54.000Z</time>
      </trkpt>
      <trkpt lat="46.89069" lon="4.60871">
        <ele>376.74994</ele>
        <time>2022-03-12T13:06:56.000Z</time>
      </trkpt>
      <trkpt lat="46.89067" lon="4.60873">
        <ele>376.84995</ele>
        <time>2022-03-12T13:06:57.000Z</time>
      </trkpt>
      <trkpt lat="46.89065" lon="4.60878">
        <ele>376.94995</ele>
        <time>2022-03-12T13:07:00.000Z</time>
      </trkpt>
      <trkpt lat="46.89063" lon="4.60881">
        <ele>377.04996</ele>
        <time>2022-03-12T13:07:02.000Z</time>
      </trkpt>
      <trkpt lat="46.89061" lon="4.60883">
        <ele>377.14996</ele>
        <time>2022-03-12T13:07:04.000Z</time>
      </trkpt>
      <trkpt lat="46.89059" lon="4.60885">
        <ele>377.19995</ele>
        <time>2022-03-12T13:07:06.000Z</time>
      </trkpt>
      <trkpt lat="46.89058" lon="4.60889">
        <ele>377.19995</ele>
        <time>2022-03-12T13:07:08.000Z</time>
      </trkpt>
      <trkpt lat="46.89055" lon="4.60894">
        <ele>377.14996</ele>
        <time>2022-03-12T13:07:11.000Z</time>
      </trkpt>
      <trkpt lat="46.89053" lon="4.60896">
        <ele>377.09995</ele>
        <time>2022-03-12T13:07:13.000Z</time>
      </trkpt>
      <trkpt lat="46.89051" lon="4.60899">
        <ele>377.04996</ele>
        <time>2022-03-12T13:07:15.000Z</time>
      </trkpt>
      <trkpt lat="46.89048" lon="4.60901">
        <ele>377.04996</ele>
        <time>2022-03-12T13:07:17.000Z</time>
      </trkpt>
      <trkpt lat="46.89046" lon="4.60906">
        <ele>376.99994</ele>
        <time>2022-03-12T13:07:20.000Z</time>
      </trkpt>
      <trkpt lat="46.89044" lon="4.60909">
        <ele>376.94995</ele>
        <time>2022-03-12T13:07:22.000Z</time>
      </trkpt>
      <trkpt lat="46.89043" lon="4.60912">
        <ele>376.94995</ele>
        <time>2022-03-12T13:07:24.000Z</time>
      </trkpt>
      <trkpt lat="46.89042" lon="4.60915">
        <ele>376.94995</ele>
        <time>2022-03-12T13:07:28.000Z</time>
      </trkpt>
      <trkpt lat="46.8904" lon="4.60918">
        <ele>376.94995</ele>
        <time>2022-03-12T13:07:30.000Z</time>
      </trkpt>
      <trkpt lat="46.89038" lon="4.6092">
        <ele>376.94995</ele>
        <time>2022-03-12T13:07:32.000Z</time>
      </trkpt>
      <trkpt lat="46.89036" lon="4.60924">
        <ele>376.94995</ele>
        <time>2022-03-12T13:07:34.000Z</time>
      </trkpt>
      <trkpt lat="46.89034" lon="4.60926">
        <ele>376.94995</ele>
        <time>2022-03-12T13:07:36.000Z</time>
      </trkpt>
      <trkpt lat="46.89033" lon="4.60929">
        <ele>376.99994</ele>
        <time>2022-03-12T13:07:38.000Z</time>
      </trkpt>
      <trkpt lat="46.89031" lon="4.60932">
        <ele>377.04996</ele>
        <time>2022-03-12T13:07:40.000Z</time>
      </trkpt>
      <trkpt lat="46.89029" lon="4.60935">
        <ele>377.14996</ele>
        <time>2022-03-12T13:07:42.000Z</time>
      </trkpt>
      <trkpt lat="46.89028" lon="4.60937">
        <ele>377.19995</ele>
        <time>2022-03-12T13:07:44.000Z</time>
      </trkpt>
      <trkpt lat="46.89026" lon="4.6094">
        <ele>377.14996</ele>
        <time>2022-03-12T13:07:46.000Z</time>
      </trkpt>
      <trkpt lat="46.89024" lon="4.60942">
        <ele>377.19995</ele>
        <time>2022-03-12T13:07:48.000Z</time>
      </trkpt>
      <trkpt lat="46.89022" lon="4.60945">
        <ele>377.24994</ele>
        <time>2022-03-12T13:07:50.000Z</time>
      </trkpt>
      <trkpt lat="46.8902" lon="4.60947">
        <ele>377.29996</ele>
        <time>2022-03-12T13:07:52.000Z</time>
      </trkpt>
      <trkpt lat="46.89018" lon="4.60949">
        <ele>377.44995</ele>
        <time>2022-03-12T13:07:54.000Z</time>
      </trkpt>
      <trkpt lat="46.89017" lon="4.60952">
        <ele>377.54996</ele>
        <time>2022-03-12T13:07:56.000Z</time>
      </trkpt>
      <trkpt lat="46.89015" lon="4.60954">
        <ele>377.64996</ele>
        <time>2022-03-12T13:07:58.000Z</time>
      </trkpt>
      <trkpt lat="46.89013" lon="4.60956">
        <ele>377.64996</ele>
        <time>2022-03-12T13:08:00.000Z</time>
      </trkpt>
      <trkpt lat="46.89012" lon="4.60959">
        <ele>377.69995</ele>
        <time>2022-03-12T13:08:02.000Z</time>
      </trkpt>
      <trkpt lat="46.89011" lon="4.60962">
        <ele>377.69995</ele>
        <time>2022-03-12T13:08:04.000Z</time>
      </trkpt>
      <trkpt lat="46.89009" lon="4.60964">
        <ele>377.69995</ele>
        <time>2022-03-12T13:08:06.000Z</time>
      </trkpt>
      <trkpt lat="46.89006" lon="4.60967">
        <ele>377.74994</ele>
        <time>2022-03-12T13:08:08.000Z</time>
      </trkpt>
      <trkpt lat="46.89005" lon="4.6097">
        <ele>377.79996</ele>
        <time>2022-03-12T13:08:10.000Z</time>
      </trkpt>
      <trkpt lat="46.89003" lon="4.60973">
        <ele>377.84995</ele>
        <time>2022-03-12T13:08:12.000Z</time>
      </trkpt>
      <trkpt lat="46.89001" lon="4.60976">
        <ele>377.89996</ele>
        <time>2022-03-12T13:08:14.000Z</time>
      </trkpt>
      <trkpt lat="46.88999" lon="4.60978">
        <ele>377.94995</ele>
        <time>2022-03-12T13:08:16.000Z</time>
      </trkpt>
      <trkpt lat="46.88998" lon="4.6098">
        <ele>377.94995</ele>
        <time>2022-03-12T13:08:18.000Z</time>
      </trkpt>
      <trkpt lat="46.88996" lon="4.60983">
        <ele>377.94995</ele>
        <time>2022-03-12T13:08:21.000Z</time>
      </trkpt>
      <trkpt lat="46.88994" lon="4.60985">
        <ele>377.89996</ele>
        <time>2022-03-12T13:08:23.000Z</time>
      </trkpt>
      <trkpt lat="46.88991" lon="4.60987">
        <ele>377.94995</ele>
        <time>2022-03-12T13:08:25.000Z</time>
      </trkpt>
      <trkpt lat="46.8899" lon="4.60991">
        <ele>378.04996</ele>
        <time>2022-03-12T13:08:28.000Z</time>
      </trkpt>
      <trkpt lat="46.88988" lon="4.60996">
        <ele>378.09995</ele>
        <time>2022-03-12T13:08:31.000Z</time>
      </trkpt>
      <trkpt lat="46.88986" lon="4.60998">
        <ele>378.09995</ele>
        <time>2022-03-12T13:08:33.000Z</time>
      </trkpt>
      <trkpt lat="46.88985" lon="4.61">
        <ele>378.09995</ele>
        <time>2022-03-12T13:08:35.000Z</time>
      </trkpt>
      <trkpt lat="46.88983" lon="4.61004">
        <ele>378.04996</ele>
        <time>2022-03-12T13:08:38.000Z</time>
      </trkpt>
      <trkpt lat="46.8898" lon="4.61008">
        <ele>378.04996</ele>
        <time>2022-03-12T13:08:41.000Z</time>
      </trkpt>
      <trkpt lat="46.88979" lon="4.6101">
        <ele>378.04996</ele>
        <time>2022-03-12T13:08:43.000Z</time>
      </trkpt>
      <trkpt lat="46.88977" lon="4.61013">
        <ele>378.09995</ele>
        <time>2022-03-12T13:08:45.000Z</time>
      </trkpt>
      <trkpt lat="46.88974" lon="4.61016">
        <ele>378.14996</ele>
        <time>2022-03-12T13:08:48.000Z</time>
      </trkpt>
      <trkpt lat="46.88972" lon="4.61019">
        <ele>378.24994</ele>
        <time>2022-03-12T13:08:50.000Z</time>
      </trkpt>
      <trkpt lat="46.8897" lon="4.61021">
        <ele>378.29996</ele>
        <time>2022-03-12T13:08:53.000Z</time>
      </trkpt>
      <trkpt lat="46.88968" lon="4.61024">
        <ele>378.29996</ele>
        <time>2022-03-12T13:08:55.000Z</time>
      </trkpt>
      <trkpt lat="46.88967" lon="4.61026">
        <ele>378.34995</ele>
        <time>2022-03-12T13:08:57.000Z</time>
      </trkpt>
      <trkpt lat="46.88965" lon="4.61029">
        <ele>378.39996</ele>
        <time>2022-03-12T13:08:59.000Z</time>
      </trkpt>
      <trkpt lat="46.88964" lon="4.61032">
        <ele>378.44995</ele>
        <time>2022-03-12T13:09:01.000Z</time>
      </trkpt>
      <trkpt lat="46.88962" lon="4.61035">
        <ele>378.49994</ele>
        <time>2022-03-12T13:09:03.000Z</time>
      </trkpt>
      <trkpt lat="46.88961" lon="4.61038">
        <ele>378.54996</ele>
        <time>2022-03-12T13:09:05.000Z</time>
      </trkpt>
      <trkpt lat="46.88959" lon="4.61041">
        <ele>378.59995</ele>
        <time>2022-03-12T13:09:07.000Z</time>
      </trkpt>
      <trkpt lat="46.88958" lon="4.61044">
        <ele>378.64996</ele>
        <time>2022-03-12T13:09:09.000Z</time>
      </trkpt>
      <trkpt lat="46.88957" lon="4.61047">
        <ele>378.69995</ele>
        <time>2022-03-12T13:09:11.000Z</time>
      </trkpt>
      <trkpt lat="46.88956" lon="4.6105">
        <ele>378.69995</ele>
        <time>2022-03-12T13:09:13.000Z</time>
      </trkpt>
      <trkpt lat="46.88954" lon="4.61053">
        <ele>378.69995</ele>
        <time>2022-03-12T13:09:15.000Z</time>
      </trkpt>
      <trkpt lat="46.88953" lon="4.61057">
        <ele>378.79996</ele>
        <time>2022-03-12T13:09:17.000Z</time>
      </trkpt>
      <trkpt lat="46.88952" lon="4.6106">
        <ele>378.89996</ele>
        <time>2022-03-12T13:09:19.000Z</time>
      </trkpt>
      <trkpt lat="46.88951" lon="4.61067">
        <ele>378.99994</ele>
        <time>2022-03-12T13:09:22.000Z</time>
      </trkpt>
      <trkpt lat="46.88951" lon="4.6107">
        <ele>379.04996</ele>
        <time>2022-03-12T13:09:24.000Z</time>
      </trkpt>
      <trkpt lat="46.8895" lon="4.61073">
        <ele>379.09995</ele>
        <time>2022-03-12T13:09:26.000Z</time>
      </trkpt>
      <trkpt lat="46.8895" lon="4.61076">
        <ele>379.19995</ele>
        <time>2022-03-12T13:09:28.000Z</time>
      </trkpt>
      <trkpt lat="46.88951" lon="4.61081">
        <ele>379.29996</ele>
        <time>2022-03-12T13:09:31.000Z</time>
      </trkpt>
      <trkpt lat="46.88951" lon="4.61085">
        <ele>379.39996</ele>
        <time>2022-03-12T13:09:33.000Z</time>
      </trkpt>
      <trkpt lat="46.8895" lon="4.61088">
        <ele>379.54996</ele>
        <time>2022-03-12T13:09:35.000Z</time>
      </trkpt>
      <trkpt lat="46.8895" lon="4.61092">
        <ele>379.74994</ele>
        <time>2022-03-12T13:09:37.000Z</time>
      </trkpt>
      <trkpt lat="46.8895" lon="4.61095">
        <ele>379.89996</ele>
        <time>2022-03-12T13:09:39.000Z</time>
      </trkpt>
      <trkpt lat="46.8895" lon="4.61099">
        <ele>380.04996</ele>
        <time>2022-03-12T13:09:41.000Z</time>
      </trkpt>
      <trkpt lat="46.8895" lon="4.61101">
        <ele>380.19995</ele>
        <time>2022-03-12T13:09:43.000Z</time>
      </trkpt>
      <trkpt lat="46.88951" lon="4.61104">
        <ele>380.39996</ele>
        <time>2022-03-12T13:09:45.000Z</time>
      </trkpt>
      <trkpt lat="46.88951" lon="4.61108">
        <ele>380.54996</ele>
        <time>2022-03-12T13:09:47.000Z</time>
      </trkpt>
      <trkpt lat="46.88952" lon="4.6111">
        <ele>380.69995</ele>
        <time>2022-03-12T13:09:49.000Z</time>
      </trkpt>
      <trkpt lat="46.88953" lon="4.61113">
        <ele>380.84995</ele>
        <time>2022-03-12T13:09:51.000Z</time>
      </trkpt>
      <trkpt lat="46.88954" lon="4.61116">
        <ele>380.94995</ele>
        <time>2022-03-12T13:09:53.000Z</time>
      </trkpt>
      <trkpt lat="46.88955" lon="4.61121">
        <ele>381.09995</ele>
        <time>2022-03-12T13:09:56.000Z</time>
      </trkpt>
      <trkpt lat="46.88954" lon="4.61125">
        <ele>381.24994</ele>
        <time>2022-03-12T13:09:59.000Z</time>
      </trkpt>
      <trkpt lat="46.88954" lon="4.61129">
        <ele>381.34995</ele>
        <time>2022-03-12T13:10:02.000Z</time>
      </trkpt>
      <trkpt lat="46.88952" lon="4.61131">
        <ele>381.44995</ele>
        <time>2022-03-12T13:10:05.000Z</time>
      </trkpt>
      <trkpt lat="46.8895" lon="4.61133">
        <ele>381.49994</ele>
        <time>2022-03-12T13:10:08.000Z</time>
      </trkpt>
      <trkpt lat="46.88948" lon="4.61134">
        <ele>381.54996</ele>
        <time>2022-03-12T13:10:09.000Z</time>
      </trkpt>
      <trkpt lat="46.88945" lon="4.61137">
        <ele>381.64996</ele>
        <time>2022-03-12T13:10:11.000Z</time>
      </trkpt>
      <trkpt lat="46.88942" lon="4.61139">
        <ele>381.64996</ele>
        <time>2022-03-12T13:10:13.000Z</time>
      </trkpt>
      <trkpt lat="46.8894" lon="4.6114">
        <ele>381.64996</ele>
        <time>2022-03-12T13:10:15.000Z</time>
      </trkpt>
      <trkpt lat="46.88938" lon="4.61142">
        <ele>381.59995</ele>
        <time>2022-03-12T13:10:17.000Z</time>
      </trkpt>
      <trkpt lat="46.88936" lon="4.61143">
        <ele>381.59995</ele>
        <time>2022-03-12T13:10:19.000Z</time>
      </trkpt>
      <trkpt lat="46.88934" lon="4.61145">
        <ele>381.54996</ele>
        <time>2022-03-12T13:10:21.000Z</time>
      </trkpt>
      <trkpt lat="46.88932" lon="4.61147">
        <ele>381.49994</ele>
        <time>2022-03-12T13:10:23.000Z</time>
      </trkpt>
      <trkpt lat="46.8893" lon="4.61148">
        <ele>381.44995</ele>
        <time>2022-03-12T13:10:25.000Z</time>
      </trkpt>
      <trkpt lat="46.88927" lon="4.6115">
        <ele>381.39996</ele>
        <time>2022-03-12T13:10:27.000Z</time>
      </trkpt>
      <trkpt lat="46.88925" lon="4.61152">
        <ele>381.29996</ele>
        <time>2022-03-12T13:10:29.000Z</time>
      </trkpt>
      <trkpt lat="46.88923" lon="4.61154">
        <ele>381.19995</ele>
        <time>2022-03-12T13:10:31.000Z</time>
      </trkpt>
      <trkpt lat="46.8892" lon="4.61156">
        <ele>381.09995</ele>
        <time>2022-03-12T13:10:33.000Z</time>
      </trkpt>
      <trkpt lat="46.88918" lon="4.61157">
        <ele>380.99994</ele>
        <time>2022-03-12T13:10:35.000Z</time>
      </trkpt>
      <trkpt lat="46.88916" lon="4.61159">
        <ele>380.89996</ele>
        <time>2022-03-12T13:10:37.000Z</time>
      </trkpt>
      <trkpt lat="46.88915" lon="4.6116">
        <ele>380.74994</ele>
        <time>2022-03-12T13:10:39.000Z</time>
      </trkpt>
      <trkpt lat="46.88912" lon="4.61162">
        <ele>380.64996</ele>
        <time>2022-03-12T13:10:41.000Z</time>
      </trkpt>
      <trkpt lat="46.8891" lon="4.61163">
        <ele>380.49994</ele>
        <time>2022-03-12T13:10:43.000Z</time>
      </trkpt>
      <trkpt lat="46.88908" lon="4.61165">
        <ele>380.34995</ele>
        <time>2022-03-12T13:10:45.000Z</time>
      </trkpt>
      <trkpt lat="46.88906" lon="4.61166">
        <ele>380.29996</ele>
        <time>2022-03-12T13:10:47.000Z</time>
      </trkpt>
      <trkpt lat="46.88903" lon="4.61169">
        <ele>380.24994</ele>
        <time>2022-03-12T13:10:49.000Z</time>
      </trkpt>
      <trkpt lat="46.889" lon="4.61172">
        <ele>380.09995</ele>
        <time>2022-03-12T13:10:52.000Z</time>
      </trkpt>
      <trkpt lat="46.88897" lon="4.61173">
        <ele>380.04996</ele>
        <time>2022-03-12T13:10:54.000Z</time>
      </trkpt>
      <trkpt lat="46.88894" lon="4.61175">
        <ele>379.99994</ele>
        <time>2022-03-12T13:10:56.000Z</time>
      </trkpt>
      <trkpt lat="46.88892" lon="4.61177">
        <ele>379.99994</ele>
        <time>2022-03-12T13:10:58.000Z</time>
      </trkpt>
      <trkpt lat="46.88889" lon="4.61179">
        <ele>379.94995</ele>
        <time>2022-03-12T13:11:01.000Z</time>
      </trkpt>
      <trkpt lat="46.88888" lon="4.61181">
        <ele>379.89996</ele>
        <time>2022-03-12T13:11:03.000Z</time>
      </trkpt>
      <trkpt lat="46.88886" lon="4.61183">
        <ele>379.79996</ele>
        <time>2022-03-12T13:11:05.000Z</time>
      </trkpt>
      <trkpt lat="46.88883" lon="4.61185">
        <ele>379.74994</ele>
        <time>2022-03-12T13:11:07.000Z</time>
      </trkpt>
      <trkpt lat="46.8888" lon="4.61187">
        <ele>379.69995</ele>
        <time>2022-03-12T13:11:10.000Z</time>
      </trkpt>
      <trkpt lat="46.88878" lon="4.61189">
        <ele>379.64996</ele>
        <time>2022-03-12T13:11:12.000Z</time>
      </trkpt>
      <trkpt lat="46.88876" lon="4.61192">
        <ele>379.64996</ele>
        <time>2022-03-12T13:11:14.000Z</time>
      </trkpt>
      <trkpt lat="46.88874" lon="4.61194">
        <ele>379.64996</ele>
        <time>2022-03-12T13:11:16.000Z</time>
      </trkpt>
      <trkpt lat="46.88872" lon="4.61196">
        <ele>379.69995</ele>
        <time>2022-03-12T13:11:18.000Z</time>
      </trkpt>
      <trkpt lat="46.88868" lon="4.61199">
        <ele>379.74994</ele>
        <time>2022-03-12T13:11:22.000Z</time>
      </trkpt>
      <trkpt lat="46.88866" lon="4.61201">
        <ele>379.84995</ele>
        <time>2022-03-12T13:11:25.000Z</time>
      </trkpt>
      <trkpt lat="46.88864" lon="4.61202">
        <ele>379.89996</ele>
        <time>2022-03-12T13:11:27.000Z</time>
      </trkpt>
      <trkpt lat="46.88861" lon="4.61204">
        <ele>379.99994</ele>
        <time>2022-03-12T13:11:29.000Z</time>
      </trkpt>
      <trkpt lat="46.8886" lon="4.61207">
        <ele>380.09995</ele>
        <time>2022-03-12T13:11:31.000Z</time>
      </trkpt>
      <trkpt lat="46.88858" lon="4.61209">
        <ele>380.14996</ele>
        <time>2022-03-12T13:11:33.000Z</time>
      </trkpt>
      <trkpt lat="46.88855" lon="4.61211">
        <ele>380.19995</ele>
        <time>2022-03-12T13:11:35.000Z</time>
      </trkpt>
      <trkpt lat="46.88853" lon="4.61212">
        <ele>380.29996</ele>
        <time>2022-03-12T13:11:37.000Z</time>
      </trkpt>
      <trkpt lat="46.88852" lon="4.61214">
        <ele>380.34995</ele>
        <time>2022-03-12T13:11:39.000Z</time>
      </trkpt>
      <trkpt lat="46.88849" lon="4.61216">
        <ele>380.44995</ele>
        <time>2022-03-12T13:11:43.000Z</time>
      </trkpt>
      <trkpt lat="46.88847" lon="4.61218">
        <ele>380.54996</ele>
        <time>2022-03-12T13:11:58.000Z</time>
      </trkpt>
      <trkpt lat="46.88845" lon="4.6122">
        <ele>380.64996</ele>
        <time>2022-03-12T13:12:01.000Z</time>
      </trkpt>
      <trkpt lat="46.88842" lon="4.61223">
        <ele>380.74994</ele>
        <time>2022-03-12T13:12:04.000Z</time>
      </trkpt>
      <trkpt lat="46.8884" lon="4.61225">
        <ele>380.89996</ele>
        <time>2022-03-12T13:12:06.000Z</time>
      </trkpt>
      <trkpt lat="46.88838" lon="4.61226">
        <ele>380.99994</ele>
        <time>2022-03-12T13:12:08.000Z</time>
      </trkpt>
      <trkpt lat="46.88835" lon="4.61229">
        <ele>381.09995</ele>
        <time>2022-03-12T13:12:11.000Z</time>
      </trkpt>
      <trkpt lat="46.88833" lon="4.61231">
        <ele>381.19995</ele>
        <time>2022-03-12T13:12:13.000Z</time>
      </trkpt>
      <trkpt lat="46.88831" lon="4.61233">
        <ele>381.29996</ele>
        <time>2022-03-12T13:12:15.000Z</time>
      </trkpt>
      <trkpt lat="46.88829" lon="4.61235">
        <ele>381.39996</ele>
        <time>2022-03-12T13:12:17.000Z</time>
      </trkpt>
      <trkpt lat="46.88827" lon="4.61237">
        <ele>381.44995</ele>
        <time>2022-03-12T13:12:19.000Z</time>
      </trkpt>
      <trkpt lat="46.88825" lon="4.61239">
        <ele>381.49994</ele>
        <time>2022-03-12T13:12:21.000Z</time>
      </trkpt>
      <trkpt lat="46.88824" lon="4.61241">
        <ele>381.54996</ele>
        <time>2022-03-12T13:12:23.000Z</time>
      </trkpt>
      <trkpt lat="46.88822" lon="4.61243">
        <ele>381.64996</ele>
        <time>2022-03-12T13:12:25.000Z</time>
      </trkpt>
      <trkpt lat="46.8882" lon="4.61244">
        <ele>381.74994</ele>
        <time>2022-03-12T13:12:27.000Z</time>
      </trkpt>
      <trkpt lat="46.88818" lon="4.61247">
        <ele>381.89996</ele>
        <time>2022-03-12T13:12:29.000Z</time>
      </trkpt>
      <trkpt lat="46.88816" lon="4.6125">
        <ele>381.99994</ele>
        <time>2022-03-12T13:12:32.000Z</time>
      </trkpt>
      <trkpt lat="46.88814" lon="4.61252">
        <ele>382.09995</ele>
        <time>2022-03-12T13:12:34.000Z</time>
      </trkpt>
      <trkpt lat="46.88812" lon="4.61255">
        <ele>382.19995</ele>
        <time>2022-03-12T13:12:36.000Z</time>
      </trkpt>
      <trkpt lat="46.88811" lon="4.61257">
        <ele>382.24994</ele>
        <time>2022-03-12T13:12:38.000Z</time>
      </trkpt>
      <trkpt lat="46.88809" lon="4.61259">
        <ele>382.24994</ele>
        <time>2022-03-12T13:12:40.000Z</time>
      </trkpt>
      <trkpt lat="46.88807" lon="4.61263">
        <ele>382.24994</ele>
        <time>2022-03-12T13:12:44.000Z</time>
      </trkpt>
      <trkpt lat="46.88805" lon="4.61266">
        <ele>382.24994</ele>
        <time>2022-03-12T13:12:46.000Z</time>
      </trkpt>
      <trkpt lat="46.88803" lon="4.61269">
        <ele>382.24994</ele>
        <time>2022-03-12T13:12:48.000Z</time>
      </trkpt>
      <trkpt lat="46.888" lon="4.61271">
        <ele>382.24994</ele>
        <time>2022-03-12T13:12:50.000Z</time>
      </trkpt>
      <trkpt lat="46.88799" lon="4.61274">
        <ele>382.24994</ele>
        <time>2022-03-12T13:12:52.000Z</time>
      </trkpt>
      <trkpt lat="46.88797" lon="4.61276">
        <ele>382.24994</ele>
        <time>2022-03-12T13:12:54.000Z</time>
      </trkpt>
      <trkpt lat="46.88795" lon="4.61278">
        <ele>382.24994</ele>
        <time>2022-03-12T13:12:56.000Z</time>
      </trkpt>
      <trkpt lat="46.88793" lon="4.6128">
        <ele>382.24994</ele>
        <time>2022-03-12T13:12:58.000Z</time>
      </trkpt>
      <trkpt lat="46.88791" lon="4.61284">
        <ele>382.19995</ele>
        <time>2022-03-12T13:13:01.000Z</time>
      </trkpt>
      <trkpt lat="46.88789" lon="4.61287">
        <ele>382.19995</ele>
        <time>2022-03-12T13:13:04.000Z</time>
      </trkpt>
      <trkpt lat="46.88788" lon="4.61289">
        <ele>382.24994</ele>
        <time>2022-03-12T13:13:06.000Z</time>
      </trkpt>
      <trkpt lat="46.88786" lon="4.61291">
        <ele>382.29996</ele>
        <time>2022-03-12T13:13:08.000Z</time>
      </trkpt>
      <trkpt lat="46.88784" lon="4.61294">
        <ele>382.29996</ele>
        <time>2022-03-12T13:13:10.000Z</time>
      </trkpt>
      <trkpt lat="46.88783" lon="4.61296">
        <ele>382.29996</ele>
        <time>2022-03-12T13:13:12.000Z</time>
      </trkpt>
      <trkpt lat="46.88781" lon="4.61298">
        <ele>382.24994</ele>
        <time>2022-03-12T13:13:14.000Z</time>
      </trkpt>
      <trkpt lat="46.88779" lon="4.613">
        <ele>382.24994</ele>
        <time>2022-03-12T13:13:16.000Z</time>
      </trkpt>
      <trkpt lat="46.88778" lon="4.61302">
        <ele>382.19995</ele>
        <time>2022-03-12T13:13:18.000Z</time>
      </trkpt>
      <trkpt lat="46.88776" lon="4.61305">
        <ele>382.14996</ele>
        <time>2022-03-12T13:13:20.000Z</time>
      </trkpt>
      <trkpt lat="46.88774" lon="4.61308">
        <ele>382.09995</ele>
        <time>2022-03-12T13:13:23.000Z</time>
      </trkpt>
      <trkpt lat="46.88772" lon="4.61311">
        <ele>382.09995</ele>
        <time>2022-03-12T13:13:25.000Z</time>
      </trkpt>
      <trkpt lat="46.8877" lon="4.61313">
        <ele>382.09995</ele>
        <time>2022-03-12T13:13:27.000Z</time>
      </trkpt>
      <trkpt lat="46.88769" lon="4.61316">
        <ele>382.09995</ele>
        <time>2022-03-12T13:13:29.000Z</time>
      </trkpt>
      <trkpt lat="46.88768" lon="4.61318">
        <ele>382.09995</ele>
        <time>2022-03-12T13:13:31.000Z</time>
      </trkpt>
      <trkpt lat="46.88766" lon="4.61321">
        <ele>382.09995</ele>
        <time>2022-03-12T13:13:33.000Z</time>
      </trkpt>
      <trkpt lat="46.88764" lon="4.61324">
        <ele>382.04996</ele>
        <time>2022-03-12T13:13:36.000Z</time>
      </trkpt>
      <trkpt lat="46.88762" lon="4.61327">
        <ele>381.99994</ele>
        <time>2022-03-12T13:13:38.000Z</time>
      </trkpt>
      <trkpt lat="46.8876" lon="4.61331">
        <ele>381.94995</ele>
        <time>2022-03-12T13:13:41.000Z</time>
      </trkpt>
      <trkpt lat="46.88758" lon="4.61333">
        <ele>381.94995</ele>
        <time>2022-03-12T13:13:43.000Z</time>
      </trkpt>
      <trkpt lat="46.88756" lon="4.61336">
        <ele>381.99994</ele>
        <time>2022-03-12T13:13:45.000Z</time>
      </trkpt>
      <trkpt lat="46.88754" lon="4.6134">
        <ele>381.99994</ele>
        <time>2022-03-12T13:13:47.000Z</time>
      </trkpt>
      <trkpt lat="46.88752" lon="4.61342">
        <ele>381.89996</ele>
        <time>2022-03-12T13:13:49.000Z</time>
      </trkpt>
      <trkpt lat="46.8875" lon="4.61345">
        <ele>381.79996</ele>
        <time>2022-03-12T13:13:52.000Z</time>
      </trkpt>
      <trkpt lat="46.88748" lon="4.61347">
        <ele>381.69995</ele>
        <time>2022-03-12T13:13:54.000Z</time>
      </trkpt>
      <trkpt lat="46.88746" lon="4.61349">
        <ele>381.59995</ele>
        <time>2022-03-12T13:13:56.000Z</time>
      </trkpt>
      <trkpt lat="46.88744" lon="4.61351">
        <ele>381.49994</ele>
        <time>2022-03-12T13:13:58.000Z</time>
      </trkpt>
      <trkpt lat="46.88742" lon="4.61353">
        <ele>381.39996</ele>
        <time>2022-03-12T13:14:00.000Z</time>
      </trkpt>
      <trkpt lat="46.88741" lon="4.61355">
        <ele>381.34995</ele>
        <time>2022-03-12T13:14:02.000Z</time>
      </trkpt>
      <trkpt lat="46.88739" lon="4.61357">
        <ele>381.24994</ele>
        <time>2022-03-12T13:14:04.000Z</time>
      </trkpt>
      <trkpt lat="46.88737" lon="4.61359">
        <ele>381.24994</ele>
        <time>2022-03-12T13:14:06.000Z</time>
      </trkpt>
      <trkpt lat="46.88735" lon="4.61362">
        <ele>381.19995</ele>
        <time>2022-03-12T13:14:08.000Z</time>
      </trkpt>
      <trkpt lat="46.88732" lon="4.61365">
        <ele>381.14996</ele>
        <time>2022-03-12T13:14:11.000Z</time>
      </trkpt>
      <trkpt lat="46.8873" lon="4.61368">
        <ele>381.09995</ele>
        <time>2022-03-12T13:14:13.000Z</time>
      </trkpt>
      <trkpt lat="46.88728" lon="4.6137">
        <ele>381.04996</ele>
        <time>2022-03-12T13:14:15.000Z</time>
      </trkpt>
      <trkpt lat="46.88726" lon="4.61372">
        <ele>380.99994</ele>
        <time>2022-03-12T13:14:17.000Z</time>
      </trkpt>
      <trkpt lat="46.88724" lon="4.61374">
        <ele>380.99994</ele>
        <time>2022-03-12T13:14:19.000Z</time>
      </trkpt>
      <trkpt lat="46.88721" lon="4.61377">
        <ele>381.04996</ele>
        <time>2022-03-12T13:14:22.000Z</time>
      </trkpt>
      <trkpt lat="46.8872" lon="4.61379">
        <ele>381.04996</ele>
        <time>2022-03-12T13:14:24.000Z</time>
      </trkpt>
      <trkpt lat="46.88717" lon="4.61382">
        <ele>380.99994</ele>
        <time>2022-03-12T13:14:26.000Z</time>
      </trkpt>
      <trkpt lat="46.88716" lon="4.61384">
        <ele>380.94995</ele>
        <time>2022-03-12T13:14:28.000Z</time>
      </trkpt>
      <trkpt lat="46.88714" lon="4.61386">
        <ele>380.89996</ele>
        <time>2022-03-12T13:14:31.000Z</time>
      </trkpt>
      <trkpt lat="46.88712" lon="4.61389">
        <ele>380.89996</ele>
        <time>2022-03-12T13:14:33.000Z</time>
      </trkpt>
      <trkpt lat="46.8871" lon="4.61391">
        <ele>380.89996</ele>
        <time>2022-03-12T13:14:35.000Z</time>
      </trkpt>
      <trkpt lat="46.88708" lon="4.61394">
        <ele>380.94995</ele>
        <time>2022-03-12T13:14:37.000Z</time>
      </trkpt>
      <trkpt lat="46.88706" lon="4.61397">
        <ele>380.99994</ele>
        <time>2022-03-12T13:14:39.000Z</time>
      </trkpt>
      <trkpt lat="46.88705" lon="4.614">
        <ele>381.04996</ele>
        <time>2022-03-12T13:14:41.000Z</time>
      </trkpt>
      <trkpt lat="46.88703" lon="4.61403">
        <ele>381.09995</ele>
        <time>2022-03-12T13:14:44.000Z</time>
      </trkpt>
      <trkpt lat="46.88701" lon="4.61405">
        <ele>381.14996</ele>
        <time>2022-03-12T13:14:46.000Z</time>
      </trkpt>
      <trkpt lat="46.887" lon="4.61408">
        <ele>381.19995</ele>
        <time>2022-03-12T13:14:48.000Z</time>
      </trkpt>
      <trkpt lat="46.88699" lon="4.6141">
        <ele>381.19995</ele>
        <time>2022-03-12T13:14:50.000Z</time>
      </trkpt>
      <trkpt lat="46.88697" lon="4.61412">
        <ele>381.19995</ele>
        <time>2022-03-12T13:14:52.000Z</time>
      </trkpt>
      <trkpt lat="46.88695" lon="4.61414">
        <ele>381.14996</ele>
        <time>2022-03-12T13:14:54.000Z</time>
      </trkpt>
      <trkpt lat="46.88693" lon="4.61415">
        <ele>381.09995</ele>
        <time>2022-03-12T13:14:56.000Z</time>
      </trkpt>
      <trkpt lat="46.88691" lon="4.61418">
        <ele>381.04996</ele>
        <time>2022-03-12T13:14:58.000Z</time>
      </trkpt>
      <trkpt lat="46.88689" lon="4.61421">
        <ele>381.04996</ele>
        <time>2022-03-12T13:15:00.000Z</time>
      </trkpt>
      <trkpt lat="46.88687" lon="4.61423">
        <ele>381.04996</ele>
        <time>2022-03-12T13:15:02.000Z</time>
      </trkpt>
      <trkpt lat="46.88684" lon="4.61425">
        <ele>380.99994</ele>
        <time>2022-03-12T13:15:04.000Z</time>
      </trkpt>
      <trkpt lat="46.88682" lon="4.61428">
        <ele>380.99994</ele>
        <time>2022-03-12T13:15:06.000Z</time>
      </trkpt>
      <trkpt lat="46.8868" lon="4.61429">
        <ele>380.99994</ele>
        <time>2022-03-12T13:15:08.000Z</time>
      </trkpt>
      <trkpt lat="46.88678" lon="4.61431">
        <ele>380.99994</ele>
        <time>2022-03-12T13:15:10.000Z</time>
      </trkpt>
      <trkpt lat="46.88676" lon="4.61434">
        <ele>381.04996</ele>
        <time>2022-03-12T13:15:12.000Z</time>
      </trkpt>
      <trkpt lat="46.88674" lon="4.61436">
        <ele>381.09995</ele>
        <time>2022-03-12T13:15:14.000Z</time>
      </trkpt>
      <trkpt lat="46.88672" lon="4.61438">
        <ele>381.14996</ele>
        <time>2022-03-12T13:15:16.000Z</time>
      </trkpt>
      <trkpt lat="46.8867" lon="4.61441">
        <ele>381.14996</ele>
        <time>2022-03-12T13:15:18.000Z</time>
      </trkpt>
      <trkpt lat="46.88668" lon="4.61443">
        <ele>381.19995</ele>
        <time>2022-03-12T13:15:20.000Z</time>
      </trkpt>
      <trkpt lat="46.88666" lon="4.61445">
        <ele>381.24994</ele>
        <time>2022-03-12T13:15:22.000Z</time>
      </trkpt>
      <trkpt lat="46.88664" lon="4.61447">
        <ele>381.29996</ele>
        <time>2022-03-12T13:15:24.000Z</time>
      </trkpt>
      <trkpt lat="46.88662" lon="4.61449">
        <ele>381.29996</ele>
        <time>2022-03-12T13:15:26.000Z</time>
      </trkpt>
      <trkpt lat="46.8866" lon="4.61452">
        <ele>381.39996</ele>
        <time>2022-03-12T13:15:28.000Z</time>
      </trkpt>
      <trkpt lat="46.88658" lon="4.61454">
        <ele>381.44995</ele>
        <time>2022-03-12T13:15:30.000Z</time>
      </trkpt>
      <trkpt lat="46.88656" lon="4.61457">
        <ele>381.54996</ele>
        <time>2022-03-12T13:15:32.000Z</time>
      </trkpt>
      <trkpt lat="46.88654" lon="4.61459">
        <ele>381.69995</ele>
        <time>2022-03-12T13:15:34.000Z</time>
      </trkpt>
      <trkpt lat="46.88652" lon="4.61462">
        <ele>381.84995</ele>
        <time>2022-03-12T13:15:36.000Z</time>
      </trkpt>
      <trkpt lat="46.88649" lon="4.61464">
        <ele>381.99994</ele>
        <time>2022-03-12T13:15:38.000Z</time>
      </trkpt>
      <trkpt lat="46.88648" lon="4.61467">
        <ele>382.09995</ele>
        <time>2022-03-12T13:15:40.000Z</time>
      </trkpt>
      <trkpt lat="46.88646" lon="4.61469">
        <ele>382.19995</ele>
        <time>2022-03-12T13:15:42.000Z</time>
      </trkpt>
      <trkpt lat="46.88643" lon="4.61472">
        <ele>382.29996</ele>
        <time>2022-03-12T13:15:44.000Z</time>
      </trkpt>
      <trkpt lat="46.88641" lon="4.61475">
        <ele>382.39996</ele>
        <time>2022-03-12T13:15:46.000Z</time>
      </trkpt>
      <trkpt lat="46.88639" lon="4.61477">
        <ele>382.49994</ele>
        <time>2022-03-12T13:15:48.000Z</time>
      </trkpt>
      <trkpt lat="46.88638" lon="4.61478">
        <ele>382.59995</ele>
        <time>2022-03-12T13:15:50.000Z</time>
      </trkpt>
      <trkpt lat="46.88635" lon="4.61481">
        <ele>382.64996</ele>
        <time>2022-03-12T13:15:52.000Z</time>
      </trkpt>
      <trkpt lat="46.88634" lon="4.61483">
        <ele>382.69995</ele>
        <time>2022-03-12T13:15:54.000Z</time>
      </trkpt>
      <trkpt lat="46.88632" lon="4.61486">
        <ele>382.74994</ele>
        <time>2022-03-12T13:15:56.000Z</time>
      </trkpt>
      <trkpt lat="46.8863" lon="4.61488">
        <ele>382.79996</ele>
        <time>2022-03-12T13:15:58.000Z</time>
      </trkpt>
      <trkpt lat="46.88628" lon="4.6149">
        <ele>382.84995</ele>
        <time>2022-03-12T13:16:00.000Z</time>
      </trkpt>
      <trkpt lat="46.88626" lon="4.61492">
        <ele>382.89996</ele>
        <time>2022-03-12T13:16:02.000Z</time>
      </trkpt>
      <trkpt lat="46.88624" lon="4.61494">
        <ele>382.94995</ele>
        <time>2022-03-12T13:16:04.000Z</time>
      </trkpt>
      <trkpt lat="46.88622" lon="4.61497">
        <ele>383.04996</ele>
        <time>2022-03-12T13:16:06.000Z</time>
      </trkpt>
      <trkpt lat="46.88621" lon="4.61498">
        <ele>383.04996</ele>
        <time>2022-03-12T13:16:08.000Z</time>
      </trkpt>
      <trkpt lat="46.88619" lon="4.61501">
        <ele>383.09995</ele>
        <time>2022-03-12T13:16:10.000Z</time>
      </trkpt>
      <trkpt lat="46.88617" lon="4.61503">
        <ele>383.14996</ele>
        <time>2022-03-12T13:16:12.000Z</time>
      </trkpt>
      <trkpt lat="46.88616" lon="4.61506">
        <ele>383.19995</ele>
        <time>2022-03-12T13:16:14.000Z</time>
      </trkpt>
      <trkpt lat="46.88613" lon="4.61509">
        <ele>383.24994</ele>
        <time>2022-03-12T13:16:17.000Z</time>
      </trkpt>
      <trkpt lat="46.88611" lon="4.61511">
        <ele>383.29996</ele>
        <time>2022-03-12T13:16:19.000Z</time>
      </trkpt>
      <trkpt lat="46.88609" lon="4.61514">
        <ele>383.34995</ele>
        <time>2022-03-12T13:16:21.000Z</time>
      </trkpt>
      <trkpt lat="46.88607" lon="4.61517">
        <ele>383.34995</ele>
        <time>2022-03-12T13:16:23.000Z</time>
      </trkpt>
      <trkpt lat="46.88606" lon="4.61519">
        <ele>383.34995</ele>
        <time>2022-03-12T13:16:25.000Z</time>
      </trkpt>
      <trkpt lat="46.88604" lon="4.61521">
        <ele>383.34995</ele>
        <time>2022-03-12T13:16:27.000Z</time>
      </trkpt>
      <trkpt lat="46.88602" lon="4.61524">
        <ele>383.34995</ele>
        <time>2022-03-12T13:16:30.000Z</time>
      </trkpt>
      <trkpt lat="46.886" lon="4.61526">
        <ele>383.34995</ele>
        <time>2022-03-12T13:16:32.000Z</time>
      </trkpt>
      <trkpt lat="46.88598" lon="4.61529">
        <ele>383.34995</ele>
        <time>2022-03-12T13:16:34.000Z</time>
      </trkpt>
      <trkpt lat="46.88596" lon="4.61532">
        <ele>383.29996</ele>
        <time>2022-03-12T13:16:36.000Z</time>
      </trkpt>
      <trkpt lat="46.88594" lon="4.61534">
        <ele>383.29996</ele>
        <time>2022-03-12T13:16:38.000Z</time>
      </trkpt>
      <trkpt lat="46.88593" lon="4.61536">
        <ele>383.29996</ele>
        <time>2022-03-12T13:16:40.000Z</time>
      </trkpt>
      <trkpt lat="46.88591" lon="4.61538">
        <ele>383.24994</ele>
        <time>2022-03-12T13:16:42.000Z</time>
      </trkpt>
      <trkpt lat="46.88589" lon="4.61541">
        <ele>383.19995</ele>
        <time>2022-03-12T13:16:44.000Z</time>
      </trkpt>
      <trkpt lat="46.88587" lon="4.61544">
        <ele>383.14996</ele>
        <time>2022-03-12T13:16:46.000Z</time>
      </trkpt>
      <trkpt lat="46.88585" lon="4.61546">
        <ele>383.14996</ele>
        <time>2022-03-12T13:16:48.000Z</time>
      </trkpt>
      <trkpt lat="46.88584" lon="4.61549">
        <ele>383.19995</ele>
        <time>2022-03-12T13:16:50.000Z</time>
      </trkpt>
      <trkpt lat="46.88582" lon="4.61552">
        <ele>383.24994</ele>
        <time>2022-03-12T13:16:52.000Z</time>
      </trkpt>
      <trkpt lat="46.8858" lon="4.61554">
        <ele>383.24994</ele>
        <time>2022-03-12T13:16:54.000Z</time>
      </trkpt>
      <trkpt lat="46.88578" lon="4.61557">
        <ele>383.24994</ele>
        <time>2022-03-12T13:16:56.000Z</time>
      </trkpt>
      <trkpt lat="46.88577" lon="4.6156">
        <ele>383.19995</ele>
        <time>2022-03-12T13:16:58.000Z</time>
      </trkpt>
      <trkpt lat="46.88576" lon="4.61563">
        <ele>383.19995</ele>
        <time>2022-03-12T13:17:00.000Z</time>
      </trkpt>
      <trkpt lat="46.88575" lon="4.61566">
        <ele>383.19995</ele>
        <time>2022-03-12T13:17:02.000Z</time>
      </trkpt>
      <trkpt lat="46.88573" lon="4.6157">
        <ele>383.24994</ele>
        <time>2022-03-12T13:17:04.000Z</time>
      </trkpt>
      <trkpt lat="46.88572" lon="4.61573">
        <ele>383.29996</ele>
        <time>2022-03-12T13:17:06.000Z</time>
      </trkpt>
      <trkpt lat="46.88571" lon="4.61577">
        <ele>383.34995</ele>
        <time>2022-03-12T13:17:09.000Z</time>
      </trkpt>
      <trkpt lat="46.88569" lon="4.6158">
        <ele>383.44995</ele>
        <time>2022-03-12T13:17:11.000Z</time>
      </trkpt>
      <trkpt lat="46.88568" lon="4.61583">
        <ele>383.54996</ele>
        <time>2022-03-12T13:17:13.000Z</time>
      </trkpt>
      <trkpt lat="46.88566" lon="4.61586">
        <ele>383.64996</ele>
        <time>2022-03-12T13:17:15.000Z</time>
      </trkpt>
      <trkpt lat="46.88565" lon="4.61588">
        <ele>383.79996</ele>
        <time>2022-03-12T13:17:17.000Z</time>
      </trkpt>
      <trkpt lat="46.88563" lon="4.61591">
        <ele>383.89996</ele>
        <time>2022-03-12T13:17:19.000Z</time>
      </trkpt>
      <trkpt lat="46.88561" lon="4.61594">
        <ele>383.99994</ele>
        <time>2022-03-12T13:17:21.000Z</time>
      </trkpt>
      <trkpt lat="46.88559" lon="4.61596">
        <ele>384.09995</ele>
        <time>2022-03-12T13:17:24.000Z</time>
      </trkpt>
      <trkpt lat="46.88557" lon="4.61598">
        <ele>384.19995</ele>
        <time>2022-03-12T13:17:26.000Z</time>
      </trkpt>
      <trkpt lat="46.88555" lon="4.616">
        <ele>384.29996</ele>
        <time>2022-03-12T13:17:28.000Z</time>
      </trkpt>
      <trkpt lat="46.88554" lon="4.61604">
        <ele>384.39996</ele>
        <time>2022-03-12T13:17:30.000Z</time>
      </trkpt>
      <trkpt lat="46.88552" lon="4.61607">
        <ele>384.49994</ele>
        <time>2022-03-12T13:17:32.000Z</time>
      </trkpt>
      <trkpt lat="46.8855" lon="4.6161">
        <ele>384.59995</ele>
        <time>2022-03-12T13:17:34.000Z</time>
      </trkpt>
      <trkpt lat="46.88548" lon="4.61613">
        <ele>384.69995</ele>
        <time>2022-03-12T13:17:36.000Z</time>
      </trkpt>
      <trkpt lat="46.88547" lon="4.61616">
        <ele>384.79996</ele>
        <time>2022-03-12T13:17:38.000Z</time>
      </trkpt>
      <trkpt lat="46.88545" lon="4.61618">
        <ele>384.94995</ele>
        <time>2022-03-12T13:17:40.000Z</time>
      </trkpt>
      <trkpt lat="46.88543" lon="4.61621">
        <ele>385.09995</ele>
        <time>2022-03-12T13:17:42.000Z</time>
      </trkpt>
      <trkpt lat="46.88541" lon="4.61624">
        <ele>385.19995</ele>
        <time>2022-03-12T13:17:44.000Z</time>
      </trkpt>
      <trkpt lat="46.88538" lon="4.61627">
        <ele>385.34995</ele>
        <time>2022-03-12T13:17:47.000Z</time>
      </trkpt>
      <trkpt lat="46.88536" lon="4.6163">
        <ele>385.49994</ele>
        <time>2022-03-12T13:17:49.000Z</time>
      </trkpt>
      <trkpt lat="46.88535" lon="4.61633">
        <ele>385.59995</ele>
        <time>2022-03-12T13:17:51.000Z</time>
      </trkpt>
      <trkpt lat="46.88533" lon="4.61635">
        <ele>385.64996</ele>
        <time>2022-03-12T13:17:53.000Z</time>
      </trkpt>
      <trkpt lat="46.88532" lon="4.61637">
        <ele>385.69995</ele>
        <time>2022-03-12T13:17:55.000Z</time>
      </trkpt>
      <trkpt lat="46.8853" lon="4.6164">
        <ele>385.69995</ele>
        <time>2022-03-12T13:17:57.000Z</time>
      </trkpt>
      <trkpt lat="46.88529" lon="4.61642">
        <ele>385.69995</ele>
        <time>2022-03-12T13:17:59.000Z</time>
      </trkpt>
      <trkpt lat="46.88527" lon="4.61644">
        <ele>385.69995</ele>
        <time>2022-03-12T13:18:01.000Z</time>
      </trkpt>
      <trkpt lat="46.88525" lon="4.61647">
        <ele>385.69995</ele>
        <time>2022-03-12T13:18:03.000Z</time>
      </trkpt>
      <trkpt lat="46.88523" lon="4.6165">
        <ele>385.69995</ele>
        <time>2022-03-12T13:18:05.000Z</time>
      </trkpt>
      <trkpt lat="46.88521" lon="4.61652">
        <ele>385.69995</ele>
        <time>2022-03-12T13:18:07.000Z</time>
      </trkpt>
      <trkpt lat="46.88519" lon="4.61655">
        <ele>385.74994</ele>
        <time>2022-03-12T13:18:09.000Z</time>
      </trkpt>
      <trkpt lat="46.88517" lon="4.61658">
        <ele>385.74994</ele>
        <time>2022-03-12T13:18:11.000Z</time>
      </trkpt>
      <trkpt lat="46.88515" lon="4.6166">
        <ele>385.74994</ele>
        <time>2022-03-12T13:18:13.000Z</time>
      </trkpt>
      <trkpt lat="46.88513" lon="4.61662">
        <ele>385.74994</ele>
        <time>2022-03-12T13:18:15.000Z</time>
      </trkpt>
      <trkpt lat="46.88511" lon="4.61665">
        <ele>385.74994</ele>
        <time>2022-03-12T13:18:17.000Z</time>
      </trkpt>
      <trkpt lat="46.88509" lon="4.61667">
        <ele>385.74994</ele>
        <time>2022-03-12T13:18:19.000Z</time>
      </trkpt>
      <trkpt lat="46.88507" lon="4.61669">
        <ele>385.74994</ele>
        <time>2022-03-12T13:18:21.000Z</time>
      </trkpt>
      <trkpt lat="46.88505" lon="4.61671">
        <ele>385.69995</ele>
        <time>2022-03-12T13:18:23.000Z</time>
      </trkpt>
      <trkpt lat="46.88503" lon="4.61673">
        <ele>385.69995</ele>
        <time>2022-03-12T13:18:25.000Z</time>
      </trkpt>
      <trkpt lat="46.885" lon="4.61676">
        <ele>385.69995</ele>
        <time>2022-03-12T13:18:27.000Z</time>
      </trkpt>
      <trkpt lat="46.88497" lon="4.61678">
        <ele>385.69995</ele>
        <time>2022-03-12T13:18:29.000Z</time>
      </trkpt>
      <trkpt lat="46.88495" lon="4.61679">
        <ele>385.74994</ele>
        <time>2022-03-12T13:18:31.000Z</time>
      </trkpt>
      <trkpt lat="46.88493" lon="4.61681">
        <ele>385.79996</ele>
        <time>2022-03-12T13:18:33.000Z</time>
      </trkpt>
      <trkpt lat="46.8849" lon="4.61683">
        <ele>385.79996</ele>
        <time>2022-03-12T13:18:35.000Z</time>
      </trkpt>
      <trkpt lat="46.88488" lon="4.61685">
        <ele>385.84995</ele>
        <time>2022-03-12T13:18:37.000Z</time>
      </trkpt>
      <trkpt lat="46.88486" lon="4.61686">
        <ele>385.89996</ele>
        <time>2022-03-12T13:18:39.000Z</time>
      </trkpt>
      <trkpt lat="46.88483" lon="4.61688">
        <ele>385.89996</ele>
        <time>2022-03-12T13:18:42.000Z</time>
      </trkpt>
      <trkpt lat="46.88481" lon="4.61689">
        <ele>385.84995</ele>
        <time>2022-03-12T13:18:44.000Z</time>
      </trkpt>
      <trkpt lat="46.88479" lon="4.61691">
        <ele>385.79996</ele>
        <time>2022-03-12T13:18:46.000Z</time>
      </trkpt>
      <trkpt lat="46.88476" lon="4.61693">
        <ele>385.74994</ele>
        <time>2022-03-12T13:18:48.000Z</time>
      </trkpt>
      <trkpt lat="46.88474" lon="4.61694">
        <ele>385.64996</ele>
        <time>2022-03-12T13:18:50.000Z</time>
      </trkpt>
      <trkpt lat="46.88472" lon="4.61696">
        <ele>385.54996</ele>
        <time>2022-03-12T13:18:52.000Z</time>
      </trkpt>
      <trkpt lat="46.8847" lon="4.61699">
        <ele>385.44995</ele>
        <time>2022-03-12T13:18:54.000Z</time>
      </trkpt>
      <trkpt lat="46.88469" lon="4.61702">
        <ele>385.34995</ele>
        <time>2022-03-12T13:18:56.000Z</time>
      </trkpt>
      <trkpt lat="46.88467" lon="4.61704">
        <ele>385.19995</ele>
        <time>2022-03-12T13:18:58.000Z</time>
      </trkpt>
      <trkpt lat="46.88466" lon="4.61706">
        <ele>385.04996</ele>
        <time>2022-03-12T13:19:00.000Z</time>
      </trkpt>
      <trkpt lat="46.88464" lon="4.61708">
        <ele>384.89996</ele>
        <time>2022-03-12T13:19:02.000Z</time>
      </trkpt>
      <trkpt lat="46.88462" lon="4.6171">
        <ele>384.74994</ele>
        <time>2022-03-12T13:19:04.000Z</time>
      </trkpt>
      <trkpt lat="46.8846" lon="4.61713">
        <ele>384.59995</ele>
        <time>2022-03-12T13:19:06.000Z</time>
      </trkpt>
      <trkpt lat="46.88459" lon="4.61715">
        <ele>384.44995</ele>
        <time>2022-03-12T13:19:08.000Z</time>
      </trkpt>
      <trkpt lat="46.88457" lon="4.61717">
        <ele>384.24994</ele>
        <time>2022-03-12T13:19:10.000Z</time>
      </trkpt>
      <trkpt lat="46.88456" lon="4.61719">
        <ele>384.04996</ele>
        <time>2022-03-12T13:19:12.000Z</time>
      </trkpt>
      <trkpt lat="46.88454" lon="4.61722">
        <ele>383.84995</ele>
        <time>2022-03-12T13:19:15.000Z</time>
      </trkpt>
      <trkpt lat="46.88452" lon="4.61724">
        <ele>383.69995</ele>
        <time>2022-03-12T13:19:17.000Z</time>
      </trkpt>
      <trkpt lat="46.88451" lon="4.61726">
        <ele>383.54996</ele>
        <time>2022-03-12T13:19:20.000Z</time>
      </trkpt>
      <trkpt lat="46.88449" lon="4.61728">
        <ele>383.34995</ele>
        <time>2022-03-12T13:19:22.000Z</time>
      </trkpt>
      <trkpt lat="46.88448" lon="4.6173">
        <ele>383.19995</ele>
        <time>2022-03-12T13:19:24.000Z</time>
      </trkpt>
      <trkpt lat="46.88446" lon="4.61733">
        <ele>383.09995</ele>
        <time>2022-03-12T13:19:26.000Z</time>
      </trkpt>
      <trkpt lat="46.88444" lon="4.61735">
        <ele>382.94995</ele>
        <time>2022-03-12T13:19:28.000Z</time>
      </trkpt>
      <trkpt lat="46.88442" lon="4.61738">
        <ele>382.74994</ele>
        <time>2022-03-12T13:19:31.000Z</time>
      </trkpt>
      <trkpt lat="46.8844" lon="4.6174">
        <ele>382.54996</ele>
        <time>2022-03-12T13:19:33.000Z</time>
      </trkpt>
      <trkpt lat="46.88438" lon="4.61742">
        <ele>382.34995</ele>
        <time>2022-03-12T13:19:35.000Z</time>
      </trkpt>
      <trkpt lat="46.88436" lon="4.61744">
        <ele>382.14996</ele>
        <time>2022-03-12T13:19:37.000Z</time>
      </trkpt>
      <trkpt lat="46.88434" lon="4.61745">
        <ele>381.94995</ele>
        <time>2022-03-12T13:19:39.000Z</time>
      </trkpt>
      <trkpt lat="46.88431" lon="4.61747">
        <ele>381.74994</ele>
        <time>2022-03-12T13:19:41.000Z</time>
      </trkpt>
      <trkpt lat="46.88429" lon="4.61748">
        <ele>381.54996</ele>
        <time>2022-03-12T13:19:43.000Z</time>
      </trkpt>
      <trkpt lat="46.88426" lon="4.61749">
        <ele>381.34995</ele>
        <time>2022-03-12T13:19:45.000Z</time>
      </trkpt>
      <trkpt lat="46.88424" lon="4.61751">
        <ele>381.19995</ele>
        <time>2022-03-12T13:19:47.000Z</time>
      </trkpt>
      <trkpt lat="46.88422" lon="4.61752">
        <ele>380.99994</ele>
        <time>2022-03-12T13:19:49.000Z</time>
      </trkpt>
      <trkpt lat="46.88419" lon="4.61753">
        <ele>380.74994</ele>
        <time>2022-03-12T13:19:51.000Z</time>
      </trkpt>
      <trkpt lat="46.88417" lon="4.61753">
        <ele>380.54996</ele>
        <time>2022-03-12T13:19:53.000Z</time>
      </trkpt>
      <trkpt lat="46.88414" lon="4.61754">
        <ele>380.34995</ele>
        <time>2022-03-12T13:19:56.000Z</time>
      </trkpt>
      <trkpt lat="46.88412" lon="4.61756">
        <ele>380.14996</ele>
        <time>2022-03-12T13:19:58.000Z</time>
      </trkpt>
      <trkpt lat="46.8841" lon="4.61757">
        <ele>379.94995</ele>
        <time>2022-03-12T13:20:00.000Z</time>
      </trkpt>
      <trkpt lat="46.88407" lon="4.61758">
        <ele>379.64996</ele>
        <time>2022-03-12T13:20:03.000Z</time>
      </trkpt>
      <trkpt lat="46.88405" lon="4.61759">
        <ele>379.39996</ele>
        <time>2022-03-12T13:20:05.000Z</time>
      </trkpt>
      <trkpt lat="46.88403" lon="4.6176">
        <ele>379.14996</ele>
        <time>2022-03-12T13:20:07.000Z</time>
      </trkpt>
      <trkpt lat="46.88401" lon="4.61762">
        <ele>378.89996</ele>
        <time>2022-03-12T13:20:09.000Z</time>
      </trkpt>
      <trkpt lat="46.88399" lon="4.61763">
        <ele>378.64996</ele>
        <time>2022-03-12T13:20:12.000Z</time>
      </trkpt>
      <trkpt lat="46.88397" lon="4.61765">
        <ele>378.44995</ele>
        <time>2022-03-12T13:20:14.000Z</time>
      </trkpt>
      <trkpt lat="46.88395" lon="4.61766">
        <ele>378.24994</ele>
        <time>2022-03-12T13:20:16.000Z</time>
      </trkpt>
      <trkpt lat="46.88393" lon="4.61767">
        <ele>377.99994</ele>
        <time>2022-03-12T13:20:18.000Z</time>
      </trkpt>
      <trkpt lat="46.88391" lon="4.61768">
        <ele>377.74994</ele>
        <time>2022-03-12T13:20:21.000Z</time>
      </trkpt>
      <trkpt lat="46.88389" lon="4.6177">
        <ele>377.49994</ele>
        <time>2022-03-12T13:20:24.000Z</time>
      </trkpt>
      <trkpt lat="46.88387" lon="4.61772">
        <ele>377.24994</ele>
        <time>2022-03-12T13:20:26.000Z</time>
      </trkpt>
      <trkpt lat="46.88385" lon="4.61773">
        <ele>376.99994</ele>
        <time>2022-03-12T13:20:29.000Z</time>
      </trkpt>
      <trkpt lat="46.88384" lon="4.61775">
        <ele>376.74994</ele>
        <time>2022-03-12T13:20:47.000Z</time>
      </trkpt>
      <trkpt lat="46.88382" lon="4.61777">
        <ele>376.39996</ele>
        <time>2022-03-12T13:20:50.000Z</time>
      </trkpt>
      <trkpt lat="46.88379" lon="4.61778">
        <ele>376.04996</ele>
        <time>2022-03-12T13:20:53.000Z</time>
      </trkpt>
      <trkpt lat="46.88377" lon="4.61779">
        <ele>375.69995</ele>
        <time>2022-03-12T13:20:55.000Z</time>
      </trkpt>
      <trkpt lat="46.88375" lon="4.61781">
        <ele>375.29996</ele>
        <time>2022-03-12T13:20:58.000Z</time>
      </trkpt>
      <trkpt lat="46.88373" lon="4.61782">
        <ele>374.84995</ele>
        <time>2022-03-12T13:21:03.000Z</time>
      </trkpt>
      <trkpt lat="46.88371" lon="4.61784">
        <ele>374.39996</ele>
        <time>2022-03-12T13:21:06.000Z</time>
      </trkpt>
      <trkpt lat="46.88369" lon="4.61786">
        <ele>373.94995</ele>
        <time>2022-03-12T13:21:08.000Z</time>
      </trkpt>
      <trkpt lat="46.88367" lon="4.61789">
        <ele>373.54996</ele>
        <time>2022-03-12T13:21:11.000Z</time>
      </trkpt>
      <trkpt lat="46.88365" lon="4.61792">
        <ele>373.14996</ele>
        <time>2022-03-12T13:21:13.000Z</time>
      </trkpt>
      <trkpt lat="46.88364" lon="4.61794">
        <ele>372.69995</ele>
        <time>2022-03-12T13:21:15.000Z</time>
      </trkpt>
      <trkpt lat="46.88362" lon="4.61796">
        <ele>372.24994</ele>
        <time>2022-03-12T13:21:17.000Z</time>
      </trkpt>
      <trkpt lat="46.88361" lon="4.61799">
        <ele>371.79996</ele>
        <time>2022-03-12T13:21:19.000Z</time>
      </trkpt>
      <trkpt lat="46.88359" lon="4.61801">
        <ele>371.34995</ele>
        <time>2022-03-12T13:21:21.000Z</time>
      </trkpt>
      <trkpt lat="46.88358" lon="4.61804">
        <ele>370.89996</ele>
        <time>2022-03-12T13:21:23.000Z</time>
      </trkpt>
      <trkpt lat="46.88357" lon="4.61806">
        <ele>370.44995</ele>
        <time>2022-03-12T13:21:25.000Z</time>
      </trkpt>
      <trkpt lat="46.88356" lon="4.61809">
        <ele>369.99994</ele>
        <time>2022-03-12T13:21:29.000Z</time>
      </trkpt>
      <trkpt lat="46.88354" lon="4.6181">
        <ele>369.59995</ele>
        <time>2022-03-12T13:22:00.000Z</time>
      </trkpt>
      <trkpt lat="46.88353" lon="4.61813">
        <ele>369.24994</ele>
        <time>2022-03-12T13:22:02.000Z</time>
      </trkpt>
      <trkpt lat="46.88351" lon="4.61816">
        <ele>368.89996</ele>
        <time>2022-03-12T13:22:04.000Z</time>
      </trkpt>
      <trkpt lat="46.8835" lon="4.61819">
        <ele>368.49994</ele>
        <time>2022-03-12T13:22:06.000Z</time>
      </trkpt>
      <trkpt lat="46.88348" lon="4.61822">
        <ele>368.14996</ele>
        <time>2022-03-12T13:22:08.000Z</time>
      </trkpt>
      <trkpt lat="46.88346" lon="4.61824">
        <ele>367.79996</ele>
        <time>2022-03-12T13:22:10.000Z</time>
      </trkpt>
      <trkpt lat="46.88344" lon="4.61827">
        <ele>367.44995</ele>
        <time>2022-03-12T13:22:12.000Z</time>
      </trkpt>
      <trkpt lat="46.88342" lon="4.6183">
        <ele>367.14996</ele>
        <time>2022-03-12T13:22:14.000Z</time>
      </trkpt>
      <trkpt lat="46.88339" lon="4.61833">
        <ele>366.84995</ele>
        <time>2022-03-12T13:22:17.000Z</time>
      </trkpt>
      <trkpt lat="46.88337" lon="4.61836">
        <ele>366.54996</ele>
        <time>2022-03-12T13:22:19.000Z</time>
      </trkpt>
      <trkpt lat="46.88335" lon="4.61839">
        <ele>366.19995</ele>
        <time>2022-03-12T13:22:21.000Z</time>
      </trkpt>
      <trkpt lat="46.88333" lon="4.61842">
        <ele>365.89996</ele>
        <time>2022-03-12T13:22:23.000Z</time>
      </trkpt>
      <trkpt lat="46.88331" lon="4.61845">
        <ele>365.54996</ele>
        <time>2022-03-12T13:22:25.000Z</time>
      </trkpt>
      <trkpt lat="46.88329" lon="4.61848">
        <ele>365.24994</ele>
        <time>2022-03-12T13:22:27.000Z</time>
      </trkpt>
      <trkpt lat="46.88327" lon="4.61851">
        <ele>364.94995</ele>
        <time>2022-03-12T13:22:29.000Z</time>
      </trkpt>
      <trkpt lat="46.88325" lon="4.61854">
        <ele>364.69995</ele>
        <time>2022-03-12T13:22:31.000Z</time>
      </trkpt>
      <trkpt lat="46.88323" lon="4.61857">
        <ele>364.44995</ele>
        <time>2022-03-12T13:22:33.000Z</time>
      </trkpt>
      <trkpt lat="46.88321" lon="4.6186">
        <ele>364.19995</ele>
        <time>2022-03-12T13:22:35.000Z</time>
      </trkpt>
      <trkpt lat="46.88319" lon="4.61863">
        <ele>363.94995</ele>
        <time>2022-03-12T13:22:37.000Z</time>
      </trkpt>
      <trkpt lat="46.88317" lon="4.61866">
        <ele>363.64996</ele>
        <time>2022-03-12T13:22:39.000Z</time>
      </trkpt>
      <trkpt lat="46.88316" lon="4.61868">
        <ele>363.24994</ele>
        <time>2022-03-12T13:22:41.000Z</time>
      </trkpt>
      <trkpt lat="46.88314" lon="4.61871">
        <ele>362.84995</ele>
        <time>2022-03-12T13:22:43.000Z</time>
      </trkpt>
      <trkpt lat="46.88312" lon="4.61873">
        <ele>362.44995</ele>
        <time>2022-03-12T13:22:45.000Z</time>
      </trkpt>
      <trkpt lat="46.8831" lon="4.61875">
        <ele>362.09995</ele>
        <time>2022-03-12T13:22:47.000Z</time>
      </trkpt>
      <trkpt lat="46.88307" lon="4.61878">
        <ele>361.69995</ele>
        <time>2022-03-12T13:22:49.000Z</time>
      </trkpt>
      <trkpt lat="46.88305" lon="4.61881">
        <ele>361.34995</ele>
        <time>2022-03-12T13:22:51.000Z</time>
      </trkpt>
      <trkpt lat="46.88303" lon="4.61884">
        <ele>360.99994</ele>
        <time>2022-03-12T13:22:53.000Z</time>
      </trkpt>
      <trkpt lat="46.88301" lon="4.61887">
        <ele>360.59995</ele>
        <time>2022-03-12T13:22:55.000Z</time>
      </trkpt>
      <trkpt lat="46.88299" lon="4.6189">
        <ele>360.24994</ele>
        <time>2022-03-12T13:22:57.000Z</time>
      </trkpt>
      <trkpt lat="46.88298" lon="4.61892">
        <ele>359.89996</ele>
        <time>2022-03-12T13:22:59.000Z</time>
      </trkpt>
      <trkpt lat="46.88296" lon="4.61894">
        <ele>359.54996</ele>
        <time>2022-03-12T13:23:01.000Z</time>
      </trkpt>
      <trkpt lat="46.88294" lon="4.61896">
        <ele>359.19995</ele>
        <time>2022-03-12T13:23:03.000Z</time>
      </trkpt>
      <trkpt lat="46.88292" lon="4.61899">
        <ele>358.84995</ele>
        <time>2022-03-12T13:23:05.000Z</time>
      </trkpt>
      <trkpt lat="46.88291" lon="4.61902">
        <ele>358.49994</ele>
        <time>2022-03-12T13:23:07.000Z</time>
      </trkpt>
      <trkpt lat="46.8829" lon="4.61905">
        <ele>358.14996</ele>
        <time>2022-03-12T13:23:09.000Z</time>
      </trkpt>
      <trkpt lat="46.8829" lon="4.61909">
        <ele>357.84995</ele>
        <time>2022-03-12T13:23:11.000Z</time>
      </trkpt>
      <trkpt lat="46.8829" lon="4.61913">
        <ele>357.54996</ele>
        <time>2022-03-12T13:23:13.000Z</time>
      </trkpt>
      <trkpt lat="46.88292" lon="4.61916">
        <ele>357.24994</ele>
        <time>2022-03-12T13:23:15.000Z</time>
      </trkpt>
      <trkpt lat="46.88294" lon="4.6192">
        <ele>356.99994</ele>
        <time>2022-03-12T13:23:17.000Z</time>
      </trkpt>
      <trkpt lat="46.88295" lon="4.61923">
        <ele>356.79996</ele>
        <time>2022-03-12T13:23:19.000Z</time>
      </trkpt>
      <trkpt lat="46.88297" lon="4.61925">
        <ele>356.64996</ele>
        <time>2022-03-12T13:23:21.000Z</time>
      </trkpt>
      <trkpt lat="46.88299" lon="4.61928">
        <ele>356.44995</ele>
        <time>2022-03-12T13:23:23.000Z</time>
      </trkpt>
      <trkpt lat="46.883" lon="4.61931">
        <ele>356.24994</ele>
        <time>2022-03-12T13:23:25.000Z</time>
      </trkpt>
      <trkpt lat="46.88301" lon="4.61934">
        <ele>356.04996</ele>
        <time>2022-03-12T13:23:27.000Z</time>
      </trkpt>
      <trkpt lat="46.88303" lon="4.61937">
        <ele>355.89996</ele>
        <time>2022-03-12T13:23:29.000Z</time>
      </trkpt>
      <trkpt lat="46.88304" lon="4.61939">
        <ele>355.74994</ele>
        <time>2022-03-12T13:23:31.000Z</time>
      </trkpt>
      <trkpt lat="46.88305" lon="4.61942">
        <ele>355.59995</ele>
        <time>2022-03-12T13:23:33.000Z</time>
      </trkpt>
      <trkpt lat="46.88306" lon="4.61946">
        <ele>355.54996</ele>
        <time>2022-03-12T13:23:35.000Z</time>
      </trkpt>
      <trkpt lat="46.88307" lon="4.61949">
        <ele>355.49994</ele>
        <time>2022-03-12T13:23:37.000Z</time>
      </trkpt>
      <trkpt lat="46.88309" lon="4.61951">
        <ele>355.49994</ele>
        <time>2022-03-12T13:23:39.000Z</time>
      </trkpt>
      <trkpt lat="46.8831" lon="4.61953">
        <ele>355.49994</ele>
        <time>2022-03-12T13:23:41.000Z</time>
      </trkpt>
      <trkpt lat="46.88312" lon="4.61956">
        <ele>355.49994</ele>
        <time>2022-03-12T13:23:43.000Z</time>
      </trkpt>
      <trkpt lat="46.88313" lon="4.61959">
        <ele>355.54996</ele>
        <time>2022-03-12T13:23:45.000Z</time>
      </trkpt>
      <trkpt lat="46.88315" lon="4.61961">
        <ele>355.64996</ele>
        <time>2022-03-12T13:23:47.000Z</time>
      </trkpt>
      <trkpt lat="46.88318" lon="4.61964">
        <ele>355.74994</ele>
        <time>2022-03-12T13:23:49.000Z</time>
      </trkpt>
      <trkpt lat="46.8832" lon="4.61966">
        <ele>355.74994</ele>
        <time>2022-03-12T13:23:51.000Z</time>
      </trkpt>
      <trkpt lat="46.88322" lon="4.61968">
        <ele>355.69995</ele>
        <time>2022-03-12T13:23:53.000Z</time>
      </trkpt>
      <trkpt lat="46.88324" lon="4.61971">
        <ele>355.64996</ele>
        <time>2022-03-12T13:23:55.000Z</time>
      </trkpt>
      <trkpt lat="46.88326" lon="4.61974">
        <ele>355.59995</ele>
        <time>2022-03-12T13:23:57.000Z</time>
      </trkpt>
      <trkpt lat="46.88327" lon="4.61976">
        <ele>355.54996</ele>
        <time>2022-03-12T13:23:59.000Z</time>
      </trkpt>
      <trkpt lat="46.8833" lon="4.61978">
        <ele>355.44995</ele>
        <time>2022-03-12T13:24:01.000Z</time>
      </trkpt>
      <trkpt lat="46.88332" lon="4.6198">
        <ele>355.39996</ele>
        <time>2022-03-12T13:24:03.000Z</time>
      </trkpt>
      <trkpt lat="46.88334" lon="4.61981">
        <ele>355.34995</ele>
        <time>2022-03-12T13:24:05.000Z</time>
      </trkpt>
      <trkpt lat="46.88336" lon="4.61983">
        <ele>355.29996</ele>
        <time>2022-03-12T13:24:07.000Z</time>
      </trkpt>
      <trkpt lat="46.88339" lon="4.61984">
        <ele>355.24994</ele>
        <time>2022-03-12T13:24:09.000Z</time>
      </trkpt>
      <trkpt lat="46.88341" lon="4.61986">
        <ele>355.19995</ele>
        <time>2022-03-12T13:24:11.000Z</time>
      </trkpt>
      <trkpt lat="46.88344" lon="4.61987">
        <ele>355.14996</ele>
        <time>2022-03-12T13:24:13.000Z</time>
      </trkpt>
      <trkpt lat="46.88347" lon="4.61988">
        <ele>355.04996</ele>
        <time>2022-03-12T13:24:15.000Z</time>
      </trkpt>
      <trkpt lat="46.88349" lon="4.61989">
        <ele>354.94995</ele>
        <time>2022-03-12T13:24:17.000Z</time>
      </trkpt>
      <trkpt lat="46.88352" lon="4.61989">
        <ele>354.79996</ele>
        <time>2022-03-12T13:24:19.000Z</time>
      </trkpt>
      <trkpt lat="46.88355" lon="4.61989">
        <ele>354.69995</ele>
        <time>2022-03-12T13:24:21.000Z</time>
      </trkpt>
      <trkpt lat="46.88357" lon="4.61989">
        <ele>354.59995</ele>
        <time>2022-03-12T13:24:23.000Z</time>
      </trkpt>
      <trkpt lat="46.88359" lon="4.61988">
        <ele>354.54996</ele>
        <time>2022-03-12T13:24:25.000Z</time>
      </trkpt>
      <trkpt lat="46.88361" lon="4.61988">
        <ele>354.44995</ele>
        <time>2022-03-12T13:24:27.000Z</time>
      </trkpt>
      <trkpt lat="46.88363" lon="4.61987">
        <ele>354.34995</ele>
        <time>2022-03-12T13:24:29.000Z</time>
      </trkpt>
      <trkpt lat="46.88366" lon="4.61986">
        <ele>354.24994</ele>
        <time>2022-03-12T13:24:31.000Z</time>
      </trkpt>
      <trkpt lat="46.88369" lon="4.61985">
        <ele>354.19995</ele>
        <time>2022-03-12T13:24:33.000Z</time>
      </trkpt>
      <trkpt lat="46.88372" lon="4.61982">
        <ele>354.04996</ele>
        <time>2022-03-12T13:24:35.000Z</time>
      </trkpt>
      <trkpt lat="46.88374" lon="4.6198">
        <ele>353.89996</ele>
        <time>2022-03-12T13:24:37.000Z</time>
      </trkpt>
      <trkpt lat="46.88377" lon="4.61978">
        <ele>353.74994</ele>
        <time>2022-03-12T13:24:39.000Z</time>
      </trkpt>
      <trkpt lat="46.88379" lon="4.61977">
        <ele>353.64996</ele>
        <time>2022-03-12T13:24:41.000Z</time>
      </trkpt>
      <trkpt lat="46.88382" lon="4.61975">
        <ele>353.59995</ele>
        <time>2022-03-12T13:24:43.000Z</time>
      </trkpt>
      <trkpt lat="46.88385" lon="4.61974">
        <ele>353.54996</ele>
        <time>2022-03-12T13:24:45.000Z</time>
      </trkpt>
      <trkpt lat="46.88387" lon="4.61971">
        <ele>353.49994</ele>
        <time>2022-03-12T13:24:47.000Z</time>
      </trkpt>
      <trkpt lat="46.88389" lon="4.61969">
        <ele>353.44995</ele>
        <time>2022-03-12T13:24:49.000Z</time>
      </trkpt>
      <trkpt lat="46.88391" lon="4.61967">
        <ele>353.44995</ele>
        <time>2022-03-12T13:24:51.000Z</time>
      </trkpt>
      <trkpt lat="46.88393" lon="4.61965">
        <ele>353.44995</ele>
        <time>2022-03-12T13:24:53.000Z</time>
      </trkpt>
      <trkpt lat="46.88395" lon="4.61963">
        <ele>353.44995</ele>
        <time>2022-03-12T13:24:56.000Z</time>
      </trkpt>
      <trkpt lat="46.88397" lon="4.61961">
        <ele>353.49994</ele>
        <time>2022-03-12T13:24:58.000Z</time>
      </trkpt>
      <trkpt lat="46.88399" lon="4.61959">
        <ele>353.54996</ele>
        <time>2022-03-12T13:25:00.000Z</time>
      </trkpt>
      <trkpt lat="46.88401" lon="4.61958">
        <ele>353.54996</ele>
        <time>2022-03-12T13:25:02.000Z</time>
      </trkpt>
      <trkpt lat="46.88403" lon="4.61956">
        <ele>353.54996</ele>
        <time>2022-03-12T13:25:04.000Z</time>
      </trkpt>
      <trkpt lat="46.88405" lon="4.61954">
        <ele>353.49994</ele>
        <time>2022-03-12T13:25:06.000Z</time>
      </trkpt>
      <trkpt lat="46.88407" lon="4.61952">
        <ele>353.44995</ele>
        <time>2022-03-12T13:25:08.000Z</time>
      </trkpt>
      <trkpt lat="46.88409" lon="4.61951">
        <ele>353.44995</ele>
        <time>2022-03-12T13:25:10.000Z</time>
      </trkpt>
      <trkpt lat="46.88411" lon="4.61949">
        <ele>353.49994</ele>
        <time>2022-03-12T13:25:13.000Z</time>
      </trkpt>
      <trkpt lat="46.88413" lon="4.61947">
        <ele>353.54996</ele>
        <time>2022-03-12T13:25:15.000Z</time>
      </trkpt>
      <trkpt lat="46.88415" lon="4.61946">
        <ele>353.74994</ele>
        <time>2022-03-12T13:25:17.000Z</time>
      </trkpt>
      <trkpt lat="46.88416" lon="4.61944">
        <ele>353.94995</ele>
        <time>2022-03-12T13:25:19.000Z</time>
      </trkpt>
      <trkpt lat="46.88418" lon="4.61943">
        <ele>354.14996</ele>
        <time>2022-03-12T13:25:21.000Z</time>
      </trkpt>
      <trkpt lat="46.88421" lon="4.61941">
        <ele>354.34995</ele>
        <time>2022-03-12T13:25:24.000Z</time>
      </trkpt>
      <trkpt lat="46.88423" lon="4.61939">
        <ele>354.49994</ele>
        <time>2022-03-12T13:25:27.000Z</time>
      </trkpt>
      <trkpt lat="46.88425" lon="4.61938">
        <ele>354.64996</ele>
        <time>2022-03-12T13:25:29.000Z</time>
      </trkpt>
      <trkpt lat="46.88427" lon="4.61936">
        <ele>354.84995</ele>
        <time>2022-03-12T13:25:31.000Z</time>
      </trkpt>
      <trkpt lat="46.88429" lon="4.61936">
        <ele>355.09995</ele>
        <time>2022-03-12T13:25:52.000Z</time>
      </trkpt>
      <trkpt lat="46.88431" lon="4.61935">
        <ele>355.34995</ele>
        <time>2022-03-12T13:25:54.000Z</time>
      </trkpt>
      <trkpt lat="46.88434" lon="4.61934">
        <ele>355.64996</ele>
        <time>2022-03-12T13:25:56.000Z</time>
      </trkpt>
      <trkpt lat="46.88436" lon="4.61932">
        <ele>355.99994</ele>
        <time>2022-03-12T13:25:58.000Z</time>
      </trkpt>
      <trkpt lat="46.8844" lon="4.61929">
        <ele>356.29996</ele>
        <time>2022-03-12T13:26:01.000Z</time>
      </trkpt>
      <trkpt lat="46.88441" lon="4.61927">
        <ele>356.54996</ele>
        <time>2022-03-12T13:26:03.000Z</time>
      </trkpt>
      <trkpt lat="46.88443" lon="4.61924">
        <ele>356.89996</ele>
        <time>2022-03-12T13:26:05.000Z</time>
      </trkpt>
      <trkpt lat="46.88445" lon="4.61922">
        <ele>357.24994</ele>
        <time>2022-03-12T13:26:07.000Z</time>
      </trkpt>
      <trkpt lat="46.88448" lon="4.6192">
        <ele>357.64996</ele>
        <time>2022-03-12T13:26:09.000Z</time>
      </trkpt>
      <trkpt lat="46.8845" lon="4.61918">
        <ele>358.09995</ele>
        <time>2022-03-12T13:26:11.000Z</time>
      </trkpt>
      <trkpt lat="46.88452" lon="4.61916">
        <ele>358.49994</ele>
        <time>2022-03-12T13:26:13.000Z</time>
      </trkpt>
      <trkpt lat="46.88454" lon="4.61914">
        <ele>358.89996</ele>
        <time>2022-03-12T13:26:15.000Z</time>
      </trkpt>
      <trkpt lat="46.88455" lon="4.61912">
        <ele>359.34995</ele>
        <time>2022-03-12T13:26:17.000Z</time>
      </trkpt>
      <trkpt lat="46.88457" lon="4.6191">
        <ele>359.79996</ele>
        <time>2022-03-12T13:26:19.000Z</time>
      </trkpt>
      <trkpt lat="46.88459" lon="4.61909">
        <ele>360.19995</ele>
        <time>2022-03-12T13:26:21.000Z</time>
      </trkpt>
      <trkpt lat="46.88461" lon="4.61907">
        <ele>360.64996</ele>
        <time>2022-03-12T13:26:23.000Z</time>
      </trkpt>
      <trkpt lat="46.88464" lon="4.61905">
        <ele>361.04996</ele>
        <time>2022-03-12T13:26:25.000Z</time>
      </trkpt>
      <trkpt lat="46.88466" lon="4.61903">
        <ele>361.49994</ele>
        <time>2022-03-12T13:26:27.000Z</time>
      </trkpt>
      <trkpt lat="46.88468" lon="4.619">
        <ele>361.94995</ele>
        <time>2022-03-12T13:26:29.000Z</time>
      </trkpt>
      <trkpt lat="46.88469" lon="4.61897">
        <ele>362.39996</ele>
        <time>2022-03-12T13:26:31.000Z</time>
      </trkpt>
      <trkpt lat="46.88471" lon="4.61895">
        <ele>362.79996</ele>
        <time>2022-03-12T13:26:33.000Z</time>
      </trkpt>
      <trkpt lat="46.88473" lon="4.61893">
        <ele>363.14996</ele>
        <time>2022-03-12T13:26:35.000Z</time>
      </trkpt>
      <trkpt lat="46.88475" lon="4.6189">
        <ele>363.44995</ele>
        <time>2022-03-12T13:26:37.000Z</time>
      </trkpt>
      <trkpt lat="46.88477" lon="4.61888">
        <ele>363.69995</ele>
        <time>2022-03-12T13:26:39.000Z</time>
      </trkpt>
      <trkpt lat="46.8848" lon="4.61886">
        <ele>363.94995</ele>
        <time>2022-03-12T13:26:41.000Z</time>
      </trkpt>
      <trkpt lat="46.88481" lon="4.61884">
        <ele>364.24994</ele>
        <time>2022-03-12T13:26:42.000Z</time>
      </trkpt>
      <trkpt lat="46.88483" lon="4.61881">
        <ele>364.49994</ele>
        <time>2022-03-12T13:26:44.000Z</time>
      </trkpt>
      <trkpt lat="46.88486" lon="4.61878">
        <ele>364.74994</ele>
        <time>2022-03-12T13:26:46.000Z</time>
      </trkpt>
      <trkpt lat="46.88488" lon="4.61877">
        <ele>364.99994</ele>
        <time>2022-03-12T13:26:48.000Z</time>
      </trkpt>
      <trkpt lat="46.88491" lon="4.61874">
        <ele>365.19995</ele>
        <time>2022-03-12T13:26:50.000Z</time>
      </trkpt>
      <trkpt lat="46.88493" lon="4.61873">
        <ele>365.44995</ele>
        <time>2022-03-12T13:26:52.000Z</time>
      </trkpt>
      <trkpt lat="46.88495" lon="4.6187">
        <ele>365.69995</ele>
        <time>2022-03-12T13:26:54.000Z</time>
      </trkpt>
      <trkpt lat="46.88497" lon="4.61868">
        <ele>365.89996</ele>
        <time>2022-03-12T13:26:56.000Z</time>
      </trkpt>
      <trkpt lat="46.88499" lon="4.61866">
        <ele>366.04996</ele>
        <time>2022-03-12T13:26:58.000Z</time>
      </trkpt>
      <trkpt lat="46.88502" lon="4.61863">
        <ele>366.24994</ele>
        <time>2022-03-12T13:27:00.000Z</time>
      </trkpt>
      <trkpt lat="46.88504" lon="4.61861">
        <ele>366.44995</ele>
        <time>2022-03-12T13:27:02.000Z</time>
      </trkpt>
      <trkpt lat="46.88506" lon="4.61859">
        <ele>366.74994</ele>
        <time>2022-03-12T13:27:04.000Z</time>
      </trkpt>
      <trkpt lat="46.88509" lon="4.61857">
        <ele>366.99994</ele>
        <time>2022-03-12T13:27:06.000Z</time>
      </trkpt>
      <trkpt lat="46.88511" lon="4.61855">
        <ele>367.24994</ele>
        <time>2022-03-12T13:27:08.000Z</time>
      </trkpt>
      <trkpt lat="46.88514" lon="4.61851">
        <ele>367.44995</ele>
        <time>2022-03-12T13:27:11.000Z</time>
      </trkpt>
      <trkpt lat="46.88517" lon="4.61849">
        <ele>367.69995</ele>
        <time>2022-03-12T13:27:13.000Z</time>
      </trkpt>
      <trkpt lat="46.88519" lon="4.61847">
        <ele>367.94995</ele>
        <time>2022-03-12T13:27:15.000Z</time>
      </trkpt>
      <trkpt lat="46.88521" lon="4.61846">
        <ele>368.19995</ele>
        <time>2022-03-12T13:27:17.000Z</time>
      </trkpt>
      <trkpt lat="46.88523" lon="4.61845">
        <ele>368.44995</ele>
        <time>2022-03-12T13:27:19.000Z</time>
      </trkpt>
      <trkpt lat="46.88525" lon="4.61843">
        <ele>368.69995</ele>
        <time>2022-03-12T13:27:21.000Z</time>
      </trkpt>
      <trkpt lat="46.88528" lon="4.61841">
        <ele>368.94995</ele>
        <time>2022-03-12T13:27:23.000Z</time>
      </trkpt>
      <trkpt lat="46.8853" lon="4.61839">
        <ele>369.19995</ele>
        <time>2022-03-12T13:27:25.000Z</time>
      </trkpt>
      <trkpt lat="46.88533" lon="4.61838">
        <ele>369.49994</ele>
        <time>2022-03-12T13:27:27.000Z</time>
      </trkpt>
      <trkpt lat="46.88535" lon="4.61836">
        <ele>369.74994</ele>
        <time>2022-03-12T13:27:29.000Z</time>
      </trkpt>
      <trkpt lat="46.88536" lon="4.61835">
        <ele>369.99994</ele>
        <time>2022-03-12T13:27:31.000Z</time>
      </trkpt>
      <trkpt lat="46.88538" lon="4.61833">
        <ele>370.14996</ele>
        <time>2022-03-12T13:27:33.000Z</time>
      </trkpt>
      <trkpt lat="46.88541" lon="4.61831">
        <ele>370.29996</ele>
        <time>2022-03-12T13:27:35.000Z</time>
      </trkpt>
      <trkpt lat="46.88543" lon="4.6183">
        <ele>370.49994</ele>
        <time>2022-03-12T13:27:37.000Z</time>
      </trkpt>
      <trkpt lat="46.88545" lon="4.61828">
        <ele>370.74994</ele>
        <time>2022-03-12T13:27:39.000Z</time>
      </trkpt>
      <trkpt lat="46.88548" lon="4.61827">
        <ele>370.94995</ele>
        <time>2022-03-12T13:27:41.000Z</time>
      </trkpt>
      <trkpt lat="46.88551" lon="4.61826">
        <ele>371.14996</ele>
        <time>2022-03-12T13:27:43.000Z</time>
      </trkpt>
      <trkpt lat="46.88554" lon="4.61825">
        <ele>371.29996</ele>
        <time>2022-03-12T13:27:45.000Z</time>
      </trkpt>
      <trkpt lat="46.88556" lon="4.61824">
        <ele>371.54996</ele>
        <time>2022-03-12T13:27:47.000Z</time>
      </trkpt>
      <trkpt lat="46.88558" lon="4.61823">
        <ele>371.79996</ele>
        <time>2022-03-12T13:27:49.000Z</time>
      </trkpt>
      <trkpt lat="46.8856" lon="4.61822">
        <ele>372.04996</ele>
        <time>2022-03-12T13:27:51.000Z</time>
      </trkpt>
      <trkpt lat="46.88563" lon="4.6182">
        <ele>372.29996</ele>
        <time>2022-03-12T13:27:53.000Z</time>
      </trkpt>
      <trkpt lat="46.88565" lon="4.6182">
        <ele>372.54996</ele>
        <time>2022-03-12T13:27:55.000Z</time>
      </trkpt>
      <trkpt lat="46.88567" lon="4.6182">
        <ele>372.84995</ele>
        <time>2022-03-12T13:27:57.000Z</time>
      </trkpt>
      <trkpt lat="46.88569" lon="4.61818">
        <ele>373.19995</ele>
        <time>2022-03-12T13:27:59.000Z</time>
      </trkpt>
      <trkpt lat="46.88571" lon="4.61817">
        <ele>373.49994</ele>
        <time>2022-03-12T13:28:01.000Z</time>
      </trkpt>
      <trkpt lat="46.88573" lon="4.61816">
        <ele>373.79996</ele>
        <time>2022-03-12T13:28:03.000Z</time>
      </trkpt>
      <trkpt lat="46.88575" lon="4.61815">
        <ele>374.09995</ele>
        <time>2022-03-12T13:28:06.000Z</time>
      </trkpt>
      <trkpt lat="46.88578" lon="4.61813">
        <ele>374.34995</ele>
        <time>2022-03-12T13:28:08.000Z</time>
      </trkpt>
      <trkpt lat="46.88579" lon="4.61811">
        <ele>374.59995</ele>
        <time>2022-03-12T13:28:10.000Z</time>
      </trkpt>
      <trkpt lat="46.88581" lon="4.61809">
        <ele>374.84995</ele>
        <time>2022-03-12T13:28:12.000Z</time>
      </trkpt>
      <trkpt lat="46.88584" lon="4.61809">
        <ele>375.19995</ele>
        <time>2022-03-12T13:28:14.000Z</time>
      </trkpt>
      <trkpt lat="46.88586" lon="4.61808">
        <ele>375.54996</ele>
        <time>2022-03-12T13:28:16.000Z</time>
      </trkpt>
      <trkpt lat="46.88589" lon="4.61807">
        <ele>375.89996</ele>
        <time>2022-03-12T13:28:18.000Z</time>
      </trkpt>
      <trkpt lat="46.88591" lon="4.61805">
        <ele>376.19995</ele>
        <time>2022-03-12T13:28:20.000Z</time>
      </trkpt>
      <trkpt lat="46.88595" lon="4.61803">
        <ele>376.54996</ele>
        <time>2022-03-12T13:28:23.000Z</time>
      </trkpt>
      <trkpt lat="46.88597" lon="4.61802">
        <ele>376.89996</ele>
        <time>2022-03-12T13:28:26.000Z</time>
      </trkpt>
      <trkpt lat="46.88599" lon="4.61801">
        <ele>377.24994</ele>
        <time>2022-03-12T13:28:28.000Z</time>
      </trkpt>
      <trkpt lat="46.88601" lon="4.618">
        <ele>377.49994</ele>
        <time>2022-03-12T13:28:30.000Z</time>
      </trkpt>
      <trkpt lat="46.88603" lon="4.61799">
        <ele>377.74994</ele>
        <time>2022-03-12T13:28:32.000Z</time>
      </trkpt>
      <trkpt lat="46.88605" lon="4.61798">
        <ele>377.99994</ele>
        <time>2022-03-12T13:28:34.000Z</time>
      </trkpt>
      <trkpt lat="46.88608" lon="4.61796">
        <ele>378.19995</ele>
        <time>2022-03-12T13:28:36.000Z</time>
      </trkpt>
      <trkpt lat="46.8861" lon="4.61795">
        <ele>378.39996</ele>
        <time>2022-03-12T13:28:38.000Z</time>
      </trkpt>
      <trkpt lat="46.88612" lon="4.61793">
        <ele>378.49994</ele>
        <time>2022-03-12T13:28:40.000Z</time>
      </trkpt>
      <trkpt lat="46.88613" lon="4.61792">
        <ele>378.54996</ele>
        <time>2022-03-12T13:28:42.000Z</time>
      </trkpt>
      <trkpt lat="46.88617" lon="4.6179">
        <ele>378.64996</ele>
        <time>2022-03-12T13:28:45.000Z</time>
      </trkpt>
      <trkpt lat="46.8862" lon="4.61789">
        <ele>378.69995</ele>
        <time>2022-03-12T13:28:47.000Z</time>
      </trkpt>
      <trkpt lat="46.88622" lon="4.61788">
        <ele>378.74994</ele>
        <time>2022-03-12T13:28:49.000Z</time>
      </trkpt>
      <trkpt lat="46.88624" lon="4.61786">
        <ele>378.79996</ele>
        <time>2022-03-12T13:28:51.000Z</time>
      </trkpt>
      <trkpt lat="46.88626" lon="4.61784">
        <ele>378.89996</ele>
        <time>2022-03-12T13:28:53.000Z</time>
      </trkpt>
      <trkpt lat="46.88628" lon="4.61783">
        <ele>378.94995</ele>
        <time>2022-03-12T13:28:55.000Z</time>
      </trkpt>
      <trkpt lat="46.8863" lon="4.61782">
        <ele>378.94995</ele>
        <time>2022-03-12T13:28:57.000Z</time>
      </trkpt>
      <trkpt lat="46.88632" lon="4.61782">
        <ele>378.94995</ele>
        <time>2022-03-12T13:28:59.000Z</time>
      </trkpt>
      <trkpt lat="46.88634" lon="4.61781">
        <ele>378.94995</ele>
        <time>2022-03-12T13:29:01.000Z</time>
      </trkpt>
      <trkpt lat="46.88637" lon="4.6178">
        <ele>378.94995</ele>
        <time>2022-03-12T13:29:03.000Z</time>
      </trkpt>
      <trkpt lat="46.8864" lon="4.61778">
        <ele>378.89996</ele>
        <time>2022-03-12T13:29:05.000Z</time>
      </trkpt>
      <trkpt lat="46.88642" lon="4.61777">
        <ele>378.79996</ele>
        <time>2022-03-12T13:29:07.000Z</time>
      </trkpt>
      <trkpt lat="46.88645" lon="4.61775">
        <ele>378.69995</ele>
        <time>2022-03-12T13:29:09.000Z</time>
      </trkpt>
      <trkpt lat="46.88647" lon="4.61773">
        <ele>378.59995</ele>
        <time>2022-03-12T13:29:11.000Z</time>
      </trkpt>
      <trkpt lat="46.88649" lon="4.61772">
        <ele>378.49994</ele>
        <time>2022-03-12T13:29:13.000Z</time>
      </trkpt>
      <trkpt lat="46.88651" lon="4.6177">
        <ele>378.39996</ele>
        <time>2022-03-12T13:29:15.000Z</time>
      </trkpt>
      <trkpt lat="46.88653" lon="4.61769">
        <ele>378.29996</ele>
        <time>2022-03-12T13:29:17.000Z</time>
      </trkpt>
      <trkpt lat="46.88655" lon="4.61767">
        <ele>378.19995</ele>
        <time>2022-03-12T13:29:19.000Z</time>
      </trkpt>
      <trkpt lat="46.88657" lon="4.61766">
        <ele>378.14996</ele>
        <time>2022-03-12T13:29:21.000Z</time>
      </trkpt>
      <trkpt lat="46.88659" lon="4.61764">
        <ele>378.04996</ele>
        <time>2022-03-12T13:29:23.000Z</time>
      </trkpt>
      <trkpt lat="46.88661" lon="4.61762">
        <ele>377.99994</ele>
        <time>2022-03-12T13:29:25.000Z</time>
      </trkpt>
      <trkpt lat="46.88663" lon="4.6176">
        <ele>377.99994</ele>
        <time>2022-03-12T13:29:27.000Z</time>
      </trkpt>
      <trkpt lat="46.88665" lon="4.61759">
        <ele>377.99994</ele>
        <time>2022-03-12T13:29:29.000Z</time>
      </trkpt>
      <trkpt lat="46.88668" lon="4.61757">
        <ele>377.94995</ele>
        <time>2022-03-12T13:29:31.000Z</time>
      </trkpt>
      <trkpt lat="46.8867" lon="4.61755">
        <ele>377.84995</ele>
        <time>2022-03-12T13:29:33.000Z</time>
      </trkpt>
      <trkpt lat="46.88672" lon="4.61753">
        <ele>377.79996</ele>
        <time>2022-03-12T13:29:35.000Z</time>
      </trkpt>
      <trkpt lat="46.88674" lon="4.61751">
        <ele>377.74994</ele>
        <time>2022-03-12T13:29:37.000Z</time>
      </trkpt>
      <trkpt lat="46.88676" lon="4.6175">
        <ele>377.69995</ele>
        <time>2022-03-12T13:29:39.000Z</time>
      </trkpt>
      <trkpt lat="46.88678" lon="4.61748">
        <ele>377.59995</ele>
        <time>2022-03-12T13:29:41.000Z</time>
      </trkpt>
      <trkpt lat="46.88678" lon="4.61745">
        <ele>377.44995</ele>
        <time>2022-03-12T13:29:55.000Z</time>
      </trkpt>
      <trkpt lat="46.88681" lon="4.61745">
        <ele>377.29996</ele>
        <time>2022-03-12T13:30:24.000Z</time>
      </trkpt>
      <trkpt lat="46.88682" lon="4.61743">
        <ele>377.19995</ele>
        <time>2022-03-12T13:30:26.000Z</time>
      </trkpt>
      <trkpt lat="46.88684" lon="4.61741">
        <ele>377.04996</ele>
        <time>2022-03-12T13:30:28.000Z</time>
      </trkpt>
      <trkpt lat="46.88686" lon="4.6174">
        <ele>376.89996</ele>
        <time>2022-03-12T13:30:30.000Z</time>
      </trkpt>
      <trkpt lat="46.88688" lon="4.61739">
        <ele>376.74994</ele>
        <time>2022-03-12T13:30:32.000Z</time>
      </trkpt>
      <trkpt lat="46.8869" lon="4.61737">
        <ele>376.54996</ele>
        <time>2022-03-12T13:30:34.000Z</time>
      </trkpt>
      <trkpt lat="46.88692" lon="4.61736">
        <ele>376.39996</ele>
        <time>2022-03-12T13:30:36.000Z</time>
      </trkpt>
      <trkpt lat="46.88694" lon="4.61734">
        <ele>376.29996</ele>
        <time>2022-03-12T13:30:38.000Z</time>
      </trkpt>
      <trkpt lat="46.88697" lon="4.61732">
        <ele>376.19995</ele>
        <time>2022-03-12T13:30:40.000Z</time>
      </trkpt>
      <trkpt lat="46.88699" lon="4.61731">
        <ele>376.19995</ele>
        <time>2022-03-12T13:30:42.000Z</time>
      </trkpt>
      <trkpt lat="46.88701" lon="4.6173">
        <ele>376.14996</ele>
        <time>2022-03-12T13:30:44.000Z</time>
      </trkpt>
      <trkpt lat="46.88703" lon="4.61729">
        <ele>376.09995</ele>
        <time>2022-03-12T13:30:48.000Z</time>
      </trkpt>
      <trkpt lat="46.88705" lon="4.61727">
        <ele>376.04996</ele>
        <time>2022-03-12T13:30:50.000Z</time>
      </trkpt>
      <trkpt lat="46.88707" lon="4.61724">
        <ele>376.04996</ele>
        <time>2022-03-12T13:30:53.000Z</time>
      </trkpt>
      <trkpt lat="46.88709" lon="4.61724">
        <ele>376.09995</ele>
        <time>2022-03-12T13:31:00.000Z</time>
      </trkpt>
      <trkpt lat="46.88712" lon="4.61722">
        <ele>376.19995</ele>
        <time>2022-03-12T13:31:04.000Z</time>
      </trkpt>
      <trkpt lat="46.88714" lon="4.6172">
        <ele>376.29996</ele>
        <time>2022-03-12T13:31:06.000Z</time>
      </trkpt>
      <trkpt lat="46.88716" lon="4.61718">
        <ele>376.39996</ele>
        <time>2022-03-12T13:31:08.000Z</time>
      </trkpt>
      <trkpt lat="46.88718" lon="4.61717">
        <ele>376.49994</ele>
        <time>2022-03-12T13:31:10.000Z</time>
      </trkpt>
      <trkpt lat="46.88721" lon="4.61716">
        <ele>376.64996</ele>
        <time>2022-03-12T13:31:12.000Z</time>
      </trkpt>
      <trkpt lat="46.88722" lon="4.61714">
        <ele>376.84995</ele>
        <time>2022-03-12T13:31:13.000Z</time>
      </trkpt>
      <trkpt lat="46.88724" lon="4.61713">
        <ele>376.99994</ele>
        <time>2022-03-12T13:31:14.000Z</time>
      </trkpt>
      <trkpt lat="46.88727" lon="4.6171">
        <ele>377.19995</ele>
        <time>2022-03-12T13:31:16.000Z</time>
      </trkpt>
      <trkpt lat="46.88728" lon="4.61709">
        <ele>377.34995</ele>
        <time>2022-03-12T13:31:17.000Z</time>
      </trkpt>
      <trkpt lat="46.88731" lon="4.61706">
        <ele>377.49994</ele>
        <time>2022-03-12T13:31:19.000Z</time>
      </trkpt>
      <trkpt lat="46.88733" lon="4.61704">
        <ele>377.64996</ele>
        <time>2022-03-12T13:31:21.000Z</time>
      </trkpt>
      <trkpt lat="46.88735" lon="4.61701">
        <ele>377.69995</ele>
        <time>2022-03-12T13:31:23.000Z</time>
      </trkpt>
      <trkpt lat="46.88738" lon="4.617">
        <ele>377.69995</ele>
        <time>2022-03-12T13:31:25.000Z</time>
      </trkpt>
      <trkpt lat="46.8874" lon="4.61698">
        <ele>377.69995</ele>
        <time>2022-03-12T13:31:27.000Z</time>
      </trkpt>
      <trkpt lat="46.88743" lon="4.61694">
        <ele>377.64996</ele>
        <time>2022-03-12T13:31:30.000Z</time>
      </trkpt>
      <trkpt lat="46.88746" lon="4.61692">
        <ele>377.64996</ele>
        <time>2022-03-12T13:31:32.000Z</time>
      </trkpt>
      <trkpt lat="46.88748" lon="4.61689">
        <ele>377.64996</ele>
        <time>2022-03-12T13:31:34.000Z</time>
      </trkpt>
      <trkpt lat="46.8875" lon="4.61686">
        <ele>377.64996</ele>
        <time>2022-03-12T13:31:36.000Z</time>
      </trkpt>
      <trkpt lat="46.88752" lon="4.61683">
        <ele>377.59995</ele>
        <time>2022-03-12T13:31:38.000Z</time>
      </trkpt>
      <trkpt lat="46.88754" lon="4.61681">
        <ele>377.49994</ele>
        <time>2022-03-12T13:31:40.000Z</time>
      </trkpt>
      <trkpt lat="46.88758" lon="4.6168">
        <ele>377.29996</ele>
        <time>2022-03-12T13:31:42.000Z</time>
      </trkpt>
      <trkpt lat="46.8876" lon="4.61678">
        <ele>377.09995</ele>
        <time>2022-03-12T13:31:44.000Z</time>
      </trkpt>
      <trkpt lat="46.88764" lon="4.61677">
        <ele>376.89996</ele>
        <time>2022-03-12T13:31:46.000Z</time>
      </trkpt>
      <trkpt lat="46.88766" lon="4.61676">
        <ele>376.69995</ele>
        <time>2022-03-12T13:31:48.000Z</time>
      </trkpt>
      <trkpt lat="46.8877" lon="4.61675">
        <ele>376.49994</ele>
        <time>2022-03-12T13:31:50.000Z</time>
      </trkpt>
      <trkpt lat="46.88771" lon="4.61674">
        <ele>376.29996</ele>
        <time>2022-03-12T13:31:53.000Z</time>
      </trkpt>
      <trkpt lat="46.88774" lon="4.61673">
        <ele>376.09995</ele>
        <time>2022-03-12T13:31:55.000Z</time>
      </trkpt>
      <trkpt lat="46.88777" lon="4.61672">
        <ele>375.89996</ele>
        <time>2022-03-12T13:31:57.000Z</time>
      </trkpt>
      <trkpt lat="46.8878" lon="4.61671">
        <ele>375.74994</ele>
        <time>2022-03-12T13:31:59.000Z</time>
      </trkpt>
      <trkpt lat="46.88784" lon="4.61669">
        <ele>375.54996</ele>
        <time>2022-03-12T13:32:01.000Z</time>
      </trkpt>
      <trkpt lat="46.88787" lon="4.61668">
        <ele>375.39996</ele>
        <time>2022-03-12T13:32:03.000Z</time>
      </trkpt>
      <trkpt lat="46.88789" lon="4.61667">
        <ele>375.24994</ele>
        <time>2022-03-12T13:32:05.000Z</time>
      </trkpt>
      <trkpt lat="46.88792" lon="4.61666">
        <ele>375.09995</ele>
        <time>2022-03-12T13:32:07.000Z</time>
      </trkpt>
      <trkpt lat="46.88795" lon="4.61666">
        <ele>374.94995</ele>
        <time>2022-03-12T13:32:09.000Z</time>
      </trkpt>
      <trkpt lat="46.88799" lon="4.61664">
        <ele>374.79996</ele>
        <time>2022-03-12T13:32:12.000Z</time>
      </trkpt>
      <trkpt lat="46.88802" lon="4.61663">
        <ele>374.54996</ele>
        <time>2022-03-12T13:32:14.000Z</time>
      </trkpt>
      <trkpt lat="46.88805" lon="4.61661">
        <ele>374.29996</ele>
        <time>2022-03-12T13:32:16.000Z</time>
      </trkpt>
      <trkpt lat="46.88808" lon="4.6166">
        <ele>374.04996</ele>
        <time>2022-03-12T13:32:18.000Z</time>
      </trkpt>
      <trkpt lat="46.8881" lon="4.61659">
        <ele>373.84995</ele>
        <time>2022-03-12T13:32:20.000Z</time>
      </trkpt>
      <trkpt lat="46.88813" lon="4.61658">
        <ele>373.64996</ele>
        <time>2022-03-12T13:32:22.000Z</time>
      </trkpt>
      <trkpt lat="46.88816" lon="4.61658">
        <ele>373.49994</ele>
        <time>2022-03-12T13:32:24.000Z</time>
      </trkpt>
      <trkpt lat="46.88819" lon="4.61656">
        <ele>373.34995</ele>
        <time>2022-03-12T13:32:26.000Z</time>
      </trkpt>
      <trkpt lat="46.88822" lon="4.61654">
        <ele>373.14996</ele>
        <time>2022-03-12T13:32:28.000Z</time>
      </trkpt>
      <trkpt lat="46.88825" lon="4.61652">
        <ele>372.99994</ele>
        <time>2022-03-12T13:32:30.000Z</time>
      </trkpt>
      <trkpt lat="46.88827" lon="4.61651">
        <ele>372.84995</ele>
        <time>2022-03-12T13:32:32.000Z</time>
      </trkpt>
      <trkpt lat="46.8883" lon="4.61649">
        <ele>372.64996</ele>
        <time>2022-03-12T13:32:34.000Z</time>
      </trkpt>
      <trkpt lat="46.88832" lon="4.61647">
        <ele>372.44995</ele>
        <time>2022-03-12T13:32:38.000Z</time>
      </trkpt>
      <trkpt lat="46.88834" lon="4.61645">
        <ele>372.29996</ele>
        <time>2022-03-12T13:32:40.000Z</time>
      </trkpt>
      <trkpt lat="46.88836" lon="4.61645">
        <ele>372.14996</ele>
        <time>2022-03-12T13:32:42.000Z</time>
      </trkpt>
      <trkpt lat="46.88839" lon="4.61643">
        <ele>371.99994</ele>
        <time>2022-03-12T13:32:44.000Z</time>
      </trkpt>
      <trkpt lat="46.88841" lon="4.61642">
        <ele>371.84995</ele>
        <time>2022-03-12T13:32:47.000Z</time>
      </trkpt>
      <trkpt lat="46.88844" lon="4.61641">
        <ele>371.74994</ele>
        <time>2022-03-12T13:32:49.000Z</time>
      </trkpt>
      <trkpt lat="46.88846" lon="4.6164">
        <ele>371.69995</ele>
        <time>2022-03-12T13:32:51.000Z</time>
      </trkpt>
      <trkpt lat="46.88849" lon="4.61639">
        <ele>371.59995</ele>
        <time>2022-03-12T13:32:53.000Z</time>
      </trkpt>
      <trkpt lat="46.88851" lon="4.61637">
        <ele>371.49994</ele>
        <time>2022-03-12T13:32:55.000Z</time>
      </trkpt>
      <trkpt lat="46.88853" lon="4.61636">
        <ele>371.44995</ele>
        <time>2022-03-12T13:32:57.000Z</time>
      </trkpt>
      <trkpt lat="46.88856" lon="4.61637">
        <ele>371.34995</ele>
        <time>2022-03-12T13:33:00.000Z</time>
      </trkpt>
      <trkpt lat="46.88858" lon="4.61636">
        <ele>371.14996</ele>
        <time>2022-03-12T13:33:03.000Z</time>
      </trkpt>
      <trkpt lat="46.8886" lon="4.61637">
        <ele>370.84995</ele>
        <time>2022-03-12T13:33:47.000Z</time>
      </trkpt>
      <trkpt lat="46.88862" lon="4.61636">
        <ele>370.59995</ele>
        <time>2022-03-12T13:33:50.000Z</time>
      </trkpt>
      <trkpt lat="46.88864" lon="4.61637">
        <ele>370.39996</ele>
        <time>2022-03-12T13:33:52.000Z</time>
      </trkpt>
      <trkpt lat="46.88866" lon="4.61637">
        <ele>370.19995</ele>
        <time>2022-03-12T13:33:54.000Z</time>
      </trkpt>
      <trkpt lat="46.88869" lon="4.61637">
        <ele>370.09995</ele>
        <time>2022-03-12T13:33:56.000Z</time>
      </trkpt>
      <trkpt lat="46.88871" lon="4.61637">
        <ele>369.94995</ele>
        <time>2022-03-12T13:33:58.000Z</time>
      </trkpt>
      <trkpt lat="46.88874" lon="4.61638">
        <ele>369.79996</ele>
        <time>2022-03-12T13:34:01.000Z</time>
      </trkpt>
      <trkpt lat="46.88877" lon="4.61638">
        <ele>369.69995</ele>
        <time>2022-03-12T13:34:03.000Z</time>
      </trkpt>
      <trkpt lat="46.88879" lon="4.61637">
        <ele>369.54996</ele>
        <time>2022-03-12T13:34:05.000Z</time>
      </trkpt>
      <trkpt lat="46.88882" lon="4.61638">
        <ele>369.34995</ele>
        <time>2022-03-12T13:34:08.000Z</time>
      </trkpt>
      <trkpt lat="46.88884" lon="4.61637">
        <ele>369.19995</ele>
        <time>2022-03-12T13:34:10.000Z</time>
      </trkpt>
      <trkpt lat="46.88887" lon="4.61639">
        <ele>369.09995</ele>
        <time>2022-03-12T13:34:12.000Z</time>
      </trkpt>
      <trkpt lat="46.8889" lon="4.61639">
        <ele>369.04996</ele>
        <time>2022-03-12T13:34:14.000Z</time>
      </trkpt>
      <trkpt lat="46.88892" lon="4.61639">
        <ele>368.99994</ele>
        <time>2022-03-12T13:34:16.000Z</time>
      </trkpt>
      <trkpt lat="46.88896" lon="4.6164">
        <ele>368.89996</ele>
        <time>2022-03-12T13:34:18.000Z</time>
      </trkpt>
      <trkpt lat="46.88898" lon="4.6164">
        <ele>368.84995</ele>
        <time>2022-03-12T13:34:20.000Z</time>
      </trkpt>
      <trkpt lat="46.88901" lon="4.61641">
        <ele>368.79996</ele>
        <time>2022-03-12T13:34:22.000Z</time>
      </trkpt>
      <trkpt lat="46.88903" lon="4.61641">
        <ele>368.79996</ele>
        <time>2022-03-12T13:34:24.000Z</time>
      </trkpt>
      <trkpt lat="46.88905" lon="4.6164">
        <ele>368.84995</ele>
        <time>2022-03-12T13:34:26.000Z</time>
      </trkpt>
      <trkpt lat="46.88907" lon="4.61641">
        <ele>369.04996</ele>
        <time>2022-03-12T13:34:28.000Z</time>
      </trkpt>
      <trkpt lat="46.8891" lon="4.61641">
        <ele>369.29996</ele>
        <time>2022-03-12T13:34:34.000Z</time>
      </trkpt>
      <trkpt lat="46.88912" lon="4.6164">
        <ele>369.54996</ele>
        <time>2022-03-12T13:34:36.000Z</time>
      </trkpt>
      <trkpt lat="46.88914" lon="4.6164">
        <ele>369.74994</ele>
        <time>2022-03-12T13:34:38.000Z</time>
      </trkpt>
      <trkpt lat="46.88917" lon="4.6164">
        <ele>369.99994</ele>
        <time>2022-03-12T13:34:41.000Z</time>
      </trkpt>
      <trkpt lat="46.8892" lon="4.61641">
        <ele>370.19995</ele>
        <time>2022-03-12T13:34:43.000Z</time>
      </trkpt>
      <trkpt lat="46.88923" lon="4.61642">
        <ele>370.34995</ele>
        <time>2022-03-12T13:34:45.000Z</time>
      </trkpt>
      <trkpt lat="46.88925" lon="4.61643">
        <ele>370.44995</ele>
        <time>2022-03-12T13:34:47.000Z</time>
      </trkpt>
      <trkpt lat="46.88928" lon="4.61644">
        <ele>370.54996</ele>
        <time>2022-03-12T13:34:49.000Z</time>
      </trkpt>
      <trkpt lat="46.88929" lon="4.61645">
        <ele>370.69995</ele>
        <time>2022-03-12T13:34:51.000Z</time>
      </trkpt>
      <trkpt lat="46.88932" lon="4.61645">
        <ele>370.89996</ele>
        <time>2022-03-12T13:34:53.000Z</time>
      </trkpt>
      <trkpt lat="46.88934" lon="4.61647">
        <ele>370.99994</ele>
        <time>2022-03-12T13:34:55.000Z</time>
      </trkpt>
      <trkpt lat="46.88937" lon="4.61647">
        <ele>371.09995</ele>
        <time>2022-03-12T13:34:57.000Z</time>
      </trkpt>
      <trkpt lat="46.88939" lon="4.61648">
        <ele>371.14996</ele>
        <time>2022-03-12T13:34:59.000Z</time>
      </trkpt>
      <trkpt lat="46.88942" lon="4.6165">
        <ele>371.19995</ele>
        <time>2022-03-12T13:35:01.000Z</time>
      </trkpt>
      <trkpt lat="46.88945" lon="4.6165">
        <ele>371.24994</ele>
        <time>2022-03-12T13:35:03.000Z</time>
      </trkpt>
      <trkpt lat="46.88948" lon="4.6165">
        <ele>371.29996</ele>
        <time>2022-03-12T13:35:05.000Z</time>
      </trkpt>
      <trkpt lat="46.8895" lon="4.61651">
        <ele>371.34995</ele>
        <time>2022-03-12T13:35:07.000Z</time>
      </trkpt>
      <trkpt lat="46.88953" lon="4.61653">
        <ele>371.24994</ele>
        <time>2022-03-12T13:35:11.000Z</time>
      </trkpt>
      <trkpt lat="46.88956" lon="4.61656">
        <ele>371.14996</ele>
        <time>2022-03-12T13:35:13.000Z</time>
      </trkpt>
      <trkpt lat="46.88958" lon="4.61658">
        <ele>370.99994</ele>
        <time>2022-03-12T13:35:15.000Z</time>
      </trkpt>
      <trkpt lat="46.8896" lon="4.61659">
        <ele>370.94995</ele>
        <time>2022-03-12T13:35:17.000Z</time>
      </trkpt>
      <trkpt lat="46.88964" lon="4.6166">
        <ele>370.79996</ele>
        <time>2022-03-12T13:35:20.000Z</time>
      </trkpt>
      <trkpt lat="46.88966" lon="4.61661">
        <ele>370.69995</ele>
        <time>2022-03-12T13:35:22.000Z</time>
      </trkpt>
      <trkpt lat="46.88969" lon="4.61663">
        <ele>370.49994</ele>
        <time>2022-03-12T13:35:24.000Z</time>
      </trkpt>
      <trkpt lat="46.88971" lon="4.61663">
        <ele>370.34995</ele>
        <time>2022-03-12T13:35:26.000Z</time>
      </trkpt>
      <trkpt lat="46.88973" lon="4.61664">
        <ele>370.24994</ele>
        <time>2022-03-12T13:35:28.000Z</time>
      </trkpt>
      <trkpt lat="46.88975" lon="4.61665">
        <ele>370.19995</ele>
        <time>2022-03-12T13:35:30.000Z</time>
      </trkpt>
      <trkpt lat="46.88978" lon="4.61666">
        <ele>370.09995</ele>
        <time>2022-03-12T13:35:32.000Z</time>
      </trkpt>
      <trkpt lat="46.8898" lon="4.61667">
        <ele>369.99994</ele>
        <time>2022-03-12T13:35:34.000Z</time>
      </trkpt>
      <trkpt lat="46.88981" lon="4.61669">
        <ele>369.79996</ele>
        <time>2022-03-12T13:35:36.000Z</time>
      </trkpt>
      <trkpt lat="46.88983" lon="4.61672">
        <ele>369.64996</ele>
        <time>2022-03-12T13:35:39.000Z</time>
      </trkpt>
      <trkpt lat="46.88985" lon="4.61674">
        <ele>369.49994</ele>
        <time>2022-03-12T13:35:43.000Z</time>
      </trkpt>
      <trkpt lat="46.88986" lon="4.61676">
        <ele>369.34995</ele>
        <time>2022-03-12T13:35:45.000Z</time>
      </trkpt>
      <trkpt lat="46.88988" lon="4.61677">
        <ele>369.14996</ele>
        <time>2022-03-12T13:35:47.000Z</time>
      </trkpt>
      <trkpt lat="46.8899" lon="4.61677">
        <ele>368.94995</ele>
        <time>2022-03-12T13:35:49.000Z</time>
      </trkpt>
      <trkpt lat="46.88992" lon="4.61679">
        <ele>368.74994</ele>
        <time>2022-03-12T13:35:51.000Z</time>
      </trkpt>
      <trkpt lat="46.88994" lon="4.6168">
        <ele>368.59995</ele>
        <time>2022-03-12T13:35:53.000Z</time>
      </trkpt>
      <trkpt lat="46.88996" lon="4.61682">
        <ele>368.59995</ele>
        <time>2022-03-12T13:35:56.000Z</time>
      </trkpt>
      <trkpt lat="46.88998" lon="4.61683">
        <ele>368.59995</ele>
        <time>2022-03-12T13:35:59.000Z</time>
      </trkpt>
      <trkpt lat="46.88996" lon="4.61684">
        <ele>368.24994</ele>
        <time>2022-03-12T13:36:56.000Z</time>
      </trkpt>
      <trkpt lat="46.88998" lon="4.61684">
        <ele>368.09995</ele>
        <time>2022-03-12T13:37:18.000Z</time>
      </trkpt>
      <trkpt lat="46.88999" lon="4.61686">
        <ele>367.99994</ele>
        <time>2022-03-12T13:37:21.000Z</time>
      </trkpt>
      <trkpt lat="46.89001" lon="4.61687">
        <ele>367.89996</ele>
        <time>2022-03-12T13:37:24.000Z</time>
      </trkpt>
      <trkpt lat="46.89003" lon="4.61689">
        <ele>367.89996</ele>
        <time>2022-03-12T13:37:26.000Z</time>
      </trkpt>
      <trkpt lat="46.89004" lon="4.61691">
        <ele>367.84995</ele>
        <time>2022-03-12T13:37:29.000Z</time>
      </trkpt>
      <trkpt lat="46.89007" lon="4.61693">
        <ele>367.84995</ele>
        <time>2022-03-12T13:37:32.000Z</time>
      </trkpt>
      <trkpt lat="46.89008" lon="4.61695">
        <ele>367.84995</ele>
        <time>2022-03-12T13:37:34.000Z</time>
      </trkpt>
      <trkpt lat="46.8901" lon="4.61696">
        <ele>367.84995</ele>
        <time>2022-03-12T13:37:36.000Z</time>
      </trkpt>
      <trkpt lat="46.89012" lon="4.61698">
        <ele>367.84995</ele>
        <time>2022-03-12T13:37:39.000Z</time>
      </trkpt>
      <trkpt lat="46.89014" lon="4.61698">
        <ele>367.84995</ele>
        <time>2022-03-12T13:37:41.000Z</time>
      </trkpt>
      <trkpt lat="46.89016" lon="4.61699">
        <ele>367.84995</ele>
        <time>2022-03-12T13:37:43.000Z</time>
      </trkpt>
      <trkpt lat="46.89018" lon="4.617">
        <ele>367.79996</ele>
        <time>2022-03-12T13:37:45.000Z</time>
      </trkpt>
      <trkpt lat="46.8902" lon="4.61701">
        <ele>367.74994</ele>
        <time>2022-03-12T13:37:48.000Z</time>
      </trkpt>
      <trkpt lat="46.89022" lon="4.61702">
        <ele>367.69995</ele>
        <time>2022-03-12T13:37:51.000Z</time>
      </trkpt>
      <trkpt lat="46.89023" lon="4.61703">
        <ele>367.64996</ele>
        <time>2022-03-12T13:37:53.000Z</time>
      </trkpt>
      <trkpt lat="46.89025" lon="4.61705">
        <ele>367.59995</ele>
        <time>2022-03-12T13:37:55.000Z</time>
      </trkpt>
      <trkpt lat="46.89027" lon="4.61707">
        <ele>367.49994</ele>
        <time>2022-03-12T13:37:58.000Z</time>
      </trkpt>
      <trkpt lat="46.89029" lon="4.61708">
        <ele>367.34995</ele>
        <time>2022-03-12T13:38:00.000Z</time>
      </trkpt>
      <trkpt lat="46.89031" lon="4.61709">
        <ele>367.14996</ele>
        <time>2022-03-12T13:38:02.000Z</time>
      </trkpt>
      <trkpt lat="46.89033" lon="4.61711">
        <ele>367.34995</ele>
        <time>2022-03-12T13:38:04.000Z</time>
      </trkpt>
      <trkpt lat="46.89035" lon="4.61713">
        <ele>367.29996</ele>
        <time>2022-03-12T13:38:07.000Z</time>
      </trkpt>
      <trkpt lat="46.89036" lon="4.61715">
        <ele>367.19995</ele>
        <time>2022-03-12T13:38:09.000Z</time>
      </trkpt>
      <trkpt lat="46.89038" lon="4.61716">
        <ele>367.09995</ele>
        <time>2022-03-12T13:38:11.000Z</time>
      </trkpt>
      <trkpt lat="46.8904" lon="4.61718">
        <ele>366.89996</ele>
        <time>2022-03-12T13:38:13.000Z</time>
      </trkpt>
      <trkpt lat="46.89042" lon="4.61721">
        <ele>366.69995</ele>
        <time>2022-03-12T13:38:15.000Z</time>
      </trkpt>
      <trkpt lat="46.89043" lon="4.61723">
        <ele>366.39996</ele>
        <time>2022-03-12T13:38:17.000Z</time>
      </trkpt>
      <trkpt lat="46.89044" lon="4.61726">
        <ele>366.09995</ele>
        <time>2022-03-12T13:38:19.000Z</time>
      </trkpt>
      <trkpt lat="46.89045" lon="4.61728">
        <ele>365.84995</ele>
        <time>2022-03-12T13:38:21.000Z</time>
      </trkpt>
      <trkpt lat="46.89047" lon="4.6173">
        <ele>365.54996</ele>
        <time>2022-03-12T13:38:23.000Z</time>
      </trkpt>
      <trkpt lat="46.89049" lon="4.61731">
        <ele>365.29996</ele>
        <time>2022-03-12T13:38:25.000Z</time>
      </trkpt>
      <trkpt lat="46.89051" lon="4.61732">
        <ele>365.09995</ele>
        <time>2022-03-12T13:38:28.000Z</time>
      </trkpt>
      <trkpt lat="46.89053" lon="4.61734">
        <ele>364.89996</ele>
        <time>2022-03-12T13:38:31.000Z</time>
      </trkpt>
      <trkpt lat="46.89055" lon="4.61733">
        <ele>364.74994</ele>
        <time>2022-03-12T13:38:33.000Z</time>
      </trkpt>
      <trkpt lat="46.89057" lon="4.61733">
        <ele>364.69995</ele>
        <time>2022-03-12T13:38:57.000Z</time>
      </trkpt>
      <trkpt lat="46.89057" lon="4.61736">
        <ele>364.49994</ele>
        <time>2022-03-12T13:39:23.000Z</time>
      </trkpt>
      <trkpt lat="46.89059" lon="4.61739">
        <ele>364.34995</ele>
        <time>2022-03-12T13:39:26.000Z</time>
      </trkpt>
      <trkpt lat="46.8906" lon="4.61741">
        <ele>364.14996</ele>
        <time>2022-03-12T13:39:29.000Z</time>
      </trkpt>
      <trkpt lat="46.89062" lon="4.61745">
        <ele>364.04996</ele>
        <time>2022-03-12T13:39:43.000Z</time>
      </trkpt>
      <trkpt lat="46.89064" lon="4.61746">
        <ele>363.99994</ele>
        <time>2022-03-12T13:39:46.000Z</time>
      </trkpt>
      <trkpt lat="46.89065" lon="4.61743">
        <ele>363.94995</ele>
        <time>2022-03-12T13:39:48.000Z</time>
      </trkpt>
      <trkpt lat="46.89065" lon="4.6174">
        <ele>363.89996</ele>
        <time>2022-03-12T13:39:51.000Z</time>
      </trkpt>
      <trkpt lat="46.89067" lon="4.61742">
        <ele>363.79996</ele>
        <time>2022-03-12T13:40:15.000Z</time>
      </trkpt>
      <trkpt lat="46.89066" lon="4.61745">
        <ele>363.59995</ele>
        <time>2022-03-12T13:40:18.000Z</time>
      </trkpt>
      <trkpt lat="46.89067" lon="4.61748">
        <ele>363.49994</ele>
        <time>2022-03-12T13:40:20.000Z</time>
      </trkpt>
      <trkpt lat="46.89069" lon="4.61751">
        <ele>363.39996</ele>
        <time>2022-03-12T13:40:22.000Z</time>
      </trkpt>
      <trkpt lat="46.8907" lon="4.61753">
        <ele>363.34995</ele>
        <time>2022-03-12T13:40:24.000Z</time>
      </trkpt>
      <trkpt lat="46.89072" lon="4.61755">
        <ele>363.24994</ele>
        <time>2022-03-12T13:40:26.000Z</time>
      </trkpt>
      <trkpt lat="46.89073" lon="4.61757">
        <ele>363.14996</ele>
        <time>2022-03-12T13:40:28.000Z</time>
      </trkpt>
      <trkpt lat="46.89076" lon="4.61759">
        <ele>363.14996</ele>
        <time>2022-03-12T13:40:30.000Z</time>
      </trkpt>
      <trkpt lat="46.89079" lon="4.6176">
        <ele>363.09995</ele>
        <time>2022-03-12T13:40:32.000Z</time>
      </trkpt>
      <trkpt lat="46.89081" lon="4.61761">
        <ele>362.99994</ele>
        <time>2022-03-12T13:40:34.000Z</time>
      </trkpt>
      <trkpt lat="46.89083" lon="4.61763">
        <ele>362.94995</ele>
        <time>2022-03-12T13:40:36.000Z</time>
      </trkpt>
      <trkpt lat="46.89086" lon="4.61764">
        <ele>362.84995</ele>
        <time>2022-03-12T13:40:38.000Z</time>
      </trkpt>
      <trkpt lat="46.89088" lon="4.61766">
        <ele>362.69995</ele>
        <time>2022-03-12T13:40:40.000Z</time>
      </trkpt>
      <trkpt lat="46.89091" lon="4.61767">
        <ele>362.69995</ele>
        <time>2022-03-12T13:40:42.000Z</time>
      </trkpt>
      <trkpt lat="46.89093" lon="4.61768">
        <ele>362.69995</ele>
        <time>2022-03-12T13:40:44.000Z</time>
      </trkpt>
      <trkpt lat="46.89096" lon="4.61769">
        <ele>362.74994</ele>
        <time>2022-03-12T13:40:46.000Z</time>
      </trkpt>
      <trkpt lat="46.89099" lon="4.61771">
        <ele>362.69995</ele>
        <time>2022-03-12T13:40:48.000Z</time>
      </trkpt>
      <trkpt lat="46.89101" lon="4.61772">
        <ele>362.69995</ele>
        <time>2022-03-12T13:40:50.000Z</time>
      </trkpt>
      <trkpt lat="46.89104" lon="4.61773">
        <ele>362.69995</ele>
        <time>2022-03-12T13:40:52.000Z</time>
      </trkpt>
      <trkpt lat="46.89106" lon="4.61774">
        <ele>362.64996</ele>
        <time>2022-03-12T13:40:54.000Z</time>
      </trkpt>
      <trkpt lat="46.89108" lon="4.61775">
        <ele>362.74994</ele>
        <time>2022-03-12T13:40:56.000Z</time>
      </trkpt>
      <trkpt lat="46.89111" lon="4.61776">
        <ele>362.94995</ele>
        <time>2022-03-12T13:40:58.000Z</time>
      </trkpt>
      <trkpt lat="46.89113" lon="4.61777">
        <ele>363.09995</ele>
        <time>2022-03-12T13:41:00.000Z</time>
      </trkpt>
      <trkpt lat="46.89115" lon="4.61778">
        <ele>363.24994</ele>
        <time>2022-03-12T13:41:02.000Z</time>
      </trkpt>
      <trkpt lat="46.89117" lon="4.61779">
        <ele>363.39996</ele>
        <time>2022-03-12T13:41:04.000Z</time>
      </trkpt>
      <trkpt lat="46.8912" lon="4.6178">
        <ele>363.64996</ele>
        <time>2022-03-12T13:41:06.000Z</time>
      </trkpt>
      <trkpt lat="46.89122" lon="4.61781">
        <ele>363.89996</ele>
        <time>2022-03-12T13:41:08.000Z</time>
      </trkpt>
      <trkpt lat="46.89124" lon="4.61781">
        <ele>364.09995</ele>
        <time>2022-03-12T13:41:10.000Z</time>
      </trkpt>
      <trkpt lat="46.89125" lon="4.61782">
        <ele>364.29996</ele>
        <time>2022-03-12T13:41:12.000Z</time>
      </trkpt>
      <trkpt lat="46.89128" lon="4.61783">
        <ele>364.49994</ele>
        <time>2022-03-12T13:41:15.000Z</time>
      </trkpt>
      <trkpt lat="46.8913" lon="4.61785">
        <ele>364.69995</ele>
        <time>2022-03-12T13:41:17.000Z</time>
      </trkpt>
      <trkpt lat="46.89132" lon="4.61785">
        <ele>364.89996</ele>
        <time>2022-03-12T13:41:19.000Z</time>
      </trkpt>
      <trkpt lat="46.89134" lon="4.61787">
        <ele>365.09995</ele>
        <time>2022-03-12T13:41:21.000Z</time>
      </trkpt>
      <trkpt lat="46.89137" lon="4.61788">
        <ele>365.34995</ele>
        <time>2022-03-12T13:41:23.000Z</time>
      </trkpt>
      <trkpt lat="46.89139" lon="4.61788">
        <ele>365.54996</ele>
        <time>2022-03-12T13:41:25.000Z</time>
      </trkpt>
      <trkpt lat="46.89141" lon="4.61789">
        <ele>365.74994</ele>
        <time>2022-03-12T13:41:27.000Z</time>
      </trkpt>
      <trkpt lat="46.89142" lon="4.61791">
        <ele>365.99994</ele>
        <time>2022-03-12T13:41:29.000Z</time>
      </trkpt>
      <trkpt lat="46.89145" lon="4.61792">
        <ele>366.19995</ele>
        <time>2022-03-12T13:41:31.000Z</time>
      </trkpt>
      <trkpt lat="46.89147" lon="4.61792">
        <ele>366.39996</ele>
        <time>2022-03-12T13:41:33.000Z</time>
      </trkpt>
      <trkpt lat="46.89149" lon="4.61793">
        <ele>366.64996</ele>
        <time>2022-03-12T13:41:35.000Z</time>
      </trkpt>
      <trkpt lat="46.89152" lon="4.61794">
        <ele>366.89996</ele>
        <time>2022-03-12T13:41:37.000Z</time>
      </trkpt>
      <trkpt lat="46.89155" lon="4.61795">
        <ele>367.09995</ele>
        <time>2022-03-12T13:41:44.000Z</time>
      </trkpt>
      <trkpt lat="46.89157" lon="4.61796">
        <ele>367.29996</ele>
        <time>2022-03-12T13:41:46.000Z</time>
      </trkpt>
      <trkpt lat="46.8916" lon="4.61796">
        <ele>367.44995</ele>
        <time>2022-03-12T13:41:48.000Z</time>
      </trkpt>
      <trkpt lat="46.89163" lon="4.61799">
        <ele>367.59995</ele>
        <time>2022-03-12T13:41:51.000Z</time>
      </trkpt>
      <trkpt lat="46.89166" lon="4.61799">
        <ele>367.69995</ele>
        <time>2022-03-12T13:41:53.000Z</time>
      </trkpt>
      <trkpt lat="46.89168" lon="4.618">
        <ele>367.79996</ele>
        <time>2022-03-12T13:41:55.000Z</time>
      </trkpt>
      <trkpt lat="46.89171" lon="4.618">
        <ele>367.94995</ele>
        <time>2022-03-12T13:41:57.000Z</time>
      </trkpt>
      <trkpt lat="46.89173" lon="4.618">
        <ele>368.14996</ele>
        <time>2022-03-12T13:41:59.000Z</time>
      </trkpt>
      <trkpt lat="46.89175" lon="4.61801">
        <ele>368.39996</ele>
        <time>2022-03-12T13:42:01.000Z</time>
      </trkpt>
      <trkpt lat="46.89177" lon="4.61802">
        <ele>368.64996</ele>
        <time>2022-03-12T13:42:03.000Z</time>
      </trkpt>
      <trkpt lat="46.8918" lon="4.61803">
        <ele>368.99994</ele>
        <time>2022-03-12T13:42:06.000Z</time>
      </trkpt>
      <trkpt lat="46.89182" lon="4.61803">
        <ele>369.34995</ele>
        <time>2022-03-12T13:42:08.000Z</time>
      </trkpt>
      <trkpt lat="46.89184" lon="4.61805">
        <ele>369.69995</ele>
        <time>2022-03-12T13:42:10.000Z</time>
      </trkpt>
      <trkpt lat="46.89186" lon="4.61806">
        <ele>370.04996</ele>
        <time>2022-03-12T13:42:12.000Z</time>
      </trkpt>
      <trkpt lat="46.89188" lon="4.61808">
        <ele>370.39996</ele>
        <time>2022-03-12T13:42:14.000Z</time>
      </trkpt>
      <trkpt lat="46.89191" lon="4.61808">
        <ele>370.74994</ele>
        <time>2022-03-12T13:42:16.000Z</time>
      </trkpt>
      <trkpt lat="46.89193" lon="4.61809">
        <ele>371.09995</ele>
        <time>2022-03-12T13:42:18.000Z</time>
      </trkpt>
      <trkpt lat="46.89195" lon="4.6181">
        <ele>371.39996</ele>
        <time>2022-03-12T13:42:20.000Z</time>
      </trkpt>
      <trkpt lat="46.89197" lon="4.6181">
        <ele>371.74994</ele>
        <time>2022-03-12T13:42:22.000Z</time>
      </trkpt>
      <trkpt lat="46.89199" lon="4.61809">
        <ele>372.09995</ele>
        <time>2022-03-12T13:42:24.000Z</time>
      </trkpt>
      <trkpt lat="46.89202" lon="4.6181">
        <ele>372.54996</ele>
        <time>2022-03-12T13:42:26.000Z</time>
      </trkpt>
      <trkpt lat="46.89204" lon="4.61813">
        <ele>372.99994</ele>
        <time>2022-03-12T13:42:29.000Z</time>
      </trkpt>
      <trkpt lat="46.89206" lon="4.61815">
        <ele>373.29996</ele>
        <time>2022-03-12T13:42:38.000Z</time>
      </trkpt>
      <trkpt lat="46.89207" lon="4.61818">
        <ele>373.69995</ele>
        <time>2022-03-12T13:42:41.000Z</time>
      </trkpt>
      <trkpt lat="46.89209" lon="4.6182">
        <ele>374.14996</ele>
        <time>2022-03-12T13:42:44.000Z</time>
      </trkpt>
      <trkpt lat="46.8921" lon="4.61823">
        <ele>374.59995</ele>
        <time>2022-03-12T13:42:46.000Z</time>
      </trkpt>
      <trkpt lat="46.89211" lon="4.61826">
        <ele>375.04996</ele>
        <time>2022-03-12T13:42:48.000Z</time>
      </trkpt>
      <trkpt lat="46.89211" lon="4.6183">
        <ele>375.49994</ele>
        <time>2022-03-12T13:42:50.000Z</time>
      </trkpt>
      <trkpt lat="46.89212" lon="4.61833">
        <ele>375.94995</ele>
        <time>2022-03-12T13:42:52.000Z</time>
      </trkpt>
      <trkpt lat="46.89213" lon="4.61836">
        <ele>376.44995</ele>
        <time>2022-03-12T13:42:54.000Z</time>
      </trkpt>
      <trkpt lat="46.89213" lon="4.61839">
        <ele>376.89996</ele>
        <time>2022-03-12T13:42:56.000Z</time>
      </trkpt>
      <trkpt lat="46.89212" lon="4.61843">
        <ele>377.34995</ele>
        <time>2022-03-12T13:42:58.000Z</time>
      </trkpt>
      <trkpt lat="46.89213" lon="4.61845">
        <ele>377.74994</ele>
        <time>2022-03-12T13:43:00.000Z</time>
      </trkpt>
      <trkpt lat="46.89214" lon="4.61846">
        <ele>378.19995</ele>
        <time>2022-03-12T13:43:03.000Z</time>
      </trkpt>
      <trkpt lat="46.89216" lon="4.61842">
        <ele>378.69995</ele>
        <time>2022-03-12T13:43:06.000Z</time>
      </trkpt>
      <trkpt lat="46.89216" lon="4.61838">
        <ele>379.19995</ele>
        <time>2022-03-12T13:43:09.000Z</time>
      </trkpt>
      <trkpt lat="46.89217" lon="4.61835">
        <ele>379.69995</ele>
        <time>2022-03-12T13:43:11.000Z</time>
      </trkpt>
      <trkpt lat="46.89217" lon="4.61833">
        <ele>380.19995</ele>
        <time>2022-03-12T13:43:13.000Z</time>
      </trkpt>
      <trkpt lat="46.89217" lon="4.61829">
        <ele>380.64996</ele>
        <time>2022-03-12T13:43:16.000Z</time>
      </trkpt>
      <trkpt lat="46.89216" lon="4.61826">
        <ele>380.99994</ele>
        <time>2022-03-12T13:43:34.000Z</time>
      </trkpt>
      <trkpt lat="46.89216" lon="4.6183">
        <ele>381.19995</ele>
        <time>2022-03-12T13:43:39.000Z</time>
      </trkpt>
      <trkpt lat="46.89217" lon="4.61834">
        <ele>381.34995</ele>
        <time>2022-03-12T13:43:42.000Z</time>
      </trkpt>
      <trkpt lat="46.89217" lon="4.61837">
        <ele>381.69995</ele>
        <time>2022-03-12T13:43:45.000Z</time>
      </trkpt>
      <trkpt lat="46.89216" lon="4.61841">
        <ele>382.04996</ele>
        <time>2022-03-12T13:43:47.000Z</time>
      </trkpt>
      <trkpt lat="46.89216" lon="4.61844">
        <ele>382.34995</ele>
        <time>2022-03-12T13:43:49.000Z</time>
      </trkpt>
      <trkpt lat="46.89217" lon="4.61847">
        <ele>382.64996</ele>
        <time>2022-03-12T13:43:51.000Z</time>
      </trkpt>
      <trkpt lat="46.89217" lon="4.6185">
        <ele>382.89996</ele>
        <time>2022-03-12T13:43:53.000Z</time>
      </trkpt>
      <trkpt lat="46.89217" lon="4.61855">
        <ele>383.19995</ele>
        <time>2022-03-12T13:43:55.000Z</time>
      </trkpt>
      <trkpt lat="46.89217" lon="4.61858">
        <ele>383.44995</ele>
        <time>2022-03-12T13:43:57.000Z</time>
      </trkpt>
      <trkpt lat="46.89218" lon="4.61863">
        <ele>383.64996</ele>
        <time>2022-03-12T13:43:59.000Z</time>
      </trkpt>
      <trkpt lat="46.89218" lon="4.61866">
        <ele>383.79996</ele>
        <time>2022-03-12T13:44:02.000Z</time>
      </trkpt>
      <trkpt lat="46.89219" lon="4.6187">
        <ele>383.94995</ele>
        <time>2022-03-12T13:44:05.000Z</time>
      </trkpt>
      <trkpt lat="46.8922" lon="4.61873">
        <ele>384.14996</ele>
        <time>2022-03-12T13:44:07.000Z</time>
      </trkpt>
      <trkpt lat="46.89221" lon="4.61877">
        <ele>384.29996</ele>
        <time>2022-03-12T13:44:10.000Z</time>
      </trkpt>
      <trkpt lat="46.89223" lon="4.61881">
        <ele>384.34995</ele>
        <time>2022-03-12T13:44:12.000Z</time>
      </trkpt>
      <trkpt lat="46.89224" lon="4.61884">
        <ele>384.34995</ele>
        <time>2022-03-12T13:44:14.000Z</time>
      </trkpt>
      <trkpt lat="46.89225" lon="4.61888">
        <ele>384.39996</ele>
        <time>2022-03-12T13:44:16.000Z</time>
      </trkpt>
      <trkpt lat="46.89225" lon="4.61891">
        <ele>384.44995</ele>
        <time>2022-03-12T13:44:18.000Z</time>
      </trkpt>
      <trkpt lat="46.89225" lon="4.61894">
        <ele>384.49994</ele>
        <time>2022-03-12T13:44:20.000Z</time>
      </trkpt>
      <trkpt lat="46.89225" lon="4.61898">
        <ele>384.64996</ele>
        <time>2022-03-12T13:44:22.000Z</time>
      </trkpt>
      <trkpt lat="46.89225" lon="4.61901">
        <ele>384.84995</ele>
        <time>2022-03-12T13:44:24.000Z</time>
      </trkpt>
      <trkpt lat="46.89226" lon="4.61903">
        <ele>385.14996</ele>
        <time>2022-03-12T13:44:26.000Z</time>
      </trkpt>
      <trkpt lat="46.89226" lon="4.61906">
        <ele>385.44995</ele>
        <time>2022-03-12T13:44:28.000Z</time>
      </trkpt>
      <trkpt lat="46.89227" lon="4.6191">
        <ele>385.59995</ele>
        <time>2022-03-12T13:44:30.000Z</time>
      </trkpt>
      <trkpt lat="46.89227" lon="4.61913">
        <ele>385.74994</ele>
        <time>2022-03-12T13:44:32.000Z</time>
      </trkpt>
      <trkpt lat="46.89227" lon="4.61917">
        <ele>385.89996</ele>
        <time>2022-03-12T13:44:34.000Z</time>
      </trkpt>
      <trkpt lat="46.89228" lon="4.61921">
        <ele>386.04996</ele>
        <time>2022-03-12T13:44:36.000Z</time>
      </trkpt>
      <trkpt lat="46.89229" lon="4.61925">
        <ele>386.14996</ele>
        <time>2022-03-12T13:44:38.000Z</time>
      </trkpt>
      <trkpt lat="46.89229" lon="4.61928">
        <ele>386.24994</ele>
        <time>2022-03-12T13:44:40.000Z</time>
      </trkpt>
      <trkpt lat="46.89231" lon="4.61931">
        <ele>386.34995</ele>
        <time>2022-03-12T13:44:42.000Z</time>
      </trkpt>
      <trkpt lat="46.89233" lon="4.61934">
        <ele>386.49994</ele>
        <time>2022-03-12T13:44:44.000Z</time>
      </trkpt>
      <trkpt lat="46.89234" lon="4.61937">
        <ele>386.69995</ele>
        <time>2022-03-12T13:44:46.000Z</time>
      </trkpt>
      <trkpt lat="46.89236" lon="4.6194">
        <ele>386.84995</ele>
        <time>2022-03-12T13:44:48.000Z</time>
      </trkpt>
      <trkpt lat="46.89237" lon="4.61944">
        <ele>386.99994</ele>
        <time>2022-03-12T13:44:50.000Z</time>
      </trkpt>
      <trkpt lat="46.89239" lon="4.61947">
        <ele>387.19995</ele>
        <time>2022-03-12T13:44:53.000Z</time>
      </trkpt>
      <trkpt lat="46.8924" lon="4.61949">
        <ele>387.44995</ele>
        <time>2022-03-12T13:44:55.000Z</time>
      </trkpt>
      <trkpt lat="46.89241" lon="4.61953">
        <ele>387.64996</ele>
        <time>2022-03-12T13:44:57.000Z</time>
      </trkpt>
      <trkpt lat="46.89242" lon="4.61956">
        <ele>387.84995</ele>
        <time>2022-03-12T13:44:59.000Z</time>
      </trkpt>
      <trkpt lat="46.89243" lon="4.61959">
        <ele>388.04996</ele>
        <time>2022-03-12T13:45:01.000Z</time>
      </trkpt>
      <trkpt lat="46.89244" lon="4.61962">
        <ele>388.24994</ele>
        <time>2022-03-12T13:45:03.000Z</time>
      </trkpt>
      <trkpt lat="46.89245" lon="4.61965">
        <ele>388.44995</ele>
        <time>2022-03-12T13:45:05.000Z</time>
      </trkpt>
      <trkpt lat="46.89247" lon="4.61968">
        <ele>388.54996</ele>
        <time>2022-03-12T13:45:07.000Z</time>
      </trkpt>
      <trkpt lat="46.89248" lon="4.6197">
        <ele>388.59995</ele>
        <time>2022-03-12T13:45:09.000Z</time>
      </trkpt>
      <trkpt lat="46.89249" lon="4.61973">
        <ele>388.69995</ele>
        <time>2022-03-12T13:45:11.000Z</time>
      </trkpt>
      <trkpt lat="46.8925" lon="4.61976">
        <ele>388.79996</ele>
        <time>2022-03-12T13:45:13.000Z</time>
      </trkpt>
      <trkpt lat="46.89251" lon="4.61981">
        <ele>388.94995</ele>
        <time>2022-03-12T13:45:16.000Z</time>
      </trkpt>
      <trkpt lat="46.89251" lon="4.61984">
        <ele>389.09995</ele>
        <time>2022-03-12T13:45:18.000Z</time>
      </trkpt>
      <trkpt lat="46.89251" lon="4.61988">
        <ele>389.24994</ele>
        <time>2022-03-12T13:45:20.000Z</time>
      </trkpt>
      <trkpt lat="46.89252" lon="4.6199">
        <ele>389.39996</ele>
        <time>2022-03-12T13:45:22.000Z</time>
      </trkpt>
      <trkpt lat="46.89253" lon="4.61994">
        <ele>389.54996</ele>
        <time>2022-03-12T13:45:24.000Z</time>
      </trkpt>
      <trkpt lat="46.89254" lon="4.61996">
        <ele>389.64996</ele>
        <time>2022-03-12T13:45:26.000Z</time>
      </trkpt>
      <trkpt lat="46.89254" lon="4.61999">
        <ele>389.64996</ele>
        <time>2022-03-12T13:45:28.000Z</time>
      </trkpt>
      <trkpt lat="46.89255" lon="4.62002">
        <ele>389.64996</ele>
        <time>2022-03-12T13:45:30.000Z</time>
      </trkpt>
      <trkpt lat="46.89255" lon="4.62006">
        <ele>389.69995</ele>
        <time>2022-03-12T13:45:32.000Z</time>
      </trkpt>
      <trkpt lat="46.89255" lon="4.62009">
        <ele>389.74994</ele>
        <time>2022-03-12T13:45:34.000Z</time>
      </trkpt>
      <trkpt lat="46.89256" lon="4.62012">
        <ele>389.74994</ele>
        <time>2022-03-12T13:45:36.000Z</time>
      </trkpt>
      <trkpt lat="46.89257" lon="4.62015">
        <ele>389.74994</ele>
        <time>2022-03-12T13:45:38.000Z</time>
      </trkpt>
      <trkpt lat="46.89257" lon="4.62018">
        <ele>389.69995</ele>
        <time>2022-03-12T13:45:40.000Z</time>
      </trkpt>
      <trkpt lat="46.89258" lon="4.6202">
        <ele>389.64996</ele>
        <time>2022-03-12T13:45:42.000Z</time>
      </trkpt>
      <trkpt lat="46.8926" lon="4.62024">
        <ele>389.59995</ele>
        <time>2022-03-12T13:45:45.000Z</time>
      </trkpt>
      <trkpt lat="46.8926" lon="4.62028">
        <ele>389.59995</ele>
        <time>2022-03-12T13:45:48.000Z</time>
      </trkpt>
      <trkpt lat="46.8926" lon="4.62031">
        <ele>389.59995</ele>
        <time>2022-03-12T13:45:50.000Z</time>
      </trkpt>
      <trkpt lat="46.8926" lon="4.62034">
        <ele>389.64996</ele>
        <time>2022-03-12T13:45:52.000Z</time>
      </trkpt>
      <trkpt lat="46.8926" lon="4.62037">
        <ele>389.69995</ele>
        <time>2022-03-12T13:45:54.000Z</time>
      </trkpt>
      <trkpt lat="46.89259" lon="4.62041">
        <ele>389.74994</ele>
        <time>2022-03-12T13:45:57.000Z</time>
      </trkpt>
      <trkpt lat="46.89259" lon="4.62044">
        <ele>389.74994</ele>
        <time>2022-03-12T13:46:00.000Z</time>
      </trkpt>
      <trkpt lat="46.8926" lon="4.62047">
        <ele>389.79996</ele>
        <time>2022-03-12T13:46:02.000Z</time>
      </trkpt>
      <trkpt lat="46.89261" lon="4.6205">
        <ele>389.84995</ele>
        <time>2022-03-12T13:46:04.000Z</time>
      </trkpt>
      <trkpt lat="46.89261" lon="4.62053">
        <ele>389.89996</ele>
        <time>2022-03-12T13:46:06.000Z</time>
      </trkpt>
      <trkpt lat="46.89262" lon="4.62057">
        <ele>389.94995</ele>
        <time>2022-03-12T13:46:08.000Z</time>
      </trkpt>
      <trkpt lat="46.89261" lon="4.62063">
        <ele>389.94995</ele>
        <time>2022-03-12T13:46:11.000Z</time>
      </trkpt>
      <trkpt lat="46.89261" lon="4.62067">
        <ele>390.04996</ele>
        <time>2022-03-12T13:46:14.000Z</time>
      </trkpt>
      <trkpt lat="46.89262" lon="4.6207">
        <ele>390.09995</ele>
        <time>2022-03-12T13:46:16.000Z</time>
      </trkpt>
      <trkpt lat="46.89263" lon="4.62073">
        <ele>390.09995</ele>
        <time>2022-03-12T13:46:18.000Z</time>
      </trkpt>
      <trkpt lat="46.89264" lon="4.62076">
        <ele>390.09995</ele>
        <time>2022-03-12T13:46:20.000Z</time>
      </trkpt>
      <trkpt lat="46.89265" lon="4.62079">
        <ele>390.04996</ele>
        <time>2022-03-12T13:46:23.000Z</time>
      </trkpt>
      <trkpt lat="46.89265" lon="4.62081">
        <ele>390.04996</ele>
        <time>2022-03-12T13:46:35.000Z</time>
      </trkpt>
      <trkpt lat="46.89265" lon="4.62084">
        <ele>390.09995</ele>
        <time>2022-03-12T13:46:44.000Z</time>
      </trkpt>
      <trkpt lat="46.89265" lon="4.62087">
        <ele>390.24994</ele>
        <time>2022-03-12T13:46:50.000Z</time>
      </trkpt>
      <trkpt lat="46.89263" lon="4.62089">
        <ele>390.29996</ele>
        <time>2022-03-12T13:46:54.000Z</time>
      </trkpt>
      <trkpt lat="46.89261" lon="4.62091">
        <ele>390.34995</ele>
        <time>2022-03-12T13:47:09.000Z</time>
      </trkpt>
      <trkpt lat="46.8926" lon="4.62093">
        <ele>390.39996</ele>
        <time>2022-03-12T13:47:11.000Z</time>
      </trkpt>
      <trkpt lat="46.89258" lon="4.62095">
        <ele>390.54996</ele>
        <time>2022-03-12T13:47:17.000Z</time>
      </trkpt>
      <trkpt lat="46.89257" lon="4.62096">
        <ele>390.69995</ele>
        <time>2022-03-12T13:47:19.000Z</time>
      </trkpt>
      <trkpt lat="46.89255" lon="4.62098">
        <ele>390.89996</ele>
        <time>2022-03-12T13:47:21.000Z</time>
      </trkpt>
      <trkpt lat="46.89253" lon="4.621">
        <ele>391.09995</ele>
        <time>2022-03-12T13:47:23.000Z</time>
      </trkpt>
      <trkpt lat="46.89251" lon="4.62102">
        <ele>391.24994</ele>
        <time>2022-03-12T13:47:27.000Z</time>
      </trkpt>
      <trkpt lat="46.8925" lon="4.62104">
        <ele>391.39996</ele>
        <time>2022-03-12T13:47:29.000Z</time>
      </trkpt>
    </trkseg>
  </trk>
</gpx>